<?xml version='1.0' encoding='UTF-8'?><gpx version="1.1" creator="JPX - https://github.com/jenetics/jpx" xmlns="http://www.topografix.com/GPX/1/1"><trk><trkseg><trkpt lat="41.7234936" lon="13.5794609"><ele>278.83333333333337</ele><time>2026-05-04T12:09:07.089Z</time></trkpt><trkpt lat="41.7236054" lon="13.5794122"><ele>279.6666666666667</ele><time>2026-05-04T12:09:09.089Z</time></trkpt><trkpt lat="41.7236764" lon="13.5793723"><ele>280.5</ele><time>2026-05-04T12:09:11.089Z</time></trkpt><trkpt lat="41.7237451" lon="13.5793241"><ele>281.3333333333333</ele><time>2026-05-04T12:09:14.088Z</time></trkpt><trkpt lat="41.7237595" lon="13.5792157"><ele>282.16666666666663</ele><time>2026-05-04T12:09:17.088Z</time></trkpt><trkpt lat="41.7237417" lon="13.5791308"><ele>283.0</ele><time>2026-05-04T12:09:18.088Z</time></trkpt><trkpt lat="41.7237185" lon="13.5790249"><ele>283.0</ele><time>2026-05-04T12:09:19.089Z</time></trkpt><trkpt lat="41.7236962" lon="13.5789111"><ele>283.0</ele><time>2026-05-04T12:09:20.088Z</time></trkpt><trkpt lat="41.7236731" lon="13.5787906"><ele>283.0</ele><time>2026-05-04T12:09:21.089Z</time></trkpt><trkpt lat="41.723648" lon="13.5786559"><ele>283.0</ele><time>2026-05-04T12:09:22.088Z</time></trkpt><trkpt lat="41.7236278" lon="13.5785148"><ele>283.0</ele><time>2026-05-04T12:09:23.088Z</time></trkpt><trkpt lat="41.723611" lon="13.5783585"><ele>283.0</ele><time>2026-05-04T12:09:24.088Z</time></trkpt><trkpt lat="41.723589" lon="13.5782068"><ele>283.0</ele><time>2026-05-04T12:09:25.088Z</time></trkpt><trkpt lat="41.7235676" lon="13.5780511"><ele>283.0</ele><time>2026-05-04T12:09:26.089Z</time></trkpt><trkpt lat="41.7235424" lon="13.5778965"><ele>283.0</ele><time>2026-05-04T12:09:27.088Z</time></trkpt><trkpt lat="41.7235154" lon="13.5777206"><ele>282.25</ele><time>2026-05-04T12:09:28.088Z</time></trkpt><trkpt lat="41.7234871" lon="13.5775393"><ele>281.5</ele><time>2026-05-04T12:09:29.089Z</time></trkpt><trkpt lat="41.723452" lon="13.577352"><ele>280.75</ele><time>2026-05-04T12:09:30.089Z</time></trkpt><trkpt lat="41.7234144" lon="13.5771665"><ele>280.0</ele><time>2026-05-04T12:09:31.088Z</time></trkpt><trkpt lat="41.7233787" lon="13.5769877"><ele>280.0</ele><time>2026-05-04T12:09:32.088Z</time></trkpt><trkpt lat="41.723335" lon="13.5768093"><ele>280.0</ele><time>2026-05-04T12:09:33.089Z</time></trkpt><trkpt lat="41.7232846" lon="13.5766338"><ele>280.0</ele><time>2026-05-04T12:09:34.089Z</time></trkpt><trkpt lat="41.7232191" lon="13.5764554"><ele>280.0</ele><time>2026-05-04T12:09:35.089Z</time></trkpt><trkpt lat="41.7231509" lon="13.5762847"><ele>280.25</ele><time>2026-05-04T12:09:36.089Z</time></trkpt><trkpt lat="41.7230959" lon="13.576125"><ele>280.5</ele><time>2026-05-04T12:09:37.089Z</time></trkpt><trkpt lat="41.7230642" lon="13.5759886"><ele>280.75</ele><time>2026-05-04T12:09:38.088Z</time></trkpt><trkpt lat="41.7230465" lon="13.5758469"><ele>281.0</ele><time>2026-05-04T12:09:39.089Z</time></trkpt><trkpt lat="41.7230266" lon="13.5757023"><ele>281.0</ele><time>2026-05-04T12:09:40.088Z</time></trkpt><trkpt lat="41.722983" lon="13.5755545"><ele>281.0</ele><time>2026-05-04T12:09:41.088Z</time></trkpt><trkpt lat="41.7229093" lon="13.5753993"><ele>281.0</ele><time>2026-05-04T12:09:42.088Z</time></trkpt><trkpt lat="41.7228303" lon="13.5752303"><ele>281.0</ele><time>2026-05-04T12:09:43.089Z</time></trkpt><trkpt lat="41.7227513" lon="13.5750712"><ele>280.5</ele><time>2026-05-04T12:09:44.088Z</time></trkpt><trkpt lat="41.7226797" lon="13.5749352"><ele>280.0</ele><time>2026-05-04T12:09:45.089Z</time></trkpt><trkpt lat="41.7225946" lon="13.5748177"><ele>279.5</ele><time>2026-05-04T12:09:46.089Z</time></trkpt><trkpt lat="41.7224863" lon="13.5747173"><ele>279.0</ele><time>2026-05-04T12:09:47.089Z</time></trkpt><trkpt lat="41.7223541" lon="13.5746342"><ele>279.0</ele><time>2026-05-04T12:09:48.088Z</time></trkpt><trkpt lat="41.7222055" lon="13.5745818"><ele>279.0</ele><time>2026-05-04T12:09:49.088Z</time></trkpt><trkpt lat="41.7220464" lon="13.5745633"><ele>279.0</ele><time>2026-05-04T12:09:50.089Z</time></trkpt><trkpt lat="41.7218866" lon="13.5745754"><ele>278.3333333333333</ele><time>2026-05-04T12:09:51.088Z</time></trkpt><trkpt lat="41.7217304" lon="13.5746292"><ele>277.66666666666663</ele><time>2026-05-04T12:09:52.088Z</time></trkpt><trkpt lat="41.7215759" lon="13.5747194"><ele>277.0</ele><time>2026-05-04T12:09:53.088Z</time></trkpt><trkpt lat="41.721426" lon="13.5748451"><ele>277.0</ele><time>2026-05-04T12:09:54.088Z</time></trkpt><trkpt lat="41.7212873" lon="13.5749788"><ele>277.0</ele><time>2026-05-04T12:09:55.089Z</time></trkpt><trkpt lat="41.7211484" lon="13.5751293"><ele>277.0</ele><time>2026-05-04T12:09:56.089Z</time></trkpt><trkpt lat="41.7209952" lon="13.5752917"><ele>276.66666666666663</ele><time>2026-05-04T12:09:57.088Z</time></trkpt><trkpt lat="41.7208222" lon="13.5754536"><ele>276.3333333333333</ele><time>2026-05-04T12:09:58.089Z</time></trkpt><trkpt lat="41.7206528" lon="13.5756095"><ele>276.0</ele><time>2026-05-04T12:09:59.089Z</time></trkpt><trkpt lat="41.7204903" lon="13.57576"><ele>276.0</ele><time>2026-05-04T12:10:00.089Z</time></trkpt><trkpt lat="41.7203309" lon="13.5759153"><ele>276.0</ele><time>2026-05-04T12:10:01.089Z</time></trkpt><trkpt lat="41.720177" lon="13.576064"><ele>276.0</ele><time>2026-05-04T12:10:02.089Z</time></trkpt><trkpt lat="41.7200257" lon="13.5762168"><ele>275.6666666666667</ele><time>2026-05-04T12:10:03.089Z</time></trkpt><trkpt lat="41.7198741" lon="13.576365"><ele>275.33333333333337</ele><time>2026-05-04T12:10:04.089Z</time></trkpt><trkpt lat="41.7197216" lon="13.5765116"><ele>275.0</ele><time>2026-05-04T12:10:05.088Z</time></trkpt><trkpt lat="41.7195689" lon="13.5766611"><ele>275.0</ele><time>2026-05-04T12:10:06.089Z</time></trkpt><trkpt lat="41.7194159" lon="13.5768111"><ele>275.0</ele><time>2026-05-04T12:10:07.088Z</time></trkpt><trkpt lat="41.7192568" lon="13.5769668"><ele>275.0</ele><time>2026-05-04T12:10:08.088Z</time></trkpt><trkpt lat="41.719094" lon="13.5771318"><ele>275.33333333333337</ele><time>2026-05-04T12:10:09.088Z</time></trkpt><trkpt lat="41.7189343" lon="13.5773033"><ele>275.6666666666667</ele><time>2026-05-04T12:10:10.089Z</time></trkpt><trkpt lat="41.7187847" lon="13.577464"><ele>276.0</ele><time>2026-05-04T12:10:11.089Z</time></trkpt><trkpt lat="41.7186542" lon="13.5776214"><ele>276.3333333333333</ele><time>2026-05-04T12:10:12.089Z</time></trkpt><trkpt lat="41.718533" lon="13.5777828"><ele>276.66666666666663</ele><time>2026-05-04T12:10:13.089Z</time></trkpt><trkpt lat="41.71842" lon="13.5779515"><ele>277.0</ele><time>2026-05-04T12:10:14.089Z</time></trkpt><trkpt lat="41.7183158" lon="13.578129"><ele>277.0</ele><time>2026-05-04T12:10:15.088Z</time></trkpt><trkpt lat="41.7182" lon="13.5783105"><ele>277.0</ele><time>2026-05-04T12:10:16.089Z</time></trkpt><trkpt lat="41.7180677" lon="13.5784933"><ele>277.0</ele><time>2026-05-04T12:10:17.088Z</time></trkpt><trkpt lat="41.7179164" lon="13.5786809"><ele>277.0</ele><time>2026-05-04T12:10:18.088Z</time></trkpt><trkpt lat="41.7177698" lon="13.5788679"><ele>277.0</ele><time>2026-05-04T12:10:19.088Z</time></trkpt><trkpt lat="41.7176423" lon="13.5790414"><ele>277.0</ele><time>2026-05-04T12:10:20.088Z</time></trkpt><trkpt lat="41.7175379" lon="13.5791964"><ele>277.0</ele><time>2026-05-04T12:10:21.089Z</time></trkpt><trkpt lat="41.7174631" lon="13.5793765"><ele>277.0</ele><time>2026-05-04T12:10:22.089Z</time></trkpt><trkpt lat="41.7174159" lon="13.5795911"><ele>277.0</ele><time>2026-05-04T12:10:23.089Z</time></trkpt><trkpt lat="41.7173664" lon="13.5798065"><ele>276.75</ele><time>2026-05-04T12:10:24.089Z</time></trkpt><trkpt lat="41.7173039" lon="13.57999"><ele>276.5</ele><time>2026-05-04T12:10:25.089Z</time></trkpt><trkpt lat="41.7172297" lon="13.5801417"><ele>276.25</ele><time>2026-05-04T12:10:26.088Z</time></trkpt><trkpt lat="41.717157" lon="13.5802591"><ele>276.0</ele><time>2026-05-04T12:10:27.089Z</time></trkpt><trkpt lat="41.7171018" lon="13.5803529"><ele>276.0</ele><time>2026-05-04T12:10:28.089Z</time></trkpt><trkpt lat="41.7170586" lon="13.5804194"><ele>276.0</ele><time>2026-05-04T12:10:29.088Z</time></trkpt><trkpt lat="41.717" lon="13.5804528"><ele>276.0</ele><time>2026-05-04T12:10:32.089Z</time></trkpt><trkpt lat="41.7169149" lon="13.5803325"><ele>276.0</ele><time>2026-05-04T12:10:42.088Z</time></trkpt><trkpt lat="41.7168796" lon="13.5802"><ele>276.0</ele><time>2026-05-04T12:10:43.088Z</time></trkpt><trkpt lat="41.7168428" lon="13.5800493"><ele>276.0</ele><time>2026-05-04T12:10:44.088Z</time></trkpt><trkpt lat="41.7167992" lon="13.5798928"><ele>276.0</ele><time>2026-05-04T12:10:45.088Z</time></trkpt><trkpt lat="41.7167546" lon="13.579725"><ele>276.0</ele><time>2026-05-04T12:10:46.088Z</time></trkpt><trkpt lat="41.7167067" lon="13.5795487"><ele>276.0</ele><time>2026-05-04T12:10:47.088Z</time></trkpt><trkpt lat="41.7166553" lon="13.5793627"><ele>276.0</ele><time>2026-05-04T12:10:48.087Z</time></trkpt><trkpt lat="41.7166062" lon="13.5791737"><ele>276.0</ele><time>2026-05-04T12:10:49.087Z</time></trkpt><trkpt lat="41.7165525" lon="13.5789773"><ele>276.0</ele><time>2026-05-04T12:10:50.087Z</time></trkpt><trkpt lat="41.7164938" lon="13.5787639"><ele>276.0</ele><time>2026-05-04T12:10:51.087Z</time></trkpt><trkpt lat="41.7164321" lon="13.5785506"><ele>276.0</ele><time>2026-05-04T12:10:52.087Z</time></trkpt><trkpt lat="41.7163712" lon="13.5783534"><ele>276.0</ele><time>2026-05-04T12:10:53.088Z</time></trkpt><trkpt lat="41.7163173" lon="13.5781847"><ele>276.0</ele><time>2026-05-04T12:10:54.087Z</time></trkpt><trkpt lat="41.7162727" lon="13.5780471"><ele>276.0</ele><time>2026-05-04T12:10:55.088Z</time></trkpt><trkpt lat="41.7162372" lon="13.5779254"><ele>276.0</ele><time>2026-05-04T12:10:56.088Z</time></trkpt><trkpt lat="41.7162073" lon="13.5778242"><ele>276.0</ele><time>2026-05-04T12:10:57.088Z</time></trkpt><trkpt lat="41.7161838" lon="13.5777372"><ele>276.0</ele><time>2026-05-04T12:10:58.088Z</time></trkpt><trkpt lat="41.7161587" lon="13.5776549"><ele>276.0</ele><time>2026-05-04T12:10:59.088Z</time></trkpt><trkpt lat="41.7161373" lon="13.5775654"><ele>276.0</ele><time>2026-05-04T12:11:00.088Z</time></trkpt><trkpt lat="41.7161083" lon="13.5774609"><ele>276.0</ele><time>2026-05-04T12:11:01.088Z</time></trkpt><trkpt lat="41.7160723" lon="13.577343"><ele>276.0</ele><time>2026-05-04T12:11:02.087Z</time></trkpt><trkpt lat="41.716027" lon="13.5772142"><ele>276.0</ele><time>2026-05-04T12:11:03.088Z</time></trkpt><trkpt lat="41.7159852" lon="13.5770798"><ele>276.0</ele><time>2026-05-04T12:11:04.088Z</time></trkpt><trkpt lat="41.7159428" lon="13.5769347"><ele>276.0</ele><time>2026-05-04T12:11:05.087Z</time></trkpt><trkpt lat="41.7158974" lon="13.5767821"><ele>276.0</ele><time>2026-05-04T12:11:06.088Z</time></trkpt><trkpt lat="41.7158495" lon="13.576618"><ele>276.0</ele><time>2026-05-04T12:11:07.087Z</time></trkpt><trkpt lat="41.7157975" lon="13.5764476"><ele>276.0</ele><time>2026-05-04T12:11:08.087Z</time></trkpt><trkpt lat="41.7157477" lon="13.5762828"><ele>276.0</ele><time>2026-05-04T12:11:09.088Z</time></trkpt><trkpt lat="41.7156994" lon="13.5761305"><ele>276.0</ele><time>2026-05-04T12:11:10.087Z</time></trkpt><trkpt lat="41.7156488" lon="13.5759711"><ele>276.0</ele><time>2026-05-04T12:11:11.088Z</time></trkpt><trkpt lat="41.7155897" lon="13.5757896"><ele>276.0</ele><time>2026-05-04T12:11:12.088Z</time></trkpt><trkpt lat="41.7155288" lon="13.5755988"><ele>276.0</ele><time>2026-05-04T12:11:13.088Z</time></trkpt><trkpt lat="41.7154804" lon="13.5754205"><ele>276.0</ele><time>2026-05-04T12:11:14.088Z</time></trkpt><trkpt lat="41.7154445" lon="13.5752448"><ele>276.0</ele><time>2026-05-04T12:11:15.087Z</time></trkpt><trkpt lat="41.7154067" lon="13.5750517"><ele>276.0</ele><time>2026-05-04T12:11:16.087Z</time></trkpt><trkpt lat="41.7153616" lon="13.5748501"><ele>276.0</ele><time>2026-05-04T12:11:17.088Z</time></trkpt><trkpt lat="41.7153088" lon="13.5746419"><ele>276.0</ele><time>2026-05-04T12:11:18.087Z</time></trkpt><trkpt lat="41.7152494" lon="13.5744386"><ele>276.0</ele><time>2026-05-04T12:11:19.088Z</time></trkpt><trkpt lat="41.7151859" lon="13.5742301"><ele>275.6666666666667</ele><time>2026-05-04T12:11:20.087Z</time></trkpt><trkpt lat="41.7151166" lon="13.5740108"><ele>275.33333333333337</ele><time>2026-05-04T12:11:21.087Z</time></trkpt><trkpt lat="41.715051" lon="13.5737731"><ele>275.0</ele><time>2026-05-04T12:11:22.088Z</time></trkpt><trkpt lat="41.7149952" lon="13.5735432"><ele>275.0</ele><time>2026-05-04T12:11:23.088Z</time></trkpt><trkpt lat="41.714939" lon="13.5733382"><ele>275.0</ele><time>2026-05-04T12:11:24.087Z</time></trkpt><trkpt lat="41.7148872" lon="13.5731223"><ele>275.0</ele><time>2026-05-04T12:11:25.088Z</time></trkpt><trkpt lat="41.714835" lon="13.5729068"><ele>275.0</ele><time>2026-05-04T12:11:26.088Z</time></trkpt><trkpt lat="41.714784" lon="13.5726862"><ele>275.0</ele><time>2026-05-04T12:11:27.088Z</time></trkpt><trkpt lat="41.714719" lon="13.5724493"><ele>275.0</ele><time>2026-05-04T12:11:28.087Z</time></trkpt><trkpt lat="41.71464" lon="13.572214"><ele>275.0</ele><time>2026-05-04T12:11:29.087Z</time></trkpt><trkpt lat="41.714563" lon="13.5720053"><ele>275.0</ele><time>2026-05-04T12:11:30.087Z</time></trkpt><trkpt lat="41.7144965" lon="13.5718134"><ele>275.0</ele><time>2026-05-04T12:11:31.088Z</time></trkpt><trkpt lat="41.7144323" lon="13.57164"><ele>275.0</ele><time>2026-05-04T12:11:32.087Z</time></trkpt><trkpt lat="41.7143598" lon="13.57149"><ele>275.0</ele><time>2026-05-04T12:11:33.088Z</time></trkpt><trkpt lat="41.7142699" lon="13.5713403"><ele>275.0</ele><time>2026-05-04T12:11:34.088Z</time></trkpt><trkpt lat="41.7141614" lon="13.5712055"><ele>275.0</ele><time>2026-05-04T12:11:35.088Z</time></trkpt><trkpt lat="41.7140232" lon="13.5710858"><ele>274.6666666666667</ele><time>2026-05-04T12:11:36.087Z</time></trkpt><trkpt lat="41.7138568" lon="13.5709645"><ele>274.3333333333333</ele><time>2026-05-04T12:11:37.088Z</time></trkpt><trkpt lat="41.7136547" lon="13.5708357"><ele>274.0</ele><time>2026-05-04T12:11:38.087Z</time></trkpt><trkpt lat="41.7134342" lon="13.5706963"><ele>274.0</ele><time>2026-05-04T12:11:39.087Z</time></trkpt><trkpt lat="41.713219" lon="13.5705471"><ele>274.0</ele><time>2026-05-04T12:11:40.088Z</time></trkpt><trkpt lat="41.7130137" lon="13.5704058"><ele>274.0</ele><time>2026-05-04T12:11:41.087Z</time></trkpt><trkpt lat="41.7128035" lon="13.5702756"><ele>274.0</ele><time>2026-05-04T12:11:42.087Z</time></trkpt><trkpt lat="41.7126086" lon="13.5701618"><ele>274.0</ele><time>2026-05-04T12:11:43.088Z</time></trkpt><trkpt lat="41.7124334" lon="13.5700599"><ele>274.0</ele><time>2026-05-04T12:11:44.087Z</time></trkpt><trkpt lat="41.712262" lon="13.5699605"><ele>274.0</ele><time>2026-05-04T12:11:45.088Z</time></trkpt><trkpt lat="41.7120819" lon="13.5698662"><ele>274.0</ele><time>2026-05-04T12:11:46.088Z</time></trkpt><trkpt lat="41.7118962" lon="13.5697751"><ele>274.0</ele><time>2026-05-04T12:11:47.087Z</time></trkpt><trkpt lat="41.7117213" lon="13.569703"><ele>274.0</ele><time>2026-05-04T12:11:48.088Z</time></trkpt><trkpt lat="41.7115652" lon="13.569664"><ele>274.0</ele><time>2026-05-04T12:11:49.087Z</time></trkpt><trkpt lat="41.7114358" lon="13.5696334"><ele>274.0</ele><time>2026-05-04T12:11:50.088Z</time></trkpt><trkpt lat="41.7113368" lon="13.5696157"><ele>274.0</ele><time>2026-05-04T12:11:51.087Z</time></trkpt><trkpt lat="41.7112631" lon="13.5696169"><ele>274.0</ele><time>2026-05-04T12:11:52.087Z</time></trkpt><trkpt lat="41.7111787" lon="13.5696713"><ele>274.0</ele><time>2026-05-04T12:11:54.088Z</time></trkpt><trkpt lat="41.7111202" lon="13.569765"><ele>274.0</ele><time>2026-05-04T12:11:56.087Z</time></trkpt><trkpt lat="41.7110669" lon="13.5698608"><ele>274.0</ele><time>2026-05-04T12:11:58.088Z</time></trkpt><trkpt lat="41.7110968" lon="13.5699401"><ele>274.0</ele><time>2026-05-04T12:12:00.087Z</time></trkpt><trkpt lat="41.7111147" lon="13.5700919"><ele>274.0</ele><time>2026-05-04T12:15:00.087Z</time></trkpt><trkpt lat="41.7110545" lon="13.5700157"><ele>274.0</ele><time>2026-05-04T12:15:03.087Z</time></trkpt><trkpt lat="41.7111031" lon="13.5699504"><ele>274.0</ele><time>2026-05-04T12:15:05.087Z</time></trkpt><trkpt lat="41.7112192" lon="13.5699217"><ele>274.0</ele><time>2026-05-04T12:15:07.087Z</time></trkpt><trkpt lat="41.7112874" lon="13.5699039"><ele>274.0</ele><time>2026-05-04T12:15:09.088Z</time></trkpt><trkpt lat="41.7114101" lon="13.5698786"><ele>274.0</ele><time>2026-05-04T12:17:41.087Z</time></trkpt><trkpt lat="41.7115311" lon="13.5698574"><ele>274.0</ele><time>2026-05-04T12:17:43.087Z</time></trkpt><trkpt lat="41.7116293" lon="13.5698294"><ele>274.0</ele><time>2026-05-04T12:17:45.087Z</time></trkpt><trkpt lat="41.7116836" lon="13.5697823"><ele>274.0</ele><time>2026-05-04T12:17:47.087Z</time></trkpt><trkpt lat="41.7116622" lon="13.5696878"><ele>274.0</ele><time>2026-05-04T12:19:36.087Z</time></trkpt><trkpt lat="41.7115014" lon="13.5696184"><ele>274.0</ele><time>2026-05-04T12:19:38.087Z</time></trkpt><trkpt lat="41.7113887" lon="13.5695838"><ele>274.0</ele><time>2026-05-04T12:19:39.087Z</time></trkpt><trkpt lat="41.7112675" lon="13.569554"><ele>274.0</ele><time>2026-05-04T12:19:40.087Z</time></trkpt><trkpt lat="41.7111305" lon="13.5695225"><ele>275.0</ele><time>2026-05-04T12:19:41.086Z</time></trkpt><trkpt lat="41.710962" lon="13.569488"><ele>276.0</ele><time>2026-05-04T12:19:42.086Z</time></trkpt><trkpt lat="41.7108098" lon="13.5694677"><ele>277.0</ele><time>2026-05-04T12:19:43.087Z</time></trkpt><trkpt lat="41.7106699" lon="13.5694504"><ele>277.0</ele><time>2026-05-04T12:19:44.087Z</time></trkpt><trkpt lat="41.7105282" lon="13.5694091"><ele>277.0</ele><time>2026-05-04T12:19:45.087Z</time></trkpt><trkpt lat="41.7103855" lon="13.5693218"><ele>277.0</ele><time>2026-05-04T12:19:46.087Z</time></trkpt><trkpt lat="41.7102572" lon="13.5692025"><ele>277.0</ele><time>2026-05-04T12:19:47.087Z</time></trkpt><trkpt lat="41.7101523" lon="13.5690844"><ele>277.0</ele><time>2026-05-04T12:19:48.087Z</time></trkpt><trkpt lat="41.7100764" lon="13.5690005"><ele>277.0</ele><time>2026-05-04T12:19:49.086Z</time></trkpt><trkpt lat="41.7100153" lon="13.5689278"><ele>277.0</ele><time>2026-05-04T12:19:50.087Z</time></trkpt><trkpt lat="41.7099171" lon="13.5688483"><ele>277.0</ele><time>2026-05-04T12:19:52.086Z</time></trkpt><trkpt lat="41.7098192" lon="13.5688948"><ele>277.0</ele><time>2026-05-04T12:19:54.087Z</time></trkpt><trkpt lat="41.7097528" lon="13.5690073"><ele>277.0</ele><time>2026-05-04T12:19:55.086Z</time></trkpt><trkpt lat="41.70967" lon="13.5691428"><ele>277.0</ele><time>2026-05-04T12:19:56.086Z</time></trkpt><trkpt lat="41.7095426" lon="13.5692657"><ele>277.0</ele><time>2026-05-04T12:19:57.087Z</time></trkpt><trkpt lat="41.7093833" lon="13.5693858"><ele>276.66666666666663</ele><time>2026-05-04T12:19:58.087Z</time></trkpt><trkpt lat="41.7092156" lon="13.5695243"><ele>276.3333333333333</ele><time>2026-05-04T12:19:59.087Z</time></trkpt><trkpt lat="41.7090375" lon="13.5696802"><ele>276.0</ele><time>2026-05-04T12:20:00.087Z</time></trkpt><trkpt lat="41.7088528" lon="13.5698344"><ele>275.0</ele><time>2026-05-04T12:20:01.087Z</time></trkpt><trkpt lat="41.7086544" lon="13.569995"><ele>274.0</ele><time>2026-05-04T12:20:02.086Z</time></trkpt><trkpt lat="41.7084487" lon="13.5701616"><ele>274.0</ele><time>2026-05-04T12:20:03.086Z</time></trkpt><trkpt lat="41.7082351" lon="13.5703318"><ele>274.0</ele><time>2026-05-04T12:20:04.086Z</time></trkpt><trkpt lat="41.7080223" lon="13.5705014"><ele>273.0</ele><time>2026-05-04T12:20:05.086Z</time></trkpt><trkpt lat="41.7078071" lon="13.5706741"><ele>272.0</ele><time>2026-05-04T12:20:06.087Z</time></trkpt><trkpt lat="41.7075849" lon="13.5708396"><ele>272.0</ele><time>2026-05-04T12:20:07.087Z</time></trkpt><trkpt lat="41.7073576" lon="13.5710188"><ele>272.0</ele><time>2026-05-04T12:20:08.086Z</time></trkpt><trkpt lat="41.7071258" lon="13.5711934"><ele>272.0</ele><time>2026-05-04T12:20:09.085Z</time></trkpt><trkpt lat="41.7068968" lon="13.5713684"><ele>272.0</ele><time>2026-05-04T12:20:10.086Z</time></trkpt><trkpt lat="41.7066693" lon="13.5715553"><ele>272.0</ele><time>2026-05-04T12:20:11.085Z</time></trkpt><trkpt lat="41.7064356" lon="13.5717287"><ele>272.0</ele><time>2026-05-04T12:20:12.086Z</time></trkpt><trkpt lat="41.7062188" lon="13.5718961"><ele>271.5</ele><time>2026-05-04T12:20:13.085Z</time></trkpt><trkpt lat="41.7060174" lon="13.5720628"><ele>271.0</ele><time>2026-05-04T12:20:14.086Z</time></trkpt><trkpt lat="41.7058333" lon="13.5722219"><ele>271.0</ele><time>2026-05-04T12:20:15.085Z</time></trkpt><trkpt lat="41.70567" lon="13.5723567"><ele>271.0</ele><time>2026-05-04T12:20:16.086Z</time></trkpt><trkpt lat="41.7055311" lon="13.5724764"><ele>271.0</ele><time>2026-05-04T12:20:17.085Z</time></trkpt><trkpt lat="41.7054141" lon="13.5725677"><ele>271.0</ele><time>2026-05-04T12:20:18.086Z</time></trkpt><trkpt lat="41.7053121" lon="13.5726372"><ele>271.0</ele><time>2026-05-04T12:20:19.086Z</time></trkpt><trkpt lat="41.705212" lon="13.5727007"><ele>271.0</ele><time>2026-05-04T12:20:20.086Z</time></trkpt><trkpt lat="41.7051185" lon="13.5727569"><ele>271.0</ele><time>2026-05-04T12:20:21.086Z</time></trkpt><trkpt lat="41.7050275" lon="13.5728166"><ele>271.0</ele><time>2026-05-04T12:20:22.086Z</time></trkpt><trkpt lat="41.7049431" lon="13.5729002"><ele>271.3333333333333</ele><time>2026-05-04T12:20:23.086Z</time></trkpt><trkpt lat="41.7048454" lon="13.5730115"><ele>271.6666666666667</ele><time>2026-05-04T12:20:24.085Z</time></trkpt><trkpt lat="41.7047094" lon="13.573129"><ele>272.0</ele><time>2026-05-04T12:20:25.086Z</time></trkpt><trkpt lat="41.7045461" lon="13.5732526"><ele>272.0</ele><time>2026-05-04T12:20:26.085Z</time></trkpt><trkpt lat="41.7043632" lon="13.5733877"><ele>272.0</ele><time>2026-05-04T12:20:27.085Z</time></trkpt><trkpt lat="41.7041652" lon="13.5735311"><ele>272.0</ele><time>2026-05-04T12:20:28.086Z</time></trkpt><trkpt lat="41.703968" lon="13.5736853"><ele>271.5</ele><time>2026-05-04T12:20:29.085Z</time></trkpt><trkpt lat="41.7037718" lon="13.5738468"><ele>271.0</ele><time>2026-05-04T12:20:30.086Z</time></trkpt><trkpt lat="41.7035696" lon="13.5740149"><ele>270.5</ele><time>2026-05-04T12:20:31.086Z</time></trkpt><trkpt lat="41.7033567" lon="13.5741769"><ele>270.0</ele><time>2026-05-04T12:20:32.086Z</time></trkpt><trkpt lat="41.7031431" lon="13.5743387"><ele>270.0</ele><time>2026-05-04T12:20:33.085Z</time></trkpt><trkpt lat="41.7029258" lon="13.574504"><ele>270.0</ele><time>2026-05-04T12:20:34.086Z</time></trkpt><trkpt lat="41.7027082" lon="13.5746646"><ele>270.0</ele><time>2026-05-04T12:20:35.086Z</time></trkpt><trkpt lat="41.7024928" lon="13.5748243"><ele>270.0</ele><time>2026-05-04T12:20:36.086Z</time></trkpt><trkpt lat="41.7022821" lon="13.574991"><ele>270.0</ele><time>2026-05-04T12:20:37.085Z</time></trkpt><trkpt lat="41.7020704" lon="13.5751675"><ele>270.0</ele><time>2026-05-04T12:20:38.085Z</time></trkpt><trkpt lat="41.7018644" lon="13.5753353"><ele>269.5</ele><time>2026-05-04T12:20:39.086Z</time></trkpt><trkpt lat="41.7016527" lon="13.5755025"><ele>269.0</ele><time>2026-05-04T12:20:40.086Z</time></trkpt><trkpt lat="41.7014485" lon="13.5756724"><ele>269.0</ele><time>2026-05-04T12:20:41.086Z</time></trkpt><trkpt lat="41.7012369" lon="13.5758387"><ele>269.0</ele><time>2026-05-04T12:20:42.085Z</time></trkpt><trkpt lat="41.7010199" lon="13.5760081"><ele>269.5</ele><time>2026-05-04T12:20:43.086Z</time></trkpt><trkpt lat="41.700802" lon="13.5761798"><ele>270.0</ele><time>2026-05-04T12:20:44.086Z</time></trkpt><trkpt lat="41.700586" lon="13.5763433"><ele>270.0</ele><time>2026-05-04T12:20:45.085Z</time></trkpt><trkpt lat="41.7003748" lon="13.5765054"><ele>270.0</ele><time>2026-05-04T12:20:46.085Z</time></trkpt><trkpt lat="41.7001668" lon="13.576676"><ele>270.5</ele><time>2026-05-04T12:20:47.085Z</time></trkpt><trkpt lat="41.6999692" lon="13.5768416"><ele>271.0</ele><time>2026-05-04T12:20:48.086Z</time></trkpt><trkpt lat="41.6997788" lon="13.5770016"><ele>271.0</ele><time>2026-05-04T12:20:49.086Z</time></trkpt><trkpt lat="41.6996079" lon="13.5771503"><ele>271.0</ele><time>2026-05-04T12:20:50.085Z</time></trkpt><trkpt lat="41.6994489" lon="13.57728"><ele>271.0</ele><time>2026-05-04T12:20:51.086Z</time></trkpt><trkpt lat="41.6993096" lon="13.5773849"><ele>271.0</ele><time>2026-05-04T12:20:52.085Z</time></trkpt><trkpt lat="41.6991913" lon="13.5774772"><ele>271.0</ele><time>2026-05-04T12:20:53.085Z</time></trkpt><trkpt lat="41.6990757" lon="13.5775766"><ele>271.0</ele><time>2026-05-04T12:20:54.086Z</time></trkpt><trkpt lat="41.6989415" lon="13.5776627"><ele>271.0</ele><time>2026-05-04T12:20:55.085Z</time></trkpt><trkpt lat="41.698805" lon="13.5777489"><ele>271.0</ele><time>2026-05-04T12:20:56.086Z</time></trkpt><trkpt lat="41.698666" lon="13.5778435"><ele>271.0</ele><time>2026-05-04T12:20:57.085Z</time></trkpt><trkpt lat="41.6985219" lon="13.5779466"><ele>271.0</ele><time>2026-05-04T12:20:58.086Z</time></trkpt><trkpt lat="41.6983823" lon="13.5780658"><ele>270.3333333333333</ele><time>2026-05-04T12:20:59.086Z</time></trkpt><trkpt lat="41.6982445" lon="13.5781793"><ele>269.6666666666667</ele><time>2026-05-04T12:21:00.086Z</time></trkpt><trkpt lat="41.6981175" lon="13.5782815"><ele>269.0</ele><time>2026-05-04T12:21:01.086Z</time></trkpt><trkpt lat="41.6979826" lon="13.5783807"><ele>269.0</ele><time>2026-05-04T12:21:02.085Z</time></trkpt><trkpt lat="41.6978723" lon="13.5784669"><ele>269.0</ele><time>2026-05-04T12:21:03.086Z</time></trkpt><trkpt lat="41.69777" lon="13.5785571"><ele>269.0</ele><time>2026-05-04T12:21:04.086Z</time></trkpt><trkpt lat="41.6976666" lon="13.5786461"><ele>269.0</ele><time>2026-05-04T12:21:05.086Z</time></trkpt><trkpt lat="41.6975657" lon="13.5787369"><ele>268.59999999999997</ele><time>2026-05-04T12:21:06.085Z</time></trkpt><trkpt lat="41.6974707" lon="13.5788232"><ele>268.2</ele><time>2026-05-04T12:21:07.085Z</time></trkpt><trkpt lat="41.6973905" lon="13.5788985"><ele>267.79999999999995</ele><time>2026-05-04T12:21:08.086Z</time></trkpt><trkpt lat="41.6973229" lon="13.5789714"><ele>267.4</ele><time>2026-05-04T12:21:09.086Z</time></trkpt><trkpt lat="41.6972504" lon="13.5790361"><ele>267.0</ele><time>2026-05-04T12:21:10.085Z</time></trkpt><trkpt lat="41.6972008" lon="13.5790918"><ele>267.0</ele><time>2026-05-04T12:21:11.086Z</time></trkpt><trkpt lat="41.6971375" lon="13.5791705"><ele>267.0</ele><time>2026-05-04T12:21:13.086Z</time></trkpt><trkpt lat="41.6970729" lon="13.5792192"><ele>267.0</ele><time>2026-05-04T12:21:15.086Z</time></trkpt><trkpt lat="41.6969721" lon="13.5792553"><ele>267.0</ele><time>2026-05-04T12:21:17.085Z</time></trkpt><trkpt lat="41.6969106" lon="13.5792746"><ele>267.0</ele><time>2026-05-04T12:21:18.085Z</time></trkpt><trkpt lat="41.6968479" lon="13.5793009"><ele>267.0</ele><time>2026-05-04T12:21:19.085Z</time></trkpt><trkpt lat="41.6967671" lon="13.5793265"><ele>268.25</ele><time>2026-05-04T12:21:20.086Z</time></trkpt><trkpt lat="41.6966684" lon="13.579345"><ele>269.5</ele><time>2026-05-04T12:21:21.086Z</time></trkpt><trkpt lat="41.6965479" lon="13.5793509"><ele>270.75</ele><time>2026-05-04T12:21:22.086Z</time></trkpt><trkpt lat="41.6964268" lon="13.5793601"><ele>272.0</ele><time>2026-05-04T12:21:23.086Z</time></trkpt><trkpt lat="41.696299" lon="13.5793651"><ele>272.0</ele><time>2026-05-04T12:21:24.085Z</time></trkpt><trkpt lat="41.6961817" lon="13.5793709"><ele>272.0</ele><time>2026-05-04T12:21:25.085Z</time></trkpt><trkpt lat="41.6960643" lon="13.579389"><ele>272.0</ele><time>2026-05-04T12:21:26.086Z</time></trkpt><trkpt lat="41.695942" lon="13.5794021"><ele>272.0</ele><time>2026-05-04T12:21:27.086Z</time></trkpt><trkpt lat="41.6958027" lon="13.5794133"><ele>271.75</ele><time>2026-05-04T12:21:28.085Z</time></trkpt><trkpt lat="41.6956603" lon="13.5794097"><ele>271.5</ele><time>2026-05-04T12:21:29.086Z</time></trkpt><trkpt lat="41.6955243" lon="13.5794202"><ele>271.25</ele><time>2026-05-04T12:21:30.086Z</time></trkpt><trkpt lat="41.6954026" lon="13.5794356"><ele>271.0</ele><time>2026-05-04T12:21:31.085Z</time></trkpt><trkpt lat="41.6952942" lon="13.5794397"><ele>270.8</ele><time>2026-05-04T12:21:32.086Z</time></trkpt><trkpt lat="41.6951969" lon="13.579439"><ele>270.6</ele><time>2026-05-04T12:21:33.086Z</time></trkpt><trkpt lat="41.6951031" lon="13.5794417"><ele>270.4</ele><time>2026-05-04T12:21:34.085Z</time></trkpt><trkpt lat="41.6950086" lon="13.5794477"><ele>270.2</ele><time>2026-05-04T12:21:35.086Z</time></trkpt><trkpt lat="41.6949062" lon="13.579458"><ele>270.0</ele><time>2026-05-04T12:21:36.085Z</time></trkpt><trkpt lat="41.6947913" lon="13.5794727"><ele>270.0</ele><time>2026-05-04T12:21:37.085Z</time></trkpt><trkpt lat="41.6946797" lon="13.5794903"><ele>270.0</ele><time>2026-05-04T12:21:38.085Z</time></trkpt><trkpt lat="41.6945806" lon="13.5794918"><ele>270.0</ele><time>2026-05-04T12:21:39.085Z</time></trkpt><trkpt lat="41.694492" lon="13.5794932"><ele>270.0</ele><time>2026-05-04T12:21:40.085Z</time></trkpt><trkpt lat="41.6944066" lon="13.579507"><ele>270.0</ele><time>2026-05-04T12:21:41.086Z</time></trkpt><trkpt lat="41.6943255" lon="13.5795314"><ele>269.8</ele><time>2026-05-04T12:21:42.085Z</time></trkpt><trkpt lat="41.694239" lon="13.5795426"><ele>269.6</ele><time>2026-05-04T12:21:43.086Z</time></trkpt><trkpt lat="41.6941398" lon="13.5795531"><ele>269.4</ele><time>2026-05-04T12:21:44.086Z</time></trkpt><trkpt lat="41.6940372" lon="13.579545"><ele>269.2</ele><time>2026-05-04T12:21:45.085Z</time></trkpt><trkpt lat="41.693937" lon="13.5795554"><ele>269.0</ele><time>2026-05-04T12:21:46.085Z</time></trkpt><trkpt lat="41.6938237" lon="13.5795591"><ele>269.0</ele><time>2026-05-04T12:21:47.085Z</time></trkpt><trkpt lat="41.6937151" lon="13.5795785"><ele>269.0</ele><time>2026-05-04T12:21:48.085Z</time></trkpt><trkpt lat="41.6936255" lon="13.5795857"><ele>269.0</ele><time>2026-05-04T12:21:49.086Z</time></trkpt><trkpt lat="41.6935267" lon="13.5795956"><ele>269.0</ele><time>2026-05-04T12:21:50.085Z</time></trkpt><trkpt lat="41.6934177" lon="13.5796158"><ele>269.0</ele><time>2026-05-04T12:21:51.085Z</time></trkpt><trkpt lat="41.693279" lon="13.5796287"><ele>269.0</ele><time>2026-05-04T12:21:52.085Z</time></trkpt><trkpt lat="41.6931153" lon="13.579616"><ele>269.0</ele><time>2026-05-04T12:21:53.085Z</time></trkpt><trkpt lat="41.6929237" lon="13.5796167"><ele>269.0</ele><time>2026-05-04T12:21:54.085Z</time></trkpt><trkpt lat="41.6927002" lon="13.5796255"><ele>269.33333333333337</ele><time>2026-05-04T12:21:55.085Z</time></trkpt><trkpt lat="41.6924941" lon="13.5796308"><ele>269.6666666666667</ele><time>2026-05-04T12:21:56.085Z</time></trkpt><trkpt lat="41.6923058" lon="13.5796368"><ele>270.0</ele><time>2026-05-04T12:21:57.085Z</time></trkpt><trkpt lat="41.6921355" lon="13.57966"><ele>270.0</ele><time>2026-05-04T12:21:58.086Z</time></trkpt><trkpt lat="41.6919757" lon="13.5796958"><ele>270.0</ele><time>2026-05-04T12:21:59.085Z</time></trkpt><trkpt lat="41.6918299" lon="13.5797127"><ele>270.0</ele><time>2026-05-04T12:22:00.085Z</time></trkpt><trkpt lat="41.6917132" lon="13.5797227"><ele>270.0</ele><time>2026-05-04T12:22:01.085Z</time></trkpt><trkpt lat="41.6915855" lon="13.5797327"><ele>270.0</ele><time>2026-05-04T12:22:02.086Z</time></trkpt><trkpt lat="41.6914466" lon="13.5797363"><ele>270.0</ele><time>2026-05-04T12:22:03.085Z</time></trkpt><trkpt lat="41.6913032" lon="13.5797496"><ele>270.0</ele><time>2026-05-04T12:22:04.086Z</time></trkpt><trkpt lat="41.6911742" lon="13.5797594"><ele>270.0</ele><time>2026-05-04T12:22:05.086Z</time></trkpt><trkpt lat="41.6910674" lon="13.5797568"><ele>270.0</ele><time>2026-05-04T12:22:06.086Z</time></trkpt><trkpt lat="41.6909708" lon="13.5797644"><ele>270.0</ele><time>2026-05-04T12:22:07.086Z</time></trkpt><trkpt lat="41.6908904" lon="13.5797676"><ele>270.0</ele><time>2026-05-04T12:22:08.085Z</time></trkpt><trkpt lat="41.6908207" lon="13.579774"><ele>270.0</ele><time>2026-05-04T12:22:09.086Z</time></trkpt><trkpt lat="41.6907447" lon="13.5797818"><ele>270.0</ele><time>2026-05-04T12:22:10.085Z</time></trkpt><trkpt lat="41.6906672" lon="13.5797901"><ele>270.0</ele><time>2026-05-04T12:22:11.085Z</time></trkpt><trkpt lat="41.6905799" lon="13.5797957"><ele>270.0</ele><time>2026-05-04T12:22:12.086Z</time></trkpt><trkpt lat="41.6904935" lon="13.5798173"><ele>270.0</ele><time>2026-05-04T12:22:13.085Z</time></trkpt><trkpt lat="41.6904093" lon="13.5798253"><ele>270.0</ele><time>2026-05-04T12:22:14.086Z</time></trkpt><trkpt lat="41.6903208" lon="13.5798248"><ele>270.0</ele><time>2026-05-04T12:22:15.086Z</time></trkpt><trkpt lat="41.6902284" lon="13.5798237"><ele>270.0</ele><time>2026-05-04T12:22:16.085Z</time></trkpt><trkpt lat="41.690136" lon="13.5798222"><ele>270.0</ele><time>2026-05-04T12:22:17.085Z</time></trkpt><trkpt lat="41.690047" lon="13.5798263"><ele>270.0</ele><time>2026-05-04T12:22:18.085Z</time></trkpt><trkpt lat="41.6899746" lon="13.5798311"><ele>270.0</ele><time>2026-05-04T12:22:19.086Z</time></trkpt><trkpt lat="41.6898772" lon="13.5798172"><ele>270.0</ele><time>2026-05-04T12:22:21.086Z</time></trkpt><trkpt lat="41.6898449" lon="13.5797191"><ele>270.0</ele><time>2026-05-04T12:22:23.086Z</time></trkpt><trkpt lat="41.6898703" lon="13.5795233"><ele>270.0</ele><time>2026-05-04T12:22:25.086Z</time></trkpt><trkpt lat="41.6898685" lon="13.5794174"><ele>269.85714285714283</ele><time>2026-05-04T12:22:26.086Z</time></trkpt><trkpt lat="41.6898642" lon="13.5793262"><ele>269.71428571428567</ele><time>2026-05-04T12:22:27.086Z</time></trkpt><trkpt lat="41.6898688" lon="13.5792178"><ele>269.57142857142856</ele><time>2026-05-04T12:22:29.086Z</time></trkpt><trkpt lat="41.6899291" lon="13.5791733"><ele>269.42857142857144</ele><time>2026-05-04T12:27:00.084Z</time></trkpt><trkpt lat="41.689995" lon="13.5791409"><ele>269.28571428571433</ele><time>2026-05-04T12:27:06.085Z</time></trkpt><trkpt lat="41.6899255" lon="13.5791483"><ele>269.14285714285717</ele><time>2026-05-04T12:28:08.81Z</time></trkpt><trkpt lat="41.6898954" lon="13.5790686"><ele>269.0</ele><time>2026-05-04T12:28:14.028Z</time></trkpt><trkpt lat="41.6899585" lon="13.5791057"><ele>269.0</ele><time>2026-05-04T12:28:54.167Z</time></trkpt><trkpt lat="41.6899673" lon="13.5789764"><ele>269.0</ele><time>2026-05-04T12:30:43.084Z</time></trkpt><trkpt lat="41.6899445" lon="13.5788603"><ele>269.0</ele><time>2026-05-04T12:30:49.093Z</time></trkpt><trkpt lat="41.6899133" lon="13.5787668"><ele>269.0</ele><time>2026-05-04T12:30:52.124Z</time></trkpt><trkpt lat="41.690115" lon="13.5789071"><ele>269.0</ele><time>2026-05-04T12:30:54.144Z</time></trkpt><trkpt lat="41.6902063" lon="13.5789139"><ele>269.0</ele><time>2026-05-04T12:30:56.165Z</time></trkpt><trkpt lat="41.6902817" lon="13.5789554"><ele>269.0</ele><time>2026-05-04T12:30:58.084Z</time></trkpt><trkpt lat="41.6900668" lon="13.5790264"><ele>269.0</ele><time>2026-05-04T12:31:03.083Z</time></trkpt><trkpt lat="41.690004" lon="13.5790396"><ele>269.0</ele><time>2026-05-04T12:31:34.083Z</time></trkpt><trkpt lat="41.6899519" lon="13.578988"><ele>269.0</ele><time>2026-05-04T12:34:58.083Z</time></trkpt><trkpt lat="41.6898867" lon="13.5789938"><ele>269.0</ele><time>2026-05-04T12:35:02.083Z</time></trkpt><trkpt lat="41.6899315" lon="13.5790571"><ele>269.0</ele><time>2026-05-04T12:35:51.082Z</time></trkpt><trkpt lat="41.689974" lon="13.5791213"><ele>269.0</ele><time>2026-05-04T12:35:59.082Z</time></trkpt><trkpt lat="41.6900392" lon="13.5790902"><ele>269.0</ele><time>2026-05-04T12:36:06.174Z</time></trkpt><trkpt lat="41.6899769" lon="13.5791094"><ele>269.0</ele><time>2026-05-04T12:36:28.171Z</time></trkpt><trkpt lat="41.6899176" lon="13.5791694"><ele>269.0</ele><time>2026-05-04T12:38:14.332Z</time></trkpt><trkpt lat="41.6899036" lon="13.5790872"><ele>269.0</ele><time>2026-05-04T12:38:19.232Z</time></trkpt><trkpt lat="41.689927" lon="13.5791758"><ele>269.0</ele><time>2026-05-04T12:38:40.215Z</time></trkpt><trkpt lat="41.6898927" lon="13.5792892"><ele>269.0</ele><time>2026-05-04T12:41:09.082Z</time></trkpt><trkpt lat="41.6898841" lon="13.5794245"><ele>269.0</ele><time>2026-05-04T12:41:11.082Z</time></trkpt><trkpt lat="41.6898887" lon="13.5795831"><ele>269.0</ele><time>2026-05-04T12:41:13.081Z</time></trkpt><trkpt lat="41.6898993" lon="13.5797173"><ele>269.2</ele><time>2026-05-04T12:41:15.082Z</time></trkpt><trkpt lat="41.6898775" lon="13.5798305"><ele>269.4</ele><time>2026-05-04T12:41:19.081Z</time></trkpt><trkpt lat="41.6897654" lon="13.5798698"><ele>269.6</ele><time>2026-05-04T12:41:21.081Z</time></trkpt><trkpt lat="41.6896594" lon="13.5798659"><ele>269.8</ele><time>2026-05-04T12:41:22.081Z</time></trkpt><trkpt lat="41.6895279" lon="13.5798627"><ele>270.0</ele><time>2026-05-04T12:41:23.082Z</time></trkpt><trkpt lat="41.6893937" lon="13.5798674"><ele>270.0</ele><time>2026-05-04T12:41:24.081Z</time></trkpt><trkpt lat="41.6892629" lon="13.5798832"><ele>270.0</ele><time>2026-05-04T12:41:25.082Z</time></trkpt><trkpt lat="41.6891327" lon="13.5798935"><ele>270.0</ele><time>2026-05-04T12:41:26.082Z</time></trkpt><trkpt lat="41.6890007" lon="13.5799059"><ele>270.0</ele><time>2026-05-04T12:41:27.082Z</time></trkpt><trkpt lat="41.6888649" lon="13.5799185"><ele>270.0</ele><time>2026-05-04T12:41:28.082Z</time></trkpt><trkpt lat="41.6887288" lon="13.579936"><ele>270.0</ele><time>2026-05-04T12:41:29.081Z</time></trkpt><trkpt lat="41.6885957" lon="13.5799509"><ele>270.0</ele><time>2026-05-04T12:41:30.081Z</time></trkpt><trkpt lat="41.688463" lon="13.5799652"><ele>270.0</ele><time>2026-05-04T12:41:31.081Z</time></trkpt><trkpt lat="41.6883328" lon="13.5799732"><ele>269.5</ele><time>2026-05-04T12:41:32.082Z</time></trkpt><trkpt lat="41.6882093" lon="13.5799816"><ele>269.0</ele><time>2026-05-04T12:41:33.082Z</time></trkpt><trkpt lat="41.6880823" lon="13.5799926"><ele>268.5</ele><time>2026-05-04T12:41:34.082Z</time></trkpt><trkpt lat="41.6879533" lon="13.5800012"><ele>268.0</ele><time>2026-05-04T12:41:35.082Z</time></trkpt><trkpt lat="41.6878253" lon="13.5800102"><ele>268.0</ele><time>2026-05-04T12:41:36.082Z</time></trkpt><trkpt lat="41.6876925" lon="13.5800199"><ele>268.0</ele><time>2026-05-04T12:41:37.081Z</time></trkpt><trkpt lat="41.6875611" lon="13.5800262"><ele>268.0</ele><time>2026-05-04T12:41:38.082Z</time></trkpt><trkpt lat="41.6874258" lon="13.5800405"><ele>268.0</ele><time>2026-05-04T12:41:39.082Z</time></trkpt><trkpt lat="41.6872898" lon="13.5800517"><ele>268.0</ele><time>2026-05-04T12:41:40.082Z</time></trkpt><trkpt lat="41.6871571" lon="13.5800587"><ele>268.0</ele><time>2026-05-04T12:41:41.081Z</time></trkpt><trkpt lat="41.6870188" lon="13.5800589"><ele>268.0</ele><time>2026-05-04T12:41:42.082Z</time></trkpt><trkpt lat="41.6868805" lon="13.5800666"><ele>268.0</ele><time>2026-05-04T12:41:43.081Z</time></trkpt><trkpt lat="41.6867412" lon="13.5800786"><ele>268.25</ele><time>2026-05-04T12:41:44.081Z</time></trkpt><trkpt lat="41.6866" lon="13.5801"><ele>268.5</ele><time>2026-05-04T12:41:45.082Z</time></trkpt><trkpt lat="41.6864646" lon="13.5801124"><ele>268.75</ele><time>2026-05-04T12:41:46.082Z</time></trkpt><trkpt lat="41.6863274" lon="13.5801229"><ele>269.0</ele><time>2026-05-04T12:41:47.081Z</time></trkpt><trkpt lat="41.6861886" lon="13.5801365"><ele>269.5</ele><time>2026-05-04T12:41:48.082Z</time></trkpt><trkpt lat="41.6860483" lon="13.5801589"><ele>270.0</ele><time>2026-05-04T12:41:49.082Z</time></trkpt><trkpt lat="41.6859215" lon="13.5801694"><ele>270.5</ele><time>2026-05-04T12:41:50.082Z</time></trkpt><trkpt lat="41.6858193" lon="13.5801763"><ele>271.0</ele><time>2026-05-04T12:41:51.081Z</time></trkpt><trkpt lat="41.6857375" lon="13.5801809"><ele>271.0</ele><time>2026-05-04T12:41:52.082Z</time></trkpt><trkpt lat="41.6856671" lon="13.5801749"><ele>271.0</ele><time>2026-05-04T12:41:53.081Z</time></trkpt><trkpt lat="41.6855672" lon="13.580192"><ele>271.0</ele><time>2026-05-04T12:41:55.082Z</time></trkpt><trkpt lat="41.6855343" lon="13.5803006"><ele>271.0</ele><time>2026-05-04T12:41:57.082Z</time></trkpt><trkpt lat="41.6855399" lon="13.5803951"><ele>271.0</ele><time>2026-05-04T12:41:58.082Z</time></trkpt><trkpt lat="41.6855457" lon="13.5805086"><ele>271.0</ele><time>2026-05-04T12:41:59.081Z</time></trkpt><trkpt lat="41.6855605" lon="13.5806163"><ele>271.0</ele><time>2026-05-04T12:42:00.082Z</time></trkpt><trkpt lat="41.6855782" lon="13.5807252"><ele>271.0</ele><time>2026-05-04T12:42:01.082Z</time></trkpt><trkpt lat="41.6855909" lon="13.5808416"><ele>271.0</ele><time>2026-05-04T12:42:02.082Z</time></trkpt><trkpt lat="41.6855999" lon="13.5809642"><ele>271.0</ele><time>2026-05-04T12:42:03.082Z</time></trkpt><trkpt lat="41.6856043" lon="13.5810833"><ele>271.0</ele><time>2026-05-04T12:42:04.082Z</time></trkpt><trkpt lat="41.6856109" lon="13.5812158"><ele>270.8</ele><time>2026-05-04T12:42:05.082Z</time></trkpt><trkpt lat="41.6856136" lon="13.581356"><ele>270.6</ele><time>2026-05-04T12:42:06.081Z</time></trkpt><trkpt lat="41.6856215" lon="13.5815016"><ele>270.4</ele><time>2026-05-04T12:42:07.081Z</time></trkpt><trkpt lat="41.6856281" lon="13.5816434"><ele>270.2</ele><time>2026-05-04T12:42:08.081Z</time></trkpt><trkpt lat="41.6856375" lon="13.581784"><ele>270.0</ele><time>2026-05-04T12:42:09.081Z</time></trkpt><trkpt lat="41.685639" lon="13.5819293"><ele>270.0</ele><time>2026-05-04T12:42:10.081Z</time></trkpt><trkpt lat="41.6856381" lon="13.5820678"><ele>270.0</ele><time>2026-05-04T12:42:11.082Z</time></trkpt><trkpt lat="41.6856408" lon="13.5822081"><ele>270.0</ele><time>2026-05-04T12:42:12.081Z</time></trkpt><trkpt lat="41.6856431" lon="13.5823395"><ele>270.0</ele><time>2026-05-04T12:42:13.082Z</time></trkpt><trkpt lat="41.6856511" lon="13.5824814"><ele>270.0</ele><time>2026-05-04T12:42:14.081Z</time></trkpt><trkpt lat="41.6856638" lon="13.582649"><ele>270.0</ele><time>2026-05-04T12:42:15.081Z</time></trkpt><trkpt lat="41.6856821" lon="13.5828147"><ele>270.0</ele><time>2026-05-04T12:42:16.081Z</time></trkpt><trkpt lat="41.6857068" lon="13.5829735"><ele>270.0</ele><time>2026-05-04T12:42:17.082Z</time></trkpt><trkpt lat="41.6857386" lon="13.5831146"><ele>270.0</ele><time>2026-05-04T12:42:18.082Z</time></trkpt><trkpt lat="41.6857699" lon="13.5832372"><ele>270.0</ele><time>2026-05-04T12:42:19.082Z</time></trkpt><trkpt lat="41.6857951" lon="13.5833394"><ele>270.0</ele><time>2026-05-04T12:42:20.082Z</time></trkpt><trkpt lat="41.6858196" lon="13.5834322"><ele>270.0</ele><time>2026-05-04T12:42:21.082Z</time></trkpt><trkpt lat="41.6858497" lon="13.5835385"><ele>270.0</ele><time>2026-05-04T12:42:22.082Z</time></trkpt><trkpt lat="41.6858825" lon="13.5836545"><ele>270.0</ele><time>2026-05-04T12:42:23.081Z</time></trkpt><trkpt lat="41.6859138" lon="13.5837806"><ele>270.0</ele><time>2026-05-04T12:42:24.082Z</time></trkpt><trkpt lat="41.6859491" lon="13.5839151"><ele>270.25</ele><time>2026-05-04T12:42:25.081Z</time></trkpt><trkpt lat="41.685992" lon="13.5840609"><ele>270.5</ele><time>2026-05-04T12:42:26.082Z</time></trkpt><trkpt lat="41.6860367" lon="13.5842138"><ele>270.75</ele><time>2026-05-04T12:42:27.082Z</time></trkpt><trkpt lat="41.6860799" lon="13.5843771"><ele>271.0</ele><time>2026-05-04T12:42:28.082Z</time></trkpt><trkpt lat="41.6861251" lon="13.5845386"><ele>271.25</ele><time>2026-05-04T12:42:29.081Z</time></trkpt><trkpt lat="41.6861672" lon="13.5847083"><ele>271.5</ele><time>2026-05-04T12:42:30.082Z</time></trkpt><trkpt lat="41.6862083" lon="13.5848764"><ele>271.75</ele><time>2026-05-04T12:42:31.081Z</time></trkpt><trkpt lat="41.6862497" lon="13.5850415"><ele>272.0</ele><time>2026-05-04T12:42:32.082Z</time></trkpt><trkpt lat="41.6862865" lon="13.5852017"><ele>272.5</ele><time>2026-05-04T12:42:33.081Z</time></trkpt><trkpt lat="41.6863164" lon="13.5853516"><ele>273.0</ele><time>2026-05-04T12:42:34.082Z</time></trkpt><trkpt lat="41.6863458" lon="13.5855055"><ele>273.5</ele><time>2026-05-04T12:42:35.081Z</time></trkpt><trkpt lat="41.6863686" lon="13.5856604"><ele>274.0</ele><time>2026-05-04T12:42:36.082Z</time></trkpt><trkpt lat="41.6863959" lon="13.5858034"><ele>274.0</ele><time>2026-05-04T12:42:37.081Z</time></trkpt><trkpt lat="41.6864252" lon="13.5859375"><ele>274.0</ele><time>2026-05-04T12:42:38.081Z</time></trkpt><trkpt lat="41.6864552" lon="13.5860771"><ele>274.0</ele><time>2026-05-04T12:42:39.082Z</time></trkpt><trkpt lat="41.6864882" lon="13.5862237"><ele>274.0</ele><time>2026-05-04T12:42:40.081Z</time></trkpt><trkpt lat="41.6865193" lon="13.5863877"><ele>273.75</ele><time>2026-05-04T12:42:41.081Z</time></trkpt><trkpt lat="41.6865459" lon="13.5865486"><ele>273.5</ele><time>2026-05-04T12:42:42.082Z</time></trkpt><trkpt lat="41.6865639" lon="13.5867114"><ele>273.25</ele><time>2026-05-04T12:42:43.081Z</time></trkpt><trkpt lat="41.6865772" lon="13.5868643"><ele>273.0</ele><time>2026-05-04T12:42:44.082Z</time></trkpt><trkpt lat="41.6865859" lon="13.5869967"><ele>272.8</ele><time>2026-05-04T12:42:45.082Z</time></trkpt><trkpt lat="41.6865838" lon="13.5871071"><ele>272.6</ele><time>2026-05-04T12:42:46.081Z</time></trkpt><trkpt lat="41.6865769" lon="13.5872152"><ele>272.4</ele><time>2026-05-04T12:42:47.082Z</time></trkpt><trkpt lat="41.6865651" lon="13.5873352"><ele>272.2</ele><time>2026-05-04T12:42:48.082Z</time></trkpt><trkpt lat="41.6865483" lon="13.5874687"><ele>272.0</ele><time>2026-05-04T12:42:49.081Z</time></trkpt><trkpt lat="41.6865264" lon="13.5876104"><ele>272.0</ele><time>2026-05-04T12:42:50.082Z</time></trkpt><trkpt lat="41.6864966" lon="13.5877607"><ele>272.0</ele><time>2026-05-04T12:42:51.082Z</time></trkpt><trkpt lat="41.6864564" lon="13.5879129"><ele>272.0</ele><time>2026-05-04T12:42:52.081Z</time></trkpt><trkpt lat="41.6864126" lon="13.5880807"><ele>272.0</ele><time>2026-05-04T12:42:53.082Z</time></trkpt><trkpt lat="41.6863746" lon="13.5882347"><ele>272.4</ele><time>2026-05-04T12:42:54.082Z</time></trkpt><trkpt lat="41.6863397" lon="13.5883795"><ele>272.79999999999995</ele><time>2026-05-04T12:42:55.081Z</time></trkpt><trkpt lat="41.6863145" lon="13.5885096"><ele>273.2</ele><time>2026-05-04T12:42:56.081Z</time></trkpt><trkpt lat="41.6862891" lon="13.5886361"><ele>273.59999999999997</ele><time>2026-05-04T12:42:57.082Z</time></trkpt><trkpt lat="41.6862654" lon="13.588743"><ele>274.0</ele><time>2026-05-04T12:42:58.081Z</time></trkpt><trkpt lat="41.6862392" lon="13.5888454"><ele>275.16666666666663</ele><time>2026-05-04T12:42:59.082Z</time></trkpt><trkpt lat="41.6862187" lon="13.588948"><ele>276.3333333333333</ele><time>2026-05-04T12:43:00.082Z</time></trkpt><trkpt lat="41.6861964" lon="13.5890472"><ele>277.5</ele><time>2026-05-04T12:43:01.081Z</time></trkpt><trkpt lat="41.68618" lon="13.5891375"><ele>278.6666666666667</ele><time>2026-05-04T12:43:02.082Z</time></trkpt><trkpt lat="41.6861613" lon="13.5892215"><ele>279.83333333333337</ele><time>2026-05-04T12:43:03.082Z</time></trkpt><trkpt lat="41.6861367" lon="13.5893798"><ele>281.0</ele><time>2026-05-04T12:43:05.081Z</time></trkpt><trkpt lat="41.6861111" lon="13.589538"><ele>278.25</ele><time>2026-05-04T12:43:07.081Z</time></trkpt><trkpt lat="41.6860823" lon="13.5896581"><ele>275.5</ele><time>2026-05-04T12:43:08.082Z</time></trkpt><trkpt lat="41.6860485" lon="13.5898167"><ele>272.75</ele><time>2026-05-04T12:43:09.081Z</time></trkpt><trkpt lat="41.6860136" lon="13.5899962"><ele>270.0</ele><time>2026-05-04T12:43:10.082Z</time></trkpt><trkpt lat="41.6859738" lon="13.590185"><ele>271.0</ele><time>2026-05-04T12:43:11.081Z</time></trkpt><trkpt lat="41.6859281" lon="13.5903896"><ele>272.0</ele><time>2026-05-04T12:43:12.082Z</time></trkpt><trkpt lat="41.6858803" lon="13.5906051"><ele>273.0</ele><time>2026-05-04T12:43:13.081Z</time></trkpt><trkpt lat="41.6858434" lon="13.5908362"><ele>273.0</ele><time>2026-05-04T12:43:14.081Z</time></trkpt><trkpt lat="41.6858236" lon="13.5910715"><ele>273.0</ele><time>2026-05-04T12:43:15.082Z</time></trkpt><trkpt lat="41.6858377" lon="13.5913252"><ele>273.0</ele><time>2026-05-04T12:43:16.081Z</time></trkpt><trkpt lat="41.6858713" lon="13.5915607"><ele>273.6666666666667</ele><time>2026-05-04T12:43:17.081Z</time></trkpt><trkpt lat="41.6859206" lon="13.5917794"><ele>274.33333333333337</ele><time>2026-05-04T12:43:18.082Z</time></trkpt><trkpt lat="41.6859891" lon="13.5919617"><ele>275.0</ele><time>2026-05-04T12:43:19.081Z</time></trkpt><trkpt lat="41.6860549" lon="13.5921238"><ele>275.0</ele><time>2026-05-04T12:43:20.081Z</time></trkpt><trkpt lat="41.6861025" lon="13.5922793"><ele>275.0</ele><time>2026-05-04T12:43:21.081Z</time></trkpt><trkpt lat="41.686122" lon="13.5924259"><ele>275.0</ele><time>2026-05-04T12:43:22.081Z</time></trkpt><trkpt lat="41.6861149" lon="13.5925678"><ele>275.0</ele><time>2026-05-04T12:43:23.082Z</time></trkpt><trkpt lat="41.6860797" lon="13.592713"><ele>275.25</ele><time>2026-05-04T12:43:24.082Z</time></trkpt><trkpt lat="41.6860411" lon="13.5928597"><ele>275.5</ele><time>2026-05-04T12:43:25.081Z</time></trkpt><trkpt lat="41.6859945" lon="13.5930206"><ele>275.75</ele><time>2026-05-04T12:43:26.082Z</time></trkpt><trkpt lat="41.6859641" lon="13.5931972"><ele>276.0</ele><time>2026-05-04T12:43:27.082Z</time></trkpt><trkpt lat="41.685936" lon="13.5933448"><ele>276.0</ele><time>2026-05-04T12:43:28.082Z</time></trkpt><trkpt lat="41.6859386" lon="13.59352"><ele>276.0</ele><time>2026-05-04T12:43:29.081Z</time></trkpt><trkpt lat="41.6859491" lon="13.5936831"><ele>276.0</ele><time>2026-05-04T12:43:30.082Z</time></trkpt><trkpt lat="41.6859656" lon="13.5938358"><ele>276.0</ele><time>2026-05-04T12:43:31.082Z</time></trkpt><trkpt lat="41.6859817" lon="13.5939944"><ele>275.75</ele><time>2026-05-04T12:43:32.081Z</time></trkpt><trkpt lat="41.685998" lon="13.5941519"><ele>275.5</ele><time>2026-05-04T12:43:33.082Z</time></trkpt><trkpt lat="41.6860114" lon="13.5943208"><ele>275.25</ele><time>2026-05-04T12:43:34.081Z</time></trkpt><trkpt lat="41.6860172" lon="13.5944982"><ele>275.0</ele><time>2026-05-04T12:43:35.082Z</time></trkpt><trkpt lat="41.686013" lon="13.5946811"><ele>274.75</ele><time>2026-05-04T12:43:36.082Z</time></trkpt><trkpt lat="41.6860021" lon="13.5948613"><ele>274.5</ele><time>2026-05-04T12:43:37.082Z</time></trkpt><trkpt lat="41.6859947" lon="13.5950509"><ele>274.25</ele><time>2026-05-04T12:43:38.081Z</time></trkpt><trkpt lat="41.6859906" lon="13.5952397"><ele>274.0</ele><time>2026-05-04T12:43:39.082Z</time></trkpt><trkpt lat="41.6859915" lon="13.5954895"><ele>274.0</ele><time>2026-05-04T12:43:40.082Z</time></trkpt><trkpt lat="41.6859957" lon="13.5957574"><ele>274.0</ele><time>2026-05-04T12:43:41.082Z</time></trkpt><trkpt lat="41.6859951" lon="13.5960562"><ele>274.0</ele><time>2026-05-04T12:43:42.082Z</time></trkpt><trkpt lat="41.6859889" lon="13.5963689"><ele>274.0</ele><time>2026-05-04T12:43:43.081Z</time></trkpt><trkpt lat="41.6859729" lon="13.5966645"><ele>274.0</ele><time>2026-05-04T12:43:44.082Z</time></trkpt><trkpt lat="41.6859634" lon="13.5969455"><ele>274.0</ele><time>2026-05-04T12:43:45.082Z</time></trkpt><trkpt lat="41.685961" lon="13.5972049"><ele>274.0</ele><time>2026-05-04T12:43:46.082Z</time></trkpt><trkpt lat="41.6859577" lon="13.5974478"><ele>274.0</ele><time>2026-05-04T12:43:47.082Z</time></trkpt><trkpt lat="41.6859557" lon="13.5976787"><ele>274.0</ele><time>2026-05-04T12:43:48.082Z</time></trkpt><trkpt lat="41.6859532" lon="13.5978836"><ele>274.0</ele><time>2026-05-04T12:43:49.082Z</time></trkpt><trkpt lat="41.685951" lon="13.5980664"><ele>274.0</ele><time>2026-05-04T12:43:50.082Z</time></trkpt><trkpt lat="41.6859428" lon="13.5982422"><ele>274.0</ele><time>2026-05-04T12:43:51.081Z</time></trkpt><trkpt lat="41.6859373" lon="13.5984321"><ele>274.0</ele><time>2026-05-04T12:43:52.082Z</time></trkpt><trkpt lat="41.6859341" lon="13.5986255"><ele>274.25</ele><time>2026-05-04T12:43:53.081Z</time></trkpt><trkpt lat="41.6859318" lon="13.5988108"><ele>274.5</ele><time>2026-05-04T12:43:54.081Z</time></trkpt><trkpt lat="41.6859257" lon="13.598984"><ele>274.75</ele><time>2026-05-04T12:43:55.082Z</time></trkpt><trkpt lat="41.6859222" lon="13.5991499"><ele>275.0</ele><time>2026-05-04T12:43:56.081Z</time></trkpt><trkpt lat="41.6859193" lon="13.5993071"><ele>275.0</ele><time>2026-05-04T12:43:57.081Z</time></trkpt><trkpt lat="41.6859177" lon="13.5994587"><ele>275.0</ele><time>2026-05-04T12:43:58.081Z</time></trkpt><trkpt lat="41.6859145" lon="13.5996081"><ele>275.0</ele><time>2026-05-04T12:43:59.081Z</time></trkpt><trkpt lat="41.6859142" lon="13.5997469"><ele>275.0</ele><time>2026-05-04T12:44:00.082Z</time></trkpt><trkpt lat="41.6859324" lon="13.5998885"><ele>275.0</ele><time>2026-05-04T12:44:01.082Z</time></trkpt><trkpt lat="41.6859663" lon="13.6000265"><ele>275.33333333333337</ele><time>2026-05-04T12:44:02.081Z</time></trkpt><trkpt lat="41.686009" lon="13.6001541"><ele>275.6666666666667</ele><time>2026-05-04T12:44:03.082Z</time></trkpt><trkpt lat="41.6860518" lon="13.6002566"><ele>276.0</ele><time>2026-05-04T12:44:04.082Z</time></trkpt><trkpt lat="41.6860906" lon="13.6003326"><ele>276.3333333333333</ele><time>2026-05-04T12:44:06.082Z</time></trkpt><trkpt lat="41.6861251" lon="13.6004131"><ele>276.66666666666663</ele><time>2026-05-04T12:44:12.081Z</time></trkpt><trkpt lat="41.6861503" lon="13.6004991"><ele>277.0</ele><time>2026-05-04T12:44:13.081Z</time></trkpt><trkpt lat="41.6861956" lon="13.6005941"><ele>277.5</ele><time>2026-05-04T12:44:14.081Z</time></trkpt><trkpt lat="41.686277" lon="13.6006859"><ele>278.0</ele><time>2026-05-04T12:44:15.082Z</time></trkpt><trkpt lat="41.686399" lon="13.6007735"><ele>278.5</ele><time>2026-05-04T12:44:16.081Z</time></trkpt><trkpt lat="41.6865603" lon="13.6008863"><ele>279.0</ele><time>2026-05-04T12:44:17.082Z</time></trkpt><trkpt lat="41.6867359" lon="13.6010318"><ele>279.0</ele><time>2026-05-04T12:44:18.082Z</time></trkpt><trkpt lat="41.6869198" lon="13.6011723"><ele>279.0</ele><time>2026-05-04T12:44:19.082Z</time></trkpt><trkpt lat="41.6870941" lon="13.6013024"><ele>279.0</ele><time>2026-05-04T12:44:20.082Z</time></trkpt><trkpt lat="41.6872532" lon="13.6014129"><ele>279.3333333333333</ele><time>2026-05-04T12:44:21.081Z</time></trkpt><trkpt lat="41.6873957" lon="13.6015047"><ele>279.66666666666663</ele><time>2026-05-04T12:44:22.082Z</time></trkpt><trkpt lat="41.6875391" lon="13.6015999"><ele>280.0</ele><time>2026-05-04T12:44:23.081Z</time></trkpt><trkpt lat="41.6876871" lon="13.6016908"><ele>280.3333333333333</ele><time>2026-05-04T12:44:24.082Z</time></trkpt><trkpt lat="41.6878241" lon="13.6017889"><ele>280.6666666666667</ele><time>2026-05-04T12:44:25.081Z</time></trkpt><trkpt lat="41.6879549" lon="13.6019152"><ele>281.0</ele><time>2026-05-04T12:44:26.082Z</time></trkpt><trkpt lat="41.6880822" lon="13.6020567"><ele>281.0</ele><time>2026-05-04T12:44:27.082Z</time></trkpt><trkpt lat="41.6882033" lon="13.6021969"><ele>281.0</ele><time>2026-05-04T12:44:28.082Z</time></trkpt><trkpt lat="41.6883109" lon="13.6023304"><ele>281.0</ele><time>2026-05-04T12:44:29.082Z</time></trkpt><trkpt lat="41.688425" lon="13.6024686"><ele>281.0</ele><time>2026-05-04T12:44:30.082Z</time></trkpt><trkpt lat="41.6885442" lon="13.6026192"><ele>281.0</ele><time>2026-05-04T12:44:31.081Z</time></trkpt><trkpt lat="41.6886564" lon="13.6027724"><ele>281.0</ele><time>2026-05-04T12:44:32.081Z</time></trkpt><trkpt lat="41.6887554" lon="13.6029141"><ele>280.75</ele><time>2026-05-04T12:44:33.082Z</time></trkpt><trkpt lat="41.6888376" lon="13.6030567"><ele>280.5</ele><time>2026-05-04T12:44:34.082Z</time></trkpt><trkpt lat="41.6889183" lon="13.6032114"><ele>280.25</ele><time>2026-05-04T12:44:35.081Z</time></trkpt><trkpt lat="41.6889974" lon="13.6033732"><ele>280.0</ele><time>2026-05-04T12:44:36.082Z</time></trkpt><trkpt lat="41.6890676" lon="13.6035304"><ele>280.6</ele><time>2026-05-04T12:44:37.082Z</time></trkpt><trkpt lat="41.6891337" lon="13.6036778"><ele>281.2</ele><time>2026-05-04T12:44:38.082Z</time></trkpt><trkpt lat="41.6891918" lon="13.6038137"><ele>281.8</ele><time>2026-05-04T12:44:39.081Z</time></trkpt><trkpt lat="41.6892452" lon="13.6039248"><ele>282.4</ele><time>2026-05-04T12:44:40.082Z</time></trkpt><trkpt lat="41.6892962" lon="13.6040257"><ele>283.0</ele><time>2026-05-04T12:44:41.081Z</time></trkpt><trkpt lat="41.6893168" lon="13.6041334"><ele>283.0</ele><time>2026-05-04T12:44:42.082Z</time></trkpt><trkpt lat="41.6893155" lon="13.6042533"><ele>283.0</ele><time>2026-05-04T12:44:43.081Z</time></trkpt><trkpt lat="41.6893042" lon="13.6043716"><ele>283.0</ele><time>2026-05-04T12:44:44.081Z</time></trkpt><trkpt lat="41.68929" lon="13.6044797"><ele>283.0</ele><time>2026-05-04T12:44:45.081Z</time></trkpt><trkpt lat="41.6892754" lon="13.6045841"><ele>283.0</ele><time>2026-05-04T12:44:46.081Z</time></trkpt><trkpt lat="41.6892639" lon="13.6046803"><ele>283.0</ele><time>2026-05-04T12:44:47.08Z</time></trkpt><trkpt lat="41.6892559" lon="13.6047727"><ele>283.16666666666663</ele><time>2026-05-04T12:44:48.081Z</time></trkpt><trkpt lat="41.6892618" lon="13.6048593"><ele>283.3333333333333</ele><time>2026-05-04T12:44:49.081Z</time></trkpt><trkpt lat="41.6893049" lon="13.6049994"><ele>283.5</ele><time>2026-05-04T12:44:51.081Z</time></trkpt><trkpt lat="41.689408" lon="13.6050995"><ele>283.6666666666667</ele><time>2026-05-04T12:44:53.081Z</time></trkpt><trkpt lat="41.6894691" lon="13.6051345"><ele>283.83333333333337</ele><time>2026-05-04T12:44:54.08Z</time></trkpt><trkpt lat="41.6895368" lon="13.6051655"><ele>284.0</ele><time>2026-05-04T12:44:55.08Z</time></trkpt><trkpt lat="41.6896102" lon="13.6051839"><ele>283.6666666666667</ele><time>2026-05-04T12:44:56.08Z</time></trkpt><trkpt lat="41.6896936" lon="13.6051834"><ele>283.33333333333337</ele><time>2026-05-04T12:44:57.081Z</time></trkpt><trkpt lat="41.6897724" lon="13.6051447"><ele>283.0</ele><time>2026-05-04T12:44:58.08Z</time></trkpt><trkpt lat="41.6898373" lon="13.605098"><ele>282.6666666666667</ele><time>2026-05-04T12:44:59.081Z</time></trkpt><trkpt lat="41.6899031" lon="13.6050643"><ele>282.3333333333333</ele><time>2026-05-04T12:45:00.081Z</time></trkpt><trkpt lat="41.6899731" lon="13.6050498"><ele>282.0</ele><time>2026-05-04T12:45:01.08Z</time></trkpt><trkpt lat="41.6900481" lon="13.6050654"><ele>282.0</ele><time>2026-05-04T12:45:02.08Z</time></trkpt><trkpt lat="41.6901259" lon="13.6050969"><ele>282.0</ele><time>2026-05-04T12:45:03.081Z</time></trkpt><trkpt lat="41.6901952" lon="13.6051284"><ele>282.0</ele><time>2026-05-04T12:45:04.08Z</time></trkpt><trkpt lat="41.6902588" lon="13.6051679"><ele>282.0</ele><time>2026-05-04T12:45:05.081Z</time></trkpt><trkpt lat="41.6903158" lon="13.6052091"><ele>282.0</ele><time>2026-05-04T12:45:06.081Z</time></trkpt><trkpt lat="41.6904166" lon="13.605288"><ele>282.0</ele><time>2026-05-04T12:45:08.08Z</time></trkpt><trkpt lat="41.6904754" lon="13.6053426"><ele>282.1666666666667</ele><time>2026-05-04T12:45:09.081Z</time></trkpt><trkpt lat="41.6905369" lon="13.6053979"><ele>282.3333333333333</ele><time>2026-05-04T12:45:10.081Z</time></trkpt><trkpt lat="41.6905948" lon="13.6054664"><ele>282.5</ele><time>2026-05-04T12:45:11.081Z</time></trkpt><trkpt lat="41.6906635" lon="13.6055434"><ele>282.66666666666663</ele><time>2026-05-04T12:45:12.08Z</time></trkpt><trkpt lat="41.6907339" lon="13.6056187"><ele>282.8333333333333</ele><time>2026-05-04T12:45:13.081Z</time></trkpt><trkpt lat="41.6908141" lon="13.6056976"><ele>283.0</ele><time>2026-05-04T12:45:14.08Z</time></trkpt><trkpt lat="41.6908878" lon="13.6057753"><ele>283.0</ele><time>2026-05-04T12:45:15.08Z</time></trkpt><trkpt lat="41.6909589" lon="13.6058444"><ele>283.0</ele><time>2026-05-04T12:45:16.081Z</time></trkpt><trkpt lat="41.6910146" lon="13.6059121"><ele>283.0</ele><time>2026-05-04T12:45:17.08Z</time></trkpt><trkpt lat="41.6910807" lon="13.6059972"><ele>283.0</ele><time>2026-05-04T12:45:19.081Z</time></trkpt><trkpt lat="41.6910911" lon="13.6061006"><ele>283.0</ele><time>2026-05-04T12:45:22.08Z</time></trkpt><trkpt lat="41.6910875" lon="13.6062114"><ele>283.0</ele><time>2026-05-04T12:45:24.08Z</time></trkpt><trkpt lat="41.6910848" lon="13.6063464"><ele>283.3333333333333</ele><time>2026-05-04T12:45:26.081Z</time></trkpt><trkpt lat="41.6910769" lon="13.606487"><ele>283.66666666666663</ele><time>2026-05-04T12:45:28.08Z</time></trkpt><trkpt lat="41.6910782" lon="13.6066191"><ele>284.0</ele><time>2026-05-04T12:45:30.08Z</time></trkpt><trkpt lat="41.6910768" lon="13.6067062"><ele>284.3333333333333</ele><time>2026-05-04T12:45:32.081Z</time></trkpt><trkpt lat="41.6910814" lon="13.6068012"><ele>284.6666666666667</ele><time>2026-05-04T12:45:35.081Z</time></trkpt><trkpt lat="41.6911124" lon="13.6069137"><ele>285.0</ele><time>2026-05-04T12:45:38.081Z</time></trkpt><trkpt lat="41.6911271" lon="13.6069966"><ele>285.2</ele><time>2026-05-04T12:45:39.081Z</time></trkpt><trkpt lat="41.6911351" lon="13.6070874"><ele>285.4</ele><time>2026-05-04T12:45:40.08Z</time></trkpt><trkpt lat="41.6911389" lon="13.607205"><ele>285.6</ele><time>2026-05-04T12:45:41.08Z</time></trkpt><trkpt lat="41.691132" lon="13.6073348"><ele>285.8</ele><time>2026-05-04T12:45:42.08Z</time></trkpt><trkpt lat="41.691134" lon="13.6075021"><ele>286.0</ele><time>2026-05-04T12:45:43.081Z</time></trkpt><trkpt lat="41.6911527" lon="13.6076888"><ele>285.5</ele><time>2026-05-04T12:45:44.08Z</time></trkpt><trkpt lat="41.6911712" lon="13.6078667"><ele>285.0</ele><time>2026-05-04T12:45:45.08Z</time></trkpt><trkpt lat="41.6911793" lon="13.6080478"><ele>284.5</ele><time>2026-05-04T12:45:46.08Z</time></trkpt><trkpt lat="41.6911856" lon="13.6082342"><ele>284.0</ele><time>2026-05-04T12:45:47.08Z</time></trkpt><trkpt lat="41.691187" lon="13.6084515"><ele>284.0</ele><time>2026-05-04T12:45:48.081Z</time></trkpt><trkpt lat="41.6911951" lon="13.6087199"><ele>284.0</ele><time>2026-05-04T12:45:49.08Z</time></trkpt><trkpt lat="41.6912063" lon="13.6090207"><ele>284.0</ele><time>2026-05-04T12:45:50.081Z</time></trkpt><trkpt lat="41.6912165" lon="13.6093269"><ele>285.0</ele><time>2026-05-04T12:45:51.08Z</time></trkpt><trkpt lat="41.6912177" lon="13.6096141"><ele>286.0</ele><time>2026-05-04T12:45:52.081Z</time></trkpt><trkpt lat="41.6911946" lon="13.6098851"><ele>287.0</ele><time>2026-05-04T12:45:53.08Z</time></trkpt><trkpt lat="41.6911489" lon="13.6101605"><ele>286.33333333333337</ele><time>2026-05-04T12:45:54.08Z</time></trkpt><trkpt lat="41.6910924" lon="13.6104095"><ele>285.6666666666667</ele><time>2026-05-04T12:45:55.08Z</time></trkpt><trkpt lat="41.6910359" lon="13.6106426"><ele>285.0</ele><time>2026-05-04T12:45:56.081Z</time></trkpt><trkpt lat="41.6909908" lon="13.610864"><ele>285.0</ele><time>2026-05-04T12:45:57.081Z</time></trkpt><trkpt lat="41.6909761" lon="13.6110784"><ele>285.0</ele><time>2026-05-04T12:45:58.08Z</time></trkpt><trkpt lat="41.6909917" lon="13.611304"><ele>285.0</ele><time>2026-05-04T12:45:59.081Z</time></trkpt><trkpt lat="41.6910501" lon="13.611555"><ele>288.5</ele><time>2026-05-04T12:46:00.08Z</time></trkpt><trkpt lat="41.6911372" lon="13.6118489"><ele>292.0</ele><time>2026-05-04T12:46:01.081Z</time></trkpt><trkpt lat="41.6912263" lon="13.6121388"><ele>292.0</ele><time>2026-05-04T12:46:02.081Z</time></trkpt><trkpt lat="41.6913099" lon="13.6124083"><ele>292.0</ele><time>2026-05-04T12:46:03.081Z</time></trkpt><trkpt lat="41.6914096" lon="13.6126751"><ele>292.0</ele><time>2026-05-04T12:46:04.08Z</time></trkpt><trkpt lat="41.691541" lon="13.612959"><ele>289.5</ele><time>2026-05-04T12:46:05.08Z</time></trkpt><trkpt lat="41.6917037" lon="13.6132753"><ele>287.0</ele><time>2026-05-04T12:46:06.08Z</time></trkpt><trkpt lat="41.6918965" lon="13.6136093"><ele>286.0</ele><time>2026-05-04T12:46:07.08Z</time></trkpt><trkpt lat="41.6920851" lon="13.6139251"><ele>285.0</ele><time>2026-05-04T12:46:08.081Z</time></trkpt><trkpt lat="41.692256" lon="13.6142222"><ele>285.0</ele><time>2026-05-04T12:46:09.08Z</time></trkpt><trkpt lat="41.6924101" lon="13.6144999"><ele>285.0</ele><time>2026-05-04T12:46:10.081Z</time></trkpt><trkpt lat="41.6925453" lon="13.6147648"><ele>285.0</ele><time>2026-05-04T12:46:11.081Z</time></trkpt><trkpt lat="41.6926549" lon="13.615019"><ele>285.0</ele><time>2026-05-04T12:46:12.08Z</time></trkpt><trkpt lat="41.6927287" lon="13.615271"><ele>285.0</ele><time>2026-05-04T12:46:13.08Z</time></trkpt><trkpt lat="41.6927606" lon="13.6155252"><ele>286.0</ele><time>2026-05-04T12:46:14.08Z</time></trkpt><trkpt lat="41.6927601" lon="13.6157997"><ele>287.0</ele><time>2026-05-04T12:46:15.081Z</time></trkpt><trkpt lat="41.6927444" lon="13.6160992"><ele>288.0</ele><time>2026-05-04T12:46:16.081Z</time></trkpt><trkpt lat="41.6927222" lon="13.6164093"><ele>288.0</ele><time>2026-05-04T12:46:17.08Z</time></trkpt><trkpt lat="41.692701" lon="13.6167254"><ele>288.0</ele><time>2026-05-04T12:46:18.081Z</time></trkpt><trkpt lat="41.6926963" lon="13.6170428"><ele>288.0</ele><time>2026-05-04T12:46:19.08Z</time></trkpt><trkpt lat="41.692718" lon="13.6173729"><ele>288.0</ele><time>2026-05-04T12:46:20.08Z</time></trkpt><trkpt lat="41.692764" lon="13.6177001"><ele>289.0</ele><time>2026-05-04T12:46:21.081Z</time></trkpt><trkpt lat="41.6928357" lon="13.618014"><ele>290.0</ele><time>2026-05-04T12:46:22.081Z</time></trkpt><trkpt lat="41.6929285" lon="13.6183258"><ele>290.0</ele><time>2026-05-04T12:46:23.081Z</time></trkpt><trkpt lat="41.693037" lon="13.6186406"><ele>290.0</ele><time>2026-05-04T12:46:24.081Z</time></trkpt><trkpt lat="41.693143" lon="13.6189552"><ele>289.0</ele><time>2026-05-04T12:46:25.08Z</time></trkpt><trkpt lat="41.6932373" lon="13.619267"><ele>288.0</ele><time>2026-05-04T12:46:26.08Z</time></trkpt><trkpt lat="41.6933249" lon="13.6195729"><ele>287.5</ele><time>2026-05-04T12:46:27.08Z</time></trkpt><trkpt lat="41.6934056" lon="13.6198718"><ele>287.0</ele><time>2026-05-04T12:46:28.081Z</time></trkpt><trkpt lat="41.6934822" lon="13.6201641"><ele>287.0</ele><time>2026-05-04T12:46:29.081Z</time></trkpt><trkpt lat="41.6935584" lon="13.6204664"><ele>287.0</ele><time>2026-05-04T12:46:30.08Z</time></trkpt><trkpt lat="41.693633" lon="13.6207741"><ele>287.5</ele><time>2026-05-04T12:46:31.08Z</time></trkpt><trkpt lat="41.6937039" lon="13.6210896"><ele>288.0</ele><time>2026-05-04T12:46:32.081Z</time></trkpt><trkpt lat="41.6937654" lon="13.621411"><ele>288.5</ele><time>2026-05-04T12:46:33.081Z</time></trkpt><trkpt lat="41.6938153" lon="13.6217423"><ele>289.0</ele><time>2026-05-04T12:46:34.08Z</time></trkpt><trkpt lat="41.6938558" lon="13.6220797"><ele>289.5</ele><time>2026-05-04T12:46:35.081Z</time></trkpt><trkpt lat="41.6938956" lon="13.6224261"><ele>290.0</ele><time>2026-05-04T12:46:36.081Z</time></trkpt><trkpt lat="41.6939387" lon="13.622773"><ele>290.5</ele><time>2026-05-04T12:46:37.081Z</time></trkpt><trkpt lat="41.693989" lon="13.6231261"><ele>291.0</ele><time>2026-05-04T12:46:38.081Z</time></trkpt><trkpt lat="41.6940457" lon="13.6234783"><ele>291.0</ele><time>2026-05-04T12:46:39.081Z</time></trkpt><trkpt lat="41.6941058" lon="13.6238273"><ele>291.0</ele><time>2026-05-04T12:46:40.081Z</time></trkpt><trkpt lat="41.6941634" lon="13.624169"><ele>291.0</ele><time>2026-05-04T12:46:41.08Z</time></trkpt><trkpt lat="41.6942131" lon="13.6244989"><ele>291.0</ele><time>2026-05-04T12:46:42.08Z</time></trkpt><trkpt lat="41.6942569" lon="13.6248191"><ele>291.0</ele><time>2026-05-04T12:46:43.08Z</time></trkpt><trkpt lat="41.6942962" lon="13.625132"><ele>291.0</ele><time>2026-05-04T12:46:44.081Z</time></trkpt><trkpt lat="41.6943354" lon="13.6254335"><ele>291.5</ele><time>2026-05-04T12:46:45.081Z</time></trkpt><trkpt lat="41.6943893" lon="13.6257215"><ele>292.0</ele><time>2026-05-04T12:46:46.08Z</time></trkpt><trkpt lat="41.6944694" lon="13.6260125"><ele>291.5</ele><time>2026-05-04T12:46:47.08Z</time></trkpt><trkpt lat="41.6945769" lon="13.6263037"><ele>291.0</ele><time>2026-05-04T12:46:48.081Z</time></trkpt><trkpt lat="41.6946964" lon="13.6266166"><ele>291.0</ele><time>2026-05-04T12:46:49.081Z</time></trkpt><trkpt lat="41.6948282" lon="13.6269404"><ele>291.0</ele><time>2026-05-04T12:46:50.081Z</time></trkpt><trkpt lat="41.6949687" lon="13.6272654"><ele>291.5</ele><time>2026-05-04T12:46:51.08Z</time></trkpt><trkpt lat="41.6950986" lon="13.6275799"><ele>292.0</ele><time>2026-05-04T12:46:52.08Z</time></trkpt><trkpt lat="41.6952169" lon="13.6278746"><ele>293.0</ele><time>2026-05-04T12:46:53.081Z</time></trkpt><trkpt lat="41.6953339" lon="13.6281503"><ele>294.0</ele><time>2026-05-04T12:46:54.081Z</time></trkpt><trkpt lat="41.6954423" lon="13.6284096"><ele>293.6666666666667</ele><time>2026-05-04T12:46:55.08Z</time></trkpt><trkpt lat="41.6955431" lon="13.6286652"><ele>293.33333333333337</ele><time>2026-05-04T12:46:56.08Z</time></trkpt><trkpt lat="41.6956304" lon="13.628928"><ele>293.0</ele><time>2026-05-04T12:46:57.08Z</time></trkpt><trkpt lat="41.6957037" lon="13.6292125"><ele>294.0</ele><time>2026-05-04T12:46:58.08Z</time></trkpt><trkpt lat="41.6957758" lon="13.6295213"><ele>295.0</ele><time>2026-05-04T12:46:59.081Z</time></trkpt><trkpt lat="41.6958445" lon="13.6298516"><ele>295.0</ele><time>2026-05-04T12:47:00.081Z</time></trkpt><trkpt lat="41.6959189" lon="13.6302022"><ele>295.0</ele><time>2026-05-04T12:47:01.081Z</time></trkpt><trkpt lat="41.6959932" lon="13.6305586"><ele>295.5</ele><time>2026-05-04T12:47:02.08Z</time></trkpt><trkpt lat="41.6960713" lon="13.6309168"><ele>296.0</ele><time>2026-05-04T12:47:03.08Z</time></trkpt><trkpt lat="41.6961498" lon="13.6312654"><ele>295.0</ele><time>2026-05-04T12:47:04.081Z</time></trkpt><trkpt lat="41.6962319" lon="13.6315974"><ele>294.0</ele><time>2026-05-04T12:47:05.081Z</time></trkpt><trkpt lat="41.6963266" lon="13.6319267"><ele>294.0</ele><time>2026-05-04T12:47:06.081Z</time></trkpt><trkpt lat="41.6964232" lon="13.6322562"><ele>294.0</ele><time>2026-05-04T12:47:07.08Z</time></trkpt><trkpt lat="41.6965226" lon="13.6325743"><ele>295.0</ele><time>2026-05-04T12:47:08.081Z</time></trkpt><trkpt lat="41.6966207" lon="13.6328684"><ele>296.0</ele><time>2026-05-04T12:47:09.08Z</time></trkpt><trkpt lat="41.6967045" lon="13.6331268"><ele>296.0</ele><time>2026-05-04T12:47:10.081Z</time></trkpt><trkpt lat="41.6967791" lon="13.6333566"><ele>296.0</ele><time>2026-05-04T12:47:11.081Z</time></trkpt><trkpt lat="41.6968455" lon="13.6335561"><ele>296.0</ele><time>2026-05-04T12:47:12.08Z</time></trkpt><trkpt lat="41.6969034" lon="13.6337216"><ele>296.2</ele><time>2026-05-04T12:47:13.081Z</time></trkpt><trkpt lat="41.6969439" lon="13.6338465"><ele>296.40000000000003</ele><time>2026-05-04T12:47:14.081Z</time></trkpt><trkpt lat="41.6969707" lon="13.6339485"><ele>296.6</ele><time>2026-05-04T12:47:15.08Z</time></trkpt><trkpt lat="41.6969486" lon="13.6340595"><ele>296.8</ele><time>2026-05-04T12:47:17.081Z</time></trkpt><trkpt lat="41.696793" lon="13.6340982"><ele>297.0</ele><time>2026-05-04T12:47:19.081Z</time></trkpt><trkpt lat="41.6966497" lon="13.6341215"><ele>297.3333333333333</ele><time>2026-05-04T12:47:20.08Z</time></trkpt><trkpt lat="41.6964783" lon="13.634153"><ele>297.66666666666663</ele><time>2026-05-04T12:47:21.081Z</time></trkpt><trkpt lat="41.6963036" lon="13.6341858"><ele>298.0</ele><time>2026-05-04T12:47:22.081Z</time></trkpt><trkpt lat="41.6961359" lon="13.6342163"><ele>298.3333333333333</ele><time>2026-05-04T12:47:23.081Z</time></trkpt><trkpt lat="41.6959679" lon="13.6342456"><ele>298.6666666666667</ele><time>2026-05-04T12:47:24.081Z</time></trkpt><trkpt lat="41.6957897" lon="13.6342805"><ele>299.0</ele><time>2026-05-04T12:47:25.08Z</time></trkpt><trkpt lat="41.6956073" lon="13.6343004"><ele>299.0</ele><time>2026-05-04T12:47:26.08Z</time></trkpt><trkpt lat="41.6954384" lon="13.634308"><ele>299.0</ele><time>2026-05-04T12:47:27.08Z</time></trkpt><trkpt lat="41.6952728" lon="13.6343095"><ele>299.0</ele><time>2026-05-04T12:47:28.081Z</time></trkpt><trkpt lat="41.6951035" lon="13.6343096"><ele>298.0</ele><time>2026-05-04T12:47:29.08Z</time></trkpt><trkpt lat="41.6949316" lon="13.634299"><ele>297.0</ele><time>2026-05-04T12:47:30.081Z</time></trkpt><trkpt lat="41.6947646" lon="13.6342785"><ele>296.0</ele><time>2026-05-04T12:47:31.081Z</time></trkpt><trkpt lat="41.694611" lon="13.63425"><ele>296.0</ele><time>2026-05-04T12:47:32.081Z</time></trkpt><trkpt lat="41.6944793" lon="13.6342193"><ele>296.0</ele><time>2026-05-04T12:47:33.081Z</time></trkpt><trkpt lat="41.6943564" lon="13.6342003"><ele>296.0</ele><time>2026-05-04T12:47:34.081Z</time></trkpt><trkpt lat="41.6942365" lon="13.6342075"><ele>296.0</ele><time>2026-05-04T12:47:35.081Z</time></trkpt><trkpt lat="41.6941121" lon="13.6342539"><ele>294.33333333333337</ele><time>2026-05-04T12:47:36.081Z</time></trkpt><trkpt lat="41.693958" lon="13.6343487"><ele>292.6666666666667</ele><time>2026-05-04T12:47:37.081Z</time></trkpt><trkpt lat="41.6937924" lon="13.6344432"><ele>291.0</ele><time>2026-05-04T12:47:38.08Z</time></trkpt><trkpt lat="41.6936366" lon="13.6345329"><ele>290.5</ele><time>2026-05-04T12:47:39.081Z</time></trkpt><trkpt lat="41.6935049" lon="13.6346026"><ele>290.0</ele><time>2026-05-04T12:47:40.08Z</time></trkpt><trkpt lat="41.6933879" lon="13.6346561"><ele>289.5</ele><time>2026-05-04T12:47:41.08Z</time></trkpt><trkpt lat="41.6932757" lon="13.634707"><ele>289.0</ele><time>2026-05-04T12:47:42.081Z</time></trkpt><trkpt lat="41.693151" lon="13.6347646"><ele>289.0</ele><time>2026-05-04T12:47:43.081Z</time></trkpt><trkpt lat="41.6930255" lon="13.6348282"><ele>289.0</ele><time>2026-05-04T12:47:44.08Z</time></trkpt><trkpt lat="41.6929121" lon="13.6348835"><ele>289.0</ele><time>2026-05-04T12:47:45.081Z</time></trkpt><trkpt lat="41.6928161" lon="13.6349375"><ele>289.0</ele><time>2026-05-04T12:47:46.08Z</time></trkpt><trkpt lat="41.6927424" lon="13.6349877"><ele>289.0</ele><time>2026-05-04T12:47:47.08Z</time></trkpt><trkpt lat="41.6926933" lon="13.6350477"><ele>289.5</ele><time>2026-05-04T12:47:48.081Z</time></trkpt><trkpt lat="41.6926727" lon="13.635188"><ele>290.0</ele><time>2026-05-04T12:47:50.08Z</time></trkpt><trkpt lat="41.6927038" lon="13.6353348"><ele>290.5</ele><time>2026-05-04T12:47:51.081Z</time></trkpt><trkpt lat="41.6927688" lon="13.6355128"><ele>291.0</ele><time>2026-05-04T12:47:52.081Z</time></trkpt><trkpt lat="41.6928634" lon="13.6356774"><ele>291.0</ele><time>2026-05-04T12:47:53.08Z</time></trkpt><trkpt lat="41.6929715" lon="13.6358231"><ele>291.0</ele><time>2026-05-04T12:47:54.081Z</time></trkpt><trkpt lat="41.6930719" lon="13.6359628"><ele>291.0</ele><time>2026-05-04T12:47:55.081Z</time></trkpt><trkpt lat="41.6931579" lon="13.6361247"><ele>291.0</ele><time>2026-05-04T12:47:56.081Z</time></trkpt><trkpt lat="41.6932459" lon="13.6363119"><ele>291.0</ele><time>2026-05-04T12:47:57.081Z</time></trkpt><trkpt lat="41.6933502" lon="13.6365236"><ele>291.0</ele><time>2026-05-04T12:47:58.08Z</time></trkpt><trkpt lat="41.6934727" lon="13.6367447"><ele>291.0</ele><time>2026-05-04T12:47:59.081Z</time></trkpt><trkpt lat="41.6935964" lon="13.6369406"><ele>291.3333333333333</ele><time>2026-05-04T12:48:00.081Z</time></trkpt><trkpt lat="41.6937028" lon="13.6371197"><ele>291.66666666666663</ele><time>2026-05-04T12:48:01.08Z</time></trkpt><trkpt lat="41.6937901" lon="13.637295"><ele>292.0</ele><time>2026-05-04T12:48:02.081Z</time></trkpt><trkpt lat="41.6938611" lon="13.6374845"><ele>292.0</ele><time>2026-05-04T12:48:03.081Z</time></trkpt><trkpt lat="41.6939315" lon="13.6376693"><ele>292.0</ele><time>2026-05-04T12:48:04.08Z</time></trkpt><trkpt lat="41.693995" lon="13.6378348"><ele>292.0</ele><time>2026-05-04T12:48:05.08Z</time></trkpt><trkpt lat="41.6940413" lon="13.6380038"><ele>292.0</ele><time>2026-05-04T12:48:06.081Z</time></trkpt><trkpt lat="41.6940655" lon="13.6381872"><ele>292.0</ele><time>2026-05-04T12:48:07.081Z</time></trkpt><trkpt lat="41.6940743" lon="13.6383726"><ele>292.0</ele><time>2026-05-04T12:48:08.08Z</time></trkpt><trkpt lat="41.694057" lon="13.6385505"><ele>292.0</ele><time>2026-05-04T12:48:09.081Z</time></trkpt><trkpt lat="41.6940072" lon="13.6387251"><ele>292.0</ele><time>2026-05-04T12:48:10.08Z</time></trkpt><trkpt lat="41.6939349" lon="13.6389293"><ele>292.0</ele><time>2026-05-04T12:48:11.081Z</time></trkpt><trkpt lat="41.6938504" lon="13.6391358"><ele>292.0</ele><time>2026-05-04T12:48:12.081Z</time></trkpt><trkpt lat="41.6937778" lon="13.6393202"><ele>292.0</ele><time>2026-05-04T12:48:13.08Z</time></trkpt><trkpt lat="41.6937291" lon="13.6395038"><ele>291.66666666666663</ele><time>2026-05-04T12:48:14.081Z</time></trkpt><trkpt lat="41.6936959" lon="13.6396809"><ele>291.3333333333333</ele><time>2026-05-04T12:48:15.08Z</time></trkpt><trkpt lat="41.6936747" lon="13.6398916"><ele>291.0</ele><time>2026-05-04T12:48:16.081Z</time></trkpt><trkpt lat="41.6936463" lon="13.6401294"><ele>291.0</ele><time>2026-05-04T12:48:17.08Z</time></trkpt><trkpt lat="41.6936083" lon="13.640367"><ele>291.0</ele><time>2026-05-04T12:48:18.081Z</time></trkpt><trkpt lat="41.6935689" lon="13.6406096"><ele>291.0</ele><time>2026-05-04T12:48:19.08Z</time></trkpt><trkpt lat="41.6935309" lon="13.6408489"><ele>294.6666666666667</ele><time>2026-05-04T12:48:20.081Z</time></trkpt><trkpt lat="41.6934966" lon="13.6410619"><ele>298.33333333333337</ele><time>2026-05-04T12:48:21.081Z</time></trkpt><trkpt lat="41.6934578" lon="13.6412651"><ele>302.0</ele><time>2026-05-04T12:48:22.081Z</time></trkpt><trkpt lat="41.6934338" lon="13.6414475"><ele>302.0</ele><time>2026-05-04T12:48:23.081Z</time></trkpt><trkpt lat="41.6934211" lon="13.641595"><ele>302.0</ele><time>2026-05-04T12:48:24.08Z</time></trkpt><trkpt lat="41.6934328" lon="13.6417244"><ele>302.0</ele><time>2026-05-04T12:48:25.081Z</time></trkpt><trkpt lat="41.6934515" lon="13.6418132"><ele>302.0</ele><time>2026-05-04T12:48:26.08Z</time></trkpt><trkpt lat="41.6934991" lon="13.6419179"><ele>302.0</ele><time>2026-05-04T12:48:34.081Z</time></trkpt><trkpt lat="41.6935365" lon="13.6420278"><ele>301.75</ele><time>2026-05-04T12:48:35.08Z</time></trkpt><trkpt lat="41.6935839" lon="13.642144"><ele>301.5</ele><time>2026-05-04T12:48:36.081Z</time></trkpt><trkpt lat="41.6936384" lon="13.6423039"><ele>301.25</ele><time>2026-05-04T12:48:37.08Z</time></trkpt><trkpt lat="41.6936896" lon="13.6424599"><ele>301.0</ele><time>2026-05-04T12:48:38.081Z</time></trkpt><trkpt lat="41.6937329" lon="13.6426129"><ele>298.5</ele><time>2026-05-04T12:48:39.081Z</time></trkpt><trkpt lat="41.6937656" lon="13.6427744"><ele>296.0</ele><time>2026-05-04T12:48:40.08Z</time></trkpt><trkpt lat="41.6937791" lon="13.642964"><ele>293.5</ele><time>2026-05-04T12:48:41.081Z</time></trkpt><trkpt lat="41.693807" lon="13.6431752"><ele>291.0</ele><time>2026-05-04T12:48:42.08Z</time></trkpt><trkpt lat="41.6938299" lon="13.6433874"><ele>291.0</ele><time>2026-05-04T12:48:43.08Z</time></trkpt><trkpt lat="41.6938512" lon="13.6435896"><ele>291.0</ele><time>2026-05-04T12:48:44.081Z</time></trkpt><trkpt lat="41.6938716" lon="13.6437866"><ele>291.0</ele><time>2026-05-04T12:48:45.08Z</time></trkpt><trkpt lat="41.6938863" lon="13.6439906"><ele>291.0</ele><time>2026-05-04T12:48:46.08Z</time></trkpt><trkpt lat="41.6938933" lon="13.6441841"><ele>291.0</ele><time>2026-05-04T12:48:47.081Z</time></trkpt><trkpt lat="41.6939025" lon="13.6443792"><ele>291.0</ele><time>2026-05-04T12:48:48.081Z</time></trkpt><trkpt lat="41.6939147" lon="13.6445734"><ele>291.0</ele><time>2026-05-04T12:48:49.08Z</time></trkpt><trkpt lat="41.6939336" lon="13.6447626"><ele>291.0</ele><time>2026-05-04T12:48:50.08Z</time></trkpt><trkpt lat="41.6939574" lon="13.6449472"><ele>291.0</ele><time>2026-05-04T12:48:51.081Z</time></trkpt><trkpt lat="41.6939884" lon="13.6451344"><ele>291.0</ele><time>2026-05-04T12:48:52.08Z</time></trkpt><trkpt lat="41.6940183" lon="13.6453183"><ele>291.0</ele><time>2026-05-04T12:48:53.08Z</time></trkpt><trkpt lat="41.6940451" lon="13.6454893"><ele>291.25</ele><time>2026-05-04T12:48:54.081Z</time></trkpt><trkpt lat="41.6940762" lon="13.6456498"><ele>291.5</ele><time>2026-05-04T12:48:55.081Z</time></trkpt><trkpt lat="41.6941178" lon="13.6458053"><ele>291.75</ele><time>2026-05-04T12:48:56.081Z</time></trkpt><trkpt lat="41.6941703" lon="13.6459598"><ele>292.0</ele><time>2026-05-04T12:48:57.08Z</time></trkpt><trkpt lat="41.6942224" lon="13.6461124"><ele>292.0</ele><time>2026-05-04T12:48:58.081Z</time></trkpt><trkpt lat="41.6942638" lon="13.6462614"><ele>292.0</ele><time>2026-05-04T12:48:59.081Z</time></trkpt><trkpt lat="41.6942968" lon="13.6464191"><ele>292.0</ele><time>2026-05-04T12:49:00.081Z</time></trkpt><trkpt lat="41.6943184" lon="13.6466011"><ele>292.0</ele><time>2026-05-04T12:49:01.08Z</time></trkpt><trkpt lat="41.6943355" lon="13.6468029"><ele>293.3333333333333</ele><time>2026-05-04T12:49:02.081Z</time></trkpt><trkpt lat="41.6943544" lon="13.647023"><ele>294.6666666666667</ele><time>2026-05-04T12:49:03.081Z</time></trkpt><trkpt lat="41.6943728" lon="13.647239"><ele>296.0</ele><time>2026-05-04T12:49:04.08Z</time></trkpt><trkpt lat="41.6943864" lon="13.6474479"><ele>296.0</ele><time>2026-05-04T12:49:05.081Z</time></trkpt><trkpt lat="41.6943923" lon="13.6476419"><ele>296.0</ele><time>2026-05-04T12:49:06.081Z</time></trkpt><trkpt lat="41.6943943" lon="13.647835"><ele>296.0</ele><time>2026-05-04T12:49:07.08Z</time></trkpt><trkpt lat="41.6944063" lon="13.6480341"><ele>296.0</ele><time>2026-05-04T12:49:08.08Z</time></trkpt><trkpt lat="41.6944198" lon="13.6482486"><ele>295.33333333333337</ele><time>2026-05-04T12:49:09.081Z</time></trkpt><trkpt lat="41.6944342" lon="13.6484637"><ele>294.6666666666667</ele><time>2026-05-04T12:49:10.08Z</time></trkpt><trkpt lat="41.6944338" lon="13.6486748"><ele>294.0</ele><time>2026-05-04T12:49:11.081Z</time></trkpt><trkpt lat="41.6944228" lon="13.6488874"><ele>295.5</ele><time>2026-05-04T12:49:12.081Z</time></trkpt><trkpt lat="41.6944071" lon="13.6490874"><ele>297.0</ele><time>2026-05-04T12:49:13.08Z</time></trkpt><trkpt lat="41.6943882" lon="13.6492742"><ele>298.5</ele><time>2026-05-04T12:49:14.081Z</time></trkpt><trkpt lat="41.6943599" lon="13.6494537"><ele>300.0</ele><time>2026-05-04T12:49:15.079Z</time></trkpt><trkpt lat="41.6943145" lon="13.6496307"><ele>300.3333333333333</ele><time>2026-05-04T12:49:16.079Z</time></trkpt><trkpt lat="41.6942456" lon="13.6498145"><ele>300.66666666666663</ele><time>2026-05-04T12:49:17.079Z</time></trkpt><trkpt lat="41.6941698" lon="13.6500042"><ele>301.0</ele><time>2026-05-04T12:49:18.079Z</time></trkpt><trkpt lat="41.694094" lon="13.6502006"><ele>300.66666666666663</ele><time>2026-05-04T12:49:19.08Z</time></trkpt><trkpt lat="41.6940251" lon="13.6504076"><ele>300.3333333333333</ele><time>2026-05-04T12:49:20.079Z</time></trkpt><trkpt lat="41.6939615" lon="13.650627"><ele>300.0</ele><time>2026-05-04T12:49:21.079Z</time></trkpt><trkpt lat="41.6939013" lon="13.6508533"><ele>300.0</ele><time>2026-05-04T12:49:22.08Z</time></trkpt><trkpt lat="41.6938448" lon="13.6511014"><ele>300.0</ele><time>2026-05-04T12:49:23.079Z</time></trkpt><trkpt lat="41.6937953" lon="13.6513475"><ele>300.0</ele><time>2026-05-04T12:49:24.08Z</time></trkpt><trkpt lat="41.6937579" lon="13.651605"><ele>301.0</ele><time>2026-05-04T12:49:25.079Z</time></trkpt><trkpt lat="41.6937267" lon="13.6518661"><ele>302.0</ele><time>2026-05-04T12:49:26.079Z</time></trkpt><trkpt lat="41.6936967" lon="13.6521109"><ele>303.0</ele><time>2026-05-04T12:49:27.08Z</time></trkpt><trkpt lat="41.6936737" lon="13.652337"><ele>303.3333333333333</ele><time>2026-05-04T12:49:28.08Z</time></trkpt><trkpt lat="41.6936436" lon="13.6525539"><ele>303.66666666666663</ele><time>2026-05-04T12:49:29.079Z</time></trkpt><trkpt lat="41.6936053" lon="13.6527636"><ele>304.0</ele><time>2026-05-04T12:49:30.08Z</time></trkpt><trkpt lat="41.6935565" lon="13.6529702"><ele>305.66666666666663</ele><time>2026-05-04T12:49:31.08Z</time></trkpt><trkpt lat="41.6935037" lon="13.6531704"><ele>307.3333333333333</ele><time>2026-05-04T12:49:32.08Z</time></trkpt><trkpt lat="41.6934612" lon="13.6533661"><ele>309.0</ele><time>2026-05-04T12:49:33.08Z</time></trkpt><trkpt lat="41.6934177" lon="13.6535591"><ele>308.3333333333333</ele><time>2026-05-04T12:49:34.08Z</time></trkpt><trkpt lat="41.6933732" lon="13.6537498"><ele>307.66666666666663</ele><time>2026-05-04T12:49:35.08Z</time></trkpt><trkpt lat="41.693329" lon="13.6539436"><ele>307.0</ele><time>2026-05-04T12:49:36.079Z</time></trkpt><trkpt lat="41.6932895" lon="13.6541425"><ele>307.0</ele><time>2026-05-04T12:49:37.079Z</time></trkpt><trkpt lat="41.6932504" lon="13.6543515"><ele>307.0</ele><time>2026-05-04T12:49:38.08Z</time></trkpt><trkpt lat="41.6932164" lon="13.6545685"><ele>307.0</ele><time>2026-05-04T12:49:39.08Z</time></trkpt><trkpt lat="41.6931775" lon="13.6547791"><ele>307.0</ele><time>2026-05-04T12:49:40.08Z</time></trkpt><trkpt lat="41.6931213" lon="13.6549776"><ele>307.0</ele><time>2026-05-04T12:49:41.079Z</time></trkpt><trkpt lat="41.6930541" lon="13.655164"><ele>307.0</ele><time>2026-05-04T12:49:42.08Z</time></trkpt><trkpt lat="41.6929886" lon="13.6553456"><ele>307.0</ele><time>2026-05-04T12:49:43.08Z</time></trkpt><trkpt lat="41.6929313" lon="13.6555272"><ele>307.0</ele><time>2026-05-04T12:49:44.079Z</time></trkpt><trkpt lat="41.6928891" lon="13.6556832"><ele>307.0</ele><time>2026-05-04T12:49:45.08Z</time></trkpt><trkpt lat="41.6928588" lon="13.6558108"><ele>307.0</ele><time>2026-05-04T12:49:46.08Z</time></trkpt><trkpt lat="41.6928417" lon="13.655936"><ele>307.0</ele><time>2026-05-04T12:49:47.08Z</time></trkpt><trkpt lat="41.6928321" lon="13.6560839"><ele>307.0</ele><time>2026-05-04T12:49:48.08Z</time></trkpt><trkpt lat="41.6928285" lon="13.6562738"><ele>307.0</ele><time>2026-05-04T12:49:49.079Z</time></trkpt><trkpt lat="41.6928152" lon="13.6564799"><ele>307.0</ele><time>2026-05-04T12:49:50.08Z</time></trkpt><trkpt lat="41.6927932" lon="13.6566729"><ele>306.75</ele><time>2026-05-04T12:49:51.08Z</time></trkpt><trkpt lat="41.6927564" lon="13.6568518"><ele>306.5</ele><time>2026-05-04T12:49:52.079Z</time></trkpt><trkpt lat="41.692692" lon="13.6570299"><ele>306.25</ele><time>2026-05-04T12:49:53.079Z</time></trkpt><trkpt lat="41.6926208" lon="13.6572074"><ele>306.0</ele><time>2026-05-04T12:49:54.079Z</time></trkpt><trkpt lat="41.6925637" lon="13.657376"><ele>306.5</ele><time>2026-05-04T12:49:55.08Z</time></trkpt><trkpt lat="41.6925258" lon="13.657507"><ele>307.0</ele><time>2026-05-04T12:49:56.079Z</time></trkpt><trkpt lat="41.6925409" lon="13.6576111"><ele>307.5</ele><time>2026-05-04T12:50:00.079Z</time></trkpt><trkpt lat="41.692608" lon="13.6575225"><ele>308.0</ele><time>2026-05-04T12:50:03.079Z</time></trkpt><trkpt lat="41.6926596" lon="13.657451"><ele>308.5</ele><time>2026-05-04T12:50:04.079Z</time></trkpt><trkpt lat="41.6927308" lon="13.6573905"><ele>309.0</ele><time>2026-05-04T12:50:05.079Z</time></trkpt><trkpt lat="41.6928258" lon="13.6573436"><ele>309.0</ele><time>2026-05-04T12:50:06.08Z</time></trkpt><trkpt lat="41.6929485" lon="13.6572895"><ele>309.0</ele><time>2026-05-04T12:50:07.079Z</time></trkpt><trkpt lat="41.6931104" lon="13.6572185"><ele>309.0</ele><time>2026-05-04T12:50:08.08Z</time></trkpt><trkpt lat="41.6932919" lon="13.6571424"><ele>309.0</ele><time>2026-05-04T12:50:09.08Z</time></trkpt><trkpt lat="41.6934993" lon="13.6570679"><ele>309.0</ele><time>2026-05-04T12:50:10.079Z</time></trkpt><trkpt lat="41.6937036" lon="13.6570036"><ele>309.0</ele><time>2026-05-04T12:50:11.079Z</time></trkpt><trkpt lat="41.6938783" lon="13.6569457"><ele>306.3333333333333</ele><time>2026-05-04T12:50:12.08Z</time></trkpt><trkpt lat="41.6940391" lon="13.6568955"><ele>303.66666666666663</ele><time>2026-05-04T12:50:13.079Z</time></trkpt><trkpt lat="41.6941952" lon="13.6568394"><ele>301.0</ele><time>2026-05-04T12:50:14.08Z</time></trkpt><trkpt lat="41.6943294" lon="13.6567989"><ele>300.2</ele><time>2026-05-04T12:50:15.079Z</time></trkpt><trkpt lat="41.6944322" lon="13.6567493"><ele>299.40000000000003</ele><time>2026-05-04T12:50:16.08Z</time></trkpt><trkpt lat="41.6945185" lon="13.6566736"><ele>298.6</ele><time>2026-05-04T12:50:17.08Z</time></trkpt><trkpt lat="41.6946026" lon="13.6565697"><ele>297.8</ele><time>2026-05-04T12:50:18.079Z</time></trkpt><trkpt lat="41.6946883" lon="13.6564807"><ele>297.0</ele><time>2026-05-04T12:50:19.08Z</time></trkpt><trkpt lat="41.6947769" lon="13.6564294"><ele>297.0</ele><time>2026-05-04T12:50:20.079Z</time></trkpt><trkpt lat="41.6949008" lon="13.6563975"><ele>297.0</ele><time>2026-05-04T12:50:21.079Z</time></trkpt><trkpt lat="41.695066" lon="13.6563814"><ele>297.0</ele><time>2026-05-04T12:50:22.08Z</time></trkpt><trkpt lat="41.6952302" lon="13.6563685"><ele>297.0</ele><time>2026-05-04T12:50:23.08Z</time></trkpt><trkpt lat="41.6953657" lon="13.6563453"><ele>297.0</ele><time>2026-05-04T12:50:24.08Z</time></trkpt><trkpt lat="41.695461" lon="13.6563084"><ele>297.0</ele><time>2026-05-04T12:50:25.079Z</time></trkpt><trkpt lat="41.69553" lon="13.656258"><ele>297.0</ele><time>2026-05-04T12:50:26.079Z</time></trkpt><trkpt lat="41.69558" lon="13.6561915"><ele>297.0</ele><time>2026-05-04T12:50:27.08Z</time></trkpt><trkpt lat="41.6956212" lon="13.6560948"><ele>296.0</ele><time>2026-05-04T12:50:28.079Z</time></trkpt><trkpt lat="41.6956788" lon="13.6560107"><ele>295.0</ele><time>2026-05-04T12:50:29.079Z</time></trkpt><trkpt lat="41.6957599" lon="13.6559536"><ele>294.0</ele><time>2026-05-04T12:50:30.08Z</time></trkpt><trkpt lat="41.6958913" lon="13.6559211"><ele>293.0</ele><time>2026-05-04T12:50:31.08Z</time></trkpt><trkpt lat="41.696065" lon="13.6558837"><ele>292.6666666666667</ele><time>2026-05-04T12:50:32.08Z</time></trkpt><trkpt lat="41.6962572" lon="13.6558482"><ele>292.3333333333333</ele><time>2026-05-04T12:50:33.08Z</time></trkpt><trkpt lat="41.6964464" lon="13.6558077"><ele>292.0</ele><time>2026-05-04T12:50:34.079Z</time></trkpt><trkpt lat="41.6966236" lon="13.6557671"><ele>292.0</ele><time>2026-05-04T12:50:35.08Z</time></trkpt><trkpt lat="41.6967852" lon="13.6557355"><ele>292.0</ele><time>2026-05-04T12:50:36.08Z</time></trkpt><trkpt lat="41.6969316" lon="13.655709"><ele>292.0</ele><time>2026-05-04T12:50:37.08Z</time></trkpt><trkpt lat="41.697066" lon="13.6556808"><ele>292.0</ele><time>2026-05-04T12:50:38.08Z</time></trkpt><trkpt lat="41.6971813" lon="13.6556651"><ele>291.8</ele><time>2026-05-04T12:50:39.08Z</time></trkpt><trkpt lat="41.6972743" lon="13.6556569"><ele>291.6</ele><time>2026-05-04T12:50:40.08Z</time></trkpt><trkpt lat="41.6973469" lon="13.65565"><ele>291.40000000000003</ele><time>2026-05-04T12:50:41.08Z</time></trkpt><trkpt lat="41.6974289" lon="13.6556692"><ele>291.2</ele><time>2026-05-04T12:50:43.08Z</time></trkpt><trkpt lat="41.6974825" lon="13.6557217"><ele>291.0</ele><time>2026-05-04T12:50:49.08Z</time></trkpt><trkpt lat="41.6975062" lon="13.6559007"><ele>291.0</ele><time>2026-05-04T12:50:51.08Z</time></trkpt><trkpt lat="41.6975147" lon="13.6560383"><ele>291.0</ele><time>2026-05-04T12:50:52.08Z</time></trkpt><trkpt lat="41.6975195" lon="13.656166"><ele>291.0</ele><time>2026-05-04T12:50:53.08Z</time></trkpt><trkpt lat="41.6975267" lon="13.6562865"><ele>291.0</ele><time>2026-05-04T12:50:54.079Z</time></trkpt><trkpt lat="41.6975283" lon="13.6563965"><ele>291.0</ele><time>2026-05-04T12:50:55.08Z</time></trkpt><trkpt lat="41.6975326" lon="13.6564911"><ele>291.0</ele><time>2026-05-04T12:50:56.079Z</time></trkpt><trkpt lat="41.6975643" lon="13.6566393"><ele>291.0</ele><time>2026-05-04T12:50:58.079Z</time></trkpt><trkpt lat="41.6976055" lon="13.6567146"><ele>291.0</ele><time>2026-05-04T12:50:59.08Z</time></trkpt><trkpt lat="41.6976542" lon="13.6567838"><ele>291.0</ele><time>2026-05-04T12:51:00.08Z</time></trkpt><trkpt lat="41.6977063" lon="13.6568474"><ele>291.0</ele><time>2026-05-04T12:51:01.08Z</time></trkpt><trkpt lat="41.6977624" lon="13.6569077"><ele>291.0</ele><time>2026-05-04T12:51:02.08Z</time></trkpt><trkpt lat="41.6978165" lon="13.6569642"><ele>291.0</ele><time>2026-05-04T12:51:03.08Z</time></trkpt><trkpt lat="41.6978743" lon="13.6570193"><ele>291.0</ele><time>2026-05-04T12:51:04.079Z</time></trkpt><trkpt lat="41.6979585" lon="13.6570917"><ele>291.0</ele><time>2026-05-04T12:51:06.08Z</time></trkpt><trkpt lat="41.6980171" lon="13.6571368"><ele>291.0</ele><time>2026-05-04T12:51:08.079Z</time></trkpt><trkpt lat="41.6980777" lon="13.6572022"><ele>291.0</ele><time>2026-05-04T12:51:10.08Z</time></trkpt><trkpt lat="41.6981547" lon="13.6572792"><ele>291.0</ele><time>2026-05-04T12:51:12.08Z</time></trkpt><trkpt lat="41.698216" lon="13.6573451"><ele>291.0</ele><time>2026-05-04T12:51:14.08Z</time></trkpt><trkpt lat="41.6982892" lon="13.6574051"><ele>291.0</ele><time>2026-05-04T12:51:16.08Z</time></trkpt><trkpt lat="41.6983603" lon="13.6574758"><ele>291.0</ele><time>2026-05-04T12:51:18.08Z</time></trkpt><trkpt lat="41.6984322" lon="13.6575408"><ele>291.0</ele><time>2026-05-04T12:51:20.079Z</time></trkpt><trkpt lat="41.6985089" lon="13.6576092"><ele>291.0</ele><time>2026-05-04T12:51:22.079Z</time></trkpt><trkpt lat="41.6986063" lon="13.6576864"><ele>291.0</ele><time>2026-05-04T12:51:24.08Z</time></trkpt><trkpt lat="41.6986764" lon="13.6577453"><ele>291.0</ele><time>2026-05-04T12:51:26.08Z</time></trkpt><trkpt lat="41.698745" lon="13.6577859"><ele>292.25</ele><time>2026-05-04T12:51:29.08Z</time></trkpt><trkpt lat="41.6988206" lon="13.6578342"><ele>293.5</ele><time>2026-05-04T12:51:34.079Z</time></trkpt><trkpt lat="41.6988232" lon="13.6580345"><ele>294.75</ele><time>2026-05-04T12:51:36.079Z</time></trkpt><trkpt lat="41.6988012" lon="13.6582379"><ele>296.0</ele><time>2026-05-04T12:51:37.079Z</time></trkpt><trkpt lat="41.6987619" lon="13.6585043"><ele>295.6666666666667</ele><time>2026-05-04T12:51:38.079Z</time></trkpt><trkpt lat="41.6987266" lon="13.6588026"><ele>295.3333333333333</ele><time>2026-05-04T12:51:39.079Z</time></trkpt><trkpt lat="41.6986975" lon="13.6590928"><ele>295.0</ele><time>2026-05-04T12:51:40.08Z</time></trkpt><trkpt lat="41.6986758" lon="13.6593792"><ele>295.0</ele><time>2026-05-04T12:51:41.079Z</time></trkpt><trkpt lat="41.6986806" lon="13.6596676"><ele>295.0</ele><time>2026-05-04T12:51:42.08Z</time></trkpt><trkpt lat="41.6987157" lon="13.659972"><ele>295.0</ele><time>2026-05-04T12:51:43.079Z</time></trkpt><trkpt lat="41.6987835" lon="13.6602838"><ele>295.0</ele><time>2026-05-04T12:51:44.08Z</time></trkpt><trkpt lat="41.6988524" lon="13.6605967"><ele>295.0</ele><time>2026-05-04T12:51:45.079Z</time></trkpt><trkpt lat="41.6988974" lon="13.6609313"><ele>295.5</ele><time>2026-05-04T12:51:46.08Z</time></trkpt><trkpt lat="41.6989137" lon="13.6612835"><ele>296.0</ele><time>2026-05-04T12:51:47.08Z</time></trkpt><trkpt lat="41.698914" lon="13.6616188"><ele>296.0</ele><time>2026-05-04T12:51:48.079Z</time></trkpt><trkpt lat="41.6988978" lon="13.6619122"><ele>296.0</ele><time>2026-05-04T12:51:49.079Z</time></trkpt><trkpt lat="41.6988725" lon="13.6621682"><ele>296.0</ele><time>2026-05-04T12:51:50.08Z</time></trkpt><trkpt lat="41.6988162" lon="13.6624011"><ele>296.6666666666667</ele><time>2026-05-04T12:51:51.079Z</time></trkpt><trkpt lat="41.6987242" lon="13.6626257"><ele>297.3333333333333</ele><time>2026-05-04T12:51:52.08Z</time></trkpt><trkpt lat="41.6986204" lon="13.6628643"><ele>298.0</ele><time>2026-05-04T12:51:53.08Z</time></trkpt><trkpt lat="41.6985138" lon="13.6630871"><ele>296.3333333333333</ele><time>2026-05-04T12:51:54.079Z</time></trkpt><trkpt lat="41.6984128" lon="13.6632907"><ele>294.6666666666667</ele><time>2026-05-04T12:51:55.08Z</time></trkpt><trkpt lat="41.6983015" lon="13.6634855"><ele>293.0</ele><time>2026-05-04T12:51:56.08Z</time></trkpt><trkpt lat="41.6981778" lon="13.6636641"><ele>293.0</ele><time>2026-05-04T12:51:57.08Z</time></trkpt><trkpt lat="41.6980524" lon="13.6638239"><ele>293.0</ele><time>2026-05-04T12:51:58.08Z</time></trkpt><trkpt lat="41.6979352" lon="13.6639747"><ele>293.0</ele><time>2026-05-04T12:51:59.079Z</time></trkpt><trkpt lat="41.6978405" lon="13.6641128"><ele>293.0</ele><time>2026-05-04T12:52:00.08Z</time></trkpt><trkpt lat="41.6977664" lon="13.6642585"><ele>293.0</ele><time>2026-05-04T12:52:01.079Z</time></trkpt><trkpt lat="41.6977044" lon="13.6644117"><ele>293.0</ele><time>2026-05-04T12:52:02.08Z</time></trkpt><trkpt lat="41.6976559" lon="13.6645702"><ele>293.0</ele><time>2026-05-04T12:52:03.08Z</time></trkpt><trkpt lat="41.6976177" lon="13.6647091"><ele>293.0</ele><time>2026-05-04T12:52:04.08Z</time></trkpt><trkpt lat="41.6975838" lon="13.66482"><ele>293.0</ele><time>2026-05-04T12:52:05.08Z</time></trkpt><trkpt lat="41.6975501" lon="13.6649374"><ele>293.0</ele><time>2026-05-04T12:52:07.08Z</time></trkpt><trkpt lat="41.697505" lon="13.6650343"><ele>293.0</ele><time>2026-05-04T12:52:10.08Z</time></trkpt><trkpt lat="41.6974562" lon="13.6650926"><ele>293.0</ele><time>2026-05-04T12:52:11.08Z</time></trkpt><trkpt lat="41.697373" lon="13.6651666"><ele>293.0</ele><time>2026-05-04T12:52:12.079Z</time></trkpt><trkpt lat="41.6972521" lon="13.6652156"><ele>293.0</ele><time>2026-05-04T12:52:13.08Z</time></trkpt><trkpt lat="41.6971034" lon="13.6652487"><ele>293.0</ele><time>2026-05-04T12:52:14.079Z</time></trkpt><trkpt lat="41.6969553" lon="13.6652969"><ele>293.0</ele><time>2026-05-04T12:52:15.079Z</time></trkpt><trkpt lat="41.6968116" lon="13.6653777"><ele>293.0</ele><time>2026-05-04T12:52:16.08Z</time></trkpt><trkpt lat="41.6966715" lon="13.6655346"><ele>293.0</ele><time>2026-05-04T12:52:17.079Z</time></trkpt><trkpt lat="41.6965248" lon="13.6657837"><ele>293.0</ele><time>2026-05-04T12:52:18.079Z</time></trkpt><trkpt lat="41.696363" lon="13.666059"><ele>292.5</ele><time>2026-05-04T12:52:19.08Z</time></trkpt><trkpt lat="41.6961877" lon="13.6663634"><ele>292.0</ele><time>2026-05-04T12:52:20.079Z</time></trkpt><trkpt lat="41.6960011" lon="13.6666864"><ele>291.0</ele><time>2026-05-04T12:52:21.079Z</time></trkpt><trkpt lat="41.6958196" lon="13.6669975"><ele>290.0</ele><time>2026-05-04T12:52:22.08Z</time></trkpt><trkpt lat="41.6956452" lon="13.6673017"><ele>290.0</ele><time>2026-05-04T12:52:23.079Z</time></trkpt><trkpt lat="41.6954786" lon="13.6675897"><ele>290.0</ele><time>2026-05-04T12:52:24.08Z</time></trkpt><trkpt lat="41.6953244" lon="13.6678572"><ele>291.0</ele><time>2026-05-04T12:52:25.079Z</time></trkpt><trkpt lat="41.695176" lon="13.6681185"><ele>292.0</ele><time>2026-05-04T12:52:26.08Z</time></trkpt><trkpt lat="41.6950416" lon="13.6683739"><ele>292.66666666666663</ele><time>2026-05-04T12:52:27.08Z</time></trkpt><trkpt lat="41.6949274" lon="13.668629"><ele>293.3333333333333</ele><time>2026-05-04T12:52:28.08Z</time></trkpt><trkpt lat="41.6948435" lon="13.6689003"><ele>294.0</ele><time>2026-05-04T12:52:29.08Z</time></trkpt><trkpt lat="41.6947741" lon="13.6691909"><ele>293.5</ele><time>2026-05-04T12:52:30.079Z</time></trkpt><trkpt lat="41.6947361" lon="13.6695204"><ele>293.0</ele><time>2026-05-04T12:52:31.08Z</time></trkpt><trkpt lat="41.694704" lon="13.6698767"><ele>293.0</ele><time>2026-05-04T12:52:32.079Z</time></trkpt><trkpt lat="41.6946713" lon="13.6702458"><ele>293.0</ele><time>2026-05-04T12:52:33.079Z</time></trkpt><trkpt lat="41.6946404" lon="13.6706167"><ele>293.0</ele><time>2026-05-04T12:52:34.079Z</time></trkpt><trkpt lat="41.694611" lon="13.6709968"><ele>293.0</ele><time>2026-05-04T12:52:35.079Z</time></trkpt><trkpt lat="41.6945795" lon="13.6713736"><ele>292.5</ele><time>2026-05-04T12:52:36.079Z</time></trkpt><trkpt lat="41.6945468" lon="13.6717551"><ele>292.0</ele><time>2026-05-04T12:52:37.08Z</time></trkpt><trkpt lat="41.6945108" lon="13.6721321"><ele>294.5</ele><time>2026-05-04T12:52:38.08Z</time></trkpt><trkpt lat="41.6944632" lon="13.6725185"><ele>297.0</ele><time>2026-05-04T12:52:39.08Z</time></trkpt><trkpt lat="41.6943993" lon="13.6729022"><ele>297.0</ele><time>2026-05-04T12:52:40.08Z</time></trkpt><trkpt lat="41.6943118" lon="13.6732727"><ele>297.0</ele><time>2026-05-04T12:52:41.079Z</time></trkpt><trkpt lat="41.6942188" lon="13.6736379"><ele>298.5</ele><time>2026-05-04T12:52:42.079Z</time></trkpt><trkpt lat="41.6941134" lon="13.6740041"><ele>300.0</ele><time>2026-05-04T12:52:43.079Z</time></trkpt><trkpt lat="41.694001" lon="13.6743556"><ele>302.5</ele><time>2026-05-04T12:52:44.079Z</time></trkpt><trkpt lat="41.6938869" lon="13.6747027"><ele>305.0</ele><time>2026-05-04T12:52:45.08Z</time></trkpt><trkpt lat="41.6937704" lon="13.6750448"><ele>306.0</ele><time>2026-05-04T12:52:46.08Z</time></trkpt><trkpt lat="41.6936611" lon="13.6753765"><ele>307.0</ele><time>2026-05-04T12:52:47.079Z</time></trkpt><trkpt lat="41.6935545" lon="13.675693"><ele>309.0</ele><time>2026-05-04T12:52:48.079Z</time></trkpt><trkpt lat="41.6934561" lon="13.676005"><ele>311.0</ele><time>2026-05-04T12:52:49.08Z</time></trkpt><trkpt lat="41.6933602" lon="13.6763167"><ele>311.5</ele><time>2026-05-04T12:52:50.079Z</time></trkpt><trkpt lat="41.6932663" lon="13.676637"><ele>312.0</ele><time>2026-05-04T12:52:51.08Z</time></trkpt><trkpt lat="41.6931659" lon="13.6769724"><ele>312.5</ele><time>2026-05-04T12:52:52.079Z</time></trkpt><trkpt lat="41.6930673" lon="13.6773163"><ele>313.0</ele><time>2026-05-04T12:52:53.08Z</time></trkpt><trkpt lat="41.6929677" lon="13.6776608"><ele>312.0</ele><time>2026-05-04T12:52:54.08Z</time></trkpt><trkpt lat="41.692872" lon="13.6780096"><ele>311.0</ele><time>2026-05-04T12:52:55.08Z</time></trkpt><trkpt lat="41.6927781" lon="13.6783547"><ele>314.5</ele><time>2026-05-04T12:52:56.08Z</time></trkpt><trkpt lat="41.6926861" lon="13.6786853"><ele>318.0</ele><time>2026-05-04T12:52:57.08Z</time></trkpt><trkpt lat="41.6925927" lon="13.6789978"><ele>318.0</ele><time>2026-05-04T12:52:58.08Z</time></trkpt><trkpt lat="41.6924964" lon="13.6792982"><ele>318.0</ele><time>2026-05-04T12:52:59.079Z</time></trkpt><trkpt lat="41.6923881" lon="13.6795877"><ele>318.5</ele><time>2026-05-04T12:53:00.079Z</time></trkpt><trkpt lat="41.6922492" lon="13.6798725"><ele>319.0</ele><time>2026-05-04T12:53:01.08Z</time></trkpt><trkpt lat="41.6920775" lon="13.6801486"><ele>318.0</ele><time>2026-05-04T12:53:02.079Z</time></trkpt><trkpt lat="41.6918872" lon="13.6804179"><ele>317.0</ele><time>2026-05-04T12:53:03.08Z</time></trkpt><trkpt lat="41.6916893" lon="13.6806943"><ele>317.0</ele><time>2026-05-04T12:53:04.079Z</time></trkpt><trkpt lat="41.6914854" lon="13.6809771"><ele>317.0</ele><time>2026-05-04T12:53:05.08Z</time></trkpt><trkpt lat="41.6912791" lon="13.6812682"><ele>316.0</ele><time>2026-05-04T12:53:06.08Z</time></trkpt><trkpt lat="41.6910771" lon="13.6815551"><ele>315.0</ele><time>2026-05-04T12:53:07.079Z</time></trkpt><trkpt lat="41.690884" lon="13.6818422"><ele>315.0</ele><time>2026-05-04T12:53:08.08Z</time></trkpt><trkpt lat="41.6906965" lon="13.6821183"><ele>315.0</ele><time>2026-05-04T12:53:09.079Z</time></trkpt><trkpt lat="41.6905103" lon="13.6823871"><ele>315.0</ele><time>2026-05-04T12:53:10.079Z</time></trkpt><trkpt lat="41.690324" lon="13.6826564"><ele>315.0</ele><time>2026-05-04T12:53:11.08Z</time></trkpt><trkpt lat="41.6901425" lon="13.682921"><ele>317.5</ele><time>2026-05-04T12:53:12.079Z</time></trkpt><trkpt lat="41.6899567" lon="13.6831887"><ele>320.0</ele><time>2026-05-04T12:53:13.079Z</time></trkpt><trkpt lat="41.6897745" lon="13.6834542"><ele>320.0</ele><time>2026-05-04T12:53:14.08Z</time></trkpt><trkpt lat="41.6895943" lon="13.683721"><ele>320.0</ele><time>2026-05-04T12:53:15.079Z</time></trkpt><trkpt lat="41.6894095" lon="13.6839937"><ele>321.5</ele><time>2026-05-04T12:53:16.079Z</time></trkpt><trkpt lat="41.6892268" lon="13.6842646"><ele>323.0</ele><time>2026-05-04T12:53:17.079Z</time></trkpt><trkpt lat="41.6890423" lon="13.6845408"><ele>323.0</ele><time>2026-05-04T12:53:18.079Z</time></trkpt><trkpt lat="41.6888569" lon="13.684817"><ele>323.0</ele><time>2026-05-04T12:53:19.08Z</time></trkpt><trkpt lat="41.6886697" lon="13.685096"><ele>323.5</ele><time>2026-05-04T12:53:20.08Z</time></trkpt><trkpt lat="41.6884824" lon="13.6853745"><ele>324.0</ele><time>2026-05-04T12:53:21.079Z</time></trkpt><trkpt lat="41.6883002" lon="13.6856471"><ele>324.0</ele><time>2026-05-04T12:53:22.08Z</time></trkpt><trkpt lat="41.6881267" lon="13.6859081"><ele>324.0</ele><time>2026-05-04T12:53:23.08Z</time></trkpt><trkpt lat="41.6879523" lon="13.686166"><ele>324.5</ele><time>2026-05-04T12:53:24.08Z</time></trkpt><trkpt lat="41.6877794" lon="13.6864161"><ele>325.0</ele><time>2026-05-04T12:53:25.08Z</time></trkpt><trkpt lat="41.6876037" lon="13.6866591"><ele>325.0</ele><time>2026-05-04T12:53:26.08Z</time></trkpt><trkpt lat="41.6874202" lon="13.6868705"><ele>325.0</ele><time>2026-05-04T12:53:27.08Z</time></trkpt><trkpt lat="41.6872202" lon="13.6870589"><ele>324.5</ele><time>2026-05-04T12:53:28.079Z</time></trkpt><trkpt lat="41.687004" lon="13.6872243"><ele>324.0</ele><time>2026-05-04T12:53:29.079Z</time></trkpt><trkpt lat="41.6867769" lon="13.6873906"><ele>324.0</ele><time>2026-05-04T12:53:30.08Z</time></trkpt><trkpt lat="41.6865433" lon="13.6875719"><ele>324.0</ele><time>2026-05-04T12:53:31.08Z</time></trkpt><trkpt lat="41.6862992" lon="13.6877602"><ele>322.5</ele><time>2026-05-04T12:53:32.079Z</time></trkpt><trkpt lat="41.686067" lon="13.6879402"><ele>321.0</ele><time>2026-05-04T12:53:33.079Z</time></trkpt><trkpt lat="41.6858557" lon="13.6880905"><ele>321.0</ele><time>2026-05-04T12:53:34.079Z</time></trkpt><trkpt lat="41.6856648" lon="13.688222"><ele>321.0</ele><time>2026-05-04T12:53:35.08Z</time></trkpt><trkpt lat="41.6854961" lon="13.6883565"><ele>321.0</ele><time>2026-05-04T12:53:36.08Z</time></trkpt><trkpt lat="41.6853458" lon="13.6885031"><ele>321.0</ele><time>2026-05-04T12:53:37.079Z</time></trkpt><trkpt lat="41.685216" lon="13.688676"><ele>321.0</ele><time>2026-05-04T12:53:38.08Z</time></trkpt><trkpt lat="41.6851108" lon="13.6888892"><ele>321.0</ele><time>2026-05-04T12:53:39.08Z</time></trkpt><trkpt lat="41.6850454" lon="13.6891409"><ele>321.5</ele><time>2026-05-04T12:53:40.079Z</time></trkpt><trkpt lat="41.6849913" lon="13.6894274"><ele>322.0</ele><time>2026-05-04T12:53:41.08Z</time></trkpt><trkpt lat="41.6849448" lon="13.6897399"><ele>322.0</ele><time>2026-05-04T12:53:42.079Z</time></trkpt><trkpt lat="41.6848915" lon="13.6900603"><ele>322.0</ele><time>2026-05-04T12:53:43.079Z</time></trkpt><trkpt lat="41.6848386" lon="13.6903804"><ele>322.66666666666663</ele><time>2026-05-04T12:53:44.08Z</time></trkpt><trkpt lat="41.684785" lon="13.6906823"><ele>323.3333333333333</ele><time>2026-05-04T12:53:45.08Z</time></trkpt><trkpt lat="41.684719" lon="13.6909575"><ele>324.0</ele><time>2026-05-04T12:53:46.08Z</time></trkpt><trkpt lat="41.6846183" lon="13.6912016"><ele>324.5</ele><time>2026-05-04T12:53:47.079Z</time></trkpt><trkpt lat="41.6844904" lon="13.6914552"><ele>325.0</ele><time>2026-05-04T12:53:48.08Z</time></trkpt><trkpt lat="41.6843402" lon="13.6917251"><ele>325.5</ele><time>2026-05-04T12:53:49.079Z</time></trkpt><trkpt lat="41.6841839" lon="13.6920068"><ele>326.0</ele><time>2026-05-04T12:53:50.079Z</time></trkpt><trkpt lat="41.6840233" lon="13.6922993"><ele>326.0</ele><time>2026-05-04T12:53:51.079Z</time></trkpt><trkpt lat="41.6838584" lon="13.6925948"><ele>326.0</ele><time>2026-05-04T12:53:52.08Z</time></trkpt><trkpt lat="41.6836899" lon="13.6929058"><ele>327.5</ele><time>2026-05-04T12:53:53.08Z</time></trkpt><trkpt lat="41.6835096" lon="13.6932333"><ele>329.0</ele><time>2026-05-04T12:53:54.079Z</time></trkpt><trkpt lat="41.6833275" lon="13.6935601"><ele>328.5</ele><time>2026-05-04T12:53:55.079Z</time></trkpt><trkpt lat="41.6831465" lon="13.6938783"><ele>328.0</ele><time>2026-05-04T12:53:56.08Z</time></trkpt><trkpt lat="41.682971" lon="13.6942001"><ele>329.0</ele><time>2026-05-04T12:53:57.079Z</time></trkpt><trkpt lat="41.6827954" lon="13.6945142"><ele>330.0</ele><time>2026-05-04T12:53:58.08Z</time></trkpt><trkpt lat="41.6826242" lon="13.694815"><ele>331.5</ele><time>2026-05-04T12:53:59.079Z</time></trkpt><trkpt lat="41.6824581" lon="13.6951161"><ele>333.0</ele><time>2026-05-04T12:54:00.078Z</time></trkpt><trkpt lat="41.682298" lon="13.6954106"><ele>333.5</ele><time>2026-05-04T12:54:01.078Z</time></trkpt><trkpt lat="41.6821364" lon="13.695701"><ele>334.0</ele><time>2026-05-04T12:54:02.079Z</time></trkpt><trkpt lat="41.6819764" lon="13.6959927"><ele>336.5</ele><time>2026-05-04T12:54:03.079Z</time></trkpt><trkpt lat="41.6818114" lon="13.6962892"><ele>339.0</ele><time>2026-05-04T12:54:04.078Z</time></trkpt><trkpt lat="41.6816492" lon="13.6965852"><ele>339.0</ele><time>2026-05-04T12:54:05.079Z</time></trkpt><trkpt lat="41.6814884" lon="13.6968812"><ele>339.0</ele><time>2026-05-04T12:54:06.079Z</time></trkpt><trkpt lat="41.6813257" lon="13.6971779"><ele>342.0</ele><time>2026-05-04T12:54:07.079Z</time></trkpt><trkpt lat="41.6811673" lon="13.6974709"><ele>345.0</ele><time>2026-05-04T12:54:08.079Z</time></trkpt><trkpt lat="41.6810105" lon="13.6977521"><ele>346.5</ele><time>2026-05-04T12:54:09.078Z</time></trkpt><trkpt lat="41.6808562" lon="13.6980247"><ele>348.0</ele><time>2026-05-04T12:54:10.078Z</time></trkpt><trkpt lat="41.6807023" lon="13.6982932"><ele>348.0</ele><time>2026-05-04T12:54:11.078Z</time></trkpt><trkpt lat="41.6805473" lon="13.6985651"><ele>348.0</ele><time>2026-05-04T12:54:12.078Z</time></trkpt><trkpt lat="41.6803961" lon="13.6988355"><ele>353.5</ele><time>2026-05-04T12:54:13.079Z</time></trkpt><trkpt lat="41.6802485" lon="13.6991021"><ele>359.0</ele><time>2026-05-04T12:54:14.079Z</time></trkpt><trkpt lat="41.6801086" lon="13.6993556"><ele>357.0</ele><time>2026-05-04T12:54:15.078Z</time></trkpt><trkpt lat="41.6799716" lon="13.6996073"><ele>355.0</ele><time>2026-05-04T12:54:16.078Z</time></trkpt><trkpt lat="41.6798345" lon="13.6998643"><ele>355.0</ele><time>2026-05-04T12:54:17.078Z</time></trkpt><trkpt lat="41.6796908" lon="13.7001239"><ele>355.0</ele><time>2026-05-04T12:54:18.079Z</time></trkpt><trkpt lat="41.6795442" lon="13.7003848"><ele>360.5</ele><time>2026-05-04T12:54:19.079Z</time></trkpt><trkpt lat="41.6793931" lon="13.7006483"><ele>366.0</ele><time>2026-05-04T12:54:20.078Z</time></trkpt><trkpt lat="41.6792484" lon="13.7009138"><ele>366.0</ele><time>2026-05-04T12:54:21.079Z</time></trkpt><trkpt lat="41.6791008" lon="13.7011808"><ele>366.0</ele><time>2026-05-04T12:54:22.078Z</time></trkpt><trkpt lat="41.6789613" lon="13.7014441"><ele>366.0</ele><time>2026-05-04T12:54:23.079Z</time></trkpt><trkpt lat="41.6788237" lon="13.7016892"><ele>366.0</ele><time>2026-05-04T12:54:24.079Z</time></trkpt><trkpt lat="41.6786916" lon="13.7019244"><ele>366.0</ele><time>2026-05-04T12:54:25.079Z</time></trkpt><trkpt lat="41.6785661" lon="13.7021516"><ele>369.0</ele><time>2026-05-04T12:54:26.078Z</time></trkpt><trkpt lat="41.6784474" lon="13.7023675"><ele>372.0</ele><time>2026-05-04T12:54:27.079Z</time></trkpt><trkpt lat="41.6783286" lon="13.7025763"><ele>375.0</ele><time>2026-05-04T12:54:28.079Z</time></trkpt><trkpt lat="41.6782133" lon="13.702786"><ele>376.6666666666667</ele><time>2026-05-04T12:54:29.078Z</time></trkpt><trkpt lat="41.6781011" lon="13.7030039"><ele>378.33333333333337</ele><time>2026-05-04T12:54:30.079Z</time></trkpt><trkpt lat="41.6779794" lon="13.703237"><ele>380.0</ele><time>2026-05-04T12:54:31.078Z</time></trkpt><trkpt lat="41.677851" lon="13.7034819"><ele>381.0</ele><time>2026-05-04T12:54:32.078Z</time></trkpt><trkpt lat="41.6777116" lon="13.7037419"><ele>382.0</ele><time>2026-05-04T12:54:33.079Z</time></trkpt><trkpt lat="41.677565" lon="13.7040115"><ele>382.0</ele><time>2026-05-04T12:54:34.079Z</time></trkpt><trkpt lat="41.6774111" lon="13.7042969"><ele>382.0</ele><time>2026-05-04T12:54:35.078Z</time></trkpt><trkpt lat="41.6772462" lon="13.7045882"><ele>383.0</ele><time>2026-05-04T12:54:36.079Z</time></trkpt><trkpt lat="41.6770847" lon="13.7048695"><ele>384.0</ele><time>2026-05-04T12:54:37.078Z</time></trkpt><trkpt lat="41.6769341" lon="13.7051417"><ele>386.5</ele><time>2026-05-04T12:54:38.078Z</time></trkpt><trkpt lat="41.6767945" lon="13.7054013"><ele>389.0</ele><time>2026-05-04T12:54:39.078Z</time></trkpt><trkpt lat="41.6766639" lon="13.7056373"><ele>389.0</ele><time>2026-05-04T12:54:40.079Z</time></trkpt><trkpt lat="41.6765324" lon="13.7058662"><ele>389.0</ele><time>2026-05-04T12:54:41.078Z</time></trkpt><trkpt lat="41.6763975" lon="13.706105"><ele>389.0</ele><time>2026-05-04T12:54:42.078Z</time></trkpt><trkpt lat="41.6762619" lon="13.7063485"><ele>388.5</ele><time>2026-05-04T12:54:43.078Z</time></trkpt><trkpt lat="41.6761236" lon="13.7065981"><ele>388.0</ele><time>2026-05-04T12:54:44.079Z</time></trkpt><trkpt lat="41.6759826" lon="13.7068471"><ele>388.0</ele><time>2026-05-04T12:54:45.078Z</time></trkpt><trkpt lat="41.6758408" lon="13.7070938"><ele>388.0</ele><time>2026-05-04T12:54:46.078Z</time></trkpt><trkpt lat="41.6757004" lon="13.7073452"><ele>388.0</ele><time>2026-05-04T12:54:47.078Z</time></trkpt><trkpt lat="41.6755533" lon="13.7076025"><ele>388.0</ele><time>2026-05-04T12:54:48.078Z</time></trkpt><trkpt lat="41.6754051" lon="13.7078687"><ele>384.5</ele><time>2026-05-04T12:54:49.078Z</time></trkpt><trkpt lat="41.6752544" lon="13.7081399"><ele>381.0</ele><time>2026-05-04T12:54:50.079Z</time></trkpt><trkpt lat="41.6750977" lon="13.7084184"><ele>379.0</ele><time>2026-05-04T12:54:51.079Z</time></trkpt><trkpt lat="41.674942" lon="13.7086991"><ele>377.0</ele><time>2026-05-04T12:54:52.078Z</time></trkpt><trkpt lat="41.6747859" lon="13.7089808"><ele>377.0</ele><time>2026-05-04T12:54:53.079Z</time></trkpt><trkpt lat="41.6746297" lon="13.7092558"><ele>377.0</ele><time>2026-05-04T12:54:54.078Z</time></trkpt><trkpt lat="41.6744709" lon="13.7095311"><ele>376.5</ele><time>2026-05-04T12:54:55.079Z</time></trkpt><trkpt lat="41.6743197" lon="13.7097984"><ele>376.0</ele><time>2026-05-04T12:54:56.079Z</time></trkpt><trkpt lat="41.6741775" lon="13.7100515"><ele>374.0</ele><time>2026-05-04T12:54:57.079Z</time></trkpt><trkpt lat="41.6740464" lon="13.7102813"><ele>372.0</ele><time>2026-05-04T12:54:58.078Z</time></trkpt><trkpt lat="41.673927" lon="13.710499"><ele>370.0</ele><time>2026-05-04T12:54:59.078Z</time></trkpt><trkpt lat="41.6738172" lon="13.7106895"><ele>370.0</ele><time>2026-05-04T12:55:00.079Z</time></trkpt><trkpt lat="41.6737234" lon="13.7108585"><ele>370.0</ele><time>2026-05-04T12:55:01.078Z</time></trkpt><trkpt lat="41.6736333" lon="13.7110173"><ele>370.0</ele><time>2026-05-04T12:55:02.079Z</time></trkpt><trkpt lat="41.673547" lon="13.7111851"><ele>369.3333333333333</ele><time>2026-05-04T12:55:03.078Z</time></trkpt><trkpt lat="41.6734641" lon="13.7113836"><ele>368.6666666666667</ele><time>2026-05-04T12:55:04.078Z</time></trkpt><trkpt lat="41.6733792" lon="13.71162"><ele>368.0</ele><time>2026-05-04T12:55:05.079Z</time></trkpt><trkpt lat="41.6732855" lon="13.7118749"><ele>364.0</ele><time>2026-05-04T12:55:06.078Z</time></trkpt><trkpt lat="41.6731808" lon="13.712154"><ele>360.0</ele><time>2026-05-04T12:55:07.078Z</time></trkpt><trkpt lat="41.6730609" lon="13.7124565"><ele>358.5</ele><time>2026-05-04T12:55:08.078Z</time></trkpt><trkpt lat="41.6729342" lon="13.712786"><ele>357.0</ele><time>2026-05-04T12:55:09.079Z</time></trkpt><trkpt lat="41.6727953" lon="13.7131426"><ele>357.0</ele><time>2026-05-04T12:55:10.078Z</time></trkpt><trkpt lat="41.6726549" lon="13.7135197"><ele>357.0</ele><time>2026-05-04T12:55:11.079Z</time></trkpt><trkpt lat="41.6725083" lon="13.7139184"><ele>356.5</ele><time>2026-05-04T12:55:12.078Z</time></trkpt><trkpt lat="41.6723672" lon="13.7143036"><ele>356.0</ele><time>2026-05-04T12:55:13.078Z</time></trkpt><trkpt lat="41.6722421" lon="13.7146609"><ele>355.6666666666667</ele><time>2026-05-04T12:55:14.079Z</time></trkpt><trkpt lat="41.6721346" lon="13.7149447"><ele>355.3333333333333</ele><time>2026-05-04T12:55:15.079Z</time></trkpt><trkpt lat="41.6720626" lon="13.7152"><ele>355.0</ele><time>2026-05-04T12:55:16.079Z</time></trkpt><trkpt lat="41.6720092" lon="13.715445"><ele>354.3333333333333</ele><time>2026-05-04T12:55:17.079Z</time></trkpt><trkpt lat="41.6719892" lon="13.7157007"><ele>353.6666666666667</ele><time>2026-05-04T12:55:18.079Z</time></trkpt><trkpt lat="41.6720054" lon="13.715982"><ele>353.0</ele><time>2026-05-04T12:55:19.079Z</time></trkpt><trkpt lat="41.672053" lon="13.7162783"><ele>353.0</ele><time>2026-05-04T12:55:20.079Z</time></trkpt><trkpt lat="41.6721275" lon="13.7165993"><ele>353.0</ele><time>2026-05-04T12:55:21.079Z</time></trkpt><trkpt lat="41.672219" lon="13.7169517"><ele>352.0</ele><time>2026-05-04T12:55:22.079Z</time></trkpt><trkpt lat="41.6723067" lon="13.7173303"><ele>351.0</ele><time>2026-05-04T12:55:23.078Z</time></trkpt><trkpt lat="41.6724033" lon="13.7177286"><ele>350.0</ele><time>2026-05-04T12:55:24.078Z</time></trkpt><trkpt lat="41.6724985" lon="13.7181496"><ele>349.0</ele><time>2026-05-04T12:55:25.078Z</time></trkpt><trkpt lat="41.6725928" lon="13.7185665"><ele>347.5</ele><time>2026-05-04T12:55:26.078Z</time></trkpt><trkpt lat="41.6726784" lon="13.7189619"><ele>346.0</ele><time>2026-05-04T12:55:27.078Z</time></trkpt><trkpt lat="41.6727631" lon="13.7193193"><ele>347.0</ele><time>2026-05-04T12:55:28.078Z</time></trkpt><trkpt lat="41.6728426" lon="13.7196527"><ele>348.0</ele><time>2026-05-04T12:55:29.078Z</time></trkpt><trkpt lat="41.6729194" lon="13.7199855"><ele>348.5</ele><time>2026-05-04T12:55:30.078Z</time></trkpt><trkpt lat="41.6729977" lon="13.7203131"><ele>349.0</ele><time>2026-05-04T12:55:31.079Z</time></trkpt><trkpt lat="41.6730676" lon="13.7206207"><ele>349.0</ele><time>2026-05-04T12:55:32.079Z</time></trkpt><trkpt lat="41.6731345" lon="13.7209167"><ele>349.0</ele><time>2026-05-04T12:55:33.078Z</time></trkpt><trkpt lat="41.6732031" lon="13.7211901"><ele>349.0</ele><time>2026-05-04T12:55:34.078Z</time></trkpt><trkpt lat="41.6732694" lon="13.7214507"><ele>349.3333333333333</ele><time>2026-05-04T12:55:35.078Z</time></trkpt><trkpt lat="41.6733281" lon="13.7217021"><ele>349.6666666666667</ele><time>2026-05-04T12:55:36.079Z</time></trkpt><trkpt lat="41.6733767" lon="13.7219486"><ele>350.0</ele><time>2026-05-04T12:55:37.079Z</time></trkpt><trkpt lat="41.6734009" lon="13.7221843"><ele>350.0</ele><time>2026-05-04T12:55:38.078Z</time></trkpt><trkpt lat="41.6734011" lon="13.7224019"><ele>350.0</ele><time>2026-05-04T12:55:39.079Z</time></trkpt><trkpt lat="41.6733671" lon="13.7226153"><ele>350.0</ele><time>2026-05-04T12:55:40.079Z</time></trkpt><trkpt lat="41.6733094" lon="13.7228359"><ele>350.0</ele><time>2026-05-04T12:55:41.078Z</time></trkpt><trkpt lat="41.6732283" lon="13.7230551"><ele>350.0</ele><time>2026-05-04T12:55:42.079Z</time></trkpt><trkpt lat="41.6731482" lon="13.723254"><ele>350.0</ele><time>2026-05-04T12:55:43.079Z</time></trkpt><trkpt lat="41.6730808" lon="13.7234046"><ele>350.0</ele><time>2026-05-04T12:55:44.079Z</time></trkpt><trkpt lat="41.6730283" lon="13.7235128"><ele>350.0</ele><time>2026-05-04T12:55:45.079Z</time></trkpt><trkpt lat="41.6729818" lon="13.7235874"><ele>350.0</ele><time>2026-05-04T12:55:46.079Z</time></trkpt><trkpt lat="41.6729425" lon="13.7236562"><ele>350.0</ele><time>2026-05-04T12:55:47.079Z</time></trkpt><trkpt lat="41.6728751" lon="13.7237838"><ele>350.0</ele><time>2026-05-04T12:55:49.079Z</time></trkpt><trkpt lat="41.6728309" lon="13.7239018"><ele>350.0</ele><time>2026-05-04T12:55:50.078Z</time></trkpt><trkpt lat="41.672768" lon="13.7240662"><ele>348.6666666666667</ele><time>2026-05-04T12:55:51.078Z</time></trkpt><trkpt lat="41.6726983" lon="13.7242394"><ele>347.3333333333333</ele><time>2026-05-04T12:55:52.078Z</time></trkpt><trkpt lat="41.672621" lon="13.7244358"><ele>346.0</ele><time>2026-05-04T12:55:53.079Z</time></trkpt><trkpt lat="41.6725248" lon="13.7246455"><ele>345.5</ele><time>2026-05-04T12:55:54.079Z</time></trkpt><trkpt lat="41.6724065" lon="13.7248843"><ele>345.0</ele><time>2026-05-04T12:55:55.079Z</time></trkpt><trkpt lat="41.6722596" lon="13.7251379"><ele>345.0</ele><time>2026-05-04T12:55:56.078Z</time></trkpt><trkpt lat="41.6720908" lon="13.7254026"><ele>345.0</ele><time>2026-05-04T12:55:57.079Z</time></trkpt><trkpt lat="41.6719001" lon="13.7256808"><ele>345.0</ele><time>2026-05-04T12:55:58.079Z</time></trkpt><trkpt lat="41.6717053" lon="13.7259487"><ele>345.0</ele><time>2026-05-04T12:55:59.079Z</time></trkpt><trkpt lat="41.6715085" lon="13.726189"><ele>345.0</ele><time>2026-05-04T12:56:00.078Z</time></trkpt><trkpt lat="41.6713018" lon="13.7264009"><ele>345.0</ele><time>2026-05-04T12:56:01.079Z</time></trkpt><trkpt lat="41.6710718" lon="13.7266047"><ele>345.0</ele><time>2026-05-04T12:56:02.078Z</time></trkpt><trkpt lat="41.6708242" lon="13.7268213"><ele>345.0</ele><time>2026-05-04T12:56:03.079Z</time></trkpt><trkpt lat="41.6705594" lon="13.7270551"><ele>345.0</ele><time>2026-05-04T12:56:04.078Z</time></trkpt><trkpt lat="41.6702794" lon="13.7272965"><ele>345.0</ele><time>2026-05-04T12:56:05.078Z</time></trkpt><trkpt lat="41.6699857" lon="13.727557"><ele>344.5</ele><time>2026-05-04T12:56:06.079Z</time></trkpt><trkpt lat="41.6696907" lon="13.7278202"><ele>344.0</ele><time>2026-05-04T12:56:07.078Z</time></trkpt><trkpt lat="41.6694135" lon="13.7280683"><ele>343.0</ele><time>2026-05-04T12:56:08.079Z</time></trkpt><trkpt lat="41.6691653" lon="13.728284"><ele>342.0</ele><time>2026-05-04T12:56:09.079Z</time></trkpt><trkpt lat="41.6689255" lon="13.7284944"><ele>342.5</ele><time>2026-05-04T12:56:10.078Z</time></trkpt><trkpt lat="41.6687045" lon="13.7286973"><ele>343.0</ele><time>2026-05-04T12:56:11.079Z</time></trkpt><trkpt lat="41.6684898" lon="13.7288842"><ele>343.0</ele><time>2026-05-04T12:56:12.078Z</time></trkpt><trkpt lat="41.6682839" lon="13.7290683"><ele>343.0</ele><time>2026-05-04T12:56:13.078Z</time></trkpt><trkpt lat="41.6680789" lon="13.7292467"><ele>343.0</ele><time>2026-05-04T12:56:14.078Z</time></trkpt><trkpt lat="41.6678706" lon="13.7294286"><ele>343.0</ele><time>2026-05-04T12:56:15.078Z</time></trkpt><trkpt lat="41.6676592" lon="13.7296194"><ele>341.5</ele><time>2026-05-04T12:56:16.078Z</time></trkpt><trkpt lat="41.6674377" lon="13.7298196"><ele>340.0</ele><time>2026-05-04T12:56:17.078Z</time></trkpt><trkpt lat="41.6672112" lon="13.7300203"><ele>340.0</ele><time>2026-05-04T12:56:18.079Z</time></trkpt><trkpt lat="41.6669828" lon="13.7302237"><ele>340.0</ele><time>2026-05-04T12:56:19.078Z</time></trkpt><trkpt lat="41.6667505" lon="13.7304274"><ele>340.5</ele><time>2026-05-04T12:56:20.078Z</time></trkpt><trkpt lat="41.6665222" lon="13.7306324"><ele>341.0</ele><time>2026-05-04T12:56:21.078Z</time></trkpt><trkpt lat="41.6663001" lon="13.7308292"><ele>341.0</ele><time>2026-05-04T12:56:22.079Z</time></trkpt><trkpt lat="41.6660823" lon="13.7310226"><ele>341.0</ele><time>2026-05-04T12:56:23.078Z</time></trkpt><trkpt lat="41.6658636" lon="13.7312142"><ele>341.5</ele><time>2026-05-04T12:56:24.078Z</time></trkpt><trkpt lat="41.6656495" lon="13.7314031"><ele>342.0</ele><time>2026-05-04T12:56:25.079Z</time></trkpt><trkpt lat="41.6654314" lon="13.7315963"><ele>341.0</ele><time>2026-05-04T12:56:26.078Z</time></trkpt><trkpt lat="41.6652113" lon="13.7317897"><ele>340.0</ele><time>2026-05-04T12:56:27.079Z</time></trkpt><trkpt lat="41.6649892" lon="13.7319905"><ele>340.0</ele><time>2026-05-04T12:56:28.079Z</time></trkpt><trkpt lat="41.6647753" lon="13.7321922"><ele>340.0</ele><time>2026-05-04T12:56:29.078Z</time></trkpt><trkpt lat="41.6645696" lon="13.7323943"><ele>339.5</ele><time>2026-05-04T12:56:30.079Z</time></trkpt><trkpt lat="41.6643707" lon="13.7325969"><ele>339.0</ele><time>2026-05-04T12:56:31.079Z</time></trkpt><trkpt lat="41.6641752" lon="13.7327982"><ele>340.0</ele><time>2026-05-04T12:56:32.079Z</time></trkpt><trkpt lat="41.6639755" lon="13.7330033"><ele>341.0</ele><time>2026-05-04T12:56:33.078Z</time></trkpt><trkpt lat="41.6637725" lon="13.7332044"><ele>341.0</ele><time>2026-05-04T12:56:34.079Z</time></trkpt><trkpt lat="41.663569" lon="13.7333994"><ele>341.0</ele><time>2026-05-04T12:56:35.079Z</time></trkpt><trkpt lat="41.6633638" lon="13.7335994"><ele>340.5</ele><time>2026-05-04T12:56:36.078Z</time></trkpt><trkpt lat="41.6631514" lon="13.7337901"><ele>340.0</ele><time>2026-05-04T12:56:37.079Z</time></trkpt><trkpt lat="41.6629322" lon="13.733974"><ele>339.0</ele><time>2026-05-04T12:56:38.078Z</time></trkpt><trkpt lat="41.6627122" lon="13.734162"><ele>338.0</ele><time>2026-05-04T12:56:39.079Z</time></trkpt><trkpt lat="41.6624927" lon="13.7343465"><ele>338.0</ele><time>2026-05-04T12:56:40.079Z</time></trkpt><trkpt lat="41.6622747" lon="13.7345305"><ele>338.0</ele><time>2026-05-04T12:56:41.078Z</time></trkpt><trkpt lat="41.6620635" lon="13.7347089"><ele>338.0</ele><time>2026-05-04T12:56:42.079Z</time></trkpt><trkpt lat="41.6618587" lon="13.7348842"><ele>338.0</ele><time>2026-05-04T12:56:43.078Z</time></trkpt><trkpt lat="41.6616556" lon="13.7350595"><ele>338.5</ele><time>2026-05-04T12:56:44.079Z</time></trkpt><trkpt lat="41.6614516" lon="13.735241"><ele>339.0</ele><time>2026-05-04T12:56:45.079Z</time></trkpt><trkpt lat="41.6612516" lon="13.7354166"><ele>339.0</ele><time>2026-05-04T12:56:46.079Z</time></trkpt><trkpt lat="41.6610762" lon="13.7355712"><ele>339.0</ele><time>2026-05-04T12:56:47.079Z</time></trkpt><trkpt lat="41.6609237" lon="13.7357058"><ele>339.0</ele><time>2026-05-04T12:56:48.079Z</time></trkpt><trkpt lat="41.6607968" lon="13.7358195"><ele>339.0</ele><time>2026-05-04T12:56:49.079Z</time></trkpt><trkpt lat="41.6606836" lon="13.7359125"><ele>339.0</ele><time>2026-05-04T12:56:50.079Z</time></trkpt><trkpt lat="41.660588" lon="13.7359959"><ele>339.0</ele><time>2026-05-04T12:56:51.079Z</time></trkpt><trkpt lat="41.6604909" lon="13.7360757"><ele>339.0</ele><time>2026-05-04T12:56:52.079Z</time></trkpt><trkpt lat="41.6603804" lon="13.7361665"><ele>338.75</ele><time>2026-05-04T12:56:53.079Z</time></trkpt><trkpt lat="41.660264" lon="13.7362591"><ele>338.5</ele><time>2026-05-04T12:56:54.079Z</time></trkpt><trkpt lat="41.6601434" lon="13.73637"><ele>338.25</ele><time>2026-05-04T12:56:55.078Z</time></trkpt><trkpt lat="41.6600105" lon="13.7364839"><ele>338.0</ele><time>2026-05-04T12:56:56.079Z</time></trkpt><trkpt lat="41.6598662" lon="13.7366064"><ele>338.0</ele><time>2026-05-04T12:56:57.079Z</time></trkpt><trkpt lat="41.659718" lon="13.7367311"><ele>338.0</ele><time>2026-05-04T12:56:58.078Z</time></trkpt><trkpt lat="41.6595508" lon="13.7368766"><ele>338.0</ele><time>2026-05-04T12:56:59.079Z</time></trkpt><trkpt lat="41.65936" lon="13.7370404"><ele>338.0</ele><time>2026-05-04T12:57:00.078Z</time></trkpt><trkpt lat="41.6591397" lon="13.7372367"><ele>338.0</ele><time>2026-05-04T12:57:01.079Z</time></trkpt><trkpt lat="41.6588974" lon="13.73745"><ele>338.0</ele><time>2026-05-04T12:57:02.078Z</time></trkpt><trkpt lat="41.658652" lon="13.737658"><ele>338.0</ele><time>2026-05-04T12:57:03.079Z</time></trkpt><trkpt lat="41.6584156" lon="13.7378489"><ele>338.5</ele><time>2026-05-04T12:57:04.078Z</time></trkpt><trkpt lat="41.6581852" lon="13.7380337"><ele>339.0</ele><time>2026-05-04T12:57:05.079Z</time></trkpt><trkpt lat="41.6579549" lon="13.738227"><ele>339.5</ele><time>2026-05-04T12:57:06.078Z</time></trkpt><trkpt lat="41.6577213" lon="13.7384288"><ele>340.0</ele><time>2026-05-04T12:57:07.079Z</time></trkpt><trkpt lat="41.6574922" lon="13.7386197"><ele>340.0</ele><time>2026-05-04T12:57:08.078Z</time></trkpt><trkpt lat="41.6572746" lon="13.7388088"><ele>340.0</ele><time>2026-05-04T12:57:09.079Z</time></trkpt><trkpt lat="41.657059" lon="13.7389979"><ele>338.5</ele><time>2026-05-04T12:57:10.078Z</time></trkpt><trkpt lat="41.6568531" lon="13.739191"><ele>337.0</ele><time>2026-05-04T12:57:11.078Z</time></trkpt><trkpt lat="41.6566556" lon="13.739405"><ele>336.5</ele><time>2026-05-04T12:57:12.078Z</time></trkpt><trkpt lat="41.6564617" lon="13.7396376"><ele>336.0</ele><time>2026-05-04T12:57:13.079Z</time></trkpt><trkpt lat="41.6562635" lon="13.7398831"><ele>335.0</ele><time>2026-05-04T12:57:14.079Z</time></trkpt><trkpt lat="41.6560538" lon="13.7401346"><ele>334.0</ele><time>2026-05-04T12:57:15.079Z</time></trkpt><trkpt lat="41.6558433" lon="13.7403876"><ele>334.0</ele><time>2026-05-04T12:57:16.078Z</time></trkpt><trkpt lat="41.6556304" lon="13.7406503"><ele>334.0</ele><time>2026-05-04T12:57:17.079Z</time></trkpt><trkpt lat="41.6554157" lon="13.7409206"><ele>332.0</ele><time>2026-05-04T12:57:18.079Z</time></trkpt><trkpt lat="41.6551962" lon="13.7411961"><ele>330.0</ele><time>2026-05-04T12:57:19.078Z</time></trkpt><trkpt lat="41.6549734" lon="13.7414649"><ele>330.0</ele><time>2026-05-04T12:57:20.079Z</time></trkpt><trkpt lat="41.6547546" lon="13.7417273"><ele>330.0</ele><time>2026-05-04T12:57:21.079Z</time></trkpt><trkpt lat="41.6545434" lon="13.741982"><ele>331.5</ele><time>2026-05-04T12:57:22.078Z</time></trkpt><trkpt lat="41.6543394" lon="13.7422294"><ele>333.0</ele><time>2026-05-04T12:57:23.079Z</time></trkpt><trkpt lat="41.6541456" lon="13.7424587"><ele>333.0</ele><time>2026-05-04T12:57:24.079Z</time></trkpt><trkpt lat="41.6539502" lon="13.742684"><ele>333.0</ele><time>2026-05-04T12:57:25.078Z</time></trkpt><trkpt lat="41.6537515" lon="13.7429006"><ele>332.5</ele><time>2026-05-04T12:57:26.078Z</time></trkpt><trkpt lat="41.6535492" lon="13.7431289"><ele>332.0</ele><time>2026-05-04T12:57:27.078Z</time></trkpt><trkpt lat="41.6533444" lon="13.7433655"><ele>332.5</ele><time>2026-05-04T12:57:28.078Z</time></trkpt><trkpt lat="41.6531346" lon="13.7436"><ele>333.0</ele><time>2026-05-04T12:57:29.078Z</time></trkpt><trkpt lat="41.6529228" lon="13.7438394"><ele>331.5</ele><time>2026-05-04T12:57:30.078Z</time></trkpt><trkpt lat="41.6527071" lon="13.7440816"><ele>330.0</ele><time>2026-05-04T12:57:31.079Z</time></trkpt><trkpt lat="41.6524898" lon="13.7443213"><ele>331.0</ele><time>2026-05-04T12:57:32.079Z</time></trkpt><trkpt lat="41.6522752" lon="13.7445564"><ele>332.0</ele><time>2026-05-04T12:57:33.079Z</time></trkpt><trkpt lat="41.6520609" lon="13.7447944"><ele>331.0</ele><time>2026-05-04T12:57:34.078Z</time></trkpt><trkpt lat="41.651852" lon="13.7450314"><ele>330.0</ele><time>2026-05-04T12:57:35.079Z</time></trkpt><trkpt lat="41.6516507" lon="13.7452548"><ele>333.0</ele><time>2026-05-04T12:57:36.079Z</time></trkpt><trkpt lat="41.651466" lon="13.7454643"><ele>336.0</ele><time>2026-05-04T12:57:37.079Z</time></trkpt><trkpt lat="41.6512829" lon="13.7456616"><ele>335.0</ele><time>2026-05-04T12:57:38.078Z</time></trkpt><trkpt lat="41.651105" lon="13.7458612"><ele>334.0</ele><time>2026-05-04T12:57:39.079Z</time></trkpt><trkpt lat="41.6509244" lon="13.7460583"><ele>334.0</ele><time>2026-05-04T12:57:40.079Z</time></trkpt><trkpt lat="41.6507308" lon="13.7462553"><ele>334.0</ele><time>2026-05-04T12:57:41.078Z</time></trkpt><trkpt lat="41.6505366" lon="13.7464485"><ele>334.0</ele><time>2026-05-04T12:57:42.079Z</time></trkpt><trkpt lat="41.6503352" lon="13.7466468"><ele>334.0</ele><time>2026-05-04T12:57:43.078Z</time></trkpt><trkpt lat="41.6501296" lon="13.7468744"><ele>332.5</ele><time>2026-05-04T12:57:44.079Z</time></trkpt><trkpt lat="41.6499134" lon="13.7471234"><ele>331.0</ele><time>2026-05-04T12:57:45.078Z</time></trkpt><trkpt lat="41.6496917" lon="13.7473842"><ele>331.0</ele><time>2026-05-04T12:57:46.079Z</time></trkpt><trkpt lat="41.6494671" lon="13.7476456"><ele>331.0</ele><time>2026-05-04T12:57:47.078Z</time></trkpt><trkpt lat="41.6492455" lon="13.7478965"><ele>332.0</ele><time>2026-05-04T12:57:48.079Z</time></trkpt><trkpt lat="41.6490413" lon="13.7481293"><ele>333.0</ele><time>2026-05-04T12:57:49.079Z</time></trkpt><trkpt lat="41.6488467" lon="13.7483552"><ele>332.5</ele><time>2026-05-04T12:57:50.079Z</time></trkpt><trkpt lat="41.6486614" lon="13.748581"><ele>332.0</ele><time>2026-05-04T12:57:51.079Z</time></trkpt><trkpt lat="41.6484852" lon="13.7488141"><ele>332.0</ele><time>2026-05-04T12:57:52.079Z</time></trkpt><trkpt lat="41.6483092" lon="13.7490584"><ele>332.0</ele><time>2026-05-04T12:57:53.079Z</time></trkpt><trkpt lat="41.6481299" lon="13.7493021"><ele>331.5</ele><time>2026-05-04T12:57:54.078Z</time></trkpt><trkpt lat="41.6479412" lon="13.7495478"><ele>331.0</ele><time>2026-05-04T12:57:55.079Z</time></trkpt><trkpt lat="41.6477548" lon="13.749803"><ele>330.5</ele><time>2026-05-04T12:57:56.079Z</time></trkpt><trkpt lat="41.6475629" lon="13.7500604"><ele>330.0</ele><time>2026-05-04T12:57:57.078Z</time></trkpt><trkpt lat="41.6473658" lon="13.7503259"><ele>330.0</ele><time>2026-05-04T12:57:58.079Z</time></trkpt><trkpt lat="41.6471588" lon="13.7505983"><ele>330.0</ele><time>2026-05-04T12:57:59.078Z</time></trkpt><trkpt lat="41.6469544" lon="13.7508668"><ele>331.0</ele><time>2026-05-04T12:58:00.079Z</time></trkpt><trkpt lat="41.646759" lon="13.7511253"><ele>332.0</ele><time>2026-05-04T12:58:01.079Z</time></trkpt><trkpt lat="41.646573" lon="13.7513757"><ele>332.0</ele><time>2026-05-04T12:58:02.079Z</time></trkpt><trkpt lat="41.6463894" lon="13.7516216"><ele>332.0</ele><time>2026-05-04T12:58:03.079Z</time></trkpt><trkpt lat="41.6462146" lon="13.751855"><ele>333.6666666666667</ele><time>2026-05-04T12:58:04.078Z</time></trkpt><trkpt lat="41.6460541" lon="13.7520749"><ele>335.3333333333333</ele><time>2026-05-04T12:58:05.079Z</time></trkpt><trkpt lat="41.6459091" lon="13.7522957"><ele>337.0</ele><time>2026-05-04T12:58:06.079Z</time></trkpt><trkpt lat="41.6457784" lon="13.7525289"><ele>337.5</ele><time>2026-05-04T12:58:07.079Z</time></trkpt><trkpt lat="41.6456406" lon="13.7527894"><ele>338.0</ele><time>2026-05-04T12:58:08.079Z</time></trkpt><trkpt lat="41.6455001" lon="13.753077"><ele>338.0</ele><time>2026-05-04T12:58:09.079Z</time></trkpt><trkpt lat="41.6453539" lon="13.7533807"><ele>338.0</ele><time>2026-05-04T12:58:10.078Z</time></trkpt><trkpt lat="41.6452026" lon="13.753682"><ele>334.5</ele><time>2026-05-04T12:58:11.079Z</time></trkpt><trkpt lat="41.6450442" lon="13.7539903"><ele>331.0</ele><time>2026-05-04T12:58:12.079Z</time></trkpt><trkpt lat="41.6448828" lon="13.754304"><ele>331.5</ele><time>2026-05-04T12:58:13.079Z</time></trkpt><trkpt lat="41.6447307" lon="13.7546052"><ele>332.0</ele><time>2026-05-04T12:58:14.079Z</time></trkpt><trkpt lat="41.6445878" lon="13.7548922"><ele>333.0</ele><time>2026-05-04T12:58:15.079Z</time></trkpt><trkpt lat="41.6444492" lon="13.7551682"><ele>334.0</ele><time>2026-05-04T12:58:16.079Z</time></trkpt><trkpt lat="41.6443106" lon="13.7554379"><ele>334.0</ele><time>2026-05-04T12:58:17.078Z</time></trkpt><trkpt lat="41.6441692" lon="13.7556966"><ele>334.0</ele><time>2026-05-04T12:58:18.078Z</time></trkpt><trkpt lat="41.6440283" lon="13.755962"><ele>334.0</ele><time>2026-05-04T12:58:19.079Z</time></trkpt><trkpt lat="41.643886" lon="13.756236"><ele>334.0</ele><time>2026-05-04T12:58:20.079Z</time></trkpt><trkpt lat="41.6437452" lon="13.7565092"><ele>332.5</ele><time>2026-05-04T12:58:21.078Z</time></trkpt><trkpt lat="41.6436035" lon="13.756787"><ele>331.0</ele><time>2026-05-04T12:58:22.079Z</time></trkpt><trkpt lat="41.643457" lon="13.7570736"><ele>331.0</ele><time>2026-05-04T12:58:23.079Z</time></trkpt><trkpt lat="41.6433081" lon="13.7573649"><ele>331.0</ele><time>2026-05-04T12:58:24.078Z</time></trkpt><trkpt lat="41.6431612" lon="13.7576586"><ele>332.5</ele><time>2026-05-04T12:58:25.079Z</time></trkpt><trkpt lat="41.6430192" lon="13.7579343"><ele>334.0</ele><time>2026-05-04T12:58:26.078Z</time></trkpt><trkpt lat="41.6428846" lon="13.7581981"><ele>333.5</ele><time>2026-05-04T12:58:27.079Z</time></trkpt><trkpt lat="41.6427501" lon="13.758457"><ele>333.0</ele><time>2026-05-04T12:58:28.079Z</time></trkpt><trkpt lat="41.6426144" lon="13.7587237"><ele>333.0</ele><time>2026-05-04T12:58:29.078Z</time></trkpt><trkpt lat="41.6424771" lon="13.7589948"><ele>333.0</ele><time>2026-05-04T12:58:30.079Z</time></trkpt><trkpt lat="41.6423359" lon="13.7592728"><ele>332.0</ele><time>2026-05-04T12:58:31.079Z</time></trkpt><trkpt lat="41.6421936" lon="13.7595561"><ele>331.0</ele><time>2026-05-04T12:58:32.079Z</time></trkpt><trkpt lat="41.6420505" lon="13.7598425"><ele>331.5</ele><time>2026-05-04T12:58:33.079Z</time></trkpt><trkpt lat="41.6419203" lon="13.7601217"><ele>332.0</ele><time>2026-05-04T12:58:34.078Z</time></trkpt><trkpt lat="41.641807" lon="13.7604023"><ele>333.0</ele><time>2026-05-04T12:58:35.078Z</time></trkpt><trkpt lat="41.6417103" lon="13.7606982"><ele>334.0</ele><time>2026-05-04T12:58:36.079Z</time></trkpt><trkpt lat="41.6416348" lon="13.7610184"><ele>333.0</ele><time>2026-05-04T12:58:37.079Z</time></trkpt><trkpt lat="41.641564" lon="13.7613564"><ele>332.0</ele><time>2026-05-04T12:58:38.078Z</time></trkpt><trkpt lat="41.6414936" lon="13.7617036"><ele>331.5</ele><time>2026-05-04T12:58:39.079Z</time></trkpt><trkpt lat="41.6414224" lon="13.7620624"><ele>331.0</ele><time>2026-05-04T12:58:40.078Z</time></trkpt><trkpt lat="41.6413507" lon="13.7624304"><ele>331.0</ele><time>2026-05-04T12:58:41.078Z</time></trkpt><trkpt lat="41.6412766" lon="13.7627965"><ele>331.0</ele><time>2026-05-04T12:58:42.078Z</time></trkpt><trkpt lat="41.6412072" lon="13.7631589"><ele>331.0</ele><time>2026-05-04T12:58:43.079Z</time></trkpt><trkpt lat="41.6411364" lon="13.7635215"><ele>331.0</ele><time>2026-05-04T12:58:44.078Z</time></trkpt><trkpt lat="41.6410636" lon="13.7638724"><ele>330.0</ele><time>2026-05-04T12:58:45.079Z</time></trkpt><trkpt lat="41.6409911" lon="13.7642224"><ele>329.0</ele><time>2026-05-04T12:58:46.079Z</time></trkpt><trkpt lat="41.6409163" lon="13.7645671"><ele>329.0</ele><time>2026-05-04T12:58:47.078Z</time></trkpt><trkpt lat="41.6408439" lon="13.7649117"><ele>329.0</ele><time>2026-05-04T12:58:48.078Z</time></trkpt><trkpt lat="41.6407711" lon="13.7652548"><ele>329.0</ele><time>2026-05-04T12:58:49.079Z</time></trkpt><trkpt lat="41.6407008" lon="13.765593"><ele>329.0</ele><time>2026-05-04T12:58:50.079Z</time></trkpt><trkpt lat="41.6406315" lon="13.7659319"><ele>329.5</ele><time>2026-05-04T12:58:51.078Z</time></trkpt><trkpt lat="41.6405626" lon="13.7662714"><ele>330.0</ele><time>2026-05-04T12:58:52.078Z</time></trkpt><trkpt lat="41.6404916" lon="13.7666075"><ele>330.0</ele><time>2026-05-04T12:58:53.078Z</time></trkpt><trkpt lat="41.6404193" lon="13.7669385"><ele>330.0</ele><time>2026-05-04T12:58:54.078Z</time></trkpt><trkpt lat="41.6403506" lon="13.7672656"><ele>330.0</ele><time>2026-05-04T12:58:55.079Z</time></trkpt><trkpt lat="41.6402796" lon="13.767593"><ele>330.0</ele><time>2026-05-04T12:58:56.078Z</time></trkpt><trkpt lat="41.6401982" lon="13.7679139"><ele>330.0</ele><time>2026-05-04T12:58:57.078Z</time></trkpt><trkpt lat="41.6401043" lon="13.7682294"><ele>330.0</ele><time>2026-05-04T12:58:58.079Z</time></trkpt><trkpt lat="41.6399765" lon="13.7685347"><ele>328.5</ele><time>2026-05-04T12:58:59.079Z</time></trkpt><trkpt lat="41.6398298" lon="13.7688182"><ele>327.0</ele><time>2026-05-04T12:59:00.078Z</time></trkpt><trkpt lat="41.6396775" lon="13.769097"><ele>327.0</ele><time>2026-05-04T12:59:01.078Z</time></trkpt><trkpt lat="41.6395272" lon="13.7693786"><ele>327.0</ele><time>2026-05-04T12:59:02.078Z</time></trkpt><trkpt lat="41.6393737" lon="13.7696604"><ele>327.5</ele><time>2026-05-04T12:59:03.078Z</time></trkpt><trkpt lat="41.6392238" lon="13.7699418"><ele>328.0</ele><time>2026-05-04T12:59:04.078Z</time></trkpt><trkpt lat="41.6390742" lon="13.7702262"><ele>329.0</ele><time>2026-05-04T12:59:05.077Z</time></trkpt><trkpt lat="41.6389261" lon="13.7705053"><ele>330.0</ele><time>2026-05-04T12:59:06.078Z</time></trkpt><trkpt lat="41.6387786" lon="13.7707833"><ele>330.0</ele><time>2026-05-04T12:59:07.078Z</time></trkpt><trkpt lat="41.6386371" lon="13.771064"><ele>330.0</ele><time>2026-05-04T12:59:08.078Z</time></trkpt><trkpt lat="41.6384954" lon="13.7713412"><ele>330.0</ele><time>2026-05-04T12:59:09.078Z</time></trkpt><trkpt lat="41.6383572" lon="13.7716107"><ele>330.0</ele><time>2026-05-04T12:59:10.077Z</time></trkpt><trkpt lat="41.6382149" lon="13.7718851"><ele>331.0</ele><time>2026-05-04T12:59:11.078Z</time></trkpt><trkpt lat="41.6380724" lon="13.7721569"><ele>332.0</ele><time>2026-05-04T12:59:12.078Z</time></trkpt><trkpt lat="41.6379302" lon="13.7724244"><ele>332.5</ele><time>2026-05-04T12:59:13.077Z</time></trkpt><trkpt lat="41.6377838" lon="13.7726965"><ele>333.0</ele><time>2026-05-04T12:59:14.078Z</time></trkpt><trkpt lat="41.6376435" lon="13.7729555"><ele>333.0</ele><time>2026-05-04T12:59:15.077Z</time></trkpt><trkpt lat="41.6375114" lon="13.7732067"><ele>333.0</ele><time>2026-05-04T12:59:16.078Z</time></trkpt><trkpt lat="41.6373829" lon="13.7734481"><ele>333.6666666666667</ele><time>2026-05-04T12:59:17.078Z</time></trkpt><trkpt lat="41.6372557" lon="13.7736813"><ele>334.33333333333337</ele><time>2026-05-04T12:59:18.078Z</time></trkpt><trkpt lat="41.6371321" lon="13.7739223"><ele>335.0</ele><time>2026-05-04T12:59:19.078Z</time></trkpt><trkpt lat="41.6370113" lon="13.7741561"><ele>335.6666666666667</ele><time>2026-05-04T12:59:20.078Z</time></trkpt><trkpt lat="41.6368924" lon="13.7743892"><ele>336.3333333333333</ele><time>2026-05-04T12:59:21.078Z</time></trkpt><trkpt lat="41.6367711" lon="13.7746205"><ele>337.0</ele><time>2026-05-04T12:59:22.078Z</time></trkpt><trkpt lat="41.6366496" lon="13.77485"><ele>337.0</ele><time>2026-05-04T12:59:23.077Z</time></trkpt><trkpt lat="41.6365288" lon="13.7750769"><ele>337.0</ele><time>2026-05-04T12:59:24.077Z</time></trkpt><trkpt lat="41.6364073" lon="13.7752999"><ele>337.0</ele><time>2026-05-04T12:59:25.078Z</time></trkpt><trkpt lat="41.6362865" lon="13.775527"><ele>337.3333333333333</ele><time>2026-05-04T12:59:26.078Z</time></trkpt><trkpt lat="41.6361648" lon="13.7757609"><ele>337.6666666666667</ele><time>2026-05-04T12:59:27.077Z</time></trkpt><trkpt lat="41.6360414" lon="13.775993"><ele>338.0</ele><time>2026-05-04T12:59:28.078Z</time></trkpt><trkpt lat="41.6359212" lon="13.7762263"><ele>339.0</ele><time>2026-05-04T12:59:29.078Z</time></trkpt><trkpt lat="41.6358062" lon="13.7764602"><ele>340.0</ele><time>2026-05-04T12:59:30.078Z</time></trkpt><trkpt lat="41.6356992" lon="13.776693"><ele>341.0</ele><time>2026-05-04T12:59:31.078Z</time></trkpt><trkpt lat="41.6356159" lon="13.7769416"><ele>341.6666666666667</ele><time>2026-05-04T12:59:32.078Z</time></trkpt><trkpt lat="41.6355632" lon="13.7772195"><ele>342.3333333333333</ele><time>2026-05-04T12:59:33.077Z</time></trkpt><trkpt lat="41.6355371" lon="13.7775236"><ele>343.0</ele><time>2026-05-04T12:59:34.078Z</time></trkpt><trkpt lat="41.6355089" lon="13.7778595"><ele>344.0</ele><time>2026-05-04T12:59:35.077Z</time></trkpt><trkpt lat="41.6354499" lon="13.7782012"><ele>345.0</ele><time>2026-05-04T12:59:36.077Z</time></trkpt><trkpt lat="41.6353825" lon="13.7785631"><ele>344.0</ele><time>2026-05-04T12:59:37.078Z</time></trkpt><trkpt lat="41.6353031" lon="13.7789448"><ele>343.0</ele><time>2026-05-04T12:59:38.077Z</time></trkpt><trkpt lat="41.6352137" lon="13.7793136"><ele>344.0</ele><time>2026-05-04T12:59:39.078Z</time></trkpt><trkpt lat="41.635112" lon="13.7796531"><ele>345.0</ele><time>2026-05-04T12:59:40.077Z</time></trkpt><trkpt lat="41.6350075" lon="13.7799746"><ele>347.5</ele><time>2026-05-04T12:59:41.077Z</time></trkpt><trkpt lat="41.6349092" lon="13.7802786"><ele>350.0</ele><time>2026-05-04T12:59:42.078Z</time></trkpt><trkpt lat="41.634819" lon="13.780572"><ele>350.0</ele><time>2026-05-04T12:59:43.077Z</time></trkpt><trkpt lat="41.6347384" lon="13.7808628"><ele>350.0</ele><time>2026-05-04T12:59:44.078Z</time></trkpt><trkpt lat="41.634673" lon="13.7811647"><ele>351.0</ele><time>2026-05-04T12:59:45.077Z</time></trkpt><trkpt lat="41.6346347" lon="13.7814788"><ele>352.0</ele><time>2026-05-04T12:59:46.078Z</time></trkpt><trkpt lat="41.6346264" lon="13.7817908"><ele>351.5</ele><time>2026-05-04T12:59:47.078Z</time></trkpt><trkpt lat="41.6346274" lon="13.7821064"><ele>351.0</ele><time>2026-05-04T12:59:48.078Z</time></trkpt><trkpt lat="41.634632" lon="13.7824242"><ele>351.0</ele><time>2026-05-04T12:59:49.077Z</time></trkpt><trkpt lat="41.634632" lon="13.7827459"><ele>351.0</ele><time>2026-05-04T12:59:50.078Z</time></trkpt><trkpt lat="41.6346243" lon="13.7830633"><ele>351.0</ele><time>2026-05-04T12:59:51.078Z</time></trkpt><trkpt lat="41.6346096" lon="13.7833629"><ele>351.0</ele><time>2026-05-04T12:59:52.077Z</time></trkpt><trkpt lat="41.6345891" lon="13.7836389"><ele>351.0</ele><time>2026-05-04T12:59:53.078Z</time></trkpt><trkpt lat="41.6345603" lon="13.7839162"><ele>351.3333333333333</ele><time>2026-05-04T12:59:54.077Z</time></trkpt><trkpt lat="41.6345229" lon="13.7841863"><ele>351.66666666666663</ele><time>2026-05-04T12:59:55.077Z</time></trkpt><trkpt lat="41.6344872" lon="13.7844541"><ele>352.0</ele><time>2026-05-04T12:59:56.077Z</time></trkpt><trkpt lat="41.6344566" lon="13.7847176"><ele>350.66666666666663</ele><time>2026-05-04T12:59:57.078Z</time></trkpt><trkpt lat="41.6344256" lon="13.7849791"><ele>349.3333333333333</ele><time>2026-05-04T12:59:58.078Z</time></trkpt><trkpt lat="41.6343984" lon="13.7852368"><ele>348.0</ele><time>2026-05-04T12:59:59.078Z</time></trkpt><trkpt lat="41.6343725" lon="13.7854941"><ele>348.0</ele><time>2026-05-04T13:00:00.078Z</time></trkpt><trkpt lat="41.6343394" lon="13.7857624"><ele>348.0</ele><time>2026-05-04T13:00:01.078Z</time></trkpt><trkpt lat="41.634297" lon="13.7860402"><ele>348.0</ele><time>2026-05-04T13:00:02.078Z</time></trkpt><trkpt lat="41.6342373" lon="13.7863242"><ele>349.0</ele><time>2026-05-04T13:00:03.078Z</time></trkpt><trkpt lat="41.63416" lon="13.7866108"><ele>350.0</ele><time>2026-05-04T13:00:04.078Z</time></trkpt><trkpt lat="41.6340643" lon="13.7868938"><ele>351.0</ele><time>2026-05-04T13:00:05.077Z</time></trkpt><trkpt lat="41.6339611" lon="13.7871762"><ele>352.0</ele><time>2026-05-04T13:00:06.078Z</time></trkpt><trkpt lat="41.6338595" lon="13.787438"><ele>352.66666666666663</ele><time>2026-05-04T13:00:07.077Z</time></trkpt><trkpt lat="41.6337674" lon="13.7876818"><ele>353.3333333333333</ele><time>2026-05-04T13:00:08.078Z</time></trkpt><trkpt lat="41.633687" lon="13.7878849"><ele>354.0</ele><time>2026-05-04T13:00:09.077Z</time></trkpt><trkpt lat="41.6336154" lon="13.788063"><ele>353.75</ele><time>2026-05-04T13:00:10.077Z</time></trkpt><trkpt lat="41.6335557" lon="13.7882298"><ele>353.5</ele><time>2026-05-04T13:00:11.078Z</time></trkpt><trkpt lat="41.6334942" lon="13.7883797"><ele>353.25</ele><time>2026-05-04T13:00:12.077Z</time></trkpt><trkpt lat="41.6334469" lon="13.7885172"><ele>353.0</ele><time>2026-05-04T13:00:13.077Z</time></trkpt><trkpt lat="41.6333903" lon="13.7886456"><ele>353.0</ele><time>2026-05-04T13:00:14.077Z</time></trkpt><trkpt lat="41.6333394" lon="13.788778"><ele>353.0</ele><time>2026-05-04T13:00:15.077Z</time></trkpt><trkpt lat="41.6332917" lon="13.7889245"><ele>353.0</ele><time>2026-05-04T13:00:16.078Z</time></trkpt><trkpt lat="41.6332363" lon="13.789069"><ele>353.0</ele><time>2026-05-04T13:00:17.077Z</time></trkpt><trkpt lat="41.6331855" lon="13.7892211"><ele>353.0</ele><time>2026-05-04T13:00:18.077Z</time></trkpt><trkpt lat="41.6331304" lon="13.789381"><ele>353.0</ele><time>2026-05-04T13:00:19.077Z</time></trkpt><trkpt lat="41.6330717" lon="13.7895442"><ele>353.0</ele><time>2026-05-04T13:00:20.078Z</time></trkpt><trkpt lat="41.633013" lon="13.7896993"><ele>353.0</ele><time>2026-05-04T13:00:21.077Z</time></trkpt><trkpt lat="41.6329569" lon="13.7898386"><ele>353.0</ele><time>2026-05-04T13:00:22.078Z</time></trkpt><trkpt lat="41.6329038" lon="13.7899665"><ele>353.0</ele><time>2026-05-04T13:00:23.078Z</time></trkpt><trkpt lat="41.6328525" lon="13.7900901"><ele>353.0</ele><time>2026-05-04T13:00:24.077Z</time></trkpt><trkpt lat="41.6327965" lon="13.7902095"><ele>353.0</ele><time>2026-05-04T13:00:25.077Z</time></trkpt><trkpt lat="41.6327321" lon="13.7903036"><ele>353.0</ele><time>2026-05-04T13:00:26.078Z</time></trkpt><trkpt lat="41.6326501" lon="13.7903716"><ele>351.75</ele><time>2026-05-04T13:00:27.077Z</time></trkpt><trkpt lat="41.6325554" lon="13.7904083"><ele>350.5</ele><time>2026-05-04T13:00:28.077Z</time></trkpt><trkpt lat="41.6324468" lon="13.7904372"><ele>349.25</ele><time>2026-05-04T13:00:29.078Z</time></trkpt><trkpt lat="41.6323264" lon="13.7904797"><ele>348.0</ele><time>2026-05-04T13:00:30.078Z</time></trkpt><trkpt lat="41.632194" lon="13.7905233"><ele>348.0</ele><time>2026-05-04T13:00:31.078Z</time></trkpt><trkpt lat="41.632053" lon="13.79055"><ele>348.0</ele><time>2026-05-04T13:00:32.077Z</time></trkpt><trkpt lat="41.6319038" lon="13.790563"><ele>348.0</ele><time>2026-05-04T13:00:33.078Z</time></trkpt><trkpt lat="41.6317616" lon="13.7905388"><ele>348.0</ele><time>2026-05-04T13:00:34.078Z</time></trkpt><trkpt lat="41.6316255" lon="13.7904883"><ele>348.0</ele><time>2026-05-04T13:00:35.078Z</time></trkpt><trkpt lat="41.631502" lon="13.7904269"><ele>348.0</ele><time>2026-05-04T13:00:36.077Z</time></trkpt><trkpt lat="41.6313855" lon="13.7903526"><ele>348.0</ele><time>2026-05-04T13:00:37.077Z</time></trkpt><trkpt lat="41.6312711" lon="13.790275"><ele>348.0</ele><time>2026-05-04T13:00:38.078Z</time></trkpt><trkpt lat="41.6311556" lon="13.7901806"><ele>347.6666666666667</ele><time>2026-05-04T13:00:39.078Z</time></trkpt><trkpt lat="41.6310104" lon="13.7900724"><ele>347.33333333333337</ele><time>2026-05-04T13:00:40.077Z</time></trkpt><trkpt lat="41.6308349" lon="13.7899407"><ele>347.0</ele><time>2026-05-04T13:00:41.078Z</time></trkpt><trkpt lat="41.6306591" lon="13.7897918"><ele>347.0</ele><time>2026-05-04T13:00:42.078Z</time></trkpt><trkpt lat="41.6304895" lon="13.789641"><ele>347.0</ele><time>2026-05-04T13:00:43.077Z</time></trkpt><trkpt lat="41.6303204" lon="13.7894966"><ele>347.0</ele><time>2026-05-04T13:00:44.077Z</time></trkpt><trkpt lat="41.6301503" lon="13.7893619"><ele>345.6666666666667</ele><time>2026-05-04T13:00:45.077Z</time></trkpt><trkpt lat="41.629982" lon="13.7892457"><ele>344.3333333333333</ele><time>2026-05-04T13:00:46.077Z</time></trkpt><trkpt lat="41.6298164" lon="13.7891517"><ele>343.0</ele><time>2026-05-04T13:00:47.078Z</time></trkpt><trkpt lat="41.6296447" lon="13.789095"><ele>343.66666666666663</ele><time>2026-05-04T13:00:48.078Z</time></trkpt><trkpt lat="41.6294559" lon="13.7890777"><ele>344.3333333333333</ele><time>2026-05-04T13:00:49.077Z</time></trkpt><trkpt lat="41.6292505" lon="13.7891112"><ele>345.0</ele><time>2026-05-04T13:00:50.078Z</time></trkpt><trkpt lat="41.6290207" lon="13.7891748"><ele>345.0</ele><time>2026-05-04T13:00:51.078Z</time></trkpt><trkpt lat="41.628788" lon="13.7892473"><ele>345.0</ele><time>2026-05-04T13:00:52.078Z</time></trkpt><trkpt lat="41.6285641" lon="13.7893266"><ele>346.3333333333333</ele><time>2026-05-04T13:00:53.078Z</time></trkpt><trkpt lat="41.6283563" lon="13.7894014"><ele>347.66666666666663</ele><time>2026-05-04T13:00:54.078Z</time></trkpt><trkpt lat="41.628154" lon="13.7894801"><ele>349.0</ele><time>2026-05-04T13:00:55.078Z</time></trkpt><trkpt lat="41.6279605" lon="13.7895614"><ele>350.0</ele><time>2026-05-04T13:00:56.078Z</time></trkpt><trkpt lat="41.6277765" lon="13.7896545"><ele>351.0</ele><time>2026-05-04T13:00:57.077Z</time></trkpt><trkpt lat="41.6275992" lon="13.7897533"><ele>352.0</ele><time>2026-05-04T13:00:58.077Z</time></trkpt><trkpt lat="41.6274173" lon="13.7898512"><ele>352.0</ele><time>2026-05-04T13:00:59.077Z</time></trkpt><trkpt lat="41.6272272" lon="13.7899519"><ele>352.0</ele><time>2026-05-04T13:01:00.078Z</time></trkpt><trkpt lat="41.6270329" lon="13.7900586"><ele>352.0</ele><time>2026-05-04T13:01:01.078Z</time></trkpt><trkpt lat="41.6268416" lon="13.7901639"><ele>352.3333333333333</ele><time>2026-05-04T13:01:02.077Z</time></trkpt><trkpt lat="41.6266668" lon="13.7902582"><ele>352.6666666666667</ele><time>2026-05-04T13:01:03.078Z</time></trkpt><trkpt lat="41.6265243" lon="13.7903504"><ele>353.0</ele><time>2026-05-04T13:01:04.078Z</time></trkpt><trkpt lat="41.6263981" lon="13.7904392"><ele>353.0</ele><time>2026-05-04T13:01:05.078Z</time></trkpt><trkpt lat="41.6262828" lon="13.790519"><ele>353.0</ele><time>2026-05-04T13:01:06.077Z</time></trkpt><trkpt lat="41.6261779" lon="13.7905907"><ele>353.0</ele><time>2026-05-04T13:01:07.077Z</time></trkpt><trkpt lat="41.6260759" lon="13.7906689"><ele>353.0</ele><time>2026-05-04T13:01:08.078Z</time></trkpt><trkpt lat="41.625977" lon="13.7907531"><ele>353.1666666666667</ele><time>2026-05-04T13:01:09.077Z</time></trkpt><trkpt lat="41.6258847" lon="13.7908285"><ele>353.33333333333337</ele><time>2026-05-04T13:01:10.077Z</time></trkpt><trkpt lat="41.6258143" lon="13.790885"><ele>353.5</ele><time>2026-05-04T13:01:11.078Z</time></trkpt><trkpt lat="41.6257576" lon="13.7909242"><ele>353.6666666666667</ele><time>2026-05-04T13:01:12.077Z</time></trkpt><trkpt lat="41.6256853" lon="13.7909598"><ele>353.8333333333333</ele><time>2026-05-04T13:01:14.077Z</time></trkpt><trkpt lat="41.6256" lon="13.7909548"><ele>354.0</ele><time>2026-05-04T13:01:27.078Z</time></trkpt><trkpt lat="41.6255231" lon="13.7909021"><ele>354.0</ele><time>2026-05-04T13:01:28.078Z</time></trkpt><trkpt lat="41.6254457" lon="13.7908159"><ele>354.0</ele><time>2026-05-04T13:01:29.078Z</time></trkpt><trkpt lat="41.6253861" lon="13.7906668"><ele>354.0</ele><time>2026-05-04T13:01:30.078Z</time></trkpt><trkpt lat="41.6253236" lon="13.7904864"><ele>354.0</ele><time>2026-05-04T13:01:31.077Z</time></trkpt><trkpt lat="41.6252547" lon="13.7902847"><ele>353.3333333333333</ele><time>2026-05-04T13:01:32.077Z</time></trkpt><trkpt lat="41.6251811" lon="13.7900609"><ele>352.66666666666663</ele><time>2026-05-04T13:01:33.078Z</time></trkpt><trkpt lat="41.6251014" lon="13.7898271"><ele>352.0</ele><time>2026-05-04T13:01:34.078Z</time></trkpt><trkpt lat="41.6250165" lon="13.7895702"><ele>352.0</ele><time>2026-05-04T13:01:35.077Z</time></trkpt><trkpt lat="41.624928" lon="13.7893043"><ele>352.0</ele><time>2026-05-04T13:01:36.078Z</time></trkpt><trkpt lat="41.6248331" lon="13.7890296"><ele>352.0</ele><time>2026-05-04T13:01:37.078Z</time></trkpt><trkpt lat="41.6247352" lon="13.7887517"><ele>352.0</ele><time>2026-05-04T13:01:38.077Z</time></trkpt><trkpt lat="41.6246379" lon="13.7884725"><ele>352.0</ele><time>2026-05-04T13:01:39.077Z</time></trkpt><trkpt lat="41.6245381" lon="13.7881904"><ele>351.5</ele><time>2026-05-04T13:01:40.077Z</time></trkpt><trkpt lat="41.624441" lon="13.787906"><ele>351.0</ele><time>2026-05-04T13:01:41.078Z</time></trkpt><trkpt lat="41.6243428" lon="13.7876163"><ele>351.0</ele><time>2026-05-04T13:01:42.078Z</time></trkpt><trkpt lat="41.6242447" lon="13.7873334"><ele>351.0</ele><time>2026-05-04T13:01:43.077Z</time></trkpt><trkpt lat="41.6241388" lon="13.7870657"><ele>350.3333333333333</ele><time>2026-05-04T13:01:44.078Z</time></trkpt><trkpt lat="41.6240176" lon="13.7868158"><ele>349.66666666666663</ele><time>2026-05-04T13:01:45.078Z</time></trkpt><trkpt lat="41.6238756" lon="13.7865946"><ele>349.0</ele><time>2026-05-04T13:01:46.077Z</time></trkpt><trkpt lat="41.6237233" lon="13.7863963"><ele>349.0</ele><time>2026-05-04T13:01:47.078Z</time></trkpt><trkpt lat="41.6235524" lon="13.7862056"><ele>349.0</ele><time>2026-05-04T13:01:48.078Z</time></trkpt><trkpt lat="41.6233651" lon="13.7859995"><ele>349.0</ele><time>2026-05-04T13:01:49.078Z</time></trkpt><trkpt lat="41.6231641" lon="13.785801"><ele>349.0</ele><time>2026-05-04T13:01:50.078Z</time></trkpt><trkpt lat="41.6229693" lon="13.7856108"><ele>349.5</ele><time>2026-05-04T13:01:51.078Z</time></trkpt><trkpt lat="41.62278" lon="13.7854172"><ele>350.0</ele><time>2026-05-04T13:01:52.078Z</time></trkpt><trkpt lat="41.6225876" lon="13.7852204"><ele>350.5</ele><time>2026-05-04T13:01:53.078Z</time></trkpt><trkpt lat="41.6223871" lon="13.7850184"><ele>351.0</ele><time>2026-05-04T13:01:54.077Z</time></trkpt><trkpt lat="41.6221775" lon="13.7848118"><ele>353.0</ele><time>2026-05-04T13:01:55.078Z</time></trkpt><trkpt lat="41.6219628" lon="13.7845977"><ele>355.0</ele><time>2026-05-04T13:01:56.077Z</time></trkpt><trkpt lat="41.621758" lon="13.7843851"><ele>353.5</ele><time>2026-05-04T13:01:57.077Z</time></trkpt><trkpt lat="41.6215632" lon="13.7841812"><ele>352.0</ele><time>2026-05-04T13:01:58.077Z</time></trkpt><trkpt lat="41.621378" lon="13.7839832"><ele>352.0</ele><time>2026-05-04T13:01:59.078Z</time></trkpt><trkpt lat="41.6212153" lon="13.7837964"><ele>352.0</ele><time>2026-05-04T13:02:00.078Z</time></trkpt><trkpt lat="41.6210639" lon="13.7836291"><ele>352.0</ele><time>2026-05-04T13:02:01.078Z</time></trkpt><trkpt lat="41.6209346" lon="13.783484"><ele>354.25</ele><time>2026-05-04T13:02:02.078Z</time></trkpt><trkpt lat="41.6208158" lon="13.7833492"><ele>356.5</ele><time>2026-05-04T13:02:03.077Z</time></trkpt><trkpt lat="41.6207194" lon="13.7832038"><ele>358.75</ele><time>2026-05-04T13:02:04.077Z</time></trkpt><trkpt lat="41.6206551" lon="13.783058"><ele>361.0</ele><time>2026-05-04T13:02:05.077Z</time></trkpt><trkpt lat="41.6206316" lon="13.782899"><ele>361.0</ele><time>2026-05-04T13:02:06.078Z</time></trkpt><trkpt lat="41.6206458" lon="13.7827224"><ele>361.0</ele><time>2026-05-04T13:02:07.077Z</time></trkpt><trkpt lat="41.6207088" lon="13.7825526"><ele>361.0</ele><time>2026-05-04T13:02:08.078Z</time></trkpt><trkpt lat="41.6208035" lon="13.7824329"><ele>361.0</ele><time>2026-05-04T13:02:09.077Z</time></trkpt><trkpt lat="41.6209282" lon="13.7823563"><ele>360.75</ele><time>2026-05-04T13:02:10.077Z</time></trkpt><trkpt lat="41.6210695" lon="13.7823426"><ele>360.5</ele><time>2026-05-04T13:02:11.078Z</time></trkpt><trkpt lat="41.6212038" lon="13.7824014"><ele>360.25</ele><time>2026-05-04T13:02:12.078Z</time></trkpt><trkpt lat="41.621309" lon="13.7825094"><ele>360.0</ele><time>2026-05-04T13:02:13.077Z</time></trkpt><trkpt lat="41.6213817" lon="13.7826676"><ele>358.0</ele><time>2026-05-04T13:02:14.077Z</time></trkpt><trkpt lat="41.6214115" lon="13.7828467"><ele>356.0</ele><time>2026-05-04T13:02:15.078Z</time></trkpt><trkpt lat="41.6213973" lon="13.783052"><ele>354.0</ele><time>2026-05-04T13:02:16.078Z</time></trkpt><trkpt lat="41.6213406" lon="13.78329"><ele>353.3333333333333</ele><time>2026-05-04T13:02:17.078Z</time></trkpt><trkpt lat="41.6212438" lon="13.7835248"><ele>352.66666666666663</ele><time>2026-05-04T13:02:18.078Z</time></trkpt><trkpt lat="41.6211112" lon="13.783759"><ele>352.0</ele><time>2026-05-04T13:02:19.078Z</time></trkpt><trkpt lat="41.620981" lon="13.7839792"><ele>354.66666666666663</ele><time>2026-05-04T13:02:20.077Z</time></trkpt><trkpt lat="41.6208559" lon="13.7841933"><ele>357.3333333333333</ele><time>2026-05-04T13:02:21.078Z</time></trkpt><trkpt lat="41.6207415" lon="13.7843942"><ele>360.0</ele><time>2026-05-04T13:02:22.077Z</time></trkpt><trkpt lat="41.6206251" lon="13.7845887"><ele>360.0</ele><time>2026-05-04T13:02:23.078Z</time></trkpt><trkpt lat="41.6205078" lon="13.7847956"><ele>360.0</ele><time>2026-05-04T13:02:24.078Z</time></trkpt><trkpt lat="41.6203686" lon="13.7850365"><ele>360.0</ele><time>2026-05-04T13:02:25.078Z</time></trkpt><trkpt lat="41.6202036" lon="13.7853116"><ele>367.0</ele><time>2026-05-04T13:02:26.077Z</time></trkpt><trkpt lat="41.6200256" lon="13.7855973"><ele>374.0</ele><time>2026-05-04T13:02:27.078Z</time></trkpt><trkpt lat="41.6198375" lon="13.7858801"><ele>371.0</ele><time>2026-05-04T13:02:28.077Z</time></trkpt><trkpt lat="41.619643" lon="13.7861616"><ele>368.0</ele><time>2026-05-04T13:02:29.078Z</time></trkpt><trkpt lat="41.6194472" lon="13.7864441"><ele>373.0</ele><time>2026-05-04T13:02:30.077Z</time></trkpt><trkpt lat="41.6192547" lon="13.7867335"><ele>378.0</ele><time>2026-05-04T13:02:31.077Z</time></trkpt><trkpt lat="41.6190629" lon="13.7870253"><ele>378.0</ele><time>2026-05-04T13:02:32.078Z</time></trkpt><trkpt lat="41.6188696" lon="13.7873194"><ele>378.0</ele><time>2026-05-04T13:02:33.078Z</time></trkpt><trkpt lat="41.6186754" lon="13.7876119"><ele>381.5</ele><time>2026-05-04T13:02:34.077Z</time></trkpt><trkpt lat="41.6184784" lon="13.7879067"><ele>385.0</ele><time>2026-05-04T13:02:35.077Z</time></trkpt><trkpt lat="41.6182823" lon="13.7882043"><ele>385.0</ele><time>2026-05-04T13:02:36.078Z</time></trkpt><trkpt lat="41.6180946" lon="13.7884926"><ele>385.0</ele><time>2026-05-04T13:02:37.078Z</time></trkpt><trkpt lat="41.6179076" lon="13.7887743"><ele>397.0</ele><time>2026-05-04T13:02:38.078Z</time></trkpt><trkpt lat="41.6177197" lon="13.7890554"><ele>409.0</ele><time>2026-05-04T13:02:39.077Z</time></trkpt><trkpt lat="41.6175344" lon="13.7893406"><ele>399.5</ele><time>2026-05-04T13:02:40.078Z</time></trkpt><trkpt lat="41.6173453" lon="13.7896333"><ele>390.0</ele><time>2026-05-04T13:02:41.077Z</time></trkpt><trkpt lat="41.6171593" lon="13.7899255"><ele>398.0</ele><time>2026-05-04T13:02:42.078Z</time></trkpt><trkpt lat="41.6169749" lon="13.7902088"><ele>406.0</ele><time>2026-05-04T13:02:43.078Z</time></trkpt><trkpt lat="41.6168007" lon="13.7904832"><ele>406.0</ele><time>2026-05-04T13:02:44.077Z</time></trkpt><trkpt lat="41.6166282" lon="13.7907569"><ele>406.0</ele><time>2026-05-04T13:02:45.078Z</time></trkpt><trkpt lat="41.616453" lon="13.7910337"><ele>411.0</ele><time>2026-05-04T13:02:46.077Z</time></trkpt><trkpt lat="41.6162759" lon="13.7913106"><ele>416.0</ele><time>2026-05-04T13:02:47.077Z</time></trkpt><trkpt lat="41.6160924" lon="13.7916012"><ele>409.0</ele><time>2026-05-04T13:02:48.077Z</time></trkpt><trkpt lat="41.6159037" lon="13.7919001"><ele>402.0</ele><time>2026-05-04T13:02:49.078Z</time></trkpt><trkpt lat="41.6157234" lon="13.7921995"><ele>402.0</ele><time>2026-05-04T13:02:50.078Z</time></trkpt><trkpt lat="41.6155478" lon="13.7924927"><ele>402.0</ele><time>2026-05-04T13:02:51.078Z</time></trkpt><trkpt lat="41.6153737" lon="13.7927811"><ele>409.5</ele><time>2026-05-04T13:02:52.077Z</time></trkpt><trkpt lat="41.6152032" lon="13.7930663"><ele>417.0</ele><time>2026-05-04T13:02:53.077Z</time></trkpt><trkpt lat="41.6150333" lon="13.7933501"><ele>416.0</ele><time>2026-05-04T13:02:54.078Z</time></trkpt><trkpt lat="41.6148633" lon="13.7936326"><ele>415.0</ele><time>2026-05-04T13:02:55.077Z</time></trkpt><trkpt lat="41.6146905" lon="13.7939199"><ele>415.0</ele><time>2026-05-04T13:02:56.077Z</time></trkpt><trkpt lat="41.6145103" lon="13.7942128"><ele>415.0</ele><time>2026-05-04T13:02:57.077Z</time></trkpt><trkpt lat="41.6143336" lon="13.7945017"><ele>420.5</ele><time>2026-05-04T13:02:58.078Z</time></trkpt><trkpt lat="41.6141586" lon="13.7947829"><ele>426.0</ele><time>2026-05-04T13:02:59.078Z</time></trkpt><trkpt lat="41.6139769" lon="13.7950534"><ele>423.5</ele><time>2026-05-04T13:03:00.078Z</time></trkpt><trkpt lat="41.6137912" lon="13.7953202"><ele>421.0</ele><time>2026-05-04T13:03:01.077Z</time></trkpt><trkpt lat="41.6136007" lon="13.795575"><ele>424.5</ele><time>2026-05-04T13:03:02.077Z</time></trkpt><trkpt lat="41.6133929" lon="13.7958207"><ele>428.0</ele><time>2026-05-04T13:03:03.078Z</time></trkpt><trkpt lat="41.6131729" lon="13.7960504"><ele>428.0</ele><time>2026-05-04T13:03:04.077Z</time></trkpt><trkpt lat="41.612943" lon="13.7962547"><ele>428.0</ele><time>2026-05-04T13:03:05.077Z</time></trkpt><trkpt lat="41.6126916" lon="13.7964322"><ele>433.0</ele><time>2026-05-04T13:03:06.077Z</time></trkpt><trkpt lat="41.6124239" lon="13.7965828"><ele>438.0</ele><time>2026-05-04T13:03:07.078Z</time></trkpt><trkpt lat="41.6121411" lon="13.7966955"><ele>443.0</ele><time>2026-05-04T13:03:08.077Z</time></trkpt><trkpt lat="41.6118521" lon="13.7967822"><ele>448.0</ele><time>2026-05-04T13:03:09.077Z</time></trkpt><trkpt lat="41.6115596" lon="13.796843"><ele>448.5</ele><time>2026-05-04T13:03:10.078Z</time></trkpt><trkpt lat="41.6112693" lon="13.796865"><ele>449.0</ele><time>2026-05-04T13:03:11.078Z</time></trkpt><trkpt lat="41.6109762" lon="13.7968593"><ele>450.0</ele><time>2026-05-04T13:03:12.078Z</time></trkpt><trkpt lat="41.6106837" lon="13.7968337"><ele>451.0</ele><time>2026-05-04T13:03:13.078Z</time></trkpt><trkpt lat="41.610386" lon="13.7967901"><ele>451.5</ele><time>2026-05-04T13:03:14.077Z</time></trkpt><trkpt lat="41.610081" lon="13.7967471"><ele>452.0</ele><time>2026-05-04T13:03:15.078Z</time></trkpt><trkpt lat="41.6097748" lon="13.7966933"><ele>453.5</ele><time>2026-05-04T13:03:16.078Z</time></trkpt><trkpt lat="41.6094748" lon="13.7966465"><ele>455.0</ele><time>2026-05-04T13:03:17.078Z</time></trkpt><trkpt lat="41.6091883" lon="13.7966123"><ele>455.0</ele><time>2026-05-04T13:03:18.078Z</time></trkpt><trkpt lat="41.6089101" lon="13.7965935"><ele>455.0</ele><time>2026-05-04T13:03:19.077Z</time></trkpt><trkpt lat="41.6086332" lon="13.7966034"><ele>459.5</ele><time>2026-05-04T13:03:20.078Z</time></trkpt><trkpt lat="41.6083596" lon="13.7966369"><ele>464.0</ele><time>2026-05-04T13:03:21.078Z</time></trkpt><trkpt lat="41.6080847" lon="13.7966993"><ele>467.0</ele><time>2026-05-04T13:03:22.077Z</time></trkpt><trkpt lat="41.6078087" lon="13.7967913"><ele>470.0</ele><time>2026-05-04T13:03:23.078Z</time></trkpt><trkpt lat="41.6075397" lon="13.7969102"><ele>463.5</ele><time>2026-05-04T13:03:24.078Z</time></trkpt><trkpt lat="41.6072792" lon="13.797061"><ele>457.0</ele><time>2026-05-04T13:03:25.078Z</time></trkpt><trkpt lat="41.6070328" lon="13.7972387"><ele>463.5</ele><time>2026-05-04T13:03:26.077Z</time></trkpt><trkpt lat="41.6067898" lon="13.7974342"><ele>470.0</ele><time>2026-05-04T13:03:27.077Z</time></trkpt><trkpt lat="41.6065576" lon="13.797655"><ele>472.5</ele><time>2026-05-04T13:03:28.078Z</time></trkpt><trkpt lat="41.6063298" lon="13.7978764"><ele>475.0</ele><time>2026-05-04T13:03:29.078Z</time></trkpt><trkpt lat="41.6061003" lon="13.7981012"><ele>475.0</ele><time>2026-05-04T13:03:30.077Z</time></trkpt><trkpt lat="41.6058727" lon="13.7983221"><ele>475.0</ele><time>2026-05-04T13:03:31.077Z</time></trkpt><trkpt lat="41.6056371" lon="13.7985364"><ele>476.0</ele><time>2026-05-04T13:03:32.077Z</time></trkpt><trkpt lat="41.6053928" lon="13.7987328"><ele>477.0</ele><time>2026-05-04T13:03:33.077Z</time></trkpt><trkpt lat="41.6051358" lon="13.7989053"><ele>477.0</ele><time>2026-05-04T13:03:34.077Z</time></trkpt><trkpt lat="41.6048723" lon="13.7990627"><ele>477.0</ele><time>2026-05-04T13:03:35.077Z</time></trkpt><trkpt lat="41.6046119" lon="13.7991971"><ele>480.0</ele><time>2026-05-04T13:03:36.077Z</time></trkpt><trkpt lat="41.60435" lon="13.7993155"><ele>483.0</ele><time>2026-05-04T13:03:37.077Z</time></trkpt><trkpt lat="41.6040877" lon="13.7994046"><ele>487.0</ele><time>2026-05-04T13:03:38.078Z</time></trkpt><trkpt lat="41.603829" lon="13.7994722"><ele>491.0</ele><time>2026-05-04T13:03:39.077Z</time></trkpt><trkpt lat="41.6035707" lon="13.7995141"><ele>491.5</ele><time>2026-05-04T13:03:40.078Z</time></trkpt><trkpt lat="41.6033174" lon="13.7995454"><ele>492.0</ele><time>2026-05-04T13:03:41.077Z</time></trkpt><trkpt lat="41.6030809" lon="13.799568"><ele>492.0</ele><time>2026-05-04T13:03:42.078Z</time></trkpt><trkpt lat="41.6028738" lon="13.7995955"><ele>492.0</ele><time>2026-05-04T13:03:43.077Z</time></trkpt><trkpt lat="41.6026902" lon="13.7996212"><ele>492.0</ele><time>2026-05-04T13:03:44.078Z</time></trkpt><trkpt lat="41.6025155" lon="13.7996454"><ele>492.0</ele><time>2026-05-04T13:03:45.078Z</time></trkpt><trkpt lat="41.6023477" lon="13.7996699"><ele>492.0</ele><time>2026-05-04T13:03:46.077Z</time></trkpt><trkpt lat="41.6021977" lon="13.7996939"><ele>492.0</ele><time>2026-05-04T13:03:47.078Z</time></trkpt><trkpt lat="41.6020755" lon="13.7997121"><ele>492.0</ele><time>2026-05-04T13:03:48.077Z</time></trkpt><trkpt lat="41.6019848" lon="13.7997266"><ele>492.0</ele><time>2026-05-04T13:03:49.078Z</time></trkpt><trkpt lat="41.6018948" lon="13.7997276"><ele>492.00000000000006</ele><time>2026-05-04T13:03:51.076Z</time></trkpt><trkpt lat="41.6019628" lon="13.7996328"><ele>492.00000000000006</ele><time>2026-05-04T13:04:27.076Z</time></trkpt><trkpt lat="41.6020649" lon="13.7996085"><ele>492.0</ele><time>2026-05-04T13:04:28.076Z</time></trkpt><trkpt lat="41.602189" lon="13.7995812"><ele>492.0</ele><time>2026-05-04T13:04:29.077Z</time></trkpt><trkpt lat="41.6023248" lon="13.7995279"><ele>492.0</ele><time>2026-05-04T13:04:30.076Z</time></trkpt><trkpt lat="41.6024868" lon="13.7994617"><ele>492.0</ele><time>2026-05-04T13:04:31.076Z</time></trkpt><trkpt lat="41.6026599" lon="13.7993796"><ele>492.0</ele><time>2026-05-04T13:04:32.077Z</time></trkpt><trkpt lat="41.6028451" lon="13.7992956"><ele>491.66666666666663</ele><time>2026-05-04T13:04:33.076Z</time></trkpt><trkpt lat="41.6030498" lon="13.7992178"><ele>491.3333333333333</ele><time>2026-05-04T13:04:34.076Z</time></trkpt><trkpt lat="41.603258" lon="13.7991586"><ele>491.0</ele><time>2026-05-04T13:04:35.077Z</time></trkpt><trkpt lat="41.6034728" lon="13.7991167"><ele>487.0</ele><time>2026-05-04T13:04:36.076Z</time></trkpt><trkpt lat="41.603698" lon="13.7990743"><ele>483.0</ele><time>2026-05-04T13:04:37.077Z</time></trkpt><trkpt lat="41.6039265" lon="13.7990365"><ele>483.0</ele><time>2026-05-04T13:04:38.077Z</time></trkpt><trkpt lat="41.6041546" lon="13.7989998"><ele>483.0</ele><time>2026-05-04T13:04:39.077Z</time></trkpt><trkpt lat="41.6043852" lon="13.7989795"><ele>481.0</ele><time>2026-05-04T13:04:40.076Z</time></trkpt><trkpt lat="41.6046051" lon="13.7989661"><ele>479.0</ele><time>2026-05-04T13:04:41.076Z</time></trkpt><trkpt lat="41.6048019" lon="13.7989544"><ele>477.0</ele><time>2026-05-04T13:04:42.076Z</time></trkpt><trkpt lat="41.6049742" lon="13.7989487"><ele>477.0</ele><time>2026-05-04T13:04:43.076Z</time></trkpt><trkpt lat="41.6051299" lon="13.7989542"><ele>477.0</ele><time>2026-05-04T13:04:44.077Z</time></trkpt><trkpt lat="41.6052747" lon="13.7989598"><ele>477.0</ele><time>2026-05-04T13:04:45.077Z</time></trkpt><trkpt lat="41.6054202" lon="13.7989659"><ele>477.0</ele><time>2026-05-04T13:04:46.077Z</time></trkpt><trkpt lat="41.605385" lon="13.7990458"><ele>477.0</ele><time>2026-05-04T13:04:48.077Z</time></trkpt><trkpt lat="41.6053588" lon="13.7991759"><ele>477.00000000000006</ele><time>2026-05-04T13:04:54.076Z</time></trkpt><trkpt lat="41.605287" lon="13.7992258"><ele>477.00000000000006</ele><time>2026-05-04T13:04:55.077Z</time></trkpt><trkpt lat="41.6051792" lon="13.7992691"><ele>477.0</ele><time>2026-05-04T13:04:56.077Z</time></trkpt><trkpt lat="41.6050358" lon="13.7993316"><ele>477.0</ele><time>2026-05-04T13:04:57.077Z</time></trkpt><trkpt lat="41.6048518" lon="13.7994049"><ele>483.0</ele><time>2026-05-04T13:04:58.076Z</time></trkpt><trkpt lat="41.6046307" lon="13.7994826"><ele>489.0</ele><time>2026-05-04T13:04:59.077Z</time></trkpt><trkpt lat="41.6043933" lon="13.7995514"><ele>490.0</ele><time>2026-05-04T13:05:00.077Z</time></trkpt><trkpt lat="41.6041298" lon="13.7996172"><ele>491.0</ele><time>2026-05-04T13:05:01.076Z</time></trkpt><trkpt lat="41.6038494" lon="13.7996649"><ele>491.5</ele><time>2026-05-04T13:05:02.077Z</time></trkpt><trkpt lat="41.603576" lon="13.7997119"><ele>492.0</ele><time>2026-05-04T13:05:03.077Z</time></trkpt><trkpt lat="41.6033246" lon="13.7997659"><ele>492.0</ele><time>2026-05-04T13:05:04.076Z</time></trkpt><trkpt lat="41.6030816" lon="13.7998319"><ele>492.0</ele><time>2026-05-04T13:05:05.076Z</time></trkpt><trkpt lat="41.602834" lon="13.7999126"><ele>492.0</ele><time>2026-05-04T13:05:06.076Z</time></trkpt><trkpt lat="41.6025743" lon="13.7999929"><ele>492.0</ele><time>2026-05-04T13:05:07.077Z</time></trkpt><trkpt lat="41.6023061" lon="13.8000806"><ele>497.0</ele><time>2026-05-04T13:05:08.077Z</time></trkpt><trkpt lat="41.6020271" lon="13.8001885"><ele>502.0</ele><time>2026-05-04T13:05:09.077Z</time></trkpt><trkpt lat="41.601736" lon="13.8003028"><ele>502.5</ele><time>2026-05-04T13:05:10.077Z</time></trkpt><trkpt lat="41.6014384" lon="13.8004193"><ele>503.0</ele><time>2026-05-04T13:05:11.077Z</time></trkpt><trkpt lat="41.6011384" lon="13.8005321"><ele>499.0</ele><time>2026-05-04T13:05:12.077Z</time></trkpt><trkpt lat="41.6008522" lon="13.8006357"><ele>495.0</ele><time>2026-05-04T13:05:13.076Z</time></trkpt><trkpt lat="41.6005903" lon="13.800742"><ele>495.0</ele><time>2026-05-04T13:05:14.077Z</time></trkpt><trkpt lat="41.6003508" lon="13.8008438"><ele>495.0</ele><time>2026-05-04T13:05:15.076Z</time></trkpt><trkpt lat="41.6001334" lon="13.8009705"><ele>498.66666666666663</ele><time>2026-05-04T13:05:16.076Z</time></trkpt><trkpt lat="41.5999372" lon="13.8011078"><ele>502.3333333333333</ele><time>2026-05-04T13:05:17.076Z</time></trkpt><trkpt lat="41.5997721" lon="13.8012486"><ele>506.0</ele><time>2026-05-04T13:05:18.077Z</time></trkpt><trkpt lat="41.5996363" lon="13.8013698"><ele>506.75</ele><time>2026-05-04T13:05:19.077Z</time></trkpt><trkpt lat="41.5994993" lon="13.8014538"><ele>507.5</ele><time>2026-05-04T13:05:20.077Z</time></trkpt><trkpt lat="41.5993775" lon="13.8015061"><ele>508.25</ele><time>2026-05-04T13:05:21.077Z</time></trkpt><trkpt lat="41.5992331" lon="13.8015196"><ele>509.0</ele><time>2026-05-04T13:05:22.076Z</time></trkpt><trkpt lat="41.5990914" lon="13.8014786"><ele>509.0</ele><time>2026-05-04T13:05:23.077Z</time></trkpt><trkpt lat="41.5989679" lon="13.8014052"><ele>509.0</ele><time>2026-05-04T13:05:24.076Z</time></trkpt><trkpt lat="41.5988697" lon="13.8012951"><ele>509.0</ele><time>2026-05-04T13:05:25.077Z</time></trkpt><trkpt lat="41.5987969" lon="13.80117"><ele>509.0</ele><time>2026-05-04T13:05:26.076Z</time></trkpt><trkpt lat="41.5987493" lon="13.8010237"><ele>510.3333333333333</ele><time>2026-05-04T13:05:27.077Z</time></trkpt><trkpt lat="41.5987138" lon="13.8009043"><ele>511.66666666666663</ele><time>2026-05-04T13:05:28.076Z</time></trkpt><trkpt lat="41.5986837" lon="13.8008231"><ele>513.0</ele><time>2026-05-04T13:05:29.077Z</time></trkpt><trkpt lat="41.598662" lon="13.8007434"><ele>514.3333333333334</ele><time>2026-05-04T13:05:31.076Z</time></trkpt><trkpt lat="41.5986814" lon="13.8006428"><ele>515.6666666666667</ele><time>2026-05-04T13:05:34.077Z</time></trkpt><trkpt lat="41.5987862" lon="13.8005603"><ele>517.0</ele><time>2026-05-04T13:05:36.077Z</time></trkpt><trkpt lat="41.5988624" lon="13.8005133"><ele>512.75</ele><time>2026-05-04T13:05:37.076Z</time></trkpt><trkpt lat="41.5989565" lon="13.8004571"><ele>508.5</ele><time>2026-05-04T13:05:38.077Z</time></trkpt><trkpt lat="41.5990788" lon="13.8004101"><ele>504.25</ele><time>2026-05-04T13:05:39.077Z</time></trkpt><trkpt lat="41.5992366" lon="13.800353"><ele>500.0</ele><time>2026-05-04T13:05:40.077Z</time></trkpt><trkpt lat="41.5994236" lon="13.8002843"><ele>498.3333333333333</ele><time>2026-05-04T13:05:41.077Z</time></trkpt><trkpt lat="41.5996152" lon="13.8002085"><ele>496.66666666666663</ele><time>2026-05-04T13:05:42.077Z</time></trkpt><trkpt lat="41.5998015" lon="13.800142"><ele>495.0</ele><time>2026-05-04T13:05:43.076Z</time></trkpt><trkpt lat="41.5999849" lon="13.8000671"><ele>496.66666666666663</ele><time>2026-05-04T13:05:44.076Z</time></trkpt><trkpt lat="41.6001761" lon="13.7999817"><ele>498.3333333333333</ele><time>2026-05-04T13:05:45.077Z</time></trkpt><trkpt lat="41.600368" lon="13.7998869"><ele>500.0</ele><time>2026-05-04T13:05:46.077Z</time></trkpt><trkpt lat="41.6005486" lon="13.7997967"><ele>500.0</ele><time>2026-05-04T13:05:47.076Z</time></trkpt><trkpt lat="41.600721" lon="13.7997037"><ele>500.0</ele><time>2026-05-04T13:05:48.076Z</time></trkpt><trkpt lat="41.600891" lon="13.7996167"><ele>500.0</ele><time>2026-05-04T13:05:49.077Z</time></trkpt><trkpt lat="41.6010412" lon="13.7995406"><ele>499.0</ele><time>2026-05-04T13:05:50.076Z</time></trkpt><trkpt lat="41.6011719" lon="13.7994688"><ele>498.0</ele><time>2026-05-04T13:05:51.076Z</time></trkpt><trkpt lat="41.6012823" lon="13.79941"><ele>497.0</ele><time>2026-05-04T13:05:52.077Z</time></trkpt><trkpt lat="41.6013757" lon="13.7993391"><ele>496.0</ele><time>2026-05-04T13:05:53.077Z</time></trkpt><trkpt lat="41.6014668" lon="13.7992418"><ele>499.8</ele><time>2026-05-04T13:05:54.076Z</time></trkpt><trkpt lat="41.6015486" lon="13.7991406"><ele>503.6</ele><time>2026-05-04T13:05:55.077Z</time></trkpt><trkpt lat="41.6016162" lon="13.7990419"><ele>507.4</ele><time>2026-05-04T13:05:56.076Z</time></trkpt><trkpt lat="41.6016632" lon="13.7989549"><ele>511.2</ele><time>2026-05-04T13:05:57.077Z</time></trkpt><trkpt lat="41.601706" lon="13.7988707"><ele>515.0</ele><time>2026-05-04T13:05:59.076Z</time></trkpt><trkpt lat="41.6016408" lon="13.7989576"><ele>515.0</ele><time>2026-05-04T13:09:59.075Z</time></trkpt><trkpt lat="41.6015753" lon="13.7990499"><ele>515.0</ele><time>2026-05-04T13:10:01.076Z</time></trkpt><trkpt lat="41.6014911" lon="13.7991413"><ele>515.0</ele><time>2026-05-04T13:10:03.075Z</time></trkpt><trkpt lat="41.601405" lon="13.7992413"><ele>515.0</ele><time>2026-05-04T13:10:05.076Z</time></trkpt><trkpt lat="41.6013077" lon="13.7993346"><ele>515.0</ele><time>2026-05-04T13:10:07.075Z</time></trkpt><trkpt lat="41.6012475" lon="13.7993802"><ele>512.5</ele><time>2026-05-04T13:10:08.075Z</time></trkpt><trkpt lat="41.6011763" lon="13.7994201"><ele>510.0</ele><time>2026-05-04T13:10:09.075Z</time></trkpt><trkpt lat="41.6011016" lon="13.7994567"><ele>507.5</ele><time>2026-05-04T13:10:10.075Z</time></trkpt><trkpt lat="41.6010251" lon="13.7994906"><ele>505.0</ele><time>2026-05-04T13:10:11.075Z</time></trkpt><trkpt lat="41.6009466" lon="13.7995257"><ele>502.49999999999994</ele><time>2026-05-04T13:10:12.076Z</time></trkpt><trkpt lat="41.6008576" lon="13.7995665"><ele>500.0</ele><time>2026-05-04T13:10:13.076Z</time></trkpt><trkpt lat="41.6007613" lon="13.7996141"><ele>500.0</ele><time>2026-05-04T13:10:14.076Z</time></trkpt><trkpt lat="41.600662" lon="13.799671"><ele>500.0</ele><time>2026-05-04T13:10:15.076Z</time></trkpt><trkpt lat="41.600556" lon="13.7997347"><ele>500.0</ele><time>2026-05-04T13:10:16.075Z</time></trkpt><trkpt lat="41.6004435" lon="13.7997955"><ele>500.0</ele><time>2026-05-04T13:10:17.075Z</time></trkpt><trkpt lat="41.6003249" lon="13.7998569"><ele>503.3333333333333</ele><time>2026-05-04T13:10:18.076Z</time></trkpt><trkpt lat="41.6001989" lon="13.79992"><ele>506.66666666666663</ele><time>2026-05-04T13:10:19.076Z</time></trkpt><trkpt lat="41.6000586" lon="13.7999898"><ele>510.0</ele><time>2026-05-04T13:10:20.075Z</time></trkpt><trkpt lat="41.5998907" lon="13.8000556"><ele>510.0</ele><time>2026-05-04T13:10:21.076Z</time></trkpt><trkpt lat="41.5997138" lon="13.8001273"><ele>510.0</ele><time>2026-05-04T13:10:22.076Z</time></trkpt><trkpt lat="41.5995443" lon="13.800191"><ele>510.0</ele><time>2026-05-04T13:10:23.075Z</time></trkpt><trkpt lat="41.5993864" lon="13.8002489"><ele>507.5</ele><time>2026-05-04T13:10:24.076Z</time></trkpt><trkpt lat="41.5992478" lon="13.8003051"><ele>505.0</ele><time>2026-05-04T13:10:25.076Z</time></trkpt><trkpt lat="41.5991246" lon="13.800358"><ele>502.5</ele><time>2026-05-04T13:10:26.075Z</time></trkpt><trkpt lat="41.5990148" lon="13.8004077"><ele>500.0</ele><time>2026-05-04T13:10:27.076Z</time></trkpt><trkpt lat="41.5989179" lon="13.8004565"><ele>499.99999999999994</ele><time>2026-05-04T13:10:28.075Z</time></trkpt><trkpt lat="41.5988348" lon="13.8005054"><ele>500.0</ele><time>2026-05-04T13:10:29.076Z</time></trkpt><trkpt lat="41.598757" lon="13.8005479"><ele>500.0</ele><time>2026-05-04T13:10:30.076Z</time></trkpt><trkpt lat="41.59869" lon="13.8005969"><ele>500.0</ele><time>2026-05-04T13:10:31.075Z</time></trkpt><trkpt lat="41.5986301" lon="13.8006462"><ele>499.99999999999994</ele><time>2026-05-04T13:10:32.076Z</time></trkpt><trkpt lat="41.598566" lon="13.8006925"><ele>500.0</ele><time>2026-05-04T13:10:34.076Z</time></trkpt><trkpt lat="41.5984849" lon="13.8007664"><ele>503.0</ele><time>2026-05-04T13:10:42.076Z</time></trkpt><trkpt lat="41.5984131" lon="13.8008121"><ele>506.0</ele><time>2026-05-04T13:10:43.075Z</time></trkpt><trkpt lat="41.598325" lon="13.8008737"><ele>509.0</ele><time>2026-05-04T13:10:44.075Z</time></trkpt><trkpt lat="41.5982266" lon="13.8009592"><ele>512.0</ele><time>2026-05-04T13:10:45.075Z</time></trkpt><trkpt lat="41.5981131" lon="13.8010597"><ele>515.0</ele><time>2026-05-04T13:10:46.075Z</time></trkpt><trkpt lat="41.5979925" lon="13.801176"><ele>515.0</ele><time>2026-05-04T13:10:47.075Z</time></trkpt><trkpt lat="41.5978671" lon="13.8012939"><ele>515.0</ele><time>2026-05-04T13:10:48.076Z</time></trkpt><trkpt lat="41.5977496" lon="13.8014015"><ele>515.0</ele><time>2026-05-04T13:10:49.075Z</time></trkpt><trkpt lat="41.5976472" lon="13.8014993"><ele>515.0</ele><time>2026-05-04T13:10:50.076Z</time></trkpt><trkpt lat="41.5975616" lon="13.8015861"><ele>515.4</ele><time>2026-05-04T13:10:51.076Z</time></trkpt><trkpt lat="41.5974838" lon="13.8016666"><ele>515.8</ele><time>2026-05-04T13:10:52.076Z</time></trkpt><trkpt lat="41.5974085" lon="13.8017374"><ele>516.2</ele><time>2026-05-04T13:10:53.076Z</time></trkpt><trkpt lat="41.5973303" lon="13.8018092"><ele>516.6</ele><time>2026-05-04T13:10:54.075Z</time></trkpt><trkpt lat="41.5972377" lon="13.8018845"><ele>517.0</ele><time>2026-05-04T13:10:55.076Z</time></trkpt><trkpt lat="41.5971235" lon="13.8019661"><ele>516.6666666666667</ele><time>2026-05-04T13:10:56.076Z</time></trkpt><trkpt lat="41.5969827" lon="13.8020676"><ele>516.3333333333334</ele><time>2026-05-04T13:10:57.076Z</time></trkpt><trkpt lat="41.5968226" lon="13.8021911"><ele>516.0</ele><time>2026-05-04T13:10:58.076Z</time></trkpt><trkpt lat="41.5966565" lon="13.8023204"><ele>516.0</ele><time>2026-05-04T13:10:59.075Z</time></trkpt><trkpt lat="41.5965011" lon="13.8024447"><ele>516.0</ele><time>2026-05-04T13:11:00.076Z</time></trkpt><trkpt lat="41.5963555" lon="13.8025609"><ele>516.0</ele><time>2026-05-04T13:11:01.075Z</time></trkpt><trkpt lat="41.5962286" lon="13.8026635"><ele>514.25</ele><time>2026-05-04T13:11:02.075Z</time></trkpt><trkpt lat="41.5961221" lon="13.8027628"><ele>512.5</ele><time>2026-05-04T13:11:03.076Z</time></trkpt><trkpt lat="41.5960381" lon="13.8028919"><ele>510.75</ele><time>2026-05-04T13:11:04.075Z</time></trkpt><trkpt lat="41.5959702" lon="13.803057"><ele>509.0</ele><time>2026-05-04T13:11:05.076Z</time></trkpt><trkpt lat="41.5959081" lon="13.8032412"><ele>509.0</ele><time>2026-05-04T13:11:06.076Z</time></trkpt><trkpt lat="41.5958466" lon="13.803404"><ele>509.0</ele><time>2026-05-04T13:11:07.075Z</time></trkpt><trkpt lat="41.5957926" lon="13.8035336"><ele>509.0</ele><time>2026-05-04T13:11:08.076Z</time></trkpt><trkpt lat="41.5957338" lon="13.803619"><ele>509.0</ele><time>2026-05-04T13:11:09.075Z</time></trkpt><trkpt lat="41.5956627" lon="13.8036579"><ele>509.0</ele><time>2026-05-04T13:11:10.076Z</time></trkpt><trkpt lat="41.5955829" lon="13.8036184"><ele>509.0</ele><time>2026-05-04T13:11:11.075Z</time></trkpt><trkpt lat="41.5955237" lon="13.8035453"><ele>509.0</ele><time>2026-05-04T13:11:12.075Z</time></trkpt><trkpt lat="41.5954817" lon="13.8034161"><ele>509.0</ele><time>2026-05-04T13:11:13.075Z</time></trkpt><trkpt lat="41.595476" lon="13.8032515"><ele>509.0</ele><time>2026-05-04T13:11:14.076Z</time></trkpt><trkpt lat="41.5954807" lon="13.8030598"><ele>509.0</ele><time>2026-05-04T13:11:15.076Z</time></trkpt><trkpt lat="41.5954734" lon="13.8028307"><ele>509.0</ele><time>2026-05-04T13:11:16.075Z</time></trkpt><trkpt lat="41.5954504" lon="13.8026279"><ele>509.0</ele><time>2026-05-04T13:11:17.076Z</time></trkpt><trkpt lat="41.595411" lon="13.8024381"><ele>508.66666666666663</ele><time>2026-05-04T13:11:18.076Z</time></trkpt><trkpt lat="41.5953462" lon="13.8022606"><ele>508.33333333333337</ele><time>2026-05-04T13:11:19.075Z</time></trkpt><trkpt lat="41.595231" lon="13.8020963"><ele>508.0</ele><time>2026-05-04T13:11:20.076Z</time></trkpt><trkpt lat="41.5950779" lon="13.8019385"><ele>505.6666666666667</ele><time>2026-05-04T13:11:21.076Z</time></trkpt><trkpt lat="41.5949111" lon="13.8017895"><ele>503.33333333333337</ele><time>2026-05-04T13:11:22.076Z</time></trkpt><trkpt lat="41.5947484" lon="13.8016493"><ele>501.0</ele><time>2026-05-04T13:11:23.075Z</time></trkpt><trkpt lat="41.5945993" lon="13.8015216"><ele>498.75</ele><time>2026-05-04T13:11:24.076Z</time></trkpt><trkpt lat="41.5944687" lon="13.8014155"><ele>496.5</ele><time>2026-05-04T13:11:25.075Z</time></trkpt><trkpt lat="41.5943374" lon="13.8013291"><ele>494.25</ele><time>2026-05-04T13:11:26.076Z</time></trkpt><trkpt lat="41.5942023" lon="13.8012882"><ele>492.0</ele><time>2026-05-04T13:11:27.075Z</time></trkpt><trkpt lat="41.5940636" lon="13.8012862"><ele>492.0</ele><time>2026-05-04T13:11:28.075Z</time></trkpt><trkpt lat="41.5939248" lon="13.801301"><ele>492.0</ele><time>2026-05-04T13:11:29.075Z</time></trkpt><trkpt lat="41.5937967" lon="13.8013146"><ele>492.0</ele><time>2026-05-04T13:11:30.075Z</time></trkpt><trkpt lat="41.5936901" lon="13.8013106"><ele>492.0</ele><time>2026-05-04T13:11:31.075Z</time></trkpt><trkpt lat="41.5935952" lon="13.8012969"><ele>492.75</ele><time>2026-05-04T13:11:32.075Z</time></trkpt><trkpt lat="41.5935037" lon="13.8012424"><ele>493.5</ele><time>2026-05-04T13:11:33.075Z</time></trkpt><trkpt lat="41.5933943" lon="13.8011289"><ele>494.25</ele><time>2026-05-04T13:11:34.075Z</time></trkpt><trkpt lat="41.5932779" lon="13.8009858"><ele>495.0</ele><time>2026-05-04T13:11:35.075Z</time></trkpt><trkpt lat="41.59314" lon="13.8008352"><ele>495.0</ele><time>2026-05-04T13:11:36.076Z</time></trkpt><trkpt lat="41.5929856" lon="13.8006796"><ele>495.0</ele><time>2026-05-04T13:11:37.076Z</time></trkpt><trkpt lat="41.592837" lon="13.8005426"><ele>495.0</ele><time>2026-05-04T13:11:38.075Z</time></trkpt><trkpt lat="41.5927135" lon="13.8004308"><ele>494.6</ele><time>2026-05-04T13:11:39.075Z</time></trkpt><trkpt lat="41.5926185" lon="13.8003499"><ele>494.2</ele><time>2026-05-04T13:11:40.075Z</time></trkpt><trkpt lat="41.5925638" lon="13.8002834"><ele>493.79999999999995</ele><time>2026-05-04T13:11:41.076Z</time></trkpt><trkpt lat="41.5925545" lon="13.8001581"><ele>493.4</ele><time>2026-05-04T13:11:43.076Z</time></trkpt><trkpt lat="41.5926121" lon="13.8000982"><ele>493.0</ele><time>2026-05-04T13:11:44.076Z</time></trkpt><trkpt lat="41.5927178" lon="13.800042"><ele>502.0</ele><time>2026-05-04T13:11:45.076Z</time></trkpt><trkpt lat="41.5928515" lon="13.8000172"><ele>511.0</ele><time>2026-05-04T13:11:46.076Z</time></trkpt><trkpt lat="41.5930172" lon="13.7999898"><ele>520.0</ele><time>2026-05-04T13:11:47.075Z</time></trkpt><trkpt lat="41.5932076" lon="13.7999452"><ele>520.0</ele><time>2026-05-04T13:11:48.076Z</time></trkpt><trkpt lat="41.5934055" lon="13.7998938"><ele>520.0</ele><time>2026-05-04T13:11:49.076Z</time></trkpt><trkpt lat="41.5935811" lon="13.799847"><ele>520.0</ele><time>2026-05-04T13:11:50.076Z</time></trkpt><trkpt lat="41.5937299" lon="13.7998075"><ele>520.8333333333334</ele><time>2026-05-04T13:11:51.076Z</time></trkpt><trkpt lat="41.5938442" lon="13.7997952"><ele>521.6666666666667</ele><time>2026-05-04T13:11:52.076Z</time></trkpt><trkpt lat="41.5939069" lon="13.7997819"><ele>522.5</ele><time>2026-05-04T13:11:53.076Z</time></trkpt><trkpt lat="41.5939478" lon="13.7996717"><ele>523.3333333333334</ele><time>2026-05-04T13:11:55.075Z</time></trkpt><trkpt lat="41.5939184" lon="13.7995947"><ele>524.1666666666666</ele><time>2026-05-04T13:11:56.075Z</time></trkpt><trkpt lat="41.5938448" lon="13.7995206"><ele>525.0</ele><time>2026-05-04T13:11:57.076Z</time></trkpt><trkpt lat="41.5937252" lon="13.7994645"><ele>523.3333333333334</ele><time>2026-05-04T13:11:58.075Z</time></trkpt><trkpt lat="41.5935754" lon="13.7994076"><ele>521.6666666666667</ele><time>2026-05-04T13:11:59.075Z</time></trkpt><trkpt lat="41.593403" lon="13.7993413"><ele>520.0</ele><time>2026-05-04T13:12:00.076Z</time></trkpt><trkpt lat="41.5932121" lon="13.7992819"><ele>529.3333333333334</ele><time>2026-05-04T13:12:01.076Z</time></trkpt><trkpt lat="41.5930095" lon="13.7992195"><ele>538.6666666666666</ele><time>2026-05-04T13:12:02.076Z</time></trkpt><trkpt lat="41.5927962" lon="13.7991601"><ele>548.0</ele><time>2026-05-04T13:12:03.076Z</time></trkpt><trkpt lat="41.5925723" lon="13.7991212"><ele>548.0</ele><time>2026-05-04T13:12:04.076Z</time></trkpt><trkpt lat="41.5923509" lon="13.7990962"><ele>548.0</ele><time>2026-05-04T13:12:05.075Z</time></trkpt><trkpt lat="41.5921356" lon="13.7990813"><ele>548.0</ele><time>2026-05-04T13:12:06.076Z</time></trkpt><trkpt lat="41.59193" lon="13.7990635"><ele>550.3333333333333</ele><time>2026-05-04T13:12:07.076Z</time></trkpt><trkpt lat="41.5917335" lon="13.7990461"><ele>552.6666666666666</ele><time>2026-05-04T13:12:08.075Z</time></trkpt><trkpt lat="41.5915514" lon="13.7990255"><ele>555.0</ele><time>2026-05-04T13:12:09.075Z</time></trkpt><trkpt lat="41.5913783" lon="13.7989858"><ele>555.0</ele><time>2026-05-04T13:12:10.075Z</time></trkpt><trkpt lat="41.5912082" lon="13.7989376"><ele>555.0</ele><time>2026-05-04T13:12:11.076Z</time></trkpt><trkpt lat="41.5910293" lon="13.7988806"><ele>555.0</ele><time>2026-05-04T13:12:12.075Z</time></trkpt><trkpt lat="41.5908476" lon="13.7988294"><ele>553.75</ele><time>2026-05-04T13:12:13.076Z</time></trkpt><trkpt lat="41.5906818" lon="13.7987906"><ele>552.5</ele><time>2026-05-04T13:12:14.076Z</time></trkpt><trkpt lat="41.5905515" lon="13.798768"><ele>551.25</ele><time>2026-05-04T13:12:15.076Z</time></trkpt><trkpt lat="41.5904593" lon="13.798737"><ele>550.0</ele><time>2026-05-04T13:12:16.076Z</time></trkpt><trkpt lat="41.5903928" lon="13.7986757"><ele>550.0</ele><time>2026-05-04T13:12:17.075Z</time></trkpt><trkpt lat="41.5903626" lon="13.7985869"><ele>550.0</ele><time>2026-05-04T13:12:18.076Z</time></trkpt><trkpt lat="41.5903662" lon="13.7984789"><ele>550.0</ele><time>2026-05-04T13:12:19.075Z</time></trkpt><trkpt lat="41.590409" lon="13.798355"><ele>550.0</ele><time>2026-05-04T13:12:20.075Z</time></trkpt><trkpt lat="41.5904815" lon="13.7982391"><ele>550.0</ele><time>2026-05-04T13:12:21.076Z</time></trkpt><trkpt lat="41.5905807" lon="13.7981401"><ele>558.5</ele><time>2026-05-04T13:12:22.075Z</time></trkpt><trkpt lat="41.5906822" lon="13.7980847"><ele>567.0</ele><time>2026-05-04T13:12:23.075Z</time></trkpt><trkpt lat="41.5908052" lon="13.7980566"><ele>575.5</ele><time>2026-05-04T13:12:24.075Z</time></trkpt><trkpt lat="41.5909393" lon="13.7980489"><ele>584.0</ele><time>2026-05-04T13:12:25.076Z</time></trkpt><trkpt lat="41.5910612" lon="13.798051"><ele>584.0</ele><time>2026-05-04T13:12:26.076Z</time></trkpt><trkpt lat="41.5911519" lon="13.7980476"><ele>584.0</ele><time>2026-05-04T13:12:27.075Z</time></trkpt><trkpt lat="41.5912221" lon="13.7979748"><ele>584.0</ele><time>2026-05-04T13:12:29.075Z</time></trkpt><trkpt lat="41.5911508" lon="13.7978323"><ele>584.0</ele><time>2026-05-04T13:12:31.075Z</time></trkpt><trkpt lat="41.5910564" lon="13.7977668"><ele>584.0</ele><time>2026-05-04T13:12:32.076Z</time></trkpt><trkpt lat="41.5909242" lon="13.7977138"><ele>584.0</ele><time>2026-05-04T13:12:33.075Z</time></trkpt><trkpt lat="41.5907789" lon="13.7976989"><ele>584.0</ele><time>2026-05-04T13:12:34.075Z</time></trkpt><trkpt lat="41.5906365" lon="13.7977226"><ele>584.0</ele><time>2026-05-04T13:12:35.076Z</time></trkpt><trkpt lat="41.5905039" lon="13.7977755"><ele>584.0</ele><time>2026-05-04T13:12:36.076Z</time></trkpt><trkpt lat="41.5903944" lon="13.7978674"><ele>586.0</ele><time>2026-05-04T13:12:37.075Z</time></trkpt><trkpt lat="41.590279" lon="13.7979598"><ele>588.0</ele><time>2026-05-04T13:12:38.075Z</time></trkpt><trkpt lat="41.5901526" lon="13.7980526"><ele>590.0</ele><time>2026-05-04T13:12:39.075Z</time></trkpt><trkpt lat="41.5900057" lon="13.7981192"><ele>592.0</ele><time>2026-05-04T13:12:40.075Z</time></trkpt><trkpt lat="41.5898336" lon="13.7981595"><ele>592.0</ele><time>2026-05-04T13:12:41.076Z</time></trkpt><trkpt lat="41.5896656" lon="13.7981796"><ele>592.0</ele><time>2026-05-04T13:12:42.076Z</time></trkpt><trkpt lat="41.589512" lon="13.798195"><ele>592.0</ele><time>2026-05-04T13:12:43.075Z</time></trkpt><trkpt lat="41.5893675" lon="13.7982012"><ele>593.75</ele><time>2026-05-04T13:12:44.075Z</time></trkpt><trkpt lat="41.5892399" lon="13.7982051"><ele>595.5</ele><time>2026-05-04T13:12:45.075Z</time></trkpt><trkpt lat="41.5891239" lon="13.7981944"><ele>597.25</ele><time>2026-05-04T13:12:46.075Z</time></trkpt><trkpt lat="41.5890078" lon="13.798147"><ele>599.0</ele><time>2026-05-04T13:12:47.075Z</time></trkpt><trkpt lat="41.5888952" lon="13.7980648"><ele>599.0</ele><time>2026-05-04T13:12:48.076Z</time></trkpt><trkpt lat="41.5887962" lon="13.7979494"><ele>599.0</ele><time>2026-05-04T13:12:49.076Z</time></trkpt><trkpt lat="41.5887065" lon="13.7978074"><ele>599.0</ele><time>2026-05-04T13:12:50.076Z</time></trkpt><trkpt lat="41.5886149" lon="13.7976446"><ele>599.0</ele><time>2026-05-04T13:12:51.076Z</time></trkpt><trkpt lat="41.5885315" lon="13.7974817"><ele>602.0</ele><time>2026-05-04T13:12:52.075Z</time></trkpt><trkpt lat="41.5884518" lon="13.797345"><ele>605.0</ele><time>2026-05-04T13:12:53.076Z</time></trkpt><trkpt lat="41.5883637" lon="13.797239"><ele>608.0</ele><time>2026-05-04T13:12:54.076Z</time></trkpt><trkpt lat="41.5882519" lon="13.7971397"><ele>611.0</ele><time>2026-05-04T13:12:55.075Z</time></trkpt><trkpt lat="41.5881204" lon="13.7970519"><ele>611.0</ele><time>2026-05-04T13:12:56.076Z</time></trkpt><trkpt lat="41.5879699" lon="13.7969813"><ele>611.0</ele><time>2026-05-04T13:12:57.075Z</time></trkpt><trkpt lat="41.5878159" lon="13.7969398"><ele>611.0</ele><time>2026-05-04T13:12:58.075Z</time></trkpt><trkpt lat="41.5876579" lon="13.7969171"><ele>614.0</ele><time>2026-05-04T13:12:59.075Z</time></trkpt><trkpt lat="41.5875219" lon="13.7968806"><ele>617.0</ele><time>2026-05-04T13:13:00.076Z</time></trkpt><trkpt lat="41.5873992" lon="13.7968152"><ele>620.0</ele><time>2026-05-04T13:13:01.076Z</time></trkpt><trkpt lat="41.5872813" lon="13.7967379"><ele>623.0</ele><time>2026-05-04T13:13:02.075Z</time></trkpt><trkpt lat="41.5871743" lon="13.7966564"><ele>623.0</ele><time>2026-05-04T13:13:03.075Z</time></trkpt><trkpt lat="41.5870852" lon="13.7965502"><ele>623.0</ele><time>2026-05-04T13:13:04.076Z</time></trkpt><trkpt lat="41.5869951" lon="13.7964322"><ele>623.0</ele><time>2026-05-04T13:13:05.076Z</time></trkpt><trkpt lat="41.5869107" lon="13.7963159"><ele>623.0</ele><time>2026-05-04T13:13:06.076Z</time></trkpt><trkpt lat="41.5868414" lon="13.7961995"><ele>621.25</ele><time>2026-05-04T13:13:07.075Z</time></trkpt><trkpt lat="41.5867851" lon="13.796054"><ele>619.5</ele><time>2026-05-04T13:13:08.075Z</time></trkpt><trkpt lat="41.5867447" lon="13.7958694"><ele>617.75</ele><time>2026-05-04T13:13:09.075Z</time></trkpt><trkpt lat="41.5866934" lon="13.7956473"><ele>616.0</ele><time>2026-05-04T13:13:10.074Z</time></trkpt><trkpt lat="41.5866405" lon="13.7954132"><ele>616.0</ele><time>2026-05-04T13:13:11.075Z</time></trkpt><trkpt lat="41.5865854" lon="13.7951835"><ele>616.0</ele><time>2026-05-04T13:13:12.074Z</time></trkpt><trkpt lat="41.5865375" lon="13.7949666"><ele>616.0</ele><time>2026-05-04T13:13:13.075Z</time></trkpt><trkpt lat="41.5864991" lon="13.794742"><ele>621.6666666666667</ele><time>2026-05-04T13:13:14.075Z</time></trkpt><trkpt lat="41.5864718" lon="13.794501"><ele>627.3333333333334</ele><time>2026-05-04T13:13:15.075Z</time></trkpt><trkpt lat="41.586443" lon="13.7942545"><ele>633.0</ele><time>2026-05-04T13:13:16.075Z</time></trkpt><trkpt lat="41.5863994" lon="13.79401"><ele>635.6666666666666</ele><time>2026-05-04T13:13:17.074Z</time></trkpt><trkpt lat="41.5863482" lon="13.7937662"><ele>638.3333333333333</ele><time>2026-05-04T13:13:18.074Z</time></trkpt><trkpt lat="41.5863059" lon="13.7935379"><ele>641.0</ele><time>2026-05-04T13:13:19.075Z</time></trkpt><trkpt lat="41.5862783" lon="13.7933332"><ele>642.0</ele><time>2026-05-04T13:13:20.074Z</time></trkpt><trkpt lat="41.5862649" lon="13.7931668"><ele>643.0</ele><time>2026-05-04T13:13:21.074Z</time></trkpt><trkpt lat="41.5862704" lon="13.7930127"><ele>644.0</ele><time>2026-05-04T13:13:22.074Z</time></trkpt><trkpt lat="41.5862908" lon="13.792874"><ele>645.0</ele><time>2026-05-04T13:13:23.074Z</time></trkpt><trkpt lat="41.5863185" lon="13.7927328"><ele>645.2</ele><time>2026-05-04T13:13:24.074Z</time></trkpt><trkpt lat="41.5863375" lon="13.7925984"><ele>645.4</ele><time>2026-05-04T13:13:25.074Z</time></trkpt><trkpt lat="41.586346" lon="13.7924626"><ele>645.5999999999999</ele><time>2026-05-04T13:13:26.075Z</time></trkpt><trkpt lat="41.5863313" lon="13.7923233"><ele>645.8</ele><time>2026-05-04T13:13:27.074Z</time></trkpt><trkpt lat="41.5862973" lon="13.7921727"><ele>646.0</ele><time>2026-05-04T13:13:28.075Z</time></trkpt><trkpt lat="41.5862609" lon="13.7920028"><ele>648.0</ele><time>2026-05-04T13:13:29.075Z</time></trkpt><trkpt lat="41.5862265" lon="13.7918131"><ele>650.0</ele><time>2026-05-04T13:13:30.074Z</time></trkpt><trkpt lat="41.5861858" lon="13.7916071"><ele>652.0</ele><time>2026-05-04T13:13:31.075Z</time></trkpt><trkpt lat="41.586147" lon="13.7913723"><ele>640.6666666666667</ele><time>2026-05-04T13:13:32.075Z</time></trkpt><trkpt lat="41.586115" lon="13.7911391"><ele>629.3333333333334</ele><time>2026-05-04T13:13:33.074Z</time></trkpt><trkpt lat="41.5860833" lon="13.7909075"><ele>618.0</ele><time>2026-05-04T13:13:34.074Z</time></trkpt><trkpt lat="41.5860583" lon="13.7906989"><ele>618.0</ele><time>2026-05-04T13:13:35.075Z</time></trkpt><trkpt lat="41.5860215" lon="13.7905169"><ele>618.0</ele><time>2026-05-04T13:13:36.075Z</time></trkpt><trkpt lat="41.5859723" lon="13.7903528"><ele>618.0</ele><time>2026-05-04T13:13:37.075Z</time></trkpt><trkpt lat="41.5858902" lon="13.7901948"><ele>618.0</ele><time>2026-05-04T13:13:38.075Z</time></trkpt><trkpt lat="41.5857968" lon="13.790035"><ele>621.8</ele><time>2026-05-04T13:13:39.074Z</time></trkpt><trkpt lat="41.58572" lon="13.7899057"><ele>625.5999999999999</ele><time>2026-05-04T13:13:40.075Z</time></trkpt><trkpt lat="41.5856615" lon="13.7898178"><ele>629.4000000000001</ele><time>2026-05-04T13:13:41.074Z</time></trkpt><trkpt lat="41.5855976" lon="13.7897768"><ele>633.2</ele><time>2026-05-04T13:13:42.075Z</time></trkpt><trkpt lat="41.5855152" lon="13.7897747"><ele>637.0</ele><time>2026-05-04T13:13:43.075Z</time></trkpt><trkpt lat="41.5853976" lon="13.789818"><ele>636.6666666666667</ele><time>2026-05-04T13:13:44.073Z</time></trkpt><trkpt lat="41.5852554" lon="13.7899032"><ele>636.3333333333334</ele><time>2026-05-04T13:13:45.075Z</time></trkpt><trkpt lat="41.5851107" lon="13.7900241"><ele>636.0</ele><time>2026-05-04T13:13:46.074Z</time></trkpt><trkpt lat="41.5849764" lon="13.7901606"><ele>626.3333333333334</ele><time>2026-05-04T13:13:47.074Z</time></trkpt><trkpt lat="41.5848343" lon="13.7902875"><ele>616.6666666666667</ele><time>2026-05-04T13:13:48.075Z</time></trkpt><trkpt lat="41.58469" lon="13.7903881"><ele>607.0</ele><time>2026-05-04T13:13:49.075Z</time></trkpt><trkpt lat="41.5845489" lon="13.7904824"><ele>611.25</ele><time>2026-05-04T13:13:50.075Z</time></trkpt><trkpt lat="41.5844056" lon="13.7905817"><ele>615.5</ele><time>2026-05-04T13:13:51.074Z</time></trkpt><trkpt lat="41.584268" lon="13.7906696"><ele>619.75</ele><time>2026-05-04T13:13:52.075Z</time></trkpt><trkpt lat="41.5841409" lon="13.7907279"><ele>624.0</ele><time>2026-05-04T13:13:53.074Z</time></trkpt><trkpt lat="41.5840167" lon="13.7907579"><ele>624.0</ele><time>2026-05-04T13:13:54.075Z</time></trkpt><trkpt lat="41.583889" lon="13.7907563"><ele>624.0</ele><time>2026-05-04T13:13:55.075Z</time></trkpt><trkpt lat="41.5837632" lon="13.7907209"><ele>624.0</ele><time>2026-05-04T13:13:56.074Z</time></trkpt><trkpt lat="41.5836532" lon="13.7906731"><ele>624.0</ele><time>2026-05-04T13:13:57.075Z</time></trkpt><trkpt lat="41.5835589" lon="13.7906393"><ele>625.0</ele><time>2026-05-04T13:13:58.074Z</time></trkpt><trkpt lat="41.5834687" lon="13.7906268"><ele>626.0</ele><time>2026-05-04T13:13:59.074Z</time></trkpt><trkpt lat="41.5833682" lon="13.7906399"><ele>627.0</ele><time>2026-05-04T13:14:00.075Z</time></trkpt><trkpt lat="41.5832539" lon="13.7906732"><ele>628.0</ele><time>2026-05-04T13:14:01.074Z</time></trkpt><trkpt lat="41.5831329" lon="13.7907276"><ele>629.0</ele><time>2026-05-04T13:14:02.075Z</time></trkpt><trkpt lat="41.5830214" lon="13.7907806"><ele>629.0</ele><time>2026-05-04T13:14:03.075Z</time></trkpt><trkpt lat="41.5829269" lon="13.7908061"><ele>629.0</ele><time>2026-05-04T13:14:04.075Z</time></trkpt><trkpt lat="41.5828386" lon="13.7907958"><ele>629.0</ele><time>2026-05-04T13:14:05.075Z</time></trkpt><trkpt lat="41.5827445" lon="13.7907242"><ele>629.0</ele><time>2026-05-04T13:14:06.074Z</time></trkpt><trkpt lat="41.5826341" lon="13.7906089"><ele>629.0</ele><time>2026-05-04T13:14:07.074Z</time></trkpt><trkpt lat="41.5825252" lon="13.7904628"><ele>626.8</ele><time>2026-05-04T13:14:08.075Z</time></trkpt><trkpt lat="41.5824265" lon="13.7903319"><ele>624.5999999999999</ele><time>2026-05-04T13:14:09.075Z</time></trkpt><trkpt lat="41.582344" lon="13.7902362"><ele>622.4</ele><time>2026-05-04T13:14:10.075Z</time></trkpt><trkpt lat="41.5822742" lon="13.790186"><ele>620.1999999999999</ele><time>2026-05-04T13:14:11.075Z</time></trkpt><trkpt lat="41.5821971" lon="13.7901933"><ele>618.0</ele><time>2026-05-04T13:14:12.074Z</time></trkpt><trkpt lat="41.5821058" lon="13.7902691"><ele>625.0</ele><time>2026-05-04T13:14:13.075Z</time></trkpt><trkpt lat="41.5820103" lon="13.790403"><ele>632.0</ele><time>2026-05-04T13:14:14.075Z</time></trkpt><trkpt lat="41.5818986" lon="13.7905823"><ele>639.0</ele><time>2026-05-04T13:14:15.074Z</time></trkpt><trkpt lat="41.5817832" lon="13.7907735"><ele>639.0</ele><time>2026-05-04T13:14:16.075Z</time></trkpt><trkpt lat="41.5816668" lon="13.7909428"><ele>639.0</ele><time>2026-05-04T13:14:17.074Z</time></trkpt><trkpt lat="41.5815462" lon="13.7910705"><ele>639.0</ele><time>2026-05-04T13:14:18.075Z</time></trkpt><trkpt lat="41.5813936" lon="13.7911814"><ele>640.3333333333334</ele><time>2026-05-04T13:14:19.075Z</time></trkpt><trkpt lat="41.5812078" lon="13.7912903"><ele>641.6666666666667</ele><time>2026-05-04T13:14:20.075Z</time></trkpt><trkpt lat="41.5810248" lon="13.7913959"><ele>643.0</ele><time>2026-05-04T13:14:21.075Z</time></trkpt><trkpt lat="41.5808718" lon="13.7914987"><ele>643.0</ele><time>2026-05-04T13:14:22.074Z</time></trkpt><trkpt lat="41.5807409" lon="13.7916224"><ele>643.0</ele><time>2026-05-04T13:14:23.075Z</time></trkpt><trkpt lat="41.5806177" lon="13.7917588"><ele>643.0</ele><time>2026-05-04T13:14:24.075Z</time></trkpt><trkpt lat="41.5804882" lon="13.7919104"><ele>645.0</ele><time>2026-05-04T13:14:25.075Z</time></trkpt><trkpt lat="41.5803774" lon="13.7920792"><ele>647.0</ele><time>2026-05-04T13:14:26.075Z</time></trkpt><trkpt lat="41.5802566" lon="13.7922257"><ele>649.0</ele><time>2026-05-04T13:14:27.075Z</time></trkpt><trkpt lat="41.5801178" lon="13.7923386"><ele>649.0</ele><time>2026-05-04T13:14:28.075Z</time></trkpt><trkpt lat="41.5799392" lon="13.7924537"><ele>649.0</ele><time>2026-05-04T13:14:29.074Z</time></trkpt><trkpt lat="41.5797559" lon="13.792582"><ele>649.0</ele><time>2026-05-04T13:14:30.075Z</time></trkpt><trkpt lat="41.5795835" lon="13.792705"><ele>645.3333333333334</ele><time>2026-05-04T13:14:31.075Z</time></trkpt><trkpt lat="41.5794268" lon="13.7928157"><ele>641.6666666666666</ele><time>2026-05-04T13:14:32.074Z</time></trkpt><trkpt lat="41.5792677" lon="13.7928944"><ele>638.0</ele><time>2026-05-04T13:14:33.074Z</time></trkpt><trkpt lat="41.5790979" lon="13.7929587"><ele>638.0</ele><time>2026-05-04T13:14:34.075Z</time></trkpt><trkpt lat="41.5789262" lon="13.7930348"><ele>638.0</ele><time>2026-05-04T13:14:35.075Z</time></trkpt><trkpt lat="41.5787758" lon="13.7931299"><ele>638.0</ele><time>2026-05-04T13:14:36.075Z</time></trkpt><trkpt lat="41.5786535" lon="13.7932181"><ele>640.5</ele><time>2026-05-04T13:14:37.075Z</time></trkpt><trkpt lat="41.5785285" lon="13.7932655"><ele>643.0</ele><time>2026-05-04T13:14:38.074Z</time></trkpt><trkpt lat="41.5783889" lon="13.7932723"><ele>645.5</ele><time>2026-05-04T13:14:39.074Z</time></trkpt><trkpt lat="41.5782228" lon="13.7932692"><ele>648.0</ele><time>2026-05-04T13:14:40.074Z</time></trkpt><trkpt lat="41.5780594" lon="13.7932775"><ele>648.0</ele><time>2026-05-04T13:14:41.075Z</time></trkpt><trkpt lat="41.5778974" lon="13.7933148"><ele>648.0</ele><time>2026-05-04T13:14:42.074Z</time></trkpt><trkpt lat="41.5777221" lon="13.7933942"><ele>648.0</ele><time>2026-05-04T13:14:43.075Z</time></trkpt><trkpt lat="41.5775571" lon="13.7934564"><ele>654.0</ele><time>2026-05-04T13:14:44.075Z</time></trkpt><trkpt lat="41.5774148" lon="13.7934851"><ele>660.0</ele><time>2026-05-04T13:14:45.074Z</time></trkpt><trkpt lat="41.5772593" lon="13.7934749"><ele>666.0</ele><time>2026-05-04T13:14:46.075Z</time></trkpt><trkpt lat="41.5770892" lon="13.7934506"><ele>669.0</ele><time>2026-05-04T13:14:47.074Z</time></trkpt><trkpt lat="41.5768993" lon="13.7934435"><ele>672.0</ele><time>2026-05-04T13:14:48.074Z</time></trkpt><trkpt lat="41.5766849" lon="13.7934666"><ele>675.0</ele><time>2026-05-04T13:14:49.074Z</time></trkpt><trkpt lat="41.5764479" lon="13.7935007"><ele>668.5</ele><time>2026-05-04T13:14:50.075Z</time></trkpt><trkpt lat="41.5762088" lon="13.7935467"><ele>662.0</ele><time>2026-05-04T13:14:51.075Z</time></trkpt><trkpt lat="41.5759643" lon="13.7936059"><ele>662.0</ele><time>2026-05-04T13:14:52.075Z</time></trkpt><trkpt lat="41.575714" lon="13.7936709"><ele>662.0</ele><time>2026-05-04T13:14:53.075Z</time></trkpt><trkpt lat="41.5754583" lon="13.7937385"><ele>667.0</ele><time>2026-05-04T13:14:54.075Z</time></trkpt><trkpt lat="41.5752179" lon="13.793798"><ele>672.0</ele><time>2026-05-04T13:14:55.075Z</time></trkpt><trkpt lat="41.5750045" lon="13.7938496"><ele>672.0</ele><time>2026-05-04T13:14:56.074Z</time></trkpt><trkpt lat="41.5748219" lon="13.7938921"><ele>672.0</ele><time>2026-05-04T13:14:57.075Z</time></trkpt><trkpt lat="41.574662" lon="13.7939081"><ele>672.0</ele><time>2026-05-04T13:14:58.075Z</time></trkpt><trkpt lat="41.574521" lon="13.7939208"><ele>674.75</ele><time>2026-05-04T13:14:59.074Z</time></trkpt><trkpt lat="41.5743842" lon="13.7939655"><ele>677.5</ele><time>2026-05-04T13:15:00.075Z</time></trkpt><trkpt lat="41.5742519" lon="13.7940384"><ele>680.25</ele><time>2026-05-04T13:15:01.075Z</time></trkpt><trkpt lat="41.5741189" lon="13.7941485"><ele>683.0</ele><time>2026-05-04T13:15:02.074Z</time></trkpt><trkpt lat="41.5739942" lon="13.7943107"><ele>683.3333333333333</ele><time>2026-05-04T13:15:03.074Z</time></trkpt><trkpt lat="41.57388" lon="13.7944965"><ele>683.6666666666666</ele><time>2026-05-04T13:15:04.075Z</time></trkpt><trkpt lat="41.5737697" lon="13.7946575"><ele>684.0</ele><time>2026-05-04T13:15:05.075Z</time></trkpt><trkpt lat="41.5736704" lon="13.794775"><ele>684.0</ele><time>2026-05-04T13:15:06.074Z</time></trkpt><trkpt lat="41.5735632" lon="13.7948361"><ele>684.0</ele><time>2026-05-04T13:15:07.074Z</time></trkpt><trkpt lat="41.5734416" lon="13.7948752"><ele>684.0</ele><time>2026-05-04T13:15:08.074Z</time></trkpt><trkpt lat="41.5732826" lon="13.7949179"><ele>684.0</ele><time>2026-05-04T13:15:09.075Z</time></trkpt><trkpt lat="41.5731075" lon="13.7949914"><ele>684.0</ele><time>2026-05-04T13:15:10.074Z</time></trkpt><trkpt lat="41.5729424" lon="13.7950781"><ele>684.0</ele><time>2026-05-04T13:15:11.074Z</time></trkpt><trkpt lat="41.5728034" lon="13.7951542"><ele>684.0</ele><time>2026-05-04T13:15:12.075Z</time></trkpt><trkpt lat="41.5726733" lon="13.7951895"><ele>683.4000000000001</ele><time>2026-05-04T13:15:13.075Z</time></trkpt><trkpt lat="41.5725466" lon="13.7951832"><ele>682.8</ele><time>2026-05-04T13:15:14.074Z</time></trkpt><trkpt lat="41.5724268" lon="13.795154"><ele>682.2</ele><time>2026-05-04T13:15:15.074Z</time></trkpt><trkpt lat="41.5723252" lon="13.7951357"><ele>681.5999999999999</ele><time>2026-05-04T13:15:16.075Z</time></trkpt><trkpt lat="41.5722338" lon="13.795166"><ele>681.0</ele><time>2026-05-04T13:15:17.075Z</time></trkpt><trkpt lat="41.5721638" lon="13.7952598"><ele>681.0</ele><time>2026-05-04T13:15:18.075Z</time></trkpt><trkpt lat="41.5721051" lon="13.7954105"><ele>681.0</ele><time>2026-05-04T13:15:19.075Z</time></trkpt><trkpt lat="41.5720593" lon="13.7956066"><ele>681.0</ele><time>2026-05-04T13:15:20.074Z</time></trkpt><trkpt lat="41.5720076" lon="13.7958124"><ele>681.0</ele><time>2026-05-04T13:15:21.074Z</time></trkpt><trkpt lat="41.5719525" lon="13.7959887"><ele>682.0</ele><time>2026-05-04T13:15:22.075Z</time></trkpt><trkpt lat="41.5718813" lon="13.7961328"><ele>683.0</ele><time>2026-05-04T13:15:23.075Z</time></trkpt><trkpt lat="41.5717841" lon="13.7962636"><ele>684.0</ele><time>2026-05-04T13:15:24.074Z</time></trkpt><trkpt lat="41.5716498" lon="13.7964023"><ele>685.0</ele><time>2026-05-04T13:15:25.075Z</time></trkpt><trkpt lat="41.5714908" lon="13.7965451"><ele>685.0</ele><time>2026-05-04T13:15:26.075Z</time></trkpt><trkpt lat="41.5713514" lon="13.796662"><ele>685.0</ele><time>2026-05-04T13:15:27.074Z</time></trkpt><trkpt lat="41.5712375" lon="13.7967546"><ele>685.0</ele><time>2026-05-04T13:15:28.075Z</time></trkpt><trkpt lat="41.5711192" lon="13.7968094"><ele>685.0</ele><time>2026-05-04T13:15:29.074Z</time></trkpt><trkpt lat="41.5709831" lon="13.7968334"><ele>683.3333333333334</ele><time>2026-05-04T13:15:30.074Z</time></trkpt><trkpt lat="41.570825" lon="13.7968512"><ele>681.6666666666666</ele><time>2026-05-04T13:15:31.075Z</time></trkpt><trkpt lat="41.5706708" lon="13.796887"><ele>680.0</ele><time>2026-05-04T13:15:32.074Z</time></trkpt><trkpt lat="41.570536" lon="13.7969473"><ele>680.0</ele><time>2026-05-04T13:15:33.074Z</time></trkpt><trkpt lat="41.5704176" lon="13.7970128"><ele>680.0</ele><time>2026-05-04T13:15:34.075Z</time></trkpt><trkpt lat="41.5702984" lon="13.7970517"><ele>680.0</ele><time>2026-05-04T13:15:35.074Z</time></trkpt><trkpt lat="41.5701701" lon="13.7970615"><ele>680.0</ele><time>2026-05-04T13:15:36.075Z</time></trkpt><trkpt lat="41.5700191" lon="13.7970471"><ele>680.5</ele><time>2026-05-04T13:15:37.074Z</time></trkpt><trkpt lat="41.5698702" lon="13.7970229"><ele>681.0</ele><time>2026-05-04T13:15:38.075Z</time></trkpt><trkpt lat="41.5697299" lon="13.7969872"><ele>681.5</ele><time>2026-05-04T13:15:39.074Z</time></trkpt><trkpt lat="41.5696124" lon="13.7969411"><ele>682.0</ele><time>2026-05-04T13:15:40.075Z</time></trkpt><trkpt lat="41.5695121" lon="13.7968841"><ele>681.75</ele><time>2026-05-04T13:15:41.074Z</time></trkpt><trkpt lat="41.5694334" lon="13.7967944"><ele>681.5</ele><time>2026-05-04T13:15:42.075Z</time></trkpt><trkpt lat="41.5693813" lon="13.7966669"><ele>681.25</ele><time>2026-05-04T13:15:43.075Z</time></trkpt><trkpt lat="41.5693514" lon="13.796479"><ele>681.0</ele><time>2026-05-04T13:15:44.075Z</time></trkpt><trkpt lat="41.5693219" lon="13.7962635"><ele>681.0</ele><time>2026-05-04T13:15:45.075Z</time></trkpt><trkpt lat="41.569275" lon="13.7960535"><ele>681.0</ele><time>2026-05-04T13:15:46.074Z</time></trkpt><trkpt lat="41.5692017" lon="13.7958373"><ele>681.0</ele><time>2026-05-04T13:15:47.074Z</time></trkpt><trkpt lat="41.5690937" lon="13.7956103"><ele>683.3333333333334</ele><time>2026-05-04T13:15:48.075Z</time></trkpt><trkpt lat="41.5689903" lon="13.795417"><ele>685.6666666666667</ele><time>2026-05-04T13:15:49.074Z</time></trkpt><trkpt lat="41.5688983" lon="13.7952507"><ele>688.0</ele><time>2026-05-04T13:15:50.075Z</time></trkpt><trkpt lat="41.5688039" lon="13.7951086"><ele>686.8</ele><time>2026-05-04T13:15:51.074Z</time></trkpt><trkpt lat="41.5686944" lon="13.7949932"><ele>685.5999999999999</ele><time>2026-05-04T13:15:52.075Z</time></trkpt><trkpt lat="41.5685909" lon="13.7949093"><ele>684.4000000000001</ele><time>2026-05-04T13:15:53.075Z</time></trkpt><trkpt lat="41.5685119" lon="13.7948284"><ele>683.2</ele><time>2026-05-04T13:15:54.074Z</time></trkpt><trkpt lat="41.568461" lon="13.7947413"><ele>682.0</ele><time>2026-05-04T13:15:55.075Z</time></trkpt><trkpt lat="41.5684896" lon="13.7945726"><ele>682.0</ele><time>2026-05-04T13:15:57.074Z</time></trkpt><trkpt lat="41.5685569" lon="13.7944636"><ele>682.0</ele><time>2026-05-04T13:15:58.074Z</time></trkpt><trkpt lat="41.5686345" lon="13.7943431"><ele>682.0</ele><time>2026-05-04T13:15:59.075Z</time></trkpt><trkpt lat="41.5687019" lon="13.7942141"><ele>682.0</ele><time>2026-05-04T13:16:00.074Z</time></trkpt><trkpt lat="41.5687547" lon="13.794083"><ele>681.25</ele><time>2026-05-04T13:16:01.075Z</time></trkpt><trkpt lat="41.5687953" lon="13.7939436"><ele>680.5</ele><time>2026-05-04T13:16:02.075Z</time></trkpt><trkpt lat="41.5688319" lon="13.7937862"><ele>679.75</ele><time>2026-05-04T13:16:03.075Z</time></trkpt><trkpt lat="41.5688825" lon="13.7936295"><ele>679.0</ele><time>2026-05-04T13:16:04.074Z</time></trkpt><trkpt lat="41.5689557" lon="13.7934751"><ele>679.0</ele><time>2026-05-04T13:16:05.075Z</time></trkpt><trkpt lat="41.5690388" lon="13.7933412"><ele>679.0</ele><time>2026-05-04T13:16:06.075Z</time></trkpt><trkpt lat="41.5691077" lon="13.7932261"><ele>679.0</ele><time>2026-05-04T13:16:07.075Z</time></trkpt><trkpt lat="41.5691416" lon="13.7931108"><ele>679.0</ele><time>2026-05-04T13:16:08.075Z</time></trkpt><trkpt lat="41.5691469" lon="13.7929507"><ele>679.0</ele><time>2026-05-04T13:16:09.074Z</time></trkpt><trkpt lat="41.5691227" lon="13.7927568"><ele>679.0</ele><time>2026-05-04T13:16:10.074Z</time></trkpt><trkpt lat="41.5690738" lon="13.7925389"><ele>679.0</ele><time>2026-05-04T13:16:11.075Z</time></trkpt><trkpt lat="41.5690337" lon="13.7923313"><ele>676.0</ele><time>2026-05-04T13:16:12.074Z</time></trkpt><trkpt lat="41.569022" lon="13.7921287"><ele>673.0</ele><time>2026-05-04T13:16:13.074Z</time></trkpt><trkpt lat="41.5690313" lon="13.7919414"><ele>670.0</ele><time>2026-05-04T13:16:14.075Z</time></trkpt><trkpt lat="41.5690446" lon="13.7917616"><ele>667.0</ele><time>2026-05-04T13:16:15.075Z</time></trkpt><trkpt lat="41.5690372" lon="13.7915919"><ele>665.4000000000001</ele><time>2026-05-04T13:16:16.075Z</time></trkpt><trkpt lat="41.5690088" lon="13.7914321"><ele>663.8000000000001</ele><time>2026-05-04T13:16:17.075Z</time></trkpt><trkpt lat="41.5689785" lon="13.7912953"><ele>662.2</ele><time>2026-05-04T13:16:18.075Z</time></trkpt><trkpt lat="41.5689641" lon="13.7911734"><ele>660.6</ele><time>2026-05-04T13:16:19.075Z</time></trkpt><trkpt lat="41.5689779" lon="13.7910534"><ele>659.0</ele><time>2026-05-04T13:16:20.074Z</time></trkpt><trkpt lat="41.5689976" lon="13.790934"><ele>658.0</ele><time>2026-05-04T13:16:21.075Z</time></trkpt><trkpt lat="41.5690076" lon="13.7908151"><ele>657.0</ele><time>2026-05-04T13:16:22.074Z</time></trkpt><trkpt lat="41.5690192" lon="13.7907071"><ele>656.0</ele><time>2026-05-04T13:16:23.075Z</time></trkpt><trkpt lat="41.5690474" lon="13.7906042"><ele>655.0</ele><time>2026-05-04T13:16:24.075Z</time></trkpt><trkpt lat="41.5691038" lon="13.7905128"><ele>654.0</ele><time>2026-05-04T13:16:25.075Z</time></trkpt><trkpt lat="41.5691831" lon="13.7904088"><ele>654.0</ele><time>2026-05-04T13:16:26.074Z</time></trkpt><trkpt lat="41.5692612" lon="13.7902909"><ele>654.0</ele><time>2026-05-04T13:16:27.074Z</time></trkpt><trkpt lat="41.569316" lon="13.7901581"><ele>654.0</ele><time>2026-05-04T13:16:28.075Z</time></trkpt><trkpt lat="41.5693429" lon="13.7899987"><ele>654.0</ele><time>2026-05-04T13:16:29.075Z</time></trkpt><trkpt lat="41.5693602" lon="13.789816"><ele>654.75</ele><time>2026-05-04T13:16:30.075Z</time></trkpt><trkpt lat="41.5693648" lon="13.7896262"><ele>655.5</ele><time>2026-05-04T13:16:31.075Z</time></trkpt><trkpt lat="41.5693672" lon="13.7894556"><ele>656.25</ele><time>2026-05-04T13:16:32.075Z</time></trkpt><trkpt lat="41.5693476" lon="13.789272"><ele>657.0</ele><time>2026-05-04T13:16:33.074Z</time></trkpt><trkpt lat="41.5693028" lon="13.7890707"><ele>660.0</ele><time>2026-05-04T13:16:34.075Z</time></trkpt><trkpt lat="41.5692387" lon="13.7888448"><ele>663.0</ele><time>2026-05-04T13:16:35.074Z</time></trkpt><trkpt lat="41.5691573" lon="13.7886232"><ele>666.0</ele><time>2026-05-04T13:16:36.074Z</time></trkpt><trkpt lat="41.56908" lon="13.7883926"><ele>667.6666666666666</ele><time>2026-05-04T13:16:37.074Z</time></trkpt><trkpt lat="41.5690129" lon="13.7881646"><ele>669.3333333333333</ele><time>2026-05-04T13:16:38.074Z</time></trkpt><trkpt lat="41.5689452" lon="13.7879698"><ele>671.0</ele><time>2026-05-04T13:16:39.075Z</time></trkpt><trkpt lat="41.5688618" lon="13.7877977"><ele>675.3333333333333</ele><time>2026-05-04T13:16:40.075Z</time></trkpt><trkpt lat="41.5687537" lon="13.7876324"><ele>679.6666666666666</ele><time>2026-05-04T13:16:41.074Z</time></trkpt><trkpt lat="41.5686241" lon="13.7874772"><ele>684.0</ele><time>2026-05-04T13:16:42.074Z</time></trkpt><trkpt lat="41.5684783" lon="13.7873293"><ele>684.0</ele><time>2026-05-04T13:16:43.074Z</time></trkpt><trkpt lat="41.5683116" lon="13.7872023"><ele>684.0</ele><time>2026-05-04T13:16:44.074Z</time></trkpt><trkpt lat="41.568157" lon="13.7870874"><ele>684.0</ele><time>2026-05-04T13:16:45.075Z</time></trkpt><trkpt lat="41.5680245" lon="13.7869708"><ele>684.0</ele><time>2026-05-04T13:16:46.074Z</time></trkpt><trkpt lat="41.5679235" lon="13.7868549"><ele>684.0</ele><time>2026-05-04T13:16:47.074Z</time></trkpt><trkpt lat="41.5678417" lon="13.7867449"><ele>684.0</ele><time>2026-05-04T13:16:48.074Z</time></trkpt><trkpt lat="41.5677766" lon="13.7866615"><ele>684.0</ele><time>2026-05-04T13:16:49.075Z</time></trkpt><trkpt lat="41.5677285" lon="13.7865999"><ele>684.0</ele><time>2026-05-04T13:16:50.074Z</time></trkpt><trkpt lat="41.5676529" lon="13.7865644"><ele>684.4000000000001</ele><time>2026-05-04T13:16:52.075Z</time></trkpt><trkpt lat="41.5675758" lon="13.7865538"><ele>684.8</ele><time>2026-05-04T13:16:55.075Z</time></trkpt><trkpt lat="41.5674371" lon="13.7865785"><ele>685.2</ele><time>2026-05-04T13:16:57.074Z</time></trkpt><trkpt lat="41.5673336" lon="13.7865703"><ele>685.5999999999999</ele><time>2026-05-04T13:16:58.075Z</time></trkpt><trkpt lat="41.5672128" lon="13.7865263"><ele>686.0</ele><time>2026-05-04T13:16:59.075Z</time></trkpt><trkpt lat="41.5670733" lon="13.786478"><ele>685.75</ele><time>2026-05-04T13:17:00.075Z</time></trkpt><trkpt lat="41.5669289" lon="13.786444"><ele>685.5</ele><time>2026-05-04T13:17:01.075Z</time></trkpt><trkpt lat="41.5667795" lon="13.786425"><ele>685.25</ele><time>2026-05-04T13:17:02.074Z</time></trkpt><trkpt lat="41.566637" lon="13.7864298"><ele>685.0</ele><time>2026-05-04T13:17:03.074Z</time></trkpt><trkpt lat="41.5664799" lon="13.7864455"><ele>685.0</ele><time>2026-05-04T13:17:04.074Z</time></trkpt><trkpt lat="41.5663167" lon="13.7864503"><ele>685.0</ele><time>2026-05-04T13:17:05.074Z</time></trkpt><trkpt lat="41.5661549" lon="13.7864289"><ele>685.0</ele><time>2026-05-04T13:17:06.075Z</time></trkpt><trkpt lat="41.5659918" lon="13.786375"><ele>689.0</ele><time>2026-05-04T13:17:07.074Z</time></trkpt><trkpt lat="41.5658225" lon="13.7863109"><ele>693.0</ele><time>2026-05-04T13:17:08.074Z</time></trkpt><trkpt lat="41.5656349" lon="13.7862306"><ele>697.0</ele><time>2026-05-04T13:17:09.074Z</time></trkpt><trkpt lat="41.5654363" lon="13.786146"><ele>700.0</ele><time>2026-05-04T13:17:10.075Z</time></trkpt><trkpt lat="41.5652328" lon="13.7860689"><ele>703.0</ele><time>2026-05-04T13:17:11.074Z</time></trkpt><trkpt lat="41.5650225" lon="13.7860061"><ele>706.0</ele><time>2026-05-04T13:17:12.075Z</time></trkpt><trkpt lat="41.5648039" lon="13.7859469"><ele>708.5</ele><time>2026-05-04T13:17:13.075Z</time></trkpt><trkpt lat="41.5645798" lon="13.7858699"><ele>711.0</ele><time>2026-05-04T13:17:14.074Z</time></trkpt><trkpt lat="41.5643566" lon="13.7857853"><ele>714.0</ele><time>2026-05-04T13:17:15.074Z</time></trkpt><trkpt lat="41.5641574" lon="13.7856937"><ele>717.0</ele><time>2026-05-04T13:17:16.075Z</time></trkpt><trkpt lat="41.5639747" lon="13.7856132"><ele>720.0</ele><time>2026-05-04T13:17:17.075Z</time></trkpt><trkpt lat="41.5638059" lon="13.7855354"><ele>723.0</ele><time>2026-05-04T13:17:18.075Z</time></trkpt><trkpt lat="41.563641" lon="13.7854326"><ele>726.0</ele><time>2026-05-04T13:17:19.075Z</time></trkpt><trkpt lat="41.5634822" lon="13.7853282"><ele>729.0</ele><time>2026-05-04T13:17:20.075Z</time></trkpt><trkpt lat="41.5633433" lon="13.7852417"><ele>729.0</ele><time>2026-05-04T13:17:21.075Z</time></trkpt><trkpt lat="41.5632356" lon="13.7851784"><ele>729.0</ele><time>2026-05-04T13:17:22.075Z</time></trkpt><trkpt lat="41.5631526" lon="13.7851605"><ele>729.0</ele><time>2026-05-04T13:17:23.074Z</time></trkpt><trkpt lat="41.5630702" lon="13.7851989"><ele>729.0</ele><time>2026-05-04T13:17:24.075Z</time></trkpt><trkpt lat="41.5629772" lon="13.7852995"><ele>729.0</ele><time>2026-05-04T13:17:25.075Z</time></trkpt><trkpt lat="41.5628681" lon="13.785415"><ele>733.5</ele><time>2026-05-04T13:17:26.074Z</time></trkpt><trkpt lat="41.5627554" lon="13.7854943"><ele>738.0</ele><time>2026-05-04T13:17:27.075Z</time></trkpt><trkpt lat="41.5626293" lon="13.7855514"><ele>742.5</ele><time>2026-05-04T13:17:28.075Z</time></trkpt><trkpt lat="41.5624767" lon="13.7855996"><ele>747.0</ele><time>2026-05-04T13:17:29.075Z</time></trkpt><trkpt lat="41.5623233" lon="13.7856496"><ele>747.0</ele><time>2026-05-04T13:17:30.075Z</time></trkpt><trkpt lat="41.5621874" lon="13.7856938"><ele>747.0</ele><time>2026-05-04T13:17:31.074Z</time></trkpt><trkpt lat="41.5620671" lon="13.7857084"><ele>747.0</ele><time>2026-05-04T13:17:32.074Z</time></trkpt><trkpt lat="41.5619753" lon="13.7856741"><ele>747.0</ele><time>2026-05-04T13:17:33.075Z</time></trkpt><trkpt lat="41.5619006" lon="13.785611"><ele>747.0</ele><time>2026-05-04T13:17:34.074Z</time></trkpt><trkpt lat="41.5618366" lon="13.7854916"><ele>749.6666666666666</ele><time>2026-05-04T13:17:35.075Z</time></trkpt><trkpt lat="41.5617511" lon="13.7853303"><ele>752.3333333333333</ele><time>2026-05-04T13:17:36.075Z</time></trkpt><trkpt lat="41.5616543" lon="13.7851362"><ele>755.0</ele><time>2026-05-04T13:17:37.074Z</time></trkpt><trkpt lat="41.5615394" lon="13.7849286"><ele>758.3333333333333</ele><time>2026-05-04T13:17:38.075Z</time></trkpt><trkpt lat="41.5614282" lon="13.7847221"><ele>761.6666666666666</ele><time>2026-05-04T13:17:39.074Z</time></trkpt><trkpt lat="41.5613263" lon="13.7845092"><ele>765.0</ele><time>2026-05-04T13:17:40.075Z</time></trkpt><trkpt lat="41.5612329" lon="13.7842882"><ele>769.0</ele><time>2026-05-04T13:17:41.074Z</time></trkpt><trkpt lat="41.5611506" lon="13.7840673"><ele>773.0</ele><time>2026-05-04T13:17:42.075Z</time></trkpt><trkpt lat="41.5610897" lon="13.7838726"><ele>777.0</ele><time>2026-05-04T13:17:43.075Z</time></trkpt><trkpt lat="41.5610313" lon="13.7837028"><ele>777.0</ele><time>2026-05-04T13:17:44.074Z</time></trkpt><trkpt lat="41.5609642" lon="13.783569"><ele>777.0</ele><time>2026-05-04T13:17:45.075Z</time></trkpt><trkpt lat="41.5608876" lon="13.7834657"><ele>777.0</ele><time>2026-05-04T13:17:46.074Z</time></trkpt><trkpt lat="41.560791" lon="13.7834094"><ele>777.0</ele><time>2026-05-04T13:17:47.074Z</time></trkpt><trkpt lat="41.560666" lon="13.7834024"><ele>778.6666666666667</ele><time>2026-05-04T13:17:48.074Z</time></trkpt><trkpt lat="41.5604986" lon="13.7834151"><ele>780.3333333333334</ele><time>2026-05-04T13:17:49.074Z</time></trkpt><trkpt lat="41.56032" lon="13.7834339"><ele>782.0</ele><time>2026-05-04T13:17:50.075Z</time></trkpt><trkpt lat="41.5601546" lon="13.7834539"><ele>785.25</ele><time>2026-05-04T13:17:51.074Z</time></trkpt><trkpt lat="41.5600096" lon="13.7834635"><ele>788.5</ele><time>2026-05-04T13:17:52.075Z</time></trkpt><trkpt lat="41.5598789" lon="13.7834467"><ele>791.75</ele><time>2026-05-04T13:17:53.075Z</time></trkpt><trkpt lat="41.5597578" lon="13.7834182"><ele>795.0</ele><time>2026-05-04T13:17:54.075Z</time></trkpt><trkpt lat="41.5596664" lon="13.7833693"><ele>795.0</ele><time>2026-05-04T13:17:55.074Z</time></trkpt><trkpt lat="41.5595985" lon="13.7833139"><ele>795.0</ele><time>2026-05-04T13:17:56.074Z</time></trkpt><trkpt lat="41.5595272" lon="13.7832242"><ele>795.0</ele><time>2026-05-04T13:17:57.075Z</time></trkpt><trkpt lat="41.559455" lon="13.7831078"><ele>795.0</ele><time>2026-05-04T13:17:58.074Z</time></trkpt><trkpt lat="41.5593756" lon="13.7829591"><ele>795.0</ele><time>2026-05-04T13:17:59.074Z</time></trkpt><trkpt lat="41.5592912" lon="13.7827918"><ele>798.75</ele><time>2026-05-04T13:18:00.074Z</time></trkpt><trkpt lat="41.5592179" lon="13.7826158"><ele>802.5</ele><time>2026-05-04T13:18:01.074Z</time></trkpt><trkpt lat="41.5591598" lon="13.782452"><ele>806.25</ele><time>2026-05-04T13:18:02.074Z</time></trkpt><trkpt lat="41.5591192" lon="13.7822895"><ele>810.0</ele><time>2026-05-04T13:18:03.075Z</time></trkpt><trkpt lat="41.5590889" lon="13.7821022"><ele>810.0</ele><time>2026-05-04T13:18:04.074Z</time></trkpt><trkpt lat="41.5590721" lon="13.7818957"><ele>810.0</ele><time>2026-05-04T13:18:05.075Z</time></trkpt><trkpt lat="41.5590602" lon="13.7816991"><ele>810.0</ele><time>2026-05-04T13:18:06.075Z</time></trkpt><trkpt lat="41.5590433" lon="13.7815168"><ele>810.0</ele><time>2026-05-04T13:18:07.075Z</time></trkpt><trkpt lat="41.5590098" lon="13.7813496"><ele>812.5</ele><time>2026-05-04T13:18:08.075Z</time></trkpt><trkpt lat="41.5589567" lon="13.7811839"><ele>815.0</ele><time>2026-05-04T13:18:09.075Z</time></trkpt><trkpt lat="41.5588765" lon="13.7810292"><ele>817.5</ele><time>2026-05-04T13:18:10.075Z</time></trkpt><trkpt lat="41.5587723" lon="13.7808545"><ele>820.0</ele><time>2026-05-04T13:18:11.075Z</time></trkpt><trkpt lat="41.5586376" lon="13.7806474"><ele>821.0</ele><time>2026-05-04T13:18:12.075Z</time></trkpt><trkpt lat="41.5584761" lon="13.7804156"><ele>822.0</ele><time>2026-05-04T13:18:13.074Z</time></trkpt><trkpt lat="41.5583092" lon="13.7801709"><ele>825.3333333333333</ele><time>2026-05-04T13:18:14.075Z</time></trkpt><trkpt lat="41.5581519" lon="13.7799409"><ele>828.6666666666666</ele><time>2026-05-04T13:18:15.074Z</time></trkpt><trkpt lat="41.5580175" lon="13.7797362"><ele>832.0</ele><time>2026-05-04T13:18:16.075Z</time></trkpt><trkpt lat="41.5579007" lon="13.7795734"><ele>832.75</ele><time>2026-05-04T13:18:17.074Z</time></trkpt><trkpt lat="41.557804" lon="13.7794291"><ele>833.5</ele><time>2026-05-04T13:18:18.074Z</time></trkpt><trkpt lat="41.5577404" lon="13.7792674"><ele>834.25</ele><time>2026-05-04T13:18:19.075Z</time></trkpt><trkpt lat="41.5576913" lon="13.7790979"><ele>835.0</ele><time>2026-05-04T13:18:20.074Z</time></trkpt><trkpt lat="41.5576555" lon="13.7789467"><ele>835.0</ele><time>2026-05-04T13:18:21.075Z</time></trkpt><trkpt lat="41.5576208" lon="13.778799"><ele>835.0</ele><time>2026-05-04T13:18:22.075Z</time></trkpt><trkpt lat="41.5575618" lon="13.7786552"><ele>835.0</ele><time>2026-05-04T13:18:23.074Z</time></trkpt><trkpt lat="41.5574601" lon="13.7785307"><ele>835.0</ele><time>2026-05-04T13:18:24.074Z</time></trkpt><trkpt lat="41.5573312" lon="13.7784363"><ele>837.6666666666666</ele><time>2026-05-04T13:18:25.074Z</time></trkpt><trkpt lat="41.5571717" lon="13.7783495"><ele>840.3333333333333</ele><time>2026-05-04T13:18:26.076Z</time></trkpt><trkpt lat="41.5569968" lon="13.7782526"><ele>843.0</ele><time>2026-05-04T13:18:27.076Z</time></trkpt><trkpt lat="41.5568225" lon="13.7781418"><ele>843.0</ele><time>2026-05-04T13:18:28.076Z</time></trkpt><trkpt lat="41.5566612" lon="13.7780392"><ele>843.0</ele><time>2026-05-04T13:18:29.075Z</time></trkpt><trkpt lat="41.5565164" lon="13.7779335"><ele>843.0</ele><time>2026-05-04T13:18:30.075Z</time></trkpt><trkpt lat="41.5563779" lon="13.7778317"><ele>843.0</ele><time>2026-05-04T13:18:31.076Z</time></trkpt><trkpt lat="41.5562459" lon="13.7777232"><ele>843.0</ele><time>2026-05-04T13:18:32.076Z</time></trkpt><trkpt lat="41.5561304" lon="13.7776046"><ele>843.0</ele><time>2026-05-04T13:18:33.076Z</time></trkpt><trkpt lat="41.5560339" lon="13.7774737"><ele>843.0</ele><time>2026-05-04T13:18:34.076Z</time></trkpt><trkpt lat="41.5559527" lon="13.7773169"><ele>845.75</ele><time>2026-05-04T13:18:35.075Z</time></trkpt><trkpt lat="41.5558777" lon="13.7771543"><ele>848.5</ele><time>2026-05-04T13:18:36.076Z</time></trkpt><trkpt lat="41.5558258" lon="13.777002"><ele>851.25</ele><time>2026-05-04T13:18:37.076Z</time></trkpt><trkpt lat="41.5558028" lon="13.7768727"><ele>854.0</ele><time>2026-05-04T13:18:38.075Z</time></trkpt><trkpt lat="41.5558301" lon="13.7767457"><ele>856.5</ele><time>2026-05-04T13:18:39.076Z</time></trkpt><trkpt lat="41.5558916" lon="13.7766268"><ele>859.0</ele><time>2026-05-04T13:18:40.076Z</time></trkpt><trkpt lat="41.5559913" lon="13.7765093"><ele>861.5</ele><time>2026-05-04T13:18:41.076Z</time></trkpt><trkpt lat="41.5561259" lon="13.7764121"><ele>864.0</ele><time>2026-05-04T13:18:42.076Z</time></trkpt><trkpt lat="41.5562528" lon="13.7763251"><ele>864.5</ele><time>2026-05-04T13:18:43.075Z</time></trkpt><trkpt lat="41.5563413" lon="13.7762226"><ele>865.0</ele><time>2026-05-04T13:18:44.075Z</time></trkpt><trkpt lat="41.5563864" lon="13.7761175"><ele>865.5</ele><time>2026-05-04T13:18:45.075Z</time></trkpt><trkpt lat="41.5563926" lon="13.7760247"><ele>866.0</ele><time>2026-05-04T13:18:46.075Z</time></trkpt><trkpt lat="41.5563595" lon="13.7759454"><ele>866.5</ele><time>2026-05-04T13:18:47.074Z</time></trkpt><trkpt lat="41.5562934" lon="13.7758811"><ele>867.0</ele><time>2026-05-04T13:18:48.075Z</time></trkpt><trkpt lat="41.5561922" lon="13.7758418"><ele>870.0</ele><time>2026-05-04T13:18:49.075Z</time></trkpt><trkpt lat="41.5560694" lon="13.7758036"><ele>873.0</ele><time>2026-05-04T13:18:50.074Z</time></trkpt><trkpt lat="41.5559361" lon="13.7757548"><ele>876.0</ele><time>2026-05-04T13:18:51.074Z</time></trkpt><trkpt lat="41.5558121" lon="13.7757094"><ele>879.0</ele><time>2026-05-04T13:18:52.075Z</time></trkpt><trkpt lat="41.5556906" lon="13.7756761"><ele>879.0</ele><time>2026-05-04T13:18:53.075Z</time></trkpt><trkpt lat="41.5555788" lon="13.7757118"><ele>879.0</ele><time>2026-05-04T13:18:54.074Z</time></trkpt><trkpt lat="41.5554758" lon="13.7757968"><ele>879.0</ele><time>2026-05-04T13:18:55.075Z</time></trkpt><trkpt lat="41.5553616" lon="13.7759198"><ele>879.0</ele><time>2026-05-04T13:18:56.075Z</time></trkpt><trkpt lat="41.5552213" lon="13.7760532"><ele>880.5</ele><time>2026-05-04T13:18:57.075Z</time></trkpt><trkpt lat="41.5550814" lon="13.776181"><ele>882.0</ele><time>2026-05-04T13:18:58.074Z</time></trkpt><trkpt lat="41.5549666" lon="13.7763025"><ele>883.5</ele><time>2026-05-04T13:18:59.075Z</time></trkpt><trkpt lat="41.5548832" lon="13.7764311"><ele>885.0</ele><time>2026-05-04T13:19:00.074Z</time></trkpt><trkpt lat="41.5548382" lon="13.7765818"><ele>885.0</ele><time>2026-05-04T13:19:01.075Z</time></trkpt><trkpt lat="41.5548495" lon="13.77675"><ele>885.0</ele><time>2026-05-04T13:19:02.075Z</time></trkpt><trkpt lat="41.554886" lon="13.7769083"><ele>885.0</ele><time>2026-05-04T13:19:03.074Z</time></trkpt><trkpt lat="41.5549122" lon="13.7770574"><ele>885.0</ele><time>2026-05-04T13:19:04.075Z</time></trkpt><trkpt lat="41.5548945" lon="13.7772086"><ele>884.0</ele><time>2026-05-04T13:19:05.075Z</time></trkpt><trkpt lat="41.5548639" lon="13.7773667"><ele>883.0</ele><time>2026-05-04T13:19:06.075Z</time></trkpt><trkpt lat="41.5548225" lon="13.777507"><ele>882.0</ele><time>2026-05-04T13:19:07.074Z</time></trkpt><trkpt lat="41.5547752" lon="13.7776074"><ele>881.0</ele><time>2026-05-04T13:19:08.075Z</time></trkpt><trkpt lat="41.5547053" lon="13.7776695"><ele>880.0</ele><time>2026-05-04T13:19:09.075Z</time></trkpt><trkpt lat="41.5546227" lon="13.7776787"><ele>888.0</ele><time>2026-05-04T13:19:10.074Z</time></trkpt><trkpt lat="41.5545114" lon="13.7776589"><ele>896.0</ele><time>2026-05-04T13:19:11.074Z</time></trkpt><trkpt lat="41.554385" lon="13.7776309"><ele>904.0</ele><time>2026-05-04T13:19:12.075Z</time></trkpt><trkpt lat="41.5542643" lon="13.7776208"><ele>912.0</ele><time>2026-05-04T13:19:13.075Z</time></trkpt><trkpt lat="41.554164" lon="13.7776559"><ele>910.0</ele><time>2026-05-04T13:19:14.074Z</time></trkpt><trkpt lat="41.5540818" lon="13.7777231"><ele>908.0</ele><time>2026-05-04T13:19:15.074Z</time></trkpt><trkpt lat="41.5540286" lon="13.7778002"><ele>906.0</ele><time>2026-05-04T13:19:16.074Z</time></trkpt><trkpt lat="41.5540152" lon="13.7779002"><ele>904.0</ele><time>2026-05-04T13:19:17.075Z</time></trkpt><trkpt lat="41.5540372" lon="13.7780062"><ele>902.0</ele><time>2026-05-04T13:19:18.075Z</time></trkpt><trkpt lat="41.5540904" lon="13.7781181"><ele>900.0</ele><time>2026-05-04T13:19:19.074Z</time></trkpt><trkpt lat="41.5541414" lon="13.7782326"><ele>900.0</ele><time>2026-05-04T13:19:20.074Z</time></trkpt><trkpt lat="41.5541749" lon="13.778364"><ele>900.0</ele><time>2026-05-04T13:19:21.074Z</time></trkpt><trkpt lat="41.5541693" lon="13.7785054"><ele>900.0</ele><time>2026-05-04T13:19:22.074Z</time></trkpt><trkpt lat="41.5541262" lon="13.7786267"><ele>900.0</ele><time>2026-05-04T13:19:23.075Z</time></trkpt><trkpt lat="41.5540582" lon="13.7787127"><ele>900.0</ele><time>2026-05-04T13:19:24.075Z</time></trkpt><trkpt lat="41.5539698" lon="13.7787522"><ele>897.6666666666666</ele><time>2026-05-04T13:19:25.074Z</time></trkpt><trkpt lat="41.5538889" lon="13.7787743"><ele>895.3333333333333</ele><time>2026-05-04T13:19:26.074Z</time></trkpt><trkpt lat="41.5538196" lon="13.7787788"><ele>893.0</ele><time>2026-05-04T13:19:27.075Z</time></trkpt><trkpt lat="41.5537207" lon="13.7787895"><ele>890.6666666666666</ele><time>2026-05-04T13:19:29.074Z</time></trkpt><trkpt lat="41.5537143" lon="13.7787"><ele>888.3333333333333</ele><time>2026-05-04T13:20:07.075Z</time></trkpt><trkpt lat="41.5537578" lon="13.7786342"><ele>886.0</ele><time>2026-05-04T13:20:08.075Z</time></trkpt><trkpt lat="41.5537964" lon="13.7785503"><ele>888.8</ele><time>2026-05-04T13:20:09.075Z</time></trkpt><trkpt lat="41.5538298" lon="13.778447"><ele>891.5999999999999</ele><time>2026-05-04T13:20:10.074Z</time></trkpt><trkpt lat="41.5538599" lon="13.7783506"><ele>894.4</ele><time>2026-05-04T13:20:11.074Z</time></trkpt><trkpt lat="41.5538549" lon="13.7781883"><ele>897.2</ele><time>2026-05-04T13:20:13.074Z</time></trkpt><trkpt lat="41.5537989" lon="13.7780974"><ele>900.0</ele><time>2026-05-04T13:20:14.074Z</time></trkpt><trkpt lat="41.5537223" lon="13.7780021"><ele>907.0</ele><time>2026-05-04T13:20:15.074Z</time></trkpt><trkpt lat="41.5536358" lon="13.7779057"><ele>914.0</ele><time>2026-05-04T13:20:16.074Z</time></trkpt><trkpt lat="41.5535685" lon="13.777811"><ele>921.0</ele><time>2026-05-04T13:20:17.075Z</time></trkpt><trkpt lat="41.5535315" lon="13.7777219"><ele>928.0</ele><time>2026-05-04T13:20:18.074Z</time></trkpt><trkpt lat="41.553531" lon="13.7776373"><ele>935.0</ele><time>2026-05-04T13:20:19.075Z</time></trkpt><trkpt lat="41.5536176" lon="13.777505"><ele>935.4</ele><time>2026-05-04T13:20:21.075Z</time></trkpt><trkpt lat="41.5536962" lon="13.7774497"><ele>935.8</ele><time>2026-05-04T13:20:22.075Z</time></trkpt><trkpt lat="41.5537857" lon="13.7773912"><ele>936.2</ele><time>2026-05-04T13:20:23.075Z</time></trkpt><trkpt lat="41.5538862" lon="13.7773186"><ele>936.6</ele><time>2026-05-04T13:20:24.074Z</time></trkpt><trkpt lat="41.5539813" lon="13.7772441"><ele>937.0</ele><time>2026-05-04T13:20:25.075Z</time></trkpt><trkpt lat="41.5540645" lon="13.7771674"><ele>934.6666666666666</ele><time>2026-05-04T13:20:26.075Z</time></trkpt><trkpt lat="41.554119" lon="13.7770962"><ele>932.3333333333333</ele><time>2026-05-04T13:20:27.075Z</time></trkpt><trkpt lat="41.5541488" lon="13.7770084"><ele>930.0</ele><time>2026-05-04T13:20:28.075Z</time></trkpt><trkpt lat="41.5541469" lon="13.7769017"><ele>927.6666666666667</ele><time>2026-05-04T13:20:29.074Z</time></trkpt><trkpt lat="41.5541263" lon="13.7767803"><ele>925.3333333333334</ele><time>2026-05-04T13:20:30.075Z</time></trkpt><trkpt lat="41.5541008" lon="13.7766522"><ele>923.0</ele><time>2026-05-04T13:20:31.075Z</time></trkpt><trkpt lat="41.5540885" lon="13.7765308"><ele>923.0000000000001</ele><time>2026-05-04T13:20:32.074Z</time></trkpt><trkpt lat="41.5541082" lon="13.7764112"><ele>923.0</ele><time>2026-05-04T13:20:33.074Z</time></trkpt><trkpt lat="41.5541543" lon="13.7762927"><ele>923.0</ele><time>2026-05-04T13:20:34.074Z</time></trkpt><trkpt lat="41.5541971" lon="13.7761787"><ele>923.0</ele><time>2026-05-04T13:20:35.075Z</time></trkpt><trkpt lat="41.5542173" lon="13.7760775"><ele>923.0000000000001</ele><time>2026-05-04T13:20:36.075Z</time></trkpt><trkpt lat="41.5542242" lon="13.7759789"><ele>923.0</ele><time>2026-05-04T13:20:37.075Z</time></trkpt><trkpt lat="41.5542391" lon="13.7758671"><ele>925.5999999999999</ele><time>2026-05-04T13:20:38.075Z</time></trkpt><trkpt lat="41.5542765" lon="13.7757335"><ele>928.1999999999999</ele><time>2026-05-04T13:20:39.074Z</time></trkpt><trkpt lat="41.5543276" lon="13.7756001"><ele>930.8</ele><time>2026-05-04T13:20:40.074Z</time></trkpt><trkpt lat="41.5543718" lon="13.7754679"><ele>933.4</ele><time>2026-05-04T13:20:41.074Z</time></trkpt><trkpt lat="41.5544006" lon="13.7753295"><ele>936.0</ele><time>2026-05-04T13:20:42.074Z</time></trkpt><trkpt lat="41.5544251" lon="13.7751944"><ele>933.5999999999999</ele><time>2026-05-04T13:20:43.075Z</time></trkpt><trkpt lat="41.5544647" lon="13.7750823"><ele>931.1999999999999</ele><time>2026-05-04T13:20:44.075Z</time></trkpt><trkpt lat="41.5545226" lon="13.7749881"><ele>928.8000000000001</ele><time>2026-05-04T13:20:45.074Z</time></trkpt><trkpt lat="41.554592" lon="13.7748932"><ele>926.4000000000001</ele><time>2026-05-04T13:20:46.075Z</time></trkpt><trkpt lat="41.5546673" lon="13.7747984"><ele>924.0</ele><time>2026-05-04T13:20:47.075Z</time></trkpt><trkpt lat="41.5547405" lon="13.774694"><ele>924.0</ele><time>2026-05-04T13:20:48.074Z</time></trkpt><trkpt lat="41.5548021" lon="13.7746001"><ele>924.0000000000001</ele><time>2026-05-04T13:20:49.075Z</time></trkpt><trkpt lat="41.5548415" lon="13.7745028"><ele>924.0000000000001</ele><time>2026-05-04T13:20:50.074Z</time></trkpt><trkpt lat="41.5548503" lon="13.774403"><ele>924.0</ele><time>2026-05-04T13:20:51.075Z</time></trkpt><trkpt lat="41.5548109" lon="13.7742558"><ele>924.0</ele><time>2026-05-04T13:20:53.074Z</time></trkpt><trkpt lat="41.5547137" lon="13.7741619"><ele>925.8000000000001</ele><time>2026-05-04T13:20:55.075Z</time></trkpt><trkpt lat="41.5546559" lon="13.774122"><ele>927.6000000000001</ele><time>2026-05-04T13:20:56.075Z</time></trkpt><trkpt lat="41.5545462" lon="13.7740357"><ele>929.4</ele><time>2026-05-04T13:20:58.075Z</time></trkpt><trkpt lat="41.5544523" lon="13.7739398"><ele>931.2</ele><time>2026-05-04T13:21:00.075Z</time></trkpt><trkpt lat="41.5543804" lon="13.7738391"><ele>933.0</ele><time>2026-05-04T13:21:02.075Z</time></trkpt><trkpt lat="41.5543363" lon="13.7737376"><ele>938.8</ele><time>2026-05-04T13:21:04.074Z</time></trkpt><trkpt lat="41.5543181" lon="13.7736088"><ele>944.5999999999999</ele><time>2026-05-04T13:21:06.075Z</time></trkpt><trkpt lat="41.5543392" lon="13.7734602"><ele>950.4000000000001</ele><time>2026-05-04T13:21:08.075Z</time></trkpt><trkpt lat="41.5543606" lon="13.7733"><ele>956.2</ele><time>2026-05-04T13:21:10.075Z</time></trkpt><trkpt lat="41.554376" lon="13.7731629"><ele>962.0</ele><time>2026-05-04T13:21:12.074Z</time></trkpt><trkpt lat="41.5544376" lon="13.773069"><ele>962.0</ele><time>2026-05-04T13:24:37.075Z</time></trkpt><trkpt lat="41.5545157" lon="13.772972"><ele>962.0</ele><time>2026-05-04T13:24:39.074Z</time></trkpt><trkpt lat="41.5545091" lon="13.7728218"><ele>962.0</ele><time>2026-05-04T13:24:41.074Z</time></trkpt><trkpt lat="41.5545063" lon="13.7727038"><ele>962.0</ele><time>2026-05-04T13:24:43.074Z</time></trkpt><trkpt lat="41.5545368" lon="13.7725861"><ele>962.0</ele><time>2026-05-04T13:24:45.074Z</time></trkpt><trkpt lat="41.5546029" lon="13.7724675"><ele>960.2857142857142</ele><time>2026-05-04T13:24:47.073Z</time></trkpt><trkpt lat="41.5546523" lon="13.7724099"><ele>958.5714285714286</ele><time>2026-05-04T13:24:48.073Z</time></trkpt><trkpt lat="41.5547092" lon="13.7723619"><ele>956.8571428571429</ele><time>2026-05-04T13:24:49.073Z</time></trkpt><trkpt lat="41.5547712" lon="13.7723219"><ele>955.1428571428571</ele><time>2026-05-04T13:24:50.074Z</time></trkpt><trkpt lat="41.5548339" lon="13.7722999"><ele>953.4285714285716</ele><time>2026-05-04T13:24:51.073Z</time></trkpt><trkpt lat="41.5549007" lon="13.7722924"><ele>951.7142857142858</ele><time>2026-05-04T13:24:52.074Z</time></trkpt><trkpt lat="41.5549737" lon="13.7722846"><ele>950.0</ele><time>2026-05-04T13:24:53.074Z</time></trkpt><trkpt lat="41.5550468" lon="13.7722608"><ele>950.0000000000001</ele><time>2026-05-04T13:24:54.073Z</time></trkpt><trkpt lat="41.5551219" lon="13.7722234"><ele>950.0</ele><time>2026-05-04T13:24:55.073Z</time></trkpt><trkpt lat="41.5551939" lon="13.7721748"><ele>950.0</ele><time>2026-05-04T13:24:56.073Z</time></trkpt><trkpt lat="41.5552574" lon="13.7721194"><ele>950.0</ele><time>2026-05-04T13:24:57.073Z</time></trkpt><trkpt lat="41.5553141" lon="13.7720536"><ele>950.0000000000001</ele><time>2026-05-04T13:24:58.073Z</time></trkpt><trkpt lat="41.5553641" lon="13.7719774"><ele>950.0</ele><time>2026-05-04T13:24:59.074Z</time></trkpt><trkpt lat="41.5554025" lon="13.7718825"><ele>950.0000000000001</ele><time>2026-05-04T13:25:00.073Z</time></trkpt><trkpt lat="41.5554362" lon="13.7717886"><ele>950.0</ele><time>2026-05-04T13:25:01.074Z</time></trkpt><trkpt lat="41.5554695" lon="13.7716966"><ele>950.0</ele><time>2026-05-04T13:25:02.073Z</time></trkpt><trkpt lat="41.5555077" lon="13.7716269"><ele>950.0</ele><time>2026-05-04T13:25:03.074Z</time></trkpt><trkpt lat="41.5555528" lon="13.7715637"><ele>950.0000000000001</ele><time>2026-05-04T13:25:04.073Z</time></trkpt><trkpt lat="41.5556622" lon="13.7714864"><ele>950.0</ele><time>2026-05-04T13:25:06.073Z</time></trkpt><trkpt lat="41.5557613" lon="13.7714233"><ele>950.0</ele><time>2026-05-04T13:25:08.073Z</time></trkpt><trkpt lat="41.5558194" lon="13.7713253"><ele>950.0</ele><time>2026-05-04T13:25:10.073Z</time></trkpt><trkpt lat="41.5558767" lon="13.7711999"><ele>950.0</ele><time>2026-05-04T13:25:12.074Z</time></trkpt><trkpt lat="41.555942" lon="13.7711045"><ele>950.0</ele><time>2026-05-04T13:25:14.074Z</time></trkpt><trkpt lat="41.5560432" lon="13.7710549"><ele>950.0</ele><time>2026-05-04T13:25:16.073Z</time></trkpt><trkpt lat="41.5561272" lon="13.7710239"><ele>953.5000000000001</ele><time>2026-05-04T13:25:18.074Z</time></trkpt><trkpt lat="41.5561758" lon="13.7709628"><ele>957.0</ele><time>2026-05-04T13:25:22.074Z</time></trkpt><trkpt lat="41.5561566" lon="13.7708808"><ele>960.5</ele><time>2026-05-04T13:25:24.074Z</time></trkpt><trkpt lat="41.55608" lon="13.7707651"><ele>964.0</ele><time>2026-05-04T13:25:26.074Z</time></trkpt><trkpt lat="41.5560305" lon="13.7706857"><ele>967.5000000000001</ele><time>2026-05-04T13:25:27.074Z</time></trkpt><trkpt lat="41.5559746" lon="13.7706014"><ele>971.0</ele><time>2026-05-04T13:25:28.074Z</time></trkpt><trkpt lat="41.5559217" lon="13.7705126"><ele>971.0</ele><time>2026-05-04T13:25:29.073Z</time></trkpt><trkpt lat="41.5558747" lon="13.7704286"><ele>971.0000000000001</ele><time>2026-05-04T13:25:30.074Z</time></trkpt><trkpt lat="41.5558296" lon="13.7703437"><ele>971.0</ele><time>2026-05-04T13:25:31.073Z</time></trkpt><trkpt lat="41.5557803" lon="13.7702639"><ele>971.0</ele><time>2026-05-04T13:25:32.073Z</time></trkpt><trkpt lat="41.5557343" lon="13.7701927"><ele>971.0000000000001</ele><time>2026-05-04T13:25:33.074Z</time></trkpt><trkpt lat="41.5556897" lon="13.7701206"><ele>971.0</ele><time>2026-05-04T13:25:34.074Z</time></trkpt><trkpt lat="41.5556459" lon="13.7700587"><ele>971.0</ele><time>2026-05-04T13:25:35.073Z</time></trkpt><trkpt lat="41.5555721" lon="13.7699508"><ele>971.8</ele><time>2026-05-04T13:25:37.073Z</time></trkpt><trkpt lat="41.5555106" lon="13.7698509"><ele>972.5999999999999</ele><time>2026-05-04T13:25:39.073Z</time></trkpt><trkpt lat="41.5554357" lon="13.7697426"><ele>973.4</ele><time>2026-05-04T13:25:41.074Z</time></trkpt><trkpt lat="41.5553651" lon="13.769638"><ele>974.2</ele><time>2026-05-04T13:25:43.073Z</time></trkpt><trkpt lat="41.5553343" lon="13.7695599"><ele>975.0</ele><time>2026-05-04T13:25:45.073Z</time></trkpt><trkpt lat="41.5553565" lon="13.769459"><ele>975.0</ele><time>2026-05-04T13:26:18.073Z</time></trkpt><trkpt lat="41.5554279" lon="13.7693739"><ele>975.0</ele><time>2026-05-04T13:26:20.072Z</time></trkpt><trkpt lat="41.5555379" lon="13.7693286"><ele>975.0</ele><time>2026-05-04T13:26:22.072Z</time></trkpt><trkpt lat="41.5556061" lon="13.7693274"><ele>975.0</ele><time>2026-05-04T13:26:23.072Z</time></trkpt><trkpt lat="41.5556713" lon="13.769324"><ele>975.0</ele><time>2026-05-04T13:26:24.072Z</time></trkpt><trkpt lat="41.555791" lon="13.7693143"><ele>978.2</ele><time>2026-05-04T13:26:26.072Z</time></trkpt><trkpt lat="41.5558578" lon="13.7693076"><ele>981.4</ele><time>2026-05-04T13:26:27.072Z</time></trkpt><trkpt lat="41.5559215" lon="13.7692973"><ele>984.5999999999999</ele><time>2026-05-04T13:26:28.073Z</time></trkpt><trkpt lat="41.5560296" lon="13.7692839"><ele>987.8</ele><time>2026-05-04T13:26:30.072Z</time></trkpt><trkpt lat="41.5561638" lon="13.7692683"><ele>991.0</ele><time>2026-05-04T13:26:32.073Z</time></trkpt><trkpt lat="41.5562401" lon="13.7692567"><ele>992.4</ele><time>2026-05-04T13:26:33.073Z</time></trkpt><trkpt lat="41.5563253" lon="13.7692387"><ele>993.8</ele><time>2026-05-04T13:26:34.073Z</time></trkpt><trkpt lat="41.5564299" lon="13.7691998"><ele>995.1999999999999</ele><time>2026-05-04T13:26:35.073Z</time></trkpt><trkpt lat="41.5565352" lon="13.7691738"><ele>996.5999999999999</ele><time>2026-05-04T13:26:36.073Z</time></trkpt><trkpt lat="41.5566169" lon="13.7691605"><ele>998.0</ele><time>2026-05-04T13:26:37.073Z</time></trkpt><trkpt lat="41.5566914" lon="13.7691585"><ele>998.0000000000001</ele><time>2026-05-04T13:26:38.073Z</time></trkpt><trkpt lat="41.5567631" lon="13.769162"><ele>998.0</ele><time>2026-05-04T13:26:39.073Z</time></trkpt><trkpt lat="41.5568322" lon="13.7691667"><ele>998.0</ele><time>2026-05-04T13:26:40.072Z</time></trkpt><trkpt lat="41.556898" lon="13.7691727"><ele>998.0</ele><time>2026-05-04T13:26:41.073Z</time></trkpt><trkpt lat="41.5569611" lon="13.7691683"><ele>998.0000000000001</ele><time>2026-05-04T13:26:42.073Z</time></trkpt><trkpt lat="41.5570729" lon="13.7691459"><ele>998.0</ele><time>2026-05-04T13:26:44.072Z</time></trkpt><trkpt lat="41.5571709" lon="13.7691308"><ele>1000.0000000000001</ele><time>2026-05-04T13:26:46.072Z</time></trkpt><trkpt lat="41.5572504" lon="13.7691599"><ele>1002.0</ele><time>2026-05-04T13:26:48.072Z</time></trkpt><trkpt lat="41.5573232" lon="13.7692512"><ele>1004.0</ele><time>2026-05-04T13:26:50.073Z</time></trkpt><trkpt lat="41.5573767" lon="13.7693327"><ele>1006.0</ele><time>2026-05-04T13:26:52.073Z</time></trkpt><trkpt lat="41.5574511" lon="13.7693922"><ele>1008.0000000000001</ele><time>2026-05-04T13:26:55.073Z</time></trkpt><trkpt lat="41.5575193" lon="13.7694128"><ele>1010.0</ele><time>2026-05-04T13:26:57.073Z</time></trkpt><trkpt lat="41.5576205" lon="13.7694206"><ele>1009.2857142857142</ele><time>2026-05-04T13:26:59.073Z</time></trkpt><trkpt lat="41.5576846" lon="13.7694208"><ele>1008.5714285714284</ele><time>2026-05-04T13:27:00.072Z</time></trkpt><trkpt lat="41.557748" lon="13.7694151"><ele>1007.8571428571429</ele><time>2026-05-04T13:27:01.073Z</time></trkpt><trkpt lat="41.5578587" lon="13.7694392"><ele>1007.1428571428571</ele><time>2026-05-04T13:27:03.073Z</time></trkpt><trkpt lat="41.5579151" lon="13.7694826"><ele>1006.4285714285714</ele><time>2026-05-04T13:27:04.072Z</time></trkpt><trkpt lat="41.5579729" lon="13.7695368"><ele>1005.7142857142858</ele><time>2026-05-04T13:27:05.073Z</time></trkpt><trkpt lat="41.558027" lon="13.7695876"><ele>1005.0000000000001</ele><time>2026-05-04T13:27:06.073Z</time></trkpt><trkpt lat="41.55813" lon="13.7696589"><ele>1005.0</ele><time>2026-05-04T13:27:08.073Z</time></trkpt><trkpt lat="41.5582204" lon="13.7696976"><ele>1005.0</ele><time>2026-05-04T13:27:10.073Z</time></trkpt><trkpt lat="41.5582898" lon="13.7696638"><ele>1005.0</ele><time>2026-05-04T13:27:12.073Z</time></trkpt><trkpt lat="41.5583134" lon="13.7695488"><ele>1005.0</ele><time>2026-05-04T13:27:15.072Z</time></trkpt><trkpt lat="41.5582761" lon="13.7694488"><ele>1005.0</ele><time>2026-05-04T13:27:17.073Z</time></trkpt><trkpt lat="41.5582481" lon="13.7693385"><ele>1005.0</ele><time>2026-05-04T13:27:19.072Z</time></trkpt><trkpt lat="41.5582614" lon="13.7691859"><ele>1007.4</ele><time>2026-05-04T13:27:21.073Z</time></trkpt><trkpt lat="41.5583233" lon="13.7690357"><ele>1009.8</ele><time>2026-05-04T13:27:23.072Z</time></trkpt><trkpt lat="41.5583763" lon="13.768974"><ele>1012.2</ele><time>2026-05-04T13:27:24.072Z</time></trkpt><trkpt lat="41.5584351" lon="13.7689211"><ele>1014.6</ele><time>2026-05-04T13:27:25.072Z</time></trkpt><trkpt lat="41.5584944" lon="13.7688702"><ele>1017.0</ele><time>2026-05-04T13:27:26.073Z</time></trkpt><trkpt lat="41.5585838" lon="13.7687545"><ele>1017.0</ele><time>2026-05-04T13:27:28.072Z</time></trkpt><trkpt lat="41.5586225" lon="13.7686756"><ele>1017.0</ele><time>2026-05-04T13:27:29.073Z</time></trkpt><trkpt lat="41.558666" lon="13.7686029"><ele>1017.0</ele><time>2026-05-04T13:27:30.072Z</time></trkpt><trkpt lat="41.5587137" lon="13.7685452"><ele>1017.0</ele><time>2026-05-04T13:27:31.072Z</time></trkpt><trkpt lat="41.5588158" lon="13.7684695"><ele>1017.0</ele><time>2026-05-04T13:27:33.073Z</time></trkpt><trkpt lat="41.5588775" lon="13.768399"><ele>1017.0</ele><time>2026-05-04T13:27:35.072Z</time></trkpt><trkpt lat="41.558906" lon="13.7682693"><ele>1017.8333333333334</ele><time>2026-05-04T13:27:37.073Z</time></trkpt><trkpt lat="41.558918" lon="13.768102"><ele>1018.6666666666667</ele><time>2026-05-04T13:27:39.072Z</time></trkpt><trkpt lat="41.5589221" lon="13.7680082"><ele>1019.5</ele><time>2026-05-04T13:27:40.073Z</time></trkpt><trkpt lat="41.5589264" lon="13.7679233"><ele>1020.3333333333334</ele><time>2026-05-04T13:27:41.073Z</time></trkpt><trkpt lat="41.558934" lon="13.7677592"><ele>1021.1666666666667</ele><time>2026-05-04T13:27:43.073Z</time></trkpt><trkpt lat="41.5589381" lon="13.7676725"><ele>1022.0</ele><time>2026-05-04T13:27:44.072Z</time></trkpt><trkpt lat="41.558945" lon="13.7675801"><ele>1022.0</ele><time>2026-05-04T13:27:45.072Z</time></trkpt><trkpt lat="41.5589559" lon="13.7674742"><ele>1022.0</ele><time>2026-05-04T13:27:46.073Z</time></trkpt><trkpt lat="41.5589668" lon="13.7673771"><ele>1022.0</ele><time>2026-05-04T13:27:47.073Z</time></trkpt><trkpt lat="41.5589961" lon="13.7672423"><ele>1022.0</ele><time>2026-05-04T13:27:49.072Z</time></trkpt><trkpt lat="41.5590619" lon="13.7671715"><ele>1022.0</ele><time>2026-05-04T13:27:51.073Z</time></trkpt><trkpt lat="41.5591741" lon="13.7671728"><ele>1022.0</ele><time>2026-05-04T13:27:53.072Z</time></trkpt><trkpt lat="41.5592464" lon="13.7671971"><ele>1022.0</ele><time>2026-05-04T13:27:54.072Z</time></trkpt><trkpt lat="41.5593386" lon="13.7672415"><ele>1022.0</ele><time>2026-05-04T13:27:55.073Z</time></trkpt><trkpt lat="41.5594472" lon="13.7672932"><ele>1022.0</ele><time>2026-05-04T13:27:56.073Z</time></trkpt><trkpt lat="41.5595533" lon="13.7673547"><ele>1022.0</ele><time>2026-05-04T13:27:57.072Z</time></trkpt><trkpt lat="41.5596338" lon="13.7674107"><ele>1021.3333333333334</ele><time>2026-05-04T13:27:58.072Z</time></trkpt><trkpt lat="41.5597079" lon="13.7674703"><ele>1020.6666666666667</ele><time>2026-05-04T13:27:59.073Z</time></trkpt><trkpt lat="41.5597811" lon="13.7675254"><ele>1020.0</ele><time>2026-05-04T13:28:00.073Z</time></trkpt><trkpt lat="41.5598536" lon="13.7675645"><ele>1019.3333333333333</ele><time>2026-05-04T13:28:01.073Z</time></trkpt><trkpt lat="41.559928" lon="13.7675826"><ele>1018.6666666666666</ele><time>2026-05-04T13:28:02.072Z</time></trkpt><trkpt lat="41.5599975" lon="13.7675842"><ele>1018.0</ele><time>2026-05-04T13:28:03.073Z</time></trkpt><trkpt lat="41.5601065" lon="13.7675378"><ele>1017.9999999999999</ele><time>2026-05-04T13:28:05.072Z</time></trkpt><trkpt lat="41.5601609" lon="13.7674694"><ele>1018.0</ele><time>2026-05-04T13:28:06.073Z</time></trkpt><trkpt lat="41.5602267" lon="13.7673896"><ele>1018.0</ele><time>2026-05-04T13:28:07.072Z</time></trkpt><trkpt lat="41.5602936" lon="13.7673189"><ele>1018.0</ele><time>2026-05-04T13:28:08.072Z</time></trkpt><trkpt lat="41.5603655" lon="13.767274"><ele>1017.9999999999999</ele><time>2026-05-04T13:28:09.072Z</time></trkpt><trkpt lat="41.5604445" lon="13.7672496"><ele>1018.0</ele><time>2026-05-04T13:28:10.072Z</time></trkpt><trkpt lat="41.5605202" lon="13.7672489"><ele>1016.8333333333333</ele><time>2026-05-04T13:28:11.072Z</time></trkpt><trkpt lat="41.5605874" lon="13.7672452"><ele>1015.6666666666666</ele><time>2026-05-04T13:28:12.073Z</time></trkpt><trkpt lat="41.560676" lon="13.7671983"><ele>1014.5</ele><time>2026-05-04T13:28:14.073Z</time></trkpt><trkpt lat="41.5607731" lon="13.7670874"><ele>1013.3333333333333</ele><time>2026-05-04T13:28:16.073Z</time></trkpt><trkpt lat="41.560826" lon="13.7670202"><ele>1012.1666666666666</ele><time>2026-05-04T13:28:17.072Z</time></trkpt><trkpt lat="41.5608729" lon="13.7669572"><ele>1011.0</ele><time>2026-05-04T13:28:18.072Z</time></trkpt><trkpt lat="41.5609726" lon="13.7669226"><ele>1011.0</ele><time>2026-05-04T13:28:20.072Z</time></trkpt><trkpt lat="41.5610362" lon="13.7669622"><ele>1010.9999999999999</ele><time>2026-05-04T13:28:21.073Z</time></trkpt><trkpt lat="41.5611016" lon="13.7670256"><ele>1010.9999999999999</ele><time>2026-05-04T13:28:22.072Z</time></trkpt><trkpt lat="41.56118" lon="13.7671028"><ele>1011.0</ele><time>2026-05-04T13:28:23.072Z</time></trkpt><trkpt lat="41.561265" lon="13.7671884"><ele>1011.0</ele><time>2026-05-04T13:28:24.072Z</time></trkpt><trkpt lat="41.5613456" lon="13.7672632"><ele>1012.5999999999999</ele><time>2026-05-04T13:28:25.073Z</time></trkpt><trkpt lat="41.5614222" lon="13.7673283"><ele>1014.1999999999999</ele><time>2026-05-04T13:28:26.073Z</time></trkpt><trkpt lat="41.5615085" lon="13.767388"><ele>1015.8000000000001</ele><time>2026-05-04T13:28:27.072Z</time></trkpt><trkpt lat="41.5615936" lon="13.7674438"><ele>1017.4000000000001</ele><time>2026-05-04T13:28:28.073Z</time></trkpt><trkpt lat="41.5616675" lon="13.7674816"><ele>1019.0</ele><time>2026-05-04T13:28:29.072Z</time></trkpt><trkpt lat="41.5617754" lon="13.7675154"><ele>1019.0</ele><time>2026-05-04T13:28:31.073Z</time></trkpt><trkpt lat="41.5618795" lon="13.7674827"><ele>1019.0000000000001</ele><time>2026-05-04T13:28:33.073Z</time></trkpt><trkpt lat="41.5619471" lon="13.7674359"><ele>1019.0000000000001</ele><time>2026-05-04T13:28:34.073Z</time></trkpt><trkpt lat="41.5620193" lon="13.7673812"><ele>1019.0</ele><time>2026-05-04T13:28:35.073Z</time></trkpt><trkpt lat="41.5620931" lon="13.7673055"><ele>1019.0</ele><time>2026-05-04T13:28:36.072Z</time></trkpt><trkpt lat="41.5621755" lon="13.7671977"><ele>1021.0000000000001</ele><time>2026-05-04T13:28:37.073Z</time></trkpt><trkpt lat="41.5622529" lon="13.7670856"><ele>1023.0</ele><time>2026-05-04T13:28:38.073Z</time></trkpt><trkpt lat="41.5623235" lon="13.7669961"><ele>1025.0</ele><time>2026-05-04T13:28:39.073Z</time></trkpt><trkpt lat="41.5623908" lon="13.7669282"><ele>1027.0</ele><time>2026-05-04T13:28:40.073Z</time></trkpt><trkpt lat="41.5624431" lon="13.7668759"><ele>1029.0</ele><time>2026-05-04T13:28:41.073Z</time></trkpt><trkpt lat="41.5624947" lon="13.7668077"><ele>1031.0</ele><time>2026-05-04T13:28:42.073Z</time></trkpt><trkpt lat="41.5625367" lon="13.7667361"><ele>1031.0</ele><time>2026-05-04T13:28:43.073Z</time></trkpt><trkpt lat="41.5625734" lon="13.7666476"><ele>1031.0</ele><time>2026-05-04T13:28:44.073Z</time></trkpt><trkpt lat="41.5626134" lon="13.7665477"><ele>1031.0</ele><time>2026-05-04T13:28:45.072Z</time></trkpt><trkpt lat="41.5626578" lon="13.7664419"><ele>1031.0</ele><time>2026-05-04T13:28:46.072Z</time></trkpt><trkpt lat="41.5626962" lon="13.7663467"><ele>1031.0</ele><time>2026-05-04T13:28:47.073Z</time></trkpt><trkpt lat="41.5627387" lon="13.7662654"><ele>1031.0</ele><time>2026-05-04T13:28:48.073Z</time></trkpt><trkpt lat="41.5627929" lon="13.7661369"><ele>1030.3999999999999</ele><time>2026-05-04T13:28:50.073Z</time></trkpt><trkpt lat="41.5628209" lon="13.7660196"><ele>1029.8</ele><time>2026-05-04T13:28:52.072Z</time></trkpt><trkpt lat="41.5628362" lon="13.7658668"><ele>1029.1999999999998</ele><time>2026-05-04T13:28:54.072Z</time></trkpt><trkpt lat="41.5628462" lon="13.765741"><ele>1028.6</ele><time>2026-05-04T13:28:56.073Z</time></trkpt><trkpt lat="41.5628775" lon="13.7656659"><ele>1028.0</ele><time>2026-05-04T13:29:04.072Z</time></trkpt><trkpt lat="41.5630006" lon="13.7655765"><ele>1028.0</ele><time>2026-05-04T13:29:06.072Z</time></trkpt><trkpt lat="41.563063" lon="13.7655353"><ele>1028.0</ele><time>2026-05-04T13:29:07.073Z</time></trkpt><trkpt lat="41.5631227" lon="13.765493"><ele>1028.0</ele><time>2026-05-04T13:29:08.073Z</time></trkpt><trkpt lat="41.5631802" lon="13.7654372"><ele>1028.0</ele><time>2026-05-04T13:29:09.073Z</time></trkpt><trkpt lat="41.5632368" lon="13.7653754"><ele>1028.0</ele><time>2026-05-04T13:29:10.072Z</time></trkpt><trkpt lat="41.5632903" lon="13.7653079"><ele>1028.0</ele><time>2026-05-04T13:29:11.072Z</time></trkpt><trkpt lat="41.5633432" lon="13.7652421"><ele>1028.0</ele><time>2026-05-04T13:29:12.072Z</time></trkpt><trkpt lat="41.5633883" lon="13.7651773"><ele>1034.1666666666667</ele><time>2026-05-04T13:29:13.072Z</time></trkpt><trkpt lat="41.5634547" lon="13.765071"><ele>1040.3333333333335</ele><time>2026-05-04T13:29:15.073Z</time></trkpt><trkpt lat="41.563508" lon="13.7649425"><ele>1046.5</ele><time>2026-05-04T13:29:17.073Z</time></trkpt><trkpt lat="41.5635443" lon="13.7648735"><ele>1052.6666666666667</ele><time>2026-05-04T13:29:18.072Z</time></trkpt><trkpt lat="41.5635877" lon="13.7648053"><ele>1058.8333333333333</ele><time>2026-05-04T13:29:19.072Z</time></trkpt><trkpt lat="41.5636277" lon="13.764739"><ele>1065.0</ele><time>2026-05-04T13:29:20.072Z</time></trkpt><trkpt lat="41.5636832" lon="13.7646097"><ele>1063.5</ele><time>2026-05-04T13:29:22.072Z</time></trkpt><trkpt lat="41.5637211" lon="13.7644594"><ele>1062.0</ele><time>2026-05-04T13:29:24.073Z</time></trkpt><trkpt lat="41.5637583" lon="13.7643741"><ele>1060.5</ele><time>2026-05-04T13:29:26.073Z</time></trkpt><trkpt lat="41.5638831" lon="13.7642114"><ele>1059.0</ele><time>2026-05-04T13:33:46.071Z</time></trkpt><trkpt lat="41.5639695" lon="13.7641187"><ele>1059.0</ele><time>2026-05-04T13:33:48.072Z</time></trkpt><trkpt lat="41.5640439" lon="13.7640412"><ele>1059.0</ele><time>2026-05-04T13:33:50.071Z</time></trkpt><trkpt lat="41.5641329" lon="13.7639365"><ele>1059.0</ele><time>2026-05-04T13:33:52.072Z</time></trkpt><trkpt lat="41.5642162" lon="13.7638112"><ele>1059.0</ele><time>2026-05-04T13:33:54.072Z</time></trkpt><trkpt lat="41.5642536" lon="13.7637407"><ele>1059.0</ele><time>2026-05-04T13:33:55.071Z</time></trkpt><trkpt lat="41.5642892" lon="13.7636562"><ele>1059.0</ele><time>2026-05-04T13:33:56.072Z</time></trkpt><trkpt lat="41.5643253" lon="13.7635724"><ele>1059.0</ele><time>2026-05-04T13:33:57.072Z</time></trkpt><trkpt lat="41.5643693" lon="13.7634981"><ele>1059.0</ele><time>2026-05-04T13:33:58.071Z</time></trkpt><trkpt lat="41.5644245" lon="13.7634221"><ele>1059.0</ele><time>2026-05-04T13:33:59.071Z</time></trkpt><trkpt lat="41.5644952" lon="13.7633495"><ele>1059.0</ele><time>2026-05-04T13:34:00.072Z</time></trkpt><trkpt lat="41.5645604" lon="13.7632738"><ele>1059.0</ele><time>2026-05-04T13:34:01.071Z</time></trkpt><trkpt lat="41.5646171" lon="13.7632091"><ele>1063.0</ele><time>2026-05-04T13:34:02.072Z</time></trkpt><trkpt lat="41.564671" lon="13.7631515"><ele>1067.0</ele><time>2026-05-04T13:34:03.072Z</time></trkpt><trkpt lat="41.5647648" lon="13.7630722"><ele>1071.0</ele><time>2026-05-04T13:34:05.071Z</time></trkpt><trkpt lat="41.5648572" lon="13.763047"><ele>1075.0</ele><time>2026-05-04T13:34:07.071Z</time></trkpt><trkpt lat="41.5649555" lon="13.763064"><ele>1079.0</ele><time>2026-05-04T13:34:09.071Z</time></trkpt><trkpt lat="41.5650284" lon="13.7630604"><ele>1083.0</ele><time>2026-05-04T13:34:11.071Z</time></trkpt><trkpt lat="41.5651006" lon="13.7630597"><ele>1083.0</ele><time>2026-05-04T13:34:13.071Z</time></trkpt><trkpt lat="41.5651734" lon="13.763092"><ele>1083.0</ele><time>2026-05-04T13:34:15.071Z</time></trkpt><trkpt lat="41.5652409" lon="13.7631552"><ele>1083.0</ele><time>2026-05-04T13:34:17.071Z</time></trkpt><trkpt lat="41.5653078" lon="13.7632443"><ele>1083.0</ele><time>2026-05-04T13:34:19.071Z</time></trkpt><trkpt lat="41.5653714" lon="13.7633148"><ele>1083.0</ele><time>2026-05-04T13:34:21.071Z</time></trkpt><trkpt lat="41.5654607" lon="13.7633886"><ele>1083.0</ele><time>2026-05-04T13:34:23.072Z</time></trkpt><trkpt lat="41.5655232" lon="13.7634339"><ele>1083.3333333333333</ele><time>2026-05-04T13:34:24.071Z</time></trkpt><trkpt lat="41.5655981" lon="13.7634844"><ele>1083.6666666666667</ele><time>2026-05-04T13:34:25.072Z</time></trkpt><trkpt lat="41.565671" lon="13.7635368"><ele>1084.0</ele><time>2026-05-04T13:34:26.072Z</time></trkpt><trkpt lat="41.5657514" lon="13.7636109"><ele>1084.3333333333335</ele><time>2026-05-04T13:34:28.072Z</time></trkpt><trkpt lat="41.5658353" lon="13.7636538"><ele>1084.6666666666667</ele><time>2026-05-04T13:34:30.071Z</time></trkpt><trkpt lat="41.5659084" lon="13.7636318"><ele>1085.0</ele><time>2026-05-04T13:34:32.072Z</time></trkpt><trkpt lat="41.5659932" lon="13.7635993"><ele>1085.0</ele><time>2026-05-04T13:34:34.071Z</time></trkpt><trkpt lat="41.5660574" lon="13.763552"><ele>1085.0</ele><time>2026-05-04T13:34:36.071Z</time></trkpt><trkpt lat="41.5660983" lon="13.7634531"><ele>1085.0</ele><time>2026-05-04T13:34:39.072Z</time></trkpt><trkpt lat="41.5660582" lon="13.7633659"><ele>1085.0</ele><time>2026-05-04T13:34:41.072Z</time></trkpt><trkpt lat="41.5659655" lon="13.7632842"><ele>1085.0</ele><time>2026-05-04T13:34:43.071Z</time></trkpt><trkpt lat="41.5658744" lon="13.7632105"><ele>1087.0</ele><time>2026-05-04T13:34:45.072Z</time></trkpt><trkpt lat="41.5658205" lon="13.7631585"><ele>1089.0</ele><time>2026-05-04T13:34:47.072Z</time></trkpt><trkpt lat="41.5658938" lon="13.7630822"><ele>1091.0</ele><time>2026-05-04T13:35:08.071Z</time></trkpt><trkpt lat="41.5659595" lon="13.7630889"><ele>1093.0</ele><time>2026-05-04T13:35:09.071Z</time></trkpt><trkpt lat="41.5660286" lon="13.7630953"><ele>1095.0</ele><time>2026-05-04T13:35:10.071Z</time></trkpt><trkpt lat="41.5660921" lon="13.7630994"><ele>1097.0</ele><time>2026-05-04T13:35:11.071Z</time></trkpt><trkpt lat="41.5661628" lon="13.7630972"><ele>1099.0</ele><time>2026-05-04T13:35:13.072Z</time></trkpt><trkpt lat="41.5662457" lon="13.7630748"><ele>1099.0</ele><time>2026-05-04T13:35:15.072Z</time></trkpt><trkpt lat="41.5663072" lon="13.7630483"><ele>1099.0</ele><time>2026-05-04T13:35:17.072Z</time></trkpt><trkpt lat="41.5663617" lon="13.7629525"><ele>1099.0</ele><time>2026-05-04T13:35:34.071Z</time></trkpt><trkpt lat="41.5664328" lon="13.7628413"><ele>1099.0</ele><time>2026-05-04T13:35:36.07Z</time></trkpt><trkpt lat="41.5664797" lon="13.7627229"><ele>1099.0</ele><time>2026-05-04T13:35:38.071Z</time></trkpt><trkpt lat="41.5665212" lon="13.7625857"><ele>1101.0</ele><time>2026-05-04T13:35:40.07Z</time></trkpt><trkpt lat="41.5665425" lon="13.7624967"><ele>1103.0</ele><time>2026-05-04T13:35:41.071Z</time></trkpt><trkpt lat="41.5665664" lon="13.7624064"><ele>1105.0</ele><time>2026-05-04T13:35:42.07Z</time></trkpt><trkpt lat="41.566592" lon="13.7623279"><ele>1107.0</ele><time>2026-05-04T13:35:43.071Z</time></trkpt><trkpt lat="41.5666248" lon="13.7622477"><ele>1109.0</ele><time>2026-05-04T13:35:44.071Z</time></trkpt><trkpt lat="41.5666613" lon="13.762172"><ele>1111.0</ele><time>2026-05-04T13:35:45.07Z</time></trkpt><trkpt lat="41.5667038" lon="13.7621057"><ele>1113.0</ele><time>2026-05-04T13:35:46.07Z</time></trkpt><trkpt lat="41.5667485" lon="13.7620462"><ele>1113.0</ele><time>2026-05-04T13:35:47.071Z</time></trkpt><trkpt lat="41.5668005" lon="13.7619921"><ele>1113.0</ele><time>2026-05-04T13:35:48.07Z</time></trkpt><trkpt lat="41.5668632" lon="13.761945"><ele>1113.0</ele><time>2026-05-04T13:35:49.07Z</time></trkpt><trkpt lat="41.5669372" lon="13.7619025"><ele>1113.0</ele><time>2026-05-04T13:35:50.07Z</time></trkpt><trkpt lat="41.5670217" lon="13.7618649"><ele>1113.0</ele><time>2026-05-04T13:35:51.071Z</time></trkpt><trkpt lat="41.5671173" lon="13.761841"><ele>1113.0</ele><time>2026-05-04T13:35:52.07Z</time></trkpt><trkpt lat="41.5672169" lon="13.7618171"><ele>1114.0</ele><time>2026-05-04T13:35:53.071Z</time></trkpt><trkpt lat="41.5673105" lon="13.7618037"><ele>1115.0</ele><time>2026-05-04T13:35:54.071Z</time></trkpt><trkpt lat="41.5673975" lon="13.7617857"><ele>1116.0</ele><time>2026-05-04T13:35:55.07Z</time></trkpt><trkpt lat="41.5674776" lon="13.7617676"><ele>1117.0</ele><time>2026-05-04T13:35:56.071Z</time></trkpt><trkpt lat="41.5675556" lon="13.7617556"><ele>1118.0</ele><time>2026-05-04T13:35:57.07Z</time></trkpt><trkpt lat="41.5676407" lon="13.7617396"><ele>1119.0</ele><time>2026-05-04T13:35:58.071Z</time></trkpt><trkpt lat="41.567731" lon="13.7617336"><ele>1119.0</ele><time>2026-05-04T13:35:59.071Z</time></trkpt><trkpt lat="41.5678132" lon="13.7617235"><ele>1119.0</ele><time>2026-05-04T13:36:00.071Z</time></trkpt><trkpt lat="41.5678893" lon="13.7617052"><ele>1119.0</ele><time>2026-05-04T13:36:01.071Z</time></trkpt><trkpt lat="41.5679716" lon="13.7616807"><ele>1119.0</ele><time>2026-05-04T13:36:02.07Z</time></trkpt><trkpt lat="41.5680481" lon="13.7616577"><ele>1119.0</ele><time>2026-05-04T13:36:03.07Z</time></trkpt><trkpt lat="41.5681142" lon="13.7616282"><ele>1119.0</ele><time>2026-05-04T13:36:04.07Z</time></trkpt><trkpt lat="41.5681766" lon="13.7615921"><ele>1120.4</ele><time>2026-05-04T13:36:05.07Z</time></trkpt><trkpt lat="41.5682682" lon="13.7614581"><ele>1121.8000000000002</ele><time>2026-05-04T13:36:07.07Z</time></trkpt><trkpt lat="41.5683076" lon="13.761371"><ele>1123.1999999999998</ele><time>2026-05-04T13:36:08.07Z</time></trkpt><trkpt lat="41.5683398" lon="13.7612899"><ele>1124.6</ele><time>2026-05-04T13:36:09.071Z</time></trkpt><trkpt lat="41.5683809" lon="13.7612232"><ele>1126.0</ele><time>2026-05-04T13:36:10.07Z</time></trkpt><trkpt lat="41.5684741" lon="13.7611245"><ele>1126.0</ele><time>2026-05-04T13:36:12.07Z</time></trkpt><trkpt lat="41.5685784" lon="13.7610651"><ele>1126.0</ele><time>2026-05-04T13:36:14.07Z</time></trkpt><trkpt lat="41.5686596" lon="13.7609969"><ele>1126.0</ele><time>2026-05-04T13:36:16.071Z</time></trkpt><trkpt lat="41.568693" lon="13.760919"><ele>1126.0</ele><time>2026-05-04T13:36:17.07Z</time></trkpt><trkpt lat="41.5687298" lon="13.7608164"><ele>1126.0</ele><time>2026-05-04T13:36:18.071Z</time></trkpt><trkpt lat="41.5687848" lon="13.7606921"><ele>1124.25</ele><time>2026-05-04T13:36:19.07Z</time></trkpt><trkpt lat="41.5688497" lon="13.7605323"><ele>1122.5</ele><time>2026-05-04T13:36:20.07Z</time></trkpt><trkpt lat="41.5689196" lon="13.7603736"><ele>1120.75</ele><time>2026-05-04T13:36:21.071Z</time></trkpt><trkpt lat="41.5689725" lon="13.7602263"><ele>1119.0</ele><time>2026-05-04T13:36:22.07Z</time></trkpt><trkpt lat="41.5690165" lon="13.7601076"><ele>1119.0</ele><time>2026-05-04T13:36:23.07Z</time></trkpt><trkpt lat="41.5690476" lon="13.7600097"><ele>1119.0</ele><time>2026-05-04T13:36:24.071Z</time></trkpt><trkpt lat="41.5690785" lon="13.7598868"><ele>1119.0</ele><time>2026-05-04T13:36:26.071Z</time></trkpt><trkpt lat="41.5691226" lon="13.7598253"><ele>1119.0</ele><time>2026-05-04T13:36:28.07Z</time></trkpt><trkpt lat="41.5692358" lon="13.7598012"><ele>1119.0</ele><time>2026-05-04T13:36:30.071Z</time></trkpt><trkpt lat="41.5693235" lon="13.7597728"><ele>1119.0</ele><time>2026-05-04T13:36:31.07Z</time></trkpt><trkpt lat="41.56944" lon="13.7597374"><ele>1119.0</ele><time>2026-05-04T13:36:32.071Z</time></trkpt><trkpt lat="41.5695612" lon="13.7596999"><ele>1119.0</ele><time>2026-05-04T13:36:33.07Z</time></trkpt><trkpt lat="41.5696557" lon="13.7596699"><ele>1119.0</ele><time>2026-05-04T13:36:34.07Z</time></trkpt><trkpt lat="41.5697251" lon="13.7596361"><ele>1119.0</ele><time>2026-05-04T13:36:35.071Z</time></trkpt><trkpt lat="41.5698253" lon="13.7595666"><ele>1119.0</ele><time>2026-05-04T13:36:37.071Z</time></trkpt><trkpt lat="41.5698803" lon="13.7595037"><ele>1119.0</ele><time>2026-05-04T13:36:39.071Z</time></trkpt><trkpt lat="41.5699254" lon="13.7594028"><ele>1119.0</ele><time>2026-05-04T13:36:41.071Z</time></trkpt><trkpt lat="41.5699653" lon="13.7593222"><ele>1119.0</ele><time>2026-05-04T13:36:42.071Z</time></trkpt><trkpt lat="41.5700155" lon="13.7592383"><ele>1119.0</ele><time>2026-05-04T13:36:43.071Z</time></trkpt><trkpt lat="41.5700603" lon="13.7591716"><ele>1119.0</ele><time>2026-05-04T13:36:44.07Z</time></trkpt><trkpt lat="41.5701412" lon="13.7590674"><ele>1119.0</ele><time>2026-05-04T13:36:46.07Z</time></trkpt><trkpt lat="41.5702416" lon="13.7590167"><ele>1119.3333333333333</ele><time>2026-05-04T13:36:48.071Z</time></trkpt><trkpt lat="41.5703069" lon="13.7590112"><ele>1119.6666666666667</ele><time>2026-05-04T13:36:49.07Z</time></trkpt><trkpt lat="41.5703716" lon="13.7590151"><ele>1120.0</ele><time>2026-05-04T13:36:50.071Z</time></trkpt><trkpt lat="41.5704851" lon="13.7589769"><ele>1120.3333333333335</ele><time>2026-05-04T13:36:52.071Z</time></trkpt><trkpt lat="41.5705484" lon="13.7589163"><ele>1120.6666666666667</ele><time>2026-05-04T13:36:53.07Z</time></trkpt><trkpt lat="41.5706137" lon="13.7588381"><ele>1121.0</ele><time>2026-05-04T13:36:54.07Z</time></trkpt><trkpt lat="41.5706748" lon="13.7587691"><ele>1121.0</ele><time>2026-05-04T13:36:55.07Z</time></trkpt><trkpt lat="41.5707374" lon="13.7587029"><ele>1121.0</ele><time>2026-05-04T13:36:56.071Z</time></trkpt><trkpt lat="41.5708021" lon="13.7586524"><ele>1121.0</ele><time>2026-05-04T13:36:57.071Z</time></trkpt><trkpt lat="41.5709123" lon="13.7585848"><ele>1121.0</ele><time>2026-05-04T13:36:59.07Z</time></trkpt><trkpt lat="41.571032" lon="13.758546"><ele>1121.0</ele><time>2026-05-04T13:37:01.07Z</time></trkpt><trkpt lat="41.5710942" lon="13.7585238"><ele>1121.2</ele><time>2026-05-04T13:37:02.07Z</time></trkpt><trkpt lat="41.5712134" lon="13.7584899"><ele>1121.3999999999999</ele><time>2026-05-04T13:37:04.071Z</time></trkpt><trkpt lat="41.5712917" lon="13.7584696"><ele>1121.6</ele><time>2026-05-04T13:37:06.07Z</time></trkpt><trkpt lat="41.5713878" lon="13.7584457"><ele>1121.8</ele><time>2026-05-04T13:39:04.071Z</time></trkpt><trkpt lat="41.5714763" lon="13.7584189"><ele>1122.0</ele><time>2026-05-04T13:39:06.07Z</time></trkpt><trkpt lat="41.5715556" lon="13.7584184"><ele>1122.0</ele><time>2026-05-04T13:39:08.071Z</time></trkpt><trkpt lat="41.5716466" lon="13.7584168"><ele>1122.0</ele><time>2026-05-04T13:39:10.071Z</time></trkpt><trkpt lat="41.5717301" lon="13.7584124"><ele>1122.0</ele><time>2026-05-04T13:39:12.071Z</time></trkpt><trkpt lat="41.5718098" lon="13.7584078"><ele>1122.0</ele><time>2026-05-04T13:39:14.071Z</time></trkpt><trkpt lat="41.5718989" lon="13.758416"><ele>1122.0</ele><time>2026-05-04T13:39:16.071Z</time></trkpt><trkpt lat="41.571977" lon="13.7584229"><ele>1122.0</ele><time>2026-05-04T13:39:18.07Z</time></trkpt><trkpt lat="41.5720521" lon="13.7584377"><ele>1122.6666666666667</ele><time>2026-05-04T13:39:20.071Z</time></trkpt><trkpt lat="41.5721317" lon="13.758456"><ele>1123.3333333333333</ele><time>2026-05-04T13:39:22.07Z</time></trkpt><trkpt lat="41.572207" lon="13.7584693"><ele>1124.0</ele><time>2026-05-04T13:39:24.07Z</time></trkpt><trkpt lat="41.5722768" lon="13.758504"><ele>1124.6666666666665</ele><time>2026-05-04T13:39:26.07Z</time></trkpt><trkpt lat="41.5723306" lon="13.7585758"><ele>1125.3333333333333</ele><time>2026-05-04T13:39:29.07Z</time></trkpt><trkpt lat="41.5722714" lon="13.7584999"><ele>1126.0</ele><time>2026-05-04T13:45:16.069Z</time></trkpt><trkpt lat="41.5721914" lon="13.7584721"><ele>1126.6666666666665</ele><time>2026-05-04T13:45:18.069Z</time></trkpt><trkpt lat="41.5721146" lon="13.7584486"><ele>1127.3333333333333</ele><time>2026-05-04T13:45:20.068Z</time></trkpt><trkpt lat="41.5720216" lon="13.7584281"><ele>1128.0</ele><time>2026-05-04T13:45:22.068Z</time></trkpt><trkpt lat="41.5719477" lon="13.7584084"><ele>1128.6666666666667</ele><time>2026-05-04T13:45:23.068Z</time></trkpt><trkpt lat="41.5718612" lon="13.7583935"><ele>1129.3333333333335</ele><time>2026-05-04T13:45:24.069Z</time></trkpt><trkpt lat="41.5717578" lon="13.7583887"><ele>1130.0</ele><time>2026-05-04T13:45:25.068Z</time></trkpt><trkpt lat="41.5716505" lon="13.7583906"><ele>1129.4</ele><time>2026-05-04T13:45:26.068Z</time></trkpt><trkpt lat="41.5715395" lon="13.7584039"><ele>1128.8</ele><time>2026-05-04T13:45:27.068Z</time></trkpt><trkpt lat="41.571433" lon="13.7584253"><ele>1128.2</ele><time>2026-05-04T13:45:28.069Z</time></trkpt><trkpt lat="41.5713465" lon="13.7584481"><ele>1127.6</ele><time>2026-05-04T13:45:29.069Z</time></trkpt><trkpt lat="41.5712807" lon="13.7584684"><ele>1127.0</ele><time>2026-05-04T13:45:30.068Z</time></trkpt><trkpt lat="41.5711797" lon="13.7584797"><ele>1127.0</ele><time>2026-05-04T13:45:32.068Z</time></trkpt><trkpt lat="41.5711166" lon="13.7584565"><ele>1127.0</ele><time>2026-05-04T13:45:34.068Z</time></trkpt></trkseg><trkseg><trkpt lat="41.5710538" lon="13.7585357"><ele>1121.0</ele><time>2026-05-04T14:16:51.064Z</time></trkpt><trkpt lat="41.5709847" lon="13.7585705"><ele>1121.0</ele><time>2026-05-04T14:16:54.063Z</time></trkpt><trkpt lat="41.5709133" lon="13.7585949"><ele>1121.0</ele><time>2026-05-04T14:16:56.064Z</time></trkpt><trkpt lat="41.5708404" lon="13.7586305"><ele>1121.0</ele><time>2026-05-04T14:16:58.064Z</time></trkpt><trkpt lat="41.5707683" lon="13.7586724"><ele>1121.0</ele><time>2026-05-04T14:17:00.063Z</time></trkpt><trkpt lat="41.5707138" lon="13.7587226"><ele>1121.0</ele><time>2026-05-04T14:17:02.064Z</time></trkpt><trkpt lat="41.570648" lon="13.7587915"><ele>1121.0</ele><time>2026-05-04T14:17:04.064Z</time></trkpt><trkpt lat="41.5705732" lon="13.758878"><ele>1121.0</ele><time>2026-05-04T14:17:06.063Z</time></trkpt><trkpt lat="41.5704877" lon="13.7589566"><ele>1121.0</ele><time>2026-05-04T14:17:08.063Z</time></trkpt><trkpt lat="41.5703736" lon="13.7590035"><ele>1121.0</ele><time>2026-05-04T14:17:10.064Z</time></trkpt><trkpt lat="41.570257" lon="13.7590102"><ele>1121.0</ele><time>2026-05-04T14:17:12.064Z</time></trkpt><trkpt lat="41.5701614" lon="13.759057"><ele>1120.6</ele><time>2026-05-04T14:17:14.063Z</time></trkpt><trkpt lat="41.5700768" lon="13.7591427"><ele>1120.1999999999998</ele><time>2026-05-04T14:17:16.064Z</time></trkpt><trkpt lat="41.5699937" lon="13.7592707"><ele>1119.8000000000002</ele><time>2026-05-04T14:17:18.063Z</time></trkpt><trkpt lat="41.569952" lon="13.7593442"><ele>1119.4</ele><time>2026-05-04T14:17:19.063Z</time></trkpt><trkpt lat="41.5698988" lon="13.759461"><ele>1119.0</ele><time>2026-05-04T14:17:21.062Z</time></trkpt><trkpt lat="41.5698412" lon="13.759539"><ele>1119.0</ele><time>2026-05-04T14:17:23.062Z</time></trkpt><trkpt lat="41.5697695" lon="13.7596043"><ele>1119.0</ele><time>2026-05-04T14:17:25.063Z</time></trkpt><trkpt lat="41.5696725" lon="13.7596616"><ele>1119.0</ele><time>2026-05-04T14:17:27.063Z</time></trkpt><trkpt lat="41.5696077" lon="13.7596846"><ele>1119.0</ele><time>2026-05-04T14:17:28.063Z</time></trkpt><trkpt lat="41.5695241" lon="13.7597052"><ele>1119.0</ele><time>2026-05-04T14:17:29.063Z</time></trkpt><trkpt lat="41.5694296" lon="13.7597285"><ele>1119.0</ele><time>2026-05-04T14:17:30.062Z</time></trkpt><trkpt lat="41.5693345" lon="13.7597621"><ele>1119.0</ele><time>2026-05-04T14:17:31.062Z</time></trkpt><trkpt lat="41.5692621" lon="13.7597874"><ele>1119.0</ele><time>2026-05-04T14:17:32.062Z</time></trkpt><trkpt lat="41.5691588" lon="13.7598162"><ele>1119.0</ele><time>2026-05-04T14:17:34.062Z</time></trkpt><trkpt lat="41.5690891" lon="13.7598737"><ele>1119.0</ele><time>2026-05-04T14:17:36.063Z</time></trkpt><trkpt lat="41.5690325" lon="13.7600152"><ele>1119.0</ele><time>2026-05-04T14:17:38.062Z</time></trkpt><trkpt lat="41.5690061" lon="13.7601091"><ele>1118.4</ele><time>2026-05-04T14:17:39.062Z</time></trkpt><trkpt lat="41.5689751" lon="13.760215"><ele>1117.8000000000002</ele><time>2026-05-04T14:17:40.062Z</time></trkpt><trkpt lat="41.5689335" lon="13.7603241"><ele>1117.1999999999998</ele><time>2026-05-04T14:17:41.062Z</time></trkpt><trkpt lat="41.5688868" lon="13.7604412"><ele>1116.6</ele><time>2026-05-04T14:17:42.063Z</time></trkpt><trkpt lat="41.5688309" lon="13.7605693"><ele>1116.0</ele><time>2026-05-04T14:17:43.062Z</time></trkpt><trkpt lat="41.5687799" lon="13.7606962"><ele>1116.0</ele><time>2026-05-04T14:17:44.063Z</time></trkpt><trkpt lat="41.5687334" lon="13.7608067"><ele>1116.0</ele><time>2026-05-04T14:17:45.063Z</time></trkpt><trkpt lat="41.5686907" lon="13.7609004"><ele>1116.0</ele><time>2026-05-04T14:17:46.063Z</time></trkpt><trkpt lat="41.5686511" lon="13.7609785"><ele>1116.0</ele><time>2026-05-04T14:17:47.063Z</time></trkpt><trkpt lat="41.5685588" lon="13.7610854"><ele>1116.0</ele><time>2026-05-04T14:17:49.062Z</time></trkpt><trkpt lat="41.5684594" lon="13.7611593"><ele>1117.6666666666667</ele><time>2026-05-04T14:17:51.063Z</time></trkpt><trkpt lat="41.5683603" lon="13.7612552"><ele>1119.3333333333333</ele><time>2026-05-04T14:17:53.063Z</time></trkpt><trkpt lat="41.5683129" lon="13.7613398"><ele>1121.0</ele><time>2026-05-04T14:17:54.062Z</time></trkpt><trkpt lat="41.5682672" lon="13.7614261"><ele>1122.6666666666665</ele><time>2026-05-04T14:17:55.063Z</time></trkpt><trkpt lat="41.5682224" lon="13.761506"><ele>1124.3333333333333</ele><time>2026-05-04T14:17:56.063Z</time></trkpt><trkpt lat="41.5681755" lon="13.7615684"><ele>1126.0</ele><time>2026-05-04T14:17:57.062Z</time></trkpt><trkpt lat="41.5680751" lon="13.7616533"><ele>1126.0</ele><time>2026-05-04T14:17:59.062Z</time></trkpt><trkpt lat="41.5680126" lon="13.7616805"><ele>1126.0</ele><time>2026-05-04T14:18:00.063Z</time></trkpt><trkpt lat="41.5679242" lon="13.7617074"><ele>1126.0</ele><time>2026-05-04T14:18:01.063Z</time></trkpt><trkpt lat="41.5678352" lon="13.7617276"><ele>1126.0</ele><time>2026-05-04T14:18:02.063Z</time></trkpt><trkpt lat="41.5677544" lon="13.7617374"><ele>1126.0</ele><time>2026-05-04T14:18:03.063Z</time></trkpt><trkpt lat="41.5676679" lon="13.7617415"><ele>1126.0</ele><time>2026-05-04T14:18:04.062Z</time></trkpt><trkpt lat="41.5675783" lon="13.7617495"><ele>1124.8333333333333</ele><time>2026-05-04T14:18:05.063Z</time></trkpt><trkpt lat="41.5674926" lon="13.76176"><ele>1123.6666666666665</ele><time>2026-05-04T14:18:06.063Z</time></trkpt><trkpt lat="41.5674199" lon="13.7617698"><ele>1122.5</ele><time>2026-05-04T14:18:07.062Z</time></trkpt><trkpt lat="41.5673514" lon="13.7617867"><ele>1121.3333333333333</ele><time>2026-05-04T14:18:08.062Z</time></trkpt><trkpt lat="41.5672778" lon="13.7618002"><ele>1120.1666666666667</ele><time>2026-05-04T14:18:09.063Z</time></trkpt><trkpt lat="41.567198" lon="13.7618097"><ele>1119.0</ele><time>2026-05-04T14:18:10.063Z</time></trkpt><trkpt lat="41.5671171" lon="13.7618224"><ele>1119.0</ele><time>2026-05-04T14:18:11.062Z</time></trkpt><trkpt lat="41.567038" lon="13.7618408"><ele>1119.0</ele><time>2026-05-04T14:18:12.063Z</time></trkpt><trkpt lat="41.5669603" lon="13.7618713"><ele>1119.0</ele><time>2026-05-04T14:18:13.062Z</time></trkpt><trkpt lat="41.5668947" lon="13.761912"><ele>1119.0</ele><time>2026-05-04T14:18:14.062Z</time></trkpt><trkpt lat="41.5668261" lon="13.7619603"><ele>1119.0</ele><time>2026-05-04T14:18:15.062Z</time></trkpt><trkpt lat="41.5667653" lon="13.7620237"><ele>1119.0</ele><time>2026-05-04T14:18:16.063Z</time></trkpt><trkpt lat="41.5667066" lon="13.7620995"><ele>1118.0</ele><time>2026-05-04T14:18:17.063Z</time></trkpt><trkpt lat="41.5666588" lon="13.7621771"><ele>1117.0</ele><time>2026-05-04T14:18:18.062Z</time></trkpt><trkpt lat="41.5666189" lon="13.7622647"><ele>1116.0</ele><time>2026-05-04T14:18:19.062Z</time></trkpt><trkpt lat="41.5665877" lon="13.7623621"><ele>1115.0</ele><time>2026-05-04T14:18:20.063Z</time></trkpt><trkpt lat="41.5665574" lon="13.7624594"><ele>1114.0</ele><time>2026-05-04T14:18:21.062Z</time></trkpt><trkpt lat="41.5665318" lon="13.7625593"><ele>1113.0</ele><time>2026-05-04T14:18:22.063Z</time></trkpt><trkpt lat="41.5665092" lon="13.7626547"><ele>1111.3333333333333</ele><time>2026-05-04T14:18:23.063Z</time></trkpt><trkpt lat="41.5664798" lon="13.7627377"><ele>1109.6666666666667</ele><time>2026-05-04T14:18:24.063Z</time></trkpt><trkpt lat="41.5664099" lon="13.7628652"><ele>1108.0</ele><time>2026-05-04T14:18:26.063Z</time></trkpt><trkpt lat="41.5663516" lon="13.762948"><ele>1106.3333333333335</ele><time>2026-05-04T14:18:28.063Z</time></trkpt><trkpt lat="41.5663069" lon="13.7630101"><ele>1104.6666666666667</ele><time>2026-05-04T14:18:30.063Z</time></trkpt><trkpt lat="41.5662338" lon="13.7630868"><ele>1103.0</ele><time>2026-05-04T14:18:33.062Z</time></trkpt><trkpt lat="41.5661697" lon="13.7630846"><ele>1103.0000000000002</ele><time>2026-05-04T14:18:35.063Z</time></trkpt><trkpt lat="41.5660846" lon="13.7630779"><ele>1103.0</ele><time>2026-05-04T14:18:38.062Z</time></trkpt><trkpt lat="41.5660135" lon="13.7630843"><ele>1103.0</ele><time>2026-05-04T14:18:41.063Z</time></trkpt><trkpt lat="41.5659501" lon="13.7630818"><ele>1103.0</ele><time>2026-05-04T14:18:44.063Z</time></trkpt><trkpt lat="41.565871" lon="13.7630698"><ele>1103.0</ele><time>2026-05-04T14:18:47.063Z</time></trkpt><trkpt lat="41.5657957" lon="13.7630697"><ele>1103.0000000000002</ele><time>2026-05-04T14:18:50.062Z</time></trkpt><trkpt lat="41.5658277" lon="13.7631506"><ele>1103.0</ele><time>2026-05-04T14:18:54.062Z</time></trkpt><trkpt lat="41.5658946" lon="13.763219"><ele>1103.0000000000002</ele><time>2026-05-04T14:18:57.062Z</time></trkpt><trkpt lat="41.5659362" lon="13.763285"><ele>1103.0</ele><time>2026-05-04T14:19:00.062Z</time></trkpt><trkpt lat="41.566022" lon="13.7633228"><ele>1103.0</ele><time>2026-05-04T14:19:04.063Z</time></trkpt><trkpt lat="41.5660754" lon="13.7633729"><ele>1103.0</ele><time>2026-05-04T14:19:06.062Z</time></trkpt><trkpt lat="41.5661002" lon="13.7634515"><ele>1103.0</ele><time>2026-05-04T14:19:08.062Z</time></trkpt><trkpt lat="41.566058" lon="13.7635356"><ele>1103.0000000000002</ele><time>2026-05-04T14:19:11.063Z</time></trkpt><trkpt lat="41.5659887" lon="13.7635734"><ele>1103.0</ele><time>2026-05-04T14:19:14.063Z</time></trkpt><trkpt lat="41.5659198" lon="13.7635981"><ele>1103.0</ele><time>2026-05-04T14:19:16.063Z</time></trkpt><trkpt lat="41.5658587" lon="13.7636256"><ele>1103.0</ele><time>2026-05-04T14:19:18.063Z</time></trkpt><trkpt lat="41.565773" lon="13.7636191"><ele>1103.0</ele><time>2026-05-04T14:19:21.063Z</time></trkpt><trkpt lat="41.56569" lon="13.7635564"><ele>1103.0</ele><time>2026-05-04T14:19:23.062Z</time></trkpt><trkpt lat="41.5655868" lon="13.7634722"><ele>1103.0</ele><time>2026-05-04T14:19:25.063Z</time></trkpt><trkpt lat="41.5654805" lon="13.7633932"><ele>1103.0</ele><time>2026-05-04T14:19:27.063Z</time></trkpt><trkpt lat="41.5653787" lon="13.7633194"><ele>1103.0</ele><time>2026-05-04T14:19:29.063Z</time></trkpt><trkpt lat="41.5653035" lon="13.7632594"><ele>1103.0</ele><time>2026-05-04T14:19:31.063Z</time></trkpt><trkpt lat="41.5652472" lon="13.7631983"><ele>1103.0</ele><time>2026-05-04T14:19:33.062Z</time></trkpt><trkpt lat="41.5652045" lon="13.7631328"><ele>1103.0</ele><time>2026-05-04T14:19:35.062Z</time></trkpt><trkpt lat="41.5651504" lon="13.7630728"><ele>1103.0</ele><time>2026-05-04T14:19:37.063Z</time></trkpt><trkpt lat="41.5650841" lon="13.7630398"><ele>1099.6666666666667</ele><time>2026-05-04T14:19:39.062Z</time></trkpt><trkpt lat="41.5650186" lon="13.7630244"><ele>1096.3333333333335</ele><time>2026-05-04T14:19:41.063Z</time></trkpt><trkpt lat="41.5649487" lon="13.7630302"><ele>1093.0</ele><time>2026-05-04T14:19:44.063Z</time></trkpt><trkpt lat="41.5648841" lon="13.7630217"><ele>1089.6666666666667</ele><time>2026-05-04T14:19:49.063Z</time></trkpt><trkpt lat="41.5648007" lon="13.763018"><ele>1086.3333333333333</ele><time>2026-05-04T14:19:54.062Z</time></trkpt><trkpt lat="41.5647172" lon="13.7630447"><ele>1083.0</ele><time>2026-05-04T14:19:57.063Z</time></trkpt><trkpt lat="41.5646533" lon="13.7631088"><ele>1083.0</ele><time>2026-05-04T14:19:59.062Z</time></trkpt><trkpt lat="41.5645892" lon="13.7632199"><ele>1083.0</ele><time>2026-05-04T14:20:01.063Z</time></trkpt><trkpt lat="41.5645262" lon="13.7632966"><ele>1083.0</ele><time>2026-05-04T14:20:03.063Z</time></trkpt><trkpt lat="41.5644705" lon="13.7633666"><ele>1083.0</ele><time>2026-05-04T14:20:05.063Z</time></trkpt><trkpt lat="41.5644125" lon="13.7634371"><ele>1083.0</ele><time>2026-05-04T14:20:07.063Z</time></trkpt><trkpt lat="41.5643479" lon="13.7635376"><ele>1083.0</ele><time>2026-05-04T14:20:09.063Z</time></trkpt><trkpt lat="41.5642871" lon="13.763651"><ele>1078.2</ele><time>2026-05-04T14:20:11.062Z</time></trkpt><trkpt lat="41.5642375" lon="13.7637657"><ele>1073.4</ele><time>2026-05-04T14:20:13.063Z</time></trkpt><trkpt lat="41.5641737" lon="13.7638764"><ele>1068.6000000000001</ele><time>2026-05-04T14:20:15.063Z</time></trkpt><trkpt lat="41.5640775" lon="13.7639866"><ele>1063.8</ele><time>2026-05-04T14:20:17.063Z</time></trkpt><trkpt lat="41.564024" lon="13.7640478"><ele>1059.0</ele><time>2026-05-04T14:20:18.063Z</time></trkpt><trkpt lat="41.563971" lon="13.7641079"><ele>1059.0</ele><time>2026-05-04T14:20:19.062Z</time></trkpt><trkpt lat="41.5638854" lon="13.7641944"><ele>1059.0</ele><time>2026-05-04T14:20:21.062Z</time></trkpt><trkpt lat="41.5637885" lon="13.7643425"><ele>1059.0</ele><time>2026-05-04T14:21:39.062Z</time></trkpt><trkpt lat="41.5637441" lon="13.7644369"><ele>1059.0</ele><time>2026-05-04T14:21:41.062Z</time></trkpt><trkpt lat="41.5637105" lon="13.7645561"><ele>1059.0</ele><time>2026-05-04T14:21:43.062Z</time></trkpt><trkpt lat="41.5636691" lon="13.764673"><ele>1060.0</ele><time>2026-05-04T14:21:45.063Z</time></trkpt><trkpt lat="41.5635997" lon="13.7647866"><ele>1061.0</ele><time>2026-05-04T14:21:47.062Z</time></trkpt><trkpt lat="41.5635335" lon="13.7648863"><ele>1062.0</ele><time>2026-05-04T14:21:49.062Z</time></trkpt><trkpt lat="41.5634787" lon="13.7649615"><ele>1063.0</ele><time>2026-05-04T14:21:51.063Z</time></trkpt><trkpt lat="41.5634368" lon="13.7650458"><ele>1064.0</ele><time>2026-05-04T14:21:53.062Z</time></trkpt><trkpt lat="41.5633941" lon="13.7651203"><ele>1065.0</ele><time>2026-05-04T14:21:55.063Z</time></trkpt><trkpt lat="41.5633407" lon="13.7652074"><ele>1057.6</ele><time>2026-05-04T14:21:58.062Z</time></trkpt><trkpt lat="41.5632985" lon="13.7652729"><ele>1050.2</ele><time>2026-05-04T14:22:00.062Z</time></trkpt><trkpt lat="41.5632433" lon="13.7653433"><ele>1042.8</ele><time>2026-05-04T14:22:02.062Z</time></trkpt><trkpt lat="41.5631749" lon="13.7654275"><ele>1035.4</ele><time>2026-05-04T14:22:04.062Z</time></trkpt><trkpt lat="41.5630895" lon="13.7655141"><ele>1028.0</ele><time>2026-05-04T14:22:06.061Z</time></trkpt><trkpt lat="41.5629949" lon="13.7655902"><ele>1028.0</ele><time>2026-05-04T14:22:08.061Z</time></trkpt><trkpt lat="41.5629106" lon="13.7656803"><ele>1028.0</ele><time>2026-05-04T14:22:10.062Z</time></trkpt><trkpt lat="41.5628527" lon="13.7657992"><ele>1028.0</ele><time>2026-05-04T14:22:12.061Z</time></trkpt><trkpt lat="41.5628289" lon="13.7659323"><ele>1028.0</ele><time>2026-05-04T14:22:14.062Z</time></trkpt><trkpt lat="41.5628075" lon="13.7660414"><ele>1028.0</ele><time>2026-05-04T14:22:16.061Z</time></trkpt><trkpt lat="41.562776" lon="13.7661235"><ele>1028.5</ele><time>2026-05-04T14:22:18.061Z</time></trkpt><trkpt lat="41.5627502" lon="13.7662164"><ele>1029.0</ele><time>2026-05-04T14:22:21.062Z</time></trkpt><trkpt lat="41.562708" lon="13.7662854"><ele>1029.5</ele><time>2026-05-04T14:22:24.061Z</time></trkpt><trkpt lat="41.5626582" lon="13.7663871"><ele>1030.0</ele><time>2026-05-04T14:22:27.062Z</time></trkpt><trkpt lat="41.5626126" lon="13.7664875"><ele>1030.5</ele><time>2026-05-04T14:22:30.061Z</time></trkpt><trkpt lat="41.5625818" lon="13.7665737"><ele>1031.0</ele><time>2026-05-04T14:22:32.062Z</time></trkpt><trkpt lat="41.5625366" lon="13.7666879"><ele>1031.0</ele><time>2026-05-04T14:22:35.061Z</time></trkpt><trkpt lat="41.5624909" lon="13.7667825"><ele>1031.0</ele><time>2026-05-04T14:22:37.062Z</time></trkpt><trkpt lat="41.5624191" lon="13.766886"><ele>1031.0</ele><time>2026-05-04T14:22:39.062Z</time></trkpt><trkpt lat="41.5623539" lon="13.766944"><ele>1031.0</ele><time>2026-05-04T14:22:40.061Z</time></trkpt><trkpt lat="41.562286" lon="13.7670025"><ele>1031.0</ele><time>2026-05-04T14:22:41.061Z</time></trkpt><trkpt lat="41.5622154" lon="13.7670758"><ele>1031.0</ele><time>2026-05-04T14:22:42.061Z</time></trkpt><trkpt lat="41.5621435" lon="13.7671653"><ele>1029.0</ele><time>2026-05-04T14:22:43.061Z</time></trkpt><trkpt lat="41.5620666" lon="13.767252"><ele>1027.0</ele><time>2026-05-04T14:22:44.061Z</time></trkpt><trkpt lat="41.5619935" lon="13.7673249"><ele>1025.0</ele><time>2026-05-04T14:22:45.062Z</time></trkpt><trkpt lat="41.5619284" lon="13.7673905"><ele>1023.0</ele><time>2026-05-04T14:22:46.061Z</time></trkpt><trkpt lat="41.5618753" lon="13.7674375"><ele>1021.0000000000001</ele><time>2026-05-04T14:22:47.061Z</time></trkpt><trkpt lat="41.5617762" lon="13.7674818"><ele>1019.0</ele><time>2026-05-04T14:22:49.062Z</time></trkpt><trkpt lat="41.5616486" lon="13.7674402"><ele>1019.0</ele><time>2026-05-04T14:22:51.061Z</time></trkpt><trkpt lat="41.5615573" lon="13.7673988"><ele>1019.0000000000001</ele><time>2026-05-04T14:22:52.061Z</time></trkpt><trkpt lat="41.5614727" lon="13.7673579"><ele>1019.0000000000001</ele><time>2026-05-04T14:22:53.061Z</time></trkpt><trkpt lat="41.5614038" lon="13.7673121"><ele>1019.0</ele><time>2026-05-04T14:22:54.062Z</time></trkpt><trkpt lat="41.5612985" lon="13.7672199"><ele>1019.0</ele><time>2026-05-04T14:22:56.062Z</time></trkpt><trkpt lat="41.5612158" lon="13.7671416"><ele>1017.4000000000001</ele><time>2026-05-04T14:22:58.061Z</time></trkpt><trkpt lat="41.5611545" lon="13.7670933"><ele>1015.8000000000001</ele><time>2026-05-04T14:23:06.061Z</time></trkpt><trkpt lat="41.561049" lon="13.7669968"><ele>1014.1999999999999</ele><time>2026-05-04T14:23:30.061Z</time></trkpt><trkpt lat="41.5609747" lon="13.7669077"><ele>1012.5999999999999</ele><time>2026-05-04T14:23:32.061Z</time></trkpt><trkpt lat="41.5608945" lon="13.7669059"><ele>1011.0</ele><time>2026-05-04T14:23:34.062Z</time></trkpt><trkpt lat="41.560797" lon="13.7670035"><ele>1011.0</ele><time>2026-05-04T14:23:36.061Z</time></trkpt><trkpt lat="41.5607493" lon="13.7670794"><ele>1011.0</ele><time>2026-05-04T14:23:37.061Z</time></trkpt><trkpt lat="41.5606763" lon="13.7671834"><ele>1011.0</ele><time>2026-05-04T14:23:39.061Z</time></trkpt><trkpt lat="41.5605784" lon="13.7672278"><ele>1011.0</ele><time>2026-05-04T14:23:41.061Z</time></trkpt><trkpt lat="41.5604988" lon="13.7672314"><ele>1011.0</ele><time>2026-05-04T14:23:42.062Z</time></trkpt><trkpt lat="41.5604147" lon="13.7672364"><ele>1011.0</ele><time>2026-05-04T14:23:43.061Z</time></trkpt><trkpt lat="41.5603445" lon="13.7672508"><ele>1012.1666666666666</ele><time>2026-05-04T14:23:44.062Z</time></trkpt><trkpt lat="41.5602794" lon="13.767286"><ele>1013.3333333333333</ele><time>2026-05-04T14:23:45.062Z</time></trkpt><trkpt lat="41.5602103" lon="13.767348"><ele>1014.5</ele><time>2026-05-04T14:23:46.061Z</time></trkpt><trkpt lat="41.5601497" lon="13.7674214"><ele>1015.6666666666666</ele><time>2026-05-04T14:23:47.062Z</time></trkpt><trkpt lat="41.560054" lon="13.7675163"><ele>1016.8333333333333</ele><time>2026-05-04T14:23:49.062Z</time></trkpt><trkpt lat="41.5599796" lon="13.7675389"><ele>1018.0</ele><time>2026-05-04T14:23:50.061Z</time></trkpt><trkpt lat="41.5598915" lon="13.7675335"><ele>1018.0</ele><time>2026-05-04T14:23:51.062Z</time></trkpt><trkpt lat="41.5597995" lon="13.7675065"><ele>1018.0</ele><time>2026-05-04T14:23:52.062Z</time></trkpt><trkpt lat="41.5596956" lon="13.7674475"><ele>1018.0</ele><time>2026-05-04T14:23:53.062Z</time></trkpt><trkpt lat="41.5595877" lon="13.7673673"><ele>1018.0</ele><time>2026-05-04T14:23:54.061Z</time></trkpt><trkpt lat="41.5594908" lon="13.7672947"><ele>1018.0</ele><time>2026-05-04T14:23:55.062Z</time></trkpt><trkpt lat="41.5594012" lon="13.7672517"><ele>1018.6666666666666</ele><time>2026-05-04T14:23:56.062Z</time></trkpt><trkpt lat="41.5593153" lon="13.7672115"><ele>1019.3333333333333</ele><time>2026-05-04T14:23:57.062Z</time></trkpt><trkpt lat="41.5592451" lon="13.7671765"><ele>1020.0</ele><time>2026-05-04T14:23:58.061Z</time></trkpt><trkpt lat="41.5591811" lon="13.7671522"><ele>1020.6666666666667</ele><time>2026-05-04T14:23:59.062Z</time></trkpt><trkpt lat="41.5590721" lon="13.767146"><ele>1021.3333333333334</ele><time>2026-05-04T14:24:01.061Z</time></trkpt><trkpt lat="41.5589969" lon="13.767213"><ele>1022.0</ele><time>2026-05-04T14:24:03.062Z</time></trkpt><trkpt lat="41.5589631" lon="13.767399"><ele>1022.0</ele><time>2026-05-04T14:24:05.061Z</time></trkpt><trkpt lat="41.558938" lon="13.7675723"><ele>1022.0</ele><time>2026-05-04T14:24:06.061Z</time></trkpt><trkpt lat="41.558905" lon="13.7677663"><ele>1022.0</ele><time>2026-05-04T14:24:07.062Z</time></trkpt><trkpt lat="41.5588733" lon="13.7679615"><ele>1022.0</ele><time>2026-05-04T14:24:08.061Z</time></trkpt><trkpt lat="41.5588496" lon="13.7681236"><ele>1021.0</ele><time>2026-05-04T14:24:09.062Z</time></trkpt><trkpt lat="41.558842" lon="13.7682463"><ele>1020.0</ele><time>2026-05-04T14:24:10.061Z</time></trkpt><trkpt lat="41.5588265" lon="13.7683844"><ele>1019.0</ele><time>2026-05-04T14:24:12.062Z</time></trkpt><trkpt lat="41.5587486" lon="13.768461"><ele>1018.0</ele><time>2026-05-04T14:24:14.061Z</time></trkpt><trkpt lat="41.5586542" lon="13.7685555"><ele>1017.0</ele><time>2026-05-04T14:24:16.062Z</time></trkpt><trkpt lat="41.5585945" lon="13.7686824"><ele>1017.0</ele><time>2026-05-04T14:24:18.062Z</time></trkpt><trkpt lat="41.5585337" lon="13.7688226"><ele>1017.0</ele><time>2026-05-04T14:24:20.062Z</time></trkpt><trkpt lat="41.5584362" lon="13.7689322"><ele>1017.0</ele><time>2026-05-04T14:24:22.061Z</time></trkpt><trkpt lat="41.5583821" lon="13.7689819"><ele>1017.0</ele><time>2026-05-04T14:24:23.062Z</time></trkpt><trkpt lat="41.5583076" lon="13.7690699"><ele>1017.0</ele><time>2026-05-04T14:24:25.062Z</time></trkpt><trkpt lat="41.5582749" lon="13.7691544"><ele>1017.0</ele><time>2026-05-04T14:24:27.061Z</time></trkpt><trkpt lat="41.5582538" lon="13.7692498"><ele>1017.0</ele><time>2026-05-04T14:24:29.062Z</time></trkpt><trkpt lat="41.5582471" lon="13.769361"><ele>1017.0</ele><time>2026-05-04T14:24:31.062Z</time></trkpt><trkpt lat="41.5582757" lon="13.7694653"><ele>1017.0</ele><time>2026-05-04T14:24:33.061Z</time></trkpt><trkpt lat="41.5582982" lon="13.7695511"><ele>1017.0</ele><time>2026-05-04T14:24:35.061Z</time></trkpt><trkpt lat="41.5582832" lon="13.7696413"><ele>1017.0</ele><time>2026-05-04T14:24:37.062Z</time></trkpt><trkpt lat="41.5582111" lon="13.7697066"><ele>1014.6</ele><time>2026-05-04T14:24:40.062Z</time></trkpt><trkpt lat="41.5581192" lon="13.7696544"><ele>1012.2</ele><time>2026-05-04T14:24:42.062Z</time></trkpt><trkpt lat="41.5580216" lon="13.7695858"><ele>1009.8</ele><time>2026-05-04T14:24:44.061Z</time></trkpt><trkpt lat="41.5579174" lon="13.7694916"><ele>1007.4</ele><time>2026-05-04T14:24:46.062Z</time></trkpt><trkpt lat="41.5578684" lon="13.7694378"><ele>1005.0</ele><time>2026-05-04T14:24:47.062Z</time></trkpt><trkpt lat="41.5577692" lon="13.7693726"><ele>1005.8333333333334</ele><time>2026-05-04T14:24:49.062Z</time></trkpt><trkpt lat="41.5576737" lon="13.7693723"><ele>1006.6666666666667</ele><time>2026-05-04T14:24:51.062Z</time></trkpt><trkpt lat="41.5575879" lon="13.7693851"><ele>1007.5</ele><time>2026-05-04T14:24:53.061Z</time></trkpt><trkpt lat="41.5575097" lon="13.7693714"><ele>1008.3333333333334</ele><time>2026-05-04T14:25:19.061Z</time></trkpt><trkpt lat="41.5574477" lon="13.769341"><ele>1009.1666666666667</ele><time>2026-05-04T14:25:27.061Z</time></trkpt><trkpt lat="41.5573842" lon="13.7692882"><ele>1010.0</ele><time>2026-05-04T14:25:30.062Z</time></trkpt><trkpt lat="41.5573284" lon="13.7692263"><ele>1010.0</ele><time>2026-05-04T14:25:32.061Z</time></trkpt><trkpt lat="41.5572549" lon="13.7691587"><ele>1010.0</ele><time>2026-05-04T14:25:34.061Z</time></trkpt><trkpt lat="41.5571692" lon="13.7691074"><ele>1010.0</ele><time>2026-05-04T14:25:36.062Z</time></trkpt><trkpt lat="41.5570748" lon="13.7691086"><ele>1010.0</ele><time>2026-05-04T14:25:38.062Z</time></trkpt><trkpt lat="41.5569742" lon="13.7691467"><ele>1010.0</ele><time>2026-05-04T14:25:40.061Z</time></trkpt><trkpt lat="41.5568733" lon="13.7691676"><ele>1008.0000000000001</ele><time>2026-05-04T14:25:42.061Z</time></trkpt><trkpt lat="41.556807" lon="13.7691482"><ele>1006.0</ele><time>2026-05-04T14:25:44.062Z</time></trkpt><trkpt lat="41.5567396" lon="13.7691387"><ele>1004.0</ele><time>2026-05-04T14:25:46.061Z</time></trkpt><trkpt lat="41.5566344" lon="13.7691265"><ele>1002.0</ele><time>2026-05-04T14:25:48.062Z</time></trkpt><trkpt lat="41.5565567" lon="13.7691239"><ele>1000.0000000000001</ele><time>2026-05-04T14:25:49.062Z</time></trkpt><trkpt lat="41.5564783" lon="13.7691382"><ele>998.0</ele><time>2026-05-04T14:25:50.061Z</time></trkpt><trkpt lat="41.5563944" lon="13.7691601"><ele>998.0000000000001</ele><time>2026-05-04T14:25:51.061Z</time></trkpt><trkpt lat="41.5563153" lon="13.7691916"><ele>998.0</ele><time>2026-05-04T14:25:52.062Z</time></trkpt><trkpt lat="41.556252" lon="13.7692135"><ele>998.0</ele><time>2026-05-04T14:25:53.061Z</time></trkpt><trkpt lat="41.5561554" lon="13.7692269"><ele>998.0</ele><time>2026-05-04T14:25:55.062Z</time></trkpt><trkpt lat="41.5560744" lon="13.7692361"><ele>998.0000000000001</ele><time>2026-05-04T14:25:57.061Z</time></trkpt><trkpt lat="41.5559975" lon="13.7692391"><ele>998.0</ele><time>2026-05-04T14:25:59.062Z</time></trkpt><trkpt lat="41.5559175" lon="13.7692454"><ele>996.5999999999999</ele><time>2026-05-04T14:26:01.062Z</time></trkpt><trkpt lat="41.5558233" lon="13.7692602"><ele>995.1999999999999</ele><time>2026-05-04T14:26:03.062Z</time></trkpt><trkpt lat="41.5557218" lon="13.7692867"><ele>993.8</ele><time>2026-05-04T14:26:05.062Z</time></trkpt><trkpt lat="41.5556424" lon="13.7692856"><ele>992.4</ele><time>2026-05-04T14:26:07.061Z</time></trkpt><trkpt lat="41.5555578" lon="13.7692845"><ele>991.0</ele><time>2026-05-04T14:26:09.062Z</time></trkpt><trkpt lat="41.555464" lon="13.7693197"><ele>987.8</ele><time>2026-05-04T14:26:11.061Z</time></trkpt><trkpt lat="41.5553892" lon="13.7694207"><ele>984.5999999999999</ele><time>2026-05-04T14:26:13.061Z</time></trkpt><trkpt lat="41.5553605" lon="13.7695387"><ele>981.4</ele><time>2026-05-04T14:26:15.061Z</time></trkpt><trkpt lat="41.5553939" lon="13.7696522"><ele>978.2</ele><time>2026-05-04T14:26:17.061Z</time></trkpt><trkpt lat="41.5554501" lon="13.7697658"><ele>975.0</ele><time>2026-05-04T14:26:19.061Z</time></trkpt><trkpt lat="41.555531" lon="13.7698843"><ele>975.0</ele><time>2026-05-04T14:26:21.061Z</time></trkpt><trkpt lat="41.5555908" lon="13.7699731"><ele>975.0</ele><time>2026-05-04T14:26:23.062Z</time></trkpt><trkpt lat="41.5556472" lon="13.7700498"><ele>975.0</ele><time>2026-05-04T14:26:25.061Z</time></trkpt><trkpt lat="41.5556963" lon="13.7701277"><ele>975.0</ele><time>2026-05-04T14:26:27.061Z</time></trkpt><trkpt lat="41.5557383" lon="13.7702131"><ele>975.0</ele><time>2026-05-04T14:26:29.061Z</time></trkpt><trkpt lat="41.5557977" lon="13.7703089"><ele>975.0</ele><time>2026-05-04T14:26:31.062Z</time></trkpt><trkpt lat="41.5558676" lon="13.7704275"><ele>974.2</ele><time>2026-05-04T14:26:33.061Z</time></trkpt><trkpt lat="41.5559386" lon="13.7705694"><ele>973.4</ele><time>2026-05-04T14:26:35.062Z</time></trkpt><trkpt lat="41.5560227" lon="13.7706794"><ele>972.5999999999999</ele><time>2026-05-04T14:26:37.062Z</time></trkpt><trkpt lat="41.5560951" lon="13.7707678"><ele>971.8</ele><time>2026-05-04T14:26:39.062Z</time></trkpt><trkpt lat="41.556125" lon="13.7708555"><ele>971.0</ele><time>2026-05-04T14:26:41.061Z</time></trkpt><trkpt lat="41.5561138" lon="13.7709543"><ele>966.8</ele><time>2026-05-04T14:26:43.061Z</time></trkpt><trkpt lat="41.5560713" lon="13.7710397"><ele>962.5999999999999</ele><time>2026-05-04T14:26:45.062Z</time></trkpt><trkpt lat="41.5559902" lon="13.7710989"><ele>958.4</ele><time>2026-05-04T14:26:47.062Z</time></trkpt><trkpt lat="41.5558868" lon="13.7711708"><ele>954.2</ele><time>2026-05-04T14:26:49.062Z</time></trkpt><trkpt lat="41.555817" lon="13.7712899"><ele>950.0</ele><time>2026-05-04T14:26:51.061Z</time></trkpt><trkpt lat="41.5557637" lon="13.771402"><ele>950.0000000000001</ele><time>2026-05-04T14:26:53.06Z</time></trkpt><trkpt lat="41.555702" lon="13.7714802"><ele>950.0</ele><time>2026-05-04T14:26:55.06Z</time></trkpt><trkpt lat="41.5556266" lon="13.7715346"><ele>950.0</ele><time>2026-05-04T14:26:57.061Z</time></trkpt><trkpt lat="41.5555319" lon="13.7715824"><ele>950.0</ele><time>2026-05-04T14:26:59.061Z</time></trkpt><trkpt lat="41.5554564" lon="13.7716786"><ele>950.0000000000001</ele><time>2026-05-04T14:27:01.061Z</time></trkpt><trkpt lat="41.5554311" lon="13.771765"><ele>950.0</ele><time>2026-05-04T14:27:02.06Z</time></trkpt><trkpt lat="41.5554019" lon="13.7718569"><ele>950.0000000000001</ele><time>2026-05-04T14:27:03.06Z</time></trkpt><trkpt lat="41.5553706" lon="13.7719338"><ele>950.0</ele><time>2026-05-04T14:27:04.061Z</time></trkpt><trkpt lat="41.5553322" lon="13.7720097"><ele>950.0</ele><time>2026-05-04T14:27:05.061Z</time></trkpt><trkpt lat="41.5552816" lon="13.7720766"><ele>950.0</ele><time>2026-05-04T14:27:06.061Z</time></trkpt><trkpt lat="41.5552055" lon="13.7721436"><ele>950.0000000000001</ele><time>2026-05-04T14:27:07.061Z</time></trkpt><trkpt lat="41.5551258" lon="13.7722106"><ele>950.0</ele><time>2026-05-04T14:27:08.06Z</time></trkpt><trkpt lat="41.5550409" lon="13.7722543"><ele>950.0000000000001</ele><time>2026-05-04T14:27:09.061Z</time></trkpt><trkpt lat="41.5549518" lon="13.7722854"><ele>950.0</ele><time>2026-05-04T14:27:10.06Z</time></trkpt><trkpt lat="41.5548674" lon="13.7723063"><ele>950.0</ele><time>2026-05-04T14:27:11.061Z</time></trkpt><trkpt lat="41.5547962" lon="13.772313"><ele>950.0</ele><time>2026-05-04T14:27:12.061Z</time></trkpt><trkpt lat="41.5547318" lon="13.7723348"><ele>950.0000000000001</ele><time>2026-05-04T14:27:13.061Z</time></trkpt><trkpt lat="41.5546693" lon="13.7723912"><ele>950.0</ele><time>2026-05-04T14:27:14.061Z</time></trkpt><trkpt lat="41.5546061" lon="13.7724645"><ele>950.0000000000001</ele><time>2026-05-04T14:27:15.06Z</time></trkpt><trkpt lat="41.5545545" lon="13.7725433"><ele>950.0</ele><time>2026-05-04T14:27:16.06Z</time></trkpt><trkpt lat="41.554515" lon="13.7726136"><ele>950.0</ele><time>2026-05-04T14:27:17.06Z</time></trkpt><trkpt lat="41.5544915" lon="13.7727562"><ele>950.0</ele><time>2026-05-04T14:27:19.06Z</time></trkpt><trkpt lat="41.5545028" lon="13.7728445"><ele>950.0000000000001</ele><time>2026-05-04T14:27:20.061Z</time></trkpt><trkpt lat="41.5545091" lon="13.7729284"><ele>950.0</ele><time>2026-05-04T14:27:21.061Z</time></trkpt><trkpt lat="41.5544343" lon="13.7730742"><ele>952.0000000000001</ele><time>2026-05-04T14:27:23.061Z</time></trkpt><trkpt lat="41.5543487" lon="13.7731792"><ele>954.0</ele><time>2026-05-04T14:27:25.061Z</time></trkpt><trkpt lat="41.5543343" lon="13.7732641"><ele>956.0</ele><time>2026-05-04T14:27:26.061Z</time></trkpt><trkpt lat="41.5543278" lon="13.773359"><ele>958.0</ele><time>2026-05-04T14:27:27.06Z</time></trkpt><trkpt lat="41.5543177" lon="13.7734681"><ele>960.0000000000001</ele><time>2026-05-04T14:27:28.061Z</time></trkpt><trkpt lat="41.5543069" lon="13.7735643"><ele>962.0</ele><time>2026-05-04T14:27:29.06Z</time></trkpt><trkpt lat="41.5543078" lon="13.7736596"><ele>962.5000000000001</ele><time>2026-05-04T14:27:30.06Z</time></trkpt><trkpt lat="41.5543293" lon="13.7737488"><ele>963.0</ele><time>2026-05-04T14:27:31.06Z</time></trkpt><trkpt lat="41.5543613" lon="13.7738249"><ele>963.5</ele><time>2026-05-04T14:27:32.061Z</time></trkpt><trkpt lat="41.5544075" lon="13.7739037"><ele>964.0</ele><time>2026-05-04T14:27:33.06Z</time></trkpt><trkpt lat="41.5544873" lon="13.7739796"><ele>964.5000000000001</ele><time>2026-05-04T14:27:34.06Z</time></trkpt><trkpt lat="41.5545727" lon="13.7740597"><ele>965.0</ele><time>2026-05-04T14:27:35.061Z</time></trkpt><trkpt lat="41.5546513" lon="13.7741189"><ele>959.6666666666667</ele><time>2026-05-04T14:27:36.061Z</time></trkpt><trkpt lat="41.5547232" lon="13.7741679"><ele>954.3333333333334</ele><time>2026-05-04T14:27:37.06Z</time></trkpt><trkpt lat="41.554785" lon="13.7742282"><ele>949.0</ele><time>2026-05-04T14:27:38.06Z</time></trkpt><trkpt lat="41.5548289" lon="13.7742962"><ele>943.6666666666667</ele><time>2026-05-04T14:27:39.061Z</time></trkpt><trkpt lat="41.5548408" lon="13.7744584"><ele>938.3333333333334</ele><time>2026-05-04T14:27:41.061Z</time></trkpt><trkpt lat="41.5548215" lon="13.7745432"><ele>933.0</ele><time>2026-05-04T14:27:42.061Z</time></trkpt><trkpt lat="41.5547848" lon="13.7746397"><ele>931.2</ele><time>2026-05-04T14:27:43.061Z</time></trkpt><trkpt lat="41.554741" lon="13.7747224"><ele>929.4</ele><time>2026-05-04T14:27:44.061Z</time></trkpt><trkpt lat="41.554675" lon="13.7748112"><ele>927.6000000000001</ele><time>2026-05-04T14:27:45.06Z</time></trkpt><trkpt lat="41.5545956" lon="13.7749122"><ele>925.8000000000001</ele><time>2026-05-04T14:27:46.06Z</time></trkpt><trkpt lat="41.5545275" lon="13.7750119"><ele>924.0</ele><time>2026-05-04T14:27:47.061Z</time></trkpt><trkpt lat="41.5544631" lon="13.7751176"><ele>926.4000000000001</ele><time>2026-05-04T14:27:48.06Z</time></trkpt><trkpt lat="41.5544158" lon="13.7752397"><ele>928.8000000000001</ele><time>2026-05-04T14:27:49.061Z</time></trkpt><trkpt lat="41.554385" lon="13.7753691"><ele>931.1999999999999</ele><time>2026-05-04T14:27:50.06Z</time></trkpt><trkpt lat="41.5543593" lon="13.7754953"><ele>933.5999999999999</ele><time>2026-05-04T14:27:51.06Z</time></trkpt><trkpt lat="41.5543241" lon="13.7756117"><ele>936.0</ele><time>2026-05-04T14:27:52.06Z</time></trkpt><trkpt lat="41.554283" lon="13.7757144"><ele>936.0</ele><time>2026-05-04T14:27:53.06Z</time></trkpt><trkpt lat="41.5542542" lon="13.775805"><ele>936.0</ele><time>2026-05-04T14:27:54.061Z</time></trkpt><trkpt lat="41.5542131" lon="13.7759195"><ele>936.0</ele><time>2026-05-04T14:27:56.06Z</time></trkpt><trkpt lat="41.5541945" lon="13.7760629"><ele>936.0</ele><time>2026-05-04T14:29:26.06Z</time></trkpt><trkpt lat="41.5541769" lon="13.7761561"><ele>936.0</ele><time>2026-05-04T14:29:27.061Z</time></trkpt><trkpt lat="41.5541376" lon="13.7762747"><ele>936.0</ele><time>2026-05-04T14:29:28.06Z</time></trkpt><trkpt lat="41.5540964" lon="13.7763934"><ele>933.4</ele><time>2026-05-04T14:29:29.061Z</time></trkpt><trkpt lat="41.5540549" lon="13.7765068"><ele>930.8</ele><time>2026-05-04T14:29:30.061Z</time></trkpt><trkpt lat="41.5540372" lon="13.7766272"><ele>928.1999999999999</ele><time>2026-05-04T14:29:31.061Z</time></trkpt><trkpt lat="41.5540625" lon="13.7767701"><ele>925.5999999999999</ele><time>2026-05-04T14:29:32.06Z</time></trkpt><trkpt lat="41.5540866" lon="13.7768886"><ele>923.0</ele><time>2026-05-04T14:29:33.061Z</time></trkpt><trkpt lat="41.5540907" lon="13.7769833"><ele>920.8</ele><time>2026-05-04T14:29:34.06Z</time></trkpt><trkpt lat="41.5540856" lon="13.7770723"><ele>918.5999999999999</ele><time>2026-05-04T14:29:35.06Z</time></trkpt><trkpt lat="41.5540457" lon="13.7771463"><ele>916.4000000000001</ele><time>2026-05-04T14:29:36.06Z</time></trkpt><trkpt lat="41.5539674" lon="13.7772227"><ele>914.2</ele><time>2026-05-04T14:29:37.061Z</time></trkpt><trkpt lat="41.5538602" lon="13.7773105"><ele>912.0</ele><time>2026-05-04T14:29:38.061Z</time></trkpt><trkpt lat="41.5537448" lon="13.7774018"><ele>915.8333333333334</ele><time>2026-05-04T14:29:39.06Z</time></trkpt><trkpt lat="41.5536529" lon="13.7774752"><ele>919.6666666666667</ele><time>2026-05-04T14:29:40.061Z</time></trkpt><trkpt lat="41.5535747" lon="13.7775338"><ele>923.5</ele><time>2026-05-04T14:29:41.06Z</time></trkpt><trkpt lat="41.5535371" lon="13.7776042"><ele>927.3333333333334</ele><time>2026-05-04T14:29:42.06Z</time></trkpt><trkpt lat="41.5535341" lon="13.7777008"><ele>931.1666666666667</ele><time>2026-05-04T14:29:43.061Z</time></trkpt><trkpt lat="41.5535622" lon="13.7777972"><ele>935.0</ele><time>2026-05-04T14:29:44.06Z</time></trkpt><trkpt lat="41.5536159" lon="13.7778967"><ele>935.0000000000001</ele><time>2026-05-04T14:29:45.061Z</time></trkpt><trkpt lat="41.5536876" lon="13.7779983"><ele>935.0</ele><time>2026-05-04T14:29:46.061Z</time></trkpt><trkpt lat="41.5537565" lon="13.7780918"><ele>935.0</ele><time>2026-05-04T14:29:47.06Z</time></trkpt><trkpt lat="41.5538124" lon="13.7781745"><ele>935.0</ele><time>2026-05-04T14:29:48.06Z</time></trkpt><trkpt lat="41.5538471" lon="13.7782562"><ele>935.0000000000001</ele><time>2026-05-04T14:29:49.061Z</time></trkpt><trkpt lat="41.5538505" lon="13.7783545"><ele>935.0</ele><time>2026-05-04T14:29:50.061Z</time></trkpt><trkpt lat="41.5538316" lon="13.7784506"><ele>926.8333333333334</ele><time>2026-05-04T14:29:51.061Z</time></trkpt><trkpt lat="41.5538021" lon="13.7785548"><ele>918.6666666666667</ele><time>2026-05-04T14:29:52.06Z</time></trkpt><trkpt lat="41.5537668" lon="13.7786412"><ele>910.5</ele><time>2026-05-04T14:29:53.061Z</time></trkpt><trkpt lat="41.5537137" lon="13.7787303"><ele>902.3333333333333</ele><time>2026-05-04T14:29:55.06Z</time></trkpt><trkpt lat="41.5538101" lon="13.7787686"><ele>894.1666666666666</ele><time>2026-05-04T14:30:01.061Z</time></trkpt><trkpt lat="41.553892" lon="13.7787499"><ele>886.0</ele><time>2026-05-04T14:30:02.06Z</time></trkpt><trkpt lat="41.5539736" lon="13.7787312"><ele>885.9999999999999</ele><time>2026-05-04T14:30:03.061Z</time></trkpt><trkpt lat="41.5540572" lon="13.7786927"><ele>886.0</ele><time>2026-05-04T14:30:04.06Z</time></trkpt><trkpt lat="41.5541349" lon="13.7786195"><ele>886.0</ele><time>2026-05-04T14:30:05.061Z</time></trkpt><trkpt lat="41.5541899" lon="13.778524"><ele>886.0</ele><time>2026-05-04T14:30:06.061Z</time></trkpt><trkpt lat="41.5542158" lon="13.7784223"><ele>885.9999999999999</ele><time>2026-05-04T14:30:07.061Z</time></trkpt><trkpt lat="41.5542223" lon="13.7783105"><ele>886.0</ele><time>2026-05-04T14:30:08.06Z</time></trkpt><trkpt lat="41.5541995" lon="13.7781875"><ele>888.3333333333333</ele><time>2026-05-04T14:30:09.061Z</time></trkpt><trkpt lat="41.5541441" lon="13.7780717"><ele>890.6666666666666</ele><time>2026-05-04T14:30:10.061Z</time></trkpt><trkpt lat="41.5540906" lon="13.7779719"><ele>893.0</ele><time>2026-05-04T14:30:11.06Z</time></trkpt><trkpt lat="41.5540779" lon="13.7778759"><ele>895.3333333333333</ele><time>2026-05-04T14:30:12.061Z</time></trkpt><trkpt lat="41.5540986" lon="13.7777885"><ele>897.6666666666666</ele><time>2026-05-04T14:30:13.061Z</time></trkpt><trkpt lat="41.5541486" lon="13.7777015"><ele>900.0</ele><time>2026-05-04T14:30:14.06Z</time></trkpt><trkpt lat="41.5542316" lon="13.7776397"><ele>902.4</ele><time>2026-05-04T14:30:15.061Z</time></trkpt><trkpt lat="41.5543584" lon="13.7776248"><ele>904.8</ele><time>2026-05-04T14:30:16.06Z</time></trkpt><trkpt lat="41.5544932" lon="13.7776286"><ele>907.2</ele><time>2026-05-04T14:30:17.06Z</time></trkpt><trkpt lat="41.5545895" lon="13.7776571"><ele>909.6</ele><time>2026-05-04T14:30:18.061Z</time></trkpt><trkpt lat="41.5546772" lon="13.777668"><ele>912.0</ele><time>2026-05-04T14:30:19.061Z</time></trkpt><trkpt lat="41.554753" lon="13.7776328"><ele>904.0</ele><time>2026-05-04T14:30:20.06Z</time></trkpt><trkpt lat="41.5548256" lon="13.7775233"><ele>896.0</ele><time>2026-05-04T14:30:21.06Z</time></trkpt><trkpt lat="41.5548884" lon="13.777368"><ele>888.0</ele><time>2026-05-04T14:30:22.061Z</time></trkpt><trkpt lat="41.5549446" lon="13.7772143"><ele>880.0</ele><time>2026-05-04T14:30:23.061Z</time></trkpt><trkpt lat="41.5549769" lon="13.7770598"><ele>880.0</ele><time>2026-05-04T14:30:24.061Z</time></trkpt><trkpt lat="41.5549651" lon="13.7769072"><ele>880.0</ele><time>2026-05-04T14:30:25.061Z</time></trkpt><trkpt lat="41.5549294" lon="13.7767674"><ele>880.0</ele><time>2026-05-04T14:30:26.06Z</time></trkpt><trkpt lat="41.5549068" lon="13.7766217"><ele>880.0</ele><time>2026-05-04T14:30:27.061Z</time></trkpt><trkpt lat="41.5549235" lon="13.7764719"><ele>881.25</ele><time>2026-05-04T14:30:28.06Z</time></trkpt><trkpt lat="41.554984" lon="13.7763307"><ele>882.5</ele><time>2026-05-04T14:30:29.06Z</time></trkpt><trkpt lat="41.5550769" lon="13.7762008"><ele>883.75</ele><time>2026-05-04T14:30:30.06Z</time></trkpt><trkpt lat="41.5551919" lon="13.7760817"><ele>885.0</ele><time>2026-05-04T14:30:31.061Z</time></trkpt><trkpt lat="41.5553197" lon="13.7759587"><ele>883.5</ele><time>2026-05-04T14:30:32.06Z</time></trkpt><trkpt lat="41.5554361" lon="13.7758468"><ele>882.0</ele><time>2026-05-04T14:30:33.06Z</time></trkpt><trkpt lat="41.5555341" lon="13.7757527"><ele>880.5</ele><time>2026-05-04T14:30:34.06Z</time></trkpt><trkpt lat="41.5556273" lon="13.7756901"><ele>879.0</ele><time>2026-05-04T14:30:35.06Z</time></trkpt><trkpt lat="41.5557444" lon="13.7756706"><ele>879.0</ele><time>2026-05-04T14:30:36.06Z</time></trkpt><trkpt lat="41.5558599" lon="13.7757045"><ele>879.0</ele><time>2026-05-04T14:30:37.06Z</time></trkpt><trkpt lat="41.5559806" lon="13.7757603"><ele>879.0</ele><time>2026-05-04T14:30:38.061Z</time></trkpt><trkpt lat="41.5561053" lon="13.7758207"><ele>879.0</ele><time>2026-05-04T14:30:39.06Z</time></trkpt><trkpt lat="41.5562173" lon="13.7758647"><ele>878.5</ele><time>2026-05-04T14:30:40.06Z</time></trkpt><trkpt lat="41.5563072" lon="13.7758969"><ele>878.0</ele><time>2026-05-04T14:30:41.061Z</time></trkpt><trkpt lat="41.5563676" lon="13.7759608"><ele>877.5</ele><time>2026-05-04T14:30:42.061Z</time></trkpt><trkpt lat="41.5563804" lon="13.7760482"><ele>877.0</ele><time>2026-05-04T14:30:43.06Z</time></trkpt><trkpt lat="41.5563559" lon="13.7761501"><ele>876.5</ele><time>2026-05-04T14:30:44.061Z</time></trkpt><trkpt lat="41.5562912" lon="13.7762558"><ele>876.0</ele><time>2026-05-04T14:30:45.06Z</time></trkpt><trkpt lat="41.5562048" lon="13.7763562"><ele>873.0</ele><time>2026-05-04T14:30:46.06Z</time></trkpt><trkpt lat="41.556098" lon="13.7764527"><ele>870.0</ele><time>2026-05-04T14:30:47.061Z</time></trkpt><trkpt lat="41.5559901" lon="13.7765334"><ele>867.0</ele><time>2026-05-04T14:30:48.06Z</time></trkpt><trkpt lat="41.555909" lon="13.7766189"><ele>864.0</ele><time>2026-05-04T14:30:49.06Z</time></trkpt><trkpt lat="41.5558594" lon="13.7767311"><ele>864.0</ele><time>2026-05-04T14:30:50.06Z</time></trkpt><trkpt lat="41.5558279" lon="13.7768427"><ele>864.0</ele><time>2026-05-04T14:30:51.061Z</time></trkpt><trkpt lat="41.5558315" lon="13.7769837"><ele>864.0</ele><time>2026-05-04T14:30:52.061Z</time></trkpt><trkpt lat="41.5558828" lon="13.7771575"><ele>864.0</ele><time>2026-05-04T14:30:53.06Z</time></trkpt><trkpt lat="41.5559654" lon="13.7773139"><ele>860.6666666666667</ele><time>2026-05-04T14:30:54.06Z</time></trkpt><trkpt lat="41.5560582" lon="13.7774682"><ele>857.3333333333334</ele><time>2026-05-04T14:30:55.061Z</time></trkpt><trkpt lat="41.5561594" lon="13.7776222"><ele>854.0</ele><time>2026-05-04T14:30:56.061Z</time></trkpt><trkpt lat="41.5562953" lon="13.7777672"><ele>850.3333333333334</ele><time>2026-05-04T14:30:57.06Z</time></trkpt><trkpt lat="41.556459" lon="13.7779087"><ele>846.6666666666667</ele><time>2026-05-04T14:30:58.06Z</time></trkpt><trkpt lat="41.5566346" lon="13.7780397"><ele>843.0</ele><time>2026-05-04T14:30:59.06Z</time></trkpt><trkpt lat="41.5568146" lon="13.7781497"><ele>843.0</ele><time>2026-05-04T14:31:00.06Z</time></trkpt><trkpt lat="41.5569821" lon="13.7782472"><ele>843.0</ele><time>2026-05-04T14:31:01.061Z</time></trkpt><trkpt lat="41.5571386" lon="13.7783373"><ele>843.0</ele><time>2026-05-04T14:31:02.06Z</time></trkpt><trkpt lat="41.5572825" lon="13.7784285"><ele>841.0</ele><time>2026-05-04T14:31:03.06Z</time></trkpt><trkpt lat="41.5574144" lon="13.7785239"><ele>839.0</ele><time>2026-05-04T14:31:04.061Z</time></trkpt><trkpt lat="41.5575222" lon="13.7786179"><ele>837.0</ele><time>2026-05-04T14:31:05.061Z</time></trkpt><trkpt lat="41.5576079" lon="13.7787183"><ele>835.0</ele><time>2026-05-04T14:31:06.06Z</time></trkpt><trkpt lat="41.5576768" lon="13.7788378"><ele>835.0</ele><time>2026-05-04T14:31:07.061Z</time></trkpt><trkpt lat="41.557729" lon="13.7789892"><ele>835.0</ele><time>2026-05-04T14:31:08.061Z</time></trkpt><trkpt lat="41.5577705" lon="13.7791555"><ele>835.0</ele><time>2026-05-04T14:31:09.06Z</time></trkpt><trkpt lat="41.5578197" lon="13.7793199"><ele>835.0</ele><time>2026-05-04T14:31:10.061Z</time></trkpt><trkpt lat="41.5578821" lon="13.7794871"><ele>834.0</ele><time>2026-05-04T14:31:11.061Z</time></trkpt><trkpt lat="41.5579878" lon="13.7796668"><ele>833.0</ele><time>2026-05-04T14:31:12.061Z</time></trkpt><trkpt lat="41.5581247" lon="13.7798732"><ele>832.0</ele><time>2026-05-04T14:31:13.061Z</time></trkpt><trkpt lat="41.5582682" lon="13.7800743"><ele>828.6666666666666</ele><time>2026-05-04T14:31:14.061Z</time></trkpt><trkpt lat="41.5583966" lon="13.7802703"><ele>825.3333333333333</ele><time>2026-05-04T14:31:15.06Z</time></trkpt><trkpt lat="41.5585105" lon="13.7804606"><ele>822.0</ele><time>2026-05-04T14:31:16.061Z</time></trkpt><trkpt lat="41.5586164" lon="13.7806378"><ele>822.25</ele><time>2026-05-04T14:31:17.061Z</time></trkpt><trkpt lat="41.5587096" lon="13.7807983"><ele>822.5</ele><time>2026-05-04T14:31:18.06Z</time></trkpt><trkpt lat="41.5587994" lon="13.7809515"><ele>822.75</ele><time>2026-05-04T14:31:19.061Z</time></trkpt><trkpt lat="41.5588836" lon="13.7810879"><ele>823.0</ele><time>2026-05-04T14:31:20.061Z</time></trkpt><trkpt lat="41.5589596" lon="13.7812222"><ele>822.25</ele><time>2026-05-04T14:31:21.06Z</time></trkpt><trkpt lat="41.5590223" lon="13.7813478"><ele>821.5</ele><time>2026-05-04T14:31:22.06Z</time></trkpt><trkpt lat="41.5590695" lon="13.7814736"><ele>820.75</ele><time>2026-05-04T14:31:23.06Z</time></trkpt><trkpt lat="41.5590918" lon="13.7816631"><ele>820.0</ele><time>2026-05-04T14:31:24.061Z</time></trkpt><trkpt lat="41.5591036" lon="13.7818727"><ele>817.5</ele><time>2026-05-04T14:31:25.061Z</time></trkpt><trkpt lat="41.5591258" lon="13.7820824"><ele>815.0</ele><time>2026-05-04T14:31:26.061Z</time></trkpt><trkpt lat="41.5591409" lon="13.7822685"><ele>812.5</ele><time>2026-05-04T14:31:27.061Z</time></trkpt><trkpt lat="41.5591763" lon="13.7824493"><ele>810.0</ele><time>2026-05-04T14:31:28.061Z</time></trkpt><trkpt lat="41.5592294" lon="13.7826272"><ele>806.25</ele><time>2026-05-04T14:31:29.06Z</time></trkpt><trkpt lat="41.5592914" lon="13.7827903"><ele>802.5</ele><time>2026-05-04T14:31:30.06Z</time></trkpt><trkpt lat="41.5593518" lon="13.7829382"><ele>798.75</ele><time>2026-05-04T14:31:31.06Z</time></trkpt><trkpt lat="41.5594216" lon="13.7830556"><ele>795.0</ele><time>2026-05-04T14:31:32.06Z</time></trkpt><trkpt lat="41.5594971" lon="13.7831402"><ele>795.0</ele><time>2026-05-04T14:31:33.061Z</time></trkpt><trkpt lat="41.5595675" lon="13.7832126"><ele>795.0</ele><time>2026-05-04T14:31:34.06Z</time></trkpt><trkpt lat="41.5596362" lon="13.7832924"><ele>795.0</ele><time>2026-05-04T14:31:35.061Z</time></trkpt><trkpt lat="41.5597145" lon="13.7833681"><ele>795.0</ele><time>2026-05-04T14:31:36.061Z</time></trkpt><trkpt lat="41.5598172" lon="13.7834267"><ele>795.0</ele><time>2026-05-04T14:31:37.061Z</time></trkpt><trkpt lat="41.5599394" lon="13.7834734"><ele>795.0</ele><time>2026-05-04T14:31:38.061Z</time></trkpt><trkpt lat="41.5600904" lon="13.7834982"><ele>795.0</ele><time>2026-05-04T14:31:39.061Z</time></trkpt><trkpt lat="41.5602652" lon="13.7834844"><ele>795.0</ele><time>2026-05-04T14:31:40.061Z</time></trkpt><trkpt lat="41.5604283" lon="13.7834622"><ele>791.75</ele><time>2026-05-04T14:31:41.06Z</time></trkpt><trkpt lat="41.5605718" lon="13.7834525"><ele>788.5</ele><time>2026-05-04T14:31:42.061Z</time></trkpt><trkpt lat="41.5606912" lon="13.7834533"><ele>785.25</ele><time>2026-05-04T14:31:43.06Z</time></trkpt><trkpt lat="41.5608063" lon="13.7834493"><ele>782.0</ele><time>2026-05-04T14:31:44.06Z</time></trkpt><trkpt lat="41.5609126" lon="13.7834866"><ele>780.75</ele><time>2026-05-04T14:31:45.061Z</time></trkpt><trkpt lat="41.5609923" lon="13.7835889"><ele>779.5</ele><time>2026-05-04T14:31:46.061Z</time></trkpt><trkpt lat="41.5610578" lon="13.7837394"><ele>778.25</ele><time>2026-05-04T14:31:47.061Z</time></trkpt><trkpt lat="41.5611284" lon="13.7839411"><ele>777.0</ele><time>2026-05-04T14:31:48.06Z</time></trkpt><trkpt lat="41.5612069" lon="13.784187"><ele>773.0</ele><time>2026-05-04T14:31:49.06Z</time></trkpt><trkpt lat="41.5612855" lon="13.7844118"><ele>769.0</ele><time>2026-05-04T14:31:50.061Z</time></trkpt><trkpt lat="41.5613608" lon="13.7846122"><ele>765.0</ele><time>2026-05-04T14:31:51.06Z</time></trkpt><trkpt lat="41.5614492" lon="13.7847973"><ele>765.0</ele><time>2026-05-04T14:31:52.061Z</time></trkpt><trkpt lat="41.5615372" lon="13.7849669"><ele>765.0</ele><time>2026-05-04T14:31:53.061Z</time></trkpt><trkpt lat="41.5616292" lon="13.7851248"><ele>765.0</ele><time>2026-05-04T14:31:54.061Z</time></trkpt><trkpt lat="41.5617116" lon="13.7852736"><ele>765.0</ele><time>2026-05-04T14:31:55.061Z</time></trkpt><trkpt lat="41.5617842" lon="13.7854189"><ele>763.0</ele><time>2026-05-04T14:31:56.061Z</time></trkpt><trkpt lat="41.5618462" lon="13.7855407"><ele>761.0</ele><time>2026-05-04T14:31:57.061Z</time></trkpt><trkpt lat="41.5619043" lon="13.7856383"><ele>759.0</ele><time>2026-05-04T14:31:58.06Z</time></trkpt><trkpt lat="41.5619759" lon="13.7857094"><ele>757.0</ele><time>2026-05-04T14:31:59.061Z</time></trkpt><trkpt lat="41.5620501" lon="13.7857483"><ele>755.0</ele><time>2026-05-04T14:32:00.06Z</time></trkpt><trkpt lat="41.5621395" lon="13.7857415"><ele>753.0</ele><time>2026-05-04T14:32:01.06Z</time></trkpt><trkpt lat="41.5622638" lon="13.7857034"><ele>751.0</ele><time>2026-05-04T14:32:02.06Z</time></trkpt><trkpt lat="41.5623992" lon="13.785651"><ele>749.0</ele><time>2026-05-04T14:32:03.061Z</time></trkpt><trkpt lat="41.5625305" lon="13.7856059"><ele>747.0</ele><time>2026-05-04T14:32:04.06Z</time></trkpt><trkpt lat="41.5626594" lon="13.7855623"><ele>747.0</ele><time>2026-05-04T14:32:05.061Z</time></trkpt><trkpt lat="41.5627882" lon="13.7854929"><ele>747.0</ele><time>2026-05-04T14:32:06.061Z</time></trkpt><trkpt lat="41.5629105" lon="13.7853913"><ele>747.0</ele><time>2026-05-04T14:32:07.06Z</time></trkpt><trkpt lat="41.5630123" lon="13.7852873"><ele>747.0</ele><time>2026-05-04T14:32:08.061Z</time></trkpt><trkpt lat="41.5630934" lon="13.7852014"><ele>744.75</ele><time>2026-05-04T14:32:09.061Z</time></trkpt><trkpt lat="41.5631873" lon="13.7851552"><ele>742.5</ele><time>2026-05-04T14:32:10.06Z</time></trkpt><trkpt lat="41.5632997" lon="13.7851685"><ele>740.25</ele><time>2026-05-04T14:32:11.061Z</time></trkpt><trkpt lat="41.5634354" lon="13.7852459"><ele>738.0</ele><time>2026-05-04T14:32:12.061Z</time></trkpt><trkpt lat="41.5635752" lon="13.7853499"><ele>732.0</ele><time>2026-05-04T14:32:13.06Z</time></trkpt><trkpt lat="41.5637311" lon="13.785468"><ele>726.0</ele><time>2026-05-04T14:32:14.061Z</time></trkpt><trkpt lat="41.5638908" lon="13.7855638"><ele>720.0</ele><time>2026-05-04T14:32:15.061Z</time></trkpt><trkpt lat="41.5640517" lon="13.7856379"><ele>720.0</ele><time>2026-05-04T14:32:16.06Z</time></trkpt><trkpt lat="41.5642083" lon="13.7857073"><ele>720.0</ele><time>2026-05-04T14:32:17.06Z</time></trkpt><trkpt lat="41.5643548" lon="13.7857801"><ele>720.0</ele><time>2026-05-04T14:32:18.06Z</time></trkpt><trkpt lat="41.5645078" lon="13.785855"><ele>717.0</ele><time>2026-05-04T14:32:19.059Z</time></trkpt><trkpt lat="41.5646689" lon="13.7859158"><ele>714.0</ele><time>2026-05-04T14:32:20.059Z</time></trkpt><trkpt lat="41.5648349" lon="13.7859599"><ele>711.0</ele><time>2026-05-04T14:32:21.06Z</time></trkpt><trkpt lat="41.5649972" lon="13.7860004"><ele>709.3333333333334</ele><time>2026-05-04T14:32:22.059Z</time></trkpt><trkpt lat="41.5651508" lon="13.7860447"><ele>707.6666666666667</ele><time>2026-05-04T14:32:23.059Z</time></trkpt><trkpt lat="41.5653122" lon="13.7861018"><ele>706.0</ele><time>2026-05-04T14:32:24.06Z</time></trkpt><trkpt lat="41.5654762" lon="13.7861693"><ele>703.0</ele><time>2026-05-04T14:32:25.059Z</time></trkpt><trkpt lat="41.5656356" lon="13.7862328"><ele>700.0</ele><time>2026-05-04T14:32:26.06Z</time></trkpt><trkpt lat="41.5657987" lon="13.7862979"><ele>697.0</ele><time>2026-05-04T14:32:27.059Z</time></trkpt><trkpt lat="41.5659612" lon="13.7863591"><ele>697.0</ele><time>2026-05-04T14:32:28.059Z</time></trkpt><trkpt lat="41.5661185" lon="13.7864119"><ele>697.0</ele><time>2026-05-04T14:32:29.059Z</time></trkpt><trkpt lat="41.5662698" lon="13.7864506"><ele>697.0</ele><time>2026-05-04T14:32:30.059Z</time></trkpt><trkpt lat="41.5664296" lon="13.7864655"><ele>693.0</ele><time>2026-05-04T14:32:31.059Z</time></trkpt><trkpt lat="41.5665883" lon="13.7864563"><ele>689.0</ele><time>2026-05-04T14:32:32.059Z</time></trkpt><trkpt lat="41.5667415" lon="13.7864473"><ele>685.0</ele><time>2026-05-04T14:32:33.059Z</time></trkpt><trkpt lat="41.5668932" lon="13.7864554"><ele>685.25</ele><time>2026-05-04T14:32:34.059Z</time></trkpt><trkpt lat="41.5670443" lon="13.7864896"><ele>685.5</ele><time>2026-05-04T14:32:35.06Z</time></trkpt><trkpt lat="41.5671895" lon="13.7865363"><ele>685.75</ele><time>2026-05-04T14:32:36.059Z</time></trkpt><trkpt lat="41.5673219" lon="13.7865709"><ele>686.0</ele><time>2026-05-04T14:32:37.059Z</time></trkpt><trkpt lat="41.5674334" lon="13.7865783"><ele>686.0</ele><time>2026-05-04T14:32:38.059Z</time></trkpt><trkpt lat="41.5675245" lon="13.7865771"><ele>686.0</ele><time>2026-05-04T14:32:39.059Z</time></trkpt><trkpt lat="41.5676218" lon="13.7865788"><ele>686.0</ele><time>2026-05-04T14:32:40.06Z</time></trkpt><trkpt lat="41.5677155" lon="13.7866043"><ele>686.0</ele><time>2026-05-04T14:32:41.06Z</time></trkpt><trkpt lat="41.5678163" lon="13.7866734"><ele>686.0</ele><time>2026-05-04T14:32:42.06Z</time></trkpt><trkpt lat="41.5679057" lon="13.786778"><ele>685.5</ele><time>2026-05-04T14:32:43.059Z</time></trkpt><trkpt lat="41.5679866" lon="13.7869018"><ele>685.0</ele><time>2026-05-04T14:32:44.06Z</time></trkpt><trkpt lat="41.568078" lon="13.7870347"><ele>684.5</ele><time>2026-05-04T14:32:45.06Z</time></trkpt><trkpt lat="41.5682072" lon="13.7871612"><ele>684.0</ele><time>2026-05-04T14:32:46.059Z</time></trkpt><trkpt lat="41.5683531" lon="13.7872788"><ele>684.0</ele><time>2026-05-04T14:32:47.06Z</time></trkpt><trkpt lat="41.5684983" lon="13.787391"><ele>684.0</ele><time>2026-05-04T14:32:48.06Z</time></trkpt><trkpt lat="41.5686459" lon="13.7875069"><ele>684.0</ele><time>2026-05-04T14:32:49.059Z</time></trkpt><trkpt lat="41.5687705" lon="13.7876497"><ele>680.75</ele><time>2026-05-04T14:32:50.06Z</time></trkpt><trkpt lat="41.5688689" lon="13.7877955"><ele>677.5</ele><time>2026-05-04T14:32:51.059Z</time></trkpt><trkpt lat="41.5689445" lon="13.7879413"><ele>674.25</ele><time>2026-05-04T14:32:52.059Z</time></trkpt><trkpt lat="41.5690011" lon="13.7881104"><ele>671.0</ele><time>2026-05-04T14:32:53.059Z</time></trkpt><trkpt lat="41.569056" lon="13.7882959"><ele>671.0</ele><time>2026-05-04T14:32:54.06Z</time></trkpt><trkpt lat="41.569116" lon="13.7884967"><ele>671.0</ele><time>2026-05-04T14:32:55.06Z</time></trkpt><trkpt lat="41.5691815" lon="13.7886955"><ele>671.0</ele><time>2026-05-04T14:32:56.06Z</time></trkpt><trkpt lat="41.569248" lon="13.7888824"><ele>669.75</ele><time>2026-05-04T14:32:57.06Z</time></trkpt><trkpt lat="41.5692964" lon="13.7890654"><ele>668.5</ele><time>2026-05-04T14:32:58.06Z</time></trkpt><trkpt lat="41.5693219" lon="13.7892416"><ele>667.25</ele><time>2026-05-04T14:32:59.06Z</time></trkpt><trkpt lat="41.5693403" lon="13.7894137"><ele>666.0</ele><time>2026-05-04T14:33:00.059Z</time></trkpt><trkpt lat="41.5693485" lon="13.7895888"><ele>663.75</ele><time>2026-05-04T14:33:01.059Z</time></trkpt><trkpt lat="41.5693457" lon="13.7897649"><ele>661.5</ele><time>2026-05-04T14:33:02.06Z</time></trkpt><trkpt lat="41.5693356" lon="13.7899264"><ele>659.25</ele><time>2026-05-04T14:33:03.06Z</time></trkpt><trkpt lat="41.5693184" lon="13.7900679"><ele>657.0</ele><time>2026-05-04T14:33:04.06Z</time></trkpt><trkpt lat="41.5692866" lon="13.790199"><ele>656.25</ele><time>2026-05-04T14:33:05.06Z</time></trkpt><trkpt lat="41.5692162" lon="13.7903352"><ele>655.5</ele><time>2026-05-04T14:33:06.059Z</time></trkpt><trkpt lat="41.5691378" lon="13.7904641"><ele>654.75</ele><time>2026-05-04T14:33:07.06Z</time></trkpt><trkpt lat="41.569067" lon="13.7905984"><ele>654.0</ele><time>2026-05-04T14:33:08.059Z</time></trkpt><trkpt lat="41.5690183" lon="13.7907561"><ele>654.0</ele><time>2026-05-04T14:33:09.059Z</time></trkpt><trkpt lat="41.5689786" lon="13.7909328"><ele>654.0</ele><time>2026-05-04T14:33:10.06Z</time></trkpt><trkpt lat="41.568957" lon="13.7911143"><ele>654.0</ele><time>2026-05-04T14:33:11.06Z</time></trkpt><trkpt lat="41.5689711" lon="13.7912952"><ele>654.0</ele><time>2026-05-04T14:33:12.059Z</time></trkpt><trkpt lat="41.5690167" lon="13.7914717"><ele>655.25</ele><time>2026-05-04T14:33:13.06Z</time></trkpt><trkpt lat="41.5690403" lon="13.7916539"><ele>656.5</ele><time>2026-05-04T14:33:14.059Z</time></trkpt><trkpt lat="41.5690411" lon="13.7918405"><ele>657.75</ele><time>2026-05-04T14:33:15.06Z</time></trkpt><trkpt lat="41.5690174" lon="13.7920318"><ele>659.0</ele><time>2026-05-04T14:33:16.06Z</time></trkpt><trkpt lat="41.5690068" lon="13.7922236"><ele>661.6666666666666</ele><time>2026-05-04T14:33:17.059Z</time></trkpt><trkpt lat="41.5690278" lon="13.792429"><ele>664.3333333333334</ele><time>2026-05-04T14:33:18.059Z</time></trkpt><trkpt lat="41.5690711" lon="13.792638"><ele>667.0</ele><time>2026-05-04T14:33:19.06Z</time></trkpt><trkpt lat="41.5691129" lon="13.7928253"><ele>670.0</ele><time>2026-05-04T14:33:20.059Z</time></trkpt><trkpt lat="41.5691407" lon="13.792983"><ele>673.0</ele><time>2026-05-04T14:33:21.06Z</time></trkpt><trkpt lat="41.5691339" lon="13.7931315"><ele>676.0</ele><time>2026-05-04T14:33:22.059Z</time></trkpt><trkpt lat="41.5690985" lon="13.7932625"><ele>679.0</ele><time>2026-05-04T14:33:23.06Z</time></trkpt><trkpt lat="41.5690147" lon="13.7933952"><ele>684.75</ele><time>2026-05-04T14:33:24.06Z</time></trkpt><trkpt lat="41.5689274" lon="13.7935275"><ele>690.5</ele><time>2026-05-04T14:33:25.059Z</time></trkpt><trkpt lat="41.5688539" lon="13.7936733"><ele>696.25</ele><time>2026-05-04T14:33:26.06Z</time></trkpt><trkpt lat="41.5688043" lon="13.7938481"><ele>702.0</ele><time>2026-05-04T14:33:27.06Z</time></trkpt><trkpt lat="41.5687603" lon="13.7940311"><ele>702.0</ele><time>2026-05-04T14:33:28.059Z</time></trkpt><trkpt lat="41.5687045" lon="13.7942019"><ele>702.0</ele><time>2026-05-04T14:33:29.059Z</time></trkpt><trkpt lat="41.5686293" lon="13.7943475"><ele>702.0</ele><time>2026-05-04T14:33:30.06Z</time></trkpt><trkpt lat="41.5685544" lon="13.7944575"><ele>702.0</ele><time>2026-05-04T14:33:31.059Z</time></trkpt><trkpt lat="41.5684964" lon="13.7945551"><ele>702.2</ele><time>2026-05-04T14:33:32.059Z</time></trkpt><trkpt lat="41.5684627" lon="13.7946471"><ele>702.4000000000001</ele><time>2026-05-04T14:33:33.06Z</time></trkpt><trkpt lat="41.5684974" lon="13.7948226"><ele>702.5999999999999</ele><time>2026-05-04T14:33:35.059Z</time></trkpt><trkpt lat="41.568562" lon="13.7949201"><ele>702.8</ele><time>2026-05-04T14:33:36.059Z</time></trkpt><trkpt lat="41.5686635" lon="13.7950115"><ele>703.0</ele><time>2026-05-04T14:33:37.06Z</time></trkpt><trkpt lat="41.5687735" lon="13.7951025"><ele>699.25</ele><time>2026-05-04T14:33:38.06Z</time></trkpt><trkpt lat="41.5688776" lon="13.7952097"><ele>695.5</ele><time>2026-05-04T14:33:39.06Z</time></trkpt><trkpt lat="41.5689765" lon="13.7953504"><ele>691.75</ele><time>2026-05-04T14:33:40.059Z</time></trkpt><trkpt lat="41.5690706" lon="13.7955271"><ele>688.0</ele><time>2026-05-04T14:33:41.059Z</time></trkpt><trkpt lat="41.569161" lon="13.79573"><ele>688.0</ele><time>2026-05-04T14:33:42.06Z</time></trkpt><trkpt lat="41.5692507" lon="13.7959142"><ele>688.0</ele><time>2026-05-04T14:33:43.06Z</time></trkpt><trkpt lat="41.569311" lon="13.7960907"><ele>688.0</ele><time>2026-05-04T14:33:44.06Z</time></trkpt><trkpt lat="41.5693502" lon="13.7962646"><ele>688.0</ele><time>2026-05-04T14:33:45.059Z</time></trkpt><trkpt lat="41.5693703" lon="13.7964363"><ele>686.8</ele><time>2026-05-04T14:33:46.059Z</time></trkpt><trkpt lat="41.5693901" lon="13.7965695"><ele>685.5999999999999</ele><time>2026-05-04T14:33:47.06Z</time></trkpt><trkpt lat="41.5694153" lon="13.7966859"><ele>684.4000000000001</ele><time>2026-05-04T14:33:48.06Z</time></trkpt><trkpt lat="41.56946" lon="13.7967964"><ele>683.2</ele><time>2026-05-04T14:33:49.059Z</time></trkpt><trkpt lat="41.5695253" lon="13.796889"><ele>682.0</ele><time>2026-05-04T14:33:50.06Z</time></trkpt><trkpt lat="41.5696224" lon="13.7969607"><ele>682.0</ele><time>2026-05-04T14:33:51.06Z</time></trkpt><trkpt lat="41.5697355" lon="13.7969966"><ele>682.0</ele><time>2026-05-04T14:33:52.06Z</time></trkpt><trkpt lat="41.5698765" lon="13.7970269"><ele>682.0</ele><time>2026-05-04T14:33:53.059Z</time></trkpt><trkpt lat="41.5700206" lon="13.7970446"><ele>682.0</ele><time>2026-05-04T14:33:54.059Z</time></trkpt><trkpt lat="41.570148" lon="13.7970649"><ele>682.0</ele><time>2026-05-04T14:33:55.06Z</time></trkpt><trkpt lat="41.5702727" lon="13.7970647"><ele>682.0</ele><time>2026-05-04T14:33:56.059Z</time></trkpt><trkpt lat="41.5704021" lon="13.7970197"><ele>682.0</ele><time>2026-05-04T14:33:57.059Z</time></trkpt><trkpt lat="41.5705263" lon="13.7969519"><ele>682.0</ele><time>2026-05-04T14:33:58.059Z</time></trkpt><trkpt lat="41.5706448" lon="13.796888"><ele>681.5</ele><time>2026-05-04T14:33:59.059Z</time></trkpt><trkpt lat="41.5707653" lon="13.7968512"><ele>681.0</ele><time>2026-05-04T14:34:00.06Z</time></trkpt><trkpt lat="41.5708941" lon="13.7968405"><ele>680.5</ele><time>2026-05-04T14:34:01.06Z</time></trkpt><trkpt lat="41.5710283" lon="13.7968259"><ele>680.0</ele><time>2026-05-04T14:34:02.059Z</time></trkpt><trkpt lat="41.5711614" lon="13.7967775"><ele>681.6666666666666</ele><time>2026-05-04T14:34:03.059Z</time></trkpt><trkpt lat="41.571303" lon="13.7966945"><ele>683.3333333333334</ele><time>2026-05-04T14:34:04.059Z</time></trkpt><trkpt lat="41.5714501" lon="13.7965766"><ele>685.0</ele><time>2026-05-04T14:34:05.06Z</time></trkpt><trkpt lat="41.5715983" lon="13.7964397"><ele>685.0</ele><time>2026-05-04T14:34:06.06Z</time></trkpt><trkpt lat="41.5717326" lon="13.796308"><ele>685.0</ele><time>2026-05-04T14:34:07.06Z</time></trkpt><trkpt lat="41.5718376" lon="13.7962031"><ele>685.0</ele><time>2026-05-04T14:34:08.059Z</time></trkpt><trkpt lat="41.5719324" lon="13.7960979"><ele>685.0</ele><time>2026-05-04T14:34:09.059Z</time></trkpt><trkpt lat="41.5720122" lon="13.7959711"><ele>683.6666666666667</ele><time>2026-05-04T14:34:10.06Z</time></trkpt><trkpt lat="41.5720769" lon="13.7957909"><ele>682.3333333333334</ele><time>2026-05-04T14:34:11.06Z</time></trkpt><trkpt lat="41.5721357" lon="13.7955835"><ele>681.0</ele><time>2026-05-04T14:34:12.059Z</time></trkpt><trkpt lat="41.5721781" lon="13.7954047"><ele>681.0</ele><time>2026-05-04T14:34:13.059Z</time></trkpt><trkpt lat="41.5722121" lon="13.795262"><ele>681.0</ele><time>2026-05-04T14:34:14.059Z</time></trkpt><trkpt lat="41.572259" lon="13.7951762"><ele>681.0</ele><time>2026-05-04T14:34:15.06Z</time></trkpt><trkpt lat="41.5723391" lon="13.7951184"><ele>681.0</ele><time>2026-05-04T14:34:16.06Z</time></trkpt><trkpt lat="41.5724516" lon="13.7951116"><ele>681.0</ele><time>2026-05-04T14:34:17.06Z</time></trkpt><trkpt lat="41.5725732" lon="13.7951423"><ele>681.0</ele><time>2026-05-04T14:34:18.06Z</time></trkpt><trkpt lat="41.5726911" lon="13.7951734"><ele>681.0</ele><time>2026-05-04T14:34:19.06Z</time></trkpt><trkpt lat="41.5728241" lon="13.7951488"><ele>681.0</ele><time>2026-05-04T14:34:20.06Z</time></trkpt><trkpt lat="41.5729739" lon="13.7950652"><ele>681.0</ele><time>2026-05-04T14:34:21.06Z</time></trkpt><trkpt lat="41.5731227" lon="13.7949745"><ele>681.75</ele><time>2026-05-04T14:34:22.06Z</time></trkpt><trkpt lat="41.5732733" lon="13.7949131"><ele>682.5</ele><time>2026-05-04T14:34:23.059Z</time></trkpt><trkpt lat="41.573417" lon="13.7948757"><ele>683.25</ele><time>2026-05-04T14:34:24.059Z</time></trkpt><trkpt lat="41.5735475" lon="13.7948356"><ele>684.0</ele><time>2026-05-04T14:34:25.059Z</time></trkpt><trkpt lat="41.5736841" lon="13.7947791"><ele>683.75</ele><time>2026-05-04T14:34:26.059Z</time></trkpt><trkpt lat="41.5738089" lon="13.7946819"><ele>683.5</ele><time>2026-05-04T14:34:27.059Z</time></trkpt><trkpt lat="41.5739156" lon="13.7945515"><ele>683.25</ele><time>2026-05-04T14:34:28.06Z</time></trkpt><trkpt lat="41.5740107" lon="13.7943885"><ele>683.0</ele><time>2026-05-04T14:34:29.06Z</time></trkpt><trkpt lat="41.5740981" lon="13.794227"><ele>683.0</ele><time>2026-05-04T14:34:30.059Z</time></trkpt><trkpt lat="41.5742038" lon="13.794083"><ele>683.0</ele><time>2026-05-04T14:34:31.06Z</time></trkpt><trkpt lat="41.5743323" lon="13.7939807"><ele>683.0</ele><time>2026-05-04T14:34:32.059Z</time></trkpt><trkpt lat="41.574486" lon="13.7939105"><ele>679.3333333333333</ele><time>2026-05-04T14:34:33.06Z</time></trkpt><trkpt lat="41.5746594" lon="13.7938776"><ele>675.6666666666666</ele><time>2026-05-04T14:34:34.059Z</time></trkpt><trkpt lat="41.5748429" lon="13.7938542"><ele>672.0</ele><time>2026-05-04T14:34:35.059Z</time></trkpt><trkpt lat="41.5750343" lon="13.7938247"><ele>672.0</ele><time>2026-05-04T14:34:36.06Z</time></trkpt><trkpt lat="41.5752538" lon="13.7937823"><ele>672.0</ele><time>2026-05-04T14:34:37.059Z</time></trkpt><trkpt lat="41.5754723" lon="13.7937321"><ele>672.0</ele><time>2026-05-04T14:34:38.06Z</time></trkpt><trkpt lat="41.5756796" lon="13.7936788"><ele>668.6666666666666</ele><time>2026-05-04T14:34:39.059Z</time></trkpt><trkpt lat="41.5758826" lon="13.7936247"><ele>665.3333333333333</ele><time>2026-05-04T14:34:40.06Z</time></trkpt><trkpt lat="41.5760817" lon="13.793571"><ele>662.0</ele><time>2026-05-04T14:34:41.06Z</time></trkpt><trkpt lat="41.5762665" lon="13.7935369"><ele>666.3333333333333</ele><time>2026-05-04T14:34:42.06Z</time></trkpt><trkpt lat="41.576443" lon="13.7935088"><ele>670.6666666666666</ele><time>2026-05-04T14:34:43.06Z</time></trkpt><trkpt lat="41.5765994" lon="13.7934767"><ele>675.0</ele><time>2026-05-04T14:34:44.059Z</time></trkpt><trkpt lat="41.5767424" lon="13.793451"><ele>675.0</ele><time>2026-05-04T14:34:45.059Z</time></trkpt><trkpt lat="41.5768819" lon="13.7934341"><ele>675.0</ele><time>2026-05-04T14:34:46.059Z</time></trkpt><trkpt lat="41.5770227" lon="13.7934221"><ele>675.0</ele><time>2026-05-04T14:34:47.059Z</time></trkpt><trkpt lat="41.5771616" lon="13.7934433"><ele>675.0</ele><time>2026-05-04T14:34:48.06Z</time></trkpt><trkpt lat="41.577297" lon="13.7934792"><ele>672.75</ele><time>2026-05-04T14:34:49.06Z</time></trkpt><trkpt lat="41.5774413" lon="13.7934908"><ele>670.5</ele><time>2026-05-04T14:34:50.059Z</time></trkpt><trkpt lat="41.5775873" lon="13.7934792"><ele>668.25</ele><time>2026-05-04T14:34:51.06Z</time></trkpt><trkpt lat="41.5777383" lon="13.7934187"><ele>666.0</ele><time>2026-05-04T14:34:52.06Z</time></trkpt><trkpt lat="41.5778789" lon="13.7933433"><ele>661.5</ele><time>2026-05-04T14:34:53.059Z</time></trkpt><trkpt lat="41.5780061" lon="13.7932642"><ele>657.0</ele><time>2026-05-04T14:34:54.059Z</time></trkpt><trkpt lat="41.5781509" lon="13.7932318"><ele>652.5</ele><time>2026-05-04T14:34:55.059Z</time></trkpt><trkpt lat="41.5783048" lon="13.7932408"><ele>648.0</ele><time>2026-05-04T14:34:56.06Z</time></trkpt><trkpt lat="41.5784542" lon="13.7932487"><ele>648.0</ele><time>2026-05-04T14:34:57.06Z</time></trkpt><trkpt lat="41.5785903" lon="13.7932303"><ele>648.0</ele><time>2026-05-04T14:34:58.059Z</time></trkpt><trkpt lat="41.5787282" lon="13.7931862"><ele>648.0</ele><time>2026-05-04T14:34:59.059Z</time></trkpt><trkpt lat="41.5788742" lon="13.7930973"><ele>648.0</ele><time>2026-05-04T14:35:00.06Z</time></trkpt><trkpt lat="41.5790212" lon="13.792999"><ele>644.6666666666666</ele><time>2026-05-04T14:35:01.06Z</time></trkpt><trkpt lat="41.5791727" lon="13.7929323"><ele>641.3333333333333</ele><time>2026-05-04T14:35:02.059Z</time></trkpt><trkpt lat="41.579327" lon="13.7928671"><ele>638.0</ele><time>2026-05-04T14:35:03.059Z</time></trkpt><trkpt lat="41.5794838" lon="13.792787"><ele>641.6666666666666</ele><time>2026-05-04T14:35:04.06Z</time></trkpt><trkpt lat="41.5796529" lon="13.7926708"><ele>645.3333333333334</ele><time>2026-05-04T14:35:05.06Z</time></trkpt><trkpt lat="41.5798217" lon="13.792548"><ele>649.0</ele><time>2026-05-04T14:35:06.06Z</time></trkpt><trkpt lat="41.5799825" lon="13.7924211"><ele>649.0</ele><time>2026-05-04T14:35:07.059Z</time></trkpt><trkpt lat="41.5801326" lon="13.7923212"><ele>649.0</ele><time>2026-05-04T14:35:08.059Z</time></trkpt><trkpt lat="41.5802534" lon="13.7922311"><ele>649.0</ele><time>2026-05-04T14:35:09.06Z</time></trkpt><trkpt lat="41.5803663" lon="13.792138"><ele>649.0</ele><time>2026-05-04T14:35:10.06Z</time></trkpt><trkpt lat="41.5804604" lon="13.7920232"><ele>647.5</ele><time>2026-05-04T14:35:11.06Z</time></trkpt><trkpt lat="41.5805399" lon="13.7918836"><ele>646.0</ele><time>2026-05-04T14:35:12.059Z</time></trkpt><trkpt lat="41.5806294" lon="13.7917536"><ele>644.5</ele><time>2026-05-04T14:35:13.059Z</time></trkpt><trkpt lat="41.5807412" lon="13.7916424"><ele>643.0</ele><time>2026-05-04T14:35:14.059Z</time></trkpt><trkpt lat="41.5808419" lon="13.7915334"><ele>643.0</ele><time>2026-05-04T14:35:15.06Z</time></trkpt><trkpt lat="41.5809564" lon="13.7914265"><ele>643.0</ele><time>2026-05-04T14:35:16.06Z</time></trkpt><trkpt lat="41.5810993" lon="13.7913247"><ele>643.0</ele><time>2026-05-04T14:35:17.059Z</time></trkpt><trkpt lat="41.5812762" lon="13.7912278"><ele>641.6666666666667</ele><time>2026-05-04T14:35:18.059Z</time></trkpt><trkpt lat="41.5814301" lon="13.7911236"><ele>640.3333333333334</ele><time>2026-05-04T14:35:19.06Z</time></trkpt><trkpt lat="41.5815781" lon="13.7910339"><ele>639.0</ele><time>2026-05-04T14:35:20.06Z</time></trkpt><trkpt lat="41.5817046" lon="13.7909232"><ele>639.0</ele><time>2026-05-04T14:35:21.059Z</time></trkpt><trkpt lat="41.5818233" lon="13.7907754"><ele>639.0</ele><time>2026-05-04T14:35:22.06Z</time></trkpt><trkpt lat="41.5819355" lon="13.7905937"><ele>639.0</ele><time>2026-05-04T14:35:23.06Z</time></trkpt><trkpt lat="41.5820305" lon="13.7904331"><ele>640.8</ele><time>2026-05-04T14:35:24.06Z</time></trkpt><trkpt lat="41.5821135" lon="13.7902966"><ele>642.5999999999999</ele><time>2026-05-04T14:35:25.059Z</time></trkpt><trkpt lat="41.582188" lon="13.7902"><ele>644.4</ele><time>2026-05-04T14:35:26.06Z</time></trkpt><trkpt lat="41.58226" lon="13.7901637"><ele>646.1999999999999</ele><time>2026-05-04T14:35:27.06Z</time></trkpt><trkpt lat="41.5823469" lon="13.7901866"><ele>648.0</ele><time>2026-05-04T14:35:28.06Z</time></trkpt><trkpt lat="41.582435" lon="13.7902563"><ele>643.25</ele><time>2026-05-04T14:35:29.059Z</time></trkpt><trkpt lat="41.5825302" lon="13.7903907"><ele>638.5</ele><time>2026-05-04T14:35:30.059Z</time></trkpt><trkpt lat="41.5826394" lon="13.7905363"><ele>633.75</ele><time>2026-05-04T14:35:31.06Z</time></trkpt><trkpt lat="41.5827545" lon="13.7906613"><ele>629.0</ele><time>2026-05-04T14:35:32.06Z</time></trkpt><trkpt lat="41.582851" lon="13.7907509"><ele>629.0</ele><time>2026-05-04T14:35:33.06Z</time></trkpt><trkpt lat="41.5829484" lon="13.7907898"><ele>629.0</ele><time>2026-05-04T14:35:34.06Z</time></trkpt><trkpt lat="41.5830432" lon="13.7907884"><ele>629.0</ele><time>2026-05-04T14:35:35.059Z</time></trkpt><trkpt lat="41.5831539" lon="13.7907372"><ele>629.0</ele><time>2026-05-04T14:35:36.06Z</time></trkpt><trkpt lat="41.5832641" lon="13.790679"><ele>629.0</ele><time>2026-05-04T14:35:37.06Z</time></trkpt><trkpt lat="41.5833727" lon="13.7906367"><ele>629.0</ele><time>2026-05-04T14:35:38.059Z</time></trkpt><trkpt lat="41.5834857" lon="13.7906047"><ele>629.0</ele><time>2026-05-04T14:35:39.06Z</time></trkpt><trkpt lat="41.5836079" lon="13.7906194"><ele>629.0</ele><time>2026-05-04T14:35:40.06Z</time></trkpt><trkpt lat="41.5837286" lon="13.7906747"><ele>629.0</ele><time>2026-05-04T14:35:41.059Z</time></trkpt><trkpt lat="41.583843" lon="13.7907219"><ele>627.75</ele><time>2026-05-04T14:35:42.06Z</time></trkpt><trkpt lat="41.5839595" lon="13.7907438"><ele>626.5</ele><time>2026-05-04T14:35:43.06Z</time></trkpt><trkpt lat="41.584086" lon="13.7907391"><ele>625.25</ele><time>2026-05-04T14:35:44.059Z</time></trkpt><trkpt lat="41.5842199" lon="13.7906935"><ele>624.0</ele><time>2026-05-04T14:35:45.06Z</time></trkpt><trkpt lat="41.5843478" lon="13.7906176"><ele>624.0</ele><time>2026-05-04T14:35:46.06Z</time></trkpt><trkpt lat="41.5844667" lon="13.7905384"><ele>624.0</ele><time>2026-05-04T14:35:47.06Z</time></trkpt><trkpt lat="41.5845678" lon="13.7904696"><ele>624.0</ele><time>2026-05-04T14:35:48.059Z</time></trkpt><trkpt lat="41.5846697" lon="13.7903953"><ele>624.0</ele><time>2026-05-04T14:35:49.059Z</time></trkpt><trkpt lat="41.584791" lon="13.7903181"><ele>628.0</ele><time>2026-05-04T14:35:50.06Z</time></trkpt><trkpt lat="41.5849302" lon="13.7902135"><ele>632.0</ele><time>2026-05-04T14:35:51.06Z</time></trkpt><trkpt lat="41.5850608" lon="13.7900832"><ele>636.0</ele><time>2026-05-04T14:35:52.059Z</time></trkpt><trkpt lat="41.5851798" lon="13.7899571"><ele>636.0</ele><time>2026-05-04T14:35:53.059Z</time></trkpt><trkpt lat="41.5852871" lon="13.7898649"><ele>636.0</ele><time>2026-05-04T14:35:54.059Z</time></trkpt><trkpt lat="41.5853945" lon="13.7898008"><ele>636.0</ele><time>2026-05-04T14:35:55.059Z</time></trkpt><trkpt lat="41.5854962" lon="13.7897605"><ele>636.0</ele><time>2026-05-04T14:35:56.06Z</time></trkpt><trkpt lat="41.5855953" lon="13.7897625"><ele>636.25</ele><time>2026-05-04T14:35:57.06Z</time></trkpt><trkpt lat="41.5856727" lon="13.7897914"><ele>636.5</ele><time>2026-05-04T14:35:58.06Z</time></trkpt><trkpt lat="41.5857508" lon="13.7898843"><ele>636.75</ele><time>2026-05-04T14:35:59.06Z</time></trkpt><trkpt lat="41.5858259" lon="13.7900197"><ele>637.0</ele><time>2026-05-04T14:36:00.059Z</time></trkpt><trkpt lat="41.58591" lon="13.7901858"><ele>630.6666666666667</ele><time>2026-05-04T14:36:01.059Z</time></trkpt><trkpt lat="41.5859883" lon="13.7903535"><ele>624.3333333333334</ele><time>2026-05-04T14:36:02.059Z</time></trkpt><trkpt lat="41.5860518" lon="13.7905225"><ele>618.0</ele><time>2026-05-04T14:36:03.059Z</time></trkpt><trkpt lat="41.5860851" lon="13.7907419"><ele>615.0</ele><time>2026-05-04T14:36:04.06Z</time></trkpt><trkpt lat="41.5861222" lon="13.7910134"><ele>612.0</ele><time>2026-05-04T14:36:05.059Z</time></trkpt><trkpt lat="41.5861646" lon="13.7913213"><ele>609.0</ele><time>2026-05-04T14:36:06.059Z</time></trkpt><trkpt lat="41.5862109" lon="13.7916232"><ele>621.3333333333334</ele><time>2026-05-04T14:36:07.06Z</time></trkpt><trkpt lat="41.5862585" lon="13.7919069"><ele>633.6666666666667</ele><time>2026-05-04T14:36:08.059Z</time></trkpt><trkpt lat="41.5863087" lon="13.7921597"><ele>646.0</ele><time>2026-05-04T14:36:09.06Z</time></trkpt><trkpt lat="41.5863467" lon="13.7923811"><ele>646.0</ele><time>2026-05-04T14:36:10.059Z</time></trkpt><trkpt lat="41.5863578" lon="13.792581"><ele>646.0</ele><time>2026-05-04T14:36:11.059Z</time></trkpt><trkpt lat="41.5863278" lon="13.7927833"><ele>646.0</ele><time>2026-05-04T14:36:12.059Z</time></trkpt><trkpt lat="41.5862852" lon="13.7929747"><ele>645.6666666666667</ele><time>2026-05-04T14:36:13.059Z</time></trkpt><trkpt lat="41.5862639" lon="13.7931584"><ele>645.3333333333334</ele><time>2026-05-04T14:36:14.06Z</time></trkpt><trkpt lat="41.5862704" lon="13.7933585"><ele>645.0</ele><time>2026-05-04T14:36:15.059Z</time></trkpt><trkpt lat="41.5863132" lon="13.7935998"><ele>643.6666666666666</ele><time>2026-05-04T14:36:16.059Z</time></trkpt><trkpt lat="41.5863738" lon="13.7938699"><ele>642.3333333333333</ele><time>2026-05-04T14:36:17.059Z</time></trkpt><trkpt lat="41.5864343" lon="13.7941463"><ele>641.0</ele><time>2026-05-04T14:36:18.06Z</time></trkpt><trkpt lat="41.5864791" lon="13.7944213"><ele>638.3333333333333</ele><time>2026-05-04T14:36:19.06Z</time></trkpt><trkpt lat="41.5865163" lon="13.7946838"><ele>635.6666666666666</ele><time>2026-05-04T14:36:20.059Z</time></trkpt><trkpt lat="41.5865618" lon="13.7949521"><ele>633.0</ele><time>2026-05-04T14:36:21.06Z</time></trkpt><trkpt lat="41.5866208" lon="13.7952221"><ele>627.3333333333334</ele><time>2026-05-04T14:36:22.06Z</time></trkpt><trkpt lat="41.5866771" lon="13.7954771"><ele>621.6666666666667</ele><time>2026-05-04T14:36:23.06Z</time></trkpt><trkpt lat="41.5867274" lon="13.795708"><ele>616.0</ele><time>2026-05-04T14:36:24.059Z</time></trkpt><trkpt lat="41.5867691" lon="13.7959049"><ele>617.75</ele><time>2026-05-04T14:36:25.06Z</time></trkpt><trkpt lat="41.5868037" lon="13.7960733"><ele>619.5</ele><time>2026-05-04T14:36:26.06Z</time></trkpt><trkpt lat="41.5868532" lon="13.7962129"><ele>621.25</ele><time>2026-05-04T14:36:27.059Z</time></trkpt><trkpt lat="41.5869325" lon="13.7963338"><ele>623.0</ele><time>2026-05-04T14:36:28.059Z</time></trkpt><trkpt lat="41.5870268" lon="13.7964582"><ele>623.0</ele><time>2026-05-04T14:36:29.06Z</time></trkpt><trkpt lat="41.5871191" lon="13.7965781"><ele>623.0</ele><time>2026-05-04T14:36:30.06Z</time></trkpt><trkpt lat="41.5872124" lon="13.7966805"><ele>623.0</ele><time>2026-05-04T14:36:31.059Z</time></trkpt><trkpt lat="41.5873191" lon="13.7967665"><ele>623.0</ele><time>2026-05-04T14:36:32.059Z</time></trkpt><trkpt lat="41.5874406" lon="13.7968439"><ele>620.0</ele><time>2026-05-04T14:36:33.06Z</time></trkpt><trkpt lat="41.5875636" lon="13.7969072"><ele>617.0</ele><time>2026-05-04T14:36:34.06Z</time></trkpt><trkpt lat="41.5877109" lon="13.7969382"><ele>614.0</ele><time>2026-05-04T14:36:35.06Z</time></trkpt><trkpt lat="41.5878619" lon="13.7969628"><ele>611.0</ele><time>2026-05-04T14:36:36.059Z</time></trkpt><trkpt lat="41.5880149" lon="13.7969911"><ele>611.0</ele><time>2026-05-04T14:36:37.059Z</time></trkpt><trkpt lat="41.5881456" lon="13.7970508"><ele>611.0</ele><time>2026-05-04T14:36:38.06Z</time></trkpt><trkpt lat="41.5882675" lon="13.7971299"><ele>611.0</ele><time>2026-05-04T14:36:39.059Z</time></trkpt><trkpt lat="41.5883783" lon="13.7972161"><ele>611.0</ele><time>2026-05-04T14:36:40.059Z</time></trkpt><trkpt lat="41.588478" lon="13.7973298"><ele>611.0</ele><time>2026-05-04T14:36:41.06Z</time></trkpt><trkpt lat="41.5885712" lon="13.7974816"><ele>611.0</ele><time>2026-05-04T14:36:42.059Z</time></trkpt><trkpt lat="41.5886698" lon="13.7976541"><ele>611.0</ele><time>2026-05-04T14:36:43.06Z</time></trkpt><trkpt lat="41.5887644" lon="13.7978226"><ele>608.0</ele><time>2026-05-04T14:36:44.059Z</time></trkpt><trkpt lat="41.5888533" lon="13.7979573"><ele>605.0</ele><time>2026-05-04T14:36:45.059Z</time></trkpt><trkpt lat="41.5889395" lon="13.7980678"><ele>602.0</ele><time>2026-05-04T14:36:46.06Z</time></trkpt><trkpt lat="41.5890424" lon="13.7981503"><ele>599.0</ele><time>2026-05-04T14:36:47.059Z</time></trkpt><trkpt lat="41.5891609" lon="13.7981899"><ele>599.0</ele><time>2026-05-04T14:36:48.06Z</time></trkpt><trkpt lat="41.58929" lon="13.7981988"><ele>599.0</ele><time>2026-05-04T14:36:49.06Z</time></trkpt><trkpt lat="41.5894367" lon="13.7981873"><ele>599.0</ele><time>2026-05-04T14:36:50.06Z</time></trkpt><trkpt lat="41.5896105" lon="13.7981735"><ele>596.6666666666666</ele><time>2026-05-04T14:36:51.06Z</time></trkpt><trkpt lat="41.5897971" lon="13.798151"><ele>594.3333333333334</ele><time>2026-05-04T14:36:52.06Z</time></trkpt><trkpt lat="41.5899564" lon="13.7981173"><ele>592.0</ele><time>2026-05-04T14:36:53.059Z</time></trkpt><trkpt lat="41.5901038" lon="13.7980728"><ele>592.0</ele><time>2026-05-04T14:36:54.06Z</time></trkpt><trkpt lat="41.5902376" lon="13.7979981"><ele>592.0</ele><time>2026-05-04T14:36:55.06Z</time></trkpt><trkpt lat="41.5903627" lon="13.797899"><ele>592.0</ele><time>2026-05-04T14:36:56.06Z</time></trkpt><trkpt lat="41.5904713" lon="13.7978104"><ele>592.0</ele><time>2026-05-04T14:36:57.06Z</time></trkpt><trkpt lat="41.5905938" lon="13.7977383"><ele>590.0</ele><time>2026-05-04T14:36:58.059Z</time></trkpt><trkpt lat="41.5907197" lon="13.7977052"><ele>588.0</ele><time>2026-05-04T14:36:59.06Z</time></trkpt><trkpt lat="41.5908372" lon="13.7976942"><ele>586.0</ele><time>2026-05-04T14:37:00.06Z</time></trkpt><trkpt lat="41.5909646" lon="13.7977237"><ele>584.0</ele><time>2026-05-04T14:37:01.06Z</time></trkpt><trkpt lat="41.591072" lon="13.7977629"><ele>584.0</ele><time>2026-05-04T14:37:02.059Z</time></trkpt><trkpt lat="41.5911573" lon="13.7978167"><ele>584.0</ele><time>2026-05-04T14:37:03.058Z</time></trkpt><trkpt lat="41.5912067" lon="13.7978738"><ele>584.0</ele><time>2026-05-04T14:37:04.059Z</time></trkpt><trkpt lat="41.5911952" lon="13.7980002"><ele>584.0</ele><time>2026-05-04T14:37:06.058Z</time></trkpt><trkpt lat="41.591134" lon="13.7980538"><ele>584.0</ele><time>2026-05-04T14:37:07.058Z</time></trkpt><trkpt lat="41.5910317" lon="13.7980796"><ele>584.0</ele><time>2026-05-04T14:37:08.059Z</time></trkpt><trkpt lat="41.5909012" lon="13.7980831"><ele>584.0</ele><time>2026-05-04T14:37:09.059Z</time></trkpt><trkpt lat="41.5907811" lon="13.798092"><ele>584.0</ele><time>2026-05-04T14:37:10.058Z</time></trkpt><trkpt lat="41.5906562" lon="13.7981313"><ele>584.0</ele><time>2026-05-04T14:37:11.059Z</time></trkpt><trkpt lat="41.5905435" lon="13.7982089"><ele>584.0</ele><time>2026-05-04T14:37:12.058Z</time></trkpt><trkpt lat="41.5904489" lon="13.7983029"><ele>584.0</ele><time>2026-05-04T14:37:13.058Z</time></trkpt><trkpt lat="41.5903856" lon="13.7984058"><ele>584.0</ele><time>2026-05-04T14:37:14.059Z</time></trkpt><trkpt lat="41.5903499" lon="13.7984996"><ele>584.0</ele><time>2026-05-04T14:37:15.058Z</time></trkpt><trkpt lat="41.5903511" lon="13.7985957"><ele>584.0</ele><time>2026-05-04T14:37:16.059Z</time></trkpt><trkpt lat="41.5903886" lon="13.7986724"><ele>584.0</ele><time>2026-05-04T14:37:17.058Z</time></trkpt><trkpt lat="41.5904617" lon="13.7987298"><ele>584.0</ele><time>2026-05-04T14:37:18.058Z</time></trkpt><trkpt lat="41.59058" lon="13.7987674"><ele>572.6666666666666</ele><time>2026-05-04T14:37:19.059Z</time></trkpt><trkpt lat="41.590745" lon="13.7988024"><ele>561.3333333333334</ele><time>2026-05-04T14:37:20.058Z</time></trkpt><trkpt lat="41.5909085" lon="13.798844"><ele>550.0</ele><time>2026-05-04T14:37:21.059Z</time></trkpt><trkpt lat="41.5910693" lon="13.7988889"><ele>551.25</ele><time>2026-05-04T14:37:22.059Z</time></trkpt><trkpt lat="41.5912176" lon="13.7989316"><ele>552.5</ele><time>2026-05-04T14:37:23.058Z</time></trkpt><trkpt lat="41.5913562" lon="13.7989785"><ele>553.75</ele><time>2026-05-04T14:37:24.059Z</time></trkpt><trkpt lat="41.5915008" lon="13.7990178"><ele>555.0</ele><time>2026-05-04T14:37:25.059Z</time></trkpt><trkpt lat="41.59166" lon="13.7990424"><ele>555.0</ele><time>2026-05-04T14:37:26.058Z</time></trkpt><trkpt lat="41.5918346" lon="13.7990529"><ele>555.0</ele><time>2026-05-04T14:37:27.058Z</time></trkpt><trkpt lat="41.592028" lon="13.7990683"><ele>555.0</ele><time>2026-05-04T14:37:28.059Z</time></trkpt><trkpt lat="41.5922085" lon="13.7990782"><ele>552.6666666666666</ele><time>2026-05-04T14:37:29.059Z</time></trkpt><trkpt lat="41.5923848" lon="13.7990903"><ele>550.3333333333333</ele><time>2026-05-04T14:37:30.058Z</time></trkpt><trkpt lat="41.5925451" lon="13.7991075"><ele>548.0</ele><time>2026-05-04T14:37:31.059Z</time></trkpt><trkpt lat="41.5926904" lon="13.7991308"><ele>548.0</ele><time>2026-05-04T14:37:32.058Z</time></trkpt><trkpt lat="41.592839" lon="13.7991636"><ele>548.0</ele><time>2026-05-04T14:37:33.059Z</time></trkpt><trkpt lat="41.5929968" lon="13.7992043"><ele>548.0</ele><time>2026-05-04T14:37:34.059Z</time></trkpt><trkpt lat="41.593169" lon="13.7992453"><ele>548.0</ele><time>2026-05-04T14:37:35.059Z</time></trkpt><trkpt lat="41.5933407" lon="13.7992992"><ele>548.0</ele><time>2026-05-04T14:37:36.058Z</time></trkpt><trkpt lat="41.5934981" lon="13.7993522"><ele>548.0</ele><time>2026-05-04T14:37:37.059Z</time></trkpt><trkpt lat="41.5936343" lon="13.799405"><ele>543.4</ele><time>2026-05-04T14:37:38.059Z</time></trkpt><trkpt lat="41.5937479" lon="13.7994522"><ele>538.8</ele><time>2026-05-04T14:37:39.059Z</time></trkpt><trkpt lat="41.5938335" lon="13.7994947"><ele>534.2</ele><time>2026-05-04T14:37:40.058Z</time></trkpt><trkpt lat="41.593899" lon="13.7995344"><ele>529.6</ele><time>2026-05-04T14:37:41.059Z</time></trkpt><trkpt lat="41.5939432" lon="13.7996428"><ele>525.0</ele><time>2026-05-04T14:37:43.058Z</time></trkpt><trkpt lat="41.5938483" lon="13.7997658"><ele>525.0</ele><time>2026-05-04T14:37:45.058Z</time></trkpt><trkpt lat="41.5937343" lon="13.7997983"><ele>525.0</ele><time>2026-05-04T14:37:46.058Z</time></trkpt><trkpt lat="41.5935886" lon="13.7998335"><ele>525.0</ele><time>2026-05-04T14:37:47.059Z</time></trkpt><trkpt lat="41.5934227" lon="13.7998843"><ele>525.0</ele><time>2026-05-04T14:37:48.059Z</time></trkpt><trkpt lat="41.5932463" lon="13.7999393"><ele>523.75</ele><time>2026-05-04T14:37:49.059Z</time></trkpt><trkpt lat="41.5930824" lon="13.7999824"><ele>522.5</ele><time>2026-05-04T14:37:50.059Z</time></trkpt><trkpt lat="41.5929361" lon="13.8000209"><ele>521.25</ele><time>2026-05-04T14:37:51.058Z</time></trkpt><trkpt lat="41.5928198" lon="13.8000404"><ele>520.0</ele><time>2026-05-04T14:37:52.059Z</time></trkpt><trkpt lat="41.5927194" lon="13.8000571"><ele>519.6666666666667</ele><time>2026-05-04T14:37:53.058Z</time></trkpt><trkpt lat="41.5926329" lon="13.8000729"><ele>519.3333333333334</ele><time>2026-05-04T14:37:54.059Z</time></trkpt><trkpt lat="41.5925641" lon="13.8001055"><ele>519.0</ele><time>2026-05-04T14:37:55.059Z</time></trkpt><trkpt lat="41.5925358" lon="13.8002309"><ele>518.6666666666666</ele><time>2026-05-04T14:37:57.058Z</time></trkpt><trkpt lat="41.5925875" lon="13.8003024"><ele>518.3333333333333</ele><time>2026-05-04T14:37:58.059Z</time></trkpt><trkpt lat="41.5926748" lon="13.8003884"><ele>518.0</ele><time>2026-05-04T14:37:59.058Z</time></trkpt><trkpt lat="41.5928085" lon="13.8004863"><ele>510.3333333333333</ele><time>2026-05-04T14:38:00.058Z</time></trkpt><trkpt lat="41.5929441" lon="13.8006068"><ele>502.66666666666663</ele><time>2026-05-04T14:38:01.058Z</time></trkpt><trkpt lat="41.5930712" lon="13.8007413"><ele>495.0</ele><time>2026-05-04T14:38:02.059Z</time></trkpt><trkpt lat="41.5931843" lon="13.8008726"><ele>495.0</ele><time>2026-05-04T14:38:03.059Z</time></trkpt><trkpt lat="41.5932892" lon="13.8009877"><ele>495.0</ele><time>2026-05-04T14:38:04.058Z</time></trkpt><trkpt lat="41.5933676" lon="13.8010684"><ele>495.0</ele><time>2026-05-04T14:38:05.059Z</time></trkpt><trkpt lat="41.593455" lon="13.8011875"><ele>495.0</ele><time>2026-05-04T14:38:07.059Z</time></trkpt><trkpt lat="41.5935086" lon="13.8012642"><ele>495.0</ele><time>2026-05-04T14:38:09.059Z</time></trkpt><trkpt lat="41.593604" lon="13.8013224"><ele>494.25</ele><time>2026-05-04T14:38:12.058Z</time></trkpt><trkpt lat="41.593703" lon="13.8013243"><ele>493.5</ele><time>2026-05-04T14:38:13.059Z</time></trkpt><trkpt lat="41.5938365" lon="13.8013098"><ele>492.75</ele><time>2026-05-04T14:38:14.059Z</time></trkpt><trkpt lat="41.5939985" lon="13.8012999"><ele>492.0</ele><time>2026-05-04T14:38:15.059Z</time></trkpt><trkpt lat="41.5941644" lon="13.8012957"><ele>492.0</ele><time>2026-05-04T14:38:16.058Z</time></trkpt><trkpt lat="41.5943183" lon="13.8013144"><ele>492.0</ele><time>2026-05-04T14:38:17.058Z</time></trkpt><trkpt lat="41.5944698" lon="13.8013967"><ele>492.0</ele><time>2026-05-04T14:38:18.059Z</time></trkpt><trkpt lat="41.594624" lon="13.8015158"><ele>493.33333333333337</ele><time>2026-05-04T14:38:19.058Z</time></trkpt><trkpt lat="41.594786" lon="13.8016688"><ele>494.6666666666667</ele><time>2026-05-04T14:38:20.058Z</time></trkpt><trkpt lat="41.5949531" lon="13.8018306"><ele>496.0</ele><time>2026-05-04T14:38:21.058Z</time></trkpt><trkpt lat="41.5951083" lon="13.8019818"><ele>496.0</ele><time>2026-05-04T14:38:22.059Z</time></trkpt><trkpt lat="41.5952369" lon="13.8021359"><ele>496.0</ele><time>2026-05-04T14:38:23.059Z</time></trkpt><trkpt lat="41.5953486" lon="13.8022956"><ele>496.0</ele><time>2026-05-04T14:38:24.058Z</time></trkpt><trkpt lat="41.5954304" lon="13.8024601"><ele>500.0</ele><time>2026-05-04T14:38:25.058Z</time></trkpt><trkpt lat="41.595472" lon="13.8026595"><ele>504.0</ele><time>2026-05-04T14:38:26.058Z</time></trkpt><trkpt lat="41.5954777" lon="13.8028841"><ele>508.0</ele><time>2026-05-04T14:38:27.058Z</time></trkpt><trkpt lat="41.5954787" lon="13.8031121"><ele>508.2</ele><time>2026-05-04T14:38:28.058Z</time></trkpt><trkpt lat="41.5954792" lon="13.8032995"><ele>508.4</ele><time>2026-05-04T14:38:29.059Z</time></trkpt><trkpt lat="41.5954878" lon="13.8034639"><ele>508.59999999999997</ele><time>2026-05-04T14:38:30.058Z</time></trkpt><trkpt lat="41.595528" lon="13.803573"><ele>508.79999999999995</ele><time>2026-05-04T14:38:31.059Z</time></trkpt><trkpt lat="41.5956047" lon="13.8036392"><ele>509.0</ele><time>2026-05-04T14:38:32.058Z</time></trkpt><trkpt lat="41.5956929" lon="13.8036548"><ele>509.0</ele><time>2026-05-04T14:38:33.059Z</time></trkpt><trkpt lat="41.5957848" lon="13.8036109"><ele>509.0</ele><time>2026-05-04T14:38:34.058Z</time></trkpt><trkpt lat="41.5958653" lon="13.8034818"><ele>509.0</ele><time>2026-05-04T14:38:35.058Z</time></trkpt><trkpt lat="41.5959449" lon="13.803309"><ele>509.0</ele><time>2026-05-04T14:38:36.059Z</time></trkpt><trkpt lat="41.5960137" lon="13.803114"><ele>509.0</ele><time>2026-05-04T14:38:37.059Z</time></trkpt><trkpt lat="41.5960701" lon="13.802931"><ele>509.0</ele><time>2026-05-04T14:38:38.059Z</time></trkpt><trkpt lat="41.5961378" lon="13.8027781"><ele>509.0</ele><time>2026-05-04T14:38:39.058Z</time></trkpt><trkpt lat="41.5962456" lon="13.8026397"><ele>509.0</ele><time>2026-05-04T14:38:40.059Z</time></trkpt><trkpt lat="41.5963727" lon="13.8025315"><ele>510.4</ele><time>2026-05-04T14:38:41.059Z</time></trkpt><trkpt lat="41.5964885" lon="13.8024443"><ele>511.79999999999995</ele><time>2026-05-04T14:38:42.059Z</time></trkpt><trkpt lat="41.5965853" lon="13.8023867"><ele>513.2</ele><time>2026-05-04T14:38:43.058Z</time></trkpt><trkpt lat="41.5966479" lon="13.8023485"><ele>514.6</ele><time>2026-05-04T14:38:44.059Z</time></trkpt><trkpt lat="41.5967327" lon="13.8022768"><ele>516.0</ele><time>2026-05-04T14:39:32.059Z</time></trkpt><trkpt lat="41.5968577" lon="13.8021749"><ele>516.0</ele><time>2026-05-04T14:39:34.058Z</time></trkpt><trkpt lat="41.5969493" lon="13.8020881"><ele>516.0</ele><time>2026-05-04T14:39:35.059Z</time></trkpt><trkpt lat="41.5970507" lon="13.8020059"><ele>516.0</ele><time>2026-05-04T14:39:36.059Z</time></trkpt><trkpt lat="41.5971518" lon="13.8019293"><ele>516.0</ele><time>2026-05-04T14:39:37.059Z</time></trkpt><trkpt lat="41.597254" lon="13.8018632"><ele>516.1666666666666</ele><time>2026-05-04T14:39:38.058Z</time></trkpt><trkpt lat="41.5973504" lon="13.8018115"><ele>516.3333333333334</ele><time>2026-05-04T14:39:39.059Z</time></trkpt><trkpt lat="41.5974422" lon="13.8017875"><ele>516.5</ele><time>2026-05-04T14:39:40.058Z</time></trkpt><trkpt lat="41.597526" lon="13.8017563"><ele>516.6666666666667</ele><time>2026-05-04T14:39:41.059Z</time></trkpt><trkpt lat="41.597599" lon="13.8017033"><ele>516.8333333333334</ele><time>2026-05-04T14:39:42.058Z</time></trkpt><trkpt lat="41.5976531" lon="13.8016226"><ele>517.0</ele><time>2026-05-04T14:39:43.059Z</time></trkpt><trkpt lat="41.5976841" lon="13.801524"><ele>517.0</ele><time>2026-05-04T14:39:44.059Z</time></trkpt><trkpt lat="41.5977409" lon="13.8014235"><ele>517.0</ele><time>2026-05-04T14:39:45.058Z</time></trkpt><trkpt lat="41.5978347" lon="13.8013051"><ele>517.0</ele><time>2026-05-04T14:39:46.058Z</time></trkpt><trkpt lat="41.5979679" lon="13.8011829"><ele>517.0</ele><time>2026-05-04T14:39:47.059Z</time></trkpt><trkpt lat="41.5981038" lon="13.8010614"><ele>517.0</ele><time>2026-05-04T14:39:48.059Z</time></trkpt><trkpt lat="41.5982336" lon="13.8009586"><ele>517.0</ele><time>2026-05-04T14:39:49.059Z</time></trkpt><trkpt lat="41.5983369" lon="13.8008611"><ele>517.0</ele><time>2026-05-04T14:39:50.058Z</time></trkpt><trkpt lat="41.5984295" lon="13.8007838"><ele>517.0</ele><time>2026-05-04T14:39:51.058Z</time></trkpt><trkpt lat="41.5985137" lon="13.8007413"><ele>517.0</ele><time>2026-05-04T14:39:52.059Z</time></trkpt><trkpt lat="41.5985944" lon="13.8007494"><ele>517.0</ele><time>2026-05-04T14:39:53.058Z</time></trkpt><trkpt lat="41.5986679" lon="13.8008086"><ele>517.0</ele><time>2026-05-04T14:39:54.059Z</time></trkpt><trkpt lat="41.5987125" lon="13.800911"><ele>517.0</ele><time>2026-05-04T14:39:55.058Z</time></trkpt><trkpt lat="41.5987639" lon="13.8010419"><ele>517.0</ele><time>2026-05-04T14:39:56.058Z</time></trkpt><trkpt lat="41.5988171" lon="13.8011764"><ele>515.0</ele><time>2026-05-04T14:39:57.059Z</time></trkpt><trkpt lat="41.5988956" lon="13.8013044"><ele>513.0</ele><time>2026-05-04T14:39:58.059Z</time></trkpt><trkpt lat="41.5990137" lon="13.8014123"><ele>511.0</ele><time>2026-05-04T14:39:59.058Z</time></trkpt><trkpt lat="41.5991522" lon="13.8014799"><ele>509.0</ele><time>2026-05-04T14:40:00.059Z</time></trkpt><trkpt lat="41.5993051" lon="13.8015084"><ele>509.0</ele><time>2026-05-04T14:40:01.058Z</time></trkpt><trkpt lat="41.5994464" lon="13.8014828"><ele>509.0</ele><time>2026-05-04T14:40:02.059Z</time></trkpt><trkpt lat="41.5996167" lon="13.8014073"><ele>509.0</ele><time>2026-05-04T14:40:03.058Z</time></trkpt><trkpt lat="41.5997889" lon="13.8012632"><ele>508.0</ele><time>2026-05-04T14:40:04.059Z</time></trkpt><trkpt lat="41.5999697" lon="13.8011194"><ele>507.0</ele><time>2026-05-04T14:40:05.058Z</time></trkpt><trkpt lat="41.6001472" lon="13.8009897"><ele>506.0</ele><time>2026-05-04T14:40:06.059Z</time></trkpt><trkpt lat="41.6003245" lon="13.8008724"><ele>500.5</ele><time>2026-05-04T14:40:07.058Z</time></trkpt><trkpt lat="41.6005234" lon="13.8007555"><ele>495.0</ele><time>2026-05-04T14:40:08.058Z</time></trkpt><trkpt lat="41.600762" lon="13.8006561"><ele>495.0</ele><time>2026-05-04T14:40:09.058Z</time></trkpt><trkpt lat="41.6010387" lon="13.8005481"><ele>495.0</ele><time>2026-05-04T14:40:10.058Z</time></trkpt><trkpt lat="41.6013306" lon="13.8004313"><ele>499.0</ele><time>2026-05-04T14:40:11.059Z</time></trkpt><trkpt lat="41.6016176" lon="13.8003211"><ele>503.0</ele><time>2026-05-04T14:40:12.058Z</time></trkpt><trkpt lat="41.6018874" lon="13.8002138"><ele>497.5</ele><time>2026-05-04T14:40:13.059Z</time></trkpt><trkpt lat="41.6021321" lon="13.8001187"><ele>492.0</ele><time>2026-05-04T14:40:14.059Z</time></trkpt><trkpt lat="41.6023451" lon="13.8000333"><ele>492.0</ele><time>2026-05-04T14:40:15.059Z</time></trkpt><trkpt lat="41.6025514" lon="13.7999585"><ele>492.0</ele><time>2026-05-04T14:40:16.058Z</time></trkpt><trkpt lat="41.602754" lon="13.7999018"><ele>492.0</ele><time>2026-05-04T14:40:17.058Z</time></trkpt><trkpt lat="41.6029603" lon="13.7998488"><ele>492.0</ele><time>2026-05-04T14:40:18.059Z</time></trkpt><trkpt lat="41.6031768" lon="13.7997925"><ele>492.0</ele><time>2026-05-04T14:40:19.058Z</time></trkpt><trkpt lat="41.6033988" lon="13.799739"><ele>492.0</ele><time>2026-05-04T14:40:20.058Z</time></trkpt><trkpt lat="41.6036234" lon="13.799698"><ele>491.5</ele><time>2026-05-04T14:40:21.059Z</time></trkpt><trkpt lat="41.6038545" lon="13.7996586"><ele>491.0</ele><time>2026-05-04T14:40:22.059Z</time></trkpt><trkpt lat="41.6040923" lon="13.7996074"><ele>491.0</ele><time>2026-05-04T14:40:23.058Z</time></trkpt><trkpt lat="41.6043379" lon="13.7995451"><ele>491.0</ele><time>2026-05-04T14:40:24.059Z</time></trkpt><trkpt lat="41.6045692" lon="13.7994719"><ele>490.3333333333333</ele><time>2026-05-04T14:40:25.058Z</time></trkpt><trkpt lat="41.6047877" lon="13.7993955"><ele>489.66666666666663</ele><time>2026-05-04T14:40:26.059Z</time></trkpt><trkpt lat="41.6049957" lon="13.7993129"><ele>489.0</ele><time>2026-05-04T14:40:27.059Z</time></trkpt><trkpt lat="41.6051961" lon="13.7992264"><ele>482.0</ele><time>2026-05-04T14:40:28.058Z</time></trkpt><trkpt lat="41.6053875" lon="13.7991264"><ele>475.0</ele><time>2026-05-04T14:40:29.059Z</time></trkpt><trkpt lat="41.6055697" lon="13.7990274"><ele>468.0</ele><time>2026-05-04T14:40:30.059Z</time></trkpt><trkpt lat="41.605736" lon="13.7989352"><ele>468.0</ele><time>2026-05-04T14:40:31.059Z</time></trkpt><trkpt lat="41.6058758" lon="13.7988603"><ele>468.0</ele><time>2026-05-04T14:40:32.059Z</time></trkpt><trkpt lat="41.6059936" lon="13.7988068"><ele>468.0</ele><time>2026-05-04T14:40:33.058Z</time></trkpt><trkpt lat="41.6060893" lon="13.7987724"><ele>468.0</ele><time>2026-05-04T14:40:34.059Z</time></trkpt><trkpt lat="41.6061674" lon="13.7987519"><ele>466.4</ele><time>2026-05-04T14:40:35.059Z</time></trkpt><trkpt lat="41.6062627" lon="13.7987055"><ele>464.79999999999995</ele><time>2026-05-04T14:40:37.058Z</time></trkpt><trkpt lat="41.6062736" lon="13.7985876"><ele>463.2</ele><time>2026-05-04T14:40:39.058Z</time></trkpt><trkpt lat="41.6062606" lon="13.7984912"><ele>461.6</ele><time>2026-05-04T14:40:40.058Z</time></trkpt><trkpt lat="41.6062576" lon="13.7983833"><ele>460.0</ele><time>2026-05-04T14:40:41.058Z</time></trkpt><trkpt lat="41.6063028" lon="13.7982542"><ele>460.0</ele><time>2026-05-04T14:40:42.058Z</time></trkpt><trkpt lat="41.606372" lon="13.7981525"><ele>460.0</ele><time>2026-05-04T14:40:43.059Z</time></trkpt><trkpt lat="41.6064723" lon="13.7980221"><ele>460.0</ele><time>2026-05-04T14:40:44.059Z</time></trkpt><trkpt lat="41.6065997" lon="13.7978685"><ele>460.0</ele><time>2026-05-04T14:40:45.059Z</time></trkpt><trkpt lat="41.6067454" lon="13.7976974"><ele>459.0</ele><time>2026-05-04T14:40:46.058Z</time></trkpt><trkpt lat="41.6069117" lon="13.7975145"><ele>458.0</ele><time>2026-05-04T14:40:47.058Z</time></trkpt><trkpt lat="41.6070845" lon="13.7973379"><ele>457.0</ele><time>2026-05-04T14:40:48.059Z</time></trkpt><trkpt lat="41.6072808" lon="13.7971754"><ele>457.0</ele><time>2026-05-04T14:40:49.058Z</time></trkpt><trkpt lat="41.6074973" lon="13.7970323"><ele>457.0</ele><time>2026-05-04T14:40:50.058Z</time></trkpt><trkpt lat="41.6077326" lon="13.796905"><ele>460.5</ele><time>2026-05-04T14:40:51.059Z</time></trkpt><trkpt lat="41.6079784" lon="13.7967902"><ele>464.0</ele><time>2026-05-04T14:40:52.059Z</time></trkpt><trkpt lat="41.6082405" lon="13.7967039"><ele>464.0</ele><time>2026-05-04T14:40:53.058Z</time></trkpt><trkpt lat="41.6085107" lon="13.7966448"><ele>464.0</ele><time>2026-05-04T14:40:54.058Z</time></trkpt><trkpt lat="41.6087862" lon="13.7966159"><ele>459.5</ele><time>2026-05-04T14:40:55.058Z</time></trkpt><trkpt lat="41.6090667" lon="13.7966246"><ele>455.0</ele><time>2026-05-04T14:40:56.059Z</time></trkpt><trkpt lat="41.6093415" lon="13.796646"><ele>453.5</ele><time>2026-05-04T14:40:57.058Z</time></trkpt><trkpt lat="41.6096186" lon="13.7966894"><ele>452.0</ele><time>2026-05-04T14:40:58.059Z</time></trkpt><trkpt lat="41.6099" lon="13.7967378"><ele>452.0</ele><time>2026-05-04T14:40:59.059Z</time></trkpt><trkpt lat="41.6101868" lon="13.7967891"><ele>452.0</ele><time>2026-05-04T14:41:00.058Z</time></trkpt><trkpt lat="41.6104724" lon="13.7968264"><ele>451.0</ele><time>2026-05-04T14:41:01.058Z</time></trkpt><trkpt lat="41.6107549" lon="13.7968564"><ele>450.0</ele><time>2026-05-04T14:41:02.059Z</time></trkpt><trkpt lat="41.6110417" lon="13.7968751"><ele>449.5</ele><time>2026-05-04T14:41:03.059Z</time></trkpt><trkpt lat="41.6113263" lon="13.7968756"><ele>449.0</ele><time>2026-05-04T14:41:04.058Z</time></trkpt><trkpt lat="41.6116104" lon="13.7968516"><ele>448.5</ele><time>2026-05-04T14:41:05.059Z</time></trkpt><trkpt lat="41.6118946" lon="13.7967968"><ele>448.0</ele><time>2026-05-04T14:41:06.058Z</time></trkpt><trkpt lat="41.6121738" lon="13.7967099"><ele>443.0</ele><time>2026-05-04T14:41:07.059Z</time></trkpt><trkpt lat="41.6124409" lon="13.7965957"><ele>438.0</ele><time>2026-05-04T14:41:08.059Z</time></trkpt><trkpt lat="41.6126988" lon="13.7964506"><ele>433.0</ele><time>2026-05-04T14:41:09.059Z</time></trkpt><trkpt lat="41.6129378" lon="13.796277"><ele>428.0</ele><time>2026-05-04T14:41:10.059Z</time></trkpt><trkpt lat="41.6131752" lon="13.7960836"><ele>430.0</ele><time>2026-05-04T14:41:11.058Z</time></trkpt><trkpt lat="41.6134012" lon="13.7958608"><ele>432.0</ele><time>2026-05-04T14:41:12.059Z</time></trkpt><trkpt lat="41.6136151" lon="13.7956086"><ele>429.0</ele><time>2026-05-04T14:41:13.059Z</time></trkpt><trkpt lat="41.613822" lon="13.7953362"><ele>426.0</ele><time>2026-05-04T14:41:14.059Z</time></trkpt><trkpt lat="41.6140246" lon="13.7950503"><ele>426.0</ele><time>2026-05-04T14:41:15.058Z</time></trkpt><trkpt lat="41.6142186" lon="13.7947643"><ele>426.0</ele><time>2026-05-04T14:41:16.059Z</time></trkpt><trkpt lat="41.6144136" lon="13.7944725"><ele>420.5</ele><time>2026-05-04T14:41:17.058Z</time></trkpt><trkpt lat="41.6146033" lon="13.7941853"><ele>415.0</ele><time>2026-05-04T14:41:18.058Z</time></trkpt><trkpt lat="41.6147934" lon="13.7938938"><ele>415.0</ele><time>2026-05-04T14:41:19.058Z</time></trkpt><trkpt lat="41.6149772" lon="13.7935973"><ele>415.0</ele><time>2026-05-04T14:41:20.059Z</time></trkpt><trkpt lat="41.6151538" lon="13.7932929"><ele>407.5</ele><time>2026-05-04T14:41:21.059Z</time></trkpt><trkpt lat="41.615331" lon="13.7929908"><ele>400.0</ele><time>2026-05-04T14:41:22.058Z</time></trkpt><trkpt lat="41.6155078" lon="13.7926867"><ele>401.0</ele><time>2026-05-04T14:41:23.058Z</time></trkpt><trkpt lat="41.6156847" lon="13.7923863"><ele>402.0</ele><time>2026-05-04T14:41:24.059Z</time></trkpt><trkpt lat="41.6158638" lon="13.7920889"><ele>396.0</ele><time>2026-05-04T14:41:25.058Z</time></trkpt><trkpt lat="41.6160442" lon="13.7917967"><ele>390.0</ele><time>2026-05-04T14:41:26.059Z</time></trkpt><trkpt lat="41.6162218" lon="13.7915059"><ele>390.0</ele><time>2026-05-04T14:41:27.059Z</time></trkpt><trkpt lat="41.6163991" lon="13.7912146"><ele>390.0</ele><time>2026-05-04T14:41:28.059Z</time></trkpt><trkpt lat="41.6165795" lon="13.7909217"><ele>398.0</ele><time>2026-05-04T14:41:29.059Z</time></trkpt><trkpt lat="41.6167566" lon="13.790624"><ele>406.0</ele><time>2026-05-04T14:41:30.059Z</time></trkpt><trkpt lat="41.6169352" lon="13.7903337"><ele>398.0</ele><time>2026-05-04T14:41:31.059Z</time></trkpt><trkpt lat="41.6171169" lon="13.7900503"><ele>390.0</ele><time>2026-05-04T14:41:32.059Z</time></trkpt><trkpt lat="41.6172982" lon="13.789765"><ele>390.0</ele><time>2026-05-04T14:41:33.059Z</time></trkpt><trkpt lat="41.6174776" lon="13.7894914"><ele>390.0</ele><time>2026-05-04T14:41:34.058Z</time></trkpt><trkpt lat="41.6176558" lon="13.7892139"><ele>381.0</ele><time>2026-05-04T14:41:35.058Z</time></trkpt><trkpt lat="41.6178352" lon="13.7889398"><ele>372.0</ele><time>2026-05-04T14:41:36.058Z</time></trkpt><trkpt lat="41.6180181" lon="13.7886631"><ele>378.5</ele><time>2026-05-04T14:41:37.059Z</time></trkpt><trkpt lat="41.6182017" lon="13.7883887"><ele>385.0</ele><time>2026-05-04T14:41:38.059Z</time></trkpt><trkpt lat="41.6183903" lon="13.7881111"><ele>385.0</ele><time>2026-05-04T14:41:39.059Z</time></trkpt><trkpt lat="41.6185842" lon="13.7878156"><ele>385.0</ele><time>2026-05-04T14:41:40.058Z</time></trkpt><trkpt lat="41.6187807" lon="13.7875162"><ele>381.5</ele><time>2026-05-04T14:41:41.059Z</time></trkpt><trkpt lat="41.6189768" lon="13.7872214"><ele>378.0</ele><time>2026-05-04T14:41:42.059Z</time></trkpt><trkpt lat="41.6191635" lon="13.7869439"><ele>382.5</ele><time>2026-05-04T14:41:43.058Z</time></trkpt><trkpt lat="41.6193434" lon="13.7866781"><ele>387.0</ele><time>2026-05-04T14:41:44.059Z</time></trkpt><trkpt lat="41.6195153" lon="13.7864203"><ele>380.5</ele><time>2026-05-04T14:41:45.059Z</time></trkpt><trkpt lat="41.6196745" lon="13.7861721"><ele>374.0</ele><time>2026-05-04T14:41:46.059Z</time></trkpt><trkpt lat="41.6198254" lon="13.7859439"><ele>374.0</ele><time>2026-05-04T14:41:47.058Z</time></trkpt><trkpt lat="41.6199595" lon="13.7857357"><ele>374.0</ele><time>2026-05-04T14:41:48.059Z</time></trkpt><trkpt lat="41.6200846" lon="13.7855399"><ele>374.0</ele><time>2026-05-04T14:41:49.059Z</time></trkpt><trkpt lat="41.6202111" lon="13.7853585"><ele>369.33333333333337</ele><time>2026-05-04T14:41:50.058Z</time></trkpt><trkpt lat="41.6203463" lon="13.7852016"><ele>364.6666666666667</ele><time>2026-05-04T14:41:51.059Z</time></trkpt><trkpt lat="41.6204923" lon="13.7850712"><ele>360.0</ele><time>2026-05-04T14:41:52.059Z</time></trkpt><trkpt lat="41.6206447" lon="13.7849659"><ele>360.0</ele><time>2026-05-04T14:41:53.059Z</time></trkpt><trkpt lat="41.620803" lon="13.7848847"><ele>360.0</ele><time>2026-05-04T14:41:54.059Z</time></trkpt><trkpt lat="41.6209579" lon="13.7848189"><ele>360.0</ele><time>2026-05-04T14:41:55.059Z</time></trkpt><trkpt lat="41.6211224" lon="13.7847842"><ele>358.3333333333333</ele><time>2026-05-04T14:41:56.059Z</time></trkpt><trkpt lat="41.621304" lon="13.7847661"><ele>356.66666666666663</ele><time>2026-05-04T14:41:57.059Z</time></trkpt><trkpt lat="41.621496" lon="13.7847785"><ele>355.0</ele><time>2026-05-04T14:41:58.058Z</time></trkpt><trkpt lat="41.6216837" lon="13.7848344"><ele>355.0</ele><time>2026-05-04T14:41:59.059Z</time></trkpt><trkpt lat="41.621869" lon="13.7849135"><ele>355.0</ele><time>2026-05-04T14:42:00.058Z</time></trkpt><trkpt lat="41.6220551" lon="13.7850115"><ele>355.0</ele><time>2026-05-04T14:42:01.058Z</time></trkpt><trkpt lat="41.6222453" lon="13.7851336"><ele>352.5</ele><time>2026-05-04T14:42:02.059Z</time></trkpt><trkpt lat="41.6224459" lon="13.7852971"><ele>350.0</ele><time>2026-05-04T14:42:03.058Z</time></trkpt><trkpt lat="41.6226549" lon="13.7854978"><ele>349.5</ele><time>2026-05-04T14:42:04.059Z</time></trkpt><trkpt lat="41.6228759" lon="13.7857065"><ele>349.0</ele><time>2026-05-04T14:42:05.057Z</time></trkpt><trkpt lat="41.6231007" lon="13.7859112"><ele>349.0</ele><time>2026-05-04T14:42:06.058Z</time></trkpt><trkpt lat="41.6233096" lon="13.7861098"><ele>349.0</ele><time>2026-05-04T14:42:07.057Z</time></trkpt><trkpt lat="41.623506" lon="13.7862956"><ele>349.0</ele><time>2026-05-04T14:42:08.058Z</time></trkpt><trkpt lat="41.6236834" lon="13.7864755"><ele>349.0</ele><time>2026-05-04T14:42:09.058Z</time></trkpt><trkpt lat="41.623845" lon="13.7866554"><ele>349.0</ele><time>2026-05-04T14:42:10.058Z</time></trkpt><trkpt lat="41.6239886" lon="13.7868528"><ele>349.66666666666663</ele><time>2026-05-04T14:42:11.057Z</time></trkpt><trkpt lat="41.6241158" lon="13.7870744"><ele>350.3333333333333</ele><time>2026-05-04T14:42:12.058Z</time></trkpt><trkpt lat="41.6242211" lon="13.7873092"><ele>351.0</ele><time>2026-05-04T14:42:13.057Z</time></trkpt><trkpt lat="41.6243164" lon="13.7875792"><ele>350.5</ele><time>2026-05-04T14:42:14.058Z</time></trkpt><trkpt lat="41.6244218" lon="13.7878768"><ele>350.0</ele><time>2026-05-04T14:42:15.058Z</time></trkpt><trkpt lat="41.6245477" lon="13.788216"><ele>351.0</ele><time>2026-05-04T14:42:16.058Z</time></trkpt><trkpt lat="41.6246829" lon="13.7886004"><ele>352.0</ele><time>2026-05-04T14:42:17.058Z</time></trkpt><trkpt lat="41.6248144" lon="13.7889757"><ele>352.0</ele><time>2026-05-04T14:42:18.057Z</time></trkpt><trkpt lat="41.6249185" lon="13.7893173"><ele>352.0</ele><time>2026-05-04T14:42:19.058Z</time></trkpt><trkpt lat="41.6250137" lon="13.7895995"><ele>352.0</ele><time>2026-05-04T14:42:20.058Z</time></trkpt><trkpt lat="41.6250982" lon="13.7898363"><ele>352.0</ele><time>2026-05-04T14:42:21.058Z</time></trkpt><trkpt lat="41.6251696" lon="13.7900431"><ele>352.0</ele><time>2026-05-04T14:42:22.057Z</time></trkpt><trkpt lat="41.6252355" lon="13.7902333"><ele>352.40000000000003</ele><time>2026-05-04T14:42:23.057Z</time></trkpt><trkpt lat="41.6252915" lon="13.7904022"><ele>352.8</ele><time>2026-05-04T14:42:24.058Z</time></trkpt><trkpt lat="41.6253343" lon="13.7905477"><ele>353.2</ele><time>2026-05-04T14:42:25.057Z</time></trkpt><trkpt lat="41.6253721" lon="13.7906528"><ele>353.6</ele><time>2026-05-04T14:42:26.057Z</time></trkpt><trkpt lat="41.6254151" lon="13.7907816"><ele>354.0</ele><time>2026-05-04T14:42:28.057Z</time></trkpt><trkpt lat="41.6254342" lon="13.7908802"><ele>354.0</ele><time>2026-05-04T14:42:30.058Z</time></trkpt><trkpt lat="41.6254235" lon="13.7910083"><ele>354.0</ele><time>2026-05-04T14:42:32.058Z</time></trkpt><trkpt lat="41.6254165" lon="13.7911076"><ele>354.0</ele><time>2026-05-04T14:42:33.057Z</time></trkpt><trkpt lat="41.6254346" lon="13.7911989"><ele>354.0</ele><time>2026-05-04T14:42:34.058Z</time></trkpt><trkpt lat="41.6255193" lon="13.7912873"><ele>354.0</ele><time>2026-05-04T14:42:36.058Z</time></trkpt><trkpt lat="41.6255947" lon="13.7912792"><ele>354.0</ele><time>2026-05-04T14:42:37.057Z</time></trkpt><trkpt lat="41.6256672" lon="13.7912254"><ele>354.0</ele><time>2026-05-04T14:42:38.058Z</time></trkpt><trkpt lat="41.6257237" lon="13.7911164"><ele>354.0</ele><time>2026-05-04T14:42:39.058Z</time></trkpt><trkpt lat="41.6257693" lon="13.7909954"><ele>354.0</ele><time>2026-05-04T14:42:40.057Z</time></trkpt><trkpt lat="41.6258573" lon="13.7908665"><ele>354.0</ele><time>2026-05-04T14:42:41.057Z</time></trkpt><trkpt lat="41.6259926" lon="13.7907178"><ele>353.6666666666667</ele><time>2026-05-04T14:42:42.057Z</time></trkpt><trkpt lat="41.6261746" lon="13.7905628"><ele>353.33333333333337</ele><time>2026-05-04T14:42:43.058Z</time></trkpt><trkpt lat="41.6263818" lon="13.7904202"><ele>353.0</ele><time>2026-05-04T14:42:44.058Z</time></trkpt><trkpt lat="41.6266043" lon="13.7902903"><ele>353.5</ele><time>2026-05-04T14:42:45.057Z</time></trkpt><trkpt lat="41.6268179" lon="13.7901617"><ele>354.0</ele><time>2026-05-04T14:42:46.057Z</time></trkpt><trkpt lat="41.6270385" lon="13.7900444"><ele>353.3333333333333</ele><time>2026-05-04T14:42:47.057Z</time></trkpt><trkpt lat="41.6272533" lon="13.7899338"><ele>352.66666666666663</ele><time>2026-05-04T14:42:48.058Z</time></trkpt><trkpt lat="41.6274568" lon="13.7898254"><ele>352.0</ele><time>2026-05-04T14:42:49.058Z</time></trkpt><trkpt lat="41.627643" lon="13.789727"><ele>351.0</ele><time>2026-05-04T14:42:50.058Z</time></trkpt><trkpt lat="41.6278223" lon="13.7896345"><ele>350.0</ele><time>2026-05-04T14:42:51.058Z</time></trkpt><trkpt lat="41.6279972" lon="13.789541"><ele>349.0</ele><time>2026-05-04T14:42:52.058Z</time></trkpt><trkpt lat="41.6281646" lon="13.7894614"><ele>349.0</ele><time>2026-05-04T14:42:53.058Z</time></trkpt><trkpt lat="41.6283263" lon="13.7893877"><ele>349.0</ele><time>2026-05-04T14:42:54.058Z</time></trkpt><trkpt lat="41.6284923" lon="13.7893202"><ele>349.0</ele><time>2026-05-04T14:42:55.057Z</time></trkpt><trkpt lat="41.6286674" lon="13.7892588"><ele>347.66666666666663</ele><time>2026-05-04T14:42:56.057Z</time></trkpt><trkpt lat="41.6288444" lon="13.7892013"><ele>346.3333333333333</ele><time>2026-05-04T14:42:57.057Z</time></trkpt><trkpt lat="41.6290167" lon="13.789146"><ele>345.0</ele><time>2026-05-04T14:42:58.058Z</time></trkpt><trkpt lat="41.6291898" lon="13.7890978"><ele>345.0</ele><time>2026-05-04T14:42:59.058Z</time></trkpt><trkpt lat="41.6293594" lon="13.789064"><ele>345.0</ele><time>2026-05-04T14:43:00.057Z</time></trkpt><trkpt lat="41.6295239" lon="13.7890687"><ele>345.0</ele><time>2026-05-04T14:43:01.057Z</time></trkpt><trkpt lat="41.6296923" lon="13.7891001"><ele>345.3333333333333</ele><time>2026-05-04T14:43:02.058Z</time></trkpt><trkpt lat="41.6298603" lon="13.7891612"><ele>345.66666666666663</ele><time>2026-05-04T14:43:03.057Z</time></trkpt><trkpt lat="41.6300295" lon="13.7892669"><ele>346.0</ele><time>2026-05-04T14:43:04.058Z</time></trkpt><trkpt lat="41.6301973" lon="13.7893922"><ele>346.3333333333333</ele><time>2026-05-04T14:43:05.058Z</time></trkpt><trkpt lat="41.6303557" lon="13.7895227"><ele>346.6666666666667</ele><time>2026-05-04T14:43:06.058Z</time></trkpt><trkpt lat="41.6305023" lon="13.7896466"><ele>347.0</ele><time>2026-05-04T14:43:07.057Z</time></trkpt><trkpt lat="41.6306311" lon="13.7897535"><ele>347.0</ele><time>2026-05-04T14:43:08.058Z</time></trkpt><trkpt lat="41.6307465" lon="13.7898342"><ele>347.0</ele><time>2026-05-04T14:43:09.058Z</time></trkpt><trkpt lat="41.6308516" lon="13.7899224"><ele>347.0</ele><time>2026-05-04T14:43:10.058Z</time></trkpt><trkpt lat="41.6309611" lon="13.790012"><ele>347.0</ele><time>2026-05-04T14:43:11.058Z</time></trkpt><trkpt lat="41.6310658" lon="13.7901112"><ele>347.25</ele><time>2026-05-04T14:43:12.058Z</time></trkpt><trkpt lat="41.6311762" lon="13.790205"><ele>347.5</ele><time>2026-05-04T14:43:13.057Z</time></trkpt><trkpt lat="41.6312826" lon="13.790288"><ele>347.75</ele><time>2026-05-04T14:43:14.058Z</time></trkpt><trkpt lat="41.6313897" lon="13.7903637"><ele>348.0</ele><time>2026-05-04T14:43:15.057Z</time></trkpt><trkpt lat="41.6315021" lon="13.790439"><ele>348.0</ele><time>2026-05-04T14:43:16.058Z</time></trkpt><trkpt lat="41.6316209" lon="13.7905052"><ele>348.0</ele><time>2026-05-04T14:43:17.058Z</time></trkpt><trkpt lat="41.6317499" lon="13.7905636"><ele>348.0</ele><time>2026-05-04T14:43:18.057Z</time></trkpt><trkpt lat="41.6318974" lon="13.7906051"><ele>348.0</ele><time>2026-05-04T14:43:19.058Z</time></trkpt><trkpt lat="41.6320576" lon="13.7906025"><ele>348.0</ele><time>2026-05-04T14:43:20.057Z</time></trkpt><trkpt lat="41.6322123" lon="13.7905611"><ele>348.0</ele><time>2026-05-04T14:43:21.058Z</time></trkpt><trkpt lat="41.632349" lon="13.7904958"><ele>348.0</ele><time>2026-05-04T14:43:22.057Z</time></trkpt><trkpt lat="41.6324693" lon="13.7904454"><ele>348.0</ele><time>2026-05-04T14:43:23.057Z</time></trkpt><trkpt lat="41.6325774" lon="13.7903962"><ele>348.0</ele><time>2026-05-04T14:43:24.058Z</time></trkpt><trkpt lat="41.6326825" lon="13.7903391"><ele>348.0</ele><time>2026-05-04T14:43:25.058Z</time></trkpt><trkpt lat="41.6327735" lon="13.7902648"><ele>348.0</ele><time>2026-05-04T14:43:26.057Z</time></trkpt><trkpt lat="41.6328496" lon="13.790165"><ele>348.0</ele><time>2026-05-04T14:43:27.058Z</time></trkpt><trkpt lat="41.6329099" lon="13.7900558"><ele>348.0</ele><time>2026-05-04T14:43:28.058Z</time></trkpt><trkpt lat="41.6329608" lon="13.7899354"><ele>349.0</ele><time>2026-05-04T14:43:29.058Z</time></trkpt><trkpt lat="41.6330098" lon="13.7898132"><ele>350.0</ele><time>2026-05-04T14:43:30.058Z</time></trkpt><trkpt lat="41.6330648" lon="13.7896811"><ele>351.0</ele><time>2026-05-04T14:43:31.057Z</time></trkpt><trkpt lat="41.6331159" lon="13.7895447"><ele>352.0</ele><time>2026-05-04T14:43:32.058Z</time></trkpt><trkpt lat="41.6331593" lon="13.7894202"><ele>353.0</ele><time>2026-05-04T14:43:33.058Z</time></trkpt><trkpt lat="41.6332027" lon="13.7893057"><ele>353.0</ele><time>2026-05-04T14:43:34.057Z</time></trkpt><trkpt lat="41.6332542" lon="13.7891833"><ele>353.0</ele><time>2026-05-04T14:43:35.058Z</time></trkpt><trkpt lat="41.6333001" lon="13.7890521"><ele>353.0</ele><time>2026-05-04T14:43:36.057Z</time></trkpt><trkpt lat="41.633349" lon="13.7889048"><ele>353.0</ele><time>2026-05-04T14:43:37.057Z</time></trkpt><trkpt lat="41.6334077" lon="13.7887482"><ele>353.0</ele><time>2026-05-04T14:43:38.058Z</time></trkpt><trkpt lat="41.6334657" lon="13.788574"><ele>353.0</ele><time>2026-05-04T14:43:39.058Z</time></trkpt><trkpt lat="41.6335312" lon="13.7883832"><ele>353.0</ele><time>2026-05-04T14:43:40.057Z</time></trkpt><trkpt lat="41.6336002" lon="13.7881916"><ele>353.25</ele><time>2026-05-04T14:43:41.058Z</time></trkpt><trkpt lat="41.6336664" lon="13.7880094"><ele>353.5</ele><time>2026-05-04T14:43:42.058Z</time></trkpt><trkpt lat="41.6337339" lon="13.7878352"><ele>353.75</ele><time>2026-05-04T14:43:43.057Z</time></trkpt><trkpt lat="41.6338033" lon="13.7876629"><ele>354.0</ele><time>2026-05-04T14:43:44.058Z</time></trkpt><trkpt lat="41.6338665" lon="13.7874841"><ele>353.5</ele><time>2026-05-04T14:43:45.057Z</time></trkpt><trkpt lat="41.6339322" lon="13.7873167"><ele>353.0</ele><time>2026-05-04T14:43:46.058Z</time></trkpt><trkpt lat="41.6339892" lon="13.7871574"><ele>352.5</ele><time>2026-05-04T14:43:47.058Z</time></trkpt><trkpt lat="41.6340481" lon="13.7870064"><ele>352.0</ele><time>2026-05-04T14:43:48.058Z</time></trkpt><trkpt lat="41.634103" lon="13.7868516"><ele>351.5</ele><time>2026-05-04T14:43:49.057Z</time></trkpt><trkpt lat="41.6341604" lon="13.7866967"><ele>351.0</ele><time>2026-05-04T14:43:50.058Z</time></trkpt><trkpt lat="41.6342135" lon="13.7865398"><ele>350.5</ele><time>2026-05-04T14:43:51.058Z</time></trkpt><trkpt lat="41.6342646" lon="13.7863786"><ele>350.0</ele><time>2026-05-04T14:43:52.058Z</time></trkpt><trkpt lat="41.6343068" lon="13.7862082"><ele>350.0</ele><time>2026-05-04T14:43:53.058Z</time></trkpt><trkpt lat="41.6343452" lon="13.7860358"><ele>350.0</ele><time>2026-05-04T14:43:54.057Z</time></trkpt><trkpt lat="41.6343749" lon="13.785852"><ele>350.0</ele><time>2026-05-04T14:43:55.058Z</time></trkpt><trkpt lat="41.6344" lon="13.7856574"><ele>350.0</ele><time>2026-05-04T14:43:56.057Z</time></trkpt><trkpt lat="41.6344288" lon="13.7854561"><ele>349.5</ele><time>2026-05-04T14:43:57.057Z</time></trkpt><trkpt lat="41.6344584" lon="13.7852555"><ele>349.0</ele><time>2026-05-04T14:43:58.057Z</time></trkpt><trkpt lat="41.6344856" lon="13.7850554"><ele>348.5</ele><time>2026-05-04T14:43:59.057Z</time></trkpt><trkpt lat="41.6345051" lon="13.784864"><ele>348.0</ele><time>2026-05-04T14:44:00.058Z</time></trkpt><trkpt lat="41.6345277" lon="13.7846811"><ele>349.0</ele><time>2026-05-04T14:44:01.057Z</time></trkpt><trkpt lat="41.6345463" lon="13.7845077"><ele>350.0</ele><time>2026-05-04T14:44:02.058Z</time></trkpt><trkpt lat="41.6345673" lon="13.7843277"><ele>351.0</ele><time>2026-05-04T14:44:03.057Z</time></trkpt><trkpt lat="41.634592" lon="13.7841341"><ele>352.0</ele><time>2026-05-04T14:44:04.058Z</time></trkpt><trkpt lat="41.6346198" lon="13.7839161"><ele>352.0</ele><time>2026-05-04T14:44:05.058Z</time></trkpt><trkpt lat="41.634633" lon="13.7836795"><ele>352.0</ele><time>2026-05-04T14:44:06.057Z</time></trkpt><trkpt lat="41.6346491" lon="13.7834326"><ele>352.0</ele><time>2026-05-04T14:44:07.057Z</time></trkpt><trkpt lat="41.6346519" lon="13.7831868"><ele>351.66666666666663</ele><time>2026-05-04T14:44:08.057Z</time></trkpt><trkpt lat="41.6346536" lon="13.7829733"><ele>351.3333333333333</ele><time>2026-05-04T14:44:09.058Z</time></trkpt><trkpt lat="41.634657" lon="13.7827642"><ele>351.0</ele><time>2026-05-04T14:44:10.058Z</time></trkpt><trkpt lat="41.634663" lon="13.7825243"><ele>351.0</ele><time>2026-05-04T14:44:11.058Z</time></trkpt><trkpt lat="41.6346691" lon="13.7822548"><ele>351.0</ele><time>2026-05-04T14:44:12.057Z</time></trkpt><trkpt lat="41.6346757" lon="13.7819692"><ele>351.0</ele><time>2026-05-04T14:44:13.058Z</time></trkpt><trkpt lat="41.6346848" lon="13.7816702"><ele>351.3333333333333</ele><time>2026-05-04T14:44:14.058Z</time></trkpt><trkpt lat="41.6346999" lon="13.7813693"><ele>351.66666666666663</ele><time>2026-05-04T14:44:15.058Z</time></trkpt><trkpt lat="41.6347295" lon="13.7810845"><ele>352.0</ele><time>2026-05-04T14:44:16.058Z</time></trkpt><trkpt lat="41.6347717" lon="13.7808026"><ele>351.3333333333333</ele><time>2026-05-04T14:44:17.058Z</time></trkpt><trkpt lat="41.6348349" lon="13.7805448"><ele>350.6666666666667</ele><time>2026-05-04T14:44:18.058Z</time></trkpt><trkpt lat="41.634912" lon="13.7803102"><ele>350.0</ele><time>2026-05-04T14:44:19.058Z</time></trkpt><trkpt lat="41.6349844" lon="13.7800995"><ele>348.33333333333337</ele><time>2026-05-04T14:44:20.058Z</time></trkpt><trkpt lat="41.6350535" lon="13.7798963"><ele>346.6666666666667</ele><time>2026-05-04T14:44:21.058Z</time></trkpt><trkpt lat="41.6351188" lon="13.7797028"><ele>345.0</ele><time>2026-05-04T14:44:22.057Z</time></trkpt><trkpt lat="41.6351791" lon="13.7795078"><ele>344.3333333333333</ele><time>2026-05-04T14:44:23.058Z</time></trkpt><trkpt lat="41.6352313" lon="13.7793148"><ele>343.66666666666663</ele><time>2026-05-04T14:44:24.057Z</time></trkpt><trkpt lat="41.6352799" lon="13.7791182"><ele>343.0</ele><time>2026-05-04T14:44:25.057Z</time></trkpt><trkpt lat="41.6353319" lon="13.7789027"><ele>343.66666666666663</ele><time>2026-05-04T14:44:26.057Z</time></trkpt><trkpt lat="41.6353767" lon="13.7786513"><ele>344.3333333333333</ele><time>2026-05-04T14:44:27.058Z</time></trkpt><trkpt lat="41.6354309" lon="13.778391"><ele>345.0</ele><time>2026-05-04T14:44:28.058Z</time></trkpt><trkpt lat="41.6354855" lon="13.7781326"><ele>345.0</ele><time>2026-05-04T14:44:29.058Z</time></trkpt><trkpt lat="41.6355375" lon="13.777888"><ele>345.0</ele><time>2026-05-04T14:44:30.057Z</time></trkpt><trkpt lat="41.6355775" lon="13.7776515"><ele>345.0</ele><time>2026-05-04T14:44:31.058Z</time></trkpt><trkpt lat="41.6356056" lon="13.7774257"><ele>344.3333333333333</ele><time>2026-05-04T14:44:32.058Z</time></trkpt><trkpt lat="41.6356295" lon="13.7772062"><ele>343.66666666666663</ele><time>2026-05-04T14:44:33.057Z</time></trkpt><trkpt lat="41.6356629" lon="13.7769807"><ele>343.0</ele><time>2026-05-04T14:44:34.058Z</time></trkpt><trkpt lat="41.6357176" lon="13.7767413"><ele>342.3333333333333</ele><time>2026-05-04T14:44:35.057Z</time></trkpt><trkpt lat="41.6358026" lon="13.7764902"><ele>341.6666666666667</ele><time>2026-05-04T14:44:36.058Z</time></trkpt><trkpt lat="41.6359243" lon="13.7762193"><ele>341.0</ele><time>2026-05-04T14:44:37.057Z</time></trkpt><trkpt lat="41.6360786" lon="13.7759266"><ele>340.0</ele><time>2026-05-04T14:44:38.058Z</time></trkpt><trkpt lat="41.6362436" lon="13.7755995"><ele>339.0</ele><time>2026-05-04T14:44:39.057Z</time></trkpt><trkpt lat="41.6364128" lon="13.7752794"><ele>338.0</ele><time>2026-05-04T14:44:40.058Z</time></trkpt><trkpt lat="41.6365899" lon="13.7749521"><ele>337.0</ele><time>2026-05-04T14:44:41.057Z</time></trkpt><trkpt lat="41.6367702" lon="13.7746343"><ele>336.0</ele><time>2026-05-04T14:44:42.057Z</time></trkpt><trkpt lat="41.6369478" lon="13.7743225"><ele>335.0</ele><time>2026-05-04T14:44:43.058Z</time></trkpt><trkpt lat="41.6371209" lon="13.7740071"><ele>335.0</ele><time>2026-05-04T14:44:44.058Z</time></trkpt><trkpt lat="41.6372929" lon="13.7736884"><ele>335.0</ele><time>2026-05-04T14:44:45.057Z</time></trkpt><trkpt lat="41.6374611" lon="13.7733662"><ele>334.0</ele><time>2026-05-04T14:44:46.058Z</time></trkpt><trkpt lat="41.6376249" lon="13.7730427"><ele>333.0</ele><time>2026-05-04T14:44:47.058Z</time></trkpt><trkpt lat="41.6377935" lon="13.7727234"><ele>332.5</ele><time>2026-05-04T14:44:48.057Z</time></trkpt><trkpt lat="41.6379656" lon="13.77241"><ele>332.0</ele><time>2026-05-04T14:44:49.058Z</time></trkpt><trkpt lat="41.6381294" lon="13.7720975"><ele>331.0</ele><time>2026-05-04T14:44:50.057Z</time></trkpt><trkpt lat="41.6382937" lon="13.7717791"><ele>330.0</ele><time>2026-05-04T14:44:51.058Z</time></trkpt><trkpt lat="41.6384605" lon="13.77146"><ele>330.0</ele><time>2026-05-04T14:44:52.057Z</time></trkpt><trkpt lat="41.6386296" lon="13.771143"><ele>330.0</ele><time>2026-05-04T14:44:53.057Z</time></trkpt><trkpt lat="41.6387971" lon="13.7708198"><ele>330.0</ele><time>2026-05-04T14:44:54.057Z</time></trkpt><trkpt lat="41.638965" lon="13.770496"><ele>330.0</ele><time>2026-05-04T14:44:55.057Z</time></trkpt><trkpt lat="41.6391328" lon="13.7701742"><ele>329.0</ele><time>2026-05-04T14:44:56.057Z</time></trkpt><trkpt lat="41.6392993" lon="13.7698531"><ele>328.0</ele><time>2026-05-04T14:44:57.058Z</time></trkpt><trkpt lat="41.6394693" lon="13.7695356"><ele>327.5</ele><time>2026-05-04T14:44:58.057Z</time></trkpt><trkpt lat="41.639635" lon="13.7692208"><ele>327.0</ele><time>2026-05-04T14:44:59.057Z</time></trkpt><trkpt lat="41.6398046" lon="13.768914"><ele>327.0</ele><time>2026-05-04T14:45:00.057Z</time></trkpt><trkpt lat="41.6399693" lon="13.768607"><ele>327.0</ele><time>2026-05-04T14:45:01.058Z</time></trkpt><trkpt lat="41.6401122" lon="13.7682878"><ele>328.5</ele><time>2026-05-04T14:45:02.058Z</time></trkpt><trkpt lat="41.6402281" lon="13.7679478"><ele>330.0</ele><time>2026-05-04T14:45:03.057Z</time></trkpt><trkpt lat="41.6403193" lon="13.7675903"><ele>330.0</ele><time>2026-05-04T14:45:04.057Z</time></trkpt><trkpt lat="41.6404003" lon="13.7672566"><ele>330.0</ele><time>2026-05-04T14:45:05.058Z</time></trkpt><trkpt lat="41.6404552" lon="13.7669627"><ele>330.0</ele><time>2026-05-04T14:45:06.057Z</time></trkpt><trkpt lat="41.6405181" lon="13.7666787"><ele>330.0</ele><time>2026-05-04T14:45:07.057Z</time></trkpt><trkpt lat="41.6405768" lon="13.7663935"><ele>330.0</ele><time>2026-05-04T14:45:08.058Z</time></trkpt><trkpt lat="41.6406383" lon="13.7660945"><ele>329.5</ele><time>2026-05-04T14:45:09.057Z</time></trkpt><trkpt lat="41.6407024" lon="13.765774"><ele>329.0</ele><time>2026-05-04T14:45:10.058Z</time></trkpt><trkpt lat="41.6407662" lon="13.7654357"><ele>329.0</ele><time>2026-05-04T14:45:11.057Z</time></trkpt><trkpt lat="41.6408411" lon="13.7650853"><ele>329.0</ele><time>2026-05-04T14:45:12.058Z</time></trkpt><trkpt lat="41.6409179" lon="13.7647331"><ele>329.0</ele><time>2026-05-04T14:45:13.058Z</time></trkpt><trkpt lat="41.6409922" lon="13.7643859"><ele>329.0</ele><time>2026-05-04T14:45:14.057Z</time></trkpt><trkpt lat="41.6410631" lon="13.7640457"><ele>329.0</ele><time>2026-05-04T14:45:15.058Z</time></trkpt><trkpt lat="41.6411321" lon="13.7637048"><ele>329.0</ele><time>2026-05-04T14:45:16.058Z</time></trkpt><trkpt lat="41.6412056" lon="13.7633675"><ele>330.0</ele><time>2026-05-04T14:45:17.058Z</time></trkpt><trkpt lat="41.6412757" lon="13.7630231"><ele>331.0</ele><time>2026-05-04T14:45:18.058Z</time></trkpt><trkpt lat="41.6413488" lon="13.7626813"><ele>331.0</ele><time>2026-05-04T14:45:19.058Z</time></trkpt><trkpt lat="41.6414226" lon="13.7623363"><ele>331.0</ele><time>2026-05-04T14:45:20.057Z</time></trkpt><trkpt lat="41.6414961" lon="13.7619888"><ele>331.5</ele><time>2026-05-04T14:45:21.057Z</time></trkpt><trkpt lat="41.6415691" lon="13.7616416"><ele>332.0</ele><time>2026-05-04T14:45:22.058Z</time></trkpt><trkpt lat="41.6416345" lon="13.7613144"><ele>333.0</ele><time>2026-05-04T14:45:23.058Z</time></trkpt><trkpt lat="41.6416954" lon="13.7610077"><ele>334.0</ele><time>2026-05-04T14:45:24.058Z</time></trkpt><trkpt lat="41.6417525" lon="13.7607173"><ele>334.0</ele><time>2026-05-04T14:45:25.057Z</time></trkpt><trkpt lat="41.6418264" lon="13.760435"><ele>334.0</ele><time>2026-05-04T14:45:26.057Z</time></trkpt><trkpt lat="41.6419282" lon="13.7601569"><ele>332.5</ele><time>2026-05-04T14:45:27.057Z</time></trkpt><trkpt lat="41.6420611" lon="13.7598652"><ele>331.0</ele><time>2026-05-04T14:45:28.057Z</time></trkpt><trkpt lat="41.6422077" lon="13.7595593"><ele>332.0</ele><time>2026-05-04T14:45:29.057Z</time></trkpt><trkpt lat="41.6423667" lon="13.7592464"><ele>333.0</ele><time>2026-05-04T14:45:30.058Z</time></trkpt><trkpt lat="41.642518" lon="13.7589372"><ele>333.0</ele><time>2026-05-04T14:45:31.058Z</time></trkpt><trkpt lat="41.642667" lon="13.7586486"><ele>333.0</ele><time>2026-05-04T14:45:32.057Z</time></trkpt><trkpt lat="41.6428149" lon="13.7583706"><ele>333.5</ele><time>2026-05-04T14:45:33.058Z</time></trkpt><trkpt lat="41.6429625" lon="13.7580877"><ele>334.0</ele><time>2026-05-04T14:45:34.057Z</time></trkpt><trkpt lat="41.6431075" lon="13.7578017"><ele>332.5</ele><time>2026-05-04T14:45:35.058Z</time></trkpt><trkpt lat="41.6432518" lon="13.7575117"><ele>331.0</ele><time>2026-05-04T14:45:36.057Z</time></trkpt><trkpt lat="41.6434006" lon="13.7572176"><ele>331.0</ele><time>2026-05-04T14:45:37.057Z</time></trkpt><trkpt lat="41.6435441" lon="13.7569225"><ele>331.0</ele><time>2026-05-04T14:45:38.058Z</time></trkpt><trkpt lat="41.6436933" lon="13.7566328"><ele>332.5</ele><time>2026-05-04T14:45:39.058Z</time></trkpt><trkpt lat="41.6438414" lon="13.756337"><ele>334.0</ele><time>2026-05-04T14:45:40.058Z</time></trkpt><trkpt lat="41.6439955" lon="13.756044"><ele>334.0</ele><time>2026-05-04T14:45:41.057Z</time></trkpt><trkpt lat="41.6441534" lon="13.7557503"><ele>334.0</ele><time>2026-05-04T14:45:42.057Z</time></trkpt><trkpt lat="41.644306" lon="13.7554576"><ele>334.0</ele><time>2026-05-04T14:45:43.058Z</time></trkpt><trkpt lat="41.6444559" lon="13.7551686"><ele>334.0</ele><time>2026-05-04T14:45:44.057Z</time></trkpt><trkpt lat="41.6446064" lon="13.7548769"><ele>333.0</ele><time>2026-05-04T14:45:45.058Z</time></trkpt><trkpt lat="41.6447635" lon="13.7545842"><ele>332.0</ele><time>2026-05-04T14:45:46.058Z</time></trkpt><trkpt lat="41.6449188" lon="13.7542825"><ele>331.5</ele><time>2026-05-04T14:45:47.058Z</time></trkpt><trkpt lat="41.6450763" lon="13.7539769"><ele>331.0</ele><time>2026-05-04T14:45:48.058Z</time></trkpt><trkpt lat="41.6452311" lon="13.7536673"><ele>334.5</ele><time>2026-05-04T14:45:49.057Z</time></trkpt><trkpt lat="41.6453834" lon="13.7533603"><ele>338.0</ele><time>2026-05-04T14:45:50.057Z</time></trkpt><trkpt lat="41.6455375" lon="13.7530693"><ele>338.0</ele><time>2026-05-04T14:45:51.058Z</time></trkpt><trkpt lat="41.645678" lon="13.7528036"><ele>338.0</ele><time>2026-05-04T14:45:52.058Z</time></trkpt><trkpt lat="41.6458074" lon="13.7525485"><ele>337.6666666666667</ele><time>2026-05-04T14:45:53.057Z</time></trkpt><trkpt lat="41.6459345" lon="13.7523062"><ele>337.3333333333333</ele><time>2026-05-04T14:45:54.058Z</time></trkpt><trkpt lat="41.6460755" lon="13.7520768"><ele>337.0</ele><time>2026-05-04T14:45:55.057Z</time></trkpt><trkpt lat="41.6462371" lon="13.751851"><ele>334.5</ele><time>2026-05-04T14:45:56.058Z</time></trkpt><trkpt lat="41.6464088" lon="13.7516165"><ele>332.0</ele><time>2026-05-04T14:45:57.057Z</time></trkpt><trkpt lat="41.6465858" lon="13.7513717"><ele>332.0</ele><time>2026-05-04T14:45:58.058Z</time></trkpt><trkpt lat="41.6467774" lon="13.7511188"><ele>332.0</ele><time>2026-05-04T14:45:59.058Z</time></trkpt><trkpt lat="41.6469682" lon="13.7508592"><ele>331.0</ele><time>2026-05-04T14:46:00.057Z</time></trkpt><trkpt lat="41.6471538" lon="13.7506105"><ele>330.0</ele><time>2026-05-04T14:46:01.058Z</time></trkpt><trkpt lat="41.6473286" lon="13.7503718"><ele>329.5</ele><time>2026-05-04T14:46:02.057Z</time></trkpt><trkpt lat="41.6474949" lon="13.7501607"><ele>329.0</ele><time>2026-05-04T14:46:03.057Z</time></trkpt><trkpt lat="41.6476551" lon="13.7499465"><ele>329.6666666666667</ele><time>2026-05-04T14:46:04.058Z</time></trkpt><trkpt lat="41.6478109" lon="13.7497453"><ele>330.3333333333333</ele><time>2026-05-04T14:46:05.058Z</time></trkpt><trkpt lat="41.6479641" lon="13.7495423"><ele>331.0</ele><time>2026-05-04T14:46:06.058Z</time></trkpt><trkpt lat="41.6481145" lon="13.7493438"><ele>331.3333333333333</ele><time>2026-05-04T14:46:07.057Z</time></trkpt><trkpt lat="41.6482568" lon="13.7491514"><ele>331.6666666666667</ele><time>2026-05-04T14:46:08.057Z</time></trkpt><trkpt lat="41.6483946" lon="13.7489738"><ele>332.0</ele><time>2026-05-04T14:46:09.057Z</time></trkpt><trkpt lat="41.6485294" lon="13.7487978"><ele>332.33333333333337</ele><time>2026-05-04T14:46:10.058Z</time></trkpt><trkpt lat="41.6486538" lon="13.7486313"><ele>332.6666666666667</ele><time>2026-05-04T14:46:11.057Z</time></trkpt><trkpt lat="41.6487763" lon="13.7484805"><ele>333.0</ele><time>2026-05-04T14:46:12.057Z</time></trkpt><trkpt lat="41.6488943" lon="13.7483346"><ele>333.0</ele><time>2026-05-04T14:46:13.057Z</time></trkpt><trkpt lat="41.64901" lon="13.7482003"><ele>333.0</ele><time>2026-05-04T14:46:14.057Z</time></trkpt><trkpt lat="41.6491238" lon="13.7480671"><ele>333.0</ele><time>2026-05-04T14:46:15.058Z</time></trkpt><trkpt lat="41.6492384" lon="13.747924"><ele>333.0</ele><time>2026-05-04T14:46:16.058Z</time></trkpt><trkpt lat="41.6493665" lon="13.7477759"><ele>333.0</ele><time>2026-05-04T14:46:17.058Z</time></trkpt><trkpt lat="41.6495036" lon="13.747618"><ele>333.0</ele><time>2026-05-04T14:46:18.058Z</time></trkpt><trkpt lat="41.6496514" lon="13.7474368"><ele>332.3333333333333</ele><time>2026-05-04T14:46:19.058Z</time></trkpt><trkpt lat="41.6498109" lon="13.7472487"><ele>331.66666666666663</ele><time>2026-05-04T14:46:20.058Z</time></trkpt><trkpt lat="41.649983" lon="13.7470456"><ele>331.0</ele><time>2026-05-04T14:46:21.058Z</time></trkpt><trkpt lat="41.6501676" lon="13.7468342"><ele>332.5</ele><time>2026-05-04T14:46:22.057Z</time></trkpt><trkpt lat="41.650341" lon="13.7466331"><ele>334.0</ele><time>2026-05-04T14:46:23.058Z</time></trkpt><trkpt lat="41.6505169" lon="13.746452"><ele>334.0</ele><time>2026-05-04T14:46:24.058Z</time></trkpt><trkpt lat="41.6506945" lon="13.7462752"><ele>334.0</ele><time>2026-05-04T14:46:25.057Z</time></trkpt><trkpt lat="41.650886" lon="13.7460816"><ele>335.0</ele><time>2026-05-04T14:46:26.058Z</time></trkpt><trkpt lat="41.6510919" lon="13.7458584"><ele>336.0</ele><time>2026-05-04T14:46:27.057Z</time></trkpt><trkpt lat="41.6512971" lon="13.745627"><ele>336.0</ele><time>2026-05-04T14:46:28.057Z</time></trkpt><trkpt lat="41.6515058" lon="13.7453931"><ele>336.0</ele><time>2026-05-04T14:46:29.058Z</time></trkpt><trkpt lat="41.6517236" lon="13.7451447"><ele>334.0</ele><time>2026-05-04T14:46:30.058Z</time></trkpt><trkpt lat="41.6519455" lon="13.7448859"><ele>332.0</ele><time>2026-05-04T14:46:31.058Z</time></trkpt><trkpt lat="41.6521766" lon="13.744622"><ele>331.0</ele><time>2026-05-04T14:46:32.057Z</time></trkpt><trkpt lat="41.6524088" lon="13.7443736"><ele>330.0</ele><time>2026-05-04T14:46:33.057Z</time></trkpt><trkpt lat="41.6526571" lon="13.7441178"><ele>331.5</ele><time>2026-05-04T14:46:34.058Z</time></trkpt><trkpt lat="41.6529018" lon="13.7438576"><ele>333.0</ele><time>2026-05-04T14:46:35.057Z</time></trkpt><trkpt lat="41.6531443" lon="13.7435909"><ele>332.5</ele><time>2026-05-04T14:46:36.057Z</time></trkpt><trkpt lat="41.65338" lon="13.7433203"><ele>332.0</ele><time>2026-05-04T14:46:37.058Z</time></trkpt><trkpt lat="41.6536166" lon="13.7430441"><ele>332.5</ele><time>2026-05-04T14:46:38.057Z</time></trkpt><trkpt lat="41.6538567" lon="13.7427717"><ele>333.0</ele><time>2026-05-04T14:46:39.057Z</time></trkpt><trkpt lat="41.6540914" lon="13.7425014"><ele>333.0</ele><time>2026-05-04T14:46:40.057Z</time></trkpt><trkpt lat="41.6543252" lon="13.7422292"><ele>333.0</ele><time>2026-05-04T14:46:41.058Z</time></trkpt><trkpt lat="41.6545593" lon="13.7419471"><ele>331.5</ele><time>2026-05-04T14:46:42.058Z</time></trkpt><trkpt lat="41.6547937" lon="13.7416686"><ele>330.0</ele><time>2026-05-04T14:46:43.058Z</time></trkpt><trkpt lat="41.6550293" lon="13.7413955"><ele>330.0</ele><time>2026-05-04T14:46:44.057Z</time></trkpt><trkpt lat="41.6552609" lon="13.7411105"><ele>330.0</ele><time>2026-05-04T14:46:45.057Z</time></trkpt><trkpt lat="41.6554841" lon="13.7408317"><ele>332.0</ele><time>2026-05-04T14:46:46.057Z</time></trkpt><trkpt lat="41.6556973" lon="13.7405639"><ele>334.0</ele><time>2026-05-04T14:46:47.058Z</time></trkpt><trkpt lat="41.6558977" lon="13.7403139"><ele>334.0</ele><time>2026-05-04T14:46:48.058Z</time></trkpt><trkpt lat="41.6560798" lon="13.7400809"><ele>334.0</ele><time>2026-05-04T14:46:49.057Z</time></trkpt><trkpt lat="41.6562644" lon="13.7398514"><ele>335.0</ele><time>2026-05-04T14:46:50.057Z</time></trkpt><trkpt lat="41.6564489" lon="13.739626"><ele>336.0</ele><time>2026-05-04T14:46:51.058Z</time></trkpt><trkpt lat="41.6566296" lon="13.739408"><ele>336.5</ele><time>2026-05-04T14:46:52.058Z</time></trkpt><trkpt lat="41.65681" lon="13.7392118"><ele>337.0</ele><time>2026-05-04T14:46:53.057Z</time></trkpt><trkpt lat="41.6569934" lon="13.7390253"><ele>338.5</ele><time>2026-05-04T14:46:54.058Z</time></trkpt><trkpt lat="41.6571798" lon="13.7388547"><ele>340.0</ele><time>2026-05-04T14:46:55.058Z</time></trkpt><trkpt lat="41.6573751" lon="13.738685"><ele>339.66666666666663</ele><time>2026-05-04T14:46:56.057Z</time></trkpt><trkpt lat="41.6575681" lon="13.7385253"><ele>339.3333333333333</ele><time>2026-05-04T14:46:57.058Z</time></trkpt><trkpt lat="41.6577507" lon="13.7383736"><ele>339.0</ele><time>2026-05-04T14:46:58.058Z</time></trkpt><trkpt lat="41.6579178" lon="13.7382313"><ele>339.0</ele><time>2026-05-04T14:46:59.057Z</time></trkpt><trkpt lat="41.658079" lon="13.7380949"><ele>339.0</ele><time>2026-05-04T14:47:00.058Z</time></trkpt><trkpt lat="41.6582378" lon="13.7379655"><ele>339.0</ele><time>2026-05-04T14:47:01.057Z</time></trkpt><trkpt lat="41.658396" lon="13.737839"><ele>338.6666666666667</ele><time>2026-05-04T14:47:02.058Z</time></trkpt><trkpt lat="41.6585502" lon="13.7377073"><ele>338.33333333333337</ele><time>2026-05-04T14:47:03.057Z</time></trkpt><trkpt lat="41.6587114" lon="13.7375664"><ele>338.0</ele><time>2026-05-04T14:47:04.057Z</time></trkpt><trkpt lat="41.6588842" lon="13.7374084"><ele>338.0</ele><time>2026-05-04T14:47:05.058Z</time></trkpt><trkpt lat="41.6590695" lon="13.7372326"><ele>338.0</ele><time>2026-05-04T14:47:06.058Z</time></trkpt><trkpt lat="41.6592742" lon="13.7370543"><ele>338.0</ele><time>2026-05-04T14:47:07.058Z</time></trkpt><trkpt lat="41.6594983" lon="13.7368776"><ele>338.0</ele><time>2026-05-04T14:47:08.057Z</time></trkpt><trkpt lat="41.6597345" lon="13.7366928"><ele>338.0</ele><time>2026-05-04T14:47:09.058Z</time></trkpt><trkpt lat="41.6599623" lon="13.7365044"><ele>338.0</ele><time>2026-05-04T14:47:10.057Z</time></trkpt><trkpt lat="41.6601858" lon="13.7363154"><ele>338.5</ele><time>2026-05-04T14:47:11.058Z</time></trkpt><trkpt lat="41.6604032" lon="13.7361304"><ele>339.0</ele><time>2026-05-04T14:47:12.058Z</time></trkpt><trkpt lat="41.6606238" lon="13.7359478"><ele>339.0</ele><time>2026-05-04T14:47:13.057Z</time></trkpt><trkpt lat="41.6608474" lon="13.7357625"><ele>339.0</ele><time>2026-05-04T14:47:14.057Z</time></trkpt><trkpt lat="41.6610781" lon="13.7355696"><ele>339.0</ele><time>2026-05-04T14:47:15.058Z</time></trkpt><trkpt lat="41.6613109" lon="13.7353668"><ele>339.0</ele><time>2026-05-04T14:47:16.057Z</time></trkpt><trkpt lat="41.6615384" lon="13.7351652"><ele>338.5</ele><time>2026-05-04T14:47:17.058Z</time></trkpt><trkpt lat="41.661773" lon="13.734965"><ele>338.0</ele><time>2026-05-04T14:47:18.058Z</time></trkpt><trkpt lat="41.6620117" lon="13.7347584"><ele>338.0</ele><time>2026-05-04T14:47:19.058Z</time></trkpt><trkpt lat="41.6622542" lon="13.7345507"><ele>338.0</ele><time>2026-05-04T14:47:20.058Z</time></trkpt><trkpt lat="41.6625018" lon="13.7343379"><ele>338.0</ele><time>2026-05-04T14:47:21.058Z</time></trkpt><trkpt lat="41.662746" lon="13.7341322"><ele>338.0</ele><time>2026-05-04T14:47:22.058Z</time></trkpt><trkpt lat="41.6629925" lon="13.7339209"><ele>339.0</ele><time>2026-05-04T14:47:23.058Z</time></trkpt><trkpt lat="41.6632343" lon="13.7337155"><ele>340.0</ele><time>2026-05-04T14:47:24.058Z</time></trkpt><trkpt lat="41.6634749" lon="13.7335052"><ele>340.5</ele><time>2026-05-04T14:47:25.058Z</time></trkpt><trkpt lat="41.6637098" lon="13.7332845"><ele>341.0</ele><time>2026-05-04T14:47:26.057Z</time></trkpt><trkpt lat="41.663939" lon="13.7330625"><ele>341.0</ele><time>2026-05-04T14:47:27.056Z</time></trkpt><trkpt lat="41.6641363" lon="13.7328532"><ele>341.0</ele><time>2026-05-04T14:47:28.056Z</time></trkpt><trkpt lat="41.6643028" lon="13.7326758"><ele>340.6666666666667</ele><time>2026-05-04T14:47:29.057Z</time></trkpt><trkpt lat="41.6644594" lon="13.7325093"><ele>340.3333333333333</ele><time>2026-05-04T14:47:30.056Z</time></trkpt><trkpt lat="41.6646135" lon="13.7323433"><ele>340.0</ele><time>2026-05-04T14:47:31.057Z</time></trkpt><trkpt lat="41.6647633" lon="13.7321805"><ele>340.0</ele><time>2026-05-04T14:47:32.056Z</time></trkpt><trkpt lat="41.6649196" lon="13.7320206"><ele>340.0</ele><time>2026-05-04T14:47:33.057Z</time></trkpt><trkpt lat="41.6650862" lon="13.731889"><ele>340.0</ele><time>2026-05-04T14:47:34.057Z</time></trkpt><trkpt lat="41.6652584" lon="13.7317477"><ele>340.66666666666663</ele><time>2026-05-04T14:47:35.057Z</time></trkpt><trkpt lat="41.665434" lon="13.7315947"><ele>341.3333333333333</ele><time>2026-05-04T14:47:36.056Z</time></trkpt><trkpt lat="41.6656075" lon="13.7314409"><ele>342.0</ele><time>2026-05-04T14:47:37.056Z</time></trkpt><trkpt lat="41.6657831" lon="13.7312899"><ele>342.0</ele><time>2026-05-04T14:47:38.057Z</time></trkpt><trkpt lat="41.6659605" lon="13.7311376"><ele>342.0</ele><time>2026-05-04T14:47:39.056Z</time></trkpt><trkpt lat="41.6661348" lon="13.7309841"><ele>342.0</ele><time>2026-05-04T14:47:40.057Z</time></trkpt><trkpt lat="41.6663109" lon="13.7308264"><ele>341.5</ele><time>2026-05-04T14:47:41.057Z</time></trkpt><trkpt lat="41.6664949" lon="13.7306594"><ele>341.0</ele><time>2026-05-04T14:47:42.056Z</time></trkpt><trkpt lat="41.6666896" lon="13.7304894"><ele>341.0</ele><time>2026-05-04T14:47:43.057Z</time></trkpt><trkpt lat="41.666901" lon="13.7302998"><ele>341.0</ele><time>2026-05-04T14:47:44.056Z</time></trkpt><trkpt lat="41.6671155" lon="13.7301035"><ele>340.5</ele><time>2026-05-04T14:47:45.057Z</time></trkpt><trkpt lat="41.6673375" lon="13.729897"><ele>340.0</ele><time>2026-05-04T14:47:46.057Z</time></trkpt><trkpt lat="41.6675616" lon="13.729684"><ele>341.5</ele><time>2026-05-04T14:47:47.057Z</time></trkpt><trkpt lat="41.66779" lon="13.7294785"><ele>343.0</ele><time>2026-05-04T14:47:48.057Z</time></trkpt><trkpt lat="41.6680156" lon="13.7292895"><ele>343.0</ele><time>2026-05-04T14:47:49.056Z</time></trkpt><trkpt lat="41.6682085" lon="13.7291275"><ele>343.0</ele><time>2026-05-04T14:47:50.057Z</time></trkpt><trkpt lat="41.6683536" lon="13.729003"><ele>343.0</ele><time>2026-05-04T14:47:51.057Z</time></trkpt><trkpt lat="41.6684752" lon="13.728909"><ele>343.0</ele><time>2026-05-04T14:47:52.056Z</time></trkpt><trkpt lat="41.6685755" lon="13.7288155"><ele>343.0</ele><time>2026-05-04T14:47:53.057Z</time></trkpt><trkpt lat="41.6686747" lon="13.7287185"><ele>343.0</ele><time>2026-05-04T14:47:54.056Z</time></trkpt><trkpt lat="41.6687928" lon="13.7286113"><ele>343.0</ele><time>2026-05-04T14:47:55.057Z</time></trkpt><trkpt lat="41.6689384" lon="13.7284896"><ele>342.66666666666663</ele><time>2026-05-04T14:47:56.057Z</time></trkpt><trkpt lat="41.6691105" lon="13.7283368"><ele>342.3333333333333</ele><time>2026-05-04T14:47:57.057Z</time></trkpt><trkpt lat="41.6692993" lon="13.7281657"><ele>342.0</ele><time>2026-05-04T14:47:58.057Z</time></trkpt><trkpt lat="41.6695078" lon="13.727981"><ele>343.0</ele><time>2026-05-04T14:47:59.056Z</time></trkpt><trkpt lat="41.6697446" lon="13.7277727"><ele>344.0</ele><time>2026-05-04T14:48:00.056Z</time></trkpt><trkpt lat="41.6700034" lon="13.7275464"><ele>344.5</ele><time>2026-05-04T14:48:01.056Z</time></trkpt><trkpt lat="41.6702677" lon="13.7273115"><ele>345.0</ele><time>2026-05-04T14:48:02.057Z</time></trkpt><trkpt lat="41.6705234" lon="13.7270867"><ele>345.0</ele><time>2026-05-04T14:48:03.056Z</time></trkpt><trkpt lat="41.670758" lon="13.7268779"><ele>345.0</ele><time>2026-05-04T14:48:04.057Z</time></trkpt><trkpt lat="41.6709789" lon="13.7266796"><ele>346.5</ele><time>2026-05-04T14:48:05.056Z</time></trkpt><trkpt lat="41.6711842" lon="13.7264933"><ele>348.0</ele><time>2026-05-04T14:48:06.057Z</time></trkpt><trkpt lat="41.6713813" lon="13.7263161"><ele>348.0</ele><time>2026-05-04T14:48:07.056Z</time></trkpt><trkpt lat="41.6715692" lon="13.7261267"><ele>348.0</ele><time>2026-05-04T14:48:08.057Z</time></trkpt><trkpt lat="41.6717485" lon="13.7259123"><ele>347.0</ele><time>2026-05-04T14:48:09.057Z</time></trkpt><trkpt lat="41.6719063" lon="13.7256819"><ele>346.0</ele><time>2026-05-04T14:48:10.057Z</time></trkpt><trkpt lat="41.6720382" lon="13.7254752"><ele>345.0</ele><time>2026-05-04T14:48:11.056Z</time></trkpt><trkpt lat="41.6721582" lon="13.7252993"><ele>345.0</ele><time>2026-05-04T14:48:12.057Z</time></trkpt><trkpt lat="41.6722641" lon="13.7251469"><ele>345.0</ele><time>2026-05-04T14:48:13.056Z</time></trkpt><trkpt lat="41.6723442" lon="13.7250328"><ele>345.0</ele><time>2026-05-04T14:48:14.056Z</time></trkpt><trkpt lat="41.6723979" lon="13.7249388"><ele>345.0</ele><time>2026-05-04T14:48:15.056Z</time></trkpt><trkpt lat="41.672442" lon="13.7248769"><ele>345.0</ele><time>2026-05-04T14:48:16.056Z</time></trkpt><trkpt lat="41.6724777" lon="13.7248053"><ele>345.0</ele><time>2026-05-04T14:48:17.057Z</time></trkpt><trkpt lat="41.6725163" lon="13.7247184"><ele>345.0</ele><time>2026-05-04T14:48:18.056Z</time></trkpt><trkpt lat="41.6725617" lon="13.7246127"><ele>345.0</ele><time>2026-05-04T14:48:19.057Z</time></trkpt><trkpt lat="41.6726084" lon="13.7245025"><ele>345.0</ele><time>2026-05-04T14:48:20.057Z</time></trkpt><trkpt lat="41.6726639" lon="13.7243707"><ele>345.0</ele><time>2026-05-04T14:48:21.057Z</time></trkpt><trkpt lat="41.6727353" lon="13.7242024"><ele>345.6666666666667</ele><time>2026-05-04T14:48:22.057Z</time></trkpt><trkpt lat="41.6728165" lon="13.7239968"><ele>346.33333333333337</ele><time>2026-05-04T14:48:23.056Z</time></trkpt><trkpt lat="41.6729119" lon="13.7237869"><ele>347.0</ele><time>2026-05-04T14:48:24.056Z</time></trkpt><trkpt lat="41.6730095" lon="13.7235725"><ele>348.0</ele><time>2026-05-04T14:48:25.056Z</time></trkpt><trkpt lat="41.6731117" lon="13.723333"><ele>349.0</ele><time>2026-05-04T14:48:26.057Z</time></trkpt><trkpt lat="41.67322" lon="13.7230871"><ele>350.0</ele><time>2026-05-04T14:48:27.057Z</time></trkpt><trkpt lat="41.6733205" lon="13.722854"><ele>350.0</ele><time>2026-05-04T14:48:28.057Z</time></trkpt><trkpt lat="41.6733995" lon="13.7226393"><ele>350.0</ele><time>2026-05-04T14:48:29.057Z</time></trkpt><trkpt lat="41.6734466" lon="13.7224399"><ele>350.0</ele><time>2026-05-04T14:48:30.056Z</time></trkpt><trkpt lat="41.673452" lon="13.722233"><ele>350.0</ele><time>2026-05-04T14:48:31.056Z</time></trkpt><trkpt lat="41.6734272" lon="13.7220076"><ele>350.0</ele><time>2026-05-04T14:48:32.056Z</time></trkpt><trkpt lat="41.6733785" lon="13.7217269"><ele>350.0</ele><time>2026-05-04T14:48:33.057Z</time></trkpt><trkpt lat="41.6732912" lon="13.7214057"><ele>349.5</ele><time>2026-05-04T14:48:34.057Z</time></trkpt><trkpt lat="41.6731983" lon="13.7210333"><ele>349.0</ele><time>2026-05-04T14:48:35.056Z</time></trkpt><trkpt lat="41.6731019" lon="13.7206363"><ele>348.5</ele><time>2026-05-04T14:48:36.057Z</time></trkpt><trkpt lat="41.6730071" lon="13.7202261"><ele>348.0</ele><time>2026-05-04T14:48:37.057Z</time></trkpt><trkpt lat="41.6729084" lon="13.7198066"><ele>347.5</ele><time>2026-05-04T14:48:38.057Z</time></trkpt><trkpt lat="41.6728109" lon="13.7193919"><ele>347.0</ele><time>2026-05-04T14:48:39.056Z</time></trkpt><trkpt lat="41.6727219" lon="13.7190052"><ele>346.5</ele><time>2026-05-04T14:48:40.057Z</time></trkpt><trkpt lat="41.6726424" lon="13.7186432"><ele>346.0</ele><time>2026-05-04T14:48:41.056Z</time></trkpt><trkpt lat="41.6725708" lon="13.7183116"><ele>347.5</ele><time>2026-05-04T14:48:42.057Z</time></trkpt><trkpt lat="41.6724974" lon="13.7179963"><ele>349.0</ele><time>2026-05-04T14:48:43.057Z</time></trkpt><trkpt lat="41.6724244" lon="13.7176905"><ele>349.66666666666663</ele><time>2026-05-04T14:48:44.057Z</time></trkpt><trkpt lat="41.6723595" lon="13.717409"><ele>350.3333333333333</ele><time>2026-05-04T14:48:45.057Z</time></trkpt><trkpt lat="41.6723098" lon="13.7171966"><ele>351.0</ele><time>2026-05-04T14:48:46.056Z</time></trkpt><trkpt lat="41.6722744" lon="13.7170469"><ele>351.0</ele><time>2026-05-04T14:48:47.056Z</time></trkpt><trkpt lat="41.6722586" lon="13.7169563"><ele>351.0</ele><time>2026-05-04T14:48:48.057Z</time></trkpt><trkpt lat="41.6721957" lon="13.7168194"><ele>351.0</ele><time>2026-05-04T14:48:53.056Z</time></trkpt><trkpt lat="41.6721683" lon="13.7167008"><ele>351.0</ele><time>2026-05-04T14:48:54.057Z</time></trkpt><trkpt lat="41.6721497" lon="13.7165172"><ele>351.0</ele><time>2026-05-04T14:48:55.057Z</time></trkpt><trkpt lat="41.6721193" lon="13.716299"><ele>351.6666666666667</ele><time>2026-05-04T14:48:56.057Z</time></trkpt><trkpt lat="41.6720812" lon="13.7160403"><ele>352.33333333333337</ele><time>2026-05-04T14:48:57.056Z</time></trkpt><trkpt lat="41.6720446" lon="13.7157946"><ele>353.0</ele><time>2026-05-04T14:48:58.056Z</time></trkpt><trkpt lat="41.6720402" lon="13.7155412"><ele>353.0</ele><time>2026-05-04T14:48:59.056Z</time></trkpt><trkpt lat="41.6720743" lon="13.715272"><ele>353.0</ele><time>2026-05-04T14:49:00.057Z</time></trkpt><trkpt lat="41.6721559" lon="13.7149737"><ele>353.0</ele><time>2026-05-04T14:49:01.056Z</time></trkpt><trkpt lat="41.6722573" lon="13.7146485"><ele>354.5</ele><time>2026-05-04T14:49:02.056Z</time></trkpt><trkpt lat="41.6723939" lon="13.7142825"><ele>356.0</ele><time>2026-05-04T14:49:03.056Z</time></trkpt><trkpt lat="41.6725325" lon="13.7138969"><ele>356.5</ele><time>2026-05-04T14:49:04.056Z</time></trkpt><trkpt lat="41.6726808" lon="13.7134902"><ele>357.0</ele><time>2026-05-04T14:49:05.056Z</time></trkpt><trkpt lat="41.6728374" lon="13.713059"><ele>358.5</ele><time>2026-05-04T14:49:06.057Z</time></trkpt><trkpt lat="41.6730006" lon="13.7126237"><ele>360.0</ele><time>2026-05-04T14:49:07.056Z</time></trkpt><trkpt lat="41.6731553" lon="13.7121977"><ele>364.0</ele><time>2026-05-04T14:49:08.057Z</time></trkpt><trkpt lat="41.6733048" lon="13.7118127"><ele>368.0</ele><time>2026-05-04T14:49:09.057Z</time></trkpt><trkpt lat="41.6734485" lon="13.7114702"><ele>368.0</ele><time>2026-05-04T14:49:10.056Z</time></trkpt><trkpt lat="41.6735797" lon="13.7111639"><ele>368.0</ele><time>2026-05-04T14:49:11.057Z</time></trkpt><trkpt lat="41.6737316" lon="13.7108645"><ele>369.0</ele><time>2026-05-04T14:49:12.056Z</time></trkpt><trkpt lat="41.6739049" lon="13.7105588"><ele>370.0</ele><time>2026-05-04T14:49:13.057Z</time></trkpt><trkpt lat="41.6740832" lon="13.7102405"><ele>372.5</ele><time>2026-05-04T14:49:14.057Z</time></trkpt><trkpt lat="41.6742718" lon="13.7099107"><ele>375.0</ele><time>2026-05-04T14:49:15.056Z</time></trkpt><trkpt lat="41.674466" lon="13.709571"><ele>376.0</ele><time>2026-05-04T14:49:16.056Z</time></trkpt><trkpt lat="41.6746594" lon="13.7092402"><ele>377.0</ele><time>2026-05-04T14:49:17.057Z</time></trkpt><trkpt lat="41.6748363" lon="13.7089248"><ele>377.0</ele><time>2026-05-04T14:49:18.057Z</time></trkpt><trkpt lat="41.6750045" lon="13.7086302"><ele>377.0</ele><time>2026-05-04T14:49:19.056Z</time></trkpt><trkpt lat="41.6751584" lon="13.7083578"><ele>382.5</ele><time>2026-05-04T14:49:20.057Z</time></trkpt><trkpt lat="41.6753037" lon="13.7080925"><ele>388.0</ele><time>2026-05-04T14:49:21.056Z</time></trkpt><trkpt lat="41.6754471" lon="13.7078344"><ele>388.0</ele><time>2026-05-04T14:49:22.056Z</time></trkpt><trkpt lat="41.6755909" lon="13.7075732"><ele>388.0</ele><time>2026-05-04T14:49:23.057Z</time></trkpt><trkpt lat="41.6757369" lon="13.707314"><ele>388.0</ele><time>2026-05-04T14:49:24.057Z</time></trkpt><trkpt lat="41.6758791" lon="13.7070574"><ele>388.0</ele><time>2026-05-04T14:49:25.056Z</time></trkpt><trkpt lat="41.6760168" lon="13.7068172"><ele>389.33333333333337</ele><time>2026-05-04T14:49:26.057Z</time></trkpt><trkpt lat="41.6761385" lon="13.7065967"><ele>390.66666666666663</ele><time>2026-05-04T14:49:27.057Z</time></trkpt><trkpt lat="41.6762553" lon="13.706385"><ele>392.0</ele><time>2026-05-04T14:49:28.057Z</time></trkpt><trkpt lat="41.6763677" lon="13.7061736"><ele>391.0</ele><time>2026-05-04T14:49:29.056Z</time></trkpt><trkpt lat="41.6764829" lon="13.7059684"><ele>390.0</ele><time>2026-05-04T14:49:30.056Z</time></trkpt><trkpt lat="41.6765989" lon="13.7057648"><ele>389.0</ele><time>2026-05-04T14:49:31.056Z</time></trkpt><trkpt lat="41.6767144" lon="13.7055694"><ele>389.0</ele><time>2026-05-04T14:49:32.057Z</time></trkpt><trkpt lat="41.6768219" lon="13.7053831"><ele>389.0</ele><time>2026-05-04T14:49:33.056Z</time></trkpt><trkpt lat="41.6769265" lon="13.7051926"><ele>389.0</ele><time>2026-05-04T14:49:34.057Z</time></trkpt><trkpt lat="41.6770352" lon="13.7049949"><ele>388.3333333333333</ele><time>2026-05-04T14:49:35.056Z</time></trkpt><trkpt lat="41.6771488" lon="13.7047741"><ele>387.66666666666663</ele><time>2026-05-04T14:49:36.056Z</time></trkpt><trkpt lat="41.6772715" lon="13.7045395"><ele>387.0</ele><time>2026-05-04T14:49:37.056Z</time></trkpt><trkpt lat="41.677406" lon="13.7042885"><ele>385.3333333333333</ele><time>2026-05-04T14:49:38.056Z</time></trkpt><trkpt lat="41.6775398" lon="13.7040457"><ele>383.66666666666663</ele><time>2026-05-04T14:49:39.056Z</time></trkpt><trkpt lat="41.6776719" lon="13.7038126"><ele>382.0</ele><time>2026-05-04T14:49:40.057Z</time></trkpt><trkpt lat="41.6778007" lon="13.7035754"><ele>381.3333333333333</ele><time>2026-05-04T14:49:41.057Z</time></trkpt><trkpt lat="41.6779302" lon="13.7033463"><ele>380.6666666666667</ele><time>2026-05-04T14:49:42.057Z</time></trkpt><trkpt lat="41.6780595" lon="13.7031174"><ele>380.0</ele><time>2026-05-04T14:49:43.057Z</time></trkpt><trkpt lat="41.6781845" lon="13.7028894"><ele>378.33333333333337</ele><time>2026-05-04T14:49:44.057Z</time></trkpt><trkpt lat="41.6783071" lon="13.7026662"><ele>376.6666666666667</ele><time>2026-05-04T14:49:45.057Z</time></trkpt><trkpt lat="41.6784214" lon="13.7024503"><ele>375.0</ele><time>2026-05-04T14:49:46.056Z</time></trkpt><trkpt lat="41.6785366" lon="13.7022431"><ele>374.3333333333333</ele><time>2026-05-04T14:49:47.057Z</time></trkpt><trkpt lat="41.6786529" lon="13.702035"><ele>373.66666666666663</ele><time>2026-05-04T14:49:48.056Z</time></trkpt><trkpt lat="41.6787685" lon="13.7018328"><ele>373.0</ele><time>2026-05-04T14:49:49.057Z</time></trkpt><trkpt lat="41.6788886" lon="13.7016208"><ele>370.66666666666663</ele><time>2026-05-04T14:49:50.056Z</time></trkpt><trkpt lat="41.6790097" lon="13.7013939"><ele>368.3333333333333</ele><time>2026-05-04T14:49:51.056Z</time></trkpt><trkpt lat="41.6791373" lon="13.7011614"><ele>366.0</ele><time>2026-05-04T14:49:52.057Z</time></trkpt><trkpt lat="41.6792691" lon="13.7009073"><ele>366.0</ele><time>2026-05-04T14:49:53.057Z</time></trkpt><trkpt lat="41.6794115" lon="13.7006337"><ele>366.0</ele><time>2026-05-04T14:49:54.057Z</time></trkpt><trkpt lat="41.6795697" lon="13.7003496"><ele>360.5</ele><time>2026-05-04T14:49:55.056Z</time></trkpt><trkpt lat="41.6797329" lon="13.7000603"><ele>355.0</ele><time>2026-05-04T14:49:56.056Z</time></trkpt><trkpt lat="41.6798983" lon="13.6997687"><ele>355.0</ele><time>2026-05-04T14:49:57.057Z</time></trkpt><trkpt lat="41.6800663" lon="13.6994718"><ele>355.0</ele><time>2026-05-04T14:49:58.057Z</time></trkpt><trkpt lat="41.6802364" lon="13.6991629"><ele>353.0</ele><time>2026-05-04T14:49:59.057Z</time></trkpt><trkpt lat="41.6804017" lon="13.6988596"><ele>351.0</ele><time>2026-05-04T14:50:00.056Z</time></trkpt><trkpt lat="41.6805711" lon="13.6985587"><ele>349.5</ele><time>2026-05-04T14:50:01.057Z</time></trkpt><trkpt lat="41.6807378" lon="13.698247"><ele>348.0</ele><time>2026-05-04T14:50:02.057Z</time></trkpt><trkpt lat="41.6809112" lon="13.6979301"><ele>346.5</ele><time>2026-05-04T14:50:03.057Z</time></trkpt><trkpt lat="41.681085" lon="13.6976086"><ele>345.0</ele><time>2026-05-04T14:50:04.056Z</time></trkpt><trkpt lat="41.6812663" lon="13.6972875"><ele>345.0</ele><time>2026-05-04T14:50:05.057Z</time></trkpt><trkpt lat="41.6814443" lon="13.6969623"><ele>345.0</ele><time>2026-05-04T14:50:06.057Z</time></trkpt><trkpt lat="41.6816197" lon="13.6966469"><ele>342.0</ele><time>2026-05-04T14:50:07.057Z</time></trkpt><trkpt lat="41.6817899" lon="13.6963418"><ele>339.0</ele><time>2026-05-04T14:50:08.057Z</time></trkpt><trkpt lat="41.6819615" lon="13.6960277"><ele>336.5</ele><time>2026-05-04T14:50:09.056Z</time></trkpt><trkpt lat="41.6821351" lon="13.6957093"><ele>334.0</ele><time>2026-05-04T14:50:10.057Z</time></trkpt><trkpt lat="41.6823045" lon="13.6953883"><ele>333.5</ele><time>2026-05-04T14:50:11.057Z</time></trkpt><trkpt lat="41.6824774" lon="13.6950503"><ele>333.0</ele><time>2026-05-04T14:50:12.056Z</time></trkpt><trkpt lat="41.6826633" lon="13.6947071"><ele>330.5</ele><time>2026-05-04T14:50:13.056Z</time></trkpt><trkpt lat="41.6828561" lon="13.694365"><ele>328.0</ele><time>2026-05-04T14:50:14.057Z</time></trkpt><trkpt lat="41.6830526" lon="13.6940225"><ele>328.0</ele><time>2026-05-04T14:50:15.057Z</time></trkpt><trkpt lat="41.6832515" lon="13.6936781"><ele>328.0</ele><time>2026-05-04T14:50:16.057Z</time></trkpt><trkpt lat="41.6834474" lon="13.6933244"><ele>327.0</ele><time>2026-05-04T14:50:17.057Z</time></trkpt><trkpt lat="41.6836467" lon="13.6929715"><ele>326.0</ele><time>2026-05-04T14:50:18.056Z</time></trkpt><trkpt lat="41.6838485" lon="13.6926168"><ele>326.0</ele><time>2026-05-04T14:50:19.056Z</time></trkpt><trkpt lat="41.6840422" lon="13.6922716"><ele>326.0</ele><time>2026-05-04T14:50:20.056Z</time></trkpt><trkpt lat="41.6842199" lon="13.6919533"><ele>326.0</ele><time>2026-05-04T14:50:21.056Z</time></trkpt><trkpt lat="41.6843885" lon="13.6916591"><ele>326.0</ele><time>2026-05-04T14:50:22.057Z</time></trkpt><trkpt lat="41.684538" lon="13.6914071"><ele>325.6666666666667</ele><time>2026-05-04T14:50:23.057Z</time></trkpt><trkpt lat="41.6846626" lon="13.6911736"><ele>325.3333333333333</ele><time>2026-05-04T14:50:24.057Z</time></trkpt><trkpt lat="41.6847671" lon="13.690929"><ele>325.0</ele><time>2026-05-04T14:50:25.056Z</time></trkpt><trkpt lat="41.6848411" lon="13.6906572"><ele>324.5</ele><time>2026-05-04T14:50:26.057Z</time></trkpt><trkpt lat="41.6849044" lon="13.690351"><ele>324.0</ele><time>2026-05-04T14:50:27.057Z</time></trkpt><trkpt lat="41.6849516" lon="13.6900059"><ele>323.0</ele><time>2026-05-04T14:50:28.056Z</time></trkpt><trkpt lat="41.6849993" lon="13.6896487"><ele>322.0</ele><time>2026-05-04T14:50:29.057Z</time></trkpt><trkpt lat="41.6850589" lon="13.6893072"><ele>321.66666666666663</ele><time>2026-05-04T14:50:30.057Z</time></trkpt><trkpt lat="41.6851264" lon="13.6890015"><ele>321.3333333333333</ele><time>2026-05-04T14:50:31.057Z</time></trkpt><trkpt lat="41.6851985" lon="13.6887555"><ele>321.0</ele><time>2026-05-04T14:50:32.057Z</time></trkpt><trkpt lat="41.6853321" lon="13.6885265"><ele>321.0</ele><time>2026-05-04T14:50:33.056Z</time></trkpt><trkpt lat="41.6855118" lon="13.6883493"><ele>321.0</ele><time>2026-05-04T14:50:34.057Z</time></trkpt><trkpt lat="41.6857087" lon="13.688184"><ele>321.0</ele><time>2026-05-04T14:50:35.057Z</time></trkpt><trkpt lat="41.6859181" lon="13.6880149"><ele>321.0</ele><time>2026-05-04T14:50:36.057Z</time></trkpt><trkpt lat="41.6861488" lon="13.6878359"><ele>322.5</ele><time>2026-05-04T14:50:37.057Z</time></trkpt><trkpt lat="41.6863907" lon="13.6876484"><ele>324.0</ele><time>2026-05-04T14:50:38.056Z</time></trkpt><trkpt lat="41.6866397" lon="13.6874602"><ele>324.0</ele><time>2026-05-04T14:50:39.057Z</time></trkpt><trkpt lat="41.6868797" lon="13.6872792"><ele>324.0</ele><time>2026-05-04T14:50:40.057Z</time></trkpt><trkpt lat="41.6871016" lon="13.6871166"><ele>324.3333333333333</ele><time>2026-05-04T14:50:41.056Z</time></trkpt><trkpt lat="41.6873021" lon="13.6869678"><ele>324.66666666666663</ele><time>2026-05-04T14:50:42.057Z</time></trkpt><trkpt lat="41.6874818" lon="13.6868046"><ele>325.0</ele><time>2026-05-04T14:50:43.056Z</time></trkpt><trkpt lat="41.6876439" lon="13.6866351"><ele>324.66666666666663</ele><time>2026-05-04T14:50:44.057Z</time></trkpt><trkpt lat="41.6877943" lon="13.6864524"><ele>324.3333333333333</ele><time>2026-05-04T14:50:45.056Z</time></trkpt><trkpt lat="41.6879141" lon="13.6862612"><ele>324.0</ele><time>2026-05-04T14:50:46.057Z</time></trkpt><trkpt lat="41.6880125" lon="13.6860887"><ele>324.0</ele><time>2026-05-04T14:50:47.056Z</time></trkpt><trkpt lat="41.6880952" lon="13.6859649"><ele>324.0</ele><time>2026-05-04T14:50:48.057Z</time></trkpt><trkpt lat="41.6881548" lon="13.6858816"><ele>324.0</ele><time>2026-05-04T14:50:49.057Z</time></trkpt><trkpt lat="41.6882251" lon="13.685862"><ele>324.0</ele><time>2026-05-04T14:50:50.056Z</time></trkpt><trkpt lat="41.6883404" lon="13.6859842"><ele>324.0</ele><time>2026-05-04T14:50:52.057Z</time></trkpt><trkpt lat="41.6884019" lon="13.6861327"><ele>322.3333333333333</ele><time>2026-05-04T14:50:53.057Z</time></trkpt><trkpt lat="41.6884825" lon="13.6863193"><ele>320.66666666666663</ele><time>2026-05-04T14:50:54.057Z</time></trkpt><trkpt lat="41.6885714" lon="13.686509"><ele>319.0</ele><time>2026-05-04T14:50:55.057Z</time></trkpt><trkpt lat="41.6886533" lon="13.6866907"><ele>318.25</ele><time>2026-05-04T14:50:56.057Z</time></trkpt><trkpt lat="41.6886947" lon="13.6868401"><ele>317.5</ele><time>2026-05-04T14:50:57.057Z</time></trkpt><trkpt lat="41.6886874" lon="13.6869971"><ele>316.75</ele><time>2026-05-04T14:50:58.056Z</time></trkpt><trkpt lat="41.6886451" lon="13.6872006"><ele>316.0</ele><time>2026-05-04T14:50:59.056Z</time></trkpt><trkpt lat="41.6885684" lon="13.6873931"><ele>316.0</ele><time>2026-05-04T14:51:00.056Z</time></trkpt><trkpt lat="41.6884953" lon="13.687614"><ele>316.0</ele><time>2026-05-04T14:51:01.056Z</time></trkpt><trkpt lat="41.6884408" lon="13.6878498"><ele>316.0</ele><time>2026-05-04T14:51:02.056Z</time></trkpt><trkpt lat="41.6884138" lon="13.6881004"><ele>316.0</ele><time>2026-05-04T14:51:03.057Z</time></trkpt><trkpt lat="41.6884104" lon="13.6883712"><ele>316.0</ele><time>2026-05-04T14:51:04.056Z</time></trkpt><trkpt lat="41.6884267" lon="13.6886462"><ele>316.0</ele><time>2026-05-04T14:51:05.056Z</time></trkpt><trkpt lat="41.6884513" lon="13.6889137"><ele>315.66666666666663</ele><time>2026-05-04T14:51:06.056Z</time></trkpt><trkpt lat="41.6884889" lon="13.6891868"><ele>315.3333333333333</ele><time>2026-05-04T14:51:07.057Z</time></trkpt><trkpt lat="41.6885426" lon="13.6894756"><ele>315.0</ele><time>2026-05-04T14:51:08.056Z</time></trkpt><trkpt lat="41.6885984" lon="13.6897641"><ele>315.0</ele><time>2026-05-04T14:51:09.057Z</time></trkpt><trkpt lat="41.6886471" lon="13.6900288"><ele>315.0</ele><time>2026-05-04T14:51:10.057Z</time></trkpt><trkpt lat="41.6886968" lon="13.6902474"><ele>315.0</ele><time>2026-05-04T14:51:11.057Z</time></trkpt><trkpt lat="41.6887284" lon="13.6904378"><ele>315.75</ele><time>2026-05-04T14:51:12.057Z</time></trkpt><trkpt lat="41.6887435" lon="13.6906187"><ele>316.5</ele><time>2026-05-04T14:51:13.057Z</time></trkpt><trkpt lat="41.6887338" lon="13.6907989"><ele>317.25</ele><time>2026-05-04T14:51:14.057Z</time></trkpt><trkpt lat="41.6886784" lon="13.690989"><ele>318.0</ele><time>2026-05-04T14:51:15.057Z</time></trkpt><trkpt lat="41.6885812" lon="13.6911732"><ele>318.0</ele><time>2026-05-04T14:51:16.057Z</time></trkpt><trkpt lat="41.6885005" lon="13.6913506"><ele>318.0</ele><time>2026-05-04T14:51:17.057Z</time></trkpt><trkpt lat="41.6884398" lon="13.691536"><ele>318.0</ele><time>2026-05-04T14:51:18.057Z</time></trkpt><trkpt lat="41.6884273" lon="13.6917191"><ele>318.0</ele><time>2026-05-04T14:51:19.057Z</time></trkpt><trkpt lat="41.6884542" lon="13.6919097"><ele>318.0</ele><time>2026-05-04T14:51:20.056Z</time></trkpt><trkpt lat="41.6885137" lon="13.6921034"><ele>318.0</ele><time>2026-05-04T14:51:21.057Z</time></trkpt><trkpt lat="41.6885937" lon="13.6922841"><ele>318.0</ele><time>2026-05-04T14:51:22.056Z</time></trkpt><trkpt lat="41.6886722" lon="13.6924534"><ele>317.2</ele><time>2026-05-04T14:51:23.057Z</time></trkpt><trkpt lat="41.6887437" lon="13.6925966"><ele>316.4</ele><time>2026-05-04T14:51:24.057Z</time></trkpt><trkpt lat="41.6888107" lon="13.6927209"><ele>315.59999999999997</ele><time>2026-05-04T14:51:25.056Z</time></trkpt><trkpt lat="41.6888679" lon="13.6928359"><ele>314.8</ele><time>2026-05-04T14:51:26.057Z</time></trkpt><trkpt lat="41.688917" lon="13.692925"><ele>314.0</ele><time>2026-05-04T14:51:27.056Z</time></trkpt><trkpt lat="41.6889597" lon="13.6930058"><ele>314.0</ele><time>2026-05-04T14:51:28.056Z</time></trkpt><trkpt lat="41.68902" lon="13.6931191"><ele>314.0</ele><time>2026-05-04T14:51:30.056Z</time></trkpt><trkpt lat="41.6890854" lon="13.6932197"><ele>314.0</ele><time>2026-05-04T14:51:32.056Z</time></trkpt><trkpt lat="41.6891363" lon="13.6933058"><ele>314.0</ele><time>2026-05-04T14:51:33.057Z</time></trkpt><trkpt lat="41.6891959" lon="13.6934217"><ele>314.0</ele><time>2026-05-04T14:51:34.056Z</time></trkpt><trkpt lat="41.6892559" lon="13.6935407"><ele>314.0</ele><time>2026-05-04T14:51:35.056Z</time></trkpt><trkpt lat="41.6893095" lon="13.6936365"><ele>314.0</ele><time>2026-05-04T14:51:36.056Z</time></trkpt><trkpt lat="41.6893741" lon="13.6936979"><ele>314.0</ele><time>2026-05-04T14:51:37.057Z</time></trkpt><trkpt lat="41.68945" lon="13.6937145"><ele>314.0</ele><time>2026-05-04T14:51:38.057Z</time></trkpt><trkpt lat="41.6895364" lon="13.6937156"><ele>314.0</ele><time>2026-05-04T14:51:39.056Z</time></trkpt><trkpt lat="41.6896136" lon="13.6937499"><ele>314.0</ele><time>2026-05-04T14:51:40.057Z</time></trkpt><trkpt lat="41.6896773" lon="13.6938389"><ele>313.0</ele><time>2026-05-04T14:51:41.056Z</time></trkpt><trkpt lat="41.6897366" lon="13.6939771"><ele>312.0</ele><time>2026-05-04T14:51:42.057Z</time></trkpt><trkpt lat="41.6897972" lon="13.6941276"><ele>311.0</ele><time>2026-05-04T14:51:43.056Z</time></trkpt><trkpt lat="41.6898755" lon="13.6942703"><ele>310.0</ele><time>2026-05-04T14:51:44.057Z</time></trkpt><trkpt lat="41.6899943" lon="13.6944116"><ele>310.25</ele><time>2026-05-04T14:51:45.056Z</time></trkpt><trkpt lat="41.6901137" lon="13.6945459"><ele>310.5</ele><time>2026-05-04T14:51:46.056Z</time></trkpt><trkpt lat="41.6902122" lon="13.6946677"><ele>310.75</ele><time>2026-05-04T14:51:47.056Z</time></trkpt><trkpt lat="41.6902894" lon="13.6947961"><ele>311.0</ele><time>2026-05-04T14:51:48.057Z</time></trkpt><trkpt lat="41.6903724" lon="13.6949214"><ele>309.75</ele><time>2026-05-04T14:51:49.057Z</time></trkpt><trkpt lat="41.6904824" lon="13.6950083"><ele>308.5</ele><time>2026-05-04T14:51:50.057Z</time></trkpt><trkpt lat="41.6906154" lon="13.6950659"><ele>307.25</ele><time>2026-05-04T14:51:51.056Z</time></trkpt><trkpt lat="41.6907848" lon="13.6950779"><ele>306.0</ele><time>2026-05-04T14:51:52.057Z</time></trkpt><trkpt lat="41.6909592" lon="13.695075"><ele>306.25</ele><time>2026-05-04T14:51:53.056Z</time></trkpt><trkpt lat="41.6911131" lon="13.6950681"><ele>306.5</ele><time>2026-05-04T14:51:54.057Z</time></trkpt><trkpt lat="41.6912438" lon="13.6950587"><ele>306.75</ele><time>2026-05-04T14:51:55.057Z</time></trkpt><trkpt lat="41.6913617" lon="13.6950349"><ele>307.0</ele><time>2026-05-04T14:51:56.057Z</time></trkpt><trkpt lat="41.6914592" lon="13.6949915"><ele>307.0</ele><time>2026-05-04T14:51:57.057Z</time></trkpt><trkpt lat="41.691564" lon="13.6949314"><ele>307.0</ele><time>2026-05-04T14:51:58.056Z</time></trkpt><trkpt lat="41.691701" lon="13.6948646"><ele>307.0</ele><time>2026-05-04T14:51:59.057Z</time></trkpt><trkpt lat="41.6918686" lon="13.6948287"><ele>307.0</ele><time>2026-05-04T14:52:00.056Z</time></trkpt><trkpt lat="41.6920506" lon="13.6947904"><ele>308.0</ele><time>2026-05-04T14:52:01.056Z</time></trkpt><trkpt lat="41.692212" lon="13.6947437"><ele>309.0</ele><time>2026-05-04T14:52:02.057Z</time></trkpt><trkpt lat="41.6923425" lon="13.6947182"><ele>310.0</ele><time>2026-05-04T14:52:03.056Z</time></trkpt><trkpt lat="41.6924659" lon="13.6947329"><ele>311.0</ele><time>2026-05-04T14:52:04.057Z</time></trkpt><trkpt lat="41.6925822" lon="13.6948078"><ele>311.0</ele><time>2026-05-04T14:52:05.056Z</time></trkpt><trkpt lat="41.692689" lon="13.6949007"><ele>311.0</ele><time>2026-05-04T14:52:06.056Z</time></trkpt><trkpt lat="41.6927681" lon="13.6949434"><ele>311.0</ele><time>2026-05-04T14:52:07.057Z</time></trkpt><trkpt lat="41.6928527" lon="13.6949142"><ele>311.0</ele><time>2026-05-04T14:52:09.056Z</time></trkpt><trkpt lat="41.6928353" lon="13.6948272"><ele>311.0</ele><time>2026-05-04T14:52:11.057Z</time></trkpt><trkpt lat="41.692771" lon="13.694765"><ele>311.0</ele><time>2026-05-04T14:52:12.057Z</time></trkpt><trkpt lat="41.6926774" lon="13.6946715"><ele>311.0</ele><time>2026-05-04T14:52:13.056Z</time></trkpt><trkpt lat="41.6925676" lon="13.6945833"><ele>311.0</ele><time>2026-05-04T14:52:14.056Z</time></trkpt><trkpt lat="41.6924236" lon="13.6945371"><ele>311.0</ele><time>2026-05-04T14:52:15.056Z</time></trkpt><trkpt lat="41.6922547" lon="13.6945502"><ele>311.0</ele><time>2026-05-04T14:52:16.057Z</time></trkpt><trkpt lat="41.6920849" lon="13.6946002"><ele>311.0</ele><time>2026-05-04T14:52:17.056Z</time></trkpt><trkpt lat="41.6919375" lon="13.6946457"><ele>311.0</ele><time>2026-05-04T14:52:18.057Z</time></trkpt><trkpt lat="41.6918265" lon="13.6946805"><ele>311.0</ele><time>2026-05-04T14:52:19.057Z</time></trkpt><trkpt lat="41.6917493" lon="13.6946969"><ele>311.0</ele><time>2026-05-04T14:52:20.056Z</time></trkpt><trkpt lat="41.6916824" lon="13.6946572"><ele>311.0</ele><time>2026-05-04T14:52:23.057Z</time></trkpt><trkpt lat="41.69173" lon="13.6945497"><ele>310.33333333333337</ele><time>2026-05-04T14:52:31.057Z</time></trkpt><trkpt lat="41.6917782" lon="13.6944734"><ele>309.6666666666667</ele><time>2026-05-04T14:52:32.057Z</time></trkpt><trkpt lat="41.691846" lon="13.694393"><ele>309.0</ele><time>2026-05-04T14:52:33.056Z</time></trkpt><trkpt lat="41.6919135" lon="13.6943236"><ele>308.3333333333333</ele><time>2026-05-04T14:52:34.056Z</time></trkpt><trkpt lat="41.691983" lon="13.6942536"><ele>307.66666666666663</ele><time>2026-05-04T14:52:35.057Z</time></trkpt><trkpt lat="41.6920467" lon="13.6941784"><ele>307.0</ele><time>2026-05-04T14:52:36.056Z</time></trkpt><trkpt lat="41.6920973" lon="13.6940991"><ele>304.8</ele><time>2026-05-04T14:52:37.056Z</time></trkpt><trkpt lat="41.6921325" lon="13.6940023"><ele>302.6</ele><time>2026-05-04T14:52:38.056Z</time></trkpt><trkpt lat="41.6921653" lon="13.6938865"><ele>300.40000000000003</ele><time>2026-05-04T14:52:39.056Z</time></trkpt><trkpt lat="41.6921897" lon="13.6937451"><ele>298.2</ele><time>2026-05-04T14:52:40.057Z</time></trkpt><trkpt lat="41.6922113" lon="13.6935957"><ele>296.0</ele><time>2026-05-04T14:52:41.057Z</time></trkpt><trkpt lat="41.6922264" lon="13.6934618"><ele>295.5</ele><time>2026-05-04T14:52:42.056Z</time></trkpt><trkpt lat="41.6922392" lon="13.6933468"><ele>295.0</ele><time>2026-05-04T14:52:43.055Z</time></trkpt><trkpt lat="41.692248" lon="13.6932346"><ele>294.5</ele><time>2026-05-04T14:52:44.056Z</time></trkpt><trkpt lat="41.6922559" lon="13.6931167"><ele>294.0</ele><time>2026-05-04T14:52:45.055Z</time></trkpt><trkpt lat="41.692259" lon="13.6929932"><ele>293.5</ele><time>2026-05-04T14:52:46.056Z</time></trkpt><trkpt lat="41.6922602" lon="13.6928759"><ele>293.0</ele><time>2026-05-04T14:52:47.055Z</time></trkpt><trkpt lat="41.6922545" lon="13.6927639"><ele>292.6666666666667</ele><time>2026-05-04T14:52:48.055Z</time></trkpt><trkpt lat="41.6922449" lon="13.6926541"><ele>292.33333333333337</ele><time>2026-05-04T14:52:49.056Z</time></trkpt><trkpt lat="41.6922351" lon="13.6925436"><ele>292.0</ele><time>2026-05-04T14:52:50.056Z</time></trkpt><trkpt lat="41.6922179" lon="13.6924363"><ele>291.6666666666667</ele><time>2026-05-04T14:52:51.056Z</time></trkpt><trkpt lat="41.6921983" lon="13.6923381"><ele>291.3333333333333</ele><time>2026-05-04T14:52:52.056Z</time></trkpt><trkpt lat="41.6921805" lon="13.6922373"><ele>291.0</ele><time>2026-05-04T14:52:53.055Z</time></trkpt><trkpt lat="41.6921675" lon="13.6921469"><ele>291.0</ele><time>2026-05-04T14:52:54.055Z</time></trkpt><trkpt lat="41.6921591" lon="13.692061"><ele>291.0</ele><time>2026-05-04T14:52:55.056Z</time></trkpt><trkpt lat="41.6921438" lon="13.6918958"><ele>291.0</ele><time>2026-05-04T14:52:57.055Z</time></trkpt><trkpt lat="41.6921334" lon="13.6917348"><ele>291.0</ele><time>2026-05-04T14:52:59.055Z</time></trkpt><trkpt lat="41.6921295" lon="13.6916146"><ele>291.0</ele><time>2026-05-04T14:53:01.056Z</time></trkpt><trkpt lat="41.6921202" lon="13.6915198"><ele>290.85714285714283</ele><time>2026-05-04T14:53:03.056Z</time></trkpt><trkpt lat="41.692112" lon="13.6914158"><ele>290.71428571428567</ele><time>2026-05-04T14:53:06.055Z</time></trkpt><trkpt lat="41.692115" lon="13.6913311"><ele>290.57142857142856</ele><time>2026-05-04T14:53:13.055Z</time></trkpt><trkpt lat="41.692116" lon="13.6912394"><ele>290.42857142857144</ele><time>2026-05-04T14:53:16.055Z</time></trkpt><trkpt lat="41.6921056" lon="13.6911474"><ele>290.28571428571433</ele><time>2026-05-04T14:53:19.056Z</time></trkpt><trkpt lat="41.6921024" lon="13.6910361"><ele>290.14285714285717</ele><time>2026-05-04T14:53:22.056Z</time></trkpt><trkpt lat="41.6920984" lon="13.69094"><ele>290.0</ele><time>2026-05-04T14:53:25.055Z</time></trkpt><trkpt lat="41.6920863" lon="13.6908455"><ele>290.0</ele><time>2026-05-04T14:53:34.055Z</time></trkpt><trkpt lat="41.6920945" lon="13.6907271"><ele>290.0</ele><time>2026-05-04T14:53:38.055Z</time></trkpt><trkpt lat="41.6920927" lon="13.6905706"><ele>290.0</ele><time>2026-05-04T14:53:40.056Z</time></trkpt><trkpt lat="41.692105" lon="13.6904765"><ele>290.0</ele><time>2026-05-04T14:53:41.056Z</time></trkpt><trkpt lat="41.6921292" lon="13.6903717"><ele>290.0</ele><time>2026-05-04T14:53:42.056Z</time></trkpt><trkpt lat="41.6921684" lon="13.6902517"><ele>290.0</ele><time>2026-05-04T14:53:43.055Z</time></trkpt><trkpt lat="41.6922114" lon="13.6901415"><ele>290.0</ele><time>2026-05-04T14:53:44.055Z</time></trkpt><trkpt lat="41.6922483" lon="13.690045"><ele>290.0</ele><time>2026-05-04T14:53:45.055Z</time></trkpt><trkpt lat="41.6922837" lon="13.6899594"><ele>290.0</ele><time>2026-05-04T14:53:46.056Z</time></trkpt><trkpt lat="41.6923338" lon="13.6898532"><ele>290.0</ele><time>2026-05-04T14:53:48.056Z</time></trkpt><trkpt lat="41.6923839" lon="13.689749"><ele>290.0</ele><time>2026-05-04T14:53:51.056Z</time></trkpt><trkpt lat="41.6923989" lon="13.6896626"><ele>290.0</ele><time>2026-05-04T14:53:54.056Z</time></trkpt><trkpt lat="41.6924486" lon="13.6895404"><ele>290.0</ele><time>2026-05-04T14:53:57.056Z</time></trkpt><trkpt lat="41.692508" lon="13.6893789"><ele>290.0</ele><time>2026-05-04T14:53:59.056Z</time></trkpt><trkpt lat="41.6925422" lon="13.6892816"><ele>290.0</ele><time>2026-05-04T14:54:00.056Z</time></trkpt><trkpt lat="41.6925679" lon="13.6891886"><ele>290.0</ele><time>2026-05-04T14:54:01.056Z</time></trkpt><trkpt lat="41.6926067" lon="13.6890408"><ele>290.0</ele><time>2026-05-04T14:54:03.056Z</time></trkpt><trkpt lat="41.6926588" lon="13.6888951"><ele>290.0</ele><time>2026-05-04T14:54:05.056Z</time></trkpt><trkpt lat="41.6927148" lon="13.6887944"><ele>290.0</ele><time>2026-05-04T14:54:06.055Z</time></trkpt><trkpt lat="41.6927733" lon="13.6886853"><ele>290.0</ele><time>2026-05-04T14:54:07.056Z</time></trkpt><trkpt lat="41.6928285" lon="13.68858"><ele>290.0</ele><time>2026-05-04T14:54:08.055Z</time></trkpt><trkpt lat="41.6928722" lon="13.6884837"><ele>290.0</ele><time>2026-05-04T14:54:09.056Z</time></trkpt><trkpt lat="41.6929155" lon="13.6883815"><ele>290.0</ele><time>2026-05-04T14:54:10.056Z</time></trkpt><trkpt lat="41.6929492" lon="13.6882787"><ele>290.0</ele><time>2026-05-04T14:54:11.056Z</time></trkpt><trkpt lat="41.6929703" lon="13.6881635"><ele>290.0</ele><time>2026-05-04T14:54:12.056Z</time></trkpt><trkpt lat="41.6929989" lon="13.6880324"><ele>290.0</ele><time>2026-05-04T14:54:13.056Z</time></trkpt><trkpt lat="41.6930232" lon="13.6879086"><ele>290.0</ele><time>2026-05-04T14:54:14.056Z</time></trkpt><trkpt lat="41.6930468" lon="13.6877831"><ele>290.0</ele><time>2026-05-04T14:54:15.056Z</time></trkpt><trkpt lat="41.6930634" lon="13.6876493"><ele>290.0</ele><time>2026-05-04T14:54:16.056Z</time></trkpt><trkpt lat="41.6930909" lon="13.6874984"><ele>290.0</ele><time>2026-05-04T14:54:17.055Z</time></trkpt><trkpt lat="41.6931135" lon="13.6873508"><ele>290.0</ele><time>2026-05-04T14:54:18.055Z</time></trkpt><trkpt lat="41.6931419" lon="13.6872037"><ele>290.0</ele><time>2026-05-04T14:54:19.056Z</time></trkpt><trkpt lat="41.6931678" lon="13.6870741"><ele>290.0</ele><time>2026-05-04T14:54:20.056Z</time></trkpt><trkpt lat="41.6931884" lon="13.6869532"><ele>290.0</ele><time>2026-05-04T14:54:21.055Z</time></trkpt><trkpt lat="41.6931968" lon="13.6868215"><ele>290.0</ele><time>2026-05-04T14:54:22.055Z</time></trkpt><trkpt lat="41.6931944" lon="13.6866541"><ele>290.0</ele><time>2026-05-04T14:54:23.056Z</time></trkpt><trkpt lat="41.6931976" lon="13.6864926"><ele>290.33333333333337</ele><time>2026-05-04T14:54:24.055Z</time></trkpt><trkpt lat="41.693203" lon="13.686348"><ele>290.6666666666667</ele><time>2026-05-04T14:54:25.055Z</time></trkpt><trkpt lat="41.6932016" lon="13.6862283"><ele>291.0</ele><time>2026-05-04T14:54:26.055Z</time></trkpt><trkpt lat="41.693212" lon="13.6861249"><ele>291.3333333333333</ele><time>2026-05-04T14:54:27.056Z</time></trkpt><trkpt lat="41.6932316" lon="13.6860357"><ele>291.66666666666663</ele><time>2026-05-04T14:54:28.056Z</time></trkpt><trkpt lat="41.6932589" lon="13.6859521"><ele>292.0</ele><time>2026-05-04T14:54:29.056Z</time></trkpt><trkpt lat="41.693301" lon="13.6858657"><ele>292.4</ele><time>2026-05-04T14:54:30.056Z</time></trkpt><trkpt lat="41.6933524" lon="13.6857727"><ele>292.79999999999995</ele><time>2026-05-04T14:54:31.055Z</time></trkpt><trkpt lat="41.6933914" lon="13.6856765"><ele>293.2</ele><time>2026-05-04T14:54:32.055Z</time></trkpt><trkpt lat="41.6934174" lon="13.6855578"><ele>293.59999999999997</ele><time>2026-05-04T14:54:33.056Z</time></trkpt><trkpt lat="41.6934429" lon="13.6854302"><ele>294.0</ele><time>2026-05-04T14:54:34.055Z</time></trkpt><trkpt lat="41.6934611" lon="13.6853035"><ele>294.0</ele><time>2026-05-04T14:54:35.056Z</time></trkpt><trkpt lat="41.693475" lon="13.6851842"><ele>294.0</ele><time>2026-05-04T14:54:36.056Z</time></trkpt><trkpt lat="41.6934897" lon="13.6850796"><ele>294.0</ele><time>2026-05-04T14:54:37.055Z</time></trkpt><trkpt lat="41.6935025" lon="13.6849689"><ele>294.0</ele><time>2026-05-04T14:54:38.055Z</time></trkpt><trkpt lat="41.6935166" lon="13.6848486"><ele>294.0</ele><time>2026-05-04T14:54:39.055Z</time></trkpt><trkpt lat="41.6935349" lon="13.684729"><ele>294.0</ele><time>2026-05-04T14:54:40.055Z</time></trkpt><trkpt lat="41.6935566" lon="13.6846332"><ele>294.0</ele><time>2026-05-04T14:54:41.055Z</time></trkpt><trkpt lat="41.6935718" lon="13.6845341"><ele>294.0</ele><time>2026-05-04T14:54:42.056Z</time></trkpt><trkpt lat="41.6935724" lon="13.6844346"><ele>294.0</ele><time>2026-05-04T14:54:43.055Z</time></trkpt><trkpt lat="41.6935617" lon="13.6843321"><ele>294.0</ele><time>2026-05-04T14:54:44.055Z</time></trkpt><trkpt lat="41.6935544" lon="13.6842147"><ele>294.0</ele><time>2026-05-04T14:54:45.056Z</time></trkpt><trkpt lat="41.6935539" lon="13.6840947"><ele>294.0</ele><time>2026-05-04T14:54:46.056Z</time></trkpt><trkpt lat="41.6935583" lon="13.6839664"><ele>294.2</ele><time>2026-05-04T14:54:47.056Z</time></trkpt><trkpt lat="41.6935716" lon="13.6838369"><ele>294.4</ele><time>2026-05-04T14:54:48.056Z</time></trkpt><trkpt lat="41.6935873" lon="13.6837097"><ele>294.6</ele><time>2026-05-04T14:54:49.055Z</time></trkpt><trkpt lat="41.6936045" lon="13.6835921"><ele>294.8</ele><time>2026-05-04T14:54:50.055Z</time></trkpt><trkpt lat="41.6936254" lon="13.6834803"><ele>295.0</ele><time>2026-05-04T14:54:51.055Z</time></trkpt><trkpt lat="41.6936429" lon="13.6833633"><ele>294.8333333333333</ele><time>2026-05-04T14:54:52.056Z</time></trkpt><trkpt lat="41.6936429" lon="13.6832355"><ele>294.66666666666663</ele><time>2026-05-04T14:54:53.055Z</time></trkpt><trkpt lat="41.6936318" lon="13.6831112"><ele>294.5</ele><time>2026-05-04T14:54:54.055Z</time></trkpt><trkpt lat="41.6936299" lon="13.6829998"><ele>294.3333333333333</ele><time>2026-05-04T14:54:55.055Z</time></trkpt><trkpt lat="41.6936355" lon="13.6828968"><ele>294.1666666666667</ele><time>2026-05-04T14:54:56.056Z</time></trkpt><trkpt lat="41.6936606" lon="13.6827799"><ele>294.0</ele><time>2026-05-04T14:54:57.056Z</time></trkpt><trkpt lat="41.6937127" lon="13.682653"><ele>294.0</ele><time>2026-05-04T14:54:58.056Z</time></trkpt><trkpt lat="41.6937767" lon="13.6825083"><ele>294.0</ele><time>2026-05-04T14:54:59.056Z</time></trkpt><trkpt lat="41.6938482" lon="13.6823644"><ele>294.0</ele><time>2026-05-04T14:55:00.056Z</time></trkpt><trkpt lat="41.6939202" lon="13.6822255"><ele>294.0</ele><time>2026-05-04T14:55:01.056Z</time></trkpt><trkpt lat="41.6939986" lon="13.6820748"><ele>295.0</ele><time>2026-05-04T14:55:02.055Z</time></trkpt><trkpt lat="41.6940832" lon="13.6819153"><ele>296.0</ele><time>2026-05-04T14:55:03.056Z</time></trkpt><trkpt lat="41.6941685" lon="13.6817616"><ele>297.0</ele><time>2026-05-04T14:55:04.055Z</time></trkpt><trkpt lat="41.6942578" lon="13.6816064"><ele>298.0</ele><time>2026-05-04T14:55:05.056Z</time></trkpt><trkpt lat="41.6943463" lon="13.6814552"><ele>297.5</ele><time>2026-05-04T14:55:06.056Z</time></trkpt><trkpt lat="41.6944293" lon="13.6813064"><ele>297.0</ele><time>2026-05-04T14:55:07.055Z</time></trkpt><trkpt lat="41.6945009" lon="13.6811664"><ele>296.5</ele><time>2026-05-04T14:55:08.055Z</time></trkpt><trkpt lat="41.6945725" lon="13.681037"><ele>296.0</ele><time>2026-05-04T14:55:09.056Z</time></trkpt><trkpt lat="41.6946477" lon="13.6809068"><ele>296.0</ele><time>2026-05-04T14:55:10.056Z</time></trkpt><trkpt lat="41.6947202" lon="13.6807978"><ele>296.0</ele><time>2026-05-04T14:55:11.056Z</time></trkpt><trkpt lat="41.6947987" lon="13.6807041"><ele>296.0</ele><time>2026-05-04T14:55:12.055Z</time></trkpt><trkpt lat="41.6948785" lon="13.6806201"><ele>296.0</ele><time>2026-05-04T14:55:13.055Z</time></trkpt><trkpt lat="41.6949649" lon="13.6805528"><ele>296.0</ele><time>2026-05-04T14:55:14.056Z</time></trkpt><trkpt lat="41.6950526" lon="13.6804878"><ele>296.0</ele><time>2026-05-04T14:55:15.056Z</time></trkpt><trkpt lat="41.6951404" lon="13.6804153"><ele>296.0</ele><time>2026-05-04T14:55:16.055Z</time></trkpt><trkpt lat="41.6952282" lon="13.6803268"><ele>296.0</ele><time>2026-05-04T14:55:17.055Z</time></trkpt><trkpt lat="41.6953215" lon="13.6802329"><ele>296.0</ele><time>2026-05-04T14:55:18.055Z</time></trkpt><trkpt lat="41.6954182" lon="13.680128"><ele>296.40000000000003</ele><time>2026-05-04T14:55:19.056Z</time></trkpt><trkpt lat="41.6955146" lon="13.6800277"><ele>296.8</ele><time>2026-05-04T14:55:20.056Z</time></trkpt><trkpt lat="41.6955896" lon="13.6799421"><ele>297.20000000000005</ele><time>2026-05-04T14:55:21.055Z</time></trkpt><trkpt lat="41.69565" lon="13.6798678"><ele>297.6</ele><time>2026-05-04T14:55:22.056Z</time></trkpt><trkpt lat="41.6956777" lon="13.6797183"><ele>298.0</ele><time>2026-05-04T14:55:24.056Z</time></trkpt><trkpt lat="41.695638" lon="13.6796199"><ele>298.0</ele><time>2026-05-04T14:55:25.056Z</time></trkpt><trkpt lat="41.6955801" lon="13.6794922"><ele>298.0</ele><time>2026-05-04T14:55:26.056Z</time></trkpt><trkpt lat="41.6955082" lon="13.6793489"><ele>298.0</ele><time>2026-05-04T14:55:27.055Z</time></trkpt><trkpt lat="41.6954353" lon="13.6792009"><ele>298.0</ele><time>2026-05-04T14:55:28.055Z</time></trkpt><trkpt lat="41.6953648" lon="13.6790826"><ele>298.0</ele><time>2026-05-04T14:55:29.056Z</time></trkpt><trkpt lat="41.6953083" lon="13.6789942"><ele>298.0</ele><time>2026-05-04T14:55:30.056Z</time></trkpt><trkpt lat="41.695261" lon="13.6789104"><ele>298.0</ele><time>2026-05-04T14:55:31.056Z</time></trkpt><trkpt lat="41.6951847" lon="13.6787787"><ele>298.0</ele><time>2026-05-04T14:55:33.056Z</time></trkpt><trkpt lat="41.6950941" lon="13.6786509"><ele>298.0</ele><time>2026-05-04T14:55:35.056Z</time></trkpt><trkpt lat="41.6950375" lon="13.6785697"><ele>298.5</ele><time>2026-05-04T14:55:36.056Z</time></trkpt><trkpt lat="41.694966" lon="13.6784813"><ele>299.0</ele><time>2026-05-04T14:55:37.056Z</time></trkpt><trkpt lat="41.6948927" lon="13.6783894"><ele>299.5</ele><time>2026-05-04T14:55:38.055Z</time></trkpt><trkpt lat="41.6948328" lon="13.678299"><ele>300.0</ele><time>2026-05-04T14:55:39.056Z</time></trkpt><trkpt lat="41.6947876" lon="13.6782217"><ele>300.5</ele><time>2026-05-04T14:55:40.055Z</time></trkpt><trkpt lat="41.6947518" lon="13.6781363"><ele>301.0</ele><time>2026-05-04T14:55:41.056Z</time></trkpt><trkpt lat="41.6947034" lon="13.6780471"><ele>301.0</ele><time>2026-05-04T14:55:42.055Z</time></trkpt><trkpt lat="41.6946423" lon="13.6779401"><ele>301.0</ele><time>2026-05-04T14:55:43.055Z</time></trkpt><trkpt lat="41.694561" lon="13.6778328"><ele>301.0</ele><time>2026-05-04T14:55:44.055Z</time></trkpt><trkpt lat="41.6944549" lon="13.6777048"><ele>301.0</ele><time>2026-05-04T14:55:45.055Z</time></trkpt><trkpt lat="41.6943514" lon="13.6775733"><ele>303.0</ele><time>2026-05-04T14:55:46.056Z</time></trkpt><trkpt lat="41.6942511" lon="13.6774617"><ele>305.0</ele><time>2026-05-04T14:55:47.056Z</time></trkpt><trkpt lat="41.6941448" lon="13.6773868"><ele>307.0</ele><time>2026-05-04T14:55:48.055Z</time></trkpt><trkpt lat="41.6940386" lon="13.6773589"><ele>309.0</ele><time>2026-05-04T14:55:49.056Z</time></trkpt><trkpt lat="41.6939263" lon="13.6773428"><ele>309.0</ele><time>2026-05-04T14:55:50.055Z</time></trkpt><trkpt lat="41.6938202" lon="13.6773563"><ele>309.0</ele><time>2026-05-04T14:55:51.055Z</time></trkpt><trkpt lat="41.6937223" lon="13.6774116"><ele>309.0</ele><time>2026-05-04T14:55:52.055Z</time></trkpt><trkpt lat="41.6936341" lon="13.6774702"><ele>309.0</ele><time>2026-05-04T14:55:53.055Z</time></trkpt><trkpt lat="41.6935623" lon="13.6775027"><ele>309.0</ele><time>2026-05-04T14:55:54.055Z</time></trkpt><trkpt lat="41.6934315" lon="13.6773945"><ele>309.5</ele><time>2026-05-04T14:55:56.055Z</time></trkpt><trkpt lat="41.693354" lon="13.6772826"><ele>310.0</ele><time>2026-05-04T14:55:57.056Z</time></trkpt><trkpt lat="41.6932855" lon="13.6771981"><ele>310.5</ele><time>2026-05-04T14:55:58.056Z</time></trkpt><trkpt lat="41.6932304" lon="13.6771402"><ele>311.0</ele><time>2026-05-04T14:55:59.056Z</time></trkpt><trkpt lat="41.6931989" lon="13.6770477"><ele>311.5</ele><time>2026-05-04T14:57:31.055Z</time></trkpt><trkpt lat="41.6932057" lon="13.6769378"><ele>312.0</ele><time>2026-05-04T14:57:32.055Z</time></trkpt><trkpt lat="41.6932515" lon="13.6767915"><ele>312.0</ele><time>2026-05-04T14:57:33.055Z</time></trkpt><trkpt lat="41.6932993" lon="13.6766339"><ele>312.0</ele><time>2026-05-04T14:57:34.056Z</time></trkpt><trkpt lat="41.6933536" lon="13.6764519"><ele>312.0</ele><time>2026-05-04T14:57:35.055Z</time></trkpt><trkpt lat="41.6934174" lon="13.6762458"><ele>312.0</ele><time>2026-05-04T14:57:36.055Z</time></trkpt><trkpt lat="41.6934867" lon="13.6760026"><ele>311.5</ele><time>2026-05-04T14:57:37.055Z</time></trkpt><trkpt lat="41.6935605" lon="13.6757261"><ele>311.0</ele><time>2026-05-04T14:57:38.055Z</time></trkpt><trkpt lat="41.693651" lon="13.6754273"><ele>308.0</ele><time>2026-05-04T14:57:39.056Z</time></trkpt><trkpt lat="41.6937517" lon="13.6751166"><ele>305.0</ele><time>2026-05-04T14:57:40.055Z</time></trkpt><trkpt lat="41.6938639" lon="13.6747867"><ele>305.0</ele><time>2026-05-04T14:57:41.055Z</time></trkpt><trkpt lat="41.6939873" lon="13.6744446"><ele>305.0</ele><time>2026-05-04T14:57:42.055Z</time></trkpt><trkpt lat="41.6941062" lon="13.674087"><ele>302.5</ele><time>2026-05-04T14:57:43.055Z</time></trkpt><trkpt lat="41.6942224" lon="13.673722"><ele>300.0</ele><time>2026-05-04T14:57:44.055Z</time></trkpt><trkpt lat="41.6943265" lon="13.6733473"><ele>298.5</ele><time>2026-05-04T14:57:45.055Z</time></trkpt><trkpt lat="41.6944194" lon="13.6729682"><ele>297.0</ele><time>2026-05-04T14:57:46.054Z</time></trkpt><trkpt lat="41.6944902" lon="13.6725845"><ele>297.0</ele><time>2026-05-04T14:57:47.055Z</time></trkpt><trkpt lat="41.6945508" lon="13.672195"><ele>297.0</ele><time>2026-05-04T14:57:48.055Z</time></trkpt><trkpt lat="41.6945929" lon="13.6717857"><ele>295.0</ele><time>2026-05-04T14:57:49.054Z</time></trkpt><trkpt lat="41.69463" lon="13.6713689"><ele>293.0</ele><time>2026-05-04T14:57:50.054Z</time></trkpt><trkpt lat="41.6946661" lon="13.6709524"><ele>293.0</ele><time>2026-05-04T14:57:51.054Z</time></trkpt><trkpt lat="41.6946933" lon="13.6705585"><ele>293.0</ele><time>2026-05-04T14:57:52.054Z</time></trkpt><trkpt lat="41.6947288" lon="13.6701874"><ele>293.0</ele><time>2026-05-04T14:57:53.054Z</time></trkpt><trkpt lat="41.6947559" lon="13.6698356"><ele>293.0</ele><time>2026-05-04T14:57:54.055Z</time></trkpt><trkpt lat="41.6947855" lon="13.6695036"><ele>293.5</ele><time>2026-05-04T14:57:55.055Z</time></trkpt><trkpt lat="41.6948204" lon="13.6691941"><ele>294.0</ele><time>2026-05-04T14:57:56.055Z</time></trkpt><trkpt lat="41.6948771" lon="13.6689075"><ele>294.0</ele><time>2026-05-04T14:57:57.055Z</time></trkpt><trkpt lat="41.6949506" lon="13.668648"><ele>294.0</ele><time>2026-05-04T14:57:58.054Z</time></trkpt><trkpt lat="41.6950503" lon="13.6683957"><ele>294.0</ele><time>2026-05-04T14:57:59.054Z</time></trkpt><trkpt lat="41.6951828" lon="13.6681424"><ele>292.0</ele><time>2026-05-04T14:58:00.055Z</time></trkpt><trkpt lat="41.6953348" lon="13.6678777"><ele>290.0</ele><time>2026-05-04T14:58:01.055Z</time></trkpt><trkpt lat="41.6954963" lon="13.6675959"><ele>290.0</ele><time>2026-05-04T14:58:02.054Z</time></trkpt><trkpt lat="41.6956615" lon="13.6673119"><ele>290.0</ele><time>2026-05-04T14:58:03.055Z</time></trkpt><trkpt lat="41.6958194" lon="13.6670445"><ele>290.5</ele><time>2026-05-04T14:58:04.054Z</time></trkpt><trkpt lat="41.6959695" lon="13.6667871"><ele>291.0</ele><time>2026-05-04T14:58:05.055Z</time></trkpt><trkpt lat="41.6961199" lon="13.6665306"><ele>291.5</ele><time>2026-05-04T14:58:06.054Z</time></trkpt><trkpt lat="41.6962697" lon="13.6662704"><ele>292.0</ele><time>2026-05-04T14:58:07.055Z</time></trkpt><trkpt lat="41.6964114" lon="13.6660217"><ele>292.3333333333333</ele><time>2026-05-04T14:58:08.054Z</time></trkpt><trkpt lat="41.696542" lon="13.6658108"><ele>292.6666666666667</ele><time>2026-05-04T14:58:09.054Z</time></trkpt><trkpt lat="41.6966596" lon="13.665619"><ele>293.0</ele><time>2026-05-04T14:58:10.055Z</time></trkpt><trkpt lat="41.6967663" lon="13.6654463"><ele>293.0</ele><time>2026-05-04T14:58:11.055Z</time></trkpt><trkpt lat="41.6968865" lon="13.6653234"><ele>293.0</ele><time>2026-05-04T14:58:12.055Z</time></trkpt><trkpt lat="41.6970251" lon="13.6652313"><ele>293.0</ele><time>2026-05-04T14:58:13.055Z</time></trkpt><trkpt lat="41.697171" lon="13.6651907"><ele>293.0</ele><time>2026-05-04T14:58:14.054Z</time></trkpt><trkpt lat="41.6973068" lon="13.665158"><ele>293.0</ele><time>2026-05-04T14:58:15.054Z</time></trkpt><trkpt lat="41.6974185" lon="13.6651215"><ele>293.0</ele><time>2026-05-04T14:58:16.054Z</time></trkpt><trkpt lat="41.6975135" lon="13.6650452"><ele>293.0</ele><time>2026-05-04T14:58:17.054Z</time></trkpt><trkpt lat="41.6975889" lon="13.6649274"><ele>293.0</ele><time>2026-05-04T14:58:18.055Z</time></trkpt><trkpt lat="41.6976398" lon="13.6647803"><ele>293.0</ele><time>2026-05-04T14:58:19.054Z</time></trkpt><trkpt lat="41.6976858" lon="13.6646133"><ele>293.0</ele><time>2026-05-04T14:58:20.054Z</time></trkpt><trkpt lat="41.6977288" lon="13.6644441"><ele>293.0</ele><time>2026-05-04T14:58:21.055Z</time></trkpt><trkpt lat="41.6977919" lon="13.6642763"><ele>293.0</ele><time>2026-05-04T14:58:22.055Z</time></trkpt><trkpt lat="41.6978637" lon="13.664124"><ele>293.0</ele><time>2026-05-04T14:58:23.055Z</time></trkpt><trkpt lat="41.6979572" lon="13.663983"><ele>293.0</ele><time>2026-05-04T14:58:24.054Z</time></trkpt><trkpt lat="41.6980538" lon="13.6638403"><ele>293.0</ele><time>2026-05-04T14:58:25.054Z</time></trkpt><trkpt lat="41.6981587" lon="13.6636962"><ele>292.6666666666667</ele><time>2026-05-04T14:58:26.054Z</time></trkpt><trkpt lat="41.6982646" lon="13.6635547"><ele>292.3333333333333</ele><time>2026-05-04T14:58:27.055Z</time></trkpt><trkpt lat="41.6983666" lon="13.6633944"><ele>292.0</ele><time>2026-05-04T14:58:28.055Z</time></trkpt><trkpt lat="41.6984632" lon="13.663217"><ele>292.0</ele><time>2026-05-04T14:58:29.055Z</time></trkpt><trkpt lat="41.6985531" lon="13.6630284"><ele>292.0</ele><time>2026-05-04T14:58:30.054Z</time></trkpt><trkpt lat="41.6986357" lon="13.662848"><ele>292.0</ele><time>2026-05-04T14:58:31.054Z</time></trkpt><trkpt lat="41.6987158" lon="13.6626766"><ele>293.5</ele><time>2026-05-04T14:58:32.054Z</time></trkpt><trkpt lat="41.6987892" lon="13.6625082"><ele>295.0</ele><time>2026-05-04T14:58:33.055Z</time></trkpt><trkpt lat="41.6988511" lon="13.6623363"><ele>296.5</ele><time>2026-05-04T14:58:34.054Z</time></trkpt><trkpt lat="41.6988987" lon="13.6621523"><ele>298.0</ele><time>2026-05-04T14:58:35.054Z</time></trkpt><trkpt lat="41.6989242" lon="13.6619485"><ele>297.3333333333333</ele><time>2026-05-04T14:58:36.054Z</time></trkpt><trkpt lat="41.698934" lon="13.6617313"><ele>296.6666666666667</ele><time>2026-05-04T14:58:37.054Z</time></trkpt><trkpt lat="41.6989314" lon="13.6615037"><ele>296.0</ele><time>2026-05-04T14:58:38.055Z</time></trkpt><trkpt lat="41.6989294" lon="13.6612836"><ele>295.6666666666667</ele><time>2026-05-04T14:58:39.055Z</time></trkpt><trkpt lat="41.6989285" lon="13.6610705"><ele>295.3333333333333</ele><time>2026-05-04T14:58:40.054Z</time></trkpt><trkpt lat="41.6989213" lon="13.6608623"><ele>295.0</ele><time>2026-05-04T14:58:41.054Z</time></trkpt><trkpt lat="41.6989097" lon="13.6606541"><ele>295.0</ele><time>2026-05-04T14:58:42.055Z</time></trkpt><trkpt lat="41.6988761" lon="13.660449"><ele>295.0</ele><time>2026-05-04T14:58:43.054Z</time></trkpt><trkpt lat="41.6988181" lon="13.6602287"><ele>295.0</ele><time>2026-05-04T14:58:44.054Z</time></trkpt><trkpt lat="41.6987639" lon="13.6600184"><ele>295.0</ele><time>2026-05-04T14:58:45.055Z</time></trkpt><trkpt lat="41.698729" lon="13.6597962"><ele>295.0</ele><time>2026-05-04T14:58:46.055Z</time></trkpt><trkpt lat="41.6987123" lon="13.6595731"><ele>295.0</ele><time>2026-05-04T14:58:47.055Z</time></trkpt><trkpt lat="41.6987143" lon="13.6593338"><ele>295.0</ele><time>2026-05-04T14:58:48.055Z</time></trkpt><trkpt lat="41.6987319" lon="13.6590904"><ele>295.0</ele><time>2026-05-04T14:58:49.055Z</time></trkpt><trkpt lat="41.6987521" lon="13.6588586"><ele>295.0</ele><time>2026-05-04T14:58:50.055Z</time></trkpt><trkpt lat="41.698776" lon="13.6586481"><ele>295.3333333333333</ele><time>2026-05-04T14:58:51.055Z</time></trkpt><trkpt lat="41.6987994" lon="13.6584426"><ele>295.6666666666667</ele><time>2026-05-04T14:58:52.054Z</time></trkpt><trkpt lat="41.6988226" lon="13.6582348"><ele>296.0</ele><time>2026-05-04T14:58:53.055Z</time></trkpt><trkpt lat="41.6988435" lon="13.6580159"><ele>296.0</ele><time>2026-05-04T14:58:54.054Z</time></trkpt><trkpt lat="41.6988646" lon="13.6577915"><ele>296.0</ele><time>2026-05-04T14:58:55.054Z</time></trkpt><trkpt lat="41.6988801" lon="13.6575634"><ele>296.0</ele><time>2026-05-04T14:58:56.054Z</time></trkpt><trkpt lat="41.6989035" lon="13.6573465"><ele>296.0</ele><time>2026-05-04T14:58:57.055Z</time></trkpt><trkpt lat="41.6989356" lon="13.6571512"><ele>296.0</ele><time>2026-05-04T14:58:58.055Z</time></trkpt><trkpt lat="41.6989667" lon="13.6569679"><ele>296.0</ele><time>2026-05-04T14:58:59.055Z</time></trkpt><trkpt lat="41.6990009" lon="13.6567789"><ele>296.0</ele><time>2026-05-04T14:59:00.055Z</time></trkpt><trkpt lat="41.6990363" lon="13.656594"><ele>295.5</ele><time>2026-05-04T14:59:01.054Z</time></trkpt><trkpt lat="41.6990667" lon="13.6564296"><ele>295.0</ele><time>2026-05-04T14:59:02.055Z</time></trkpt><trkpt lat="41.6990924" lon="13.6562746"><ele>294.5</ele><time>2026-05-04T14:59:03.054Z</time></trkpt><trkpt lat="41.6991183" lon="13.6561262"><ele>294.0</ele><time>2026-05-04T14:59:04.054Z</time></trkpt><trkpt lat="41.6991426" lon="13.6559754"><ele>293.5</ele><time>2026-05-04T14:59:05.055Z</time></trkpt><trkpt lat="41.6991681" lon="13.6558215"><ele>293.0</ele><time>2026-05-04T14:59:06.054Z</time></trkpt><trkpt lat="41.6991958" lon="13.655661"><ele>292.5</ele><time>2026-05-04T14:59:07.055Z</time></trkpt><trkpt lat="41.6992212" lon="13.6554998"><ele>292.0</ele><time>2026-05-04T14:59:08.055Z</time></trkpt><trkpt lat="41.6992468" lon="13.6553367"><ele>292.0</ele><time>2026-05-04T14:59:09.054Z</time></trkpt><trkpt lat="41.699282" lon="13.6551659"><ele>292.0</ele><time>2026-05-04T14:59:10.054Z</time></trkpt><trkpt lat="41.6993186" lon="13.6549802"><ele>292.0</ele><time>2026-05-04T14:59:11.055Z</time></trkpt><trkpt lat="41.699352" lon="13.6547855"><ele>292.0</ele><time>2026-05-04T14:59:12.054Z</time></trkpt><trkpt lat="41.6993643" lon="13.6545721"><ele>292.0</ele><time>2026-05-04T14:59:13.054Z</time></trkpt><trkpt lat="41.6993521" lon="13.6543163"><ele>292.0</ele><time>2026-05-04T14:59:14.054Z</time></trkpt><trkpt lat="41.6993388" lon="13.6540298"><ele>292.0</ele><time>2026-05-04T14:59:15.054Z</time></trkpt><trkpt lat="41.6993223" lon="13.6537092"><ele>291.5</ele><time>2026-05-04T14:59:16.054Z</time></trkpt><trkpt lat="41.6993155" lon="13.6533483"><ele>291.0</ele><time>2026-05-04T14:59:17.055Z</time></trkpt><trkpt lat="41.6993227" lon="13.652961"><ele>291.0</ele><time>2026-05-04T14:59:18.055Z</time></trkpt><trkpt lat="41.6993353" lon="13.6525363"><ele>291.0</ele><time>2026-05-04T14:59:19.055Z</time></trkpt><trkpt lat="41.6993581" lon="13.6521252"><ele>291.5</ele><time>2026-05-04T14:59:20.054Z</time></trkpt><trkpt lat="41.6993818" lon="13.6517534"><ele>292.0</ele><time>2026-05-04T14:59:21.055Z</time></trkpt><trkpt lat="41.6994043" lon="13.6514205"><ele>293.0</ele><time>2026-05-04T14:59:22.055Z</time></trkpt><trkpt lat="41.6994342" lon="13.6511037"><ele>294.0</ele><time>2026-05-04T14:59:23.054Z</time></trkpt><trkpt lat="41.6994873" lon="13.6507965"><ele>294.0</ele><time>2026-05-04T14:59:24.055Z</time></trkpt><trkpt lat="41.6995855" lon="13.6504839"><ele>294.0</ele><time>2026-05-04T14:59:25.055Z</time></trkpt><trkpt lat="41.6997025" lon="13.6501603"><ele>294.0</ele><time>2026-05-04T14:59:26.055Z</time></trkpt><trkpt lat="41.6997902" lon="13.6498835"><ele>294.0</ele><time>2026-05-04T14:59:27.054Z</time></trkpt><trkpt lat="41.6998541" lon="13.6495998"><ele>294.0</ele><time>2026-05-04T14:59:28.055Z</time></trkpt><trkpt lat="41.6998868" lon="13.6493226"><ele>294.3333333333333</ele><time>2026-05-04T14:59:29.055Z</time></trkpt><trkpt lat="41.6998914" lon="13.6490685"><ele>294.66666666666663</ele><time>2026-05-04T14:59:30.055Z</time></trkpt><trkpt lat="41.6998503" lon="13.6488134"><ele>295.0</ele><time>2026-05-04T14:59:31.055Z</time></trkpt><trkpt lat="41.6998117" lon="13.6485787"><ele>295.25</ele><time>2026-05-04T14:59:32.055Z</time></trkpt><trkpt lat="41.6997762" lon="13.6483767"><ele>295.5</ele><time>2026-05-04T14:59:33.055Z</time></trkpt><trkpt lat="41.6997633" lon="13.6481975"><ele>295.75</ele><time>2026-05-04T14:59:34.055Z</time></trkpt><trkpt lat="41.6997568" lon="13.6480569"><ele>296.0</ele><time>2026-05-04T14:59:35.055Z</time></trkpt><trkpt lat="41.6997564" lon="13.6479622"><ele>296.75</ele><time>2026-05-04T14:59:36.055Z</time></trkpt><trkpt lat="41.6997948" lon="13.6477835"><ele>297.5</ele><time>2026-05-04T14:59:39.055Z</time></trkpt><trkpt lat="41.6998187" lon="13.6476151"><ele>298.25</ele><time>2026-05-04T14:59:40.054Z</time></trkpt><trkpt lat="41.6998604" lon="13.6474085"><ele>299.0</ele><time>2026-05-04T14:59:41.054Z</time></trkpt><trkpt lat="41.699902" lon="13.6471651"><ele>299.5</ele><time>2026-05-04T14:59:42.054Z</time></trkpt><trkpt lat="41.6999567" lon="13.6468734"><ele>300.0</ele><time>2026-05-04T14:59:43.055Z</time></trkpt><trkpt lat="41.7000119" lon="13.6465653"><ele>300.0</ele><time>2026-05-04T14:59:44.054Z</time></trkpt><trkpt lat="41.7000645" lon="13.6462743"><ele>300.0</ele><time>2026-05-04T14:59:45.054Z</time></trkpt><trkpt lat="41.7001183" lon="13.6460135"><ele>300.0</ele><time>2026-05-04T14:59:46.055Z</time></trkpt><trkpt lat="41.7001962" lon="13.6457683"><ele>301.0</ele><time>2026-05-04T14:59:47.054Z</time></trkpt><trkpt lat="41.7003024" lon="13.6455483"><ele>302.0</ele><time>2026-05-04T14:59:48.054Z</time></trkpt><trkpt lat="41.7004132" lon="13.6453582"><ele>303.0</ele><time>2026-05-04T14:59:49.055Z</time></trkpt><trkpt lat="41.7005125" lon="13.6451976"><ele>303.0</ele><time>2026-05-04T14:59:50.054Z</time></trkpt><trkpt lat="41.7006071" lon="13.6450427"><ele>303.0</ele><time>2026-05-04T14:59:51.055Z</time></trkpt><trkpt lat="41.7007096" lon="13.6448853"><ele>303.0</ele><time>2026-05-04T14:59:52.055Z</time></trkpt><trkpt lat="41.7008237" lon="13.6447161"><ele>303.0</ele><time>2026-05-04T14:59:53.054Z</time></trkpt><trkpt lat="41.7009535" lon="13.644532"><ele>303.0</ele><time>2026-05-04T14:59:54.055Z</time></trkpt><trkpt lat="41.7010846" lon="13.6443564"><ele>303.0</ele><time>2026-05-04T14:59:55.055Z</time></trkpt><trkpt lat="41.7012116" lon="13.6441906"><ele>304.3333333333333</ele><time>2026-05-04T14:59:56.054Z</time></trkpt><trkpt lat="41.7013321" lon="13.6440214"><ele>305.66666666666663</ele><time>2026-05-04T14:59:57.054Z</time></trkpt><trkpt lat="41.7014454" lon="13.6438555"><ele>307.0</ele><time>2026-05-04T14:59:58.055Z</time></trkpt><trkpt lat="41.7015362" lon="13.6437078"><ele>306.5</ele><time>2026-05-04T14:59:59.054Z</time></trkpt><trkpt lat="41.7016098" lon="13.6435898"><ele>306.0</ele><time>2026-05-04T15:00:00.054Z</time></trkpt><trkpt lat="41.7016766" lon="13.6434636"><ele>305.5</ele><time>2026-05-04T15:00:01.055Z</time></trkpt><trkpt lat="41.7017411" lon="13.6433337"><ele>305.0</ele><time>2026-05-04T15:00:02.054Z</time></trkpt><trkpt lat="41.7018075" lon="13.6432068"><ele>305.0</ele><time>2026-05-04T15:00:03.054Z</time></trkpt><trkpt lat="41.7018699" lon="13.6430789"><ele>305.0</ele><time>2026-05-04T15:00:04.055Z</time></trkpt><trkpt lat="41.7019295" lon="13.6429491"><ele>305.0</ele><time>2026-05-04T15:00:05.054Z</time></trkpt><trkpt lat="41.7019975" lon="13.6428096"><ele>305.0</ele><time>2026-05-04T15:00:06.054Z</time></trkpt><trkpt lat="41.7020608" lon="13.6426646"><ele>304.75</ele><time>2026-05-04T15:00:07.054Z</time></trkpt><trkpt lat="41.7021091" lon="13.6425111"><ele>304.5</ele><time>2026-05-04T15:00:08.054Z</time></trkpt><trkpt lat="41.7021384" lon="13.6423352"><ele>304.25</ele><time>2026-05-04T15:00:09.054Z</time></trkpt><trkpt lat="41.7021556" lon="13.6421178"><ele>304.0</ele><time>2026-05-04T15:00:10.054Z</time></trkpt><trkpt lat="41.7021726" lon="13.6418441"><ele>304.0</ele><time>2026-05-04T15:00:11.054Z</time></trkpt><trkpt lat="41.7022007" lon="13.641532"><ele>304.0</ele><time>2026-05-04T15:00:12.054Z</time></trkpt><trkpt lat="41.7022281" lon="13.6411806"><ele>305.0</ele><time>2026-05-04T15:00:13.055Z</time></trkpt><trkpt lat="41.7022592" lon="13.6408055"><ele>306.0</ele><time>2026-05-04T15:00:14.055Z</time></trkpt><trkpt lat="41.7022898" lon="13.6404111"><ele>306.5</ele><time>2026-05-04T15:00:15.054Z</time></trkpt><trkpt lat="41.7023187" lon="13.6400357"><ele>307.0</ele><time>2026-05-04T15:00:16.054Z</time></trkpt><trkpt lat="41.7023534" lon="13.6396948"><ele>308.0</ele><time>2026-05-04T15:00:17.055Z</time></trkpt><trkpt lat="41.7024054" lon="13.6393755"><ele>309.0</ele><time>2026-05-04T15:00:18.054Z</time></trkpt><trkpt lat="41.7024705" lon="13.6390638"><ele>309.0</ele><time>2026-05-04T15:00:19.054Z</time></trkpt><trkpt lat="41.7025394" lon="13.6387638"><ele>309.0</ele><time>2026-05-04T15:00:20.054Z</time></trkpt><trkpt lat="41.7026063" lon="13.6384767"><ele>308.6666666666667</ele><time>2026-05-04T15:00:21.055Z</time></trkpt><trkpt lat="41.7026626" lon="13.638206"><ele>308.33333333333337</ele><time>2026-05-04T15:00:22.054Z</time></trkpt><trkpt lat="41.7027162" lon="13.6379577"><ele>308.0</ele><time>2026-05-04T15:00:23.054Z</time></trkpt><trkpt lat="41.7027615" lon="13.6377278"><ele>309.0</ele><time>2026-05-04T15:00:24.054Z</time></trkpt><trkpt lat="41.7028118" lon="13.6375175"><ele>310.0</ele><time>2026-05-04T15:00:25.054Z</time></trkpt><trkpt lat="41.7028554" lon="13.6373186"><ele>311.0</ele><time>2026-05-04T15:00:26.055Z</time></trkpt><trkpt lat="41.7028985" lon="13.6371431"><ele>311.0</ele><time>2026-05-04T15:00:27.054Z</time></trkpt><trkpt lat="41.7029397" lon="13.6369784"><ele>311.0</ele><time>2026-05-04T15:00:28.055Z</time></trkpt><trkpt lat="41.7029856" lon="13.6368348"><ele>311.0</ele><time>2026-05-04T15:00:29.054Z</time></trkpt><trkpt lat="41.7030265" lon="13.6366931"><ele>311.0</ele><time>2026-05-04T15:00:30.055Z</time></trkpt><trkpt lat="41.7030735" lon="13.6365613"><ele>310.8</ele><time>2026-05-04T15:00:31.055Z</time></trkpt><trkpt lat="41.7031383" lon="13.6364422"><ele>310.6</ele><time>2026-05-04T15:00:32.055Z</time></trkpt><trkpt lat="41.7032168" lon="13.6363266"><ele>310.4</ele><time>2026-05-04T15:00:33.054Z</time></trkpt><trkpt lat="41.7033004" lon="13.6362238"><ele>310.2</ele><time>2026-05-04T15:00:34.055Z</time></trkpt><trkpt lat="41.7033843" lon="13.6361299"><ele>310.0</ele><time>2026-05-04T15:00:35.055Z</time></trkpt><trkpt lat="41.7034619" lon="13.6360363"><ele>310.0</ele><time>2026-05-04T15:00:36.055Z</time></trkpt><trkpt lat="41.7035343" lon="13.6359429"><ele>310.0</ele><time>2026-05-04T15:00:37.054Z</time></trkpt><trkpt lat="41.703604" lon="13.6358458"><ele>310.0</ele><time>2026-05-04T15:00:38.055Z</time></trkpt><trkpt lat="41.703673" lon="13.6357352"><ele>310.0</ele><time>2026-05-04T15:00:39.054Z</time></trkpt><trkpt lat="41.7037361" lon="13.635588"><ele>310.0</ele><time>2026-05-04T15:00:40.055Z</time></trkpt><trkpt lat="41.7038036" lon="13.6354166"><ele>310.25</ele><time>2026-05-04T15:00:41.054Z</time></trkpt><trkpt lat="41.7038786" lon="13.6352439"><ele>310.5</ele><time>2026-05-04T15:00:42.054Z</time></trkpt><trkpt lat="41.7039501" lon="13.6350755"><ele>310.75</ele><time>2026-05-04T15:00:43.055Z</time></trkpt><trkpt lat="41.7040218" lon="13.6349103"><ele>311.0</ele><time>2026-05-04T15:00:44.054Z</time></trkpt><trkpt lat="41.7040907" lon="13.6347452"><ele>311.0</ele><time>2026-05-04T15:00:45.054Z</time></trkpt><trkpt lat="41.7041588" lon="13.6345811"><ele>311.0</ele><time>2026-05-04T15:00:46.055Z</time></trkpt><trkpt lat="41.7042248" lon="13.6344109"><ele>311.0</ele><time>2026-05-04T15:00:47.055Z</time></trkpt><trkpt lat="41.7042974" lon="13.6342163"><ele>311.0</ele><time>2026-05-04T15:00:48.055Z</time></trkpt><trkpt lat="41.704384" lon="13.6339874"><ele>313.5</ele><time>2026-05-04T15:00:49.054Z</time></trkpt><trkpt lat="41.704488" lon="13.6337214"><ele>316.0</ele><time>2026-05-04T15:00:50.054Z</time></trkpt><trkpt lat="41.7046012" lon="13.6334249"><ele>316.0</ele><time>2026-05-04T15:00:51.054Z</time></trkpt><trkpt lat="41.704705" lon="13.6331093"><ele>316.0</ele><time>2026-05-04T15:00:52.055Z</time></trkpt><trkpt lat="41.7047986" lon="13.6328186"><ele>315.3333333333333</ele><time>2026-05-04T15:00:53.054Z</time></trkpt><trkpt lat="41.704876" lon="13.6325513"><ele>314.6666666666667</ele><time>2026-05-04T15:00:54.054Z</time></trkpt><trkpt lat="41.7049497" lon="13.6323184"><ele>314.0</ele><time>2026-05-04T15:00:55.054Z</time></trkpt><trkpt lat="41.7050315" lon="13.6321111"><ele>313.5</ele><time>2026-05-04T15:00:56.054Z</time></trkpt><trkpt lat="41.7051125" lon="13.631936"><ele>313.0</ele><time>2026-05-04T15:00:57.054Z</time></trkpt><trkpt lat="41.7051955" lon="13.6317843"><ele>312.5</ele><time>2026-05-04T15:00:58.055Z</time></trkpt><trkpt lat="41.7052852" lon="13.6316476"><ele>312.0</ele><time>2026-05-04T15:00:59.055Z</time></trkpt><trkpt lat="41.7053763" lon="13.6315171"><ele>312.0</ele><time>2026-05-04T15:01:00.055Z</time></trkpt><trkpt lat="41.7054689" lon="13.6314175"><ele>312.0</ele><time>2026-05-04T15:01:01.055Z</time></trkpt><trkpt lat="41.705561" lon="13.6313315"><ele>312.0</ele><time>2026-05-04T15:01:02.055Z</time></trkpt><trkpt lat="41.7056506" lon="13.6312393"><ele>312.0</ele><time>2026-05-04T15:01:03.055Z</time></trkpt><trkpt lat="41.7057496" lon="13.6311309"><ele>312.0</ele><time>2026-05-04T15:01:04.055Z</time></trkpt><trkpt lat="41.7058527" lon="13.6310147"><ele>312.0</ele><time>2026-05-04T15:01:05.054Z</time></trkpt><trkpt lat="41.7059688" lon="13.6308717"><ele>312.0</ele><time>2026-05-04T15:01:06.055Z</time></trkpt><trkpt lat="41.7061166" lon="13.630715"><ele>313.0</ele><time>2026-05-04T15:01:07.054Z</time></trkpt><trkpt lat="41.7063023" lon="13.6305396"><ele>314.0</ele><time>2026-05-04T15:01:08.054Z</time></trkpt><trkpt lat="41.7064894" lon="13.6303399"><ele>312.5</ele><time>2026-05-04T15:01:09.054Z</time></trkpt><trkpt lat="41.7066633" lon="13.6301109"><ele>311.0</ele><time>2026-05-04T15:01:10.055Z</time></trkpt><trkpt lat="41.7068158" lon="13.6298421"><ele>314.0</ele><time>2026-05-04T15:01:11.055Z</time></trkpt><trkpt lat="41.7069427" lon="13.6295677"><ele>317.0</ele><time>2026-05-04T15:01:12.055Z</time></trkpt><trkpt lat="41.7070539" lon="13.6293083"><ele>317.0</ele><time>2026-05-04T15:01:13.055Z</time></trkpt><trkpt lat="41.7071552" lon="13.6290929"><ele>317.0</ele><time>2026-05-04T15:01:14.055Z</time></trkpt><trkpt lat="41.7072484" lon="13.6289093"><ele>317.0</ele><time>2026-05-04T15:01:15.055Z</time></trkpt><trkpt lat="41.7073351" lon="13.6287483"><ele>316.5</ele><time>2026-05-04T15:01:16.055Z</time></trkpt><trkpt lat="41.7074153" lon="13.6286056"><ele>316.0</ele><time>2026-05-04T15:01:17.054Z</time></trkpt><trkpt lat="41.7074879" lon="13.6284913"><ele>315.5</ele><time>2026-05-04T15:01:18.055Z</time></trkpt><trkpt lat="41.7075499" lon="13.6283767"><ele>315.0</ele><time>2026-05-04T15:01:19.055Z</time></trkpt><trkpt lat="41.7076229" lon="13.6282641"><ele>315.0</ele><time>2026-05-04T15:01:20.055Z</time></trkpt><trkpt lat="41.7077202" lon="13.6281407"><ele>315.0</ele><time>2026-05-04T15:01:21.054Z</time></trkpt><trkpt lat="41.7078634" lon="13.6279893"><ele>315.0</ele><time>2026-05-04T15:01:22.054Z</time></trkpt><trkpt lat="41.7080354" lon="13.6278259"><ele>314.6666666666667</ele><time>2026-05-04T15:01:23.055Z</time></trkpt><trkpt lat="41.7082102" lon="13.6276464"><ele>314.33333333333337</ele><time>2026-05-04T15:01:24.054Z</time></trkpt><trkpt lat="41.7083735" lon="13.6274711"><ele>314.0</ele><time>2026-05-04T15:01:25.054Z</time></trkpt><trkpt lat="41.7085148" lon="13.6273037"><ele>313.33333333333337</ele><time>2026-05-04T15:01:26.055Z</time></trkpt><trkpt lat="41.7086349" lon="13.6271462"><ele>312.6666666666667</ele><time>2026-05-04T15:01:27.054Z</time></trkpt><trkpt lat="41.7087376" lon="13.627002"><ele>312.0</ele><time>2026-05-04T15:01:28.054Z</time></trkpt><trkpt lat="41.7088325" lon="13.6268761"><ele>310.6666666666667</ele><time>2026-05-04T15:01:29.055Z</time></trkpt><trkpt lat="41.7089264" lon="13.6267521"><ele>309.33333333333337</ele><time>2026-05-04T15:01:30.054Z</time></trkpt><trkpt lat="41.7090385" lon="13.6266243"><ele>308.0</ele><time>2026-05-04T15:01:31.055Z</time></trkpt><trkpt lat="41.709179" lon="13.6264897"><ele>308.0</ele><time>2026-05-04T15:01:32.054Z</time></trkpt><trkpt lat="41.709355" lon="13.6263505"><ele>308.0</ele><time>2026-05-04T15:01:33.055Z</time></trkpt><trkpt lat="41.7095533" lon="13.6262167"><ele>308.0</ele><time>2026-05-04T15:01:34.055Z</time></trkpt><trkpt lat="41.7097451" lon="13.6260938"><ele>306.33333333333337</ele><time>2026-05-04T15:01:35.054Z</time></trkpt><trkpt lat="41.7099261" lon="13.625981"><ele>304.6666666666667</ele><time>2026-05-04T15:01:36.055Z</time></trkpt><trkpt lat="41.7101083" lon="13.6259101"><ele>303.0</ele><time>2026-05-04T15:01:37.054Z</time></trkpt><trkpt lat="41.7102905" lon="13.6258664"><ele>303.0</ele><time>2026-05-04T15:01:38.055Z</time></trkpt><trkpt lat="41.7104749" lon="13.6258267"><ele>303.0</ele><time>2026-05-04T15:01:39.055Z</time></trkpt><trkpt lat="41.7106492" lon="13.625797"><ele>303.0</ele><time>2026-05-04T15:01:40.055Z</time></trkpt><trkpt lat="41.7108134" lon="13.6257642"><ele>303.0</ele><time>2026-05-04T15:01:41.055Z</time></trkpt><trkpt lat="41.7109684" lon="13.6257283"><ele>303.0</ele><time>2026-05-04T15:01:42.055Z</time></trkpt><trkpt lat="41.7111161" lon="13.6256961"><ele>303.0</ele><time>2026-05-04T15:01:43.054Z</time></trkpt><trkpt lat="41.7112596" lon="13.6256407"><ele>301.3333333333333</ele><time>2026-05-04T15:01:44.054Z</time></trkpt><trkpt lat="41.7114102" lon="13.6255652"><ele>299.66666666666663</ele><time>2026-05-04T15:01:45.054Z</time></trkpt><trkpt lat="41.7115879" lon="13.625478"><ele>298.0</ele><time>2026-05-04T15:01:46.055Z</time></trkpt><trkpt lat="41.7117731" lon="13.6253939"><ele>296.0</ele><time>2026-05-04T15:01:47.054Z</time></trkpt><trkpt lat="41.7119546" lon="13.6253164"><ele>294.0</ele><time>2026-05-04T15:01:48.055Z</time></trkpt><trkpt lat="41.7121223" lon="13.6252459"><ele>292.0</ele><time>2026-05-04T15:01:49.054Z</time></trkpt><trkpt lat="41.7122693" lon="13.6251677"><ele>292.0</ele><time>2026-05-04T15:01:50.054Z</time></trkpt><trkpt lat="41.7124087" lon="13.6250865"><ele>292.0</ele><time>2026-05-04T15:01:51.054Z</time></trkpt><trkpt lat="41.7125402" lon="13.6249797"><ele>292.0</ele><time>2026-05-04T15:01:52.054Z</time></trkpt><trkpt lat="41.7126679" lon="13.6248509"><ele>291.3333333333333</ele><time>2026-05-04T15:01:53.054Z</time></trkpt><trkpt lat="41.7128008" lon="13.6246786"><ele>290.6666666666667</ele><time>2026-05-04T15:01:54.054Z</time></trkpt><trkpt lat="41.7129501" lon="13.6244917"><ele>290.0</ele><time>2026-05-04T15:01:55.055Z</time></trkpt><trkpt lat="41.7131224" lon="13.6243058"><ele>290.0</ele><time>2026-05-04T15:01:56.055Z</time></trkpt><trkpt lat="41.7132888" lon="13.6241406"><ele>290.0</ele><time>2026-05-04T15:01:57.054Z</time></trkpt><trkpt lat="41.7134384" lon="13.6239904"><ele>290.0</ele><time>2026-05-04T15:01:58.054Z</time></trkpt><trkpt lat="41.7135686" lon="13.6238598"><ele>289.8</ele><time>2026-05-04T15:01:59.055Z</time></trkpt><trkpt lat="41.7136757" lon="13.6237536"><ele>289.6</ele><time>2026-05-04T15:02:00.055Z</time></trkpt><trkpt lat="41.7137595" lon="13.623666"><ele>289.4</ele><time>2026-05-04T15:02:01.054Z</time></trkpt><trkpt lat="41.713834" lon="13.6235797"><ele>289.2</ele><time>2026-05-04T15:02:02.054Z</time></trkpt><trkpt lat="41.7139135" lon="13.6234953"><ele>289.0</ele><time>2026-05-04T15:02:03.055Z</time></trkpt><trkpt lat="41.7139951" lon="13.6234063"><ele>289.0</ele><time>2026-05-04T15:02:04.054Z</time></trkpt><trkpt lat="41.714076" lon="13.6233153"><ele>289.0</ele><time>2026-05-04T15:02:05.055Z</time></trkpt><trkpt lat="41.7141673" lon="13.6232018"><ele>289.0</ele><time>2026-05-04T15:02:06.055Z</time></trkpt><trkpt lat="41.7142893" lon="13.6230679"><ele>289.0</ele><time>2026-05-04T15:02:07.055Z</time></trkpt><trkpt lat="41.7144379" lon="13.6229244"><ele>289.0</ele><time>2026-05-04T15:02:08.054Z</time></trkpt><trkpt lat="41.7145999" lon="13.6227699"><ele>289.0</ele><time>2026-05-04T15:02:09.055Z</time></trkpt><trkpt lat="41.7147656" lon="13.6226212"><ele>289.0</ele><time>2026-05-04T15:02:10.054Z</time></trkpt><trkpt lat="41.7149241" lon="13.6224855"><ele>289.0</ele><time>2026-05-04T15:02:11.055Z</time></trkpt><trkpt lat="41.7150587" lon="13.6223728"><ele>289.0</ele><time>2026-05-04T15:02:12.055Z</time></trkpt><trkpt lat="41.7151782" lon="13.622272"><ele>289.0</ele><time>2026-05-04T15:02:13.054Z</time></trkpt><trkpt lat="41.7153023" lon="13.6221629"><ele>289.0</ele><time>2026-05-04T15:02:14.055Z</time></trkpt><trkpt lat="41.7154318" lon="13.6220442"><ele>289.0</ele><time>2026-05-04T15:02:15.054Z</time></trkpt><trkpt lat="41.7155939" lon="13.6218903"><ele>289.0</ele><time>2026-05-04T15:02:16.055Z</time></trkpt><trkpt lat="41.7157549" lon="13.621725"><ele>289.0</ele><time>2026-05-04T15:02:17.055Z</time></trkpt><trkpt lat="41.7159166" lon="13.6215784"><ele>289.0</ele><time>2026-05-04T15:02:18.054Z</time></trkpt><trkpt lat="41.7160512" lon="13.6214455"><ele>289.0</ele><time>2026-05-04T15:02:19.055Z</time></trkpt><trkpt lat="41.7161725" lon="13.6213346"><ele>289.0</ele><time>2026-05-04T15:02:20.055Z</time></trkpt><trkpt lat="41.7162913" lon="13.6212259"><ele>288.66666666666663</ele><time>2026-05-04T15:02:21.054Z</time></trkpt><trkpt lat="41.7164237" lon="13.6211153"><ele>288.3333333333333</ele><time>2026-05-04T15:02:22.055Z</time></trkpt><trkpt lat="41.716555" lon="13.6210021"><ele>288.0</ele><time>2026-05-04T15:02:23.054Z</time></trkpt><trkpt lat="41.7166892" lon="13.6208825"><ele>288.0</ele><time>2026-05-04T15:02:24.055Z</time></trkpt><trkpt lat="41.7168172" lon="13.6207608"><ele>288.0</ele><time>2026-05-04T15:02:25.054Z</time></trkpt><trkpt lat="41.7169318" lon="13.6206434"><ele>288.0</ele><time>2026-05-04T15:02:26.054Z</time></trkpt><trkpt lat="41.7170291" lon="13.6205433"><ele>288.0</ele><time>2026-05-04T15:02:27.055Z</time></trkpt><trkpt lat="41.7171242" lon="13.6204475"><ele>287.25</ele><time>2026-05-04T15:02:28.055Z</time></trkpt><trkpt lat="41.7172253" lon="13.6203412"><ele>286.5</ele><time>2026-05-04T15:02:29.055Z</time></trkpt><trkpt lat="41.7173358" lon="13.620237"><ele>285.75</ele><time>2026-05-04T15:02:30.054Z</time></trkpt><trkpt lat="41.7174577" lon="13.6201305"><ele>285.0</ele><time>2026-05-04T15:02:31.055Z</time></trkpt><trkpt lat="41.7175741" lon="13.6200286"><ele>285.0</ele><time>2026-05-04T15:02:32.055Z</time></trkpt><trkpt lat="41.7176834" lon="13.6199277"><ele>285.0</ele><time>2026-05-04T15:02:33.054Z</time></trkpt><trkpt lat="41.7177942" lon="13.6198286"><ele>285.0</ele><time>2026-05-04T15:02:34.054Z</time></trkpt><trkpt lat="41.7178994" lon="13.6197262"><ele>285.0</ele><time>2026-05-04T15:02:35.055Z</time></trkpt><trkpt lat="41.7179961" lon="13.6196235"><ele>285.0</ele><time>2026-05-04T15:02:36.055Z</time></trkpt><trkpt lat="41.7180799" lon="13.6195372"><ele>285.0</ele><time>2026-05-04T15:02:37.054Z</time></trkpt><trkpt lat="41.7181542" lon="13.6194671"><ele>285.0</ele><time>2026-05-04T15:02:38.055Z</time></trkpt><trkpt lat="41.7182172" lon="13.619401"><ele>285.0</ele><time>2026-05-04T15:02:39.053Z</time></trkpt><trkpt lat="41.7182745" lon="13.6193398"><ele>285.0</ele><time>2026-05-04T15:02:40.053Z</time></trkpt><trkpt lat="41.7183298" lon="13.6192831"><ele>285.0</ele><time>2026-05-04T15:02:41.053Z</time></trkpt><trkpt lat="41.7183875" lon="13.6192362"><ele>285.4</ele><time>2026-05-04T15:02:42.054Z</time></trkpt><trkpt lat="41.7184756" lon="13.6191587"><ele>285.8</ele><time>2026-05-04T15:02:44.054Z</time></trkpt><trkpt lat="41.7185272" lon="13.619093"><ele>286.2</ele><time>2026-05-04T15:02:46.054Z</time></trkpt><trkpt lat="41.7184857" lon="13.6189846"><ele>286.6</ele><time>2026-05-04T15:02:48.053Z</time></trkpt><trkpt lat="41.7184258" lon="13.6188952"><ele>287.0</ele><time>2026-05-04T15:02:49.053Z</time></trkpt><trkpt lat="41.7183541" lon="13.6187667"><ele>287.0</ele><time>2026-05-04T15:02:50.054Z</time></trkpt><trkpt lat="41.7182858" lon="13.6186425"><ele>287.0</ele><time>2026-05-04T15:02:51.054Z</time></trkpt><trkpt lat="41.7182151" lon="13.6185481"><ele>287.0</ele><time>2026-05-04T15:02:52.054Z</time></trkpt><trkpt lat="41.7181555" lon="13.6184504"><ele>287.0</ele><time>2026-05-04T15:02:53.053Z</time></trkpt><trkpt lat="41.7180919" lon="13.618364"><ele>287.0</ele><time>2026-05-04T15:02:54.054Z</time></trkpt><trkpt lat="41.7180284" lon="13.6182679"><ele>287.0</ele><time>2026-05-04T15:02:55.053Z</time></trkpt><trkpt lat="41.7179576" lon="13.6181556"><ele>287.0</ele><time>2026-05-04T15:02:56.054Z</time></trkpt><trkpt lat="41.7178878" lon="13.6180342"><ele>287.0</ele><time>2026-05-04T15:02:57.053Z</time></trkpt><trkpt lat="41.717816" lon="13.6179395"><ele>287.0</ele><time>2026-05-04T15:02:58.053Z</time></trkpt><trkpt lat="41.717767" lon="13.6178646"><ele>287.0</ele><time>2026-05-04T15:02:59.053Z</time></trkpt><trkpt lat="41.717717" lon="13.6178038"><ele>287.1666666666667</ele><time>2026-05-04T15:03:00.054Z</time></trkpt><trkpt lat="41.71766" lon="13.6177347"><ele>287.33333333333337</ele><time>2026-05-04T15:03:03.053Z</time></trkpt><trkpt lat="41.7177031" lon="13.6176358"><ele>287.5</ele><time>2026-05-04T15:03:07.054Z</time></trkpt><trkpt lat="41.7177748" lon="13.6175649"><ele>287.6666666666667</ele><time>2026-05-04T15:03:10.054Z</time></trkpt><trkpt lat="41.717832" lon="13.6174812"><ele>287.8333333333333</ele><time>2026-05-04T15:03:12.053Z</time></trkpt><trkpt lat="41.7178979" lon="13.6173907"><ele>288.0</ele><time>2026-05-04T15:03:14.053Z</time></trkpt><trkpt lat="41.7179786" lon="13.6172936"><ele>287.6666666666667</ele><time>2026-05-04T15:03:16.053Z</time></trkpt><trkpt lat="41.7180468" lon="13.6172033"><ele>287.3333333333333</ele><time>2026-05-04T15:03:18.053Z</time></trkpt><trkpt lat="41.7180988" lon="13.6171205"><ele>287.0</ele><time>2026-05-04T15:03:21.054Z</time></trkpt><trkpt lat="41.7181673" lon="13.61703"><ele>286.66666666666663</ele><time>2026-05-04T15:03:30.053Z</time></trkpt><trkpt lat="41.7182219" lon="13.6169639"><ele>286.3333333333333</ele><time>2026-05-04T15:03:31.053Z</time></trkpt><trkpt lat="41.7182926" lon="13.6168667"><ele>286.0</ele><time>2026-05-04T15:03:32.053Z</time></trkpt><trkpt lat="41.7183787" lon="13.6167544"><ele>286.0</ele><time>2026-05-04T15:03:33.053Z</time></trkpt><trkpt lat="41.7184594" lon="13.616644"><ele>286.0</ele><time>2026-05-04T15:03:34.054Z</time></trkpt><trkpt lat="41.7185333" lon="13.6165579"><ele>286.0</ele><time>2026-05-04T15:03:35.053Z</time></trkpt><trkpt lat="41.7185921" lon="13.6164879"><ele>286.0</ele><time>2026-05-04T15:03:36.053Z</time></trkpt><trkpt lat="41.7186561" lon="13.6163711"><ele>286.0</ele><time>2026-05-04T15:03:38.053Z</time></trkpt><trkpt lat="41.7187395" lon="13.6162876"><ele>286.0</ele><time>2026-05-04T15:03:44.054Z</time></trkpt><trkpt lat="41.718804" lon="13.616201"><ele>286.0</ele><time>2026-05-04T15:03:45.053Z</time></trkpt><trkpt lat="41.7189131" lon="13.6160854"><ele>286.0</ele><time>2026-05-04T15:03:46.053Z</time></trkpt><trkpt lat="41.7190198" lon="13.6159554"><ele>286.0</ele><time>2026-05-04T15:03:47.053Z</time></trkpt><trkpt lat="41.7191136" lon="13.6158393"><ele>286.0</ele><time>2026-05-04T15:03:48.054Z</time></trkpt><trkpt lat="41.7191994" lon="13.615732"><ele>286.0</ele><time>2026-05-04T15:03:49.053Z</time></trkpt><trkpt lat="41.719282" lon="13.6156311"><ele>286.0</ele><time>2026-05-04T15:03:50.053Z</time></trkpt><trkpt lat="41.7193554" lon="13.6155364"><ele>286.0</ele><time>2026-05-04T15:03:51.053Z</time></trkpt><trkpt lat="41.7194183" lon="13.6154618"><ele>286.0</ele><time>2026-05-04T15:03:52.054Z</time></trkpt><trkpt lat="41.7195019" lon="13.615374"><ele>286.0</ele><time>2026-05-04T15:03:54.054Z</time></trkpt><trkpt lat="41.7195077" lon="13.6152866"><ele>286.0</ele><time>2026-05-04T15:04:01.054Z</time></trkpt><trkpt lat="41.7194224" lon="13.6151589"><ele>286.0</ele><time>2026-05-04T15:04:03.053Z</time></trkpt><trkpt lat="41.7193562" lon="13.6150825"><ele>286.0</ele><time>2026-05-04T15:04:04.054Z</time></trkpt><trkpt lat="41.7192897" lon="13.6150027"><ele>286.0</ele><time>2026-05-04T15:04:05.054Z</time></trkpt><trkpt lat="41.7192299" lon="13.6149245"><ele>285.6</ele><time>2026-05-04T15:04:06.053Z</time></trkpt><trkpt lat="41.7191666" lon="13.6148374"><ele>285.20000000000005</ele><time>2026-05-04T15:04:07.054Z</time></trkpt><trkpt lat="41.7191088" lon="13.6147642"><ele>284.79999999999995</ele><time>2026-05-04T15:04:08.053Z</time></trkpt><trkpt lat="41.7190579" lon="13.6147055"><ele>284.4</ele><time>2026-05-04T15:04:09.053Z</time></trkpt><trkpt lat="41.7189531" lon="13.6145791"><ele>284.0</ele><time>2026-05-04T15:04:11.053Z</time></trkpt><trkpt lat="41.7188785" lon="13.6144733"><ele>283.75</ele><time>2026-05-04T15:04:12.054Z</time></trkpt><trkpt lat="41.7187704" lon="13.6143404"><ele>283.5</ele><time>2026-05-04T15:04:13.054Z</time></trkpt><trkpt lat="41.7186681" lon="13.6142082"><ele>283.25</ele><time>2026-05-04T15:04:14.054Z</time></trkpt><trkpt lat="41.7185803" lon="13.6140987"><ele>283.0</ele><time>2026-05-04T15:04:15.053Z</time></trkpt><trkpt lat="41.7185045" lon="13.6139903"><ele>283.0</ele><time>2026-05-04T15:04:16.054Z</time></trkpt><trkpt lat="41.7184363" lon="13.6138728"><ele>283.0</ele><time>2026-05-04T15:04:17.054Z</time></trkpt><trkpt lat="41.7183779" lon="13.6137525"><ele>283.0</ele><time>2026-05-04T15:04:18.053Z</time></trkpt><trkpt lat="41.7183259" lon="13.6136254"><ele>283.0</ele><time>2026-05-04T15:04:19.054Z</time></trkpt><trkpt lat="41.718292" lon="13.6134903"><ele>283.0</ele><time>2026-05-04T15:04:20.053Z</time></trkpt><trkpt lat="41.7182788" lon="13.6133636"><ele>283.0</ele><time>2026-05-04T15:04:21.053Z</time></trkpt><trkpt lat="41.7182773" lon="13.6132533"><ele>283.0</ele><time>2026-05-04T15:04:22.054Z</time></trkpt><trkpt lat="41.7182892" lon="13.6131383"><ele>283.0</ele><time>2026-05-04T15:04:23.054Z</time></trkpt><trkpt lat="41.7183017" lon="13.6130127"><ele>283.0</ele><time>2026-05-04T15:04:24.054Z</time></trkpt><trkpt lat="41.7183223" lon="13.6128996"><ele>283.0</ele><time>2026-05-04T15:04:25.053Z</time></trkpt><trkpt lat="41.7183482" lon="13.6128125"><ele>283.0</ele><time>2026-05-04T15:04:26.054Z</time></trkpt><trkpt lat="41.7183924" lon="13.6126617"><ele>282.8</ele><time>2026-05-04T15:04:28.054Z</time></trkpt><trkpt lat="41.7184442" lon="13.6125303"><ele>282.6</ele><time>2026-05-04T15:04:30.053Z</time></trkpt><trkpt lat="41.7185234" lon="13.6123894"><ele>282.4</ele><time>2026-05-04T15:04:32.054Z</time></trkpt><trkpt lat="41.7185723" lon="13.6123148"><ele>282.2</ele><time>2026-05-04T15:04:33.054Z</time></trkpt><trkpt lat="41.7186129" lon="13.6122376"><ele>282.0</ele><time>2026-05-04T15:04:34.054Z</time></trkpt><trkpt lat="41.7186525" lon="13.6121672"><ele>282.4</ele><time>2026-05-04T15:04:35.053Z</time></trkpt><trkpt lat="41.7187184" lon="13.6120517"><ele>282.79999999999995</ele><time>2026-05-04T15:04:37.054Z</time></trkpt><trkpt lat="41.7187665" lon="13.6119453"><ele>283.2</ele><time>2026-05-04T15:04:39.054Z</time></trkpt><trkpt lat="41.718825" lon="13.611809"><ele>283.59999999999997</ele><time>2026-05-04T15:04:41.054Z</time></trkpt><trkpt lat="41.7188647" lon="13.611725"><ele>284.0</ele><time>2026-05-04T15:04:42.054Z</time></trkpt><trkpt lat="41.7189056" lon="13.6116466"><ele>284.4</ele><time>2026-05-04T15:04:43.053Z</time></trkpt><trkpt lat="41.7189716" lon="13.6115214"><ele>284.79999999999995</ele><time>2026-05-04T15:04:45.054Z</time></trkpt><trkpt lat="41.7190284" lon="13.6114211"><ele>285.20000000000005</ele><time>2026-05-04T15:04:47.054Z</time></trkpt><trkpt lat="41.7190799" lon="13.6113371"><ele>285.6</ele><time>2026-05-04T15:04:49.054Z</time></trkpt><trkpt lat="41.7191317" lon="13.6112541"><ele>286.0</ele><time>2026-05-04T15:04:51.053Z</time></trkpt><trkpt lat="41.7191863" lon="13.611164"><ele>286.16666666666663</ele><time>2026-05-04T15:04:53.054Z</time></trkpt><trkpt lat="41.7192377" lon="13.611054"><ele>286.3333333333333</ele><time>2026-05-04T15:04:55.054Z</time></trkpt><trkpt lat="41.7192919" lon="13.6109328"><ele>286.5</ele><time>2026-05-04T15:04:57.054Z</time></trkpt><trkpt lat="41.7193296" lon="13.6108603"><ele>286.6666666666667</ele><time>2026-05-04T15:04:58.054Z</time></trkpt><trkpt lat="41.719378" lon="13.6107748"><ele>286.83333333333337</ele><time>2026-05-04T15:04:59.054Z</time></trkpt><trkpt lat="41.719424" lon="13.6106945"><ele>287.0</ele><time>2026-05-04T15:05:00.053Z</time></trkpt><trkpt lat="41.7194865" lon="13.6105927"><ele>287.0</ele><time>2026-05-04T15:05:02.053Z</time></trkpt><trkpt lat="41.7195437" lon="13.6105231"><ele>287.0</ele><time>2026-05-04T15:05:07.054Z</time></trkpt><trkpt lat="41.7195977" lon="13.6104237"><ele>287.0</ele><time>2026-05-04T15:05:09.054Z</time></trkpt><trkpt lat="41.7196481" lon="13.6103221"><ele>287.0</ele><time>2026-05-04T15:05:10.053Z</time></trkpt><trkpt lat="41.7196982" lon="13.6102299"><ele>287.0</ele><time>2026-05-04T15:05:11.053Z</time></trkpt><trkpt lat="41.7197397" lon="13.6101484"><ele>287.0</ele><time>2026-05-04T15:05:12.054Z</time></trkpt><trkpt lat="41.7197817" lon="13.6100843"><ele>286.6</ele><time>2026-05-04T15:05:13.053Z</time></trkpt><trkpt lat="41.7198395" lon="13.6099432"><ele>286.2</ele><time>2026-05-04T15:05:15.054Z</time></trkpt><trkpt lat="41.7198797" lon="13.6098647"><ele>285.8</ele><time>2026-05-04T15:05:16.053Z</time></trkpt><trkpt lat="41.7199348" lon="13.6097651"><ele>285.4</ele><time>2026-05-04T15:05:17.053Z</time></trkpt><trkpt lat="41.7200038" lon="13.6096507"><ele>285.0</ele><time>2026-05-04T15:05:18.054Z</time></trkpt><trkpt lat="41.7200766" lon="13.6095332"><ele>285.2</ele><time>2026-05-04T15:05:19.054Z</time></trkpt><trkpt lat="41.7201556" lon="13.609421"><ele>285.4</ele><time>2026-05-04T15:05:20.053Z</time></trkpt><trkpt lat="41.7202206" lon="13.6093022"><ele>285.6</ele><time>2026-05-04T15:05:21.053Z</time></trkpt><trkpt lat="41.720291" lon="13.6091886"><ele>285.8</ele><time>2026-05-04T15:05:22.053Z</time></trkpt><trkpt lat="41.7203582" lon="13.6090841"><ele>286.0</ele><time>2026-05-04T15:05:23.054Z</time></trkpt><trkpt lat="41.7204285" lon="13.6089867"><ele>285.6</ele><time>2026-05-04T15:05:24.054Z</time></trkpt><trkpt lat="41.7204923" lon="13.6088999"><ele>285.20000000000005</ele><time>2026-05-04T15:05:25.053Z</time></trkpt><trkpt lat="41.720541" lon="13.6088271"><ele>284.79999999999995</ele><time>2026-05-04T15:05:26.053Z</time></trkpt><trkpt lat="41.7206163" lon="13.6087068"><ele>284.4</ele><time>2026-05-04T15:05:28.054Z</time></trkpt><trkpt lat="41.7206927" lon="13.6085888"><ele>284.0</ele><time>2026-05-04T15:05:30.053Z</time></trkpt><trkpt lat="41.7207413" lon="13.6085269"><ele>284.0</ele><time>2026-05-04T15:05:31.054Z</time></trkpt><trkpt lat="41.7207866" lon="13.608465"><ele>284.0</ele><time>2026-05-04T15:05:32.054Z</time></trkpt><trkpt lat="41.7208344" lon="13.608393"><ele>284.0</ele><time>2026-05-04T15:05:33.054Z</time></trkpt><trkpt lat="41.72088" lon="13.6083198"><ele>284.0</ele><time>2026-05-04T15:05:34.053Z</time></trkpt><trkpt lat="41.7209257" lon="13.6082483"><ele>284.0</ele><time>2026-05-04T15:05:35.054Z</time></trkpt><trkpt lat="41.7209686" lon="13.6081688"><ele>284.0</ele><time>2026-05-04T15:05:36.054Z</time></trkpt><trkpt lat="41.7210165" lon="13.6080951"><ele>284.0</ele><time>2026-05-04T15:05:37.053Z</time></trkpt><trkpt lat="41.7210699" lon="13.6080171"><ele>283.5</ele><time>2026-05-04T15:05:38.054Z</time></trkpt><trkpt lat="41.7211275" lon="13.6079429"><ele>283.0</ele><time>2026-05-04T15:05:39.054Z</time></trkpt><trkpt lat="41.72119" lon="13.6078731"><ele>282.5</ele><time>2026-05-04T15:05:40.054Z</time></trkpt><trkpt lat="41.7212568" lon="13.6078102"><ele>282.0</ele><time>2026-05-04T15:05:41.053Z</time></trkpt><trkpt lat="41.7213236" lon="13.6077448"><ele>281.5</ele><time>2026-05-04T15:05:42.053Z</time></trkpt><trkpt lat="41.7213934" lon="13.6076861"><ele>281.0</ele><time>2026-05-04T15:05:43.054Z</time></trkpt><trkpt lat="41.7214544" lon="13.6076227"><ele>281.00000000000006</ele><time>2026-05-04T15:05:44.054Z</time></trkpt><trkpt lat="41.7215192" lon="13.6075722"><ele>281.0</ele><time>2026-05-04T15:05:45.054Z</time></trkpt><trkpt lat="41.7215741" lon="13.6075189"><ele>281.0</ele><time>2026-05-04T15:05:46.054Z</time></trkpt><trkpt lat="41.7216259" lon="13.6074689"><ele>281.0</ele><time>2026-05-04T15:05:47.054Z</time></trkpt><trkpt lat="41.7216816" lon="13.6074173"><ele>281.0</ele><time>2026-05-04T15:05:48.053Z</time></trkpt><trkpt lat="41.7217362" lon="13.60737"><ele>281.00000000000006</ele><time>2026-05-04T15:05:49.053Z</time></trkpt><trkpt lat="41.7217926" lon="13.6073246"><ele>281.0</ele><time>2026-05-04T15:05:50.053Z</time></trkpt><trkpt lat="41.7218468" lon="13.6072668"><ele>281.00000000000006</ele><time>2026-05-04T15:05:51.054Z</time></trkpt><trkpt lat="41.7219051" lon="13.6072039"><ele>281.0</ele><time>2026-05-04T15:05:52.053Z</time></trkpt><trkpt lat="41.7219635" lon="13.6071443"><ele>281.0</ele><time>2026-05-04T15:05:53.054Z</time></trkpt><trkpt lat="41.7220158" lon="13.6070774"><ele>281.0</ele><time>2026-05-04T15:05:54.053Z</time></trkpt><trkpt lat="41.7220685" lon="13.607004"><ele>281.0</ele><time>2026-05-04T15:05:55.053Z</time></trkpt><trkpt lat="41.7221266" lon="13.6069393"><ele>281.00000000000006</ele><time>2026-05-04T15:05:56.054Z</time></trkpt><trkpt lat="41.7221822" lon="13.6068672"><ele>281.0</ele><time>2026-05-04T15:05:57.053Z</time></trkpt><trkpt lat="41.722234" lon="13.6067967"><ele>281.0</ele><time>2026-05-04T15:05:58.053Z</time></trkpt><trkpt lat="41.7222832" lon="13.6067066"><ele>281.0</ele><time>2026-05-04T15:05:59.054Z</time></trkpt><trkpt lat="41.7223358" lon="13.6066151"><ele>281.0</ele><time>2026-05-04T15:06:00.054Z</time></trkpt><trkpt lat="41.7223964" lon="13.6065207"><ele>281.0</ele><time>2026-05-04T15:06:01.053Z</time></trkpt><trkpt lat="41.7224543" lon="13.6064184"><ele>281.0</ele><time>2026-05-04T15:06:02.054Z</time></trkpt><trkpt lat="41.722509" lon="13.6063165"><ele>281.0</ele><time>2026-05-04T15:06:03.054Z</time></trkpt><trkpt lat="41.7225679" lon="13.6062179"><ele>281.0</ele><time>2026-05-04T15:06:04.054Z</time></trkpt><trkpt lat="41.7226247" lon="13.6061242"><ele>281.0</ele><time>2026-05-04T15:06:05.054Z</time></trkpt><trkpt lat="41.7226804" lon="13.6060293"><ele>281.0</ele><time>2026-05-04T15:06:06.053Z</time></trkpt><trkpt lat="41.7227387" lon="13.6059245"><ele>281.0</ele><time>2026-05-04T15:06:07.054Z</time></trkpt><trkpt lat="41.7227974" lon="13.6058162"><ele>281.0</ele><time>2026-05-04T15:06:08.054Z</time></trkpt><trkpt lat="41.7228539" lon="13.605717"><ele>281.0</ele><time>2026-05-04T15:06:09.054Z</time></trkpt><trkpt lat="41.7229069" lon="13.6056243"><ele>281.0</ele><time>2026-05-04T15:06:10.054Z</time></trkpt><trkpt lat="41.7229535" lon="13.6055403"><ele>281.0</ele><time>2026-05-04T15:06:11.053Z</time></trkpt><trkpt lat="41.7229984" lon="13.6054526"><ele>281.0</ele><time>2026-05-04T15:06:12.054Z</time></trkpt><trkpt lat="41.7230376" lon="13.6053585"><ele>281.0</ele><time>2026-05-04T15:06:13.054Z</time></trkpt><trkpt lat="41.7230796" lon="13.6052523"><ele>280.6666666666667</ele><time>2026-05-04T15:06:14.054Z</time></trkpt><trkpt lat="41.7231153" lon="13.6051526"><ele>280.33333333333337</ele><time>2026-05-04T15:06:15.054Z</time></trkpt><trkpt lat="41.7231492" lon="13.6050588"><ele>280.0</ele><time>2026-05-04T15:06:16.054Z</time></trkpt><trkpt lat="41.7231829" lon="13.6049701"><ele>279.6666666666667</ele><time>2026-05-04T15:06:17.054Z</time></trkpt><trkpt lat="41.7232289" lon="13.604874"><ele>279.3333333333333</ele><time>2026-05-04T15:06:18.053Z</time></trkpt><trkpt lat="41.7232826" lon="13.6047691"><ele>279.0</ele><time>2026-05-04T15:06:19.053Z</time></trkpt><trkpt lat="41.7233523" lon="13.6046427"><ele>279.0</ele><time>2026-05-04T15:06:20.053Z</time></trkpt><trkpt lat="41.72344" lon="13.6045016"><ele>279.0</ele><time>2026-05-04T15:06:21.054Z</time></trkpt><trkpt lat="41.7235243" lon="13.6043782"><ele>279.0</ele><time>2026-05-04T15:06:22.054Z</time></trkpt><trkpt lat="41.7235969" lon="13.6042749"><ele>279.0</ele><time>2026-05-04T15:06:23.053Z</time></trkpt><trkpt lat="41.723663" lon="13.604184"><ele>279.1666666666667</ele><time>2026-05-04T15:06:24.054Z</time></trkpt><trkpt lat="41.7237251" lon="13.6041153"><ele>279.3333333333333</ele><time>2026-05-04T15:06:25.054Z</time></trkpt><trkpt lat="41.7238159" lon="13.6040408"><ele>279.5</ele><time>2026-05-04T15:06:27.053Z</time></trkpt><trkpt lat="41.7238763" lon="13.6039914"><ele>279.66666666666663</ele><time>2026-05-04T15:06:29.054Z</time></trkpt><trkpt lat="41.7238989" lon="13.6038872"><ele>279.8333333333333</ele><time>2026-05-04T15:06:31.053Z</time></trkpt><trkpt lat="41.7238803" lon="13.6038008"><ele>280.0</ele><time>2026-05-04T15:06:32.053Z</time></trkpt><trkpt lat="41.7238334" lon="13.6036952"><ele>280.0</ele><time>2026-05-04T15:06:33.054Z</time></trkpt><trkpt lat="41.723788" lon="13.6035579"><ele>280.0</ele><time>2026-05-04T15:06:34.054Z</time></trkpt><trkpt lat="41.7237332" lon="13.6034069"><ele>280.0</ele><time>2026-05-04T15:06:35.054Z</time></trkpt><trkpt lat="41.7236648" lon="13.6032123"><ele>280.0</ele><time>2026-05-04T15:06:36.054Z</time></trkpt><trkpt lat="41.7235785" lon="13.6029674"><ele>280.5</ele><time>2026-05-04T15:06:37.054Z</time></trkpt><trkpt lat="41.7235008" lon="13.6026744"><ele>281.0</ele><time>2026-05-04T15:06:38.054Z</time></trkpt><trkpt lat="41.7234257" lon="13.602351"><ele>281.0</ele><time>2026-05-04T15:06:39.054Z</time></trkpt><trkpt lat="41.7233284" lon="13.6020109"><ele>281.0</ele><time>2026-05-04T15:06:40.053Z</time></trkpt><trkpt lat="41.7232272" lon="13.6016511"><ele>280.5</ele><time>2026-05-04T15:06:41.054Z</time></trkpt><trkpt lat="41.7231144" lon="13.6012811"><ele>280.0</ele><time>2026-05-04T15:06:42.054Z</time></trkpt><trkpt lat="41.7230027" lon="13.6008895"><ele>280.0</ele><time>2026-05-04T15:06:43.054Z</time></trkpt><trkpt lat="41.7228854" lon="13.6004951"><ele>280.0</ele><time>2026-05-04T15:06:44.053Z</time></trkpt><trkpt lat="41.7227724" lon="13.600104"><ele>280.5</ele><time>2026-05-04T15:06:45.054Z</time></trkpt><trkpt lat="41.7226684" lon="13.5997417"><ele>281.0</ele><time>2026-05-04T15:06:46.054Z</time></trkpt><trkpt lat="41.7225726" lon="13.5994008"><ele>281.0</ele><time>2026-05-04T15:06:47.053Z</time></trkpt><trkpt lat="41.7224866" lon="13.5990638"><ele>281.0</ele><time>2026-05-04T15:06:48.053Z</time></trkpt><trkpt lat="41.7223956" lon="13.5987148"><ele>281.5</ele><time>2026-05-04T15:06:49.054Z</time></trkpt><trkpt lat="41.722305" lon="13.5983726"><ele>282.0</ele><time>2026-05-04T15:06:50.054Z</time></trkpt><trkpt lat="41.722223" lon="13.5980691"><ele>281.3333333333333</ele><time>2026-05-04T15:06:51.054Z</time></trkpt><trkpt lat="41.722148" lon="13.597808"><ele>280.66666666666663</ele><time>2026-05-04T15:06:52.054Z</time></trkpt><trkpt lat="41.7220807" lon="13.5975652"><ele>280.0</ele><time>2026-05-04T15:06:53.054Z</time></trkpt><trkpt lat="41.7220194" lon="13.5973437"><ele>280.0</ele><time>2026-05-04T15:06:54.054Z</time></trkpt><trkpt lat="41.7219565" lon="13.5971268"><ele>280.0</ele><time>2026-05-04T15:06:55.053Z</time></trkpt><trkpt lat="41.7218979" lon="13.5969155"><ele>280.0</ele><time>2026-05-04T15:06:56.054Z</time></trkpt><trkpt lat="41.7218442" lon="13.596717"><ele>279.75</ele><time>2026-05-04T15:06:57.053Z</time></trkpt><trkpt lat="41.7217874" lon="13.5965301"><ele>279.5</ele><time>2026-05-04T15:06:58.053Z</time></trkpt><trkpt lat="41.7217375" lon="13.5963524"><ele>279.25</ele><time>2026-05-04T15:06:59.054Z</time></trkpt><trkpt lat="41.7216915" lon="13.596183"><ele>279.0</ele><time>2026-05-04T15:07:00.054Z</time></trkpt><trkpt lat="41.7216415" lon="13.5960199"><ele>279.5</ele><time>2026-05-04T15:07:01.053Z</time></trkpt><trkpt lat="41.7215933" lon="13.5958453"><ele>280.0</ele><time>2026-05-04T15:07:02.053Z</time></trkpt><trkpt lat="41.7215457" lon="13.5956713"><ele>280.5</ele><time>2026-05-04T15:07:03.053Z</time></trkpt><trkpt lat="41.7214989" lon="13.595497"><ele>281.0</ele><time>2026-05-04T15:07:04.053Z</time></trkpt><trkpt lat="41.7214553" lon="13.5953266"><ele>281.0</ele><time>2026-05-04T15:07:05.054Z</time></trkpt><trkpt lat="41.7214111" lon="13.5951572"><ele>281.0</ele><time>2026-05-04T15:07:06.053Z</time></trkpt><trkpt lat="41.7213729" lon="13.59499"><ele>281.0</ele><time>2026-05-04T15:07:07.053Z</time></trkpt><trkpt lat="41.7213365" lon="13.5948399"><ele>281.0</ele><time>2026-05-04T15:07:08.054Z</time></trkpt><trkpt lat="41.721311" lon="13.5947212"><ele>281.0</ele><time>2026-05-04T15:07:09.054Z</time></trkpt><trkpt lat="41.7212848" lon="13.5946231"><ele>281.0</ele><time>2026-05-04T15:07:10.053Z</time></trkpt><trkpt lat="41.7212402" lon="13.5944702"><ele>281.0</ele><time>2026-05-04T15:07:12.053Z</time></trkpt><trkpt lat="41.7212159" lon="13.5943162"><ele>281.0</ele><time>2026-05-04T15:07:14.054Z</time></trkpt><trkpt lat="41.7212666" lon="13.5941571"><ele>281.0</ele><time>2026-05-04T15:07:16.054Z</time></trkpt><trkpt lat="41.7213268" lon="13.5940832"><ele>280.6</ele><time>2026-05-04T15:07:17.053Z</time></trkpt><trkpt lat="41.7214052" lon="13.594032"><ele>280.20000000000005</ele><time>2026-05-04T15:07:18.054Z</time></trkpt><trkpt lat="41.7214919" lon="13.5939836"><ele>279.79999999999995</ele><time>2026-05-04T15:07:19.053Z</time></trkpt><trkpt lat="41.7215839" lon="13.5939281"><ele>279.4</ele><time>2026-05-04T15:07:20.054Z</time></trkpt><trkpt lat="41.7216843" lon="13.5938658"><ele>279.0</ele><time>2026-05-04T15:07:21.054Z</time></trkpt><trkpt lat="41.7217752" lon="13.5938001"><ele>279.0</ele><time>2026-05-04T15:07:22.053Z</time></trkpt><trkpt lat="41.7218632" lon="13.5937169"><ele>279.0</ele><time>2026-05-04T15:07:23.053Z</time></trkpt><trkpt lat="41.7219483" lon="13.59362"><ele>279.0</ele><time>2026-05-04T15:07:24.053Z</time></trkpt><trkpt lat="41.7220277" lon="13.5935113"><ele>279.0</ele><time>2026-05-04T15:07:25.054Z</time></trkpt><trkpt lat="41.7221053" lon="13.5933838"><ele>279.0</ele><time>2026-05-04T15:07:26.053Z</time></trkpt><trkpt lat="41.7221819" lon="13.5932522"><ele>279.0</ele><time>2026-05-04T15:07:27.052Z</time></trkpt><trkpt lat="41.7222569" lon="13.5931126"><ele>279.0</ele><time>2026-05-04T15:07:28.053Z</time></trkpt><trkpt lat="41.7223159" lon="13.5929559"><ele>279.0</ele><time>2026-05-04T15:07:29.052Z</time></trkpt><trkpt lat="41.7223628" lon="13.5927912"><ele>278.5</ele><time>2026-05-04T15:07:30.052Z</time></trkpt><trkpt lat="41.7223989" lon="13.592624"><ele>278.0</ele><time>2026-05-04T15:07:31.053Z</time></trkpt><trkpt lat="41.7224336" lon="13.592451"><ele>277.5</ele><time>2026-05-04T15:07:32.053Z</time></trkpt><trkpt lat="41.7224678" lon="13.592273"><ele>277.0</ele><time>2026-05-04T15:07:33.053Z</time></trkpt><trkpt lat="41.7224958" lon="13.5920881"><ele>277.3333333333333</ele><time>2026-05-04T15:07:34.053Z</time></trkpt><trkpt lat="41.722519" lon="13.5918959"><ele>277.6666666666667</ele><time>2026-05-04T15:07:35.052Z</time></trkpt><trkpt lat="41.722532" lon="13.5916721"><ele>278.0</ele><time>2026-05-04T15:07:36.052Z</time></trkpt><trkpt lat="41.722557" lon="13.5914111"><ele>276.5</ele><time>2026-05-04T15:07:37.053Z</time></trkpt><trkpt lat="41.7226055" lon="13.5911136"><ele>275.0</ele><time>2026-05-04T15:07:38.053Z</time></trkpt><trkpt lat="41.7226591" lon="13.5907839"><ele>275.0</ele><time>2026-05-04T15:07:39.053Z</time></trkpt><trkpt lat="41.722718" lon="13.5904336"><ele>275.0</ele><time>2026-05-04T15:07:40.052Z</time></trkpt><trkpt lat="41.7227772" lon="13.5900615"><ele>276.0</ele><time>2026-05-04T15:07:41.053Z</time></trkpt><trkpt lat="41.7228324" lon="13.5896725"><ele>277.0</ele><time>2026-05-04T15:07:42.053Z</time></trkpt><trkpt lat="41.7228943" lon="13.5892709"><ele>277.0</ele><time>2026-05-04T15:07:43.053Z</time></trkpt><trkpt lat="41.7229482" lon="13.5888782"><ele>277.0</ele><time>2026-05-04T15:07:44.053Z</time></trkpt><trkpt lat="41.722999" lon="13.588496"><ele>277.0</ele><time>2026-05-04T15:07:45.052Z</time></trkpt><trkpt lat="41.7230462" lon="13.588113"><ele>277.0</ele><time>2026-05-04T15:07:46.053Z</time></trkpt><trkpt lat="41.7230875" lon="13.5877254"><ele>277.0</ele><time>2026-05-04T15:07:47.053Z</time></trkpt><trkpt lat="41.7231287" lon="13.5873179"><ele>277.0</ele><time>2026-05-04T15:07:48.053Z</time></trkpt><trkpt lat="41.7231781" lon="13.5869015"><ele>276.5</ele><time>2026-05-04T15:07:49.052Z</time></trkpt><trkpt lat="41.723225" lon="13.5865024"><ele>276.0</ele><time>2026-05-04T15:07:50.053Z</time></trkpt><trkpt lat="41.7232659" lon="13.5861458"><ele>275.5</ele><time>2026-05-04T15:07:51.052Z</time></trkpt><trkpt lat="41.7232972" lon="13.5858048"><ele>275.0</ele><time>2026-05-04T15:07:52.053Z</time></trkpt><trkpt lat="41.7233162" lon="13.5854755"><ele>274.5</ele><time>2026-05-04T15:07:53.053Z</time></trkpt><trkpt lat="41.7233069" lon="13.5851287"><ele>274.0</ele><time>2026-05-04T15:07:54.052Z</time></trkpt><trkpt lat="41.7232721" lon="13.5847812"><ele>274.5</ele><time>2026-05-04T15:07:55.052Z</time></trkpt><trkpt lat="41.7232134" lon="13.5844224"><ele>275.0</ele><time>2026-05-04T15:07:56.053Z</time></trkpt><trkpt lat="41.7231344" lon="13.5840486"><ele>275.5</ele><time>2026-05-04T15:07:57.053Z</time></trkpt><trkpt lat="41.7230574" lon="13.5836641"><ele>276.0</ele><time>2026-05-04T15:07:58.053Z</time></trkpt><trkpt lat="41.7229967" lon="13.5833025"><ele>276.0</ele><time>2026-05-04T15:07:59.052Z</time></trkpt><trkpt lat="41.7229344" lon="13.5829907"><ele>276.0</ele><time>2026-05-04T15:08:00.053Z</time></trkpt><trkpt lat="41.7228775" lon="13.5827241"><ele>276.0</ele><time>2026-05-04T15:08:01.053Z</time></trkpt><trkpt lat="41.7228337" lon="13.582505"><ele>276.25</ele><time>2026-05-04T15:08:02.053Z</time></trkpt><trkpt lat="41.7228034" lon="13.582329"><ele>276.5</ele><time>2026-05-04T15:08:03.052Z</time></trkpt><trkpt lat="41.7228207" lon="13.5821791"><ele>276.75</ele><time>2026-05-04T15:08:04.052Z</time></trkpt><trkpt lat="41.7228708" lon="13.5820202"><ele>277.0</ele><time>2026-05-04T15:08:05.052Z</time></trkpt><trkpt lat="41.7229653" lon="13.5818424"><ele>277.0</ele><time>2026-05-04T15:08:06.053Z</time></trkpt><trkpt lat="41.7230934" lon="13.5816544"><ele>277.0</ele><time>2026-05-04T15:08:07.053Z</time></trkpt><trkpt lat="41.7232553" lon="13.5814709"><ele>277.0</ele><time>2026-05-04T15:08:08.052Z</time></trkpt><trkpt lat="41.7234279" lon="13.5812998"><ele>279.3333333333333</ele><time>2026-05-04T15:08:09.052Z</time></trkpt><trkpt lat="41.7235936" lon="13.5811655"><ele>281.6666666666667</ele><time>2026-05-04T15:08:10.052Z</time></trkpt><trkpt lat="41.723751" lon="13.5810478"><ele>284.0</ele><time>2026-05-04T15:08:11.052Z</time></trkpt><trkpt lat="41.7239001" lon="13.580972"><ele>284.0</ele><time>2026-05-04T15:08:12.053Z</time></trkpt><trkpt lat="41.7240298" lon="13.5809272"><ele>284.0</ele><time>2026-05-04T15:08:13.053Z</time></trkpt><trkpt lat="41.7241297" lon="13.5809025"><ele>284.0</ele><time>2026-05-04T15:08:14.052Z</time></trkpt><trkpt lat="41.7242019" lon="13.5808751"><ele>284.0</ele><time>2026-05-04T15:08:15.052Z</time></trkpt><trkpt lat="41.7242424" lon="13.5807654"><ele>284.0</ele><time>2026-05-04T15:08:17.052Z</time></trkpt><trkpt lat="41.7242042" lon="13.5806764"><ele>284.0</ele><time>2026-05-04T15:08:18.053Z</time></trkpt><trkpt lat="41.7241565" lon="13.580533"><ele>284.0</ele><time>2026-05-04T15:08:19.052Z</time></trkpt><trkpt lat="41.724092" lon="13.5803517"><ele>284.0</ele><time>2026-05-04T15:08:20.053Z</time></trkpt><trkpt lat="41.7240279" lon="13.5801366"><ele>284.0</ele><time>2026-05-04T15:08:21.053Z</time></trkpt><trkpt lat="41.7239582" lon="13.5798945"><ele>284.33333333333337</ele><time>2026-05-04T15:08:22.052Z</time></trkpt><trkpt lat="41.7238911" lon="13.5796543"><ele>284.6666666666667</ele><time>2026-05-04T15:08:23.052Z</time></trkpt><trkpt lat="41.7238277" lon="13.579411"><ele>285.0</ele><time>2026-05-04T15:08:24.053Z</time></trkpt><trkpt lat="41.7237672" lon="13.5791761"><ele>284.3333333333333</ele><time>2026-05-04T15:08:25.053Z</time></trkpt><trkpt lat="41.72371" lon="13.5789503"><ele>283.66666666666663</ele><time>2026-05-04T15:08:26.052Z</time></trkpt><trkpt lat="41.7236671" lon="13.5787245"><ele>283.0</ele><time>2026-05-04T15:08:27.052Z</time></trkpt><trkpt lat="41.7235957" lon="13.5782448"><ele>281.66666666666663</ele><time>2026-05-04T15:08:29.053Z</time></trkpt><trkpt lat="41.7235595" lon="13.5779999"><ele>280.3333333333333</ele><time>2026-05-04T15:08:30.053Z</time></trkpt><trkpt lat="41.7235238" lon="13.5777477"><ele>279.0</ele><time>2026-05-04T15:08:31.053Z</time></trkpt><trkpt lat="41.7234863" lon="13.5775005"><ele>279.0</ele><time>2026-05-04T15:08:32.052Z</time></trkpt><trkpt lat="41.723439" lon="13.5772668"><ele>279.0</ele><time>2026-05-04T15:08:33.052Z</time></trkpt><trkpt lat="41.7233954" lon="13.5770596"><ele>279.0</ele><time>2026-05-04T15:08:34.052Z</time></trkpt><trkpt lat="41.7233551" lon="13.5768691"><ele>279.25</ele><time>2026-05-04T15:08:35.052Z</time></trkpt><trkpt lat="41.7233081" lon="13.57668"><ele>279.5</ele><time>2026-05-04T15:08:36.053Z</time></trkpt><trkpt lat="41.7232487" lon="13.5764978"><ele>279.75</ele><time>2026-05-04T15:08:37.053Z</time></trkpt><trkpt lat="41.723187" lon="13.576332"><ele>280.0</ele><time>2026-05-04T15:08:38.053Z</time></trkpt><trkpt lat="41.7231198" lon="13.5761729"><ele>280.2</ele><time>2026-05-04T15:08:39.053Z</time></trkpt><trkpt lat="41.7230732" lon="13.5760263"><ele>280.4</ele><time>2026-05-04T15:08:40.052Z</time></trkpt><trkpt lat="41.7230481" lon="13.5758931"><ele>280.6</ele><time>2026-05-04T15:08:41.053Z</time></trkpt><trkpt lat="41.7230459" lon="13.5757625"><ele>280.8</ele><time>2026-05-04T15:08:42.053Z</time></trkpt><trkpt lat="41.7230582" lon="13.5756349"><ele>281.0</ele><time>2026-05-04T15:08:43.052Z</time></trkpt><trkpt lat="41.7230797" lon="13.5755023"><ele>281.0</ele><time>2026-05-04T15:08:44.053Z</time></trkpt><trkpt lat="41.7231141" lon="13.5753311"><ele>281.0</ele><time>2026-05-04T15:08:45.053Z</time></trkpt><trkpt lat="41.723151" lon="13.575118"><ele>281.0</ele><time>2026-05-04T15:08:46.052Z</time></trkpt><trkpt lat="41.7232043" lon="13.5748835"><ele>281.0</ele><time>2026-05-04T15:08:47.053Z</time></trkpt><trkpt lat="41.7232487" lon="13.5746312"><ele>281.0</ele><time>2026-05-04T15:08:48.052Z</time></trkpt><trkpt lat="41.723287" lon="13.5743603"><ele>281.0</ele><time>2026-05-04T15:08:49.052Z</time></trkpt><trkpt lat="41.7233185" lon="13.5740985"><ele>282.33333333333337</ele><time>2026-05-04T15:08:50.053Z</time></trkpt><trkpt lat="41.723346" lon="13.5738503"><ele>283.6666666666667</ele><time>2026-05-04T15:08:51.052Z</time></trkpt><trkpt lat="41.7233768" lon="13.5736107"><ele>285.0</ele><time>2026-05-04T15:08:52.053Z</time></trkpt><trkpt lat="41.7234222" lon="13.5733812"><ele>286.5</ele><time>2026-05-04T15:08:53.053Z</time></trkpt><trkpt lat="41.7234702" lon="13.5731744"><ele>288.0</ele><time>2026-05-04T15:08:54.052Z</time></trkpt><trkpt lat="41.7235194" lon="13.5730078"><ele>289.5</ele><time>2026-05-04T15:08:55.052Z</time></trkpt><trkpt lat="41.7235503" lon="13.5728851"><ele>291.0</ele><time>2026-05-04T15:08:56.052Z</time></trkpt><trkpt lat="41.7235552" lon="13.5727969"><ele>292.75</ele><time>2026-05-04T15:08:57.053Z</time></trkpt><trkpt lat="41.7235173" lon="13.5726483"><ele>294.5</ele><time>2026-05-04T15:08:59.052Z</time></trkpt><trkpt lat="41.7235511" lon="13.5724783"><ele>296.25</ele><time>2026-05-04T15:09:01.053Z</time></trkpt><trkpt lat="41.7235861" lon="13.5723495"><ele>298.0</ele><time>2026-05-04T15:09:02.053Z</time></trkpt><trkpt lat="41.7236248" lon="13.5722004"><ele>299.0</ele><time>2026-05-04T15:09:03.053Z</time></trkpt><trkpt lat="41.7236716" lon="13.572035"><ele>300.0</ele><time>2026-05-04T15:09:04.053Z</time></trkpt><trkpt lat="41.7237132" lon="13.5718574"><ele>301.0</ele><time>2026-05-04T15:09:05.052Z</time></trkpt><trkpt lat="41.7237498" lon="13.5716707"><ele>302.0</ele><time>2026-05-04T15:09:06.052Z</time></trkpt><trkpt lat="41.7238001" lon="13.5714678"><ele>304.6666666666667</ele><time>2026-05-04T15:09:07.053Z</time></trkpt><trkpt lat="41.723867" lon="13.5712647"><ele>307.3333333333333</ele><time>2026-05-04T15:09:08.053Z</time></trkpt><trkpt lat="41.7239383" lon="13.5710717"><ele>310.0</ele><time>2026-05-04T15:09:09.053Z</time></trkpt><trkpt lat="41.7239997" lon="13.5708932"><ele>312.5</ele><time>2026-05-04T15:09:10.053Z</time></trkpt><trkpt lat="41.7240723" lon="13.5707345"><ele>315.0</ele><time>2026-05-04T15:09:11.053Z</time></trkpt><trkpt lat="41.7241383" lon="13.5705846"><ele>317.5</ele><time>2026-05-04T15:09:12.053Z</time></trkpt><trkpt lat="41.7241776" lon="13.5704436"><ele>320.0</ele><time>2026-05-04T15:09:13.052Z</time></trkpt><trkpt lat="41.7241936" lon="13.5703013"><ele>322.25</ele><time>2026-05-04T15:09:14.052Z</time></trkpt><trkpt lat="41.7241955" lon="13.5701385"><ele>324.5</ele><time>2026-05-04T15:09:15.053Z</time></trkpt><trkpt lat="41.7241799" lon="13.569952"><ele>326.75</ele><time>2026-05-04T15:09:16.052Z</time></trkpt><trkpt lat="41.7241592" lon="13.5698153"><ele>329.0</ele><time>2026-05-04T15:09:17.052Z</time></trkpt><trkpt lat="41.7241465" lon="13.5696929"><ele>329.0</ele><time>2026-05-04T15:09:18.053Z</time></trkpt><trkpt lat="41.7241385" lon="13.569567"><ele>329.0</ele><time>2026-05-04T15:09:19.053Z</time></trkpt><trkpt lat="41.7241452" lon="13.5694395"><ele>329.0</ele><time>2026-05-04T15:09:20.053Z</time></trkpt><trkpt lat="41.7241718" lon="13.569302"><ele>329.0</ele><time>2026-05-04T15:09:21.053Z</time></trkpt><trkpt lat="41.7242246" lon="13.5691489"><ele>329.0</ele><time>2026-05-04T15:09:22.053Z</time></trkpt><trkpt lat="41.7243007" lon="13.5689801"><ele>332.0</ele><time>2026-05-04T15:09:23.052Z</time></trkpt><trkpt lat="41.724383" lon="13.5688016"><ele>335.0</ele><time>2026-05-04T15:09:24.052Z</time></trkpt><trkpt lat="41.7244564" lon="13.5686211"><ele>338.0</ele><time>2026-05-04T15:09:25.053Z</time></trkpt><trkpt lat="41.7245088" lon="13.5684551"><ele>341.0</ele><time>2026-05-04T15:09:26.052Z</time></trkpt><trkpt lat="41.7245505" lon="13.5682942"><ele>345.5</ele><time>2026-05-04T15:09:27.052Z</time></trkpt><trkpt lat="41.7245859" lon="13.56814"><ele>350.0</ele><time>2026-05-04T15:09:28.052Z</time></trkpt><trkpt lat="41.724627" lon="13.5679942"><ele>354.5</ele><time>2026-05-04T15:09:29.052Z</time></trkpt><trkpt lat="41.7246941" lon="13.567849"><ele>359.0</ele><time>2026-05-04T15:09:30.052Z</time></trkpt><trkpt lat="41.7247599" lon="13.5677119"><ele>360.79999999999995</ele><time>2026-05-04T15:09:31.053Z</time></trkpt><trkpt lat="41.7248295" lon="13.5675953"><ele>362.59999999999997</ele><time>2026-05-04T15:09:32.052Z</time></trkpt><trkpt lat="41.7248951" lon="13.5674993"><ele>364.4</ele><time>2026-05-04T15:09:33.052Z</time></trkpt><trkpt lat="41.7249657" lon="13.5674277"><ele>366.2</ele><time>2026-05-04T15:09:34.052Z</time></trkpt><trkpt lat="41.7250249" lon="13.5673728"><ele>368.0</ele><time>2026-05-04T15:09:35.052Z</time></trkpt><trkpt lat="41.7250892" lon="13.5673081"><ele>368.0</ele><time>2026-05-04T15:09:37.053Z</time></trkpt><trkpt lat="41.7251197" lon="13.5672104"><ele>368.0</ele><time>2026-05-04T15:10:28.053Z</time></trkpt><trkpt lat="41.7251471" lon="13.5671318"><ele>368.0</ele><time>2026-05-04T15:10:29.052Z</time></trkpt><trkpt lat="41.7251863" lon="13.5670348"><ele>368.0</ele><time>2026-05-04T15:10:30.052Z</time></trkpt><trkpt lat="41.7252354" lon="13.5669015"><ele>368.0</ele><time>2026-05-04T15:10:31.053Z</time></trkpt><trkpt lat="41.7252709" lon="13.5667523"><ele>372.4</ele><time>2026-05-04T15:10:32.052Z</time></trkpt><trkpt lat="41.7253071" lon="13.566602"><ele>376.79999999999995</ele><time>2026-05-04T15:10:33.053Z</time></trkpt><trkpt lat="41.7253481" lon="13.566472"><ele>381.2</ele><time>2026-05-04T15:10:34.053Z</time></trkpt><trkpt lat="41.7253747" lon="13.5663767"><ele>385.6</ele><time>2026-05-04T15:10:35.053Z</time></trkpt><trkpt lat="41.7253553" lon="13.5662152"><ele>390.0</ele><time>2026-05-04T15:10:37.053Z</time></trkpt><trkpt lat="41.7253058" lon="13.5660954"><ele>391.75</ele><time>2026-05-04T15:10:38.052Z</time></trkpt><trkpt lat="41.7252476" lon="13.565955"><ele>393.5</ele><time>2026-05-04T15:10:39.053Z</time></trkpt><trkpt lat="41.7251872" lon="13.565823"><ele>395.25</ele><time>2026-05-04T15:10:40.052Z</time></trkpt><trkpt lat="41.7251266" lon="13.565692"><ele>397.0</ele><time>2026-05-04T15:10:41.053Z</time></trkpt><trkpt lat="41.7250764" lon="13.5655717"><ele>396.00000000000006</ele><time>2026-05-04T15:10:42.052Z</time></trkpt><trkpt lat="41.7250268" lon="13.5654578"><ele>395.0</ele><time>2026-05-04T15:10:43.053Z</time></trkpt><trkpt lat="41.7249926" lon="13.5653616"><ele>394.0</ele><time>2026-05-04T15:10:44.053Z</time></trkpt><trkpt lat="41.7249604" lon="13.5652727"><ele>393.0</ele><time>2026-05-04T15:10:45.052Z</time></trkpt><trkpt lat="41.7249237" lon="13.5651751"><ele>392.00000000000006</ele><time>2026-05-04T15:10:46.053Z</time></trkpt><trkpt lat="41.7248936" lon="13.5650463"><ele>391.0</ele><time>2026-05-04T15:10:47.052Z</time></trkpt><trkpt lat="41.7248736" lon="13.5649159"><ele>391.0</ele><time>2026-05-04T15:10:48.052Z</time></trkpt><trkpt lat="41.7248575" lon="13.5647706"><ele>391.0</ele><time>2026-05-04T15:10:49.053Z</time></trkpt><trkpt lat="41.7248468" lon="13.5646132"><ele>391.0</ele><time>2026-05-04T15:10:50.052Z</time></trkpt><trkpt lat="41.7248253" lon="13.5644579"><ele>391.0</ele><time>2026-05-04T15:10:51.052Z</time></trkpt><trkpt lat="41.7248023" lon="13.5642804"><ele>394.33333333333337</ele><time>2026-05-04T15:10:52.052Z</time></trkpt><trkpt lat="41.7247744" lon="13.564064"><ele>397.66666666666663</ele><time>2026-05-04T15:10:53.053Z</time></trkpt><trkpt lat="41.724753" lon="13.5638115"><ele>401.0</ele><time>2026-05-04T15:10:54.052Z</time></trkpt><trkpt lat="41.7247431" lon="13.5635681"><ele>402.0</ele><time>2026-05-04T15:10:55.053Z</time></trkpt><trkpt lat="41.72475" lon="13.5633487"><ele>403.0</ele><time>2026-05-04T15:10:56.052Z</time></trkpt><trkpt lat="41.7247654" lon="13.5631412"><ele>404.0</ele><time>2026-05-04T15:10:57.052Z</time></trkpt><trkpt lat="41.724769" lon="13.5629678"><ele>405.0</ele><time>2026-05-04T15:10:58.053Z</time></trkpt><trkpt lat="41.7247488" lon="13.5628069"><ele>405.0</ele><time>2026-05-04T15:10:59.053Z</time></trkpt><trkpt lat="41.7247039" lon="13.5626436"><ele>405.0</ele><time>2026-05-04T15:11:00.053Z</time></trkpt><trkpt lat="41.7246409" lon="13.5624792"><ele>405.0</ele><time>2026-05-04T15:11:01.053Z</time></trkpt><trkpt lat="41.7245744" lon="13.5623246"><ele>405.0</ele><time>2026-05-04T15:11:02.052Z</time></trkpt><trkpt lat="41.7245175" lon="13.5621858"><ele>405.0</ele><time>2026-05-04T15:11:03.052Z</time></trkpt><trkpt lat="41.7244766" lon="13.5620595"><ele>405.0</ele><time>2026-05-04T15:11:04.053Z</time></trkpt><trkpt lat="41.7244468" lon="13.5619428"><ele>405.0</ele><time>2026-05-04T15:11:05.052Z</time></trkpt><trkpt lat="41.7244302" lon="13.5618372"><ele>405.0</ele><time>2026-05-04T15:11:06.052Z</time></trkpt><trkpt lat="41.7244255" lon="13.5617431"><ele>405.0</ele><time>2026-05-04T15:11:07.053Z</time></trkpt><trkpt lat="41.7244365" lon="13.5615911"><ele>407.0</ele><time>2026-05-04T15:11:09.053Z</time></trkpt><trkpt lat="41.7243926" lon="13.5614982"><ele>409.0</ele><time>2026-05-04T15:11:11.053Z</time></trkpt><trkpt lat="41.7242908" lon="13.5613836"><ele>411.0</ele><time>2026-05-04T15:11:13.053Z</time></trkpt><trkpt lat="41.7242545" lon="13.5613128"><ele>413.0</ele><time>2026-05-04T15:11:14.052Z</time></trkpt><trkpt lat="41.7242373" lon="13.5611609"><ele>415.0</ele><time>2026-05-04T15:11:16.053Z</time></trkpt><trkpt lat="41.7242634" lon="13.5609989"><ele>416.8</ele><time>2026-05-04T15:11:18.052Z</time></trkpt><trkpt lat="41.7242874" lon="13.5609186"><ele>418.6</ele><time>2026-05-04T15:11:19.053Z</time></trkpt><trkpt lat="41.7243215" lon="13.5607623"><ele>420.4</ele><time>2026-05-04T15:11:21.052Z</time></trkpt><trkpt lat="41.7242928" lon="13.5605924"><ele>422.2</ele><time>2026-05-04T15:11:23.053Z</time></trkpt><trkpt lat="41.7242709" lon="13.5604918"><ele>424.0</ele><time>2026-05-04T15:11:24.053Z</time></trkpt><trkpt lat="41.7242587" lon="13.5603821"><ele>426.00000000000006</ele><time>2026-05-04T15:11:25.053Z</time></trkpt><trkpt lat="41.7242582" lon="13.560262"><ele>428.0</ele><time>2026-05-04T15:11:26.052Z</time></trkpt><trkpt lat="41.7242576" lon="13.5601386"><ele>430.0</ele><time>2026-05-04T15:11:27.052Z</time></trkpt><trkpt lat="41.7242539" lon="13.5600204"><ele>432.0</ele><time>2026-05-04T15:11:28.052Z</time></trkpt><trkpt lat="41.7242381" lon="13.5599039"><ele>434.00000000000006</ele><time>2026-05-04T15:11:29.052Z</time></trkpt><trkpt lat="41.7242084" lon="13.5597933"><ele>436.0</ele><time>2026-05-04T15:11:30.053Z</time></trkpt><trkpt lat="41.7241716" lon="13.5596766"><ele>436.0</ele><time>2026-05-04T15:11:31.052Z</time></trkpt><trkpt lat="41.7241252" lon="13.5595489"><ele>436.0</ele><time>2026-05-04T15:11:32.052Z</time></trkpt><trkpt lat="41.7240782" lon="13.5594009"><ele>436.0</ele><time>2026-05-04T15:11:33.052Z</time></trkpt><trkpt lat="41.7240371" lon="13.5592496"><ele>436.0</ele><time>2026-05-04T15:11:34.053Z</time></trkpt><trkpt lat="41.7240035" lon="13.5591215"><ele>436.0</ele><time>2026-05-04T15:11:35.052Z</time></trkpt><trkpt lat="41.7239934" lon="13.5590078"><ele>437.6</ele><time>2026-05-04T15:11:36.053Z</time></trkpt><trkpt lat="41.7239914" lon="13.5588902"><ele>439.20000000000005</ele><time>2026-05-04T15:11:37.053Z</time></trkpt><trkpt lat="41.7239879" lon="13.5587692"><ele>440.79999999999995</ele><time>2026-05-04T15:11:38.053Z</time></trkpt><trkpt lat="41.7239656" lon="13.5586188"><ele>442.4</ele><time>2026-05-04T15:11:39.053Z</time></trkpt><trkpt lat="41.7239155" lon="13.5584549"><ele>444.0</ele><time>2026-05-04T15:11:40.052Z</time></trkpt><trkpt lat="41.7238648" lon="13.5583094"><ele>446.75</ele><time>2026-05-04T15:11:41.052Z</time></trkpt><trkpt lat="41.7238119" lon="13.5581705"><ele>449.5</ele><time>2026-05-04T15:11:42.053Z</time></trkpt><trkpt lat="41.7237567" lon="13.5580285"><ele>452.25</ele><time>2026-05-04T15:11:43.053Z</time></trkpt><trkpt lat="41.7237042" lon="13.5578879"><ele>455.0</ele><time>2026-05-04T15:11:44.053Z</time></trkpt><trkpt lat="41.7236601" lon="13.5577633"><ele>457.6</ele><time>2026-05-04T15:11:45.053Z</time></trkpt><trkpt lat="41.7236215" lon="13.5576514"><ele>460.2</ele><time>2026-05-04T15:11:46.053Z</time></trkpt><trkpt lat="41.723581" lon="13.5575381"><ele>462.79999999999995</ele><time>2026-05-04T15:11:47.052Z</time></trkpt><trkpt lat="41.723531" lon="13.5574181"><ele>465.4</ele><time>2026-05-04T15:11:48.052Z</time></trkpt><trkpt lat="41.7234835" lon="13.5572877"><ele>468.0</ele><time>2026-05-04T15:11:49.052Z</time></trkpt><trkpt lat="41.7234479" lon="13.5571506"><ele>474.2</ele><time>2026-05-04T15:11:50.053Z</time></trkpt><trkpt lat="41.7234198" lon="13.5570087"><ele>480.4</ele><time>2026-05-04T15:11:51.053Z</time></trkpt><trkpt lat="41.7234012" lon="13.5568808"><ele>486.59999999999997</ele><time>2026-05-04T15:11:52.052Z</time></trkpt><trkpt lat="41.7233953" lon="13.5567525"><ele>492.79999999999995</ele><time>2026-05-04T15:11:53.052Z</time></trkpt><trkpt lat="41.7233917" lon="13.5566122"><ele>499.0</ele><time>2026-05-04T15:11:54.052Z</time></trkpt><trkpt lat="41.7233705" lon="13.5564543"><ele>499.0</ele><time>2026-05-04T15:11:55.053Z</time></trkpt><trkpt lat="41.7233413" lon="13.5562982"><ele>499.0</ele><time>2026-05-04T15:11:56.053Z</time></trkpt><trkpt lat="41.7233222" lon="13.5561617"><ele>499.0</ele><time>2026-05-04T15:11:57.052Z</time></trkpt><trkpt lat="41.7233071" lon="13.5560474"><ele>499.0</ele><time>2026-05-04T15:11:58.052Z</time></trkpt><trkpt lat="41.723287" lon="13.555952"><ele>499.0</ele><time>2026-05-04T15:11:59.053Z</time></trkpt><trkpt lat="41.7232737" lon="13.5558579"><ele>502.2</ele><time>2026-05-04T15:12:00.053Z</time></trkpt><trkpt lat="41.7232552" lon="13.5557067"><ele>505.4</ele><time>2026-05-04T15:12:02.052Z</time></trkpt><trkpt lat="41.723181" lon="13.555614"><ele>508.6</ele><time>2026-05-04T15:12:04.053Z</time></trkpt><trkpt lat="41.7230514" lon="13.5556153"><ele>511.8</ele><time>2026-05-04T15:12:06.053Z</time></trkpt><trkpt lat="41.7229786" lon="13.5556467"><ele>515.0</ele><time>2026-05-04T15:12:07.053Z</time></trkpt><trkpt lat="41.7229195" lon="13.5556943"><ele>515.0</ele><time>2026-05-04T15:12:08.053Z</time></trkpt><trkpt lat="41.7228572" lon="13.555755"><ele>515.0</ele><time>2026-05-04T15:12:10.053Z</time></trkpt><trkpt lat="41.7227936" lon="13.5557082"><ele>515.0</ele><time>2026-05-04T15:12:18.053Z</time></trkpt><trkpt lat="41.7227101" lon="13.5555979"><ele>515.0</ele><time>2026-05-04T15:12:29.051Z</time></trkpt><trkpt lat="41.7226086" lon="13.5554984"><ele>515.0</ele><time>2026-05-04T15:12:31.052Z</time></trkpt><trkpt lat="41.7225471" lon="13.5554257"><ele>517.0</ele><time>2026-05-04T15:12:32.052Z</time></trkpt><trkpt lat="41.7224884" lon="13.5553381"><ele>519.0</ele><time>2026-05-04T15:12:33.052Z</time></trkpt><trkpt lat="41.7224294" lon="13.5552234"><ele>521.0</ele><time>2026-05-04T15:12:34.052Z</time></trkpt><trkpt lat="41.7223724" lon="13.5551148"><ele>523.0</ele><time>2026-05-04T15:12:35.051Z</time></trkpt><trkpt lat="41.7223256" lon="13.5550266"><ele>525.0</ele><time>2026-05-04T15:12:36.052Z</time></trkpt><trkpt lat="41.7222906" lon="13.5549486"><ele>527.0</ele><time>2026-05-04T15:12:37.052Z</time></trkpt><trkpt lat="41.722253" lon="13.5548411"><ele>527.0</ele><time>2026-05-04T15:12:39.052Z</time></trkpt><trkpt lat="41.7222598" lon="13.5547412"><ele>527.0</ele><time>2026-05-04T15:12:41.051Z</time></trkpt><trkpt lat="41.7222934" lon="13.5546358"><ele>527.0</ele><time>2026-05-04T15:12:43.051Z</time></trkpt><trkpt lat="41.7223428" lon="13.5545461"><ele>527.0</ele><time>2026-05-04T15:12:44.051Z</time></trkpt><trkpt lat="41.7224154" lon="13.5544188"><ele>527.0</ele><time>2026-05-04T15:12:45.052Z</time></trkpt><trkpt lat="41.7224966" lon="13.5542504"><ele>531.0</ele><time>2026-05-04T15:12:46.051Z</time></trkpt><trkpt lat="41.7225741" lon="13.5540465"><ele>535.0</ele><time>2026-05-04T15:12:47.052Z</time></trkpt><trkpt lat="41.7226469" lon="13.5538495"><ele>539.0</ele><time>2026-05-04T15:12:48.051Z</time></trkpt><trkpt lat="41.7227088" lon="13.5536554"><ele>548.5</ele><time>2026-05-04T15:12:49.051Z</time></trkpt><trkpt lat="41.7227662" lon="13.5534748"><ele>558.0</ele><time>2026-05-04T15:12:50.052Z</time></trkpt><trkpt lat="41.7228243" lon="13.5532996"><ele>567.5</ele><time>2026-05-04T15:12:51.052Z</time></trkpt><trkpt lat="41.7228959" lon="13.5531328"><ele>577.0</ele><time>2026-05-04T15:12:52.052Z</time></trkpt><trkpt lat="41.7229908" lon="13.5529804"><ele>578.3333333333334</ele><time>2026-05-04T15:12:53.052Z</time></trkpt><trkpt lat="41.7231035" lon="13.5528214"><ele>579.6666666666666</ele><time>2026-05-04T15:12:54.051Z</time></trkpt><trkpt lat="41.7232087" lon="13.552671"><ele>581.0</ele><time>2026-05-04T15:12:55.052Z</time></trkpt><trkpt lat="41.7233037" lon="13.5525399"><ele>581.0</ele><time>2026-05-04T15:12:56.052Z</time></trkpt><trkpt lat="41.7233791" lon="13.5524264"><ele>581.0</ele><time>2026-05-04T15:12:57.052Z</time></trkpt><trkpt lat="41.7234298" lon="13.5523101"><ele>581.0</ele><time>2026-05-04T15:12:58.052Z</time></trkpt><trkpt lat="41.7234678" lon="13.552178"><ele>581.0</ele><time>2026-05-04T15:12:59.052Z</time></trkpt><trkpt lat="41.7235054" lon="13.552031"><ele>581.0</ele><time>2026-05-04T15:13:00.051Z</time></trkpt><trkpt lat="41.7235403" lon="13.5519023"><ele>582.1666666666666</ele><time>2026-05-04T15:13:01.051Z</time></trkpt><trkpt lat="41.7235642" lon="13.5517999"><ele>583.3333333333333</ele><time>2026-05-04T15:13:02.052Z</time></trkpt><trkpt lat="41.7235771" lon="13.5517028"><ele>584.5</ele><time>2026-05-04T15:13:03.051Z</time></trkpt><trkpt lat="41.7235506" lon="13.5516233"><ele>585.6666666666666</ele><time>2026-05-04T15:13:04.052Z</time></trkpt><trkpt lat="41.7235078" lon="13.5515337"><ele>586.8333333333334</ele><time>2026-05-04T15:13:05.052Z</time></trkpt><trkpt lat="41.7234652" lon="13.551407"><ele>588.0</ele><time>2026-05-04T15:13:06.052Z</time></trkpt><trkpt lat="41.7234047" lon="13.5512456"><ele>591.8</ele><time>2026-05-04T15:13:07.051Z</time></trkpt><trkpt lat="41.7233504" lon="13.5510773"><ele>595.5999999999999</ele><time>2026-05-04T15:13:08.052Z</time></trkpt><trkpt lat="41.7233128" lon="13.55094"><ele>599.4000000000001</ele><time>2026-05-04T15:13:09.052Z</time></trkpt><trkpt lat="41.7232828" lon="13.5508472"><ele>603.2</ele><time>2026-05-04T15:13:10.052Z</time></trkpt><trkpt lat="41.7232684" lon="13.5507311"><ele>607.0</ele><time>2026-05-04T15:13:12.051Z</time></trkpt><trkpt lat="41.7233346" lon="13.5506794"><ele>607.0</ele><time>2026-05-04T15:13:15.052Z</time></trkpt><trkpt lat="41.7234022" lon="13.550771"><ele>607.0</ele><time>2026-05-04T15:13:24.051Z</time></trkpt><trkpt lat="41.7234591" lon="13.5508343"><ele>607.0</ele><time>2026-05-04T15:13:25.051Z</time></trkpt><trkpt lat="41.7235331" lon="13.550906"><ele>607.0</ele><time>2026-05-04T15:13:26.051Z</time></trkpt><trkpt lat="41.7236123" lon="13.550979"><ele>607.0</ele><time>2026-05-04T15:13:27.051Z</time></trkpt><trkpt lat="41.7237004" lon="13.5510525"><ele>610.5</ele><time>2026-05-04T15:13:28.051Z</time></trkpt><trkpt lat="41.7237949" lon="13.5511268"><ele>614.0</ele><time>2026-05-04T15:13:29.052Z</time></trkpt><trkpt lat="41.7238873" lon="13.5512001"><ele>617.5</ele><time>2026-05-04T15:13:30.051Z</time></trkpt><trkpt lat="41.7239823" lon="13.5512739"><ele>621.0</ele><time>2026-05-04T15:13:31.051Z</time></trkpt><trkpt lat="41.7240933" lon="13.5513586"><ele>621.0</ele><time>2026-05-04T15:13:32.052Z</time></trkpt><trkpt lat="41.7242182" lon="13.5514566"><ele>621.0</ele><time>2026-05-04T15:13:33.051Z</time></trkpt><trkpt lat="41.7243362" lon="13.5515725"><ele>621.0</ele><time>2026-05-04T15:13:34.051Z</time></trkpt><trkpt lat="41.724433" lon="13.5516885"><ele>621.0</ele><time>2026-05-04T15:13:35.051Z</time></trkpt><trkpt lat="41.7244924" lon="13.5517825"><ele>623.6666666666666</ele><time>2026-05-04T15:13:36.052Z</time></trkpt><trkpt lat="41.7245348" lon="13.5518659"><ele>626.3333333333334</ele><time>2026-05-04T15:13:37.051Z</time></trkpt><trkpt lat="41.724591" lon="13.5519584"><ele>629.0</ele><time>2026-05-04T15:13:39.051Z</time></trkpt><trkpt lat="41.7246456" lon="13.5520059"><ele>631.6666666666667</ele><time>2026-05-04T15:13:41.051Z</time></trkpt><trkpt lat="41.7247226" lon="13.5519888"><ele>634.3333333333334</ele><time>2026-05-04T15:13:44.051Z</time></trkpt><trkpt lat="41.7247922" lon="13.5519128"><ele>637.0</ele><time>2026-05-04T15:13:59.051Z</time></trkpt><trkpt lat="41.7248539" lon="13.551867"><ele>637.0</ele><time>2026-05-04T15:14:00.052Z</time></trkpt><trkpt lat="41.7249365" lon="13.5518119"><ele>637.0</ele><time>2026-05-04T15:14:01.051Z</time></trkpt><trkpt lat="41.7250288" lon="13.5517611"><ele>637.0</ele><time>2026-05-04T15:14:02.052Z</time></trkpt><trkpt lat="41.7251157" lon="13.5516959"><ele>637.0</ele><time>2026-05-04T15:14:03.051Z</time></trkpt><trkpt lat="41.7252067" lon="13.5515975"><ele>637.0</ele><time>2026-05-04T15:14:04.051Z</time></trkpt><trkpt lat="41.7252872" lon="13.5514961"><ele>634.8333333333334</ele><time>2026-05-04T15:14:05.052Z</time></trkpt><trkpt lat="41.7253515" lon="13.5514091"><ele>632.6666666666667</ele><time>2026-05-04T15:14:06.052Z</time></trkpt><trkpt lat="41.7254087" lon="13.5513448"><ele>630.5</ele><time>2026-05-04T15:14:07.052Z</time></trkpt><trkpt lat="41.7254729" lon="13.5512924"><ele>628.3333333333334</ele><time>2026-05-04T15:14:08.051Z</time></trkpt><trkpt lat="41.7255492" lon="13.551255"><ele>626.1666666666666</ele><time>2026-05-04T15:14:09.051Z</time></trkpt><trkpt lat="41.7256253" lon="13.5512265"><ele>624.0</ele><time>2026-05-04T15:14:10.051Z</time></trkpt><trkpt lat="41.7256916" lon="13.5511981"><ele>626.8</ele><time>2026-05-04T15:14:11.051Z</time></trkpt><trkpt lat="41.7257662" lon="13.5511618"><ele>629.5999999999999</ele><time>2026-05-04T15:14:12.051Z</time></trkpt><trkpt lat="41.7258568" lon="13.5511147"><ele>632.4</ele><time>2026-05-04T15:14:13.052Z</time></trkpt><trkpt lat="41.725956" lon="13.5510462"><ele>635.1999999999999</ele><time>2026-05-04T15:14:14.051Z</time></trkpt><trkpt lat="41.7260684" lon="13.5509558"><ele>638.0</ele><time>2026-05-04T15:14:15.052Z</time></trkpt><trkpt lat="41.7261788" lon="13.5508669"><ele>638.0</ele><time>2026-05-04T15:14:16.052Z</time></trkpt><trkpt lat="41.7262728" lon="13.5507955"><ele>638.0</ele><time>2026-05-04T15:14:17.051Z</time></trkpt><trkpt lat="41.7263536" lon="13.550741"><ele>638.0</ele><time>2026-05-04T15:14:18.052Z</time></trkpt><trkpt lat="41.7264251" lon="13.550684"><ele>638.0</ele><time>2026-05-04T15:14:19.052Z</time></trkpt><trkpt lat="41.7264932" lon="13.5506261"><ele>638.0</ele><time>2026-05-04T15:14:20.052Z</time></trkpt><trkpt lat="41.7265512" lon="13.5505655"><ele>638.0</ele><time>2026-05-04T15:14:21.052Z</time></trkpt><trkpt lat="41.7266067" lon="13.5504984"><ele>638.0</ele><time>2026-05-04T15:14:22.052Z</time></trkpt><trkpt lat="41.7266608" lon="13.5504289"><ele>638.0</ele><time>2026-05-04T15:14:23.051Z</time></trkpt><trkpt lat="41.7267164" lon="13.5503537"><ele>638.0</ele><time>2026-05-04T15:14:24.052Z</time></trkpt><trkpt lat="41.7267911" lon="13.5502864"><ele>638.0</ele><time>2026-05-04T15:14:25.051Z</time></trkpt><trkpt lat="41.7268737" lon="13.5502241"><ele>638.0</ele><time>2026-05-04T15:14:26.051Z</time></trkpt><trkpt lat="41.7269542" lon="13.5501764"><ele>638.0</ele><time>2026-05-04T15:14:27.051Z</time></trkpt><trkpt lat="41.7270462" lon="13.550142"><ele>641.8</ele><time>2026-05-04T15:14:28.051Z</time></trkpt><trkpt lat="41.7271417" lon="13.5501154"><ele>645.5999999999999</ele><time>2026-05-04T15:14:29.051Z</time></trkpt><trkpt lat="41.727241" lon="13.5500973"><ele>649.4000000000001</ele><time>2026-05-04T15:14:30.052Z</time></trkpt><trkpt lat="41.7273347" lon="13.55007"><ele>653.2</ele><time>2026-05-04T15:14:31.052Z</time></trkpt><trkpt lat="41.7274274" lon="13.5500408"><ele>657.0</ele><time>2026-05-04T15:14:32.051Z</time></trkpt><trkpt lat="41.7275126" lon="13.5500024"><ele>657.0</ele><time>2026-05-04T15:14:33.051Z</time></trkpt><trkpt lat="41.7275937" lon="13.5499573"><ele>657.0</ele><time>2026-05-04T15:14:34.051Z</time></trkpt><trkpt lat="41.7276589" lon="13.5499135"><ele>657.0</ele><time>2026-05-04T15:14:35.051Z</time></trkpt><trkpt lat="41.7277369" lon="13.5498067"><ele>657.0</ele><time>2026-05-04T15:14:37.052Z</time></trkpt><trkpt lat="41.7277683" lon="13.5496863"><ele>657.0</ele><time>2026-05-04T15:14:39.052Z</time></trkpt><trkpt lat="41.7277581" lon="13.5495195"><ele>660.2</ele><time>2026-05-04T15:14:41.051Z</time></trkpt><trkpt lat="41.7277361" lon="13.5494083"><ele>663.4000000000001</ele><time>2026-05-04T15:14:42.052Z</time></trkpt><trkpt lat="41.7277141" lon="13.5492927"><ele>666.5999999999999</ele><time>2026-05-04T15:14:43.052Z</time></trkpt><trkpt lat="41.7276953" lon="13.5491655"><ele>669.8</ele><time>2026-05-04T15:14:44.052Z</time></trkpt><trkpt lat="41.7276649" lon="13.5490438"><ele>673.0</ele><time>2026-05-04T15:14:45.052Z</time></trkpt><trkpt lat="41.7276293" lon="13.5489365"><ele>673.0</ele><time>2026-05-04T15:14:46.051Z</time></trkpt><trkpt lat="41.727603" lon="13.5488511"><ele>673.0</ele><time>2026-05-04T15:14:47.052Z</time></trkpt><trkpt lat="41.7275866" lon="13.5487267"><ele>673.0</ele><time>2026-05-04T15:14:49.052Z</time></trkpt><trkpt lat="41.7276376" lon="13.5485844"><ele>673.0</ele><time>2026-05-04T15:15:20.052Z</time></trkpt><trkpt lat="41.7276766" lon="13.5485096"><ele>673.0</ele><time>2026-05-04T15:15:21.052Z</time></trkpt><trkpt lat="41.7277227" lon="13.5484327"><ele>673.0</ele><time>2026-05-04T15:15:22.051Z</time></trkpt><trkpt lat="41.7277739" lon="13.5483622"><ele>671.7142857142858</ele><time>2026-05-04T15:15:23.052Z</time></trkpt><trkpt lat="41.7278211" lon="13.5482899"><ele>670.4285714285713</ele><time>2026-05-04T15:15:24.051Z</time></trkpt><trkpt lat="41.727857" lon="13.5482153"><ele>669.1428571428571</ele><time>2026-05-04T15:15:25.052Z</time></trkpt><trkpt lat="41.7278786" lon="13.5481348"><ele>667.8571428571429</ele><time>2026-05-04T15:15:26.051Z</time></trkpt><trkpt lat="41.7278987" lon="13.5480475"><ele>666.5714285714287</ele><time>2026-05-04T15:15:27.051Z</time></trkpt><trkpt lat="41.7279092" lon="13.5479603"><ele>665.2857142857142</ele><time>2026-05-04T15:15:28.052Z</time></trkpt><trkpt lat="41.7279179" lon="13.5478587"><ele>664.0</ele><time>2026-05-04T15:15:29.051Z</time></trkpt><trkpt lat="41.7279321" lon="13.5477555"><ele>664.0</ele><time>2026-05-04T15:15:30.051Z</time></trkpt><trkpt lat="41.7279496" lon="13.5476413"><ele>664.0</ele><time>2026-05-04T15:15:31.052Z</time></trkpt><trkpt lat="41.7279686" lon="13.5475331"><ele>664.0</ele><time>2026-05-04T15:15:32.051Z</time></trkpt><trkpt lat="41.7279817" lon="13.5474269"><ele>664.0</ele><time>2026-05-04T15:15:33.052Z</time></trkpt><trkpt lat="41.7279947" lon="13.5473332"><ele>664.0</ele><time>2026-05-04T15:15:34.051Z</time></trkpt><trkpt lat="41.7280254" lon="13.5471844"><ele>664.0</ele><time>2026-05-04T15:15:36.052Z</time></trkpt><trkpt lat="41.7280499" lon="13.5470828"><ele>667.5</ele><time>2026-05-04T15:15:38.051Z</time></trkpt><trkpt lat="41.7281192" lon="13.5470267"><ele>671.0</ele><time>2026-05-04T15:15:41.051Z</time></trkpt><trkpt lat="41.7281831" lon="13.5470156"><ele>674.5</ele><time>2026-05-04T15:15:43.052Z</time></trkpt><trkpt lat="41.7282692" lon="13.5469966"><ele>678.0</ele><time>2026-05-04T15:15:45.051Z</time></trkpt><trkpt lat="41.728351" lon="13.5469649"><ele>681.5</ele><time>2026-05-04T15:15:46.052Z</time></trkpt><trkpt lat="41.7284386" lon="13.546936"><ele>685.0</ele><time>2026-05-04T15:15:47.052Z</time></trkpt><trkpt lat="41.7285105" lon="13.5468902"><ele>680.3333333333334</ele><time>2026-05-04T15:15:48.052Z</time></trkpt><trkpt lat="41.7286101" lon="13.5467888"><ele>675.6666666666667</ele><time>2026-05-04T15:15:50.052Z</time></trkpt><trkpt lat="41.7286558" lon="13.5467217"><ele>671.0</ele><time>2026-05-04T15:15:51.052Z</time></trkpt><trkpt lat="41.7286942" lon="13.5466453"><ele>666.3333333333334</ele><time>2026-05-04T15:15:52.052Z</time></trkpt><trkpt lat="41.7287376" lon="13.5465759"><ele>661.6666666666666</ele><time>2026-05-04T15:15:53.051Z</time></trkpt><trkpt lat="41.7288198" lon="13.5464659"><ele>657.0</ele><time>2026-05-04T15:15:55.052Z</time></trkpt><trkpt lat="41.7288778" lon="13.5463902"><ele>657.0</ele><time>2026-05-04T15:15:56.052Z</time></trkpt><trkpt lat="41.7289252" lon="13.546317"><ele>657.0</ele><time>2026-05-04T15:15:57.052Z</time></trkpt><trkpt lat="41.7289782" lon="13.5461823"><ele>657.0</ele><time>2026-05-04T15:15:59.051Z</time></trkpt><trkpt lat="41.7289806" lon="13.5460584"><ele>657.0</ele><time>2026-05-04T15:16:01.052Z</time></trkpt><trkpt lat="41.7289542" lon="13.5459665"><ele>657.0</ele><time>2026-05-04T15:16:03.051Z</time></trkpt><trkpt lat="41.7288838" lon="13.545806"><ele>660.8</ele><time>2026-05-04T15:16:47.051Z</time></trkpt><trkpt lat="41.7288953" lon="13.5456713"><ele>664.6</ele><time>2026-05-04T15:16:49.051Z</time></trkpt><trkpt lat="41.7289283" lon="13.5455883"><ele>668.4</ele><time>2026-05-04T15:16:50.052Z</time></trkpt><trkpt lat="41.7290073" lon="13.5454759"><ele>672.1999999999999</ele><time>2026-05-04T15:16:52.051Z</time></trkpt><trkpt lat="41.7291084" lon="13.5453803"><ele>676.0</ele><time>2026-05-04T15:16:54.051Z</time></trkpt><trkpt lat="41.7291541" lon="13.5453201"><ele>679.6666666666667</ele><time>2026-05-04T15:16:55.052Z</time></trkpt><trkpt lat="41.7291842" lon="13.5452413"><ele>683.3333333333334</ele><time>2026-05-04T15:16:56.051Z</time></trkpt><trkpt lat="41.7292017" lon="13.5451565"><ele>687.0</ele><time>2026-05-04T15:16:57.051Z</time></trkpt><trkpt lat="41.7292167" lon="13.545054"><ele>690.6666666666666</ele><time>2026-05-04T15:16:58.051Z</time></trkpt><trkpt lat="41.7292342" lon="13.5449649"><ele>694.3333333333333</ele><time>2026-05-04T15:16:59.052Z</time></trkpt><trkpt lat="41.7292929" lon="13.544841"><ele>698.0</ele><time>2026-05-04T15:17:01.051Z</time></trkpt><trkpt lat="41.7293777" lon="13.5447534"><ele>693.4</ele><time>2026-05-04T15:17:03.052Z</time></trkpt><trkpt lat="41.7294503" lon="13.5446545"><ele>688.8</ele><time>2026-05-04T15:17:05.051Z</time></trkpt><trkpt lat="41.7294716" lon="13.5445188"><ele>684.2</ele><time>2026-05-04T15:17:07.052Z</time></trkpt><trkpt lat="41.7294667" lon="13.5443305"><ele>679.6</ele><time>2026-05-04T15:17:09.052Z</time></trkpt><trkpt lat="41.7294743" lon="13.5442233"><ele>675.0</ele><time>2026-05-04T15:17:10.051Z</time></trkpt><trkpt lat="41.7294774" lon="13.5441204"><ele>675.0</ele><time>2026-05-04T15:17:11.052Z</time></trkpt><trkpt lat="41.7294781" lon="13.544008"><ele>675.0</ele><time>2026-05-04T15:17:12.052Z</time></trkpt><trkpt lat="41.7294738" lon="13.5438927"><ele>675.0</ele><time>2026-05-04T15:17:13.052Z</time></trkpt><trkpt lat="41.7294616" lon="13.5437853"><ele>675.0</ele><time>2026-05-04T15:17:14.051Z</time></trkpt><trkpt lat="41.7294515" lon="13.5436974"><ele>675.0</ele><time>2026-05-04T15:17:15.052Z</time></trkpt><trkpt lat="41.7294335" lon="13.5435614"><ele>675.0</ele><time>2026-05-04T15:17:17.052Z</time></trkpt><trkpt lat="41.7294515" lon="13.5434504"><ele>678.2</ele><time>2026-05-04T15:17:20.052Z</time></trkpt><trkpt lat="41.7295196" lon="13.5433545"><ele>681.4</ele><time>2026-05-04T15:17:23.051Z</time></trkpt><trkpt lat="41.7295523" lon="13.5432812"><ele>684.5999999999999</ele><time>2026-05-04T15:17:24.052Z</time></trkpt><trkpt lat="41.7295959" lon="13.5431744"><ele>687.8</ele><time>2026-05-04T15:17:25.052Z</time></trkpt><trkpt lat="41.7296751" lon="13.5430147"><ele>691.0</ele><time>2026-05-04T15:17:26.052Z</time></trkpt><trkpt lat="41.7297693" lon="13.5428478"><ele>694.4</ele><time>2026-05-04T15:17:27.051Z</time></trkpt><trkpt lat="41.7298577" lon="13.5427011"><ele>697.8</ele><time>2026-05-04T15:17:28.052Z</time></trkpt><trkpt lat="41.7299391" lon="13.5425716"><ele>701.1999999999999</ele><time>2026-05-04T15:17:29.052Z</time></trkpt><trkpt lat="41.7300018" lon="13.5424759"><ele>704.5999999999999</ele><time>2026-05-04T15:17:30.051Z</time></trkpt><trkpt lat="41.7300541" lon="13.5424108"><ele>708.0</ele><time>2026-05-04T15:17:31.051Z</time></trkpt><trkpt lat="41.7301296" lon="13.5423747"><ele>711.5999999999999</ele><time>2026-05-04T15:17:33.051Z</time></trkpt><trkpt lat="41.7302296" lon="13.542426"><ele>715.1999999999999</ele><time>2026-05-04T15:17:35.051Z</time></trkpt><trkpt lat="41.7302759" lon="13.542533"><ele>718.8</ele><time>2026-05-04T15:17:37.051Z</time></trkpt><trkpt lat="41.7302952" lon="13.5426483"><ele>722.4</ele><time>2026-05-04T15:17:38.051Z</time></trkpt><trkpt lat="41.7303069" lon="13.5428006"><ele>726.0</ele><time>2026-05-04T15:17:39.052Z</time></trkpt><trkpt lat="41.7303144" lon="13.5429513"><ele>726.0</ele><time>2026-05-04T15:17:40.051Z</time></trkpt><trkpt lat="41.730337" lon="13.5430914"><ele>726.0</ele><time>2026-05-04T15:17:41.051Z</time></trkpt><trkpt lat="41.730364" lon="13.543224"><ele>726.0</ele><time>2026-05-04T15:17:42.051Z</time></trkpt><trkpt lat="41.7303994" lon="13.5433431"><ele>726.0</ele><time>2026-05-04T15:17:43.052Z</time></trkpt><trkpt lat="41.730436" lon="13.5434554"><ele>726.0</ele><time>2026-05-04T15:17:44.052Z</time></trkpt><trkpt lat="41.7304832" lon="13.5435677"><ele>726.0</ele><time>2026-05-04T15:17:45.051Z</time></trkpt><trkpt lat="41.7305382" lon="13.5436697"><ele>726.0</ele><time>2026-05-04T15:17:46.051Z</time></trkpt><trkpt lat="41.7306044" lon="13.5437676"><ele>726.0</ele><time>2026-05-04T15:17:47.051Z</time></trkpt><trkpt lat="41.7306734" lon="13.5438657"><ele>726.0</ele><time>2026-05-04T15:17:48.051Z</time></trkpt><trkpt lat="41.7307474" lon="13.5439628"><ele>726.0</ele><time>2026-05-04T15:17:49.051Z</time></trkpt><trkpt lat="41.7308207" lon="13.5440533"><ele>725.6666666666666</ele><time>2026-05-04T15:17:50.052Z</time></trkpt><trkpt lat="41.7308924" lon="13.5441421"><ele>725.3333333333334</ele><time>2026-05-04T15:17:51.051Z</time></trkpt><trkpt lat="41.7309597" lon="13.544223"><ele>725.0</ele><time>2026-05-04T15:17:52.05Z</time></trkpt><trkpt lat="41.7310234" lon="13.5443041"><ele>724.6666666666667</ele><time>2026-05-04T15:17:53.05Z</time></trkpt><trkpt lat="41.7310812" lon="13.5443794"><ele>724.3333333333334</ele><time>2026-05-04T15:17:54.05Z</time></trkpt><trkpt lat="41.7311288" lon="13.5444524"><ele>724.0</ele><time>2026-05-04T15:17:55.051Z</time></trkpt><trkpt lat="41.7311764" lon="13.5445241"><ele>718.0</ele><time>2026-05-04T15:17:56.051Z</time></trkpt><trkpt lat="41.7312653" lon="13.5446236"><ele>712.0</ele><time>2026-05-04T15:17:58.051Z</time></trkpt><trkpt lat="41.7313561" lon="13.5446819"><ele>706.0</ele><time>2026-05-04T15:18:00.051Z</time></trkpt><trkpt lat="41.7314483" lon="13.5446709"><ele>700.0</ele><time>2026-05-04T15:18:02.051Z</time></trkpt><trkpt lat="41.7315253" lon="13.5446277"><ele>694.0</ele><time>2026-05-04T15:18:04.051Z</time></trkpt><trkpt lat="41.7316033" lon="13.5445761"><ele>699.2</ele><time>2026-05-04T15:18:06.051Z</time></trkpt><trkpt lat="41.731672" lon="13.5445235"><ele>704.4000000000001</ele><time>2026-05-04T15:18:08.051Z</time></trkpt><trkpt lat="41.7317791" lon="13.544453"><ele>709.6</ele><time>2026-05-04T15:18:10.05Z</time></trkpt><trkpt lat="41.7318989" lon="13.5444155"><ele>714.8</ele><time>2026-05-04T15:18:12.05Z</time></trkpt><trkpt lat="41.7319669" lon="13.5444094"><ele>720.0</ele><time>2026-05-04T15:18:13.051Z</time></trkpt><trkpt lat="41.732034" lon="13.5444001"><ele>720.0</ele><time>2026-05-04T15:18:14.05Z</time></trkpt><trkpt lat="41.732103" lon="13.5443815"><ele>720.0</ele><time>2026-05-04T15:18:15.05Z</time></trkpt><trkpt lat="41.7321729" lon="13.5443449"><ele>720.0</ele><time>2026-05-04T15:18:16.051Z</time></trkpt><trkpt lat="41.7322396" lon="13.5442919"><ele>720.0</ele><time>2026-05-04T15:18:17.051Z</time></trkpt><trkpt lat="41.7323034" lon="13.5442427"><ele>720.0</ele><time>2026-05-04T15:18:18.05Z</time></trkpt><trkpt lat="41.7323649" lon="13.5442025"><ele>720.0</ele><time>2026-05-04T15:18:19.051Z</time></trkpt><trkpt lat="41.7324329" lon="13.5441724"><ele>720.0</ele><time>2026-05-04T15:18:20.05Z</time></trkpt><trkpt lat="41.7324998" lon="13.5441671"><ele>720.0</ele><time>2026-05-04T15:18:21.051Z</time></trkpt><trkpt lat="41.7325725" lon="13.5441636"><ele>720.0</ele><time>2026-05-04T15:18:22.051Z</time></trkpt><trkpt lat="41.732649" lon="13.5441541"><ele>720.0</ele><time>2026-05-04T15:18:23.051Z</time></trkpt><trkpt lat="41.7327283" lon="13.5441308"><ele>720.0</ele><time>2026-05-04T15:18:24.051Z</time></trkpt><trkpt lat="41.7328165" lon="13.5441006"><ele>720.0</ele><time>2026-05-04T15:18:25.05Z</time></trkpt><trkpt lat="41.7329027" lon="13.5440536"><ele>720.0</ele><time>2026-05-04T15:18:26.05Z</time></trkpt><trkpt lat="41.7329832" lon="13.5439976"><ele>717.25</ele><time>2026-05-04T15:18:27.05Z</time></trkpt><trkpt lat="41.7330744" lon="13.5439463"><ele>714.5</ele><time>2026-05-04T15:18:28.051Z</time></trkpt><trkpt lat="41.7331763" lon="13.5438842"><ele>711.75</ele><time>2026-05-04T15:18:29.05Z</time></trkpt><trkpt lat="41.733286" lon="13.5438272"><ele>709.0</ele><time>2026-05-04T15:18:30.051Z</time></trkpt><trkpt lat="41.7334053" lon="13.54378"><ele>709.0</ele><time>2026-05-04T15:18:31.051Z</time></trkpt><trkpt lat="41.733531" lon="13.5437488"><ele>709.0</ele><time>2026-05-04T15:18:32.05Z</time></trkpt><trkpt lat="41.7336452" lon="13.5437202"><ele>709.0</ele><time>2026-05-04T15:18:33.05Z</time></trkpt><trkpt lat="41.7337657" lon="13.5436953"><ele>709.0</ele><time>2026-05-04T15:18:34.051Z</time></trkpt><trkpt lat="41.7338955" lon="13.5436646"><ele>712.75</ele><time>2026-05-04T15:18:35.051Z</time></trkpt><trkpt lat="41.7340166" lon="13.543645"><ele>716.5</ele><time>2026-05-04T15:18:36.051Z</time></trkpt><trkpt lat="41.734131" lon="13.5436231"><ele>720.25</ele><time>2026-05-04T15:18:37.051Z</time></trkpt><trkpt lat="41.7342349" lon="13.5435986"><ele>724.0</ele><time>2026-05-04T15:18:38.05Z</time></trkpt><trkpt lat="41.7343399" lon="13.5435601"><ele>723.25</ele><time>2026-05-04T15:18:39.051Z</time></trkpt><trkpt lat="41.7344519" lon="13.5435045"><ele>722.5</ele><time>2026-05-04T15:18:40.05Z</time></trkpt><trkpt lat="41.7345744" lon="13.5434448"><ele>721.75</ele><time>2026-05-04T15:18:41.05Z</time></trkpt><trkpt lat="41.7346904" lon="13.5433885"><ele>721.0</ele><time>2026-05-04T15:18:42.051Z</time></trkpt><trkpt lat="41.7347986" lon="13.5433475"><ele>721.0</ele><time>2026-05-04T15:18:43.05Z</time></trkpt><trkpt lat="41.7349138" lon="13.5433158"><ele>721.0</ele><time>2026-05-04T15:18:44.051Z</time></trkpt><trkpt lat="41.7350187" lon="13.5432916"><ele>721.0</ele><time>2026-05-04T15:18:45.051Z</time></trkpt><trkpt lat="41.7351152" lon="13.5432738"><ele>721.0</ele><time>2026-05-04T15:18:46.05Z</time></trkpt><trkpt lat="41.7352093" lon="13.5432595"><ele>721.0</ele><time>2026-05-04T15:18:47.05Z</time></trkpt><trkpt lat="41.7352887" lon="13.5432581"><ele>722.3333333333334</ele><time>2026-05-04T15:18:48.05Z</time></trkpt><trkpt lat="41.7353697" lon="13.5432569"><ele>723.6666666666667</ele><time>2026-05-04T15:18:49.051Z</time></trkpt><trkpt lat="41.735445" lon="13.5432538"><ele>725.0</ele><time>2026-05-04T15:18:50.05Z</time></trkpt><trkpt lat="41.7355216" lon="13.5432407"><ele>726.3333333333334</ele><time>2026-05-04T15:18:51.05Z</time></trkpt><trkpt lat="41.7355946" lon="13.5432105"><ele>727.6666666666666</ele><time>2026-05-04T15:18:52.05Z</time></trkpt><trkpt lat="41.7356688" lon="13.5431739"><ele>729.0</ele><time>2026-05-04T15:18:53.051Z</time></trkpt><trkpt lat="41.735746" lon="13.5431344"><ele>729.0</ele><time>2026-05-04T15:18:54.05Z</time></trkpt><trkpt lat="41.735818" lon="13.5430916"><ele>729.0</ele><time>2026-05-04T15:18:55.05Z</time></trkpt><trkpt lat="41.7358848" lon="13.5430569"><ele>729.0</ele><time>2026-05-04T15:18:56.05Z</time></trkpt><trkpt lat="41.7359896" lon="13.5430311"><ele>729.0</ele><time>2026-05-04T15:18:58.051Z</time></trkpt><trkpt lat="41.7360877" lon="13.5430098"><ele>729.0</ele><time>2026-05-04T15:19:00.05Z</time></trkpt><trkpt lat="41.7361846" lon="13.5430299"><ele>731.6</ele><time>2026-05-04T15:19:02.05Z</time></trkpt><trkpt lat="41.7362831" lon="13.5430411"><ele>734.2</ele><time>2026-05-04T15:19:04.051Z</time></trkpt><trkpt lat="41.7363548" lon="13.5430057"><ele>736.8000000000001</ele><time>2026-05-04T15:19:06.051Z</time></trkpt><trkpt lat="41.7364405" lon="13.5428901"><ele>739.4000000000001</ele><time>2026-05-04T15:19:08.051Z</time></trkpt><trkpt lat="41.7365002" lon="13.5428269"><ele>742.0</ele><time>2026-05-04T15:19:09.051Z</time></trkpt><trkpt lat="41.7365623" lon="13.5427468"><ele>743.1666666666667</ele><time>2026-05-04T15:19:10.051Z</time></trkpt><trkpt lat="41.7366176" lon="13.5426652"><ele>744.3333333333334</ele><time>2026-05-04T15:19:11.05Z</time></trkpt><trkpt lat="41.7366715" lon="13.5425802"><ele>745.5</ele><time>2026-05-04T15:19:12.051Z</time></trkpt><trkpt lat="41.7367203" lon="13.5424902"><ele>746.6666666666666</ele><time>2026-05-04T15:19:13.051Z</time></trkpt><trkpt lat="41.7367594" lon="13.5423851"><ele>747.8333333333333</ele><time>2026-05-04T15:19:14.051Z</time></trkpt><trkpt lat="41.7367814" lon="13.5422676"><ele>749.0</ele><time>2026-05-04T15:19:15.05Z</time></trkpt><trkpt lat="41.7368124" lon="13.5421335"><ele>752.8000000000001</ele><time>2026-05-04T15:19:16.05Z</time></trkpt><trkpt lat="41.7368555" lon="13.5420099"><ele>756.6</ele><time>2026-05-04T15:19:17.051Z</time></trkpt><trkpt lat="41.7369073" lon="13.5419158"><ele>760.4</ele><time>2026-05-04T15:19:18.05Z</time></trkpt><trkpt lat="41.7369715" lon="13.5418414"><ele>764.2</ele><time>2026-05-04T15:19:19.05Z</time></trkpt><trkpt lat="41.7370459" lon="13.5417738"><ele>768.0</ele><time>2026-05-04T15:19:20.05Z</time></trkpt><trkpt lat="41.7371149" lon="13.5416934"><ele>768.0</ele><time>2026-05-04T15:19:21.05Z</time></trkpt><trkpt lat="41.7371854" lon="13.5415934"><ele>768.0</ele><time>2026-05-04T15:19:22.051Z</time></trkpt><trkpt lat="41.7372434" lon="13.5414802"><ele>768.0</ele><time>2026-05-04T15:19:23.051Z</time></trkpt><trkpt lat="41.737311" lon="13.5413564"><ele>768.0</ele><time>2026-05-04T15:19:24.051Z</time></trkpt><trkpt lat="41.7373801" lon="13.5412277"><ele>768.0</ele><time>2026-05-04T15:19:25.051Z</time></trkpt><trkpt lat="41.7374507" lon="13.5410877"><ele>767.0</ele><time>2026-05-04T15:19:26.05Z</time></trkpt><trkpt lat="41.7375065" lon="13.540932"><ele>766.0</ele><time>2026-05-04T15:19:27.051Z</time></trkpt><trkpt lat="41.7375517" lon="13.5407661"><ele>765.0</ele><time>2026-05-04T15:19:28.05Z</time></trkpt><trkpt lat="41.7375856" lon="13.5405958"><ele>764.0</ele><time>2026-05-04T15:19:29.051Z</time></trkpt><trkpt lat="41.7376096" lon="13.5404197"><ele>767.4000000000001</ele><time>2026-05-04T15:19:30.051Z</time></trkpt><trkpt lat="41.7376287" lon="13.5402353"><ele>770.8</ele><time>2026-05-04T15:19:31.051Z</time></trkpt><trkpt lat="41.7376431" lon="13.5400778"><ele>774.2</ele><time>2026-05-04T15:19:32.05Z</time></trkpt><trkpt lat="41.737674" lon="13.539948"><ele>777.5999999999999</ele><time>2026-05-04T15:19:33.051Z</time></trkpt><trkpt lat="41.7376978" lon="13.5398356"><ele>781.0</ele><time>2026-05-04T15:19:34.05Z</time></trkpt><trkpt lat="41.7377297" lon="13.5397355"><ele>781.1666666666666</ele><time>2026-05-04T15:19:35.051Z</time></trkpt><trkpt lat="41.7377598" lon="13.5396502"><ele>781.3333333333333</ele><time>2026-05-04T15:19:36.051Z</time></trkpt><trkpt lat="41.7378186" lon="13.5395036"><ele>781.5</ele><time>2026-05-04T15:19:38.05Z</time></trkpt><trkpt lat="41.7378593" lon="13.539424"><ele>781.6666666666667</ele><time>2026-05-04T15:19:39.05Z</time></trkpt><trkpt lat="41.7379031" lon="13.5393521"><ele>781.8333333333334</ele><time>2026-05-04T15:19:40.051Z</time></trkpt><trkpt lat="41.7379697" lon="13.5392747"><ele>782.0</ele><time>2026-05-04T15:19:41.051Z</time></trkpt><trkpt lat="41.7380501" lon="13.5391796"><ele>783.5</ele><time>2026-05-04T15:19:42.051Z</time></trkpt><trkpt lat="41.7381559" lon="13.5390947"><ele>785.0</ele><time>2026-05-04T15:19:43.051Z</time></trkpt><trkpt lat="41.7382649" lon="13.5390224"><ele>786.5</ele><time>2026-05-04T15:19:44.05Z</time></trkpt><trkpt lat="41.738381" lon="13.5389615"><ele>788.0</ele><time>2026-05-04T15:19:45.051Z</time></trkpt><trkpt lat="41.7384897" lon="13.538901"><ele>791.5999999999999</ele><time>2026-05-04T15:19:46.051Z</time></trkpt><trkpt lat="41.7385796" lon="13.5388414"><ele>795.1999999999999</ele><time>2026-05-04T15:19:47.051Z</time></trkpt><trkpt lat="41.7386596" lon="13.5387963"><ele>798.8</ele><time>2026-05-04T15:19:48.05Z</time></trkpt><trkpt lat="41.7387202" lon="13.538764"><ele>802.4</ele><time>2026-05-04T15:19:49.05Z</time></trkpt><trkpt lat="41.7388116" lon="13.5387205"><ele>806.0</ele><time>2026-05-04T15:19:51.051Z</time></trkpt><trkpt lat="41.7389066" lon="13.5386469"><ele>807.3333333333334</ele><time>2026-05-04T15:19:53.05Z</time></trkpt><trkpt lat="41.7389776" lon="13.5385344"><ele>808.6666666666667</ele><time>2026-05-04T15:19:55.051Z</time></trkpt><trkpt lat="41.7390134" lon="13.5384572"><ele>810.0</ele><time>2026-05-04T15:19:56.051Z</time></trkpt><trkpt lat="41.7390548" lon="13.5383738"><ele>811.3333333333333</ele><time>2026-05-04T15:19:57.051Z</time></trkpt><trkpt lat="41.7390961" lon="13.5382876"><ele>812.6666666666666</ele><time>2026-05-04T15:19:58.051Z</time></trkpt><trkpt lat="41.7391494" lon="13.5382086"><ele>814.0</ele><time>2026-05-04T15:19:59.05Z</time></trkpt><trkpt lat="41.739213" lon="13.5381331"><ele>814.0</ele><time>2026-05-04T15:20:00.05Z</time></trkpt><trkpt lat="41.7392886" lon="13.5380658"><ele>814.0</ele><time>2026-05-04T15:20:01.05Z</time></trkpt><trkpt lat="41.7393662" lon="13.5380084"><ele>814.0</ele><time>2026-05-04T15:20:02.051Z</time></trkpt><trkpt lat="41.7394549" lon="13.5379566"><ele>814.0</ele><time>2026-05-04T15:20:03.05Z</time></trkpt><trkpt lat="41.7395675" lon="13.5378944"><ele>814.0</ele><time>2026-05-04T15:20:04.051Z</time></trkpt><trkpt lat="41.739684" lon="13.5378242"><ele>818.4000000000001</ele><time>2026-05-04T15:20:05.05Z</time></trkpt><trkpt lat="41.7397973" lon="13.5377734"><ele>822.8</ele><time>2026-05-04T15:20:06.051Z</time></trkpt><trkpt lat="41.7398917" lon="13.5377355"><ele>827.2</ele><time>2026-05-04T15:20:07.051Z</time></trkpt><trkpt lat="41.739971" lon="13.5377117"><ele>831.5999999999999</ele><time>2026-05-04T15:20:08.051Z</time></trkpt><trkpt lat="41.7400456" lon="13.5376888"><ele>836.0</ele><time>2026-05-04T15:20:09.051Z</time></trkpt><trkpt lat="41.740129" lon="13.5376551"><ele>836.0</ele><time>2026-05-04T15:20:11.051Z</time></trkpt><trkpt lat="41.7402017" lon="13.5376521"><ele>836.0</ele><time>2026-05-04T15:20:13.05Z</time></trkpt><trkpt lat="41.74032" lon="13.5376272"><ele>836.0</ele><time>2026-05-04T15:20:15.051Z</time></trkpt><trkpt lat="41.7404043" lon="13.537614"><ele>836.0</ele><time>2026-05-04T15:20:16.051Z</time></trkpt><trkpt lat="41.7404909" lon="13.5375952"><ele>836.0</ele><time>2026-05-04T15:20:17.05Z</time></trkpt><trkpt lat="41.740584" lon="13.5375717"><ele>838.5999999999999</ele><time>2026-05-04T15:20:18.05Z</time></trkpt><trkpt lat="41.7406755" lon="13.5375319"><ele>841.2</ele><time>2026-05-04T15:20:19.05Z</time></trkpt><trkpt lat="41.7407617" lon="13.5374943"><ele>843.8</ele><time>2026-05-04T15:20:20.05Z</time></trkpt><trkpt lat="41.7408401" lon="13.5374569"><ele>846.4000000000001</ele><time>2026-05-04T15:20:21.051Z</time></trkpt><trkpt lat="41.7409276" lon="13.537435"><ele>849.0</ele><time>2026-05-04T15:20:22.051Z</time></trkpt><trkpt lat="41.7410328" lon="13.5374163"><ele>853.0</ele><time>2026-05-04T15:20:23.05Z</time></trkpt><trkpt lat="41.741146" lon="13.5374046"><ele>857.0</ele><time>2026-05-04T15:20:24.051Z</time></trkpt><trkpt lat="41.7412646" lon="13.5373974"><ele>861.0</ele><time>2026-05-04T15:20:25.05Z</time></trkpt><trkpt lat="41.7413868" lon="13.5373999"><ele>865.0</ele><time>2026-05-04T15:20:26.05Z</time></trkpt><trkpt lat="41.741524" lon="13.5373737"><ele>865.0</ele><time>2026-05-04T15:20:27.051Z</time></trkpt><trkpt lat="41.7416551" lon="13.53735"><ele>865.0</ele><time>2026-05-04T15:20:28.051Z</time></trkpt><trkpt lat="41.7417799" lon="13.5373259"><ele>865.0</ele><time>2026-05-04T15:20:29.051Z</time></trkpt><trkpt lat="41.7418961" lon="13.5373257"><ele>865.0</ele><time>2026-05-04T15:20:30.05Z</time></trkpt><trkpt lat="41.742013" lon="13.5373307"><ele>868.8</ele><time>2026-05-04T15:20:31.051Z</time></trkpt><trkpt lat="41.7421274" lon="13.5373469"><ele>872.6</ele><time>2026-05-04T15:20:32.05Z</time></trkpt><trkpt lat="41.7422287" lon="13.5373649"><ele>876.4000000000001</ele><time>2026-05-04T15:20:33.051Z</time></trkpt><trkpt lat="41.7423202" lon="13.5373684"><ele>880.2</ele><time>2026-05-04T15:20:34.05Z</time></trkpt><trkpt lat="41.7424108" lon="13.537365"><ele>884.0</ele><time>2026-05-04T15:20:35.05Z</time></trkpt><trkpt lat="41.7424868" lon="13.5373411"><ele>884.0</ele><time>2026-05-04T15:20:36.051Z</time></trkpt><trkpt lat="41.7425703" lon="13.5373395"><ele>884.0000000000001</ele><time>2026-05-04T15:20:37.051Z</time></trkpt><trkpt lat="41.7426665" lon="13.5373393"><ele>884.0000000000001</ele><time>2026-05-04T15:20:38.051Z</time></trkpt><trkpt lat="41.7427793" lon="13.5373566"><ele>884.0</ele><time>2026-05-04T15:20:39.05Z</time></trkpt><trkpt lat="41.7428974" lon="13.5373951"><ele>884.0</ele><time>2026-05-04T15:20:40.051Z</time></trkpt><trkpt lat="41.7430006" lon="13.5374578"><ele>888.6</ele><time>2026-05-04T15:20:41.05Z</time></trkpt><trkpt lat="41.7430926" lon="13.5375446"><ele>893.2</ele><time>2026-05-04T15:20:42.051Z</time></trkpt><trkpt lat="41.7431681" lon="13.5376578"><ele>897.8000000000001</ele><time>2026-05-04T15:20:43.051Z</time></trkpt><trkpt lat="41.7432432" lon="13.5377537"><ele>902.4000000000001</ele><time>2026-05-04T15:20:44.051Z</time></trkpt><trkpt lat="41.7433134" lon="13.5378445"><ele>907.0</ele><time>2026-05-04T15:20:45.05Z</time></trkpt><trkpt lat="41.7433825" lon="13.537918"><ele>908.4000000000001</ele><time>2026-05-04T15:20:46.051Z</time></trkpt><trkpt lat="41.7434545" lon="13.5379704"><ele>909.8000000000001</ele><time>2026-05-04T15:20:47.051Z</time></trkpt><trkpt lat="41.7435415" lon="13.5380003"><ele>911.2</ele><time>2026-05-04T15:20:48.05Z</time></trkpt><trkpt lat="41.7436416" lon="13.5380087"><ele>912.6</ele><time>2026-05-04T15:20:49.051Z</time></trkpt><trkpt lat="41.7437522" lon="13.5380042"><ele>914.0</ele><time>2026-05-04T15:20:50.05Z</time></trkpt><trkpt lat="41.7438537" lon="13.5379949"><ele>917.1666666666667</ele><time>2026-05-04T15:20:51.051Z</time></trkpt><trkpt lat="41.7439407" lon="13.5380034"><ele>920.3333333333334</ele><time>2026-05-04T15:20:52.051Z</time></trkpt><trkpt lat="41.744007" lon="13.5380198"><ele>923.5</ele><time>2026-05-04T15:20:53.05Z</time></trkpt><trkpt lat="41.7440757" lon="13.5380533"><ele>926.6666666666667</ele><time>2026-05-04T15:20:54.05Z</time></trkpt><trkpt lat="41.7441507" lon="13.5381071"><ele>929.8333333333334</ele><time>2026-05-04T15:20:55.05Z</time></trkpt><trkpt lat="41.7442306" lon="13.5381548"><ele>933.0</ele><time>2026-05-04T15:20:56.05Z</time></trkpt><trkpt lat="41.7443142" lon="13.5381818"><ele>935.0</ele><time>2026-05-04T15:20:57.05Z</time></trkpt><trkpt lat="41.7444088" lon="13.5381722"><ele>937.0</ele><time>2026-05-04T15:20:58.051Z</time></trkpt><trkpt lat="41.7444972" lon="13.5381422"><ele>939.0</ele><time>2026-05-04T15:20:59.051Z</time></trkpt><trkpt lat="41.7445903" lon="13.5381045"><ele>941.0</ele><time>2026-05-04T15:21:00.05Z</time></trkpt><trkpt lat="41.7447003" lon="13.5380796"><ele>943.0</ele><time>2026-05-04T15:21:01.051Z</time></trkpt><trkpt lat="41.7448317" lon="13.5380635"><ele>943.0</ele><time>2026-05-04T15:21:02.05Z</time></trkpt><trkpt lat="41.744968" lon="13.5380499"><ele>943.0</ele><time>2026-05-04T15:21:03.05Z</time></trkpt><trkpt lat="41.7451064" lon="13.5380623"><ele>943.0</ele><time>2026-05-04T15:21:04.051Z</time></trkpt><trkpt lat="41.7452727" lon="13.538083"><ele>943.0</ele><time>2026-05-04T15:21:05.05Z</time></trkpt><trkpt lat="41.7454321" lon="13.5380832"><ele>944.6666666666666</ele><time>2026-05-04T15:21:06.051Z</time></trkpt><trkpt lat="41.7455836" lon="13.538043"><ele>946.3333333333333</ele><time>2026-05-04T15:21:07.051Z</time></trkpt><trkpt lat="41.7457486" lon="13.5379955"><ele>948.0</ele><time>2026-05-04T15:21:08.051Z</time></trkpt><trkpt lat="41.7459009" lon="13.5379469"><ele>948.0</ele><time>2026-05-04T15:21:09.051Z</time></trkpt><trkpt lat="41.7460412" lon="13.537906"><ele>948.0</ele><time>2026-05-04T15:21:10.051Z</time></trkpt><trkpt lat="41.7461599" lon="13.537894"><ele>948.0</ele><time>2026-05-04T15:21:11.05Z</time></trkpt><trkpt lat="41.7462609" lon="13.5378995"><ele>948.0</ele><time>2026-05-04T15:21:12.051Z</time></trkpt><trkpt lat="41.7463668" lon="13.5379065"><ele>949.4</ele><time>2026-05-04T15:21:13.051Z</time></trkpt><trkpt lat="41.7464687" lon="13.5379292"><ele>950.8</ele><time>2026-05-04T15:21:14.051Z</time></trkpt><trkpt lat="41.7465765" lon="13.5379676"><ele>952.2</ele><time>2026-05-04T15:21:15.05Z</time></trkpt><trkpt lat="41.7466925" lon="13.5379934"><ele>953.6</ele><time>2026-05-04T15:21:16.051Z</time></trkpt><trkpt lat="41.7467948" lon="13.5379928"><ele>955.0</ele><time>2026-05-04T15:21:17.051Z</time></trkpt><trkpt lat="41.7468891" lon="13.5379686"><ele>957.75</ele><time>2026-05-04T15:21:18.05Z</time></trkpt><trkpt lat="41.7469924" lon="13.5379331"><ele>960.5</ele><time>2026-05-04T15:21:19.051Z</time></trkpt><trkpt lat="41.7471074" lon="13.5378755"><ele>963.25</ele><time>2026-05-04T15:21:20.05Z</time></trkpt><trkpt lat="41.7472208" lon="13.5378184"><ele>966.0</ele><time>2026-05-04T15:21:21.05Z</time></trkpt><trkpt lat="41.7473331" lon="13.5377639"><ele>966.0</ele><time>2026-05-04T15:21:22.051Z</time></trkpt><trkpt lat="41.7474162" lon="13.5376986"><ele>965.9999999999999</ele><time>2026-05-04T15:21:23.051Z</time></trkpt><trkpt lat="41.7474894" lon="13.5376172"><ele>965.9999999999999</ele><time>2026-05-04T15:21:24.051Z</time></trkpt><trkpt lat="41.7475549" lon="13.5375243"><ele>966.0</ele><time>2026-05-04T15:21:25.051Z</time></trkpt><trkpt lat="41.7476193" lon="13.5374163"><ele>966.0</ele><time>2026-05-04T15:21:26.051Z</time></trkpt><trkpt lat="41.7476864" lon="13.5373093"><ele>971.5999999999999</ele><time>2026-05-04T15:21:27.051Z</time></trkpt><trkpt lat="41.7477682" lon="13.5372056"><ele>977.1999999999999</ele><time>2026-05-04T15:21:28.05Z</time></trkpt><trkpt lat="41.747837" lon="13.5371169"><ele>982.8000000000001</ele><time>2026-05-04T15:21:29.05Z</time></trkpt><trkpt lat="41.7478875" lon="13.5370428"><ele>988.4000000000001</ele><time>2026-05-04T15:21:30.051Z</time></trkpt><trkpt lat="41.747907" lon="13.5368977"><ele>994.0</ele><time>2026-05-04T15:21:32.051Z</time></trkpt><trkpt lat="41.7478955" lon="13.5367933"><ele>994.0</ele><time>2026-05-04T15:21:33.051Z</time></trkpt><trkpt lat="41.7478687" lon="13.5366818"><ele>994.0000000000001</ele><time>2026-05-04T15:21:34.05Z</time></trkpt><trkpt lat="41.7478219" lon="13.5365434"><ele>994.0000000000001</ele><time>2026-05-04T15:21:35.051Z</time></trkpt><trkpt lat="41.7477771" lon="13.5364021"><ele>994.0</ele><time>2026-05-04T15:21:36.05Z</time></trkpt><trkpt lat="41.7477347" lon="13.5362565"><ele>994.0</ele><time>2026-05-04T15:21:37.05Z</time></trkpt><trkpt lat="41.7476803" lon="13.5360885"><ele>991.25</ele><time>2026-05-04T15:21:38.05Z</time></trkpt><trkpt lat="41.7476113" lon="13.5359145"><ele>988.5</ele><time>2026-05-04T15:21:39.051Z</time></trkpt><trkpt lat="41.7475537" lon="13.5357473"><ele>985.75</ele><time>2026-05-04T15:21:40.051Z</time></trkpt><trkpt lat="41.7475154" lon="13.5355911"><ele>983.0</ele><time>2026-05-04T15:21:41.05Z</time></trkpt><trkpt lat="41.7474838" lon="13.5354495"><ele>983.5999999999999</ele><time>2026-05-04T15:21:42.051Z</time></trkpt><trkpt lat="41.7474656" lon="13.5353225"><ele>984.1999999999999</ele><time>2026-05-04T15:21:43.051Z</time></trkpt><trkpt lat="41.7474514" lon="13.5351941"><ele>984.8</ele><time>2026-05-04T15:21:44.051Z</time></trkpt><trkpt lat="41.7474497" lon="13.5350687"><ele>985.4</ele><time>2026-05-04T15:21:45.05Z</time></trkpt><trkpt lat="41.7474617" lon="13.534934"><ele>986.0</ele><time>2026-05-04T15:21:46.05Z</time></trkpt><trkpt lat="41.747472" lon="13.5347951"><ele>986.0</ele><time>2026-05-04T15:21:47.051Z</time></trkpt><trkpt lat="41.7474737" lon="13.5346622"><ele>985.9999999999999</ele><time>2026-05-04T15:21:48.05Z</time></trkpt><trkpt lat="41.7474843" lon="13.5345214"><ele>985.9999999999999</ele><time>2026-05-04T15:21:49.051Z</time></trkpt><trkpt lat="41.7475098" lon="13.5343684"><ele>986.0</ele><time>2026-05-04T15:21:50.05Z</time></trkpt><trkpt lat="41.7475581" lon="13.534215"><ele>986.0</ele><time>2026-05-04T15:21:51.051Z</time></trkpt><trkpt lat="41.7476231" lon="13.5340715"><ele>987.25</ele><time>2026-05-04T15:21:52.051Z</time></trkpt><trkpt lat="41.7477069" lon="13.5339476"><ele>988.5</ele><time>2026-05-04T15:21:53.05Z</time></trkpt><trkpt lat="41.7477967" lon="13.5338427"><ele>989.75</ele><time>2026-05-04T15:21:54.05Z</time></trkpt><trkpt lat="41.7478953" lon="13.5337587"><ele>991.0</ele><time>2026-05-04T15:21:55.05Z</time></trkpt><trkpt lat="41.7480027" lon="13.5336937"><ele>993.4</ele><time>2026-05-04T15:21:56.05Z</time></trkpt><trkpt lat="41.7481079" lon="13.5336556"><ele>995.8</ele><time>2026-05-04T15:21:57.051Z</time></trkpt><trkpt lat="41.7482206" lon="13.5336437"><ele>998.1999999999999</ele><time>2026-05-04T15:21:58.05Z</time></trkpt><trkpt lat="41.748327" lon="13.5336355"><ele>1000.5999999999999</ele><time>2026-05-04T15:21:59.05Z</time></trkpt><trkpt lat="41.748429" lon="13.5336227"><ele>1003.0</ele><time>2026-05-04T15:22:00.05Z</time></trkpt><trkpt lat="41.7485256" lon="13.5336161"><ele>1002.8333333333333</ele><time>2026-05-04T15:22:01.051Z</time></trkpt><trkpt lat="41.7486191" lon="13.533611"><ele>1002.6666666666666</ele><time>2026-05-04T15:22:02.051Z</time></trkpt><trkpt lat="41.7487076" lon="13.5336162"><ele>1002.5</ele><time>2026-05-04T15:22:03.05Z</time></trkpt><trkpt lat="41.7487745" lon="13.5336136"><ele>1002.3333333333333</ele><time>2026-05-04T15:22:04.05Z</time></trkpt><trkpt lat="41.7488829" lon="13.5336128"><ele>1002.1666666666666</ele><time>2026-05-04T15:22:06.051Z</time></trkpt><trkpt lat="41.7489735" lon="13.533611"><ele>1002.0</ele><time>2026-05-04T15:22:08.05Z</time></trkpt><trkpt lat="41.7490576" lon="13.5335915"><ele>1002.0</ele><time>2026-05-04T15:22:11.051Z</time></trkpt><trkpt lat="41.749133" lon="13.5335242"><ele>1002.0</ele><time>2026-05-04T15:22:13.05Z</time></trkpt><trkpt lat="41.7492045" lon="13.5334683"><ele>1002.0</ele><time>2026-05-04T15:22:14.051Z</time></trkpt><trkpt lat="41.7492766" lon="13.5334177"><ele>1002.0</ele><time>2026-05-04T15:22:15.051Z</time></trkpt><trkpt lat="41.7493543" lon="13.5333681"><ele>1002.0</ele><time>2026-05-04T15:22:16.05Z</time></trkpt><trkpt lat="41.7494397" lon="13.5333253"><ele>1002.0</ele><time>2026-05-04T15:22:17.051Z</time></trkpt><trkpt lat="41.7495594" lon="13.533265"><ele>1004.0</ele><time>2026-05-04T15:22:18.05Z</time></trkpt><trkpt lat="41.7496965" lon="13.5332065"><ele>1006.0</ele><time>2026-05-04T15:22:19.05Z</time></trkpt><trkpt lat="41.7498291" lon="13.5331498"><ele>1008.0</ele><time>2026-05-04T15:22:20.051Z</time></trkpt><trkpt lat="41.7499642" lon="13.5330987"><ele>1010.0</ele><time>2026-05-04T15:22:21.051Z</time></trkpt><trkpt lat="41.7500841" lon="13.5330271"><ele>1016.0</ele><time>2026-05-04T15:22:22.05Z</time></trkpt><trkpt lat="41.7502128" lon="13.5329297"><ele>1022.0</ele><time>2026-05-04T15:22:23.05Z</time></trkpt><trkpt lat="41.7503585" lon="13.5328204"><ele>1028.0</ele><time>2026-05-04T15:22:24.051Z</time></trkpt><trkpt lat="41.7504932" lon="13.5327128"><ele>1028.0</ele><time>2026-05-04T15:22:25.05Z</time></trkpt><trkpt lat="41.7506034" lon="13.5326218"><ele>1028.0</ele><time>2026-05-04T15:22:26.05Z</time></trkpt><trkpt lat="41.7506947" lon="13.5325552"><ele>1028.0</ele><time>2026-05-04T15:22:27.05Z</time></trkpt><trkpt lat="41.7507977" lon="13.5324703"><ele>1028.0</ele><time>2026-05-04T15:22:28.05Z</time></trkpt><trkpt lat="41.7509115" lon="13.5323602"><ele>1028.0</ele><time>2026-05-04T15:22:29.051Z</time></trkpt><trkpt lat="41.75103" lon="13.5322704"><ele>1028.0</ele><time>2026-05-04T15:22:30.05Z</time></trkpt><trkpt lat="41.7511654" lon="13.5321699"><ele>1028.0</ele><time>2026-05-04T15:22:31.05Z</time></trkpt><trkpt lat="41.7513253" lon="13.5320419"><ele>1033.25</ele><time>2026-05-04T15:22:32.051Z</time></trkpt><trkpt lat="41.7514706" lon="13.5319394"><ele>1038.5</ele><time>2026-05-04T15:22:33.05Z</time></trkpt><trkpt lat="41.7515842" lon="13.5318533"><ele>1043.75</ele><time>2026-05-04T15:22:34.051Z</time></trkpt><trkpt lat="41.7516971" lon="13.5317724"><ele>1049.0</ele><time>2026-05-04T15:22:35.051Z</time></trkpt><trkpt lat="41.7518136" lon="13.5316881"><ele>1051.0</ele><time>2026-05-04T15:22:36.051Z</time></trkpt><trkpt lat="41.7519519" lon="13.5316027"><ele>1053.0</ele><time>2026-05-04T15:22:37.05Z</time></trkpt><trkpt lat="41.7520823" lon="13.5315323"><ele>1055.0</ele><time>2026-05-04T15:22:38.05Z</time></trkpt><trkpt lat="41.7522241" lon="13.5314639"><ele>1057.0</ele><time>2026-05-04T15:22:39.05Z</time></trkpt><trkpt lat="41.7523648" lon="13.5314094"><ele>1057.0</ele><time>2026-05-04T15:22:40.05Z</time></trkpt><trkpt lat="41.7524863" lon="13.5313712"><ele>1057.0</ele><time>2026-05-04T15:22:41.051Z</time></trkpt><trkpt lat="41.7526046" lon="13.5313629"><ele>1057.0</ele><time>2026-05-04T15:22:42.051Z</time></trkpt><trkpt lat="41.7527176" lon="13.5313677"><ele>1057.0</ele><time>2026-05-04T15:22:43.051Z</time></trkpt><trkpt lat="41.7528355" lon="13.5314116"><ele>1061.5</ele><time>2026-05-04T15:22:44.05Z</time></trkpt><trkpt lat="41.7529653" lon="13.5314393"><ele>1066.0</ele><time>2026-05-04T15:22:45.05Z</time></trkpt><trkpt lat="41.7531158" lon="13.5314513"><ele>1070.5</ele><time>2026-05-04T15:22:46.051Z</time></trkpt><trkpt lat="41.7532704" lon="13.5314439"><ele>1075.0</ele><time>2026-05-04T15:22:47.05Z</time></trkpt><trkpt lat="41.7534235" lon="13.5314373"><ele>1078.0</ele><time>2026-05-04T15:22:48.05Z</time></trkpt><trkpt lat="41.7535708" lon="13.5314178"><ele>1081.0</ele><time>2026-05-04T15:22:49.05Z</time></trkpt><trkpt lat="41.7537109" lon="13.531396"><ele>1084.0</ele><time>2026-05-04T15:22:50.051Z</time></trkpt><trkpt lat="41.7538334" lon="13.5313658"><ele>1087.0</ele><time>2026-05-04T15:22:51.051Z</time></trkpt><trkpt lat="41.7539416" lon="13.5313148"><ele>1087.0</ele><time>2026-05-04T15:22:52.051Z</time></trkpt><trkpt lat="41.7540375" lon="13.5312299"><ele>1087.0</ele><time>2026-05-04T15:22:53.051Z</time></trkpt><trkpt lat="41.7541271" lon="13.5311448"><ele>1087.0</ele><time>2026-05-04T15:22:54.05Z</time></trkpt><trkpt lat="41.7542135" lon="13.5310541"><ele>1087.0</ele><time>2026-05-04T15:22:55.051Z</time></trkpt><trkpt lat="41.7542981" lon="13.5309824"><ele>1087.0</ele><time>2026-05-04T15:22:56.05Z</time></trkpt><trkpt lat="41.754383" lon="13.5309294"><ele>1089.4</ele><time>2026-05-04T15:22:57.05Z</time></trkpt><trkpt lat="41.7544719" lon="13.5308923"><ele>1091.8000000000002</ele><time>2026-05-04T15:22:58.05Z</time></trkpt><trkpt lat="41.754573" lon="13.5308835"><ele>1094.2</ele><time>2026-05-04T15:22:59.049Z</time></trkpt><trkpt lat="41.7546812" lon="13.5309075"><ele>1096.6000000000001</ele><time>2026-05-04T15:23:00.049Z</time></trkpt><trkpt lat="41.754806" lon="13.5309672"><ele>1099.0</ele><time>2026-05-04T15:23:01.05Z</time></trkpt><trkpt lat="41.7549518" lon="13.5310406"><ele>1099.0</ele><time>2026-05-04T15:23:02.049Z</time></trkpt><trkpt lat="41.7550907" lon="13.5311106"><ele>1099.0</ele><time>2026-05-04T15:23:03.05Z</time></trkpt><trkpt lat="41.7552338" lon="13.5311854"><ele>1099.0</ele><time>2026-05-04T15:23:04.05Z</time></trkpt><trkpt lat="41.755373" lon="13.5312556"><ele>1103.5</ele><time>2026-05-04T15:23:05.05Z</time></trkpt><trkpt lat="41.7555067" lon="13.5313083"><ele>1108.0</ele><time>2026-05-04T15:23:06.05Z</time></trkpt><trkpt lat="41.7556475" lon="13.5313404"><ele>1112.5</ele><time>2026-05-04T15:23:07.049Z</time></trkpt><trkpt lat="41.7557786" lon="13.531358"><ele>1117.0</ele><time>2026-05-04T15:23:08.05Z</time></trkpt><trkpt lat="41.7559045" lon="13.531371"><ele>1117.0</ele><time>2026-05-04T15:23:09.05Z</time></trkpt><trkpt lat="41.7560225" lon="13.5313964"><ele>1117.0</ele><time>2026-05-04T15:23:10.049Z</time></trkpt><trkpt lat="41.7561398" lon="13.5314303"><ele>1117.0</ele><time>2026-05-04T15:23:11.05Z</time></trkpt><trkpt lat="41.7562365" lon="13.5314574"><ele>1117.0</ele><time>2026-05-04T15:23:12.05Z</time></trkpt><trkpt lat="41.7563158" lon="13.5314972"><ele>1117.0</ele><time>2026-05-04T15:23:13.049Z</time></trkpt><trkpt lat="41.756386" lon="13.5315212"><ele>1117.6666666666665</ele><time>2026-05-04T15:23:14.05Z</time></trkpt><trkpt lat="41.7564727" lon="13.5315828"><ele>1118.3333333333333</ele><time>2026-05-04T15:23:16.05Z</time></trkpt><trkpt lat="41.7565472" lon="13.5315906"><ele>1119.0</ele><time>2026-05-04T15:23:18.049Z</time></trkpt><trkpt lat="41.7566689" lon="13.5315474"><ele>1119.6666666666667</ele><time>2026-05-04T15:23:20.049Z</time></trkpt><trkpt lat="41.7567413" lon="13.5315157"><ele>1120.3333333333335</ele><time>2026-05-04T15:23:21.05Z</time></trkpt><trkpt lat="41.7568108" lon="13.5314838"><ele>1121.0</ele><time>2026-05-04T15:23:22.05Z</time></trkpt><trkpt lat="41.7568817" lon="13.5314714"><ele>1122.8</ele><time>2026-05-04T15:23:23.05Z</time></trkpt><trkpt lat="41.7569687" lon="13.5314493"><ele>1124.6</ele><time>2026-05-04T15:23:24.049Z</time></trkpt><trkpt lat="41.7570758" lon="13.5314049"><ele>1126.4</ele><time>2026-05-04T15:23:25.05Z</time></trkpt><trkpt lat="41.7571852" lon="13.5313763"><ele>1128.2</ele><time>2026-05-04T15:23:26.049Z</time></trkpt><trkpt lat="41.7572909" lon="13.5313443"><ele>1130.0</ele><time>2026-05-04T15:23:27.049Z</time></trkpt><trkpt lat="41.7573804" lon="13.5313284"><ele>1130.0</ele><time>2026-05-04T15:23:28.049Z</time></trkpt><trkpt lat="41.7574649" lon="13.5313168"><ele>1130.0</ele><time>2026-05-04T15:23:29.05Z</time></trkpt><trkpt lat="41.7575578" lon="13.5313093"><ele>1130.0</ele><time>2026-05-04T15:23:30.05Z</time></trkpt><trkpt lat="41.7576449" lon="13.5312909"><ele>1130.0</ele><time>2026-05-04T15:23:31.05Z</time></trkpt><trkpt lat="41.757747" lon="13.5312562"><ele>1130.0</ele><time>2026-05-04T15:23:32.049Z</time></trkpt><trkpt lat="41.7578472" lon="13.5312147"><ele>1131.4</ele><time>2026-05-04T15:23:33.05Z</time></trkpt><trkpt lat="41.7579389" lon="13.5311932"><ele>1132.8</ele><time>2026-05-04T15:23:34.049Z</time></trkpt><trkpt lat="41.7580445" lon="13.5312012"><ele>1134.2</ele><time>2026-05-04T15:23:35.05Z</time></trkpt><trkpt lat="41.7581575" lon="13.5312268"><ele>1135.6</ele><time>2026-05-04T15:23:36.049Z</time></trkpt><trkpt lat="41.758271" lon="13.5312668"><ele>1137.0</ele><time>2026-05-04T15:23:37.05Z</time></trkpt><trkpt lat="41.7583829" lon="13.5312976"><ele>1137.0</ele><time>2026-05-04T15:23:38.049Z</time></trkpt><trkpt lat="41.7584811" lon="13.5313182"><ele>1137.0</ele><time>2026-05-04T15:23:39.049Z</time></trkpt><trkpt lat="41.7585801" lon="13.5313227"><ele>1137.0</ele><time>2026-05-04T15:23:40.05Z</time></trkpt><trkpt lat="41.7586783" lon="13.5313354"><ele>1137.0</ele><time>2026-05-04T15:23:41.05Z</time></trkpt><trkpt lat="41.7587821" lon="13.5313645"><ele>1137.0</ele><time>2026-05-04T15:23:42.05Z</time></trkpt><trkpt lat="41.7588702" lon="13.5313906"><ele>1136.6666666666667</ele><time>2026-05-04T15:23:43.05Z</time></trkpt><trkpt lat="41.7589581" lon="13.5314406"><ele>1136.3333333333333</ele><time>2026-05-04T15:23:44.049Z</time></trkpt><trkpt lat="41.7590254" lon="13.5314777"><ele>1136.0</ele><time>2026-05-04T15:23:45.05Z</time></trkpt><trkpt lat="41.7590898" lon="13.5315166"><ele>1135.6666666666665</ele><time>2026-05-04T15:23:46.049Z</time></trkpt><trkpt lat="41.759144" lon="13.531569"><ele>1135.3333333333333</ele><time>2026-05-04T15:23:47.049Z</time></trkpt><trkpt lat="41.759202" lon="13.5316421"><ele>1135.0</ele><time>2026-05-04T15:23:48.049Z</time></trkpt><trkpt lat="41.7592466" lon="13.5317098"><ele>1135.0</ele><time>2026-05-04T15:23:49.05Z</time></trkpt><trkpt lat="41.7593149" lon="13.5318404"><ele>1135.0</ele><time>2026-05-04T15:23:51.05Z</time></trkpt><trkpt lat="41.759347" lon="13.5319742"><ele>1135.0</ele><time>2026-05-04T15:23:53.05Z</time></trkpt><trkpt lat="41.7593381" lon="13.5320829"><ele>1135.0</ele><time>2026-05-04T15:23:55.05Z</time></trkpt><trkpt lat="41.7593159" lon="13.532194"><ele>1135.0</ele><time>2026-05-04T15:23:58.05Z</time></trkpt><trkpt lat="41.7593774" lon="13.5321136"><ele>1135.0</ele><time>2026-05-04T15:24:33.05Z</time></trkpt><trkpt lat="41.7593613" lon="13.5320197"><ele>1135.0</ele><time>2026-05-04T15:24:40.05Z</time></trkpt><trkpt lat="41.7593486" lon="13.5318659"><ele>1135.0</ele><time>2026-05-04T15:24:42.05Z</time></trkpt><trkpt lat="41.7593443" lon="13.5317726"><ele>1135.0</ele><time>2026-05-04T15:24:43.05Z</time></trkpt><trkpt lat="41.7593368" lon="13.5316868"><ele>1135.0</ele><time>2026-05-04T15:24:44.05Z</time></trkpt><trkpt lat="41.7593031" lon="13.5315493"><ele>1135.0</ele><time>2026-05-04T15:24:46.049Z</time></trkpt><trkpt lat="41.7592711" lon="13.5314695"><ele>1135.0</ele><time>2026-05-04T15:24:47.049Z</time></trkpt><trkpt lat="41.759209" lon="13.5313213"><ele>1135.0</ele><time>2026-05-04T15:24:49.05Z</time></trkpt><trkpt lat="41.759176" lon="13.5312428"><ele>1135.0</ele><time>2026-05-04T15:24:50.05Z</time></trkpt><trkpt lat="41.759142" lon="13.5311629"><ele>1135.0</ele><time>2026-05-04T15:24:51.049Z</time></trkpt><trkpt lat="41.7591037" lon="13.5310858"><ele>1135.0</ele><time>2026-05-04T15:24:52.05Z</time></trkpt><trkpt lat="41.7590635" lon="13.5310163"><ele>1135.0</ele><time>2026-05-04T15:24:53.05Z</time></trkpt><trkpt lat="41.7589982" lon="13.5309117"><ele>1135.0</ele><time>2026-05-04T15:24:55.049Z</time></trkpt><trkpt lat="41.7589692" lon="13.5308294"><ele>1135.0</ele><time>2026-05-04T15:24:58.049Z</time></trkpt><trkpt lat="41.7590347" lon="13.5309555"><ele>1135.0</ele><time>2026-05-04T15:40:40.047Z</time></trkpt><trkpt lat="41.759094" lon="13.5310892"><ele>1135.0</ele><time>2026-05-04T15:40:42.048Z</time></trkpt><trkpt lat="41.759125" lon="13.5311728"><ele>1135.0</ele><time>2026-05-04T15:40:43.048Z</time></trkpt><trkpt lat="41.7591573" lon="13.5312466"><ele>1135.0</ele><time>2026-05-04T15:40:44.048Z</time></trkpt><trkpt lat="41.7592232" lon="13.5313883"><ele>1135.0</ele><time>2026-05-04T15:40:46.048Z</time></trkpt><trkpt lat="41.7592863" lon="13.5315095"><ele>1135.0</ele><time>2026-05-04T15:40:48.048Z</time></trkpt><trkpt lat="41.7593507" lon="13.5316135"><ele>1135.0</ele><time>2026-05-04T15:40:50.047Z</time></trkpt><trkpt lat="41.7593761" lon="13.5317039"><ele>1135.0</ele><time>2026-05-04T15:40:52.048Z</time></trkpt><trkpt lat="41.7593702" lon="13.531797"><ele>1135.0</ele><time>2026-05-04T15:40:54.047Z</time></trkpt><trkpt lat="41.7593471" lon="13.5319256"><ele>1136.3333333333333</ele><time>2026-05-04T15:40:56.048Z</time></trkpt><trkpt lat="41.7593482" lon="13.5320723"><ele>1137.6666666666665</ele><time>2026-05-04T15:40:58.048Z</time></trkpt><trkpt lat="41.7593287" lon="13.5321757"><ele>1139.0</ele><time>2026-05-04T15:41:00.048Z</time></trkpt><trkpt lat="41.7592565" lon="13.532274"><ele>1140.3333333333333</ele><time>2026-05-04T15:41:46.048Z</time></trkpt><trkpt lat="41.7592023" lon="13.5323393"><ele>1141.6666666666667</ele><time>2026-05-04T15:41:47.048Z</time></trkpt><trkpt lat="41.7591531" lon="13.5323943"><ele>1143.0</ele><time>2026-05-04T15:41:48.047Z</time></trkpt><trkpt lat="41.759084" lon="13.5325035"><ele>1143.0</ele><time>2026-05-04T15:41:50.048Z</time></trkpt><trkpt lat="41.7590569" lon="13.5325951"><ele>1143.0</ele><time>2026-05-04T15:41:52.047Z</time></trkpt><trkpt lat="41.7590774" lon="13.5327168"><ele>1143.0</ele><time>2026-05-04T15:41:55.047Z</time></trkpt><trkpt lat="41.75912" lon="13.5328542"><ele>1143.0</ele><time>2026-05-04T15:41:57.047Z</time></trkpt><trkpt lat="41.759169" lon="13.5330122"><ele>1143.0</ele><time>2026-05-04T15:41:59.048Z</time></trkpt><trkpt lat="41.7591916" lon="13.5331067"><ele>1144.0</ele><time>2026-05-04T15:42:00.047Z</time></trkpt><trkpt lat="41.7592091" lon="13.5332458"><ele>1145.0</ele><time>2026-05-04T15:42:02.047Z</time></trkpt><trkpt lat="41.7591843" lon="13.5333604"><ele>1146.0</ele><time>2026-05-04T15:42:04.048Z</time></trkpt><trkpt lat="41.7591501" lon="13.5334542"><ele>1147.0</ele><time>2026-05-04T15:42:06.048Z</time></trkpt><trkpt lat="41.7591264" lon="13.5335554"><ele>1148.0</ele><time>2026-05-04T15:42:08.047Z</time></trkpt><trkpt lat="41.7591762" lon="13.5333221"><ele>1148.0</ele><time>2026-05-04T15:43:36.047Z</time></trkpt><trkpt lat="41.7592032" lon="13.5332287"><ele>1148.0</ele><time>2026-05-04T15:43:43.047Z</time></trkpt><trkpt lat="41.759177" lon="13.5331495"><ele>1148.0</ele><time>2026-05-04T15:43:46.046Z</time></trkpt><trkpt lat="41.7591639" lon="13.5330657"><ele>1148.0</ele><time>2026-05-04T15:43:49.047Z</time></trkpt><trkpt lat="41.7591607" lon="13.5329741"><ele>1148.0</ele><time>2026-05-04T15:43:53.046Z</time></trkpt><trkpt lat="41.7591643" lon="13.532885"><ele>1148.0</ele><time>2026-05-04T15:45:41.047Z</time></trkpt><trkpt lat="41.7591985" lon="13.5328025"><ele>1148.0</ele><time>2026-05-04T15:45:44.046Z</time></trkpt><trkpt lat="41.7592236" lon="13.5327138"><ele>1147.2857142857142</ele><time>2026-05-04T15:45:49.047Z</time></trkpt><trkpt lat="41.7592611" lon="13.5326371"><ele>1146.5714285714284</ele><time>2026-05-04T15:45:55.047Z</time></trkpt><trkpt lat="41.7592898" lon="13.5325435"><ele>1145.857142857143</ele><time>2026-05-04T15:46:00.046Z</time></trkpt><trkpt lat="41.7592926" lon="13.5324421"><ele>1145.142857142857</ele><time>2026-05-04T15:46:04.046Z</time></trkpt><trkpt lat="41.7593201" lon="13.5323585"><ele>1144.4285714285713</ele><time>2026-05-04T15:46:07.047Z</time></trkpt><trkpt lat="41.7593405" lon="13.5322541"><ele>1143.7142857142858</ele><time>2026-05-04T15:46:11.047Z</time></trkpt><trkpt lat="41.7593609" lon="13.53215"><ele>1143.0</ele><time>2026-05-04T15:46:34.047Z</time></trkpt><trkpt lat="41.7593407" lon="13.5320606"><ele>1141.6666666666667</ele><time>2026-05-04T15:46:38.047Z</time></trkpt><trkpt lat="41.7593338" lon="13.5319596"><ele>1140.3333333333333</ele><time>2026-05-04T15:47:45.046Z</time></trkpt><trkpt lat="41.759296" lon="13.5318153"><ele>1139.0</ele><time>2026-05-04T15:47:47.046Z</time></trkpt><trkpt lat="41.7592665" lon="13.5317346"><ele>1137.6666666666665</ele><time>2026-05-04T15:47:48.046Z</time></trkpt><trkpt lat="41.7592282" lon="13.5316544"><ele>1136.3333333333333</ele><time>2026-05-04T15:47:49.046Z</time></trkpt><trkpt lat="41.7591789" lon="13.5315789"><ele>1135.0</ele><time>2026-05-04T15:47:50.046Z</time></trkpt><trkpt lat="41.7591134" lon="13.5315106"><ele>1135.0</ele><time>2026-05-04T15:47:51.046Z</time></trkpt><trkpt lat="41.7590366" lon="13.5314575"><ele>1135.0</ele><time>2026-05-04T15:47:52.046Z</time></trkpt><trkpt lat="41.7589502" lon="13.53141"><ele>1135.0</ele><time>2026-05-04T15:47:53.045Z</time></trkpt><trkpt lat="41.7588568" lon="13.5313727"><ele>1135.0</ele><time>2026-05-04T15:47:54.046Z</time></trkpt><trkpt lat="41.7587518" lon="13.5313375"><ele>1135.0</ele><time>2026-05-04T15:47:55.046Z</time></trkpt><trkpt lat="41.7586398" lon="13.5313151"><ele>1135.4</ele><time>2026-05-04T15:47:56.045Z</time></trkpt><trkpt lat="41.7585303" lon="13.531294"><ele>1135.8</ele><time>2026-05-04T15:47:57.046Z</time></trkpt><trkpt lat="41.7584245" lon="13.5312859"><ele>1136.2</ele><time>2026-05-04T15:47:58.045Z</time></trkpt><trkpt lat="41.7583335" lon="13.5312807"><ele>1136.6</ele><time>2026-05-04T15:47:59.046Z</time></trkpt><trkpt lat="41.7582527" lon="13.5312726"><ele>1137.0</ele><time>2026-05-04T15:48:00.046Z</time></trkpt><trkpt lat="41.7581645" lon="13.5312612"><ele>1137.0</ele><time>2026-05-04T15:48:01.046Z</time></trkpt><trkpt lat="41.7580752" lon="13.531238"><ele>1137.0</ele><time>2026-05-04T15:48:02.046Z</time></trkpt><trkpt lat="41.7579807" lon="13.5312234"><ele>1137.0</ele><time>2026-05-04T15:48:03.046Z</time></trkpt><trkpt lat="41.7578814" lon="13.5312229"><ele>1137.0</ele><time>2026-05-04T15:48:04.046Z</time></trkpt><trkpt lat="41.7577879" lon="13.5312492"><ele>1137.0</ele><time>2026-05-04T15:48:05.046Z</time></trkpt><trkpt lat="41.7577031" lon="13.5312822"><ele>1135.8333333333333</ele><time>2026-05-04T15:48:06.046Z</time></trkpt><trkpt lat="41.7576197" lon="13.531309"><ele>1134.6666666666667</ele><time>2026-05-04T15:48:07.046Z</time></trkpt><trkpt lat="41.7575395" lon="13.5313257"><ele>1133.5</ele><time>2026-05-04T15:48:08.045Z</time></trkpt><trkpt lat="41.7574516" lon="13.5313308"><ele>1132.3333333333335</ele><time>2026-05-04T15:48:09.046Z</time></trkpt><trkpt lat="41.7573569" lon="13.5313368"><ele>1131.1666666666667</ele><time>2026-05-04T15:48:10.045Z</time></trkpt><trkpt lat="41.7572604" lon="13.5313507"><ele>1130.0</ele><time>2026-05-04T15:48:11.045Z</time></trkpt><trkpt lat="41.757167" lon="13.5313735"><ele>1130.0</ele><time>2026-05-04T15:48:12.046Z</time></trkpt><trkpt lat="41.7570738" lon="13.5313931"><ele>1130.0</ele><time>2026-05-04T15:48:13.046Z</time></trkpt><trkpt lat="41.7569887" lon="13.531415"><ele>1130.0</ele><time>2026-05-04T15:48:14.045Z</time></trkpt><trkpt lat="41.756914" lon="13.5314362"><ele>1130.0</ele><time>2026-05-04T15:48:15.046Z</time></trkpt><trkpt lat="41.7568475" lon="13.5314614"><ele>1130.0</ele><time>2026-05-04T15:48:16.046Z</time></trkpt><trkpt lat="41.7567799" lon="13.5314891"><ele>1130.0</ele><time>2026-05-04T15:48:17.046Z</time></trkpt><trkpt lat="41.7567108" lon="13.5315234"><ele>1128.5</ele><time>2026-05-04T15:48:18.046Z</time></trkpt><trkpt lat="41.7566514" lon="13.5315561"><ele>1127.0</ele><time>2026-05-04T15:48:19.046Z</time></trkpt><trkpt lat="41.7565924" lon="13.5315931"><ele>1125.5</ele><time>2026-05-04T15:48:20.045Z</time></trkpt><trkpt lat="41.7565294" lon="13.5316286"><ele>1124.0</ele><time>2026-05-04T15:48:21.045Z</time></trkpt><trkpt lat="41.7564193" lon="13.5316482"><ele>1122.5</ele><time>2026-05-04T15:48:23.045Z</time></trkpt><trkpt lat="41.7563262" lon="13.531617"><ele>1121.0</ele><time>2026-05-04T15:48:25.045Z</time></trkpt><trkpt lat="41.7562265" lon="13.531513"><ele>1121.0</ele><time>2026-05-04T15:48:27.045Z</time></trkpt><trkpt lat="41.7561636" lon="13.5314584"><ele>1121.0</ele><time>2026-05-04T15:48:28.046Z</time></trkpt><trkpt lat="41.7560808" lon="13.5314178"><ele>1121.0</ele><time>2026-05-04T15:48:29.045Z</time></trkpt><trkpt lat="41.7559835" lon="13.5313912"><ele>1121.0</ele><time>2026-05-04T15:48:30.045Z</time></trkpt><trkpt lat="41.7558749" lon="13.5313623"><ele>1121.0</ele><time>2026-05-04T15:48:31.046Z</time></trkpt><trkpt lat="41.7557611" lon="13.5313546"><ele>1120.2</ele><time>2026-05-04T15:48:32.045Z</time></trkpt><trkpt lat="41.7556523" lon="13.5313437"><ele>1119.3999999999999</ele><time>2026-05-04T15:48:33.046Z</time></trkpt><trkpt lat="41.7555463" lon="13.5313354"><ele>1118.6</ele><time>2026-05-04T15:48:34.046Z</time></trkpt><trkpt lat="41.7554496" lon="13.5313194"><ele>1117.8</ele><time>2026-05-04T15:48:35.045Z</time></trkpt><trkpt lat="41.755364" lon="13.531302"><ele>1117.0</ele><time>2026-05-04T15:48:36.045Z</time></trkpt><trkpt lat="41.7552809" lon="13.5312753"><ele>1114.8333333333333</ele><time>2026-05-04T15:48:37.045Z</time></trkpt><trkpt lat="41.7552006" lon="13.5312411"><ele>1112.6666666666665</ele><time>2026-05-04T15:48:38.045Z</time></trkpt><trkpt lat="41.7551198" lon="13.5312001"><ele>1110.5</ele><time>2026-05-04T15:48:39.046Z</time></trkpt><trkpt lat="41.7550409" lon="13.5311536"><ele>1108.3333333333333</ele><time>2026-05-04T15:48:40.046Z</time></trkpt><trkpt lat="41.7549719" lon="13.5311101"><ele>1106.1666666666667</ele><time>2026-05-04T15:48:41.046Z</time></trkpt><trkpt lat="41.7548996" lon="13.5310729"><ele>1104.0</ele><time>2026-05-04T15:48:42.046Z</time></trkpt><trkpt lat="41.7548214" lon="13.5310429"><ele>1103.1666666666667</ele><time>2026-05-04T15:48:43.046Z</time></trkpt><trkpt lat="41.7547438" lon="13.5310103"><ele>1102.3333333333333</ele><time>2026-05-04T15:48:44.046Z</time></trkpt><trkpt lat="41.7546654" lon="13.5309837"><ele>1101.5</ele><time>2026-05-04T15:48:45.046Z</time></trkpt><trkpt lat="41.7545864" lon="13.5309638"><ele>1100.6666666666665</ele><time>2026-05-04T15:48:46.045Z</time></trkpt><trkpt lat="41.7545095" lon="13.5309526"><ele>1099.8333333333333</ele><time>2026-05-04T15:48:47.045Z</time></trkpt><trkpt lat="41.7544291" lon="13.5309435"><ele>1099.0</ele><time>2026-05-04T15:48:48.045Z</time></trkpt><trkpt lat="41.7543547" lon="13.5309525"><ele>1097.2857142857142</ele><time>2026-05-04T15:48:49.045Z</time></trkpt><trkpt lat="41.7542841" lon="13.5309738"><ele>1095.5714285714284</ele><time>2026-05-04T15:48:50.045Z</time></trkpt><trkpt lat="41.7542192" lon="13.5309986"><ele>1093.857142857143</ele><time>2026-05-04T15:48:51.045Z</time></trkpt><trkpt lat="41.7541539" lon="13.531042"><ele>1092.142857142857</ele><time>2026-05-04T15:48:52.046Z</time></trkpt><trkpt lat="41.7540942" lon="13.531095"><ele>1090.4285714285713</ele><time>2026-05-04T15:48:53.045Z</time></trkpt><trkpt lat="41.7540352" lon="13.5311531"><ele>1088.7142857142858</ele><time>2026-05-04T15:48:54.046Z</time></trkpt><trkpt lat="41.7539808" lon="13.5312144"><ele>1087.0</ele><time>2026-05-04T15:48:55.045Z</time></trkpt><trkpt lat="41.7539276" lon="13.5312671"><ele>1087.0</ele><time>2026-05-04T15:48:56.045Z</time></trkpt><trkpt lat="41.7538738" lon="13.5313162"><ele>1087.0</ele><time>2026-05-04T15:48:57.046Z</time></trkpt><trkpt lat="41.7538133" lon="13.531352"><ele>1087.0</ele><time>2026-05-04T15:48:58.045Z</time></trkpt><trkpt lat="41.7537461" lon="13.5313833"><ele>1087.0</ele><time>2026-05-04T15:48:59.046Z</time></trkpt><trkpt lat="41.7536711" lon="13.5314058"><ele>1087.0</ele><time>2026-05-04T15:49:00.045Z</time></trkpt><trkpt lat="41.7535898" lon="13.5314276"><ele>1087.0</ele><time>2026-05-04T15:49:01.046Z</time></trkpt><trkpt lat="41.7534993" lon="13.5314447"><ele>1084.6</ele><time>2026-05-04T15:49:02.045Z</time></trkpt><trkpt lat="41.753401" lon="13.5314651"><ele>1082.2</ele><time>2026-05-04T15:49:03.045Z</time></trkpt><trkpt lat="41.7533066" lon="13.5314775"><ele>1079.8</ele><time>2026-05-04T15:49:04.046Z</time></trkpt><trkpt lat="41.753214" lon="13.5314825"><ele>1077.4</ele><time>2026-05-04T15:49:05.046Z</time></trkpt><trkpt lat="41.7531222" lon="13.531485"><ele>1075.0</ele><time>2026-05-04T15:49:06.045Z</time></trkpt><trkpt lat="41.7530274" lon="13.5314769"><ele>1075.0</ele><time>2026-05-04T15:49:07.046Z</time></trkpt><trkpt lat="41.7529363" lon="13.5314715"><ele>1075.0</ele><time>2026-05-04T15:49:08.046Z</time></trkpt><trkpt lat="41.7528467" lon="13.5314618"><ele>1075.0</ele><time>2026-05-04T15:49:09.046Z</time></trkpt><trkpt lat="41.7527595" lon="13.5314462"><ele>1075.0</ele><time>2026-05-04T15:49:10.045Z</time></trkpt><trkpt lat="41.7526784" lon="13.5314256"><ele>1075.0</ele><time>2026-05-04T15:49:11.046Z</time></trkpt><trkpt lat="41.7526057" lon="13.5314105"><ele>1075.0</ele><time>2026-05-04T15:49:12.045Z</time></trkpt><trkpt lat="41.7525378" lon="13.531409"><ele>1072.0</ele><time>2026-05-04T15:49:13.045Z</time></trkpt><trkpt lat="41.7524687" lon="13.5314146"><ele>1069.0</ele><time>2026-05-04T15:49:14.046Z</time></trkpt><trkpt lat="41.7523971" lon="13.5314323"><ele>1066.0</ele><time>2026-05-04T15:49:15.045Z</time></trkpt><trkpt lat="41.752319" lon="13.5314632"><ele>1063.0</ele><time>2026-05-04T15:49:16.045Z</time></trkpt><trkpt lat="41.7522379" lon="13.5314961"><ele>1060.0</ele><time>2026-05-04T15:49:17.045Z</time></trkpt><trkpt lat="41.752159" lon="13.53154"><ele>1057.0</ele><time>2026-05-04T15:49:18.046Z</time></trkpt><trkpt lat="41.7520757" lon="13.5315833"><ele>1057.0</ele><time>2026-05-04T15:49:19.046Z</time></trkpt><trkpt lat="41.7519945" lon="13.531626"><ele>1057.0</ele><time>2026-05-04T15:49:20.046Z</time></trkpt><trkpt lat="41.751907" lon="13.5316721"><ele>1057.0</ele><time>2026-05-04T15:49:21.046Z</time></trkpt><trkpt lat="41.7518228" lon="13.5317223"><ele>1057.0</ele><time>2026-05-04T15:49:22.045Z</time></trkpt><trkpt lat="41.7517364" lon="13.5317811"><ele>1057.0</ele><time>2026-05-04T15:49:23.046Z</time></trkpt><trkpt lat="41.7516502" lon="13.5318514"><ele>1055.4</ele><time>2026-05-04T15:49:24.045Z</time></trkpt><trkpt lat="41.7515618" lon="13.5319177"><ele>1053.8000000000002</ele><time>2026-05-04T15:49:25.045Z</time></trkpt><trkpt lat="41.7514746" lon="13.5319853"><ele>1052.2</ele><time>2026-05-04T15:49:26.046Z</time></trkpt><trkpt lat="41.7513892" lon="13.532051"><ele>1050.6000000000001</ele><time>2026-05-04T15:49:27.045Z</time></trkpt><trkpt lat="41.7513043" lon="13.5321135"><ele>1049.0</ele><time>2026-05-04T15:49:28.045Z</time></trkpt><trkpt lat="41.7512224" lon="13.5321746"><ele>1048.1666666666667</ele><time>2026-05-04T15:49:29.045Z</time></trkpt><trkpt lat="41.7511433" lon="13.5322396"><ele>1047.3333333333335</ele><time>2026-05-04T15:49:30.045Z</time></trkpt><trkpt lat="41.7510658" lon="13.5322974"><ele>1046.5</ele><time>2026-05-04T15:49:31.046Z</time></trkpt><trkpt lat="41.7509877" lon="13.5323566"><ele>1045.6666666666667</ele><time>2026-05-04T15:49:32.046Z</time></trkpt><trkpt lat="41.7509079" lon="13.5324193"><ele>1044.8333333333333</ele><time>2026-05-04T15:49:33.046Z</time></trkpt><trkpt lat="41.7508356" lon="13.53248"><ele>1044.0</ele><time>2026-05-04T15:49:34.045Z</time></trkpt><trkpt lat="41.7507588" lon="13.5325449"><ele>1042.1666666666667</ele><time>2026-05-04T15:49:35.046Z</time></trkpt><trkpt lat="41.7506786" lon="13.5326059"><ele>1040.3333333333333</ele><time>2026-05-04T15:49:36.046Z</time></trkpt><trkpt lat="41.7506013" lon="13.5326729"><ele>1038.5</ele><time>2026-05-04T15:49:37.046Z</time></trkpt><trkpt lat="41.7505305" lon="13.532732"><ele>1036.6666666666665</ele><time>2026-05-04T15:49:38.046Z</time></trkpt><trkpt lat="41.7504609" lon="13.5327812"><ele>1034.8333333333333</ele><time>2026-05-04T15:49:39.046Z</time></trkpt><trkpt lat="41.7503876" lon="13.5328345"><ele>1033.0</ele><time>2026-05-04T15:49:40.045Z</time></trkpt><trkpt lat="41.7503112" lon="13.5328952"><ele>1033.0</ele><time>2026-05-04T15:49:41.046Z</time></trkpt><trkpt lat="41.7502247" lon="13.5329603"><ele>1033.0</ele><time>2026-05-04T15:49:42.045Z</time></trkpt><trkpt lat="41.7501332" lon="13.5330297"><ele>1033.0</ele><time>2026-05-04T15:49:43.045Z</time></trkpt><trkpt lat="41.7500327" lon="13.533091"><ele>1033.0</ele><time>2026-05-04T15:49:44.046Z</time></trkpt><trkpt lat="41.7499343" lon="13.5331454"><ele>1033.0</ele><time>2026-05-04T15:49:45.045Z</time></trkpt><trkpt lat="41.7498279" lon="13.5331905"><ele>1028.4</ele><time>2026-05-04T15:49:46.046Z</time></trkpt><trkpt lat="41.7497223" lon="13.533235"><ele>1023.8</ele><time>2026-05-04T15:49:47.046Z</time></trkpt><trkpt lat="41.7496243" lon="13.5332756"><ele>1019.2</ele><time>2026-05-04T15:49:48.046Z</time></trkpt><trkpt lat="41.7495315" lon="13.5333168"><ele>1014.6</ele><time>2026-05-04T15:49:49.045Z</time></trkpt><trkpt lat="41.7494407" lon="13.5333537"><ele>1010.0</ele><time>2026-05-04T15:49:50.046Z</time></trkpt><trkpt lat="41.7493606" lon="13.5333841"><ele>1008.6666666666667</ele><time>2026-05-04T15:49:51.046Z</time></trkpt><trkpt lat="41.7492845" lon="13.5334096"><ele>1007.3333333333334</ele><time>2026-05-04T15:49:52.045Z</time></trkpt><trkpt lat="41.7492196" lon="13.5334408"><ele>1006.0</ele><time>2026-05-04T15:49:53.046Z</time></trkpt><trkpt lat="41.7491602" lon="13.5334872"><ele>1004.6666666666667</ele><time>2026-05-04T15:49:54.046Z</time></trkpt><trkpt lat="41.749091" lon="13.5335421"><ele>1003.3333333333334</ele><time>2026-05-04T15:49:55.045Z</time></trkpt><trkpt lat="41.749015" lon="13.5336013"><ele>1002.0</ele><time>2026-05-04T15:49:56.046Z</time></trkpt><trkpt lat="41.7489315" lon="13.5336457"><ele>1002.0</ele><time>2026-05-04T15:49:57.045Z</time></trkpt><trkpt lat="41.7488452" lon="13.5336786"><ele>1002.0</ele><time>2026-05-04T15:49:58.045Z</time></trkpt><trkpt lat="41.748752" lon="13.5336987"><ele>1002.0</ele><time>2026-05-04T15:49:59.046Z</time></trkpt><trkpt lat="41.7486495" lon="13.5337028"><ele>1002.0</ele><time>2026-05-04T15:50:00.046Z</time></trkpt><trkpt lat="41.74854" lon="13.5337094"><ele>1002.0</ele><time>2026-05-04T15:50:01.046Z</time></trkpt><trkpt lat="41.7484269" lon="13.5337153"><ele>1002.2</ele><time>2026-05-04T15:50:02.045Z</time></trkpt><trkpt lat="41.7483176" lon="13.5337176"><ele>1002.4000000000001</ele><time>2026-05-04T15:50:03.045Z</time></trkpt><trkpt lat="41.7482201" lon="13.5337181"><ele>1002.5999999999999</ele><time>2026-05-04T15:50:04.045Z</time></trkpt><trkpt lat="41.7481274" lon="13.5337234"><ele>1002.8</ele><time>2026-05-04T15:50:05.045Z</time></trkpt><trkpt lat="41.7480392" lon="13.5337412"><ele>1003.0</ele><time>2026-05-04T15:50:06.045Z</time></trkpt><trkpt lat="41.7479492" lon="13.5337679"><ele>1002.2</ele><time>2026-05-04T15:50:07.046Z</time></trkpt><trkpt lat="41.7478624" lon="13.533814"><ele>1001.4</ele><time>2026-05-04T15:50:08.045Z</time></trkpt><trkpt lat="41.747776" lon="13.533874"><ele>1000.6000000000001</ele><time>2026-05-04T15:50:09.046Z</time></trkpt><trkpt lat="41.7476994" lon="13.5339635"><ele>999.8000000000001</ele><time>2026-05-04T15:50:10.045Z</time></trkpt><trkpt lat="41.7476292" lon="13.5340651"><ele>999.0</ele><time>2026-05-04T15:50:11.046Z</time></trkpt><trkpt lat="41.747572" lon="13.5341694"><ele>997.4000000000001</ele><time>2026-05-04T15:50:12.045Z</time></trkpt><trkpt lat="41.7475238" lon="13.534274"><ele>995.8000000000001</ele><time>2026-05-04T15:50:13.046Z</time></trkpt><trkpt lat="41.7474803" lon="13.5343852"><ele>994.1999999999999</ele><time>2026-05-04T15:50:14.046Z</time></trkpt><trkpt lat="41.7474444" lon="13.5345162"><ele>992.5999999999999</ele><time>2026-05-04T15:50:15.046Z</time></trkpt><trkpt lat="41.7474187" lon="13.5346491"><ele>991.0</ele><time>2026-05-04T15:50:16.045Z</time></trkpt><trkpt lat="41.7474092" lon="13.53478"><ele>990.0</ele><time>2026-05-04T15:50:17.046Z</time></trkpt><trkpt lat="41.7474113" lon="13.5349097"><ele>988.9999999999999</ele><time>2026-05-04T15:50:18.046Z</time></trkpt><trkpt lat="41.7474088" lon="13.5350475"><ele>987.9999999999999</ele><time>2026-05-04T15:50:19.045Z</time></trkpt><trkpt lat="41.7474026" lon="13.5351884"><ele>987.0</ele><time>2026-05-04T15:50:20.046Z</time></trkpt><trkpt lat="41.7474033" lon="13.5353284"><ele>986.0</ele><time>2026-05-04T15:50:21.046Z</time></trkpt><trkpt lat="41.7474053" lon="13.5354557"><ele>985.4</ele><time>2026-05-04T15:50:22.045Z</time></trkpt><trkpt lat="41.7474163" lon="13.535569"><ele>984.8</ele><time>2026-05-04T15:50:23.045Z</time></trkpt><trkpt lat="41.7474401" lon="13.5356856"><ele>984.1999999999999</ele><time>2026-05-04T15:50:24.045Z</time></trkpt><trkpt lat="41.7474731" lon="13.5358106"><ele>983.5999999999999</ele><time>2026-05-04T15:50:25.045Z</time></trkpt><trkpt lat="41.7475157" lon="13.5359427"><ele>983.0</ele><time>2026-05-04T15:50:26.045Z</time></trkpt><trkpt lat="41.7475678" lon="13.5360808"><ele>981.8</ele><time>2026-05-04T15:50:27.046Z</time></trkpt><trkpt lat="41.7476225" lon="13.536223"><ele>980.5999999999999</ele><time>2026-05-04T15:50:28.045Z</time></trkpt><trkpt lat="41.7476693" lon="13.536344"><ele>979.4000000000001</ele><time>2026-05-04T15:50:29.045Z</time></trkpt><trkpt lat="41.747711" lon="13.5364541"><ele>978.2</ele><time>2026-05-04T15:50:30.045Z</time></trkpt><trkpt lat="41.7477471" lon="13.5365504"><ele>977.0</ele><time>2026-05-04T15:50:31.046Z</time></trkpt><trkpt lat="41.747783" lon="13.5366469"><ele>979.8333333333334</ele><time>2026-05-04T15:50:32.046Z</time></trkpt><trkpt lat="41.7478201" lon="13.5367434"><ele>982.6666666666667</ele><time>2026-05-04T15:50:33.045Z</time></trkpt><trkpt lat="41.7478582" lon="13.5368295"><ele>985.5</ele><time>2026-05-04T15:50:34.045Z</time></trkpt><trkpt lat="41.7478833" lon="13.5369214"><ele>988.3333333333333</ele><time>2026-05-04T15:50:35.045Z</time></trkpt><trkpt lat="41.7478724" lon="13.537079"><ele>991.1666666666666</ele><time>2026-05-04T15:50:37.046Z</time></trkpt><trkpt lat="41.7478239" lon="13.5371494"><ele>994.0</ele><time>2026-05-04T15:50:38.045Z</time></trkpt><trkpt lat="41.7477569" lon="13.5372294"><ele>988.4000000000001</ele><time>2026-05-04T15:50:39.045Z</time></trkpt><trkpt lat="41.7476825" lon="13.5373241"><ele>982.8000000000001</ele><time>2026-05-04T15:50:40.045Z</time></trkpt><trkpt lat="41.7476132" lon="13.5374237"><ele>977.1999999999999</ele><time>2026-05-04T15:50:41.046Z</time></trkpt><trkpt lat="41.747547" lon="13.5375238"><ele>971.5999999999999</ele><time>2026-05-04T15:50:42.045Z</time></trkpt><trkpt lat="41.74749" lon="13.5376168"><ele>966.0</ele><time>2026-05-04T15:50:43.046Z</time></trkpt><trkpt lat="41.7474383" lon="13.5377005"><ele>966.0</ele><time>2026-05-04T15:50:44.046Z</time></trkpt><trkpt lat="41.7473779" lon="13.5377676"><ele>965.9999999999999</ele><time>2026-05-04T15:50:45.045Z</time></trkpt><trkpt lat="41.7473027" lon="13.5378305"><ele>965.9999999999999</ele><time>2026-05-04T15:50:46.046Z</time></trkpt><trkpt lat="41.7472116" lon="13.537889"><ele>966.0</ele><time>2026-05-04T15:50:47.045Z</time></trkpt><trkpt lat="41.7471213" lon="13.5379368"><ele>966.0</ele><time>2026-05-04T15:50:48.046Z</time></trkpt><trkpt lat="41.7470192" lon="13.537975"><ele>967.1999999999999</ele><time>2026-05-04T15:50:49.046Z</time></trkpt><trkpt lat="41.7469067" lon="13.5380048"><ele>968.3999999999999</ele><time>2026-05-04T15:50:50.046Z</time></trkpt><trkpt lat="41.7467956" lon="13.5380112"><ele>969.6</ele><time>2026-05-04T15:50:51.045Z</time></trkpt><trkpt lat="41.7466849" lon="13.538018"><ele>970.8</ele><time>2026-05-04T15:50:52.045Z</time></trkpt><trkpt lat="41.7465805" lon="13.5380151"><ele>972.0</ele><time>2026-05-04T15:50:53.045Z</time></trkpt><trkpt lat="41.7464768" lon="13.5379944"><ele>968.6</ele><time>2026-05-04T15:50:54.045Z</time></trkpt><trkpt lat="41.7463788" lon="13.5379656"><ele>965.2</ele><time>2026-05-04T15:50:55.046Z</time></trkpt><trkpt lat="41.746282" lon="13.5379389"><ele>961.8</ele><time>2026-05-04T15:50:56.046Z</time></trkpt><trkpt lat="41.7461894" lon="13.5379162"><ele>958.4</ele><time>2026-05-04T15:50:57.046Z</time></trkpt><trkpt lat="41.746091" lon="13.5379118"><ele>955.0</ele><time>2026-05-04T15:50:58.046Z</time></trkpt><trkpt lat="41.7459866" lon="13.5379228"><ele>953.25</ele><time>2026-05-04T15:50:59.046Z</time></trkpt><trkpt lat="41.7458716" lon="13.5379535"><ele>951.5</ele><time>2026-05-04T15:51:00.046Z</time></trkpt><trkpt lat="41.7457374" lon="13.5379911"><ele>949.75</ele><time>2026-05-04T15:51:01.046Z</time></trkpt><trkpt lat="41.7456049" lon="13.5380262"><ele>948.0</ele><time>2026-05-04T15:51:02.046Z</time></trkpt><trkpt lat="41.7454718" lon="13.5380556"><ele>948.0</ele><time>2026-05-04T15:51:03.046Z</time></trkpt><trkpt lat="41.7453487" lon="13.5380784"><ele>948.0</ele><time>2026-05-04T15:51:04.046Z</time></trkpt><trkpt lat="41.7452242" lon="13.5380825"><ele>948.0</ele><time>2026-05-04T15:51:05.045Z</time></trkpt><trkpt lat="41.7450974" lon="13.5380694"><ele>948.0</ele><time>2026-05-04T15:51:06.046Z</time></trkpt><trkpt lat="41.7449833" lon="13.5380483"><ele>946.75</ele><time>2026-05-04T15:51:07.045Z</time></trkpt><trkpt lat="41.7448733" lon="13.5380422"><ele>945.5</ele><time>2026-05-04T15:51:08.045Z</time></trkpt><trkpt lat="41.744757" lon="13.5380482"><ele>944.25</ele><time>2026-05-04T15:51:09.045Z</time></trkpt><trkpt lat="41.7446437" lon="13.5380629"><ele>943.0</ele><time>2026-05-04T15:51:10.046Z</time></trkpt><trkpt lat="41.7445344" lon="13.5380918"><ele>942.9999999999999</ele><time>2026-05-04T15:51:11.045Z</time></trkpt><trkpt lat="41.744438" lon="13.538116"><ele>943.0</ele><time>2026-05-04T15:51:12.045Z</time></trkpt><trkpt lat="41.7443549" lon="13.5381375"><ele>943.0</ele><time>2026-05-04T15:51:13.045Z</time></trkpt><trkpt lat="41.7442811" lon="13.5381581"><ele>943.0</ele><time>2026-05-04T15:51:14.045Z</time></trkpt><trkpt lat="41.7442171" lon="13.5381696"><ele>942.9999999999999</ele><time>2026-05-04T15:51:15.046Z</time></trkpt><trkpt lat="41.7440977" lon="13.5381581"><ele>943.0</ele><time>2026-05-04T15:51:17.046Z</time></trkpt><trkpt lat="41.7440371" lon="13.5381241"><ele>941.3333333333333</ele><time>2026-05-04T15:51:18.046Z</time></trkpt><trkpt lat="41.7439828" lon="13.5380695"><ele>939.6666666666666</ele><time>2026-05-04T15:51:19.045Z</time></trkpt><trkpt lat="41.7438777" lon="13.5379923"><ele>938.0</ele><time>2026-05-04T15:51:21.045Z</time></trkpt><trkpt lat="41.7437628" lon="13.537958"><ele>936.3333333333333</ele><time>2026-05-04T15:51:23.045Z</time></trkpt><trkpt lat="41.7436975" lon="13.5379525"><ele>934.6666666666666</ele><time>2026-05-04T15:51:24.046Z</time></trkpt><trkpt lat="41.7436324" lon="13.5379528"><ele>933.0</ele><time>2026-05-04T15:51:25.045Z</time></trkpt><trkpt lat="41.7435646" lon="13.5379546"><ele>929.8333333333334</ele><time>2026-05-04T15:51:26.045Z</time></trkpt><trkpt lat="41.7435016" lon="13.5379487"><ele>926.6666666666667</ele><time>2026-05-04T15:51:27.046Z</time></trkpt><trkpt lat="41.7434036" lon="13.5379252"><ele>923.5</ele><time>2026-05-04T15:51:29.045Z</time></trkpt><trkpt lat="41.7433283" lon="13.5379081"><ele>920.3333333333334</ele><time>2026-05-04T15:51:31.045Z</time></trkpt><trkpt lat="41.7432588" lon="13.5378705"><ele>917.1666666666667</ele><time>2026-05-04T15:51:33.046Z</time></trkpt><trkpt lat="41.743187" lon="13.5377986"><ele>914.0</ele><time>2026-05-04T15:51:35.045Z</time></trkpt><trkpt lat="41.7431442" lon="13.5377225"><ele>912.6</ele><time>2026-05-04T15:51:37.046Z</time></trkpt><trkpt lat="41.7430778" lon="13.5376241"><ele>911.2</ele><time>2026-05-04T15:52:10.045Z</time></trkpt><trkpt lat="41.7429941" lon="13.5375157"><ele>909.8000000000001</ele><time>2026-05-04T15:52:12.045Z</time></trkpt><trkpt lat="41.7428854" lon="13.53743"><ele>908.4000000000001</ele><time>2026-05-04T15:52:14.045Z</time></trkpt><trkpt lat="41.7428224" lon="13.5373892"><ele>907.0</ele><time>2026-05-04T15:52:15.045Z</time></trkpt><trkpt lat="41.742755" lon="13.5373591"><ele>903.7142857142859</ele><time>2026-05-04T15:52:16.046Z</time></trkpt><trkpt lat="41.7426896" lon="13.5373409"><ele>900.4285714285714</ele><time>2026-05-04T15:52:17.046Z</time></trkpt><trkpt lat="41.7426208" lon="13.5373364"><ele>897.1428571428572</ele><time>2026-05-04T15:52:18.046Z</time></trkpt><trkpt lat="41.7425503" lon="13.537342"><ele>893.8571428571429</ele><time>2026-05-04T15:52:19.045Z</time></trkpt><trkpt lat="41.742483" lon="13.537355"><ele>890.5714285714287</ele><time>2026-05-04T15:52:20.045Z</time></trkpt><trkpt lat="41.7424132" lon="13.5373585"><ele>887.2857142857143</ele><time>2026-05-04T15:52:21.045Z</time></trkpt><trkpt lat="41.7423411" lon="13.5373608"><ele>884.0</ele><time>2026-05-04T15:52:22.045Z</time></trkpt><trkpt lat="41.7422742" lon="13.5373526"><ele>884.0000000000001</ele><time>2026-05-04T15:52:23.046Z</time></trkpt><trkpt lat="41.7422021" lon="13.5373464"><ele>884.0</ele><time>2026-05-04T15:52:24.045Z</time></trkpt><trkpt lat="41.7421304" lon="13.537332"><ele>884.0</ele><time>2026-05-04T15:52:25.046Z</time></trkpt><trkpt lat="41.7420594" lon="13.5373269"><ele>884.0</ele><time>2026-05-04T15:52:26.046Z</time></trkpt><trkpt lat="41.7419947" lon="13.5373199"><ele>884.0</ele><time>2026-05-04T15:52:27.046Z</time></trkpt><trkpt lat="41.7419206" lon="13.5373208"><ele>884.0000000000001</ele><time>2026-05-04T15:52:28.046Z</time></trkpt><trkpt lat="41.7418365" lon="13.5373229"><ele>884.0</ele><time>2026-05-04T15:52:29.045Z</time></trkpt><trkpt lat="41.7417515" lon="13.5373224"><ele>880.8333333333334</ele><time>2026-05-04T15:52:30.046Z</time></trkpt><trkpt lat="41.7416768" lon="13.5373284"><ele>877.6666666666667</ele><time>2026-05-04T15:52:31.046Z</time></trkpt><trkpt lat="41.7415946" lon="13.537338"><ele>874.5</ele><time>2026-05-04T15:52:32.046Z</time></trkpt><trkpt lat="41.7415035" lon="13.5373424"><ele>871.3333333333333</ele><time>2026-05-04T15:52:33.045Z</time></trkpt><trkpt lat="41.7414146" lon="13.5373596"><ele>868.1666666666666</ele><time>2026-05-04T15:52:34.045Z</time></trkpt><trkpt lat="41.7413191" lon="13.5373682"><ele>865.0</ele><time>2026-05-04T15:52:35.046Z</time></trkpt><trkpt lat="41.7412249" lon="13.5373722"><ele>864.9999999999999</ele><time>2026-05-04T15:52:36.045Z</time></trkpt><trkpt lat="41.7411367" lon="13.5373806"><ele>865.0</ele><time>2026-05-04T15:52:37.045Z</time></trkpt><trkpt lat="41.7410536" lon="13.5373867"><ele>865.0</ele><time>2026-05-04T15:52:38.046Z</time></trkpt><trkpt lat="41.7409683" lon="13.5374032"><ele>865.0</ele><time>2026-05-04T15:52:39.046Z</time></trkpt><trkpt lat="41.7408873" lon="13.5374215"><ele>864.9999999999999</ele><time>2026-05-04T15:52:40.045Z</time></trkpt><trkpt lat="41.7408083" lon="13.5374537"><ele>865.0</ele><time>2026-05-04T15:52:41.044Z</time></trkpt><trkpt lat="41.74074" lon="13.5374931"><ele>862.3333333333333</ele><time>2026-05-04T15:52:42.045Z</time></trkpt><trkpt lat="41.7406702" lon="13.537536"><ele>859.6666666666666</ele><time>2026-05-04T15:52:43.044Z</time></trkpt><trkpt lat="41.7405918" lon="13.5375765"><ele>857.0</ele><time>2026-05-04T15:52:44.044Z</time></trkpt><trkpt lat="41.7405094" lon="13.5376089"><ele>854.3333333333333</ele><time>2026-05-04T15:52:45.045Z</time></trkpt><trkpt lat="41.7404362" lon="13.5376388"><ele>851.6666666666666</ele><time>2026-05-04T15:52:46.044Z</time></trkpt><trkpt lat="41.7403678" lon="13.537657"><ele>849.0</ele><time>2026-05-04T15:52:47.045Z</time></trkpt><trkpt lat="41.7402941" lon="13.5376696"><ele>849.0</ele><time>2026-05-04T15:52:48.045Z</time></trkpt><trkpt lat="41.7402183" lon="13.5376815"><ele>849.0</ele><time>2026-05-04T15:52:49.045Z</time></trkpt><trkpt lat="41.7401412" lon="13.5376888"><ele>849.0</ele><time>2026-05-04T15:52:50.045Z</time></trkpt><trkpt lat="41.7400623" lon="13.5377042"><ele>849.0</ele><time>2026-05-04T15:52:51.044Z</time></trkpt><trkpt lat="41.7399711" lon="13.5377227"><ele>849.0</ele><time>2026-05-04T15:52:52.044Z</time></trkpt><trkpt lat="41.7398874" lon="13.5377509"><ele>849.0</ele><time>2026-05-04T15:52:53.044Z</time></trkpt><trkpt lat="41.7398206" lon="13.5377747"><ele>846.4000000000001</ele><time>2026-05-04T15:52:54.045Z</time></trkpt><trkpt lat="41.7397198" lon="13.5378391"><ele>843.8</ele><time>2026-05-04T15:52:56.044Z</time></trkpt><trkpt lat="41.7396288" lon="13.5379103"><ele>841.2</ele><time>2026-05-04T15:52:58.044Z</time></trkpt><trkpt lat="41.7395728" lon="13.5379507"><ele>838.5999999999999</ele><time>2026-05-04T15:52:59.044Z</time></trkpt><trkpt lat="41.739505" lon="13.5380001"><ele>836.0</ele><time>2026-05-04T15:53:00.044Z</time></trkpt><trkpt lat="41.7394144" lon="13.5380551"><ele>832.3333333333334</ele><time>2026-05-04T15:53:01.045Z</time></trkpt><trkpt lat="41.7393238" lon="13.5381084"><ele>828.6666666666667</ele><time>2026-05-04T15:53:02.045Z</time></trkpt><trkpt lat="41.739251" lon="13.5381595"><ele>825.0</ele><time>2026-05-04T15:53:03.044Z</time></trkpt><trkpt lat="41.7391943" lon="13.5382087"><ele>821.3333333333333</ele><time>2026-05-04T15:53:04.045Z</time></trkpt><trkpt lat="41.7391458" lon="13.5382669"><ele>817.6666666666666</ele><time>2026-05-04T15:53:05.044Z</time></trkpt><trkpt lat="41.7390692" lon="13.5383706"><ele>814.0</ele><time>2026-05-04T15:53:07.045Z</time></trkpt><trkpt lat="41.7389974" lon="13.53849"><ele>814.0</ele><time>2026-05-04T15:53:09.045Z</time></trkpt><trkpt lat="41.7389407" lon="13.5385928"><ele>814.0</ele><time>2026-05-04T15:53:11.045Z</time></trkpt><trkpt lat="41.7388792" lon="13.5386863"><ele>814.0</ele><time>2026-05-04T15:53:13.044Z</time></trkpt><trkpt lat="41.7388084" lon="13.5387566"><ele>814.0</ele><time>2026-05-04T15:53:15.044Z</time></trkpt><trkpt lat="41.7387044" lon="13.5388169"><ele>814.0</ele><time>2026-05-04T15:53:17.044Z</time></trkpt><trkpt lat="41.7386429" lon="13.5388589"><ele>812.8571428571429</ele><time>2026-05-04T15:53:18.044Z</time></trkpt><trkpt lat="41.7385817" lon="13.5388995"><ele>811.7142857142858</ele><time>2026-05-04T15:53:19.044Z</time></trkpt><trkpt lat="41.7385181" lon="13.5389361"><ele>810.5714285714287</ele><time>2026-05-04T15:53:20.045Z</time></trkpt><trkpt lat="41.7384489" lon="13.5389714"><ele>809.4285714285714</ele><time>2026-05-04T15:53:21.044Z</time></trkpt><trkpt lat="41.7383784" lon="13.5389998"><ele>808.2857142857142</ele><time>2026-05-04T15:53:22.045Z</time></trkpt><trkpt lat="41.7383069" lon="13.5390337"><ele>807.1428571428572</ele><time>2026-05-04T15:53:23.044Z</time></trkpt><trkpt lat="41.738233" lon="13.5390777"><ele>806.0</ele><time>2026-05-04T15:53:24.044Z</time></trkpt><trkpt lat="41.7381579" lon="13.539138"><ele>803.0000000000001</ele><time>2026-05-04T15:53:25.045Z</time></trkpt><trkpt lat="41.7380873" lon="13.5392067"><ele>800.0</ele><time>2026-05-04T15:53:26.045Z</time></trkpt><trkpt lat="41.738024" lon="13.5392753"><ele>797.0</ele><time>2026-05-04T15:53:27.044Z</time></trkpt><trkpt lat="41.7379682" lon="13.5393463"><ele>794.0</ele><time>2026-05-04T15:53:28.044Z</time></trkpt><trkpt lat="41.7379164" lon="13.5394191"><ele>791.0000000000001</ele><time>2026-05-04T15:53:29.044Z</time></trkpt><trkpt lat="41.737844" lon="13.5395319"><ele>788.0</ele><time>2026-05-04T15:53:31.045Z</time></trkpt><trkpt lat="41.7377848" lon="13.5396635"><ele>787.0000000000001</ele><time>2026-05-04T15:53:33.045Z</time></trkpt><trkpt lat="41.737738" lon="13.5397935"><ele>786.0</ele><time>2026-05-04T15:53:35.045Z</time></trkpt><trkpt lat="41.7376851" lon="13.5399246"><ele>785.0</ele><time>2026-05-04T15:53:37.044Z</time></trkpt><trkpt lat="41.7376613" lon="13.5400192"><ele>784.0</ele><time>2026-05-04T15:53:38.045Z</time></trkpt><trkpt lat="41.7376394" lon="13.540121"><ele>783.0000000000001</ele><time>2026-05-04T15:53:39.045Z</time></trkpt><trkpt lat="41.7376122" lon="13.5402172"><ele>782.0</ele><time>2026-05-04T15:53:40.044Z</time></trkpt><trkpt lat="41.7375942" lon="13.5403186"><ele>779.0000000000001</ele><time>2026-05-04T15:53:41.044Z</time></trkpt><trkpt lat="41.7375798" lon="13.540419"><ele>776.0</ele><time>2026-05-04T15:53:42.045Z</time></trkpt><trkpt lat="41.7375667" lon="13.5405186"><ele>773.0</ele><time>2026-05-04T15:53:43.044Z</time></trkpt><trkpt lat="41.7375517" lon="13.5406275"><ele>770.0</ele><time>2026-05-04T15:53:44.044Z</time></trkpt><trkpt lat="41.7375341" lon="13.5407381"><ele>767.0</ele><time>2026-05-04T15:53:45.045Z</time></trkpt><trkpt lat="41.7375096" lon="13.5408496"><ele>764.0</ele><time>2026-05-04T15:53:46.044Z</time></trkpt><trkpt lat="41.7374855" lon="13.5409595"><ele>764.0</ele><time>2026-05-04T15:53:47.044Z</time></trkpt><trkpt lat="41.7374514" lon="13.5410597"><ele>764.0</ele><time>2026-05-04T15:53:48.045Z</time></trkpt><trkpt lat="41.7374064" lon="13.5411669"><ele>764.0</ele><time>2026-05-04T15:53:49.044Z</time></trkpt><trkpt lat="41.7373498" lon="13.5412721"><ele>764.0</ele><time>2026-05-04T15:53:50.045Z</time></trkpt><trkpt lat="41.7372861" lon="13.5413813"><ele>764.0</ele><time>2026-05-04T15:53:51.045Z</time></trkpt><trkpt lat="41.7372341" lon="13.5414806"><ele>764.6666666666666</ele><time>2026-05-04T15:53:52.045Z</time></trkpt><trkpt lat="41.7371843" lon="13.5415641"><ele>765.3333333333333</ele><time>2026-05-04T15:53:53.045Z</time></trkpt><trkpt lat="41.7371289" lon="13.5416386"><ele>766.0</ele><time>2026-05-04T15:53:54.045Z</time></trkpt><trkpt lat="41.7370693" lon="13.5417068"><ele>766.6666666666666</ele><time>2026-05-04T15:53:55.045Z</time></trkpt><trkpt lat="41.7370175" lon="13.5417741"><ele>767.3333333333334</ele><time>2026-05-04T15:53:56.045Z</time></trkpt><trkpt lat="41.7369572" lon="13.5418412"><ele>768.0</ele><time>2026-05-04T15:53:57.045Z</time></trkpt><trkpt lat="41.7369038" lon="13.5419195"><ele>768.2</ele><time>2026-05-04T15:53:58.045Z</time></trkpt><trkpt lat="41.7368563" lon="13.5419979"><ele>768.4</ele><time>2026-05-04T15:53:59.045Z</time></trkpt><trkpt lat="41.7368238" lon="13.542075"><ele>768.6</ele><time>2026-05-04T15:54:00.044Z</time></trkpt><trkpt lat="41.7367697" lon="13.5422312"><ele>768.8000000000001</ele><time>2026-05-04T15:54:02.045Z</time></trkpt><trkpt lat="41.7367491" lon="13.5423199"><ele>769.0</ele><time>2026-05-04T15:54:03.044Z</time></trkpt><trkpt lat="41.737844" lon="13.5395319"><ele>771.4000000000001</ele><time>2026-05-04T15:53:31.045Z</time></trkpt><trkpt lat="41.7377848" lon="13.5396635"><ele>773.8</ele><time>2026-05-04T15:53:33.045Z</time></trkpt><trkpt lat="41.737738" lon="13.5397935"><ele>776.2</ele><time>2026-05-04T15:53:35.045Z</time></trkpt><trkpt lat="41.7376851" lon="13.5399246"><ele>778.5999999999999</ele><time>2026-05-04T15:53:37.044Z</time></trkpt><trkpt lat="41.7376613" lon="13.5400192"><ele>781.0</ele><time>2026-05-04T15:53:38.045Z</time></trkpt><trkpt lat="41.7376394" lon="13.540121"><ele>780.9999999999999</ele><time>2026-05-04T15:53:39.045Z</time></trkpt><trkpt lat="41.7376122" lon="13.5402172"><ele>781.0</ele><time>2026-05-04T15:53:40.044Z</time></trkpt><trkpt lat="41.7375942" lon="13.5403186"><ele>781.0</ele><time>2026-05-04T15:53:41.044Z</time></trkpt><trkpt lat="41.7375798" lon="13.540419"><ele>781.0</ele><time>2026-05-04T15:53:42.045Z</time></trkpt><trkpt lat="41.7375667" lon="13.5405186"><ele>780.9999999999999</ele><time>2026-05-04T15:53:43.044Z</time></trkpt><trkpt lat="41.7375517" lon="13.5406275"><ele>781.0</ele><time>2026-05-04T15:53:44.044Z</time></trkpt><trkpt lat="41.7375341" lon="13.5407381"><ele>778.8333333333333</ele><time>2026-05-04T15:53:45.045Z</time></trkpt><trkpt lat="41.7375096" lon="13.5408496"><ele>776.6666666666666</ele><time>2026-05-04T15:53:46.044Z</time></trkpt><trkpt lat="41.7374855" lon="13.5409595"><ele>774.5</ele><time>2026-05-04T15:53:47.044Z</time></trkpt><trkpt lat="41.7374514" lon="13.5410597"><ele>772.3333333333333</ele><time>2026-05-04T15:53:48.045Z</time></trkpt><trkpt lat="41.7374064" lon="13.5411669"><ele>770.1666666666666</ele><time>2026-05-04T15:53:49.044Z</time></trkpt><trkpt lat="41.7373498" lon="13.5412721"><ele>768.0</ele><time>2026-05-04T15:53:50.045Z</time></trkpt><trkpt lat="41.7372861" lon="13.5413813"><ele>768.0</ele><time>2026-05-04T15:53:51.045Z</time></trkpt><trkpt lat="41.7372341" lon="13.5414806"><ele>768.0</ele><time>2026-05-04T15:53:52.045Z</time></trkpt><trkpt lat="41.7371843" lon="13.5415641"><ele>768.0</ele><time>2026-05-04T15:53:53.045Z</time></trkpt><trkpt lat="41.7371289" lon="13.5416386"><ele>768.0</ele><time>2026-05-04T15:53:54.045Z</time></trkpt><trkpt lat="41.7370693" lon="13.5417068"><ele>768.0</ele><time>2026-05-04T15:53:55.045Z</time></trkpt><trkpt lat="41.7370175" lon="13.5417741"><ele>768.0</ele><time>2026-05-04T15:53:56.045Z</time></trkpt><trkpt lat="41.7369572" lon="13.5418412"><ele>768.0</ele><time>2026-05-04T15:53:57.045Z</time></trkpt><trkpt lat="41.7369038" lon="13.5419195"><ele>768.0</ele><time>2026-05-04T15:53:58.045Z</time></trkpt><trkpt lat="41.7368563" lon="13.5419979"><ele>768.0</ele><time>2026-05-04T15:53:59.045Z</time></trkpt><trkpt lat="41.7368238" lon="13.542075"><ele>768.0</ele><time>2026-05-04T15:54:00.044Z</time></trkpt><trkpt lat="41.7367697" lon="13.5422312"><ele>768.0</ele><time>2026-05-04T15:54:02.045Z</time></trkpt><trkpt lat="41.7367491" lon="13.5423199"><ele>768.0</ele><time>2026-05-04T15:54:03.044Z</time></trkpt><trkpt lat="41.7367298" lon="13.5424089"><ele>764.8333333333334</ele><time>2026-05-04T15:54:04.045Z</time></trkpt><trkpt lat="41.7366998" lon="13.5424904"><ele>761.6666666666666</ele><time>2026-05-04T15:54:05.044Z</time></trkpt><trkpt lat="41.7366583" lon="13.5425659"><ele>758.5</ele><time>2026-05-04T15:54:06.045Z</time></trkpt><trkpt lat="41.736606" lon="13.542644"><ele>755.3333333333333</ele><time>2026-05-04T15:54:07.044Z</time></trkpt><trkpt lat="41.7365454" lon="13.5427305"><ele>752.1666666666666</ele><time>2026-05-04T15:54:08.044Z</time></trkpt><trkpt lat="41.7364849" lon="13.5428145"><ele>749.0</ele><time>2026-05-04T15:54:09.044Z</time></trkpt><trkpt lat="41.736418" lon="13.5428952"><ele>747.8333333333333</ele><time>2026-05-04T15:54:10.044Z</time></trkpt><trkpt lat="41.7363647" lon="13.5429629"><ele>746.6666666666666</ele><time>2026-05-04T15:54:11.044Z</time></trkpt><trkpt lat="41.7362736" lon="13.5430397"><ele>745.5</ele><time>2026-05-04T15:54:13.045Z</time></trkpt><trkpt lat="41.7361665" lon="13.543044"><ele>744.3333333333334</ele><time>2026-05-04T15:54:15.044Z</time></trkpt><trkpt lat="41.7360903" lon="13.5430425"><ele>743.1666666666667</ele><time>2026-05-04T15:54:16.044Z</time></trkpt><trkpt lat="41.736009" lon="13.5430501"><ele>742.0</ele><time>2026-05-04T15:54:17.044Z</time></trkpt><trkpt lat="41.7359298" lon="13.5430642"><ele>740.1428571428571</ele><time>2026-05-04T15:54:18.044Z</time></trkpt><trkpt lat="41.7358554" lon="13.5430942"><ele>738.2857142857142</ele><time>2026-05-04T15:54:19.044Z</time></trkpt><trkpt lat="41.7357864" lon="13.5431326"><ele>736.4285714285714</ele><time>2026-05-04T15:54:20.044Z</time></trkpt><trkpt lat="41.7357165" lon="13.5431739"><ele>734.5714285714286</ele><time>2026-05-04T15:54:21.044Z</time></trkpt><trkpt lat="41.7356453" lon="13.543205"><ele>732.7142857142857</ele><time>2026-05-04T15:54:22.045Z</time></trkpt><trkpt lat="41.7355769" lon="13.5432323"><ele>730.8571428571429</ele><time>2026-05-04T15:54:23.044Z</time></trkpt><trkpt lat="41.7355152" lon="13.5432516"><ele>729.0</ele><time>2026-05-04T15:54:24.044Z</time></trkpt><trkpt lat="41.7353905" lon="13.5432714"><ele>729.0</ele><time>2026-05-04T15:54:26.045Z</time></trkpt><trkpt lat="41.7353138" lon="13.5432758"><ele>729.0</ele><time>2026-05-04T15:54:27.045Z</time></trkpt><trkpt lat="41.735234" lon="13.5432735"><ele>729.0</ele><time>2026-05-04T15:54:28.045Z</time></trkpt><trkpt lat="41.735144" lon="13.5432682"><ele>729.0</ele><time>2026-05-04T15:54:29.044Z</time></trkpt><trkpt lat="41.7350508" lon="13.5432838"><ele>729.0</ele><time>2026-05-04T15:54:30.045Z</time></trkpt><trkpt lat="41.7349489" lon="13.5433042"><ele>729.0</ele><time>2026-05-04T15:54:31.045Z</time></trkpt><trkpt lat="41.7348457" lon="13.5433336"><ele>727.0</ele><time>2026-05-04T15:54:32.045Z</time></trkpt><trkpt lat="41.7347426" lon="13.5433709"><ele>725.0</ele><time>2026-05-04T15:54:33.045Z</time></trkpt><trkpt lat="41.7346296" lon="13.5434202"><ele>723.0</ele><time>2026-05-04T15:54:34.045Z</time></trkpt><trkpt lat="41.7345121" lon="13.5434773"><ele>721.0</ele><time>2026-05-04T15:54:35.045Z</time></trkpt><trkpt lat="41.7343972" lon="13.5435337"><ele>721.5999999999999</ele><time>2026-05-04T15:54:36.044Z</time></trkpt><trkpt lat="41.7342974" lon="13.5435761"><ele>722.2</ele><time>2026-05-04T15:54:37.045Z</time></trkpt><trkpt lat="41.7342014" lon="13.5436082"><ele>722.8</ele><time>2026-05-04T15:54:38.044Z</time></trkpt><trkpt lat="41.7341054" lon="13.5436316"><ele>723.4000000000001</ele><time>2026-05-04T15:54:39.044Z</time></trkpt><trkpt lat="41.7339994" lon="13.5436436"><ele>724.0</ele><time>2026-05-04T15:54:40.044Z</time></trkpt><trkpt lat="41.7338945" lon="13.5436574"><ele>724.0</ele><time>2026-05-04T15:54:41.044Z</time></trkpt><trkpt lat="41.7337877" lon="13.5436786"><ele>724.0</ele><time>2026-05-04T15:54:42.045Z</time></trkpt><trkpt lat="41.7336761" lon="13.5437033"><ele>724.0</ele><time>2026-05-04T15:54:43.044Z</time></trkpt><trkpt lat="41.733565" lon="13.5437291"><ele>724.0</ele><time>2026-05-04T15:54:44.044Z</time></trkpt><trkpt lat="41.7334494" lon="13.5437575"><ele>720.25</ele><time>2026-05-04T15:54:45.045Z</time></trkpt><trkpt lat="41.7333349" lon="13.5437978"><ele>716.5</ele><time>2026-05-04T15:54:46.044Z</time></trkpt><trkpt lat="41.7332178" lon="13.5438598"><ele>712.75</ele><time>2026-05-04T15:54:47.044Z</time></trkpt><trkpt lat="41.7330925" lon="13.5439292"><ele>709.0</ele><time>2026-05-04T15:54:48.045Z</time></trkpt><trkpt lat="41.7329787" lon="13.5439951"><ele>709.0</ele><time>2026-05-04T15:54:49.045Z</time></trkpt><trkpt lat="41.7328876" lon="13.5440494"><ele>709.0</ele><time>2026-05-04T15:54:50.045Z</time></trkpt><trkpt lat="41.7328105" lon="13.5440912"><ele>709.0</ele><time>2026-05-04T15:54:51.045Z</time></trkpt><trkpt lat="41.7327326" lon="13.5441228"><ele>709.0</ele><time>2026-05-04T15:54:52.045Z</time></trkpt><trkpt lat="41.7326483" lon="13.5441471"><ele>709.0</ele><time>2026-05-04T15:54:53.044Z</time></trkpt><trkpt lat="41.7325624" lon="13.5441583"><ele>709.0</ele><time>2026-05-04T15:54:54.044Z</time></trkpt><trkpt lat="41.7324859" lon="13.5441662"><ele>710.8333333333334</ele><time>2026-05-04T15:54:55.045Z</time></trkpt><trkpt lat="41.7324119" lon="13.5441827"><ele>712.6666666666667</ele><time>2026-05-04T15:54:56.044Z</time></trkpt><trkpt lat="41.73235" lon="13.5442033"><ele>714.5</ele><time>2026-05-04T15:54:57.045Z</time></trkpt><trkpt lat="41.732245" lon="13.5442829"><ele>716.3333333333334</ele><time>2026-05-04T15:54:59.044Z</time></trkpt><trkpt lat="41.7321817" lon="13.5443354"><ele>718.1666666666666</ele><time>2026-05-04T15:55:00.045Z</time></trkpt><trkpt lat="41.7321153" lon="13.5443748"><ele>720.0</ele><time>2026-05-04T15:55:01.044Z</time></trkpt><trkpt lat="41.7320431" lon="13.5443921"><ele>720.0</ele><time>2026-05-04T15:55:02.044Z</time></trkpt><trkpt lat="41.7319674" lon="13.5444105"><ele>720.0</ele><time>2026-05-04T15:55:03.045Z</time></trkpt><trkpt lat="41.7318854" lon="13.5444319"><ele>720.0</ele><time>2026-05-04T15:55:04.044Z</time></trkpt><trkpt lat="41.7318027" lon="13.5444577"><ele>720.0</ele><time>2026-05-04T15:55:05.045Z</time></trkpt><trkpt lat="41.7317232" lon="13.5444928"><ele>720.0</ele><time>2026-05-04T15:55:06.045Z</time></trkpt><trkpt lat="41.7316517" lon="13.5445332"><ele>720.0</ele><time>2026-05-04T15:55:07.044Z</time></trkpt><trkpt lat="41.7315937" lon="13.5445698"><ele>720.6666666666666</ele><time>2026-05-04T15:55:08.044Z</time></trkpt><trkpt lat="41.7315013" lon="13.544622"><ele>721.3333333333334</ele><time>2026-05-04T15:55:10.044Z</time></trkpt><trkpt lat="41.7314175" lon="13.5446444"><ele>722.0</ele><time>2026-05-04T15:55:12.045Z</time></trkpt><trkpt lat="41.7313397" lon="13.544654"><ele>722.6666666666667</ele><time>2026-05-04T15:55:14.045Z</time></trkpt><trkpt lat="41.7312731" lon="13.5446318"><ele>723.3333333333334</ele><time>2026-05-04T15:55:16.045Z</time></trkpt><trkpt lat="41.7312138" lon="13.5445644"><ele>724.0</ele><time>2026-05-04T15:55:18.044Z</time></trkpt><trkpt lat="41.7311607" lon="13.5445101"><ele>724.0</ele><time>2026-05-04T15:55:19.045Z</time></trkpt><trkpt lat="41.7311081" lon="13.5444359"><ele>724.0</ele><time>2026-05-04T15:55:20.045Z</time></trkpt><trkpt lat="41.7310625" lon="13.544367"><ele>724.0</ele><time>2026-05-04T15:55:21.045Z</time></trkpt><trkpt lat="41.7310232" lon="13.5443003"><ele>724.0</ele><time>2026-05-04T15:55:22.045Z</time></trkpt><trkpt lat="41.730934" lon="13.5441807"><ele>724.0</ele><time>2026-05-04T15:55:24.045Z</time></trkpt><trkpt lat="41.7308829" lon="13.54411"><ele>724.0</ele><time>2026-05-04T15:55:25.044Z</time></trkpt><trkpt lat="41.7308253" lon="13.5440343"><ele>724.3333333333334</ele><time>2026-05-04T15:55:26.044Z</time></trkpt><trkpt lat="41.7307706" lon="13.543966"><ele>724.6666666666667</ele><time>2026-05-04T15:55:27.045Z</time></trkpt><trkpt lat="41.730726" lon="13.5438986"><ele>725.0</ele><time>2026-05-04T15:55:28.045Z</time></trkpt><trkpt lat="41.7306747" lon="13.5438246"><ele>725.3333333333334</ele><time>2026-05-04T15:55:29.044Z</time></trkpt><trkpt lat="41.7306226" lon="13.5437443"><ele>725.6666666666666</ele><time>2026-05-04T15:55:30.044Z</time></trkpt><trkpt lat="41.7305655" lon="13.543663"><ele>726.0</ele><time>2026-05-04T15:55:31.045Z</time></trkpt><trkpt lat="41.7305163" lon="13.5435817"><ele>726.0</ele><time>2026-05-04T15:55:32.044Z</time></trkpt><trkpt lat="41.7304734" lon="13.5434958"><ele>726.0</ele><time>2026-05-04T15:55:33.044Z</time></trkpt><trkpt lat="41.7304356" lon="13.5434046"><ele>726.0</ele><time>2026-05-04T15:55:34.044Z</time></trkpt><trkpt lat="41.7304024" lon="13.5433051"><ele>726.0</ele><time>2026-05-04T15:55:35.045Z</time></trkpt><trkpt lat="41.7303706" lon="13.5432087"><ele>726.0</ele><time>2026-05-04T15:55:36.045Z</time></trkpt><trkpt lat="41.7303445" lon="13.5431005"><ele>726.0</ele><time>2026-05-04T15:55:37.045Z</time></trkpt><trkpt lat="41.7303254" lon="13.5429869"><ele>728.0</ele><time>2026-05-04T15:55:38.044Z</time></trkpt><trkpt lat="41.7303086" lon="13.5428781"><ele>730.0</ele><time>2026-05-04T15:55:39.045Z</time></trkpt><trkpt lat="41.7302948" lon="13.5427761"><ele>732.0</ele><time>2026-05-04T15:55:40.045Z</time></trkpt><trkpt lat="41.7302889" lon="13.542678"><ele>734.0</ele><time>2026-05-04T15:55:41.045Z</time></trkpt><trkpt lat="41.7302815" lon="13.5425856"><ele>736.0</ele><time>2026-05-04T15:55:42.044Z</time></trkpt><trkpt lat="41.7302544" lon="13.5424392"><ele>738.0</ele><time>2026-05-04T15:55:44.044Z</time></trkpt><trkpt lat="41.7301948" lon="13.542353"><ele>730.5</ele><time>2026-05-04T15:55:46.045Z</time></trkpt><trkpt lat="41.7301215" lon="13.5423607"><ele>723.0</ele><time>2026-05-04T15:55:48.045Z</time></trkpt><trkpt lat="41.7300458" lon="13.542482"><ele>715.5</ele><time>2026-05-04T15:55:50.045Z</time></trkpt><trkpt lat="41.7299721" lon="13.5426033"><ele>708.0</ele><time>2026-05-04T15:55:51.044Z</time></trkpt><trkpt lat="41.7298728" lon="13.5427591"><ele>703.75</ele><time>2026-05-04T15:55:52.044Z</time></trkpt><trkpt lat="41.7297783" lon="13.5429197"><ele>699.5</ele><time>2026-05-04T15:55:53.044Z</time></trkpt><trkpt lat="41.7296945" lon="13.5430623"><ele>695.25</ele><time>2026-05-04T15:55:54.044Z</time></trkpt><trkpt lat="41.7296343" lon="13.5431932"><ele>691.0</ele><time>2026-05-04T15:55:55.045Z</time></trkpt><trkpt lat="41.7295748" lon="13.5432863"><ele>691.0</ele><time>2026-05-04T15:55:56.044Z</time></trkpt><trkpt lat="41.7295204" lon="13.5433628"><ele>691.0</ele><time>2026-05-04T15:55:57.045Z</time></trkpt><trkpt lat="41.729476" lon="13.543433"><ele>691.0</ele><time>2026-05-04T15:55:58.044Z</time></trkpt><trkpt lat="41.7294453" lon="13.5435536"><ele>691.0</ele><time>2026-05-04T15:56:00.045Z</time></trkpt><trkpt lat="41.729451" lon="13.5437068"><ele>691.0</ele><time>2026-05-04T15:56:02.045Z</time></trkpt><trkpt lat="41.7294607" lon="13.5437972"><ele>691.0</ele><time>2026-05-04T15:56:03.044Z</time></trkpt><trkpt lat="41.7294709" lon="13.5438991"><ele>688.3333333333334</ele><time>2026-05-04T15:56:04.044Z</time></trkpt><trkpt lat="41.7294805" lon="13.5440231"><ele>685.6666666666667</ele><time>2026-05-04T15:56:05.044Z</time></trkpt><trkpt lat="41.7294827" lon="13.5441535"><ele>683.0</ele><time>2026-05-04T15:56:06.044Z</time></trkpt><trkpt lat="41.729484" lon="13.5442735"><ele>680.3333333333334</ele><time>2026-05-04T15:56:07.045Z</time></trkpt><trkpt lat="41.7294846" lon="13.5443867"><ele>677.6666666666666</ele><time>2026-05-04T15:56:08.044Z</time></trkpt><trkpt lat="41.7294832" lon="13.5444767"><ele>675.0</ele><time>2026-05-04T15:56:09.045Z</time></trkpt><trkpt lat="41.7294522" lon="13.5446198"><ele>672.2</ele><time>2026-05-04T15:56:11.045Z</time></trkpt><trkpt lat="41.7294007" lon="13.5447245"><ele>669.4</ele><time>2026-05-04T15:56:13.044Z</time></trkpt><trkpt lat="41.729331" lon="13.5448079"><ele>666.5999999999999</ele><time>2026-05-04T15:56:15.045Z</time></trkpt><trkpt lat="41.7292661" lon="13.5449158"><ele>663.8</ele><time>2026-05-04T15:56:17.044Z</time></trkpt><trkpt lat="41.729234" lon="13.5450483"><ele>661.0</ele><time>2026-05-04T15:56:19.045Z</time></trkpt><trkpt lat="41.729185" lon="13.5451786"><ele>663.5</ele><time>2026-05-04T15:56:21.045Z</time></trkpt><trkpt lat="41.7291034" lon="13.545281"><ele>666.0</ele><time>2026-05-04T15:56:23.045Z</time></trkpt><trkpt lat="41.7290058" lon="13.5453941"><ele>668.5</ele><time>2026-05-04T15:56:25.044Z</time></trkpt><trkpt lat="41.7289597" lon="13.5454711"><ele>671.0</ele><time>2026-05-04T15:56:26.044Z</time></trkpt><trkpt lat="41.7289233" lon="13.545548"><ele>673.5</ele><time>2026-05-04T15:56:27.045Z</time></trkpt><trkpt lat="41.72889" lon="13.5456232"><ele>676.0</ele><time>2026-05-04T15:56:28.044Z</time></trkpt><trkpt lat="41.7288784" lon="13.5457708"><ele>676.0</ele><time>2026-05-04T15:56:30.044Z</time></trkpt><trkpt lat="41.7289193" lon="13.545894"><ele>676.0</ele><time>2026-05-04T15:56:32.045Z</time></trkpt><trkpt lat="41.7289725" lon="13.5460069"><ele>676.0</ele><time>2026-05-04T15:56:34.044Z</time></trkpt><trkpt lat="41.7289935" lon="13.5461134"><ele>676.0</ele><time>2026-05-04T15:56:36.044Z</time></trkpt><trkpt lat="41.7289899" lon="13.5462273"><ele>676.0</ele><time>2026-05-04T15:56:38.045Z</time></trkpt><trkpt lat="41.7289534" lon="13.5463308"><ele>672.1999999999999</ele><time>2026-05-04T15:56:40.045Z</time></trkpt><trkpt lat="41.7288968" lon="13.5464286"><ele>668.4</ele><time>2026-05-04T15:56:42.044Z</time></trkpt><trkpt lat="41.7288373" lon="13.5465209"><ele>664.6</ele><time>2026-05-04T15:56:44.044Z</time></trkpt><trkpt lat="41.7287799" lon="13.5466248"><ele>660.8</ele><time>2026-05-04T15:56:46.044Z</time></trkpt><trkpt lat="41.7287172" lon="13.5467405"><ele>657.0</ele><time>2026-05-04T15:56:48.045Z</time></trkpt><trkpt lat="41.7286583" lon="13.5468248"><ele>657.0</ele><time>2026-05-04T15:56:50.044Z</time></trkpt><trkpt lat="41.7285937" lon="13.5468757"><ele>657.0</ele><time>2026-05-04T15:56:52.045Z</time></trkpt><trkpt lat="41.728507" lon="13.5469191"><ele>657.0</ele><time>2026-05-04T15:56:54.045Z</time></trkpt><trkpt lat="41.7283707" lon="13.5469576"><ele>657.0</ele><time>2026-05-04T15:56:56.044Z</time></trkpt><trkpt lat="41.7282871" lon="13.5469929"><ele>657.0</ele><time>2026-05-04T15:56:57.044Z</time></trkpt><trkpt lat="41.7282124" lon="13.5470221"><ele>658.1666666666666</ele><time>2026-05-04T15:56:58.044Z</time></trkpt><trkpt lat="41.72815" lon="13.5470489"><ele>659.3333333333334</ele><time>2026-05-04T15:56:59.044Z</time></trkpt><trkpt lat="41.728078" lon="13.5471292"><ele>660.5</ele><time>2026-05-04T15:57:01.045Z</time></trkpt><trkpt lat="41.7280411" lon="13.5472401"><ele>661.6666666666667</ele><time>2026-05-04T15:57:03.044Z</time></trkpt><trkpt lat="41.7280269" lon="13.5473326"><ele>662.8333333333334</ele><time>2026-05-04T15:57:04.044Z</time></trkpt><trkpt lat="41.7280121" lon="13.5474548"><ele>664.0</ele><time>2026-05-04T15:57:05.044Z</time></trkpt><trkpt lat="41.7279953" lon="13.5475791"><ele>664.0</ele><time>2026-05-04T15:57:06.045Z</time></trkpt><trkpt lat="41.7279879" lon="13.5476993"><ele>664.0</ele><time>2026-05-04T15:57:07.045Z</time></trkpt><trkpt lat="41.7279744" lon="13.5478069"><ele>664.0</ele><time>2026-05-04T15:57:08.045Z</time></trkpt><trkpt lat="41.7279652" lon="13.5478988"><ele>664.0</ele><time>2026-05-04T15:57:09.044Z</time></trkpt><trkpt lat="41.7279508" lon="13.5479899"><ele>664.0</ele><time>2026-05-04T15:57:10.044Z</time></trkpt><trkpt lat="41.7279319" lon="13.5480749"><ele>664.0</ele><time>2026-05-04T15:57:11.045Z</time></trkpt><trkpt lat="41.7279042" lon="13.5481522"><ele>664.0</ele><time>2026-05-04T15:57:12.045Z</time></trkpt><trkpt lat="41.7278516" lon="13.5482891"><ele>665.5</ele><time>2026-05-04T15:57:14.045Z</time></trkpt><trkpt lat="41.7278053" lon="13.5483515"><ele>667.0</ele><time>2026-05-04T15:57:15.044Z</time></trkpt><trkpt lat="41.7277537" lon="13.548427"><ele>668.5</ele><time>2026-05-04T15:57:16.044Z</time></trkpt><trkpt lat="41.7277102" lon="13.5485108"><ele>670.0</ele><time>2026-05-04T15:57:17.045Z</time></trkpt><trkpt lat="41.7276732" lon="13.5485894"><ele>671.5</ele><time>2026-05-04T15:57:18.045Z</time></trkpt><trkpt lat="41.7276257" lon="13.5487161"><ele>673.0</ele><time>2026-05-04T15:57:20.045Z</time></trkpt><trkpt lat="41.7276141" lon="13.5488641"><ele>673.0</ele><time>2026-05-04T15:57:27.045Z</time></trkpt><trkpt lat="41.72763" lon="13.5489875"><ele>673.0</ele><time>2026-05-04T15:57:29.044Z</time></trkpt><trkpt lat="41.72765" lon="13.5490808"><ele>673.0</ele><time>2026-05-04T15:57:30.045Z</time></trkpt><trkpt lat="41.7276702" lon="13.5491611"><ele>673.0</ele><time>2026-05-04T15:57:31.044Z</time></trkpt><trkpt lat="41.7277113" lon="13.5493078"><ele>673.0</ele><time>2026-05-04T15:57:33.044Z</time></trkpt><trkpt lat="41.7277368" lon="13.5494686"><ele>669.8</ele><time>2026-05-04T15:57:35.045Z</time></trkpt><trkpt lat="41.7277506" lon="13.5495564"><ele>666.5999999999999</ele><time>2026-05-04T15:57:36.045Z</time></trkpt><trkpt lat="41.7277493" lon="13.5497125"><ele>663.4000000000001</ele><time>2026-05-04T15:57:38.044Z</time></trkpt><trkpt lat="41.7277142" lon="13.5498261"><ele>660.2</ele><time>2026-05-04T15:57:40.044Z</time></trkpt><trkpt lat="41.7276505" lon="13.5499297"><ele>657.0</ele><time>2026-05-04T15:57:42.044Z</time></trkpt><trkpt lat="41.7275512" lon="13.5500043"><ele>657.0</ele><time>2026-05-04T15:57:44.044Z</time></trkpt><trkpt lat="41.7274466" lon="13.5500645"><ele>657.0</ele><time>2026-05-04T15:57:46.044Z</time></trkpt><trkpt lat="41.7273779" lon="13.5501027"><ele>657.0</ele><time>2026-05-04T15:57:47.044Z</time></trkpt><trkpt lat="41.7272944" lon="13.5501309"><ele>657.0</ele><time>2026-05-04T15:57:48.045Z</time></trkpt><trkpt lat="41.7272133" lon="13.5501613"><ele>657.0</ele><time>2026-05-04T15:57:49.044Z</time></trkpt><trkpt lat="41.7271318" lon="13.5501845"><ele>657.0</ele><time>2026-05-04T15:57:50.044Z</time></trkpt><trkpt lat="41.7270461" lon="13.5502072"><ele>657.0</ele><time>2026-05-04T15:57:51.044Z</time></trkpt><trkpt lat="41.7269645" lon="13.5502321"><ele>657.0</ele><time>2026-05-04T15:57:52.045Z</time></trkpt><trkpt lat="41.7268878" lon="13.5502666"><ele>657.0</ele><time>2026-05-04T15:57:53.044Z</time></trkpt><trkpt lat="41.7268194" lon="13.5503032"><ele>657.0</ele><time>2026-05-04T15:57:54.044Z</time></trkpt><trkpt lat="41.7267537" lon="13.5503416"><ele>657.0</ele><time>2026-05-04T15:57:55.044Z</time></trkpt><trkpt lat="41.7266883" lon="13.5503908"><ele>657.0</ele><time>2026-05-04T15:57:56.044Z</time></trkpt><trkpt lat="41.7266314" lon="13.5504541"><ele>653.2</ele><time>2026-05-04T15:57:57.045Z</time></trkpt><trkpt lat="41.7265732" lon="13.5505155"><ele>649.4000000000001</ele><time>2026-05-04T15:57:58.045Z</time></trkpt><trkpt lat="41.7265221" lon="13.5505793"><ele>645.5999999999999</ele><time>2026-05-04T15:57:59.045Z</time></trkpt><trkpt lat="41.7264749" lon="13.5506417"><ele>641.8</ele><time>2026-05-04T15:58:00.044Z</time></trkpt><trkpt lat="41.7263882" lon="13.5507442"><ele>638.0</ele><time>2026-05-04T15:58:02.045Z</time></trkpt><trkpt lat="41.7262772" lon="13.5508219"><ele>638.0</ele><time>2026-05-04T15:58:04.044Z</time></trkpt><trkpt lat="41.7261799" lon="13.5508799"><ele>638.0</ele><time>2026-05-04T15:58:06.044Z</time></trkpt><trkpt lat="41.7260997" lon="13.550953"><ele>638.0</ele><time>2026-05-04T15:58:08.043Z</time></trkpt><trkpt lat="41.726036" lon="13.5509968"><ele>638.0</ele><time>2026-05-04T15:58:11.044Z</time></trkpt><trkpt lat="41.7259311" lon="13.5510909"><ele>638.0</ele><time>2026-05-04T15:59:33.044Z</time></trkpt><trkpt lat="41.7258587" lon="13.5511385"><ele>635.6666666666666</ele><time>2026-05-04T15:59:34.043Z</time></trkpt><trkpt lat="41.725782" lon="13.551182"><ele>633.3333333333333</ele><time>2026-05-04T15:59:35.043Z</time></trkpt><trkpt lat="41.7257035" lon="13.5512198"><ele>631.0</ele><time>2026-05-04T15:59:36.043Z</time></trkpt><trkpt lat="41.7256304" lon="13.5512527"><ele>628.6666666666666</ele><time>2026-05-04T15:59:37.043Z</time></trkpt><trkpt lat="41.725562" lon="13.5512854"><ele>626.3333333333334</ele><time>2026-05-04T15:59:38.044Z</time></trkpt><trkpt lat="41.7254965" lon="13.55132"><ele>624.0</ele><time>2026-05-04T15:59:39.044Z</time></trkpt><trkpt lat="41.725433" lon="13.5513535"><ele>624.0</ele><time>2026-05-04T15:59:40.044Z</time></trkpt><trkpt lat="41.7253757" lon="13.5514009"><ele>624.0</ele><time>2026-05-04T15:59:41.044Z</time></trkpt><trkpt lat="41.7253268" lon="13.551461"><ele>624.0</ele><time>2026-05-04T15:59:42.043Z</time></trkpt><trkpt lat="41.7252677" lon="13.5515358"><ele>624.0</ele><time>2026-05-04T15:59:43.043Z</time></trkpt><trkpt lat="41.7251937" lon="13.5516145"><ele>624.0</ele><time>2026-05-04T15:59:44.043Z</time></trkpt><trkpt lat="41.7251191" lon="13.5516913"><ele>624.0</ele><time>2026-05-04T15:59:45.044Z</time></trkpt><trkpt lat="41.7250439" lon="13.5517603"><ele>626.1666666666666</ele><time>2026-05-04T15:59:46.044Z</time></trkpt><trkpt lat="41.7249727" lon="13.5518143"><ele>628.3333333333334</ele><time>2026-05-04T15:59:47.043Z</time></trkpt><trkpt lat="41.7248998" lon="13.5518628"><ele>630.5</ele><time>2026-05-04T15:59:48.044Z</time></trkpt><trkpt lat="41.7248305" lon="13.5519065"><ele>632.6666666666667</ele><time>2026-05-04T15:59:49.044Z</time></trkpt><trkpt lat="41.7247694" lon="13.5519416"><ele>634.8333333333334</ele><time>2026-05-04T15:59:50.044Z</time></trkpt><trkpt lat="41.7246773" lon="13.5519841"><ele>637.0</ele><time>2026-05-04T15:59:52.043Z</time></trkpt><trkpt lat="41.7245888" lon="13.5519563"><ele>637.0</ele><time>2026-05-04T15:59:54.043Z</time></trkpt><trkpt lat="41.7244943" lon="13.5518618"><ele>637.0</ele><time>2026-05-04T15:59:56.043Z</time></trkpt><trkpt lat="41.7244061" lon="13.5517432"><ele>637.0</ele><time>2026-05-04T15:59:58.043Z</time></trkpt><trkpt lat="41.724355" lon="13.5516801"><ele>637.0</ele><time>2026-05-04T15:59:59.044Z</time></trkpt><trkpt lat="41.7242972" lon="13.5516189"><ele>637.0</ele><time>2026-05-04T16:00:00.043Z</time></trkpt><trkpt lat="41.7242334" lon="13.5515556"><ele>638.3333333333334</ele><time>2026-05-04T16:00:01.043Z</time></trkpt><trkpt lat="41.7241694" lon="13.5514914"><ele>639.6666666666667</ele><time>2026-05-04T16:00:02.044Z</time></trkpt><trkpt lat="41.7241001" lon="13.5514215"><ele>641.0</ele><time>2026-05-04T16:00:03.044Z</time></trkpt><trkpt lat="41.7240263" lon="13.5513549"><ele>642.3333333333334</ele><time>2026-05-04T16:00:04.044Z</time></trkpt><trkpt lat="41.7239481" lon="13.5512865"><ele>643.6666666666666</ele><time>2026-05-04T16:00:05.044Z</time></trkpt><trkpt lat="41.7238699" lon="13.5512198"><ele>645.0</ele><time>2026-05-04T16:00:06.043Z</time></trkpt><trkpt lat="41.7237889" lon="13.5511516"><ele>645.0</ele><time>2026-05-04T16:00:07.044Z</time></trkpt><trkpt lat="41.7237092" lon="13.5510778"><ele>645.0</ele><time>2026-05-04T16:00:08.043Z</time></trkpt><trkpt lat="41.7236303" lon="13.5510072"><ele>645.0</ele><time>2026-05-04T16:00:09.043Z</time></trkpt><trkpt lat="41.723558" lon="13.5509457"><ele>645.0</ele><time>2026-05-04T16:00:10.044Z</time></trkpt><trkpt lat="41.7234944" lon="13.5508823"><ele>645.0</ele><time>2026-05-04T16:00:11.044Z</time></trkpt><trkpt lat="41.723436" lon="13.5508254"><ele>645.0</ele><time>2026-05-04T16:00:12.044Z</time></trkpt><trkpt lat="41.7233884" lon="13.55077"><ele>638.6666666666666</ele><time>2026-05-04T16:00:13.043Z</time></trkpt><trkpt lat="41.7233081" lon="13.5507011"><ele>632.3333333333334</ele><time>2026-05-04T16:00:15.044Z</time></trkpt><trkpt lat="41.72324" lon="13.5507785"><ele>626.0</ele><time>2026-05-04T16:00:18.043Z</time></trkpt><trkpt lat="41.7232634" lon="13.5509131"><ele>619.6666666666667</ele><time>2026-05-04T16:00:20.044Z</time></trkpt><trkpt lat="41.7232856" lon="13.5510066"><ele>613.3333333333334</ele><time>2026-05-04T16:00:21.044Z</time></trkpt><trkpt lat="41.7233125" lon="13.5511035"><ele>607.0</ele><time>2026-05-04T16:00:22.043Z</time></trkpt><trkpt lat="41.7233426" lon="13.5512144"><ele>603.8333333333334</ele><time>2026-05-04T16:00:23.043Z</time></trkpt><trkpt lat="41.723377" lon="13.551333"><ele>600.6666666666667</ele><time>2026-05-04T16:00:24.043Z</time></trkpt><trkpt lat="41.7234056" lon="13.5514453"><ele>597.5</ele><time>2026-05-04T16:00:25.044Z</time></trkpt><trkpt lat="41.7234421" lon="13.5515534"><ele>594.3333333333334</ele><time>2026-05-04T16:00:26.044Z</time></trkpt><trkpt lat="41.7234807" lon="13.5516575"><ele>591.1666666666666</ele><time>2026-05-04T16:00:27.044Z</time></trkpt><trkpt lat="41.7235133" lon="13.5517404"><ele>588.0</ele><time>2026-05-04T16:00:28.044Z</time></trkpt><trkpt lat="41.7235286" lon="13.5518903"><ele>588.0</ele><time>2026-05-04T16:00:30.044Z</time></trkpt><trkpt lat="41.7235078" lon="13.5519792"><ele>588.0</ele><time>2026-05-04T16:00:31.043Z</time></trkpt><trkpt lat="41.7234772" lon="13.5520807"><ele>588.0</ele><time>2026-05-04T16:00:32.044Z</time></trkpt><trkpt lat="41.7234447" lon="13.5521982"><ele>588.0</ele><time>2026-05-04T16:00:33.044Z</time></trkpt><trkpt lat="41.7234173" lon="13.5523074"><ele>588.0</ele><time>2026-05-04T16:00:34.043Z</time></trkpt><trkpt lat="41.7233882" lon="13.5523987"><ele>588.0</ele><time>2026-05-04T16:00:35.043Z</time></trkpt><trkpt lat="41.7233364" lon="13.5524769"><ele>586.6</ele><time>2026-05-04T16:00:36.044Z</time></trkpt><trkpt lat="41.7232696" lon="13.5525608"><ele>585.1999999999999</ele><time>2026-05-04T16:00:37.043Z</time></trkpt><trkpt lat="41.7232003" lon="13.5526546"><ele>583.8</ele><time>2026-05-04T16:00:38.044Z</time></trkpt><trkpt lat="41.7231328" lon="13.5527609"><ele>582.4</ele><time>2026-05-04T16:00:39.044Z</time></trkpt><trkpt lat="41.7230625" lon="13.5528663"><ele>581.0</ele><time>2026-05-04T16:00:40.044Z</time></trkpt><trkpt lat="41.722989" lon="13.5529818"><ele>580.2</ele><time>2026-05-04T16:00:41.044Z</time></trkpt><trkpt lat="41.7229119" lon="13.5530915"><ele>579.4000000000001</ele><time>2026-05-04T16:00:42.043Z</time></trkpt><trkpt lat="41.7228432" lon="13.5532071"><ele>578.6</ele><time>2026-05-04T16:00:43.044Z</time></trkpt><trkpt lat="41.7227866" lon="13.5533337"><ele>577.8000000000001</ele><time>2026-05-04T16:00:44.044Z</time></trkpt><trkpt lat="41.7227409" lon="13.5534705"><ele>577.0</ele><time>2026-05-04T16:00:45.043Z</time></trkpt><trkpt lat="41.722706" lon="13.5536092"><ele>569.4</ele><time>2026-05-04T16:00:46.044Z</time></trkpt><trkpt lat="41.7226685" lon="13.5537445"><ele>561.8000000000001</ele><time>2026-05-04T16:00:47.044Z</time></trkpt><trkpt lat="41.7226297" lon="13.5538719"><ele>554.2</ele><time>2026-05-04T16:00:48.043Z</time></trkpt><trkpt lat="41.7225944" lon="13.5539818"><ele>546.6</ele><time>2026-05-04T16:00:49.043Z</time></trkpt><trkpt lat="41.7225616" lon="13.554084"><ele>539.0</ele><time>2026-05-04T16:00:50.044Z</time></trkpt><trkpt lat="41.722535" lon="13.554176"><ele>539.0</ele><time>2026-05-04T16:00:51.044Z</time></trkpt><trkpt lat="41.7225082" lon="13.5542556"><ele>539.0</ele><time>2026-05-04T16:00:52.044Z</time></trkpt><trkpt lat="41.7224548" lon="13.5543919"><ele>539.0</ele><time>2026-05-04T16:00:54.044Z</time></trkpt><trkpt lat="41.7223815" lon="13.5545084"><ele>539.0</ele><time>2026-05-04T16:00:56.043Z</time></trkpt><trkpt lat="41.7223058" lon="13.554631"><ele>539.0</ele><time>2026-05-04T16:00:58.044Z</time></trkpt><trkpt lat="41.7222248" lon="13.5547352"><ele>536.6</ele><time>2026-05-04T16:01:00.044Z</time></trkpt><trkpt lat="41.7221775" lon="13.5548185"><ele>534.2</ele><time>2026-05-04T16:01:02.043Z</time></trkpt><trkpt lat="41.7221454" lon="13.5549919"><ele>531.8000000000001</ele><time>2026-05-04T16:01:04.043Z</time></trkpt><trkpt lat="41.722214" lon="13.5550559"><ele>529.4</ele><time>2026-05-04T16:01:06.043Z</time></trkpt><trkpt lat="41.7223356" lon="13.5550961"><ele>527.0</ele><time>2026-05-04T16:01:08.044Z</time></trkpt><trkpt lat="41.7223998" lon="13.5551345"><ele>527.0</ele><time>2026-05-04T16:01:09.043Z</time></trkpt><trkpt lat="41.7224601" lon="13.5551979"><ele>527.0</ele><time>2026-05-04T16:01:10.043Z</time></trkpt><trkpt lat="41.7225259" lon="13.5552548"><ele>527.0</ele><time>2026-05-04T16:01:11.043Z</time></trkpt><trkpt lat="41.7225639" lon="13.5553521"><ele>527.0</ele><time>2026-05-04T16:01:12.043Z</time></trkpt><trkpt lat="41.7226122" lon="13.5554283"><ele>527.0</ele><time>2026-05-04T16:01:13.043Z</time></trkpt><trkpt lat="41.7226501" lon="13.5555036"><ele>527.0</ele><time>2026-05-04T16:01:14.044Z</time></trkpt><trkpt lat="41.7227019" lon="13.555601"><ele>524.6</ele><time>2026-05-04T16:01:16.044Z</time></trkpt><trkpt lat="41.7227895" lon="13.5556254"><ele>522.2</ele><time>2026-05-04T16:01:18.044Z</time></trkpt><trkpt lat="41.7228331" lon="13.5557632"><ele>519.8</ele><time>2026-05-04T16:01:20.044Z</time></trkpt><trkpt lat="41.7229347" lon="13.5557658"><ele>517.4</ele><time>2026-05-04T16:01:23.043Z</time></trkpt><trkpt lat="41.7230315" lon="13.5557177"><ele>515.0</ele><time>2026-05-04T16:01:25.043Z</time></trkpt><trkpt lat="41.7231206" lon="13.5556881"><ele>515.0</ele><time>2026-05-04T16:01:27.044Z</time></trkpt><trkpt lat="41.7231969" lon="13.5556878"><ele>515.0</ele><time>2026-05-04T16:01:29.044Z</time></trkpt><trkpt lat="41.7232545" lon="13.5557252"><ele>515.0</ele><time>2026-05-04T16:01:31.043Z</time></trkpt><trkpt lat="41.7233038" lon="13.5558271"><ele>515.0</ele><time>2026-05-04T16:01:33.044Z</time></trkpt><trkpt lat="41.7233102" lon="13.555912"><ele>515.0</ele><time>2026-05-04T16:01:34.044Z</time></trkpt><trkpt lat="41.7233119" lon="13.5559984"><ele>515.0</ele><time>2026-05-04T16:01:35.043Z</time></trkpt><trkpt lat="41.7233355" lon="13.5561558"><ele>512.3333333333333</ele><time>2026-05-04T16:01:37.044Z</time></trkpt><trkpt lat="41.7233546" lon="13.5563084"><ele>509.66666666666663</ele><time>2026-05-04T16:01:39.044Z</time></trkpt><trkpt lat="41.7233582" lon="13.5563977"><ele>507.0</ele><time>2026-05-04T16:01:40.044Z</time></trkpt><trkpt lat="41.7233637" lon="13.5564903"><ele>504.33333333333337</ele><time>2026-05-04T16:01:41.044Z</time></trkpt><trkpt lat="41.7233706" lon="13.5565925"><ele>501.6666666666667</ele><time>2026-05-04T16:01:42.043Z</time></trkpt><trkpt lat="41.7233871" lon="13.5566847"><ele>499.0</ele><time>2026-05-04T16:01:43.043Z</time></trkpt><trkpt lat="41.7233969" lon="13.5567738"><ele>499.00000000000006</ele><time>2026-05-04T16:01:44.044Z</time></trkpt><trkpt lat="41.7234031" lon="13.5568619"><ele>499.0</ele><time>2026-05-04T16:01:45.044Z</time></trkpt><trkpt lat="41.7234083" lon="13.5569572"><ele>499.0</ele><time>2026-05-04T16:01:46.044Z</time></trkpt><trkpt lat="41.723413" lon="13.5570463"><ele>499.0</ele><time>2026-05-04T16:01:47.043Z</time></trkpt><trkpt lat="41.7234341" lon="13.5571989"><ele>499.00000000000006</ele><time>2026-05-04T16:01:49.044Z</time></trkpt><trkpt lat="41.723455" lon="13.5572865"><ele>499.0</ele><time>2026-05-04T16:01:50.043Z</time></trkpt><trkpt lat="41.7234682" lon="13.557371"><ele>496.79999999999995</ele><time>2026-05-04T16:01:51.043Z</time></trkpt><trkpt lat="41.7234939" lon="13.5574908"><ele>494.59999999999997</ele><time>2026-05-04T16:01:53.043Z</time></trkpt><trkpt lat="41.7235344" lon="13.5576118"><ele>492.4</ele><time>2026-05-04T16:01:55.044Z</time></trkpt><trkpt lat="41.7235771" lon="13.5577613"><ele>490.2</ele><time>2026-05-04T16:01:57.043Z</time></trkpt><trkpt lat="41.7236379" lon="13.5578971"><ele>488.0</ele><time>2026-05-04T16:01:59.043Z</time></trkpt><trkpt lat="41.7237036" lon="13.5580311"><ele>482.49999999999994</ele><time>2026-05-04T16:02:01.043Z</time></trkpt><trkpt lat="41.7237643" lon="13.5581663"><ele>477.0</ele><time>2026-05-04T16:02:03.044Z</time></trkpt><trkpt lat="41.7237878" lon="13.5582471"><ele>471.5</ele><time>2026-05-04T16:02:04.044Z</time></trkpt><trkpt lat="41.7238141" lon="13.5583265"><ele>466.0</ele><time>2026-05-04T16:02:05.043Z</time></trkpt><trkpt lat="41.7238378" lon="13.5584087"><ele>460.49999999999994</ele><time>2026-05-04T16:02:06.044Z</time></trkpt><trkpt lat="41.7238747" lon="13.5585707"><ele>455.0</ele><time>2026-05-04T16:02:08.043Z</time></trkpt><trkpt lat="41.72389" lon="13.5586555"><ele>453.42857142857144</ele><time>2026-05-04T16:02:09.044Z</time></trkpt><trkpt lat="41.7239033" lon="13.5587391"><ele>451.8571428571429</ele><time>2026-05-04T16:02:10.044Z</time></trkpt><trkpt lat="41.7239176" lon="13.5588246"><ele>450.2857142857143</ele><time>2026-05-04T16:02:11.043Z</time></trkpt><trkpt lat="41.723931" lon="13.558908"><ele>448.7142857142857</ele><time>2026-05-04T16:02:12.043Z</time></trkpt><trkpt lat="41.7239498" lon="13.5590582"><ele>447.14285714285717</ele><time>2026-05-04T16:02:14.044Z</time></trkpt><trkpt lat="41.7239659" lon="13.5591404"><ele>445.57142857142856</ele><time>2026-05-04T16:02:15.043Z</time></trkpt><trkpt lat="41.7239937" lon="13.5592222"><ele>444.0</ele><time>2026-05-04T16:02:16.043Z</time></trkpt><trkpt lat="41.7240295" lon="13.5593181"><ele>444.0</ele><time>2026-05-04T16:02:17.043Z</time></trkpt><trkpt lat="41.7240653" lon="13.559409"><ele>444.0</ele><time>2026-05-04T16:02:18.044Z</time></trkpt><trkpt lat="41.7240981" lon="13.5594988"><ele>444.0</ele><time>2026-05-04T16:02:19.043Z</time></trkpt><trkpt lat="41.7241252" lon="13.5595933"><ele>444.0</ele><time>2026-05-04T16:02:20.044Z</time></trkpt><trkpt lat="41.7241616" lon="13.5596876"><ele>444.0</ele><time>2026-05-04T16:02:21.044Z</time></trkpt><trkpt lat="41.7241981" lon="13.5597851"><ele>444.0</ele><time>2026-05-04T16:02:22.043Z</time></trkpt><trkpt lat="41.7242279" lon="13.5598837"><ele>442.6666666666667</ele><time>2026-05-04T16:02:23.043Z</time></trkpt><trkpt lat="41.7242538" lon="13.5599833"><ele>441.33333333333337</ele><time>2026-05-04T16:02:24.043Z</time></trkpt><trkpt lat="41.7242685" lon="13.5600786"><ele>440.0</ele><time>2026-05-04T16:02:25.043Z</time></trkpt><trkpt lat="41.7242728" lon="13.56018"><ele>438.6666666666667</ele><time>2026-05-04T16:02:26.043Z</time></trkpt><trkpt lat="41.724271" lon="13.5602963"><ele>437.33333333333337</ele><time>2026-05-04T16:02:27.044Z</time></trkpt><trkpt lat="41.7242663" lon="13.5604102"><ele>436.0</ele><time>2026-05-04T16:02:28.044Z</time></trkpt><trkpt lat="41.7242684" lon="13.560508"><ele>434.00000000000006</ele><time>2026-05-04T16:02:29.044Z</time></trkpt><trkpt lat="41.7242851" lon="13.5605978"><ele>432.0</ele><time>2026-05-04T16:02:30.044Z</time></trkpt><trkpt lat="41.7242994" lon="13.5606829"><ele>430.0</ele><time>2026-05-04T16:02:31.044Z</time></trkpt><trkpt lat="41.7243125" lon="13.5608252"><ele>428.0</ele><time>2026-05-04T16:02:33.043Z</time></trkpt><trkpt lat="41.7242893" lon="13.560961"><ele>426.00000000000006</ele><time>2026-05-04T16:02:35.043Z</time></trkpt><trkpt lat="41.7242553" lon="13.5610861"><ele>424.0</ele><time>2026-05-04T16:02:37.043Z</time></trkpt><trkpt lat="41.7242389" lon="13.5611902"><ele>422.2</ele><time>2026-05-04T16:02:39.043Z</time></trkpt><trkpt lat="41.724253" lon="13.5613137"><ele>420.4</ele><time>2026-05-04T16:02:41.043Z</time></trkpt><trkpt lat="41.7243053" lon="13.5614227"><ele>418.6</ele><time>2026-05-04T16:02:43.044Z</time></trkpt><trkpt lat="41.7243939" lon="13.5615295"><ele>416.8</ele><time>2026-05-04T16:02:45.044Z</time></trkpt><trkpt lat="41.724431" lon="13.5616896"><ele>415.0</ele><time>2026-05-04T16:02:47.043Z</time></trkpt><trkpt lat="41.724423" lon="13.5618029"><ele>413.6</ele><time>2026-05-04T16:02:48.043Z</time></trkpt><trkpt lat="41.7244228" lon="13.5619171"><ele>412.2</ele><time>2026-05-04T16:02:49.044Z</time></trkpt><trkpt lat="41.7244431" lon="13.5620377"><ele>410.79999999999995</ele><time>2026-05-04T16:02:50.044Z</time></trkpt><trkpt lat="41.7244862" lon="13.562177"><ele>409.4</ele><time>2026-05-04T16:02:51.044Z</time></trkpt><trkpt lat="41.7245421" lon="13.5623269"><ele>408.0</ele><time>2026-05-04T16:02:52.043Z</time></trkpt><trkpt lat="41.7246033" lon="13.5624866"><ele>407.59999999999997</ele><time>2026-05-04T16:02:53.044Z</time></trkpt><trkpt lat="41.7246624" lon="13.5626519"><ele>407.2</ele><time>2026-05-04T16:02:54.044Z</time></trkpt><trkpt lat="41.7247096" lon="13.5627987"><ele>406.8</ele><time>2026-05-04T16:02:55.044Z</time></trkpt><trkpt lat="41.7247285" lon="13.5629248"><ele>406.4</ele><time>2026-05-04T16:02:56.044Z</time></trkpt><trkpt lat="41.7247362" lon="13.5630401"><ele>406.0</ele><time>2026-05-04T16:02:57.043Z</time></trkpt><trkpt lat="41.724729" lon="13.5631402"><ele>406.0</ele><time>2026-05-04T16:02:58.043Z</time></trkpt><trkpt lat="41.7246708" lon="13.5632913"><ele>406.0</ele><time>2026-05-04T16:03:00.043Z</time></trkpt><trkpt lat="41.7246177" lon="13.5633745"><ele>406.0</ele><time>2026-05-04T16:03:01.043Z</time></trkpt><trkpt lat="41.724543" lon="13.5634565"><ele>406.0</ele><time>2026-05-04T16:03:02.043Z</time></trkpt><trkpt lat="41.724463" lon="13.5635363"><ele>406.0</ele><time>2026-05-04T16:03:03.044Z</time></trkpt><trkpt lat="41.7243853" lon="13.5636178"><ele>403.50000000000006</ele><time>2026-05-04T16:03:04.044Z</time></trkpt><trkpt lat="41.7243203" lon="13.5637012"><ele>401.0</ele><time>2026-05-04T16:03:05.044Z</time></trkpt><trkpt lat="41.7242828" lon="13.563805"><ele>398.5</ele><time>2026-05-04T16:03:06.043Z</time></trkpt><trkpt lat="41.7242612" lon="13.5639165"><ele>396.0</ele><time>2026-05-04T16:03:07.043Z</time></trkpt><trkpt lat="41.7242362" lon="13.5640323"><ele>393.50000000000006</ele><time>2026-05-04T16:03:08.043Z</time></trkpt><trkpt lat="41.7242015" lon="13.5641379"><ele>391.0</ele><time>2026-05-04T16:03:09.044Z</time></trkpt><trkpt lat="41.724163" lon="13.5642426"><ele>391.00000000000006</ele><time>2026-05-04T16:03:10.044Z</time></trkpt><trkpt lat="41.7241156" lon="13.5643299"><ele>391.0</ele><time>2026-05-04T16:03:11.044Z</time></trkpt><trkpt lat="41.7240707" lon="13.5644119"><ele>391.0</ele><time>2026-05-04T16:03:12.044Z</time></trkpt><trkpt lat="41.7240121" lon="13.5644869"><ele>391.0</ele><time>2026-05-04T16:03:13.043Z</time></trkpt><trkpt lat="41.7239536" lon="13.5645574"><ele>391.00000000000006</ele><time>2026-05-04T16:03:14.044Z</time></trkpt><trkpt lat="41.7238998" lon="13.5646256"><ele>391.0</ele><time>2026-05-04T16:03:15.043Z</time></trkpt><trkpt lat="41.7238515" lon="13.5646886"><ele>390.1666666666667</ele><time>2026-05-04T16:03:16.044Z</time></trkpt><trkpt lat="41.7237989" lon="13.5647393"><ele>389.33333333333337</ele><time>2026-05-04T16:03:17.043Z</time></trkpt><trkpt lat="41.7237399" lon="13.5647927"><ele>388.5</ele><time>2026-05-04T16:03:18.044Z</time></trkpt><trkpt lat="41.7236745" lon="13.5648465"><ele>387.66666666666663</ele><time>2026-05-04T16:03:19.043Z</time></trkpt><trkpt lat="41.723603" lon="13.5648807"><ele>386.8333333333333</ele><time>2026-05-04T16:03:20.043Z</time></trkpt><trkpt lat="41.7235223" lon="13.5648993"><ele>386.0</ele><time>2026-05-04T16:03:21.044Z</time></trkpt><trkpt lat="41.7234308" lon="13.5648969"><ele>385.4</ele><time>2026-05-04T16:03:22.043Z</time></trkpt><trkpt lat="41.7233359" lon="13.5648795"><ele>384.8</ele><time>2026-05-04T16:03:23.043Z</time></trkpt><trkpt lat="41.7232547" lon="13.5648678"><ele>384.2</ele><time>2026-05-04T16:03:24.044Z</time></trkpt><trkpt lat="41.723153" lon="13.5648727"><ele>383.59999999999997</ele><time>2026-05-04T16:03:26.044Z</time></trkpt><trkpt lat="41.7230986" lon="13.5649425"><ele>383.0</ele><time>2026-05-04T16:03:28.043Z</time></trkpt><trkpt lat="41.723036" lon="13.5650794"><ele>383.0</ele><time>2026-05-04T16:03:30.043Z</time></trkpt><trkpt lat="41.7229693" lon="13.565184"><ele>383.0</ele><time>2026-05-04T16:03:31.044Z</time></trkpt><trkpt lat="41.7228867" lon="13.5653116"><ele>383.0</ele><time>2026-05-04T16:03:32.043Z</time></trkpt><trkpt lat="41.7228011" lon="13.5654407"><ele>383.0</ele><time>2026-05-04T16:03:33.044Z</time></trkpt><trkpt lat="41.7227393" lon="13.5655468"><ele>381.0</ele><time>2026-05-04T16:03:34.043Z</time></trkpt><trkpt lat="41.7226867" lon="13.5656374"><ele>379.0</ele><time>2026-05-04T16:03:35.044Z</time></trkpt><trkpt lat="41.7226344" lon="13.5657098"><ele>377.0</ele><time>2026-05-04T16:03:36.044Z</time></trkpt><trkpt lat="41.7225745" lon="13.5657737"><ele>375.0</ele><time>2026-05-04T16:03:37.044Z</time></trkpt><trkpt lat="41.7225029" lon="13.56584"><ele>373.0</ele><time>2026-05-04T16:03:38.043Z</time></trkpt><trkpt lat="41.7224266" lon="13.5659011"><ele>371.0</ele><time>2026-05-04T16:03:39.043Z</time></trkpt><trkpt lat="41.722358" lon="13.5659522"><ele>371.0</ele><time>2026-05-04T16:03:40.044Z</time></trkpt><trkpt lat="41.7222871" lon="13.5659969"><ele>371.0</ele><time>2026-05-04T16:03:41.044Z</time></trkpt><trkpt lat="41.7222207" lon="13.5660403"><ele>371.0</ele><time>2026-05-04T16:03:42.043Z</time></trkpt><trkpt lat="41.7221619" lon="13.5660866"><ele>371.0</ele><time>2026-05-04T16:03:43.042Z</time></trkpt><trkpt lat="41.7221051" lon="13.5661368"><ele>371.0</ele><time>2026-05-04T16:03:44.043Z</time></trkpt><trkpt lat="41.7220414" lon="13.5661918"><ele>371.0</ele><time>2026-05-04T16:03:45.043Z</time></trkpt><trkpt lat="41.7219824" lon="13.5662485"><ele>371.0</ele><time>2026-05-04T16:03:46.043Z</time></trkpt><trkpt lat="41.7219217" lon="13.5663082"><ele>368.6666666666667</ele><time>2026-05-04T16:03:47.042Z</time></trkpt><trkpt lat="41.7218593" lon="13.5663744"><ele>366.33333333333337</ele><time>2026-05-04T16:03:48.042Z</time></trkpt><trkpt lat="41.721804" lon="13.5664394"><ele>364.0</ele><time>2026-05-04T16:03:49.043Z</time></trkpt><trkpt lat="41.7217503" lon="13.5665062"><ele>361.6666666666667</ele><time>2026-05-04T16:03:50.043Z</time></trkpt><trkpt lat="41.7216959" lon="13.5665722"><ele>359.3333333333333</ele><time>2026-05-04T16:03:51.042Z</time></trkpt><trkpt lat="41.7216504" lon="13.5666336"><ele>357.0</ele><time>2026-05-04T16:03:52.042Z</time></trkpt><trkpt lat="41.7215736" lon="13.5667212"><ele>357.0</ele><time>2026-05-04T16:03:54.042Z</time></trkpt><trkpt lat="41.7214761" lon="13.5667321"><ele>357.0</ele><time>2026-05-04T16:03:56.042Z</time></trkpt><trkpt lat="41.7213644" lon="13.566759"><ele>357.0</ele><time>2026-05-04T16:03:58.042Z</time></trkpt><trkpt lat="41.7213023" lon="13.5668025"><ele>357.0</ele><time>2026-05-04T16:03:59.043Z</time></trkpt><trkpt lat="41.7212302" lon="13.566867"><ele>357.0</ele><time>2026-05-04T16:04:00.043Z</time></trkpt><trkpt lat="41.7211605" lon="13.5669405"><ele>357.0</ele><time>2026-05-04T16:04:01.042Z</time></trkpt><trkpt lat="41.7210859" lon="13.5670232"><ele>357.0</ele><time>2026-05-04T16:04:02.043Z</time></trkpt><trkpt lat="41.7210255" lon="13.5671116"><ele>357.0</ele><time>2026-05-04T16:04:03.043Z</time></trkpt><trkpt lat="41.7209694" lon="13.5672035"><ele>357.0</ele><time>2026-05-04T16:04:04.042Z</time></trkpt><trkpt lat="41.7209232" lon="13.5672901"><ele>357.0</ele><time>2026-05-04T16:04:05.043Z</time></trkpt><trkpt lat="41.7208933" lon="13.5673953"><ele>357.0</ele><time>2026-05-04T16:04:06.042Z</time></trkpt><trkpt lat="41.7208736" lon="13.5675106"><ele>354.1666666666667</ele><time>2026-05-04T16:04:07.043Z</time></trkpt><trkpt lat="41.7208637" lon="13.5676373"><ele>351.3333333333333</ele><time>2026-05-04T16:04:08.043Z</time></trkpt><trkpt lat="41.7208494" lon="13.5677461"><ele>348.5</ele><time>2026-05-04T16:04:09.042Z</time></trkpt><trkpt lat="41.7208305" lon="13.5678405"><ele>345.66666666666663</ele><time>2026-05-04T16:04:10.043Z</time></trkpt><trkpt lat="41.7207923" lon="13.5679374"><ele>342.8333333333333</ele><time>2026-05-04T16:04:11.042Z</time></trkpt><trkpt lat="41.7207395" lon="13.5680631"><ele>340.0</ele><time>2026-05-04T16:04:12.043Z</time></trkpt><trkpt lat="41.7206807" lon="13.5682274"><ele>337.75</ele><time>2026-05-04T16:04:13.043Z</time></trkpt><trkpt lat="41.7206298" lon="13.5683936"><ele>335.5</ele><time>2026-05-04T16:04:14.043Z</time></trkpt><trkpt lat="41.7205922" lon="13.5685679"><ele>333.25</ele><time>2026-05-04T16:04:15.043Z</time></trkpt><trkpt lat="41.7205658" lon="13.5687468"><ele>331.0</ele><time>2026-05-04T16:04:16.042Z</time></trkpt><trkpt lat="41.7205448" lon="13.5689"><ele>329.6</ele><time>2026-05-04T16:04:17.042Z</time></trkpt><trkpt lat="41.7205167" lon="13.5690485"><ele>328.20000000000005</ele><time>2026-05-04T16:04:18.042Z</time></trkpt><trkpt lat="41.7204749" lon="13.5691902"><ele>326.79999999999995</ele><time>2026-05-04T16:04:19.042Z</time></trkpt><trkpt lat="41.7204309" lon="13.5693264"><ele>325.4</ele><time>2026-05-04T16:04:20.042Z</time></trkpt><trkpt lat="41.720387" lon="13.5694495"><ele>324.0</ele><time>2026-05-04T16:04:21.042Z</time></trkpt><trkpt lat="41.7203311" lon="13.5695702"><ele>322.4</ele><time>2026-05-04T16:04:22.043Z</time></trkpt><trkpt lat="41.7202685" lon="13.569685"><ele>320.79999999999995</ele><time>2026-05-04T16:04:23.043Z</time></trkpt><trkpt lat="41.7202099" lon="13.5698052"><ele>319.20000000000005</ele><time>2026-05-04T16:04:24.043Z</time></trkpt><trkpt lat="41.7201653" lon="13.5699393"><ele>317.6</ele><time>2026-05-04T16:04:25.042Z</time></trkpt><trkpt lat="41.7201322" lon="13.5700811"><ele>316.0</ele><time>2026-05-04T16:04:26.042Z</time></trkpt><trkpt lat="41.7201043" lon="13.5702242"><ele>314.8333333333333</ele><time>2026-05-04T16:04:27.043Z</time></trkpt><trkpt lat="41.7200887" lon="13.5703399"><ele>313.66666666666663</ele><time>2026-05-04T16:04:28.042Z</time></trkpt><trkpt lat="41.7200748" lon="13.5704372"><ele>312.5</ele><time>2026-05-04T16:04:29.043Z</time></trkpt><trkpt lat="41.7200368" lon="13.5705939"><ele>311.3333333333333</ele><time>2026-05-04T16:04:31.042Z</time></trkpt><trkpt lat="41.7200009" lon="13.5706732"><ele>310.1666666666667</ele><time>2026-05-04T16:04:32.042Z</time></trkpt><trkpt lat="41.719959" lon="13.5707667"><ele>309.0</ele><time>2026-05-04T16:04:33.042Z</time></trkpt><trkpt lat="41.7199124" lon="13.5708884"><ele>307.5</ele><time>2026-05-04T16:04:34.042Z</time></trkpt><trkpt lat="41.7198761" lon="13.571042"><ele>306.0</ele><time>2026-05-04T16:04:35.042Z</time></trkpt><trkpt lat="41.7198443" lon="13.571204"><ele>304.5</ele><time>2026-05-04T16:04:36.043Z</time></trkpt><trkpt lat="41.7198126" lon="13.5713692"><ele>303.0</ele><time>2026-05-04T16:04:37.043Z</time></trkpt><trkpt lat="41.7197796" lon="13.5715371"><ele>301.5</ele><time>2026-05-04T16:04:38.042Z</time></trkpt><trkpt lat="41.7197486" lon="13.5717154"><ele>300.0</ele><time>2026-05-04T16:04:39.042Z</time></trkpt><trkpt lat="41.7197175" lon="13.5718925"><ele>298.5</ele><time>2026-05-04T16:04:40.043Z</time></trkpt><trkpt lat="41.7196901" lon="13.5720707"><ele>297.0</ele><time>2026-05-04T16:04:41.043Z</time></trkpt><trkpt lat="41.7196652" lon="13.5722454"><ele>295.6</ele><time>2026-05-04T16:04:42.043Z</time></trkpt><trkpt lat="41.7196378" lon="13.5723999"><ele>294.2</ele><time>2026-05-04T16:04:43.043Z</time></trkpt><trkpt lat="41.7196069" lon="13.5725363"><ele>292.8</ele><time>2026-05-04T16:04:44.042Z</time></trkpt><trkpt lat="41.7195624" lon="13.5726452"><ele>291.4</ele><time>2026-05-04T16:04:45.043Z</time></trkpt><trkpt lat="41.7194892" lon="13.5727102"><ele>290.0</ele><time>2026-05-04T16:04:46.043Z</time></trkpt><trkpt lat="41.7194154" lon="13.5727689"><ele>290.0</ele><time>2026-05-04T16:04:47.042Z</time></trkpt><trkpt lat="41.7193363" lon="13.5728325"><ele>290.0</ele><time>2026-05-04T16:04:48.042Z</time></trkpt><trkpt lat="41.7192643" lon="13.5729196"><ele>290.0</ele><time>2026-05-04T16:04:49.043Z</time></trkpt><trkpt lat="41.7192146" lon="13.5730381"><ele>290.0</ele><time>2026-05-04T16:04:50.042Z</time></trkpt><trkpt lat="41.7191795" lon="13.5731575"><ele>290.0</ele><time>2026-05-04T16:04:51.043Z</time></trkpt><trkpt lat="41.7191482" lon="13.5732604"><ele>289.33333333333337</ele><time>2026-05-04T16:04:52.043Z</time></trkpt><trkpt lat="41.7191195" lon="13.5733628"><ele>288.6666666666667</ele><time>2026-05-04T16:04:53.042Z</time></trkpt><trkpt lat="41.7190924" lon="13.5734563"><ele>288.0</ele><time>2026-05-04T16:04:54.042Z</time></trkpt><trkpt lat="41.7190691" lon="13.5735441"><ele>287.3333333333333</ele><time>2026-05-04T16:04:55.043Z</time></trkpt><trkpt lat="41.7190278" lon="13.5736896"><ele>286.66666666666663</ele><time>2026-05-04T16:04:57.043Z</time></trkpt><trkpt lat="41.7189968" lon="13.573781"><ele>286.0</ele><time>2026-05-04T16:04:59.043Z</time></trkpt><trkpt lat="41.7190638" lon="13.5738941"><ele>285.0</ele><time>2026-05-04T16:06:35.042Z</time></trkpt><trkpt lat="41.7191503" lon="13.5739214"><ele>284.0</ele><time>2026-05-04T16:06:36.043Z</time></trkpt><trkpt lat="41.719273" lon="13.5739298"><ele>283.0</ele><time>2026-05-04T16:06:37.042Z</time></trkpt><trkpt lat="41.7194165" lon="13.5739371"><ele>282.0</ele><time>2026-05-04T16:06:38.043Z</time></trkpt><trkpt lat="41.7195635" lon="13.5739499"><ele>282.0</ele><time>2026-05-04T16:06:39.042Z</time></trkpt><trkpt lat="41.7197183" lon="13.5739542"><ele>282.0</ele><time>2026-05-04T16:06:40.043Z</time></trkpt><trkpt lat="41.71987" lon="13.5739552"><ele>282.0</ele><time>2026-05-04T16:06:41.042Z</time></trkpt><trkpt lat="41.7200222" lon="13.5739515"><ele>282.0</ele><time>2026-05-04T16:06:42.042Z</time></trkpt><trkpt lat="41.7201672" lon="13.5739509"><ele>282.0</ele><time>2026-05-04T16:06:43.043Z</time></trkpt><trkpt lat="41.7203195" lon="13.573962"><ele>282.0</ele><time>2026-05-04T16:06:44.042Z</time></trkpt><trkpt lat="41.7204754" lon="13.5739767"><ele>281.0</ele><time>2026-05-04T16:06:45.043Z</time></trkpt><trkpt lat="41.7206601" lon="13.5739988"><ele>280.0</ele><time>2026-05-04T16:06:46.043Z</time></trkpt><trkpt lat="41.7208489" lon="13.5740285"><ele>279.0</ele><time>2026-05-04T16:06:47.043Z</time></trkpt><trkpt lat="41.7210226" lon="13.5740551"><ele>279.6666666666667</ele><time>2026-05-04T16:06:48.043Z</time></trkpt><trkpt lat="41.7211944" lon="13.5740707"><ele>280.33333333333337</ele><time>2026-05-04T16:06:49.043Z</time></trkpt><trkpt lat="41.7213723" lon="13.5740823"><ele>281.0</ele><time>2026-05-04T16:06:50.042Z</time></trkpt><trkpt lat="41.7215288" lon="13.5740971"><ele>281.0</ele><time>2026-05-04T16:06:51.043Z</time></trkpt><trkpt lat="41.7216487" lon="13.5741106"><ele>281.0</ele><time>2026-05-04T16:06:52.042Z</time></trkpt><trkpt lat="41.721754" lon="13.5741313"><ele>281.0</ele><time>2026-05-04T16:06:53.043Z</time></trkpt><trkpt lat="41.7218637" lon="13.5741626"><ele>281.0</ele><time>2026-05-04T16:06:54.042Z</time></trkpt><trkpt lat="41.72198" lon="13.5741951"><ele>281.5</ele><time>2026-05-04T16:06:55.043Z</time></trkpt><trkpt lat="41.7221086" lon="13.574234"><ele>282.0</ele><time>2026-05-04T16:06:56.043Z</time></trkpt><trkpt lat="41.7222302" lon="13.5742754"><ele>282.5</ele><time>2026-05-04T16:06:57.043Z</time></trkpt><trkpt lat="41.7223335" lon="13.5743227"><ele>283.0</ele><time>2026-05-04T16:06:58.042Z</time></trkpt><trkpt lat="41.722427" lon="13.5743931"><ele>283.0</ele><time>2026-05-04T16:06:59.042Z</time></trkpt><trkpt lat="41.7225064" lon="13.5744805"><ele>283.0</ele><time>2026-05-04T16:07:00.042Z</time></trkpt><trkpt lat="41.7225554" lon="13.574574"><ele>283.0</ele><time>2026-05-04T16:07:01.042Z</time></trkpt><trkpt lat="41.7225892" lon="13.5746573"><ele>283.0</ele><time>2026-05-04T16:07:02.043Z</time></trkpt><trkpt lat="41.7226231" lon="13.5747522"><ele>283.0</ele><time>2026-05-04T16:07:03.043Z</time></trkpt><trkpt lat="41.7226745" lon="13.574881"><ele>283.0</ele><time>2026-05-04T16:07:04.043Z</time></trkpt><trkpt lat="41.7227458" lon="13.5750461"><ele>282.5</ele><time>2026-05-04T16:07:05.042Z</time></trkpt><trkpt lat="41.7228309" lon="13.5752297"><ele>282.0</ele><time>2026-05-04T16:07:06.043Z</time></trkpt><trkpt lat="41.72291" lon="13.5754165"><ele>281.5</ele><time>2026-05-04T16:07:07.042Z</time></trkpt><trkpt lat="41.7229786" lon="13.57556"><ele>281.0</ele><time>2026-05-04T16:07:08.043Z</time></trkpt><trkpt lat="41.7230232" lon="13.5756927"><ele>281.0</ele><time>2026-05-04T16:07:09.042Z</time></trkpt><trkpt lat="41.7230466" lon="13.5758145"><ele>281.0</ele><time>2026-05-04T16:07:10.043Z</time></trkpt><trkpt lat="41.723054" lon="13.5759477"><ele>281.0</ele><time>2026-05-04T16:07:11.042Z</time></trkpt><trkpt lat="41.7230709" lon="13.5760923"><ele>281.0</ele><time>2026-05-04T16:07:12.042Z</time></trkpt><trkpt lat="41.7231139" lon="13.5762574"><ele>281.0</ele><time>2026-05-04T16:07:13.042Z</time></trkpt><trkpt lat="41.7231783" lon="13.5764434"><ele>280.6666666666667</ele><time>2026-05-04T16:07:14.042Z</time></trkpt><trkpt lat="41.723245" lon="13.5766414"><ele>280.3333333333333</ele><time>2026-05-04T16:07:15.042Z</time></trkpt><trkpt lat="41.7233139" lon="13.5768608"><ele>280.0</ele><time>2026-05-04T16:07:16.042Z</time></trkpt><trkpt lat="41.7233834" lon="13.5771129"><ele>279.5</ele><time>2026-05-04T16:07:17.042Z</time></trkpt><trkpt lat="41.7234463" lon="13.5774057"><ele>279.0</ele><time>2026-05-04T16:07:18.042Z</time></trkpt><trkpt lat="41.7235" lon="13.5777178"><ele>278.5</ele><time>2026-05-04T16:07:19.042Z</time></trkpt><trkpt lat="41.7235486" lon="13.5780485"><ele>278.0</ele><time>2026-05-04T16:07:20.042Z</time></trkpt><trkpt lat="41.7235936" lon="13.5783656"><ele>279.6666666666667</ele><time>2026-05-04T16:07:21.043Z</time></trkpt><trkpt lat="41.7236368" lon="13.5786359"><ele>281.3333333333333</ele><time>2026-05-04T16:07:22.042Z</time></trkpt><trkpt lat="41.7236764" lon="13.5788577"><ele>283.0</ele><time>2026-05-04T16:07:23.042Z</time></trkpt><trkpt lat="41.7237138" lon="13.5790246"><ele>283.0</ele><time>2026-05-04T16:07:24.042Z</time></trkpt><trkpt lat="41.7237382" lon="13.5791406"><ele>283.0</ele><time>2026-05-04T16:07:25.042Z</time></trkpt><trkpt lat="41.7237547" lon="13.5792251"><ele>283.0</ele><time>2026-05-04T16:07:26.043Z</time></trkpt><trkpt lat="41.7237058" lon="13.5793284"><ele>283.0</ele><time>2026-05-04T16:07:28.042Z</time></trkpt><trkpt lat="41.7236054" lon="13.579383"><ele>283.0</ele><time>2026-05-04T16:07:30.042Z</time></trkpt><trkpt lat="41.7235005" lon="13.5794288"><ele>278.0</ele><time>2026-05-04T16:07:32.043Z</time></trkpt><trkpt lat="41.7234369" lon="13.5794653"><ele>278.0</ele><time>2026-05-04T16:07:34.042Z</time></trkpt><trkpt lat="41.7233633" lon="13.5794694"><ele>278.0</ele><time>2026-05-04T16:07:37.043Z</time></trkpt><trkpt lat="41.7233038" lon="13.5794352"><ele>278.0</ele><time>2026-05-04T16:08:33.043Z</time></trkpt><trkpt lat="41.7232354" lon="13.5794413"><ele>278.0</ele><time>2026-05-04T16:08:40.043Z</time></trkpt><trkpt lat="41.7232179" lon="13.5795274"><ele>277.0</ele><time>2026-05-04T16:08:49.041Z</time></trkpt><trkpt lat="41.723276" lon="13.5795746"><ele>277.0</ele><time>2026-05-04T16:08:57.724Z</time></trkpt></trkseg></trk></gpx>